<?xml version='1.0' encoding='UTF-8'?><gpx version="1.1" creator="JPX - https://github.com/jenetics/jpx" xmlns="http://www.topografix.com/GPX/1/1"><trk><trkseg><trkpt lat="45.832145" lon="12.2263117"><ele>76.0</ele><time>2026-05-01T12:36:13.185Z</time></trkpt><trkpt lat="45.8320817" lon="12.2262533"><ele>76.0</ele><time>2026-05-01T12:36:25.184Z</time></trkpt><trkpt lat="45.8319833" lon="12.2263617"><ele>76.0</ele><time>2026-05-01T12:36:27.184Z</time></trkpt><trkpt lat="45.8319267" lon="12.2264283"><ele>76.0</ele><time>2026-05-01T12:36:28.184Z</time></trkpt><trkpt lat="45.8318717" lon="12.2265033"><ele>76.0</ele><time>2026-05-01T12:36:29.183Z</time></trkpt><trkpt lat="45.8318117" lon="12.226585"><ele>76.0</ele><time>2026-05-01T12:36:30.186Z</time></trkpt><trkpt lat="45.8317483" lon="12.2266733"><ele>76.0</ele><time>2026-05-01T12:36:31.186Z</time></trkpt><trkpt lat="45.83168" lon="12.2267633"><ele>76.0</ele><time>2026-05-01T12:36:32.186Z</time></trkpt><trkpt lat="45.83162" lon="12.2268633"><ele>76.0</ele><time>2026-05-01T12:36:33.186Z</time></trkpt><trkpt lat="45.8315533" lon="12.2269633"><ele>76.0</ele><time>2026-05-01T12:36:34.184Z</time></trkpt><trkpt lat="45.8314783" lon="12.2270683"><ele>76.0</ele><time>2026-05-01T12:36:35.186Z</time></trkpt><trkpt lat="45.8314033" lon="12.2271783"><ele>76.0</ele><time>2026-05-01T12:36:36.185Z</time></trkpt><trkpt lat="45.8313217" lon="12.2272883"><ele>76.0</ele><time>2026-05-01T12:36:37.186Z</time></trkpt><trkpt lat="45.8312417" lon="12.2273983"><ele>76.0</ele><time>2026-05-01T12:36:38.187Z</time></trkpt><trkpt lat="45.8311583" lon="12.2275133"><ele>76.0</ele><time>2026-05-01T12:36:39.185Z</time></trkpt><trkpt lat="45.8310733" lon="12.227635"><ele>76.0</ele><time>2026-05-01T12:36:40.187Z</time></trkpt><trkpt lat="45.83099" lon="12.227765"><ele>76.0</ele><time>2026-05-01T12:36:41.184Z</time></trkpt><trkpt lat="45.8309117" lon="12.2279033"><ele>76.0</ele><time>2026-05-01T12:36:42.185Z</time></trkpt><trkpt lat="45.8308433" lon="12.22805"><ele>76.0</ele><time>2026-05-01T12:36:43.185Z</time></trkpt><trkpt lat="45.8307867" lon="12.2282117"><ele>76.0</ele><time>2026-05-01T12:36:44.186Z</time></trkpt><trkpt lat="45.8307433" lon="12.228385"><ele>76.0</ele><time>2026-05-01T12:36:45.187Z</time></trkpt><trkpt lat="45.8307067" lon="12.228565"><ele>76.0</ele><time>2026-05-01T12:36:46.185Z</time></trkpt><trkpt lat="45.8306633" lon="12.2287417"><ele>76.0</ele><time>2026-05-01T12:36:47.184Z</time></trkpt><trkpt lat="45.830615" lon="12.2289167"><ele>76.0</ele><time>2026-05-01T12:36:48.186Z</time></trkpt><trkpt lat="45.8305683" lon="12.229095"><ele>76.0</ele><time>2026-05-01T12:36:49.184Z</time></trkpt><trkpt lat="45.8305233" lon="12.2292733"><ele>76.0</ele><time>2026-05-01T12:36:50.186Z</time></trkpt><trkpt lat="45.83047" lon="12.2294533"><ele>76.0</ele><time>2026-05-01T12:36:51.19Z</time></trkpt><trkpt lat="45.8304167" lon="12.229635"><ele>75.25</ele><time>2026-05-01T12:36:52.186Z</time></trkpt><trkpt lat="45.8303617" lon="12.2298233"><ele>74.5</ele><time>2026-05-01T12:36:53.187Z</time></trkpt><trkpt lat="45.8303083" lon="12.2300167"><ele>73.75</ele><time>2026-05-01T12:36:54.185Z</time></trkpt><trkpt lat="45.8302533" lon="12.2302083"><ele>73.0</ele><time>2026-05-01T12:36:55.185Z</time></trkpt><trkpt lat="45.8302" lon="12.2304017"><ele>73.0</ele><time>2026-05-01T12:36:56.185Z</time></trkpt><trkpt lat="45.8301483" lon="12.230595"><ele>73.0</ele><time>2026-05-01T12:36:57.183Z</time></trkpt><trkpt lat="45.8300983" lon="12.2307917"><ele>73.0</ele><time>2026-05-01T12:36:58.184Z</time></trkpt><trkpt lat="45.83005" lon="12.2309867"><ele>73.0</ele><time>2026-05-01T12:36:59.185Z</time></trkpt><trkpt lat="45.8299983" lon="12.2311883"><ele>73.33333333333333</ele><time>2026-05-01T12:37:00.187Z</time></trkpt><trkpt lat="45.8299467" lon="12.2313917"><ele>73.66666666666667</ele><time>2026-05-01T12:37:01.185Z</time></trkpt><trkpt lat="45.8298933" lon="12.2315917"><ele>74.0</ele><time>2026-05-01T12:37:02.19Z</time></trkpt><trkpt lat="45.8298383" lon="12.231795"><ele>74.0</ele><time>2026-05-01T12:37:03.187Z</time></trkpt><trkpt lat="45.8297817" lon="12.2320017"><ele>74.0</ele><time>2026-05-01T12:37:04.186Z</time></trkpt><trkpt lat="45.82973" lon="12.2322067"><ele>74.0</ele><time>2026-05-01T12:37:05.183Z</time></trkpt><trkpt lat="45.8296767" lon="12.2324133"><ele>74.0</ele><time>2026-05-01T12:37:06.186Z</time></trkpt><trkpt lat="45.8296217" lon="12.2326233"><ele>74.0</ele><time>2026-05-01T12:37:07.266Z</time></trkpt><trkpt lat="45.829565" lon="12.2328317"><ele>74.0</ele><time>2026-05-01T12:37:08.184Z</time></trkpt><trkpt lat="45.82951" lon="12.2330417"><ele>73.75</ele><time>2026-05-01T12:37:09.186Z</time></trkpt><trkpt lat="45.829455" lon="12.2332483"><ele>73.5</ele><time>2026-05-01T12:37:10.186Z</time></trkpt><trkpt lat="45.8294033" lon="12.2334433"><ele>73.25</ele><time>2026-05-01T12:37:11.189Z</time></trkpt><trkpt lat="45.8293517" lon="12.2336367"><ele>73.0</ele><time>2026-05-01T12:37:12.184Z</time></trkpt><trkpt lat="45.8293033" lon="12.2338283"><ele>73.25</ele><time>2026-05-01T12:37:13.184Z</time></trkpt><trkpt lat="45.8292533" lon="12.2340217"><ele>73.5</ele><time>2026-05-01T12:37:14.186Z</time></trkpt><trkpt lat="45.8292067" lon="12.23421"><ele>73.75</ele><time>2026-05-01T12:37:15.185Z</time></trkpt><trkpt lat="45.82916" lon="12.2344017"><ele>74.0</ele><time>2026-05-01T12:37:16.185Z</time></trkpt><trkpt lat="45.8291083" lon="12.2346"><ele>74.0</ele><time>2026-05-01T12:37:17.187Z</time></trkpt><trkpt lat="45.8290567" lon="12.234795"><ele>74.0</ele><time>2026-05-01T12:37:18.187Z</time></trkpt><trkpt lat="45.8290017" lon="12.234995"><ele>74.0</ele><time>2026-05-01T12:37:19.189Z</time></trkpt><trkpt lat="45.8289483" lon="12.2351933"><ele>74.0</ele><time>2026-05-01T12:37:20.189Z</time></trkpt><trkpt lat="45.828895" lon="12.2353933"><ele>73.75</ele><time>2026-05-01T12:37:21.185Z</time></trkpt><trkpt lat="45.8288417" lon="12.2355883"><ele>73.5</ele><time>2026-05-01T12:37:22.185Z</time></trkpt><trkpt lat="45.8287867" lon="12.2357783"><ele>73.25</ele><time>2026-05-01T12:37:23.184Z</time></trkpt><trkpt lat="45.8287333" lon="12.2359733"><ele>73.0</ele><time>2026-05-01T12:37:24.185Z</time></trkpt><trkpt lat="45.82868" lon="12.2361617"><ele>73.0</ele><time>2026-05-01T12:37:25.184Z</time></trkpt><trkpt lat="45.8286283" lon="12.2363517"><ele>73.0</ele><time>2026-05-01T12:37:26.188Z</time></trkpt><trkpt lat="45.8285733" lon="12.2365417"><ele>73.0</ele><time>2026-05-01T12:37:27.186Z</time></trkpt><trkpt lat="45.828515" lon="12.2367333"><ele>73.0</ele><time>2026-05-01T12:37:28.185Z</time></trkpt><trkpt lat="45.82845" lon="12.2369217"><ele>73.0</ele><time>2026-05-01T12:37:29.184Z</time></trkpt><trkpt lat="45.8283817" lon="12.237115"><ele>73.0</ele><time>2026-05-01T12:37:30.183Z</time></trkpt><trkpt lat="45.8283117" lon="12.2373083"><ele>73.0</ele><time>2026-05-01T12:37:31.185Z</time></trkpt><trkpt lat="45.8282417" lon="12.237505"><ele>73.0</ele><time>2026-05-01T12:37:32.184Z</time></trkpt><trkpt lat="45.8281717" lon="12.2377"><ele>73.0</ele><time>2026-05-01T12:37:33.188Z</time></trkpt><trkpt lat="45.8281017" lon="12.23789"><ele>73.0</ele><time>2026-05-01T12:37:34.187Z</time></trkpt><trkpt lat="45.8280383" lon="12.2380867"><ele>72.75</ele><time>2026-05-01T12:37:35.187Z</time></trkpt><trkpt lat="45.82797" lon="12.2382767"><ele>72.5</ele><time>2026-05-01T12:37:36.187Z</time></trkpt><trkpt lat="45.8279017" lon="12.2384633"><ele>72.25</ele><time>2026-05-01T12:37:37.185Z</time></trkpt><trkpt lat="45.8278367" lon="12.238645"><ele>72.0</ele><time>2026-05-01T12:37:38.186Z</time></trkpt><trkpt lat="45.8277717" lon="12.2388317"><ele>72.0</ele><time>2026-05-01T12:37:39.184Z</time></trkpt><trkpt lat="45.8277083" lon="12.2390183"><ele>72.0</ele><time>2026-05-01T12:37:40.186Z</time></trkpt><trkpt lat="45.827645" lon="12.2392083"><ele>72.0</ele><time>2026-05-01T12:37:41.185Z</time></trkpt><trkpt lat="45.8275783" lon="12.2394017"><ele>72.0</ele><time>2026-05-01T12:37:42.184Z</time></trkpt><trkpt lat="45.8275117" lon="12.2395933"><ele>72.0</ele><time>2026-05-01T12:37:43.186Z</time></trkpt><trkpt lat="45.8274467" lon="12.2397867"><ele>72.0</ele><time>2026-05-01T12:37:44.187Z</time></trkpt><trkpt lat="45.8273833" lon="12.23998"><ele>72.0</ele><time>2026-05-01T12:37:45.185Z</time></trkpt><trkpt lat="45.8273133" lon="12.2401717"><ele>72.0</ele><time>2026-05-01T12:37:46.184Z</time></trkpt><trkpt lat="45.82724" lon="12.2403633"><ele>72.0</ele><time>2026-05-01T12:37:47.187Z</time></trkpt><trkpt lat="45.8271717" lon="12.240555"><ele>72.0</ele><time>2026-05-01T12:37:48.184Z</time></trkpt><trkpt lat="45.8271033" lon="12.2407467"><ele>72.0</ele><time>2026-05-01T12:37:49.188Z</time></trkpt><trkpt lat="45.8270367" lon="12.2409383"><ele>72.0</ele><time>2026-05-01T12:37:50.185Z</time></trkpt><trkpt lat="45.8269683" lon="12.2411283"><ele>72.25</ele><time>2026-05-01T12:37:51.186Z</time></trkpt><trkpt lat="45.8269017" lon="12.2413217"><ele>72.5</ele><time>2026-05-01T12:37:52.186Z</time></trkpt><trkpt lat="45.8268367" lon="12.24151"><ele>72.75</ele><time>2026-05-01T12:37:53.184Z</time></trkpt><trkpt lat="45.8267733" lon="12.2417017"><ele>73.0</ele><time>2026-05-01T12:37:54.183Z</time></trkpt><trkpt lat="45.82671" lon="12.2418917"><ele>72.75</ele><time>2026-05-01T12:37:55.184Z</time></trkpt><trkpt lat="45.8266433" lon="12.2420783"><ele>72.5</ele><time>2026-05-01T12:37:56.188Z</time></trkpt><trkpt lat="45.8265767" lon="12.2422667"><ele>72.25</ele><time>2026-05-01T12:37:57.188Z</time></trkpt><trkpt lat="45.8265083" lon="12.2424583"><ele>72.0</ele><time>2026-05-01T12:37:58.185Z</time></trkpt><trkpt lat="45.826435" lon="12.2426467"><ele>72.0</ele><time>2026-05-01T12:37:59.185Z</time></trkpt><trkpt lat="45.826365" lon="12.2428417"><ele>72.0</ele><time>2026-05-01T12:38:00.184Z</time></trkpt><trkpt lat="45.8263" lon="12.2430383"><ele>72.0</ele><time>2026-05-01T12:38:01.184Z</time></trkpt><trkpt lat="45.8262317" lon="12.2432367"><ele>72.0</ele><time>2026-05-01T12:38:02.184Z</time></trkpt><trkpt lat="45.8261633" lon="12.2434417"><ele>72.0</ele><time>2026-05-01T12:38:03.187Z</time></trkpt><trkpt lat="45.8260933" lon="12.243645"><ele>72.0</ele><time>2026-05-01T12:38:04.186Z</time></trkpt><trkpt lat="45.826025" lon="12.2438467"><ele>71.75</ele><time>2026-05-01T12:38:05.186Z</time></trkpt><trkpt lat="45.825955" lon="12.2440433"><ele>71.5</ele><time>2026-05-01T12:38:06.184Z</time></trkpt><trkpt lat="45.82589" lon="12.2442317"><ele>71.25</ele><time>2026-05-01T12:38:07.184Z</time></trkpt><trkpt lat="45.82582" lon="12.2444167"><ele>71.0</ele><time>2026-05-01T12:38:08.19Z</time></trkpt><trkpt lat="45.8257517" lon="12.2446017"><ele>71.0</ele><time>2026-05-01T12:38:09.186Z</time></trkpt><trkpt lat="45.825685" lon="12.244795"><ele>71.0</ele><time>2026-05-01T12:38:10.276Z</time></trkpt><trkpt lat="45.825615" lon="12.2449917"><ele>71.0</ele><time>2026-05-01T12:38:11.188Z</time></trkpt><trkpt lat="45.8255467" lon="12.245185"><ele>70.66666666666667</ele><time>2026-05-01T12:38:12.185Z</time></trkpt><trkpt lat="45.82548" lon="12.24538"><ele>70.33333333333333</ele><time>2026-05-01T12:38:13.184Z</time></trkpt><trkpt lat="45.82541" lon="12.2455783"><ele>70.0</ele><time>2026-05-01T12:38:14.184Z</time></trkpt><trkpt lat="45.8253417" lon="12.24578"><ele>70.0</ele><time>2026-05-01T12:38:15.19Z</time></trkpt><trkpt lat="45.8252733" lon="12.2459783"><ele>70.0</ele><time>2026-05-01T12:38:16.187Z</time></trkpt><trkpt lat="45.8252083" lon="12.2461783"><ele>70.0</ele><time>2026-05-01T12:38:17.184Z</time></trkpt><trkpt lat="45.8251417" lon="12.24638"><ele>70.0</ele><time>2026-05-01T12:38:18.186Z</time></trkpt><trkpt lat="45.8250717" lon="12.2465817"><ele>70.0</ele><time>2026-05-01T12:38:19.182Z</time></trkpt><trkpt lat="45.825" lon="12.2467833"><ele>70.0</ele><time>2026-05-01T12:38:20.184Z</time></trkpt><trkpt lat="45.8249283" lon="12.2469867"><ele>70.0</ele><time>2026-05-01T12:38:21.186Z</time></trkpt><trkpt lat="45.8248533" lon="12.2471933"><ele>70.0</ele><time>2026-05-01T12:38:22.186Z</time></trkpt><trkpt lat="45.824775" lon="12.2474"><ele>70.0</ele><time>2026-05-01T12:38:23.187Z</time></trkpt><trkpt lat="45.8247017" lon="12.24761"><ele>69.33333333333333</ele><time>2026-05-01T12:38:24.186Z</time></trkpt><trkpt lat="45.8246317" lon="12.2478167"><ele>68.66666666666667</ele><time>2026-05-01T12:38:25.184Z</time></trkpt><trkpt lat="45.8245633" lon="12.24802"><ele>68.0</ele><time>2026-05-01T12:38:26.185Z</time></trkpt><trkpt lat="45.8244933" lon="12.2482167"><ele>68.0</ele><time>2026-05-01T12:38:27.185Z</time></trkpt><trkpt lat="45.8244233" lon="12.24841"><ele>68.0</ele><time>2026-05-01T12:38:28.183Z</time></trkpt><trkpt lat="45.824355" lon="12.2485983"><ele>68.0</ele><time>2026-05-01T12:38:29.184Z</time></trkpt><trkpt lat="45.8242833" lon="12.2487867"><ele>68.0</ele><time>2026-05-01T12:38:30.188Z</time></trkpt><trkpt lat="45.824215" lon="12.2489783"><ele>68.0</ele><time>2026-05-01T12:38:31.184Z</time></trkpt><trkpt lat="45.82415" lon="12.2491717"><ele>68.0</ele><time>2026-05-01T12:38:32.185Z</time></trkpt><trkpt lat="45.8240833" lon="12.2493683"><ele>68.0</ele><time>2026-05-01T12:38:33.185Z</time></trkpt><trkpt lat="45.8240167" lon="12.249565"><ele>68.0</ele><time>2026-05-01T12:38:34.185Z</time></trkpt><trkpt lat="45.823945" lon="12.2497633"><ele>68.0</ele><time>2026-05-01T12:38:35.185Z</time></trkpt><trkpt lat="45.823875" lon="12.2499633"><ele>68.0</ele><time>2026-05-01T12:38:36.185Z</time></trkpt><trkpt lat="45.8238067" lon="12.250165"><ele>68.0</ele><time>2026-05-01T12:38:37.184Z</time></trkpt><trkpt lat="45.823735" lon="12.2503683"><ele>68.0</ele><time>2026-05-01T12:38:38.185Z</time></trkpt><trkpt lat="45.823665" lon="12.2505733"><ele>68.0</ele><time>2026-05-01T12:38:39.186Z</time></trkpt><trkpt lat="45.8235967" lon="12.250775"><ele>68.25</ele><time>2026-05-01T12:38:40.184Z</time></trkpt><trkpt lat="45.8235267" lon="12.250965"><ele>68.5</ele><time>2026-05-01T12:38:41.184Z</time></trkpt><trkpt lat="45.8234567" lon="12.2511467"><ele>68.75</ele><time>2026-05-01T12:38:42.184Z</time></trkpt><trkpt lat="45.8233833" lon="12.2513283"><ele>69.0</ele><time>2026-05-01T12:38:43.185Z</time></trkpt><trkpt lat="45.8233283" lon="12.2514833"><ele>69.25</ele><time>2026-05-01T12:38:44.184Z</time></trkpt><trkpt lat="45.8232717" lon="12.2516367"><ele>69.5</ele><time>2026-05-01T12:38:45.187Z</time></trkpt><trkpt lat="45.8232167" lon="12.2517983"><ele>69.75</ele><time>2026-05-01T12:38:46.184Z</time></trkpt><trkpt lat="45.8231617" lon="12.2519683"><ele>70.0</ele><time>2026-05-01T12:38:47.185Z</time></trkpt><trkpt lat="45.8231017" lon="12.2521467"><ele>70.0</ele><time>2026-05-01T12:38:48.265Z</time></trkpt><trkpt lat="45.8230383" lon="12.2523267"><ele>70.0</ele><time>2026-05-01T12:38:49.184Z</time></trkpt><trkpt lat="45.8229783" lon="12.2525033"><ele>70.0</ele><time>2026-05-01T12:38:50.184Z</time></trkpt><trkpt lat="45.8229233" lon="12.25267"><ele>70.0</ele><time>2026-05-01T12:38:51.183Z</time></trkpt><trkpt lat="45.8228717" lon="12.2528233"><ele>70.0</ele><time>2026-05-01T12:38:52.266Z</time></trkpt><trkpt lat="45.8228183" lon="12.2529633"><ele>70.0</ele><time>2026-05-01T12:38:53.186Z</time></trkpt><trkpt lat="45.8227717" lon="12.2530967"><ele>70.0</ele><time>2026-05-01T12:38:54.184Z</time></trkpt><trkpt lat="45.82273" lon="12.253225"><ele>70.0</ele><time>2026-05-01T12:38:55.186Z</time></trkpt><trkpt lat="45.8226933" lon="12.2533367"><ele>70.0</ele><time>2026-05-01T12:38:56.188Z</time></trkpt><trkpt lat="45.8226633" lon="12.2534367"><ele>69.66666666666666</ele><time>2026-05-01T12:38:57.188Z</time></trkpt><trkpt lat="45.8226417" lon="12.2535283"><ele>69.33333333333333</ele><time>2026-05-01T12:38:58.187Z</time></trkpt><trkpt lat="45.8226" lon="12.2536967"><ele>69.0</ele><time>2026-05-01T12:39:00.188Z</time></trkpt><trkpt lat="45.8225533" lon="12.2537817"><ele>68.66666666666667</ele><time>2026-05-01T12:39:01.185Z</time></trkpt><trkpt lat="45.8224917" lon="12.2538467"><ele>68.33333333333334</ele><time>2026-05-01T12:39:02.183Z</time></trkpt><trkpt lat="45.8224233" lon="12.2539"><ele>68.0</ele><time>2026-05-01T12:39:03.189Z</time></trkpt><trkpt lat="45.8223483" lon="12.2539067"><ele>68.0</ele><time>2026-05-01T12:39:04.187Z</time></trkpt><trkpt lat="45.8222667" lon="12.2538817"><ele>68.0</ele><time>2026-05-01T12:39:05.184Z</time></trkpt><trkpt lat="45.8221783" lon="12.253865"><ele>68.0</ele><time>2026-05-01T12:39:06.185Z</time></trkpt><trkpt lat="45.8220783" lon="12.2538317"><ele>68.0</ele><time>2026-05-01T12:39:07.185Z</time></trkpt><trkpt lat="45.8219733" lon="12.2537917"><ele>68.0</ele><time>2026-05-01T12:39:08.189Z</time></trkpt><trkpt lat="45.8218683" lon="12.2537517"><ele>67.75</ele><time>2026-05-01T12:39:09.19Z</time></trkpt><trkpt lat="45.82176" lon="12.253715"><ele>67.5</ele><time>2026-05-01T12:39:10.187Z</time></trkpt><trkpt lat="45.8216467" lon="12.2536783"><ele>67.25</ele><time>2026-05-01T12:39:11.184Z</time></trkpt><trkpt lat="45.82153" lon="12.2536367"><ele>67.0</ele><time>2026-05-01T12:39:12.185Z</time></trkpt><trkpt lat="45.8214167" lon="12.2535967"><ele>67.0</ele><time>2026-05-01T12:39:13.186Z</time></trkpt><trkpt lat="45.8213083" lon="12.253565"><ele>67.0</ele><time>2026-05-01T12:39:14.185Z</time></trkpt><trkpt lat="45.8212117" lon="12.25353"><ele>67.0</ele><time>2026-05-01T12:39:15.188Z</time></trkpt><trkpt lat="45.821115" lon="12.2534917"><ele>67.0</ele><time>2026-05-01T12:39:16.184Z</time></trkpt><trkpt lat="45.8210167" lon="12.2534533"><ele>67.0</ele><time>2026-05-01T12:39:17.186Z</time></trkpt><trkpt lat="45.8209167" lon="12.2534133"><ele>67.0</ele><time>2026-05-01T12:39:18.184Z</time></trkpt><trkpt lat="45.8208133" lon="12.253365"><ele>67.0</ele><time>2026-05-01T12:39:19.185Z</time></trkpt><trkpt lat="45.8207083" lon="12.25332"><ele>67.0</ele><time>2026-05-01T12:39:20.185Z</time></trkpt><trkpt lat="45.8206" lon="12.2532767"><ele>67.0</ele><time>2026-05-01T12:39:21.189Z</time></trkpt><trkpt lat="45.8204883" lon="12.2532267"><ele>67.0</ele><time>2026-05-01T12:39:22.188Z</time></trkpt><trkpt lat="45.82038" lon="12.2531733"><ele>67.0</ele><time>2026-05-01T12:39:23.188Z</time></trkpt><trkpt lat="45.8202667" lon="12.253115"><ele>67.0</ele><time>2026-05-01T12:39:24.186Z</time></trkpt><trkpt lat="45.8201517" lon="12.2530417"><ele>67.0</ele><time>2026-05-01T12:39:25.188Z</time></trkpt><trkpt lat="45.8200317" lon="12.2529683"><ele>67.0</ele><time>2026-05-01T12:39:26.186Z</time></trkpt><trkpt lat="45.8199133" lon="12.252875"><ele>67.0</ele><time>2026-05-01T12:39:27.188Z</time></trkpt><trkpt lat="45.8197867" lon="12.2527667"><ele>67.0</ele><time>2026-05-01T12:39:28.187Z</time></trkpt><trkpt lat="45.819655" lon="12.2526667"><ele>67.0</ele><time>2026-05-01T12:39:29.19Z</time></trkpt><trkpt lat="45.819525" lon="12.2525633"><ele>67.0</ele><time>2026-05-01T12:39:30.186Z</time></trkpt><trkpt lat="45.8194" lon="12.25245"><ele>67.0</ele><time>2026-05-01T12:39:31.185Z</time></trkpt><trkpt lat="45.8192717" lon="12.2523283"><ele>67.0</ele><time>2026-05-01T12:39:32.189Z</time></trkpt><trkpt lat="45.819135" lon="12.2522017"><ele>67.0</ele><time>2026-05-01T12:39:33.185Z</time></trkpt><trkpt lat="45.818995" lon="12.2520733"><ele>67.0</ele><time>2026-05-01T12:39:34.185Z</time></trkpt><trkpt lat="45.8188517" lon="12.2519483"><ele>67.0</ele><time>2026-05-01T12:39:35.187Z</time></trkpt><trkpt lat="45.8187117" lon="12.2518167"><ele>67.0</ele><time>2026-05-01T12:39:36.184Z</time></trkpt><trkpt lat="45.8185667" lon="12.2516817"><ele>66.66666666666666</ele><time>2026-05-01T12:39:37.187Z</time></trkpt><trkpt lat="45.8184183" lon="12.2515517"><ele>66.33333333333333</ele><time>2026-05-01T12:39:38.184Z</time></trkpt><trkpt lat="45.8182783" lon="12.2514183"><ele>66.0</ele><time>2026-05-01T12:39:39.185Z</time></trkpt><trkpt lat="45.818145" lon="12.2512983"><ele>65.75</ele><time>2026-05-01T12:39:40.187Z</time></trkpt><trkpt lat="45.8180217" lon="12.2511817"><ele>65.5</ele><time>2026-05-01T12:39:41.187Z</time></trkpt><trkpt lat="45.8179067" lon="12.2510733"><ele>65.25</ele><time>2026-05-01T12:39:42.183Z</time></trkpt><trkpt lat="45.8177983" lon="12.2509683"><ele>65.0</ele><time>2026-05-01T12:39:43.185Z</time></trkpt><trkpt lat="45.8176917" lon="12.2508683"><ele>64.5</ele><time>2026-05-01T12:39:44.186Z</time></trkpt><trkpt lat="45.8175833" lon="12.2507667"><ele>64.0</ele><time>2026-05-01T12:39:45.184Z</time></trkpt><trkpt lat="45.81747" lon="12.2506667"><ele>63.5</ele><time>2026-05-01T12:39:46.185Z</time></trkpt><trkpt lat="45.8173617" lon="12.2505633"><ele>63.0</ele><time>2026-05-01T12:39:47.185Z</time></trkpt><trkpt lat="45.81725" lon="12.2504617"><ele>63.0</ele><time>2026-05-01T12:39:48.185Z</time></trkpt><trkpt lat="45.8171383" lon="12.2503567"><ele>63.0</ele><time>2026-05-01T12:39:49.188Z</time></trkpt><trkpt lat="45.817025" lon="12.2502533"><ele>63.0</ele><time>2026-05-01T12:39:50.186Z</time></trkpt><trkpt lat="45.8169133" lon="12.2501517"><ele>63.0</ele><time>2026-05-01T12:39:51.187Z</time></trkpt><trkpt lat="45.8168017" lon="12.25005"><ele>62.5</ele><time>2026-05-01T12:39:52.186Z</time></trkpt><trkpt lat="45.81669" lon="12.2499483"><ele>62.0</ele><time>2026-05-01T12:39:53.186Z</time></trkpt><trkpt lat="45.81658" lon="12.2498467"><ele>61.5</ele><time>2026-05-01T12:39:54.186Z</time></trkpt><trkpt lat="45.81647" lon="12.2497467"><ele>61.0</ele><time>2026-05-01T12:39:55.187Z</time></trkpt><trkpt lat="45.8163567" lon="12.2496467"><ele>61.0</ele><time>2026-05-01T12:39:56.187Z</time></trkpt><trkpt lat="45.8162467" lon="12.2495467"><ele>61.0</ele><time>2026-05-01T12:39:57.184Z</time></trkpt><trkpt lat="45.8161367" lon="12.2494433"><ele>61.0</ele><time>2026-05-01T12:39:58.185Z</time></trkpt><trkpt lat="45.8160283" lon="12.2493333"><ele>61.0</ele><time>2026-05-01T12:39:59.185Z</time></trkpt><trkpt lat="45.8159133" lon="12.24923"><ele>61.0</ele><time>2026-05-01T12:40:00.189Z</time></trkpt><trkpt lat="45.8158" lon="12.2491217"><ele>61.0</ele><time>2026-05-01T12:40:01.191Z</time></trkpt><trkpt lat="45.81569" lon="12.2490167"><ele>61.0</ele><time>2026-05-01T12:40:02.188Z</time></trkpt><trkpt lat="45.8155867" lon="12.2489217"><ele>61.0</ele><time>2026-05-01T12:40:03.19Z</time></trkpt><trkpt lat="45.8154867" lon="12.2488333"><ele>61.4</ele><time>2026-05-01T12:40:04.187Z</time></trkpt><trkpt lat="45.815395" lon="12.24875"><ele>61.8</ele><time>2026-05-01T12:40:05.187Z</time></trkpt><trkpt lat="45.8153083" lon="12.248675"><ele>62.199999999999996</ele><time>2026-05-01T12:40:06.186Z</time></trkpt><trkpt lat="45.815225" lon="12.2486"><ele>62.599999999999994</ele><time>2026-05-01T12:40:07.188Z</time></trkpt><trkpt lat="45.8151433" lon="12.2485217"><ele>63.0</ele><time>2026-05-01T12:40:08.188Z</time></trkpt><trkpt lat="45.8150683" lon="12.2484383"><ele>64.4</ele><time>2026-05-01T12:40:09.187Z</time></trkpt><trkpt lat="45.8150117" lon="12.2483467"><ele>65.8</ele><time>2026-05-01T12:40:10.185Z</time></trkpt><trkpt lat="45.8149683" lon="12.2482433"><ele>67.2</ele><time>2026-05-01T12:40:11.263Z</time></trkpt><trkpt lat="45.8149317" lon="12.2481283"><ele>68.6</ele><time>2026-05-01T12:40:12.184Z</time></trkpt><trkpt lat="45.8148917" lon="12.247995"><ele>70.0</ele><time>2026-05-01T12:40:13.189Z</time></trkpt><trkpt lat="45.81486" lon="12.2478533"><ele>70.0</ele><time>2026-05-01T12:40:14.186Z</time></trkpt><trkpt lat="45.8148283" lon="12.2477083"><ele>70.0</ele><time>2026-05-01T12:40:15.189Z</time></trkpt><trkpt lat="45.814795" lon="12.247565"><ele>70.0</ele><time>2026-05-01T12:40:16.185Z</time></trkpt><trkpt lat="45.8147517" lon="12.24742"><ele>70.0</ele><time>2026-05-01T12:40:17.184Z</time></trkpt><trkpt lat="45.814705" lon="12.2472683"><ele>70.0</ele><time>2026-05-01T12:40:18.183Z</time></trkpt><trkpt lat="45.81465" lon="12.247115"><ele>69.25</ele><time>2026-05-01T12:40:19.183Z</time></trkpt><trkpt lat="45.8145917" lon="12.2469533"><ele>68.5</ele><time>2026-05-01T12:40:20.185Z</time></trkpt><trkpt lat="45.814525" lon="12.246785"><ele>67.75</ele><time>2026-05-01T12:40:21.186Z</time></trkpt><trkpt lat="45.81445" lon="12.2466133"><ele>67.0</ele><time>2026-05-01T12:40:22.185Z</time></trkpt><trkpt lat="45.8143733" lon="12.2464433"><ele>67.33333333333333</ele><time>2026-05-01T12:40:23.184Z</time></trkpt><trkpt lat="45.81429" lon="12.246275"><ele>67.66666666666667</ele><time>2026-05-01T12:40:24.187Z</time></trkpt><trkpt lat="45.8142017" lon="12.2460967"><ele>68.0</ele><time>2026-05-01T12:40:25.187Z</time></trkpt><trkpt lat="45.8141117" lon="12.2459033"><ele>68.0</ele><time>2026-05-01T12:40:26.188Z</time></trkpt><trkpt lat="45.8140167" lon="12.245705"><ele>68.0</ele><time>2026-05-01T12:40:27.186Z</time></trkpt><trkpt lat="45.8139217" lon="12.2454967"><ele>68.0</ele><time>2026-05-01T12:40:28.186Z</time></trkpt><trkpt lat="45.8138283" lon="12.24529"><ele>68.0</ele><time>2026-05-01T12:40:29.183Z</time></trkpt><trkpt lat="45.8137333" lon="12.24509"><ele>68.0</ele><time>2026-05-01T12:40:30.184Z</time></trkpt><trkpt lat="45.813635" lon="12.244895"><ele>68.0</ele><time>2026-05-01T12:40:31.186Z</time></trkpt><trkpt lat="45.81354" lon="12.24469"><ele>68.66666666666667</ele><time>2026-05-01T12:40:32.189Z</time></trkpt><trkpt lat="45.81344" lon="12.2444833"><ele>69.33333333333333</ele><time>2026-05-01T12:40:33.187Z</time></trkpt><trkpt lat="45.8133417" lon="12.2442767"><ele>70.0</ele><time>2026-05-01T12:40:34.189Z</time></trkpt><trkpt lat="45.8132483" lon="12.2440833"><ele>69.0</ele><time>2026-05-01T12:40:35.185Z</time></trkpt><trkpt lat="45.8131583" lon="12.2438967"><ele>68.0</ele><time>2026-05-01T12:40:36.186Z</time></trkpt><trkpt lat="45.8130667" lon="12.2437083"><ele>67.0</ele><time>2026-05-01T12:40:37.187Z</time></trkpt><trkpt lat="45.8129767" lon="12.24352"><ele>67.0</ele><time>2026-05-01T12:40:38.185Z</time></trkpt><trkpt lat="45.81289" lon="12.2433333"><ele>67.0</ele><time>2026-05-01T12:40:39.188Z</time></trkpt><trkpt lat="45.812805" lon="12.2431467"><ele>67.0</ele><time>2026-05-01T12:40:40.188Z</time></trkpt><trkpt lat="45.812715" lon="12.2429617"><ele>68.0</ele><time>2026-05-01T12:40:41.188Z</time></trkpt><trkpt lat="45.812625" lon="12.2427767"><ele>69.0</ele><time>2026-05-01T12:40:42.184Z</time></trkpt><trkpt lat="45.8125317" lon="12.24259"><ele>70.0</ele><time>2026-05-01T12:40:43.185Z</time></trkpt><trkpt lat="45.8124417" lon="12.2424033"><ele>70.33333333333333</ele><time>2026-05-01T12:40:44.188Z</time></trkpt><trkpt lat="45.8123533" lon="12.2422117"><ele>70.66666666666667</ele><time>2026-05-01T12:40:45.184Z</time></trkpt><trkpt lat="45.8122617" lon="12.24202"><ele>71.0</ele><time>2026-05-01T12:40:46.187Z</time></trkpt><trkpt lat="45.8121667" lon="12.2418233"><ele>71.0</ele><time>2026-05-01T12:40:47.185Z</time></trkpt><trkpt lat="45.812075" lon="12.2416267"><ele>71.0</ele><time>2026-05-01T12:40:48.184Z</time></trkpt><trkpt lat="45.8119817" lon="12.2414283"><ele>71.0</ele><time>2026-05-01T12:40:49.185Z</time></trkpt><trkpt lat="45.811885" lon="12.2412283"><ele>70.33333333333334</ele><time>2026-05-01T12:40:50.184Z</time></trkpt><trkpt lat="45.81179" lon="12.2410267"><ele>69.66666666666667</ele><time>2026-05-01T12:40:51.185Z</time></trkpt><trkpt lat="45.8116917" lon="12.2408283"><ele>69.0</ele><time>2026-05-01T12:40:52.186Z</time></trkpt><trkpt lat="45.8115933" lon="12.2406283"><ele>68.66666666666667</ele><time>2026-05-01T12:40:53.185Z</time></trkpt><trkpt lat="45.8114967" lon="12.2404317"><ele>68.33333333333334</ele><time>2026-05-01T12:40:54.186Z</time></trkpt><trkpt lat="45.8114017" lon="12.24023"><ele>68.0</ele><time>2026-05-01T12:40:55.188Z</time></trkpt><trkpt lat="45.8113133" lon="12.24004"><ele>68.0</ele><time>2026-05-01T12:40:56.185Z</time></trkpt><trkpt lat="45.81123" lon="12.2398633"><ele>68.0</ele><time>2026-05-01T12:40:57.187Z</time></trkpt><trkpt lat="45.8111517" lon="12.2396967"><ele>68.0</ele><time>2026-05-01T12:40:58.187Z</time></trkpt><trkpt lat="45.8110833" lon="12.23953"><ele>68.0</ele><time>2026-05-01T12:40:59.184Z</time></trkpt><trkpt lat="45.8110283" lon="12.2393717"><ele>67.8</ele><time>2026-05-01T12:41:00.186Z</time></trkpt><trkpt lat="45.810985" lon="12.2392317"><ele>67.6</ele><time>2026-05-01T12:41:01.187Z</time></trkpt><trkpt lat="45.8109533" lon="12.239105"><ele>67.4</ele><time>2026-05-01T12:41:02.187Z</time></trkpt><trkpt lat="45.81093" lon="12.238985"><ele>67.2</ele><time>2026-05-01T12:41:03.186Z</time></trkpt><trkpt lat="45.8109183" lon="12.23887"><ele>67.0</ele><time>2026-05-01T12:41:04.184Z</time></trkpt><trkpt lat="45.8109183" lon="12.2387533"><ele>67.0</ele><time>2026-05-01T12:41:05.185Z</time></trkpt><trkpt lat="45.8109317" lon="12.2386317"><ele>67.0</ele><time>2026-05-01T12:41:06.185Z</time></trkpt><trkpt lat="45.810955" lon="12.238505"><ele>67.0</ele><time>2026-05-01T12:41:07.187Z</time></trkpt><trkpt lat="45.81097" lon="12.2383767"><ele>67.0</ele><time>2026-05-01T12:41:08.184Z</time></trkpt><trkpt lat="45.8109717" lon="12.2382467"><ele>67.0</ele><time>2026-05-01T12:41:09.187Z</time></trkpt><trkpt lat="45.81095" lon="12.238115"><ele>67.0</ele><time>2026-05-01T12:41:10.185Z</time></trkpt><trkpt lat="45.8109067" lon="12.2379867"><ele>67.0</ele><time>2026-05-01T12:41:11.183Z</time></trkpt><trkpt lat="45.810855" lon="12.2378483"><ele>67.0</ele><time>2026-05-01T12:41:12.186Z</time></trkpt><trkpt lat="45.810825" lon="12.2376867"><ele>67.0</ele><time>2026-05-01T12:41:13.186Z</time></trkpt><trkpt lat="45.810815" lon="12.2375017"><ele>67.5</ele><time>2026-05-01T12:41:14.185Z</time></trkpt><trkpt lat="45.8108267" lon="12.2372933"><ele>68.0</ele><time>2026-05-01T12:41:15.185Z</time></trkpt><trkpt lat="45.8108483" lon="12.23708"><ele>68.5</ele><time>2026-05-01T12:41:16.184Z</time></trkpt><trkpt lat="45.8108767" lon="12.2368717"><ele>69.0</ele><time>2026-05-01T12:41:17.189Z</time></trkpt><trkpt lat="45.8109167" lon="12.23666"><ele>69.0</ele><time>2026-05-01T12:41:18.184Z</time></trkpt><trkpt lat="45.8109733" lon="12.2364383"><ele>69.0</ele><time>2026-05-01T12:41:19.188Z</time></trkpt><trkpt lat="45.811045" lon="12.2362117"><ele>69.0</ele><time>2026-05-01T12:41:20.185Z</time></trkpt><trkpt lat="45.8111217" lon="12.2359983"><ele>69.0</ele><time>2026-05-01T12:41:21.185Z</time></trkpt><trkpt lat="45.811205" lon="12.2358117"><ele>69.0</ele><time>2026-05-01T12:41:22.186Z</time></trkpt><trkpt lat="45.8112817" lon="12.235645"><ele>69.0</ele><time>2026-05-01T12:41:23.186Z</time></trkpt><trkpt lat="45.8113583" lon="12.2355"><ele>69.0</ele><time>2026-05-01T12:41:24.189Z</time></trkpt><trkpt lat="45.8114317" lon="12.23537"><ele>69.0</ele><time>2026-05-01T12:41:25.187Z</time></trkpt><trkpt lat="45.8115033" lon="12.235255"><ele>69.0</ele><time>2026-05-01T12:41:26.188Z</time></trkpt><trkpt lat="45.8115683" lon="12.2351483"><ele>69.0</ele><time>2026-05-01T12:41:27.184Z</time></trkpt><trkpt lat="45.8116333" lon="12.2350483"><ele>69.0</ele><time>2026-05-01T12:41:28.184Z</time></trkpt><trkpt lat="45.81169" lon="12.2349583"><ele>69.0</ele><time>2026-05-01T12:41:29.184Z</time></trkpt><trkpt lat="45.8117433" lon="12.2348917"><ele>69.0</ele><time>2026-05-01T12:41:30.184Z</time></trkpt><trkpt lat="45.8118333" lon="12.2347833"><ele>69.0</ele><time>2026-05-01T12:41:32.267Z</time></trkpt><trkpt lat="45.811885" lon="12.2346967"><ele>69.0</ele><time>2026-05-01T12:41:34.183Z</time></trkpt><trkpt lat="45.81193" lon="12.2345533"><ele>69.0</ele><time>2026-05-01T12:42:03.189Z</time></trkpt><trkpt lat="45.812005" lon="12.234395"><ele>69.0</ele><time>2026-05-01T12:42:05.185Z</time></trkpt><trkpt lat="45.8120617" lon="12.2343"><ele>69.0</ele><time>2026-05-01T12:42:06.186Z</time></trkpt><trkpt lat="45.8121233" lon="12.2342033"><ele>69.0</ele><time>2026-05-01T12:42:07.187Z</time></trkpt><trkpt lat="45.8121917" lon="12.2340917"><ele>69.0</ele><time>2026-05-01T12:42:08.184Z</time></trkpt><trkpt lat="45.812265" lon="12.2339667"><ele>69.0</ele><time>2026-05-01T12:42:09.185Z</time></trkpt><trkpt lat="45.81234" lon="12.2338383"><ele>69.0</ele><time>2026-05-01T12:42:10.186Z</time></trkpt><trkpt lat="45.812415" lon="12.2337067"><ele>69.0</ele><time>2026-05-01T12:42:11.188Z</time></trkpt><trkpt lat="45.812495" lon="12.23357"><ele>69.0</ele><time>2026-05-01T12:42:12.187Z</time></trkpt><trkpt lat="45.8125783" lon="12.233425"><ele>69.0</ele><time>2026-05-01T12:42:13.189Z</time></trkpt><trkpt lat="45.8126667" lon="12.23327"><ele>69.0</ele><time>2026-05-01T12:42:14.189Z</time></trkpt><trkpt lat="45.81276" lon="12.233105"><ele>69.25</ele><time>2026-05-01T12:42:15.187Z</time></trkpt><trkpt lat="45.812855" lon="12.2329367"><ele>69.5</ele><time>2026-05-01T12:42:16.189Z</time></trkpt><trkpt lat="45.8129483" lon="12.2327717"><ele>69.75</ele><time>2026-05-01T12:42:17.185Z</time></trkpt><trkpt lat="45.8130433" lon="12.2326083"><ele>70.0</ele><time>2026-05-01T12:42:18.185Z</time></trkpt><trkpt lat="45.8131417" lon="12.2324383"><ele>69.66666666666666</ele><time>2026-05-01T12:42:19.185Z</time></trkpt><trkpt lat="45.8132383" lon="12.2322617"><ele>69.33333333333333</ele><time>2026-05-01T12:42:20.183Z</time></trkpt><trkpt lat="45.81334" lon="12.23208"><ele>69.0</ele><time>2026-05-01T12:42:21.185Z</time></trkpt><trkpt lat="45.813445" lon="12.2318933"><ele>68.66666666666667</ele><time>2026-05-01T12:42:22.184Z</time></trkpt><trkpt lat="45.8135533" lon="12.2317"><ele>68.33333333333334</ele><time>2026-05-01T12:42:23.185Z</time></trkpt><trkpt lat="45.813665" lon="12.2314983"><ele>68.0</ele><time>2026-05-01T12:42:24.183Z</time></trkpt><trkpt lat="45.8137717" lon="12.2312967"><ele>68.0</ele><time>2026-05-01T12:42:25.187Z</time></trkpt><trkpt lat="45.8138767" lon="12.2311033"><ele>68.0</ele><time>2026-05-01T12:42:26.183Z</time></trkpt><trkpt lat="45.8139883" lon="12.2309033"><ele>68.0</ele><time>2026-05-01T12:42:27.184Z</time></trkpt><trkpt lat="45.8141" lon="12.2307067"><ele>68.66666666666667</ele><time>2026-05-01T12:42:28.184Z</time></trkpt><trkpt lat="45.8142117" lon="12.2305083"><ele>69.33333333333333</ele><time>2026-05-01T12:42:29.19Z</time></trkpt><trkpt lat="45.8143233" lon="12.2303167"><ele>70.0</ele><time>2026-05-01T12:42:30.191Z</time></trkpt><trkpt lat="45.8144317" lon="12.2301333"><ele>70.0</ele><time>2026-05-01T12:42:31.188Z</time></trkpt><trkpt lat="45.8145383" lon="12.229955"><ele>70.0</ele><time>2026-05-01T12:42:32.186Z</time></trkpt><trkpt lat="45.814645" lon="12.229775"><ele>70.0</ele><time>2026-05-01T12:42:33.184Z</time></trkpt><trkpt lat="45.81475" lon="12.2295917"><ele>70.0</ele><time>2026-05-01T12:42:34.184Z</time></trkpt><trkpt lat="45.8148533" lon="12.22941"><ele>70.0</ele><time>2026-05-01T12:42:35.188Z</time></trkpt><trkpt lat="45.8149583" lon="12.2292267"><ele>70.0</ele><time>2026-05-01T12:42:36.184Z</time></trkpt><trkpt lat="45.815065" lon="12.229045"><ele>70.33333333333333</ele><time>2026-05-01T12:42:37.189Z</time></trkpt><trkpt lat="45.81517" lon="12.2288583"><ele>70.66666666666667</ele><time>2026-05-01T12:42:38.185Z</time></trkpt><trkpt lat="45.8152783" lon="12.228675"><ele>71.0</ele><time>2026-05-01T12:42:39.184Z</time></trkpt><trkpt lat="45.8153883" lon="12.2284883"><ele>71.0</ele><time>2026-05-01T12:42:40.184Z</time></trkpt><trkpt lat="45.8154967" lon="12.2283"><ele>71.0</ele><time>2026-05-01T12:42:41.184Z</time></trkpt><trkpt lat="45.8156067" lon="12.2281133"><ele>71.0</ele><time>2026-05-01T12:42:42.184Z</time></trkpt><trkpt lat="45.8157133" lon="12.2279233"><ele>71.0</ele><time>2026-05-01T12:42:43.188Z</time></trkpt><trkpt lat="45.8158233" lon="12.2277367"><ele>71.0</ele><time>2026-05-01T12:42:44.186Z</time></trkpt><trkpt lat="45.8159317" lon="12.227545"><ele>71.0</ele><time>2026-05-01T12:42:45.188Z</time></trkpt><trkpt lat="45.8160417" lon="12.2273483"><ele>70.66666666666667</ele><time>2026-05-01T12:42:46.186Z</time></trkpt><trkpt lat="45.8161517" lon="12.22716"><ele>70.33333333333333</ele><time>2026-05-01T12:42:47.186Z</time></trkpt><trkpt lat="45.81626" lon="12.22698"><ele>70.0</ele><time>2026-05-01T12:42:48.185Z</time></trkpt><trkpt lat="45.8163633" lon="12.2267983"><ele>70.0</ele><time>2026-05-01T12:42:49.189Z</time></trkpt><trkpt lat="45.8164683" lon="12.2266167"><ele>70.0</ele><time>2026-05-01T12:42:50.184Z</time></trkpt><trkpt lat="45.816575" lon="12.226435"><ele>70.0</ele><time>2026-05-01T12:42:51.185Z</time></trkpt><trkpt lat="45.8166817" lon="12.2262483"><ele>70.66666666666666</ele><time>2026-05-01T12:42:52.184Z</time></trkpt><trkpt lat="45.8167917" lon="12.2260583"><ele>71.33333333333333</ele><time>2026-05-01T12:42:53.185Z</time></trkpt><trkpt lat="45.8169033" lon="12.22587"><ele>72.0</ele><time>2026-05-01T12:42:54.184Z</time></trkpt><trkpt lat="45.817015" lon="12.225675"><ele>72.33333333333333</ele><time>2026-05-01T12:42:55.188Z</time></trkpt><trkpt lat="45.8171267" lon="12.2254783"><ele>72.66666666666666</ele><time>2026-05-01T12:42:56.187Z</time></trkpt><trkpt lat="45.8172383" lon="12.225285"><ele>73.0</ele><time>2026-05-01T12:42:57.185Z</time></trkpt><trkpt lat="45.817345" lon="12.2251"><ele>73.0</ele><time>2026-05-01T12:42:58.183Z</time></trkpt><trkpt lat="45.8174467" lon="12.224925"><ele>73.0</ele><time>2026-05-01T12:42:59.185Z</time></trkpt><trkpt lat="45.81755" lon="12.2247567"><ele>73.0</ele><time>2026-05-01T12:43:00.192Z</time></trkpt><trkpt lat="45.817675" lon="12.2246067"><ele>73.33333333333333</ele><time>2026-05-01T12:43:01.184Z</time></trkpt><trkpt lat="45.8178183" lon="12.2244867"><ele>73.66666666666667</ele><time>2026-05-01T12:43:02.186Z</time></trkpt><trkpt lat="45.8179817" lon="12.2243983"><ele>74.0</ele><time>2026-05-01T12:43:03.184Z</time></trkpt><trkpt lat="45.8181567" lon="12.2243217"><ele>74.0</ele><time>2026-05-01T12:43:04.185Z</time></trkpt><trkpt lat="45.8183383" lon="12.22425"><ele>74.0</ele><time>2026-05-01T12:43:05.184Z</time></trkpt><trkpt lat="45.818525" lon="12.2241717"><ele>74.0</ele><time>2026-05-01T12:43:06.187Z</time></trkpt><trkpt lat="45.81871" lon="12.22409"><ele>74.0</ele><time>2026-05-01T12:43:07.188Z</time></trkpt><trkpt lat="45.8188833" lon="12.224005"><ele>74.0</ele><time>2026-05-01T12:43:08.191Z</time></trkpt><trkpt lat="45.8190533" lon="12.2239283"><ele>74.0</ele><time>2026-05-01T12:43:09.184Z</time></trkpt><trkpt lat="45.8192183" lon="12.22386"><ele>73.66666666666667</ele><time>2026-05-01T12:43:10.184Z</time></trkpt><trkpt lat="45.8193833" lon="12.2237967"><ele>73.33333333333333</ele><time>2026-05-01T12:43:11.184Z</time></trkpt><trkpt lat="45.8195467" lon="12.22373"><ele>73.0</ele><time>2026-05-01T12:43:12.186Z</time></trkpt><trkpt lat="45.8197133" lon="12.2236633"><ele>73.0</ele><time>2026-05-01T12:43:13.185Z</time></trkpt><trkpt lat="45.8198833" lon="12.22359"><ele>73.0</ele><time>2026-05-01T12:43:14.186Z</time></trkpt><trkpt lat="45.820055" lon="12.223515"><ele>73.0</ele><time>2026-05-01T12:43:15.187Z</time></trkpt><trkpt lat="45.82023" lon="12.22344"><ele>74.33333333333333</ele><time>2026-05-01T12:43:16.184Z</time></trkpt><trkpt lat="45.8204067" lon="12.2233717"><ele>75.66666666666667</ele><time>2026-05-01T12:43:17.185Z</time></trkpt><trkpt lat="45.8205833" lon="12.2232983"><ele>77.0</ele><time>2026-05-01T12:43:18.185Z</time></trkpt><trkpt lat="45.8207617" lon="12.2232267"><ele>77.0</ele><time>2026-05-01T12:43:19.189Z</time></trkpt><trkpt lat="45.820935" lon="12.2231517"><ele>77.0</ele><time>2026-05-01T12:43:20.191Z</time></trkpt><trkpt lat="45.8211033" lon="12.2230817"><ele>77.0</ele><time>2026-05-01T12:43:21.187Z</time></trkpt><trkpt lat="45.8212617" lon="12.2230167"><ele>76.5</ele><time>2026-05-01T12:43:22.186Z</time></trkpt><trkpt lat="45.8214133" lon="12.2229617"><ele>76.0</ele><time>2026-05-01T12:43:23.187Z</time></trkpt><trkpt lat="45.821555" lon="12.2229033"><ele>75.5</ele><time>2026-05-01T12:43:24.183Z</time></trkpt><trkpt lat="45.821685" lon="12.222835"><ele>75.0</ele><time>2026-05-01T12:43:25.185Z</time></trkpt><trkpt lat="45.82181" lon="12.222735"><ele>75.66666666666667</ele><time>2026-05-01T12:43:26.186Z</time></trkpt><trkpt lat="45.8219283" lon="12.2226017"><ele>76.33333333333334</ele><time>2026-05-01T12:43:27.188Z</time></trkpt><trkpt lat="45.8220467" lon="12.2224383"><ele>77.0</ele><time>2026-05-01T12:43:28.186Z</time></trkpt><trkpt lat="45.8221517" lon="12.2222533"><ele>77.0</ele><time>2026-05-01T12:43:29.186Z</time></trkpt><trkpt lat="45.8222567" lon="12.2220483"><ele>77.0</ele><time>2026-05-01T12:43:30.186Z</time></trkpt><trkpt lat="45.82236" lon="12.2218333"><ele>77.0</ele><time>2026-05-01T12:43:31.186Z</time></trkpt><trkpt lat="45.8224633" lon="12.221615"><ele>76.66666666666667</ele><time>2026-05-01T12:43:32.184Z</time></trkpt><trkpt lat="45.8225633" lon="12.2214033"><ele>76.33333333333333</ele><time>2026-05-01T12:43:33.186Z</time></trkpt><trkpt lat="45.8226517" lon="12.2212033"><ele>76.0</ele><time>2026-05-01T12:43:34.186Z</time></trkpt><trkpt lat="45.8227417" lon="12.221005"><ele>75.66666666666666</ele><time>2026-05-01T12:43:35.185Z</time></trkpt><trkpt lat="45.8228317" lon="12.2208067"><ele>75.33333333333333</ele><time>2026-05-01T12:43:36.188Z</time></trkpt><trkpt lat="45.8229133" lon="12.2206017"><ele>75.0</ele><time>2026-05-01T12:43:37.186Z</time></trkpt><trkpt lat="45.82299" lon="12.2203917"><ele>75.0</ele><time>2026-05-01T12:43:38.186Z</time></trkpt><trkpt lat="45.8230617" lon="12.2201733"><ele>75.0</ele><time>2026-05-01T12:43:39.184Z</time></trkpt><trkpt lat="45.8231267" lon="12.2199433"><ele>75.0</ele><time>2026-05-01T12:43:40.186Z</time></trkpt><trkpt lat="45.8231867" lon="12.2197167"><ele>75.66666666666667</ele><time>2026-05-01T12:43:41.186Z</time></trkpt><trkpt lat="45.823245" lon="12.2194883"><ele>76.33333333333334</ele><time>2026-05-01T12:43:42.189Z</time></trkpt><trkpt lat="45.8233017" lon="12.219255"><ele>77.0</ele><time>2026-05-01T12:43:43.186Z</time></trkpt><trkpt lat="45.8233583" lon="12.2190217"><ele>76.66666666666667</ele><time>2026-05-01T12:43:44.186Z</time></trkpt><trkpt lat="45.8234133" lon="12.2187917"><ele>76.33333333333333</ele><time>2026-05-01T12:43:45.186Z</time></trkpt><trkpt lat="45.823465" lon="12.2185767"><ele>76.0</ele><time>2026-05-01T12:43:46.186Z</time></trkpt><trkpt lat="45.8235133" lon="12.2183667"><ele>75.0</ele><time>2026-05-01T12:43:47.185Z</time></trkpt><trkpt lat="45.8235633" lon="12.2181517"><ele>74.0</ele><time>2026-05-01T12:43:48.185Z</time></trkpt><trkpt lat="45.8236133" lon="12.2179333"><ele>73.0</ele><time>2026-05-01T12:43:49.187Z</time></trkpt><trkpt lat="45.82366" lon="12.2177117"><ele>73.0</ele><time>2026-05-01T12:43:50.188Z</time></trkpt><trkpt lat="45.8237083" lon="12.21749"><ele>73.0</ele><time>2026-05-01T12:43:51.186Z</time></trkpt><trkpt lat="45.8237617" lon="12.2172617"><ele>73.0</ele><time>2026-05-01T12:43:52.191Z</time></trkpt><trkpt lat="45.8238167" lon="12.2170333"><ele>72.33333333333333</ele><time>2026-05-01T12:43:53.184Z</time></trkpt><trkpt lat="45.8238717" lon="12.2168017"><ele>71.66666666666667</ele><time>2026-05-01T12:43:54.184Z</time></trkpt><trkpt lat="45.8239283" lon="12.216565"><ele>71.0</ele><time>2026-05-01T12:43:55.187Z</time></trkpt><trkpt lat="45.8239833" lon="12.2163267"><ele>72.33333333333334</ele><time>2026-05-01T12:43:56.185Z</time></trkpt><trkpt lat="45.82404" lon="12.2160883"><ele>73.66666666666667</ele><time>2026-05-01T12:43:57.188Z</time></trkpt><trkpt lat="45.8241033" lon="12.2158483"><ele>75.0</ele><time>2026-05-01T12:43:58.187Z</time></trkpt><trkpt lat="45.824165" lon="12.2156217"><ele>74.66666666666667</ele><time>2026-05-01T12:43:59.185Z</time></trkpt><trkpt lat="45.824225" lon="12.2154133"><ele>74.33333333333334</ele><time>2026-05-01T12:44:00.186Z</time></trkpt><trkpt lat="45.824295" lon="12.215205"><ele>74.0</ele><time>2026-05-01T12:44:01.184Z</time></trkpt><trkpt lat="45.8243683" lon="12.214995"><ele>74.66666666666667</ele><time>2026-05-01T12:44:02.184Z</time></trkpt><trkpt lat="45.8244383" lon="12.2147817"><ele>75.33333333333333</ele><time>2026-05-01T12:44:03.186Z</time></trkpt><trkpt lat="45.8245067" lon="12.2145617"><ele>76.0</ele><time>2026-05-01T12:44:04.269Z</time></trkpt><trkpt lat="45.8245733" lon="12.2143367"><ele>76.0</ele><time>2026-05-01T12:44:05.186Z</time></trkpt><trkpt lat="45.8246433" lon="12.2141083"><ele>76.0</ele><time>2026-05-01T12:44:06.185Z</time></trkpt><trkpt lat="45.8247133" lon="12.2138783"><ele>76.0</ele><time>2026-05-01T12:44:07.183Z</time></trkpt><trkpt lat="45.8247883" lon="12.2136483"><ele>76.66666666666666</ele><time>2026-05-01T12:44:08.185Z</time></trkpt><trkpt lat="45.8248717" lon="12.21342"><ele>77.33333333333333</ele><time>2026-05-01T12:44:09.186Z</time></trkpt><trkpt lat="45.824965" lon="12.2131967"><ele>78.0</ele><time>2026-05-01T12:44:10.186Z</time></trkpt><trkpt lat="45.825065" lon="12.2129817"><ele>78.0</ele><time>2026-05-01T12:44:11.187Z</time></trkpt><trkpt lat="45.8251583" lon="12.2127833"><ele>78.0</ele><time>2026-05-01T12:44:12.187Z</time></trkpt><trkpt lat="45.825245" lon="12.2125983"><ele>78.0</ele><time>2026-05-01T12:44:13.183Z</time></trkpt><trkpt lat="45.8253267" lon="12.21242"><ele>78.0</ele><time>2026-05-01T12:44:14.183Z</time></trkpt><trkpt lat="45.8254033" lon="12.2122533"><ele>78.0</ele><time>2026-05-01T12:44:15.184Z</time></trkpt><trkpt lat="45.825475" lon="12.2120967"><ele>78.0</ele><time>2026-05-01T12:44:16.184Z</time></trkpt><trkpt lat="45.8255367" lon="12.21195"><ele>78.0</ele><time>2026-05-01T12:44:17.186Z</time></trkpt><trkpt lat="45.8255867" lon="12.2118033"><ele>78.0</ele><time>2026-05-01T12:44:18.184Z</time></trkpt><trkpt lat="45.825625" lon="12.2116633"><ele>78.0</ele><time>2026-05-01T12:44:19.184Z</time></trkpt><trkpt lat="45.8256567" lon="12.21152"><ele>78.0</ele><time>2026-05-01T12:44:20.185Z</time></trkpt><trkpt lat="45.8256817" lon="12.2113717"><ele>78.0</ele><time>2026-05-01T12:44:21.186Z</time></trkpt><trkpt lat="45.8256983" lon="12.2112333"><ele>78.0</ele><time>2026-05-01T12:44:22.188Z</time></trkpt><trkpt lat="45.8257067" lon="12.2111067"><ele>78.16666666666667</ele><time>2026-05-01T12:44:23.188Z</time></trkpt><trkpt lat="45.82571" lon="12.2109883"><ele>78.33333333333333</ele><time>2026-05-01T12:44:24.185Z</time></trkpt><trkpt lat="45.8257067" lon="12.2108783"><ele>78.5</ele><time>2026-05-01T12:44:25.185Z</time></trkpt><trkpt lat="45.8256967" lon="12.210785"><ele>78.66666666666666</ele><time>2026-05-01T12:44:26.185Z</time></trkpt><trkpt lat="45.8256767" lon="12.210635"><ele>78.83333333333333</ele><time>2026-05-01T12:44:28.185Z</time></trkpt><trkpt lat="45.82567" lon="12.210525"><ele>79.0</ele><time>2026-05-01T12:44:30.187Z</time></trkpt><trkpt lat="45.8256567" lon="12.210365"><ele>79.4</ele><time>2026-05-01T12:44:40.186Z</time></trkpt><trkpt lat="45.8256367" lon="12.21025"><ele>79.80000000000001</ele><time>2026-05-01T12:44:41.183Z</time></trkpt><trkpt lat="45.8256183" lon="12.210115"><ele>80.19999999999999</ele><time>2026-05-01T12:44:42.183Z</time></trkpt><trkpt lat="45.825595" lon="12.2099717"><ele>80.6</ele><time>2026-05-01T12:44:43.189Z</time></trkpt><trkpt lat="45.8255667" lon="12.2098167"><ele>81.0</ele><time>2026-05-01T12:44:44.184Z</time></trkpt><trkpt lat="45.825535" lon="12.209635"><ele>81.75</ele><time>2026-05-01T12:44:45.183Z</time></trkpt><trkpt lat="45.8255" lon="12.2094433"><ele>82.5</ele><time>2026-05-01T12:44:46.185Z</time></trkpt><trkpt lat="45.8254733" lon="12.20925"><ele>83.25</ele><time>2026-05-01T12:44:47.186Z</time></trkpt><trkpt lat="45.825445" lon="12.20905"><ele>84.0</ele><time>2026-05-01T12:44:48.185Z</time></trkpt><trkpt lat="45.8254117" lon="12.2088417"><ele>86.0</ele><time>2026-05-01T12:44:49.184Z</time></trkpt><trkpt lat="45.8253733" lon="12.208625"><ele>88.0</ele><time>2026-05-01T12:44:50.186Z</time></trkpt><trkpt lat="45.825335" lon="12.2084"><ele>90.0</ele><time>2026-05-01T12:44:51.187Z</time></trkpt><trkpt lat="45.8252983" lon="12.2081617"><ele>90.33333333333333</ele><time>2026-05-01T12:44:52.191Z</time></trkpt><trkpt lat="45.825265" lon="12.2079183"><ele>90.66666666666666</ele><time>2026-05-01T12:44:53.189Z</time></trkpt><trkpt lat="45.82523" lon="12.2076783"><ele>91.0</ele><time>2026-05-01T12:44:54.184Z</time></trkpt><trkpt lat="45.825195" lon="12.2074333"><ele>91.0</ele><time>2026-05-01T12:44:55.186Z</time></trkpt><trkpt lat="45.825155" lon="12.2071833"><ele>91.0</ele><time>2026-05-01T12:44:56.187Z</time></trkpt><trkpt lat="45.825125" lon="12.20693"><ele>91.0</ele><time>2026-05-01T12:44:57.187Z</time></trkpt><trkpt lat="45.8250883" lon="12.2066817"><ele>90.33333333333333</ele><time>2026-05-01T12:44:58.188Z</time></trkpt><trkpt lat="45.8250583" lon="12.2064567"><ele>89.66666666666667</ele><time>2026-05-01T12:44:59.186Z</time></trkpt><trkpt lat="45.8250267" lon="12.2062367"><ele>89.0</ele><time>2026-05-01T12:45:00.184Z</time></trkpt><trkpt lat="45.82499" lon="12.206005"><ele>89.0</ele><time>2026-05-01T12:45:01.183Z</time></trkpt><trkpt lat="45.8249533" lon="12.20578"><ele>89.0</ele><time>2026-05-01T12:45:02.183Z</time></trkpt><trkpt lat="45.8249233" lon="12.2055683"><ele>89.0</ele><time>2026-05-01T12:45:03.187Z</time></trkpt><trkpt lat="45.8248917" lon="12.2053767"><ele>89.0</ele><time>2026-05-01T12:45:04.186Z</time></trkpt><trkpt lat="45.8248567" lon="12.2051983"><ele>89.5</ele><time>2026-05-01T12:45:05.187Z</time></trkpt><trkpt lat="45.8248183" lon="12.2050317"><ele>90.0</ele><time>2026-05-01T12:45:06.185Z</time></trkpt><trkpt lat="45.8247867" lon="12.2048583"><ele>90.5</ele><time>2026-05-01T12:45:07.185Z</time></trkpt><trkpt lat="45.8247717" lon="12.2046733"><ele>91.0</ele><time>2026-05-01T12:45:08.185Z</time></trkpt><trkpt lat="45.8247717" lon="12.2044733"><ele>91.0</ele><time>2026-05-01T12:45:09.189Z</time></trkpt><trkpt lat="45.8247817" lon="12.2042633"><ele>91.0</ele><time>2026-05-01T12:45:10.187Z</time></trkpt><trkpt lat="45.8247883" lon="12.2040383"><ele>91.0</ele><time>2026-05-01T12:45:11.186Z</time></trkpt><trkpt lat="45.824795" lon="12.2037983"><ele>91.0</ele><time>2026-05-01T12:45:12.184Z</time></trkpt><trkpt lat="45.8248033" lon="12.2035733"><ele>91.0</ele><time>2026-05-01T12:45:13.186Z</time></trkpt><trkpt lat="45.8248133" lon="12.203375"><ele>91.0</ele><time>2026-05-01T12:45:14.185Z</time></trkpt><trkpt lat="45.8248417" lon="12.2031817"><ele>91.0</ele><time>2026-05-01T12:45:15.183Z</time></trkpt><trkpt lat="45.8248933" lon="12.2029917"><ele>92.0</ele><time>2026-05-01T12:45:16.184Z</time></trkpt><trkpt lat="45.824965" lon="12.2028117"><ele>93.0</ele><time>2026-05-01T12:45:17.185Z</time></trkpt><trkpt lat="45.8250517" lon="12.20264"><ele>94.0</ele><time>2026-05-01T12:45:18.186Z</time></trkpt><trkpt lat="45.825155" lon="12.202485"><ele>95.0</ele><time>2026-05-01T12:45:19.185Z</time></trkpt><trkpt lat="45.8252833" lon="12.2023433"><ele>96.33333333333334</ele><time>2026-05-01T12:45:20.186Z</time></trkpt><trkpt lat="45.82544" lon="12.202215"><ele>97.66666666666667</ele><time>2026-05-01T12:45:21.274Z</time></trkpt><trkpt lat="45.8256167" lon="12.202095"><ele>99.0</ele><time>2026-05-01T12:45:22.184Z</time></trkpt><trkpt lat="45.8257867" lon="12.2019767"><ele>99.0</ele><time>2026-05-01T12:45:23.186Z</time></trkpt><trkpt lat="45.8259533" lon="12.201855"><ele>99.0</ele><time>2026-05-01T12:45:24.19Z</time></trkpt><trkpt lat="45.8261283" lon="12.2017317"><ele>99.0</ele><time>2026-05-01T12:45:25.186Z</time></trkpt><trkpt lat="45.8262967" lon="12.2016167"><ele>100.33333333333334</ele><time>2026-05-01T12:45:26.192Z</time></trkpt><trkpt lat="45.826455" lon="12.2015083"><ele>101.66666666666667</ele><time>2026-05-01T12:45:27.188Z</time></trkpt><trkpt lat="45.826625" lon="12.201425"><ele>103.0</ele><time>2026-05-01T12:45:28.186Z</time></trkpt><trkpt lat="45.826805" lon="12.2013783"><ele>106.0</ele><time>2026-05-01T12:45:29.186Z</time></trkpt><trkpt lat="45.8269933" lon="12.201365"><ele>109.0</ele><time>2026-05-01T12:45:30.187Z</time></trkpt><trkpt lat="45.827185" lon="12.2013683"><ele>112.0</ele><time>2026-05-01T12:45:31.185Z</time></trkpt><trkpt lat="45.82738" lon="12.2013683"><ele>112.0</ele><time>2026-05-01T12:45:32.184Z</time></trkpt><trkpt lat="45.82758" lon="12.2013667"><ele>112.0</ele><time>2026-05-01T12:45:33.188Z</time></trkpt><trkpt lat="45.8277817" lon="12.201365"><ele>112.0</ele><time>2026-05-01T12:45:34.187Z</time></trkpt><trkpt lat="45.827985" lon="12.2013617"><ele>115.66666666666667</ele><time>2026-05-01T12:45:35.185Z</time></trkpt><trkpt lat="45.828185" lon="12.2013583"><ele>119.33333333333334</ele><time>2026-05-01T12:45:36.186Z</time></trkpt><trkpt lat="45.8283667" lon="12.201355"><ele>123.0</ele><time>2026-05-01T12:45:37.188Z</time></trkpt><trkpt lat="45.8285483" lon="12.2013517"><ele>126.33333333333334</ele><time>2026-05-01T12:45:38.19Z</time></trkpt><trkpt lat="45.828725" lon="12.20135"><ele>129.66666666666669</ele><time>2026-05-01T12:45:39.187Z</time></trkpt><trkpt lat="45.82889" lon="12.2013467"><ele>133.0</ele><time>2026-05-01T12:45:40.187Z</time></trkpt><trkpt lat="45.8290383" lon="12.201345"><ele>133.0</ele><time>2026-05-01T12:45:41.188Z</time></trkpt><trkpt lat="45.8291683" lon="12.201345"><ele>133.0</ele><time>2026-05-01T12:45:42.188Z</time></trkpt><trkpt lat="45.8292767" lon="12.2013483"><ele>133.0</ele><time>2026-05-01T12:45:43.188Z</time></trkpt><trkpt lat="45.8293733" lon="12.20136"><ele>133.0</ele><time>2026-05-01T12:45:44.185Z</time></trkpt><trkpt lat="45.829465" lon="12.2014017"><ele>133.0</ele><time>2026-05-01T12:45:45.186Z</time></trkpt><trkpt lat="45.829535" lon="12.2014967"><ele>132.0</ele><time>2026-05-01T12:45:46.185Z</time></trkpt><trkpt lat="45.8295733" lon="12.2016217"><ele>131.0</ele><time>2026-05-01T12:45:47.184Z</time></trkpt><trkpt lat="45.82957" lon="12.20175"><ele>130.0</ele><time>2026-05-01T12:45:48.186Z</time></trkpt><trkpt lat="45.82953" lon="12.2018883"><ele>129.0</ele><time>2026-05-01T12:45:49.185Z</time></trkpt><trkpt lat="45.8294583" lon="12.2020517"><ele>128.0</ele><time>2026-05-01T12:45:50.187Z</time></trkpt><trkpt lat="45.82937" lon="12.2022333"><ele>126.4</ele><time>2026-05-01T12:45:51.185Z</time></trkpt><trkpt lat="45.8292933" lon="12.2023917"><ele>124.80000000000001</ele><time>2026-05-01T12:45:52.189Z</time></trkpt><trkpt lat="45.8292283" lon="12.2025283"><ele>123.2</ele><time>2026-05-01T12:45:53.184Z</time></trkpt><trkpt lat="45.8291733" lon="12.2026433"><ele>121.6</ele><time>2026-05-01T12:45:54.185Z</time></trkpt><trkpt lat="45.829125" lon="12.2027417"><ele>120.0</ele><time>2026-05-01T12:45:55.185Z</time></trkpt><trkpt lat="45.8290883" lon="12.20284"><ele>120.0</ele><time>2026-05-01T12:45:56.187Z</time></trkpt><trkpt lat="45.82908" lon="12.2029583"><ele>120.0</ele><time>2026-05-01T12:45:57.187Z</time></trkpt><trkpt lat="45.8291" lon="12.2030733"><ele>120.0</ele><time>2026-05-01T12:45:58.188Z</time></trkpt><trkpt lat="45.8291433" lon="12.20317"><ele>120.0</ele><time>2026-05-01T12:45:59.186Z</time></trkpt><trkpt lat="45.8292067" lon="12.2032283"><ele>120.0</ele><time>2026-05-01T12:46:00.185Z</time></trkpt><trkpt lat="45.8293033" lon="12.2032333"><ele>120.0</ele><time>2026-05-01T12:46:01.185Z</time></trkpt><trkpt lat="45.8294467" lon="12.2031767"><ele>123.33333333333334</ele><time>2026-05-01T12:46:02.183Z</time></trkpt><trkpt lat="45.82961" lon="12.2030967"><ele>126.66666666666667</ele><time>2026-05-01T12:46:03.187Z</time></trkpt><trkpt lat="45.8297783" lon="12.2030133"><ele>130.0</ele><time>2026-05-01T12:46:04.186Z</time></trkpt><trkpt lat="45.8299567" lon="12.2029233"><ele>130.0</ele><time>2026-05-01T12:46:05.184Z</time></trkpt><trkpt lat="45.830125" lon="12.2028317"><ele>130.0</ele><time>2026-05-01T12:46:06.185Z</time></trkpt><trkpt lat="45.830295" lon="12.2027133"><ele>130.0</ele><time>2026-05-01T12:46:07.189Z</time></trkpt><trkpt lat="45.830465" lon="12.202575"><ele>129.0</ele><time>2026-05-01T12:46:08.186Z</time></trkpt><trkpt lat="45.83063" lon="12.2024267"><ele>128.0</ele><time>2026-05-01T12:46:09.186Z</time></trkpt><trkpt lat="45.8307783" lon="12.2022867"><ele>127.0</ele><time>2026-05-01T12:46:10.193Z</time></trkpt><trkpt lat="45.830915" lon="12.2021483"><ele>127.5</ele><time>2026-05-01T12:46:11.187Z</time></trkpt><trkpt lat="45.83104" lon="12.2020283"><ele>128.0</ele><time>2026-05-01T12:46:12.186Z</time></trkpt><trkpt lat="45.83115" lon="12.2019033"><ele>128.5</ele><time>2026-05-01T12:46:13.186Z</time></trkpt><trkpt lat="45.8312483" lon="12.20176"><ele>129.0</ele><time>2026-05-01T12:46:14.187Z</time></trkpt><trkpt lat="45.8313367" lon="12.20159"><ele>131.0</ele><time>2026-05-01T12:46:15.188Z</time></trkpt><trkpt lat="45.8314117" lon="12.2013983"><ele>133.0</ele><time>2026-05-01T12:46:16.185Z</time></trkpt><trkpt lat="45.8314717" lon="12.2011783"><ele>135.0</ele><time>2026-05-01T12:46:17.183Z</time></trkpt><trkpt lat="45.8315133" lon="12.20093"><ele>135.0</ele><time>2026-05-01T12:46:18.188Z</time></trkpt><trkpt lat="45.831545" lon="12.20067"><ele>135.0</ele><time>2026-05-01T12:46:19.186Z</time></trkpt><trkpt lat="45.83157" lon="12.20043"><ele>135.0</ele><time>2026-05-01T12:46:20.187Z</time></trkpt><trkpt lat="45.8315967" lon="12.2002083"><ele>135.25</ele><time>2026-05-01T12:46:21.186Z</time></trkpt><trkpt lat="45.8316333" lon="12.2000033"><ele>135.5</ele><time>2026-05-01T12:46:22.185Z</time></trkpt><trkpt lat="45.831685" lon="12.1998117"><ele>135.75</ele><time>2026-05-01T12:46:23.184Z</time></trkpt><trkpt lat="45.83174" lon="12.1996667"><ele>136.0</ele><time>2026-05-01T12:46:24.186Z</time></trkpt><trkpt lat="45.8317933" lon="12.19955"><ele>136.0</ele><time>2026-05-01T12:46:25.186Z</time></trkpt><trkpt lat="45.8318517" lon="12.1994583"><ele>136.0</ele><time>2026-05-01T12:46:26.188Z</time></trkpt><trkpt lat="45.83191" lon="12.1993783"><ele>136.0</ele><time>2026-05-01T12:46:27.184Z</time></trkpt><trkpt lat="45.83197" lon="12.199315"><ele>136.0</ele><time>2026-05-01T12:46:28.188Z</time></trkpt><trkpt lat="45.8320383" lon="12.1992617"><ele>136.0</ele><time>2026-05-01T12:46:29.183Z</time></trkpt><trkpt lat="45.83213" lon="12.1992067"><ele>136.0</ele><time>2026-05-01T12:46:30.184Z</time></trkpt><trkpt lat="45.8322333" lon="12.1991633"><ele>136.0</ele><time>2026-05-01T12:46:31.183Z</time></trkpt><trkpt lat="45.8323533" lon="12.19914"><ele>136.0</ele><time>2026-05-01T12:46:32.185Z</time></trkpt><trkpt lat="45.8324917" lon="12.1991333"><ele>136.0</ele><time>2026-05-01T12:46:33.185Z</time></trkpt><trkpt lat="45.8326217" lon="12.19914"><ele>136.0</ele><time>2026-05-01T12:46:34.184Z</time></trkpt><trkpt lat="45.832755" lon="12.199135"><ele>135.66666666666669</ele><time>2026-05-01T12:46:35.183Z</time></trkpt><trkpt lat="45.8328983" lon="12.1990867"><ele>135.33333333333334</ele><time>2026-05-01T12:46:36.184Z</time></trkpt><trkpt lat="45.8330533" lon="12.199"><ele>135.0</ele><time>2026-05-01T12:46:37.184Z</time></trkpt><trkpt lat="45.8332117" lon="12.1989033"><ele>135.66666666666666</ele><time>2026-05-01T12:46:38.186Z</time></trkpt><trkpt lat="45.8333567" lon="12.198795"><ele>136.33333333333331</ele><time>2026-05-01T12:46:39.185Z</time></trkpt><trkpt lat="45.8335067" lon="12.1986833"><ele>137.0</ele><time>2026-05-01T12:46:40.264Z</time></trkpt><trkpt lat="45.8336467" lon="12.1985783"><ele>137.0</ele><time>2026-05-01T12:46:41.183Z</time></trkpt><trkpt lat="45.8337733" lon="12.19846"><ele>137.0</ele><time>2026-05-01T12:46:42.186Z</time></trkpt><trkpt lat="45.8338967" lon="12.1983133"><ele>137.0</ele><time>2026-05-01T12:46:43.185Z</time></trkpt><trkpt lat="45.8340117" lon="12.1981333"><ele>139.0</ele><time>2026-05-01T12:46:44.185Z</time></trkpt><trkpt lat="45.8341167" lon="12.1979233"><ele>141.0</ele><time>2026-05-01T12:46:45.187Z</time></trkpt><trkpt lat="45.8342083" lon="12.19769"><ele>143.0</ele><time>2026-05-01T12:46:46.184Z</time></trkpt><trkpt lat="45.8342917" lon="12.1974483"><ele>141.66666666666666</ele><time>2026-05-01T12:46:47.183Z</time></trkpt><trkpt lat="45.8343733" lon="12.197205"><ele>140.33333333333334</ele><time>2026-05-01T12:46:48.186Z</time></trkpt><trkpt lat="45.8344483" lon="12.196965"><ele>139.0</ele><time>2026-05-01T12:46:49.187Z</time></trkpt><trkpt lat="45.83452" lon="12.19673"><ele>140.66666666666669</ele><time>2026-05-01T12:46:50.187Z</time></trkpt><trkpt lat="45.834595" lon="12.1964967"><ele>142.33333333333334</ele><time>2026-05-01T12:46:51.188Z</time></trkpt><trkpt lat="45.8346733" lon="12.1962567"><ele>144.0</ele><time>2026-05-01T12:46:52.186Z</time></trkpt><trkpt lat="45.8347467" lon="12.1960233"><ele>144.0</ele><time>2026-05-01T12:46:53.187Z</time></trkpt><trkpt lat="45.8348067" lon="12.1958083"><ele>144.0</ele><time>2026-05-01T12:46:54.186Z</time></trkpt><trkpt lat="45.8348517" lon="12.1955967"><ele>144.0</ele><time>2026-05-01T12:46:55.186Z</time></trkpt><trkpt lat="45.8348783" lon="12.1953767"><ele>145.33333333333334</ele><time>2026-05-01T12:46:56.185Z</time></trkpt><trkpt lat="45.83488" lon="12.19515"><ele>146.66666666666669</ele><time>2026-05-01T12:46:57.186Z</time></trkpt><trkpt lat="45.8348517" lon="12.1949233"><ele>148.0</ele><time>2026-05-01T12:46:58.184Z</time></trkpt><trkpt lat="45.83481" lon="12.19472"><ele>149.25</ele><time>2026-05-01T12:46:59.186Z</time></trkpt><trkpt lat="45.8347717" lon="12.1945267"><ele>150.5</ele><time>2026-05-01T12:47:00.184Z</time></trkpt><trkpt lat="45.834745" lon="12.1943217"><ele>151.75</ele><time>2026-05-01T12:47:01.184Z</time></trkpt><trkpt lat="45.8347417" lon="12.194115"><ele>153.0</ele><time>2026-05-01T12:47:02.184Z</time></trkpt><trkpt lat="45.83477" lon="12.1939033"><ele>153.0</ele><time>2026-05-01T12:47:03.184Z</time></trkpt><trkpt lat="45.83482" lon="12.1937067"><ele>153.0</ele><time>2026-05-01T12:47:04.183Z</time></trkpt><trkpt lat="45.8348917" lon="12.193525"><ele>153.0</ele><time>2026-05-01T12:47:05.187Z</time></trkpt><trkpt lat="45.834985" lon="12.193355"><ele>153.0</ele><time>2026-05-01T12:47:06.187Z</time></trkpt><trkpt lat="45.835085" lon="12.1931983"><ele>154.75</ele><time>2026-05-01T12:47:07.185Z</time></trkpt><trkpt lat="45.8351817" lon="12.1930433"><ele>156.5</ele><time>2026-05-01T12:47:08.186Z</time></trkpt><trkpt lat="45.835265" lon="12.192865"><ele>158.25</ele><time>2026-05-01T12:47:09.185Z</time></trkpt><trkpt lat="45.8353267" lon="12.192665"><ele>160.0</ele><time>2026-05-01T12:47:10.185Z</time></trkpt><trkpt lat="45.8353683" lon="12.1924517"><ele>159.0</ele><time>2026-05-01T12:47:11.185Z</time></trkpt><trkpt lat="45.835385" lon="12.1922283"><ele>158.0</ele><time>2026-05-01T12:47:12.187Z</time></trkpt><trkpt lat="45.8354117" lon="12.1920183"><ele>157.0</ele><time>2026-05-01T12:47:13.186Z</time></trkpt><trkpt lat="45.8354683" lon="12.1918133"><ele>157.0</ele><time>2026-05-01T12:47:14.188Z</time></trkpt><trkpt lat="45.8355533" lon="12.1916117"><ele>157.0</ele><time>2026-05-01T12:47:15.185Z</time></trkpt><trkpt lat="45.8356567" lon="12.1914083"><ele>157.0</ele><time>2026-05-01T12:47:16.183Z</time></trkpt><trkpt lat="45.83576" lon="12.1911867"><ele>156.66666666666669</ele><time>2026-05-01T12:47:17.184Z</time></trkpt><trkpt lat="45.83586" lon="12.19094"><ele>156.33333333333334</ele><time>2026-05-01T12:47:18.184Z</time></trkpt><trkpt lat="45.8359567" lon="12.1906717"><ele>156.0</ele><time>2026-05-01T12:47:19.187Z</time></trkpt><trkpt lat="45.836045" lon="12.1903883"><ele>155.0</ele><time>2026-05-01T12:47:20.184Z</time></trkpt><trkpt lat="45.8361267" lon="12.1901017"><ele>154.0</ele><time>2026-05-01T12:47:21.187Z</time></trkpt><trkpt lat="45.8362" lon="12.18981"><ele>153.0</ele><time>2026-05-01T12:47:22.184Z</time></trkpt><trkpt lat="45.8362667" lon="12.1895217"><ele>155.33333333333334</ele><time>2026-05-01T12:47:23.182Z</time></trkpt><trkpt lat="45.8363367" lon="12.189255"><ele>157.66666666666669</ele><time>2026-05-01T12:47:24.186Z</time></trkpt><trkpt lat="45.83641" lon="12.1890017"><ele>160.0</ele><time>2026-05-01T12:47:25.187Z</time></trkpt><trkpt lat="45.8365067" lon="12.1887683"><ele>160.0</ele><time>2026-05-01T12:47:26.186Z</time></trkpt><trkpt lat="45.8366233" lon="12.18856"><ele>160.0</ele><time>2026-05-01T12:47:27.189Z</time></trkpt><trkpt lat="45.8367683" lon="12.1883817"><ele>160.0</ele><time>2026-05-01T12:47:28.185Z</time></trkpt><trkpt lat="45.8369267" lon="12.1882133"><ele>162.33333333333334</ele><time>2026-05-01T12:47:29.187Z</time></trkpt><trkpt lat="45.8371" lon="12.1880733"><ele>164.66666666666666</ele><time>2026-05-01T12:47:30.188Z</time></trkpt><trkpt lat="45.8372817" lon="12.18794"><ele>167.0</ele><time>2026-05-01T12:47:31.188Z</time></trkpt><trkpt lat="45.8374667" lon="12.18781"><ele>168.33333333333331</ele><time>2026-05-01T12:47:32.186Z</time></trkpt><trkpt lat="45.83765" lon="12.1876733"><ele>169.66666666666666</ele><time>2026-05-01T12:47:33.185Z</time></trkpt><trkpt lat="45.8378367" lon="12.18754"><ele>171.0</ele><time>2026-05-01T12:47:34.185Z</time></trkpt><trkpt lat="45.8380267" lon="12.1874067"><ele>172.33333333333334</ele><time>2026-05-01T12:47:35.19Z</time></trkpt><trkpt lat="45.8381967" lon="12.1872883"><ele>173.66666666666669</ele><time>2026-05-01T12:47:36.185Z</time></trkpt><trkpt lat="45.8383467" lon="12.1871683"><ele>175.0</ele><time>2026-05-01T12:47:37.185Z</time></trkpt><trkpt lat="45.8384867" lon="12.1870467"><ele>170.0</ele><time>2026-05-01T12:47:38.183Z</time></trkpt><trkpt lat="45.83861" lon="12.1869067"><ele>165.0</ele><time>2026-05-01T12:47:39.183Z</time></trkpt><trkpt lat="45.8387183" lon="12.1867317"><ele>160.0</ele><time>2026-05-01T12:47:40.183Z</time></trkpt><trkpt lat="45.83882" lon="12.1865333"><ele>163.66666666666669</ele><time>2026-05-01T12:47:41.184Z</time></trkpt><trkpt lat="45.83891" lon="12.1863117"><ele>167.33333333333334</ele><time>2026-05-01T12:47:42.187Z</time></trkpt><trkpt lat="45.83899" lon="12.1860683"><ele>171.0</ele><time>2026-05-01T12:47:43.186Z</time></trkpt><trkpt lat="45.8390567" lon="12.1858283"><ele>173.0</ele><time>2026-05-01T12:47:44.185Z</time></trkpt><trkpt lat="45.8391183" lon="12.1856033"><ele>175.0</ele><time>2026-05-01T12:47:45.185Z</time></trkpt><trkpt lat="45.8391733" lon="12.1853833"><ele>177.0</ele><time>2026-05-01T12:47:46.183Z</time></trkpt><trkpt lat="45.8392133" lon="12.18515"><ele>177.0</ele><time>2026-05-01T12:47:47.185Z</time></trkpt><trkpt lat="45.8392433" lon="12.1849033"><ele>177.0</ele><time>2026-05-01T12:47:48.185Z</time></trkpt><trkpt lat="45.8392717" lon="12.1846533"><ele>177.0</ele><time>2026-05-01T12:47:49.185Z</time></trkpt><trkpt lat="45.8393033" lon="12.1844133"><ele>176.33333333333334</ele><time>2026-05-01T12:47:50.187Z</time></trkpt><trkpt lat="45.839345" lon="12.1841933"><ele>175.66666666666669</ele><time>2026-05-01T12:47:51.186Z</time></trkpt><trkpt lat="45.8394117" lon="12.183995"><ele>175.0</ele><time>2026-05-01T12:47:52.183Z</time></trkpt><trkpt lat="45.8395017" lon="12.1838217"><ele>175.0</ele><time>2026-05-01T12:47:53.185Z</time></trkpt><trkpt lat="45.8396067" lon="12.1836733"><ele>175.0</ele><time>2026-05-01T12:47:54.186Z</time></trkpt><trkpt lat="45.83971" lon="12.1835483"><ele>175.0</ele><time>2026-05-01T12:47:55.186Z</time></trkpt><trkpt lat="45.8398117" lon="12.1834467"><ele>175.0</ele><time>2026-05-01T12:47:56.188Z</time></trkpt><trkpt lat="45.8399067" lon="12.1833567"><ele>175.0</ele><time>2026-05-01T12:47:57.185Z</time></trkpt><trkpt lat="45.8400017" lon="12.1832667"><ele>175.0</ele><time>2026-05-01T12:47:58.183Z</time></trkpt><trkpt lat="45.8401067" lon="12.1831733"><ele>175.0</ele><time>2026-05-01T12:47:59.183Z</time></trkpt><trkpt lat="45.8402183" lon="12.183065"><ele>175.0</ele><time>2026-05-01T12:48:00.183Z</time></trkpt><trkpt lat="45.8403383" lon="12.18295"><ele>174.0</ele><time>2026-05-01T12:48:01.182Z</time></trkpt><trkpt lat="45.8404667" lon="12.18283"><ele>173.0</ele><time>2026-05-01T12:48:02.183Z</time></trkpt><trkpt lat="45.8406" lon="12.182705"><ele>172.0</ele><time>2026-05-01T12:48:03.185Z</time></trkpt><trkpt lat="45.8407367" lon="12.1825733"><ele>172.0</ele><time>2026-05-01T12:48:04.184Z</time></trkpt><trkpt lat="45.8408767" lon="12.1824467"><ele>172.0</ele><time>2026-05-01T12:48:05.184Z</time></trkpt><trkpt lat="45.8410183" lon="12.1823183"><ele>172.0</ele><time>2026-05-01T12:48:06.187Z</time></trkpt><trkpt lat="45.841165" lon="12.1821883"><ele>170.66666666666669</ele><time>2026-05-01T12:48:07.186Z</time></trkpt><trkpt lat="45.8413083" lon="12.1820683"><ele>169.33333333333334</ele><time>2026-05-01T12:48:08.185Z</time></trkpt><trkpt lat="45.841445" lon="12.181955"><ele>168.0</ele><time>2026-05-01T12:48:09.187Z</time></trkpt><trkpt lat="45.8415733" lon="12.18185"><ele>168.0</ele><time>2026-05-01T12:48:10.182Z</time></trkpt><trkpt lat="45.8417033" lon="12.1817483"><ele>168.0</ele><time>2026-05-01T12:48:11.183Z</time></trkpt><trkpt lat="45.8418367" lon="12.1816533"><ele>168.0</ele><time>2026-05-01T12:48:12.183Z</time></trkpt><trkpt lat="45.8419767" lon="12.1815717"><ele>168.0</ele><time>2026-05-01T12:48:13.184Z</time></trkpt><trkpt lat="45.8421167" lon="12.1814983"><ele>167.75</ele><time>2026-05-01T12:48:14.184Z</time></trkpt><trkpt lat="45.8422567" lon="12.181445"><ele>167.5</ele><time>2026-05-01T12:48:15.185Z</time></trkpt><trkpt lat="45.842395" lon="12.1814033"><ele>167.25</ele><time>2026-05-01T12:48:16.186Z</time></trkpt><trkpt lat="45.8425367" lon="12.1813717"><ele>167.0</ele><time>2026-05-01T12:48:17.184Z</time></trkpt><trkpt lat="45.84268" lon="12.1813333"><ele>165.33333333333331</ele><time>2026-05-01T12:48:18.184Z</time></trkpt><trkpt lat="45.8428283" lon="12.1812817"><ele>163.66666666666666</ele><time>2026-05-01T12:48:19.185Z</time></trkpt><trkpt lat="45.842975" lon="12.1812267"><ele>162.0</ele><time>2026-05-01T12:48:20.185Z</time></trkpt><trkpt lat="45.84312" lon="12.1811817"><ele>162.0</ele><time>2026-05-01T12:48:21.189Z</time></trkpt><trkpt lat="45.84326" lon="12.1811517"><ele>162.0</ele><time>2026-05-01T12:48:22.186Z</time></trkpt><trkpt lat="45.8434" lon="12.1811333"><ele>162.0</ele><time>2026-05-01T12:48:23.185Z</time></trkpt><trkpt lat="45.8435467" lon="12.1811233"><ele>162.0</ele><time>2026-05-01T12:48:24.183Z</time></trkpt><trkpt lat="45.8436967" lon="12.181115"><ele>161.0</ele><time>2026-05-01T12:48:25.188Z</time></trkpt><trkpt lat="45.8438517" lon="12.18111"><ele>160.0</ele><time>2026-05-01T12:48:26.188Z</time></trkpt><trkpt lat="45.8440117" lon="12.1811017"><ele>159.0</ele><time>2026-05-01T12:48:27.192Z</time></trkpt><trkpt lat="45.8441717" lon="12.1810917"><ele>159.0</ele><time>2026-05-01T12:48:28.188Z</time></trkpt><trkpt lat="45.8443417" lon="12.181075"><ele>159.0</ele><time>2026-05-01T12:48:29.19Z</time></trkpt><trkpt lat="45.8445" lon="12.1810617"><ele>159.0</ele><time>2026-05-01T12:48:30.186Z</time></trkpt><trkpt lat="45.844645" lon="12.181055"><ele>159.0</ele><time>2026-05-01T12:48:31.183Z</time></trkpt><trkpt lat="45.84479" lon="12.181045"><ele>159.0</ele><time>2026-05-01T12:48:32.186Z</time></trkpt><trkpt lat="45.8449383" lon="12.181015"><ele>159.0</ele><time>2026-05-01T12:48:33.186Z</time></trkpt><trkpt lat="45.8450783" lon="12.180955"><ele>159.0</ele><time>2026-05-01T12:48:34.184Z</time></trkpt><trkpt lat="45.845225" lon="12.1808683"><ele>158.0</ele><time>2026-05-01T12:48:35.188Z</time></trkpt><trkpt lat="45.84537" lon="12.1807417"><ele>157.0</ele><time>2026-05-01T12:48:36.186Z</time></trkpt><trkpt lat="45.8455067" lon="12.1805833"><ele>156.0</ele><time>2026-05-01T12:48:37.185Z</time></trkpt><trkpt lat="45.845635" lon="12.1804"><ele>156.0</ele><time>2026-05-01T12:48:38.183Z</time></trkpt><trkpt lat="45.8457517" lon="12.1802167"><ele>156.0</ele><time>2026-05-01T12:48:39.184Z</time></trkpt><trkpt lat="45.8458633" lon="12.1800467"><ele>156.0</ele><time>2026-05-01T12:48:40.191Z</time></trkpt><trkpt lat="45.8459817" lon="12.1798867"><ele>155.0</ele><time>2026-05-01T12:48:41.185Z</time></trkpt><trkpt lat="45.846105" lon="12.1797183"><ele>154.0</ele><time>2026-05-01T12:48:42.187Z</time></trkpt><trkpt lat="45.8462317" lon="12.1795417"><ele>153.0</ele><time>2026-05-01T12:48:43.185Z</time></trkpt><trkpt lat="45.84636" lon="12.179355"><ele>153.0</ele><time>2026-05-01T12:48:44.182Z</time></trkpt><trkpt lat="45.846495" lon="12.1791633"><ele>153.0</ele><time>2026-05-01T12:48:45.185Z</time></trkpt><trkpt lat="45.8466283" lon="12.1789767"><ele>153.0</ele><time>2026-05-01T12:48:46.186Z</time></trkpt><trkpt lat="45.84676" lon="12.178795"><ele>150.66666666666666</ele><time>2026-05-01T12:48:47.185Z</time></trkpt><trkpt lat="45.8468967" lon="12.1786083"><ele>148.33333333333331</ele><time>2026-05-01T12:48:48.186Z</time></trkpt><trkpt lat="45.8470367" lon="12.1784167"><ele>146.0</ele><time>2026-05-01T12:48:49.185Z</time></trkpt><trkpt lat="45.8471767" lon="12.1782233"><ele>146.33333333333331</ele><time>2026-05-01T12:48:50.189Z</time></trkpt><trkpt lat="45.84731" lon="12.1780333"><ele>146.66666666666666</ele><time>2026-05-01T12:48:51.185Z</time></trkpt><trkpt lat="45.8474383" lon="12.1778567"><ele>147.0</ele><time>2026-05-01T12:48:52.188Z</time></trkpt><trkpt lat="45.84756" lon="12.1776867"><ele>147.33333333333334</ele><time>2026-05-01T12:48:53.183Z</time></trkpt><trkpt lat="45.84768" lon="12.17752"><ele>147.66666666666669</ele><time>2026-05-01T12:48:54.185Z</time></trkpt><trkpt lat="45.8477917" lon="12.1773517"><ele>148.0</ele><time>2026-05-01T12:48:55.188Z</time></trkpt><trkpt lat="45.8478867" lon="12.1771833"><ele>148.0</ele><time>2026-05-01T12:48:56.19Z</time></trkpt><trkpt lat="45.84797" lon="12.1770167"><ele>148.0</ele><time>2026-05-01T12:48:57.265Z</time></trkpt><trkpt lat="45.8480483" lon="12.17684"><ele>148.0</ele><time>2026-05-01T12:48:58.185Z</time></trkpt><trkpt lat="45.8481067" lon="12.176645"><ele>148.0</ele><time>2026-05-01T12:48:59.185Z</time></trkpt><trkpt lat="45.8481467" lon="12.1764333"><ele>147.66666666666669</ele><time>2026-05-01T12:49:00.184Z</time></trkpt><trkpt lat="45.8481683" lon="12.1762083"><ele>147.33333333333334</ele><time>2026-05-01T12:49:01.184Z</time></trkpt><trkpt lat="45.8481633" lon="12.17597"><ele>147.0</ele><time>2026-05-01T12:49:02.183Z</time></trkpt><trkpt lat="45.8481367" lon="12.175735"><ele>146.33333333333334</ele><time>2026-05-01T12:49:03.185Z</time></trkpt><trkpt lat="45.848115" lon="12.1755217"><ele>145.66666666666669</ele><time>2026-05-01T12:49:04.184Z</time></trkpt><trkpt lat="45.8481133" lon="12.1753117"><ele>145.0</ele><time>2026-05-01T12:49:05.184Z</time></trkpt><trkpt lat="45.84813" lon="12.1750833"><ele>145.66666666666669</ele><time>2026-05-01T12:49:06.191Z</time></trkpt><trkpt lat="45.8481567" lon="12.1748433"><ele>146.33333333333334</ele><time>2026-05-01T12:49:07.182Z</time></trkpt><trkpt lat="45.848195" lon="12.17459"><ele>147.0</ele><time>2026-05-01T12:49:08.186Z</time></trkpt><trkpt lat="45.84824" lon="12.1743233"><ele>147.0</ele><time>2026-05-01T12:49:09.185Z</time></trkpt><trkpt lat="45.8482833" lon="12.1740517"><ele>147.0</ele><time>2026-05-01T12:49:10.185Z</time></trkpt><trkpt lat="45.84833" lon="12.1738017"><ele>147.0</ele><time>2026-05-01T12:49:11.184Z</time></trkpt><trkpt lat="45.84838" lon="12.1735733"><ele>147.0</ele><time>2026-05-01T12:49:12.187Z</time></trkpt><trkpt lat="45.848445" lon="12.1733633"><ele>147.0</ele><time>2026-05-01T12:49:13.186Z</time></trkpt><trkpt lat="45.848535" lon="12.1731683"><ele>147.0</ele><time>2026-05-01T12:49:14.187Z</time></trkpt><trkpt lat="45.8486383" lon="12.1729967"><ele>147.0</ele><time>2026-05-01T12:49:15.186Z</time></trkpt><trkpt lat="45.84874" lon="12.1728317"><ele>147.0</ele><time>2026-05-01T12:49:16.183Z</time></trkpt><trkpt lat="45.8488367" lon="12.1726533"><ele>147.0</ele><time>2026-05-01T12:49:17.184Z</time></trkpt><trkpt lat="45.8489167" lon="12.1724567"><ele>147.0</ele><time>2026-05-01T12:49:18.186Z</time></trkpt><trkpt lat="45.8489783" lon="12.17224"><ele>147.0</ele><time>2026-05-01T12:49:19.188Z</time></trkpt><trkpt lat="45.849015" lon="12.1720067"><ele>147.0</ele><time>2026-05-01T12:49:20.184Z</time></trkpt><trkpt lat="45.849025" lon="12.1717517"><ele>147.0</ele><time>2026-05-01T12:49:21.186Z</time></trkpt><trkpt lat="45.8490117" lon="12.171465"><ele>147.0</ele><time>2026-05-01T12:49:22.184Z</time></trkpt><trkpt lat="45.8489883" lon="12.1711783"><ele>147.0</ele><time>2026-05-01T12:49:23.184Z</time></trkpt><trkpt lat="45.84897" lon="12.17092"><ele>146.66666666666666</ele><time>2026-05-01T12:49:24.186Z</time></trkpt><trkpt lat="45.8489433" lon="12.1706783"><ele>146.33333333333331</ele><time>2026-05-01T12:49:25.186Z</time></trkpt><trkpt lat="45.8489133" lon="12.1704533"><ele>146.0</ele><time>2026-05-01T12:49:26.184Z</time></trkpt><trkpt lat="45.8488883" lon="12.170245"><ele>146.0</ele><time>2026-05-01T12:49:27.185Z</time></trkpt><trkpt lat="45.8488533" lon="12.1700517"><ele>146.0</ele><time>2026-05-01T12:49:28.184Z</time></trkpt><trkpt lat="45.848805" lon="12.1698617"><ele>146.0</ele><time>2026-05-01T12:49:29.186Z</time></trkpt><trkpt lat="45.8487333" lon="12.1696767"><ele>146.0</ele><time>2026-05-01T12:49:30.187Z</time></trkpt><trkpt lat="45.8486417" lon="12.1694983"><ele>145.33333333333331</ele><time>2026-05-01T12:49:31.189Z</time></trkpt><trkpt lat="45.8485467" lon="12.16932"><ele>144.66666666666666</ele><time>2026-05-01T12:49:32.185Z</time></trkpt><trkpt lat="45.8484517" lon="12.16913"><ele>144.0</ele><time>2026-05-01T12:49:33.188Z</time></trkpt><trkpt lat="45.8483583" lon="12.16893"><ele>145.33333333333334</ele><time>2026-05-01T12:49:34.185Z</time></trkpt><trkpt lat="45.8482767" lon="12.1687217"><ele>146.66666666666669</ele><time>2026-05-01T12:49:35.183Z</time></trkpt><trkpt lat="45.848205" lon="12.1685167"><ele>148.0</ele><time>2026-05-01T12:49:36.184Z</time></trkpt><trkpt lat="45.8481483" lon="12.1683183"><ele>148.0</ele><time>2026-05-01T12:49:37.188Z</time></trkpt><trkpt lat="45.8481067" lon="12.1681133"><ele>148.0</ele><time>2026-05-01T12:49:38.189Z</time></trkpt><trkpt lat="45.8480617" lon="12.1679033"><ele>148.0</ele><time>2026-05-01T12:49:39.185Z</time></trkpt><trkpt lat="45.848015" lon="12.167695"><ele>148.0</ele><time>2026-05-01T12:49:40.185Z</time></trkpt><trkpt lat="45.8479667" lon="12.1674833"><ele>148.0</ele><time>2026-05-01T12:49:41.184Z</time></trkpt><trkpt lat="45.8479183" lon="12.1672767"><ele>148.0</ele><time>2026-05-01T12:49:42.185Z</time></trkpt><trkpt lat="45.847865" lon="12.16707"><ele>146.66666666666669</ele><time>2026-05-01T12:49:43.183Z</time></trkpt><trkpt lat="45.8477933" lon="12.1668617"><ele>145.33333333333334</ele><time>2026-05-01T12:49:44.185Z</time></trkpt><trkpt lat="45.847705" lon="12.1666733"><ele>144.0</ele><time>2026-05-01T12:49:45.186Z</time></trkpt><trkpt lat="45.8476033" lon="12.1664983"><ele>144.0</ele><time>2026-05-01T12:49:46.184Z</time></trkpt><trkpt lat="45.84749" lon="12.166335"><ele>144.0</ele><time>2026-05-01T12:49:47.183Z</time></trkpt><trkpt lat="45.8473633" lon="12.16619"><ele>144.0</ele><time>2026-05-01T12:49:48.19Z</time></trkpt><trkpt lat="45.8472167" lon="12.1660433"><ele>144.0</ele><time>2026-05-01T12:49:49.188Z</time></trkpt><trkpt lat="45.8470633" lon="12.165885"><ele>144.0</ele><time>2026-05-01T12:49:50.184Z</time></trkpt><trkpt lat="45.8469017" lon="12.1657217"><ele>144.0</ele><time>2026-05-01T12:49:51.187Z</time></trkpt><trkpt lat="45.846745" lon="12.1655667"><ele>144.66666666666666</ele><time>2026-05-01T12:49:52.187Z</time></trkpt><trkpt lat="45.8466017" lon="12.1654283"><ele>145.33333333333331</ele><time>2026-05-01T12:49:53.184Z</time></trkpt><trkpt lat="45.8464683" lon="12.1652933"><ele>146.0</ele><time>2026-05-01T12:49:54.183Z</time></trkpt><trkpt lat="45.846345" lon="12.16516"><ele>146.0</ele><time>2026-05-01T12:49:55.184Z</time></trkpt><trkpt lat="45.8462267" lon="12.1650283"><ele>146.0</ele><time>2026-05-01T12:49:56.184Z</time></trkpt><trkpt lat="45.8461217" lon="12.1648683"><ele>146.0</ele><time>2026-05-01T12:49:57.185Z</time></trkpt><trkpt lat="45.8460333" lon="12.1646767"><ele>145.66666666666666</ele><time>2026-05-01T12:49:58.184Z</time></trkpt><trkpt lat="45.8459683" lon="12.164465"><ele>145.33333333333334</ele><time>2026-05-01T12:49:59.186Z</time></trkpt><trkpt lat="45.8459267" lon="12.1642517"><ele>145.0</ele><time>2026-05-01T12:50:00.185Z</time></trkpt><trkpt lat="45.8459083" lon="12.1640417"><ele>145.5</ele><time>2026-05-01T12:50:01.184Z</time></trkpt><trkpt lat="45.8459167" lon="12.163845"><ele>146.0</ele><time>2026-05-01T12:50:02.183Z</time></trkpt><trkpt lat="45.8459433" lon="12.16365"><ele>146.5</ele><time>2026-05-01T12:50:03.185Z</time></trkpt><trkpt lat="45.84599" lon="12.1634517"><ele>147.0</ele><time>2026-05-01T12:50:04.187Z</time></trkpt><trkpt lat="45.8460583" lon="12.16326"><ele>147.33333333333334</ele><time>2026-05-01T12:50:05.186Z</time></trkpt><trkpt lat="45.8461467" lon="12.16307"><ele>147.66666666666669</ele><time>2026-05-01T12:50:06.189Z</time></trkpt><trkpt lat="45.846245" lon="12.1628717"><ele>148.0</ele><time>2026-05-01T12:50:07.183Z</time></trkpt><trkpt lat="45.84635" lon="12.1626617"><ele>148.0</ele><time>2026-05-01T12:50:08.185Z</time></trkpt><trkpt lat="45.8464583" lon="12.1624467"><ele>148.0</ele><time>2026-05-01T12:50:09.187Z</time></trkpt><trkpt lat="45.8465667" lon="12.1622233"><ele>148.0</ele><time>2026-05-01T12:50:10.187Z</time></trkpt><trkpt lat="45.84668" lon="12.1619933"><ele>148.0</ele><time>2026-05-01T12:50:11.185Z</time></trkpt><trkpt lat="45.8467917" lon="12.16177"><ele>148.0</ele><time>2026-05-01T12:50:12.184Z</time></trkpt><trkpt lat="45.8468933" lon="12.1615483"><ele>148.0</ele><time>2026-05-01T12:50:13.186Z</time></trkpt><trkpt lat="45.8469767" lon="12.16132"><ele>145.66666666666669</ele><time>2026-05-01T12:50:14.185Z</time></trkpt><trkpt lat="45.847045" lon="12.1610967"><ele>143.33333333333334</ele><time>2026-05-01T12:50:15.183Z</time></trkpt><trkpt lat="45.8470983" lon="12.16086"><ele>141.0</ele><time>2026-05-01T12:50:16.185Z</time></trkpt><trkpt lat="45.8471367" lon="12.1606033"><ele>141.0</ele><time>2026-05-01T12:50:17.185Z</time></trkpt><trkpt lat="45.84716" lon="12.16032"><ele>141.0</ele><time>2026-05-01T12:50:18.183Z</time></trkpt><trkpt lat="45.8471633" lon="12.1600167"><ele>141.0</ele><time>2026-05-01T12:50:19.185Z</time></trkpt><trkpt lat="45.8471617" lon="12.159705"><ele>139.66666666666666</ele><time>2026-05-01T12:50:20.185Z</time></trkpt><trkpt lat="45.8471567" lon="12.1593833"><ele>138.33333333333331</ele><time>2026-05-01T12:50:21.188Z</time></trkpt><trkpt lat="45.8471533" lon="12.1590783"><ele>137.0</ele><time>2026-05-01T12:50:22.184Z</time></trkpt><trkpt lat="45.84715" lon="12.15879"><ele>137.0</ele><time>2026-05-01T12:50:23.189Z</time></trkpt><trkpt lat="45.8471433" lon="12.158515"><ele>137.0</ele><time>2026-05-01T12:50:24.186Z</time></trkpt><trkpt lat="45.8471367" lon="12.1582417"><ele>137.0</ele><time>2026-05-01T12:50:25.184Z</time></trkpt><trkpt lat="45.847135" lon="12.157965"><ele>137.0</ele><time>2026-05-01T12:50:26.184Z</time></trkpt><trkpt lat="45.8471367" lon="12.1576883"><ele>137.0</ele><time>2026-05-01T12:50:27.187Z</time></trkpt><trkpt lat="45.8471367" lon="12.1574217"><ele>137.0</ele><time>2026-05-01T12:50:28.185Z</time></trkpt><trkpt lat="45.84714" lon="12.1571767"><ele>137.66666666666666</ele><time>2026-05-01T12:50:29.185Z</time></trkpt><trkpt lat="45.847165" lon="12.1569433"><ele>138.33333333333334</ele><time>2026-05-01T12:50:30.185Z</time></trkpt><trkpt lat="45.8472183" lon="12.1567133"><ele>139.0</ele><time>2026-05-01T12:50:31.184Z</time></trkpt><trkpt lat="45.8472883" lon="12.1565017"><ele>140.5</ele><time>2026-05-01T12:50:32.183Z</time></trkpt><trkpt lat="45.847365" lon="12.1563167"><ele>142.0</ele><time>2026-05-01T12:50:33.185Z</time></trkpt><trkpt lat="45.8474333" lon="12.1561483"><ele>143.5</ele><time>2026-05-01T12:50:34.185Z</time></trkpt><trkpt lat="45.84749" lon="12.1559733"><ele>145.0</ele><time>2026-05-01T12:50:35.185Z</time></trkpt><trkpt lat="45.8475283" lon="12.1557867"><ele>145.75</ele><time>2026-05-01T12:50:36.183Z</time></trkpt><trkpt lat="45.847545" lon="12.155595"><ele>146.5</ele><time>2026-05-01T12:50:37.186Z</time></trkpt><trkpt lat="45.8475417" lon="12.1554033"><ele>147.25</ele><time>2026-05-01T12:50:38.186Z</time></trkpt><trkpt lat="45.8475133" lon="12.1552117"><ele>148.0</ele><time>2026-05-01T12:50:39.184Z</time></trkpt><trkpt lat="45.847455" lon="12.1550233"><ele>146.33333333333334</ele><time>2026-05-01T12:50:40.186Z</time></trkpt><trkpt lat="45.847365" lon="12.1548433"><ele>144.66666666666666</ele><time>2026-05-01T12:50:41.189Z</time></trkpt><trkpt lat="45.8472483" lon="12.1546617"><ele>143.0</ele><time>2026-05-01T12:50:42.182Z</time></trkpt><trkpt lat="45.84712" lon="12.15447"><ele>143.0</ele><time>2026-05-01T12:50:43.186Z</time></trkpt><trkpt lat="45.8469867" lon="12.1542883"><ele>143.0</ele><time>2026-05-01T12:50:44.184Z</time></trkpt><trkpt lat="45.84686" lon="12.1541283"><ele>143.0</ele><time>2026-05-01T12:50:45.185Z</time></trkpt><trkpt lat="45.8467417" lon="12.153985"><ele>142.75</ele><time>2026-05-01T12:50:46.184Z</time></trkpt><trkpt lat="45.8466383" lon="12.1538433"><ele>142.5</ele><time>2026-05-01T12:50:47.184Z</time></trkpt><trkpt lat="45.8465433" lon="12.1537033"><ele>142.25</ele><time>2026-05-01T12:50:48.186Z</time></trkpt><trkpt lat="45.8464683" lon="12.1535583"><ele>142.0</ele><time>2026-05-01T12:50:49.185Z</time></trkpt><trkpt lat="45.8464133" lon="12.1534133"><ele>142.0</ele><time>2026-05-01T12:50:50.187Z</time></trkpt><trkpt lat="45.846375" lon="12.153245"><ele>142.0</ele><time>2026-05-01T12:50:51.185Z</time></trkpt><trkpt lat="45.8463533" lon="12.1530617"><ele>142.0</ele><time>2026-05-01T12:50:52.183Z</time></trkpt><trkpt lat="45.84635" lon="12.15287"><ele>142.0</ele><time>2026-05-01T12:50:53.186Z</time></trkpt><trkpt lat="45.8463667" lon="12.1526883"><ele>141.5</ele><time>2026-05-01T12:50:54.183Z</time></trkpt><trkpt lat="45.8463833" lon="12.1525217"><ele>141.0</ele><time>2026-05-01T12:50:55.183Z</time></trkpt><trkpt lat="45.8463967" lon="12.15236"><ele>140.5</ele><time>2026-05-01T12:50:56.183Z</time></trkpt><trkpt lat="45.8464067" lon="12.1521833"><ele>140.0</ele><time>2026-05-01T12:50:57.186Z</time></trkpt><trkpt lat="45.846405" lon="12.1519967"><ele>138.75</ele><time>2026-05-01T12:50:58.188Z</time></trkpt><trkpt lat="45.8463833" lon="12.151805"><ele>137.5</ele><time>2026-05-01T12:50:59.186Z</time></trkpt><trkpt lat="45.8463533" lon="12.1516067"><ele>136.25</ele><time>2026-05-01T12:51:00.188Z</time></trkpt><trkpt lat="45.84632" lon="12.1514"><ele>135.0</ele><time>2026-05-01T12:51:01.184Z</time></trkpt><trkpt lat="45.8462883" lon="12.1511933"><ele>133.5</ele><time>2026-05-01T12:51:02.183Z</time></trkpt><trkpt lat="45.8462567" lon="12.1510017"><ele>132.0</ele><time>2026-05-01T12:51:03.186Z</time></trkpt><trkpt lat="45.84623" lon="12.150825"><ele>130.5</ele><time>2026-05-01T12:51:04.184Z</time></trkpt><trkpt lat="45.8462117" lon="12.150655"><ele>129.0</ele><time>2026-05-01T12:51:05.186Z</time></trkpt><trkpt lat="45.8461983" lon="12.1504883"><ele>128.75</ele><time>2026-05-01T12:51:06.184Z</time></trkpt><trkpt lat="45.8461983" lon="12.1503133"><ele>128.5</ele><time>2026-05-01T12:51:07.184Z</time></trkpt><trkpt lat="45.8462283" lon="12.15014"><ele>128.25</ele><time>2026-05-01T12:51:08.186Z</time></trkpt><trkpt lat="45.846275" lon="12.1499817"><ele>128.0</ele><time>2026-05-01T12:51:09.183Z</time></trkpt><trkpt lat="45.84632" lon="12.1498367"><ele>128.0</ele><time>2026-05-01T12:51:10.186Z</time></trkpt><trkpt lat="45.8463533" lon="12.1496983"><ele>128.0</ele><time>2026-05-01T12:51:11.184Z</time></trkpt><trkpt lat="45.8463717" lon="12.14956"><ele>128.0</ele><time>2026-05-01T12:51:12.184Z</time></trkpt><trkpt lat="45.8463733" lon="12.1494217"><ele>128.0</ele><time>2026-05-01T12:51:13.184Z</time></trkpt><trkpt lat="45.84634" lon="12.14928"><ele>128.0</ele><time>2026-05-01T12:51:14.186Z</time></trkpt><trkpt lat="45.8462867" lon="12.1491317"><ele>129.0</ele><time>2026-05-01T12:51:15.184Z</time></trkpt><trkpt lat="45.8462133" lon="12.1489817"><ele>130.0</ele><time>2026-05-01T12:51:16.182Z</time></trkpt><trkpt lat="45.84612" lon="12.1488367"><ele>131.0</ele><time>2026-05-01T12:51:17.183Z</time></trkpt><trkpt lat="45.846035" lon="12.1486917"><ele>132.0</ele><time>2026-05-01T12:51:18.183Z</time></trkpt><trkpt lat="45.84596" lon="12.1485433"><ele>132.0</ele><time>2026-05-01T12:51:19.185Z</time></trkpt><trkpt lat="45.84589" lon="12.1483917"><ele>132.0</ele><time>2026-05-01T12:51:20.184Z</time></trkpt><trkpt lat="45.8458217" lon="12.1482317"><ele>132.0</ele><time>2026-05-01T12:51:21.186Z</time></trkpt><trkpt lat="45.84576" lon="12.1480633"><ele>132.0</ele><time>2026-05-01T12:51:22.186Z</time></trkpt><trkpt lat="45.845705" lon="12.1479017"><ele>130.25</ele><time>2026-05-01T12:51:23.186Z</time></trkpt><trkpt lat="45.84566" lon="12.1477433"><ele>128.5</ele><time>2026-05-01T12:51:24.183Z</time></trkpt><trkpt lat="45.8456183" lon="12.1475867"><ele>126.75</ele><time>2026-05-01T12:51:25.183Z</time></trkpt><trkpt lat="45.845575" lon="12.1474233"><ele>125.0</ele><time>2026-05-01T12:51:26.183Z</time></trkpt><trkpt lat="45.8455233" lon="12.1472583"><ele>123.25</ele><time>2026-05-01T12:51:27.187Z</time></trkpt><trkpt lat="45.8454717" lon="12.1470883"><ele>121.5</ele><time>2026-05-01T12:51:28.187Z</time></trkpt><trkpt lat="45.8454217" lon="12.1469283"><ele>119.75</ele><time>2026-05-01T12:51:29.189Z</time></trkpt><trkpt lat="45.8453783" lon="12.1467733"><ele>118.0</ele><time>2026-05-01T12:51:30.184Z</time></trkpt><trkpt lat="45.8453383" lon="12.146615"><ele>118.25</ele><time>2026-05-01T12:51:31.185Z</time></trkpt><trkpt lat="45.845295" lon="12.1464483"><ele>118.5</ele><time>2026-05-01T12:51:32.187Z</time></trkpt><trkpt lat="45.8452617" lon="12.1462683"><ele>118.75</ele><time>2026-05-01T12:51:33.187Z</time></trkpt><trkpt lat="45.8452417" lon="12.1460733"><ele>119.0</ele><time>2026-05-01T12:51:34.184Z</time></trkpt><trkpt lat="45.8452367" lon="12.1458683"><ele>118.0</ele><time>2026-05-01T12:51:35.184Z</time></trkpt><trkpt lat="45.8452483" lon="12.1456567"><ele>117.0</ele><time>2026-05-01T12:51:36.185Z</time></trkpt><trkpt lat="45.8452817" lon="12.1454417"><ele>116.0</ele><time>2026-05-01T12:51:37.186Z</time></trkpt><trkpt lat="45.845325" lon="12.1452367"><ele>116.0</ele><time>2026-05-01T12:51:38.184Z</time></trkpt><trkpt lat="45.845365" lon="12.1450433"><ele>116.0</ele><time>2026-05-01T12:51:39.183Z</time></trkpt><trkpt lat="45.8453967" lon="12.144865"><ele>116.0</ele><time>2026-05-01T12:51:40.187Z</time></trkpt><trkpt lat="45.845425" lon="12.14469"><ele>116.0</ele><time>2026-05-01T12:51:41.185Z</time></trkpt><trkpt lat="45.845445" lon="12.144505"><ele>115.25</ele><time>2026-05-01T12:51:42.185Z</time></trkpt><trkpt lat="45.84545" lon="12.1443083"><ele>114.5</ele><time>2026-05-01T12:51:43.186Z</time></trkpt><trkpt lat="45.8454317" lon="12.1441167"><ele>113.75</ele><time>2026-05-01T12:51:44.183Z</time></trkpt><trkpt lat="45.845395" lon="12.1439417"><ele>113.0</ele><time>2026-05-01T12:51:45.184Z</time></trkpt><trkpt lat="45.84534" lon="12.143775"><ele>114.25</ele><time>2026-05-01T12:51:46.185Z</time></trkpt><trkpt lat="45.8452683" lon="12.1436167"><ele>115.5</ele><time>2026-05-01T12:51:47.185Z</time></trkpt><trkpt lat="45.8451817" lon="12.1434633"><ele>116.75</ele><time>2026-05-01T12:51:48.264Z</time></trkpt><trkpt lat="45.8450833" lon="12.143315"><ele>118.0</ele><time>2026-05-01T12:51:49.187Z</time></trkpt><trkpt lat="45.8449867" lon="12.1431733"><ele>118.0</ele><time>2026-05-01T12:51:50.185Z</time></trkpt><trkpt lat="45.8448983" lon="12.1430417"><ele>118.0</ele><time>2026-05-01T12:51:51.185Z</time></trkpt><trkpt lat="45.844815" lon="12.1429083"><ele>118.0</ele><time>2026-05-01T12:51:52.185Z</time></trkpt><trkpt lat="45.844725" lon="12.1427733"><ele>118.0</ele><time>2026-05-01T12:51:53.184Z</time></trkpt><trkpt lat="45.8446317" lon="12.142635"><ele>118.0</ele><time>2026-05-01T12:51:54.186Z</time></trkpt><trkpt lat="45.8445367" lon="12.1424983"><ele>118.0</ele><time>2026-05-01T12:51:55.183Z</time></trkpt><trkpt lat="45.8444483" lon="12.1423667"><ele>118.0</ele><time>2026-05-01T12:51:56.186Z</time></trkpt><trkpt lat="45.8443667" lon="12.1422467"><ele>118.0</ele><time>2026-05-01T12:51:57.188Z</time></trkpt><trkpt lat="45.8442867" lon="12.142125"><ele>119.0</ele><time>2026-05-01T12:51:58.184Z</time></trkpt><trkpt lat="45.84421" lon="12.1419933"><ele>120.0</ele><time>2026-05-01T12:51:59.186Z</time></trkpt><trkpt lat="45.84414" lon="12.14185"><ele>121.0</ele><time>2026-05-01T12:52:00.185Z</time></trkpt><trkpt lat="45.844065" lon="12.1417017"><ele>122.0</ele><time>2026-05-01T12:52:01.184Z</time></trkpt><trkpt lat="45.8439917" lon="12.1415483"><ele>122.0</ele><time>2026-05-01T12:52:02.184Z</time></trkpt><trkpt lat="45.843915" lon="12.1413883"><ele>122.0</ele><time>2026-05-01T12:52:03.186Z</time></trkpt><trkpt lat="45.8438433" lon="12.1412233"><ele>122.0</ele><time>2026-05-01T12:52:04.184Z</time></trkpt><trkpt lat="45.8437667" lon="12.1410467"><ele>122.0</ele><time>2026-05-01T12:52:05.187Z</time></trkpt><trkpt lat="45.84369" lon="12.14085"><ele>121.0</ele><time>2026-05-01T12:52:06.184Z</time></trkpt><trkpt lat="45.8436067" lon="12.140635"><ele>120.0</ele><time>2026-05-01T12:52:07.188Z</time></trkpt><trkpt lat="45.84352" lon="12.1404133"><ele>119.0</ele><time>2026-05-01T12:52:08.184Z</time></trkpt><trkpt lat="45.8434383" lon="12.1401917"><ele>121.33333333333333</ele><time>2026-05-01T12:52:09.188Z</time></trkpt><trkpt lat="45.8433567" lon="12.1399767"><ele>123.66666666666666</ele><time>2026-05-01T12:52:10.186Z</time></trkpt><trkpt lat="45.8432817" lon="12.1397717"><ele>126.0</ele><time>2026-05-01T12:52:11.186Z</time></trkpt><trkpt lat="45.8432117" lon="12.1395617"><ele>126.0</ele><time>2026-05-01T12:52:12.186Z</time></trkpt><trkpt lat="45.8431383" lon="12.1393467"><ele>126.0</ele><time>2026-05-01T12:52:13.186Z</time></trkpt><trkpt lat="45.84305" lon="12.1391283"><ele>126.0</ele><time>2026-05-01T12:52:14.185Z</time></trkpt><trkpt lat="45.842955" lon="12.1389"><ele>124.66666666666666</ele><time>2026-05-01T12:52:15.187Z</time></trkpt><trkpt lat="45.8428567" lon="12.1386517"><ele>123.33333333333333</ele><time>2026-05-01T12:52:16.188Z</time></trkpt><trkpt lat="45.842765" lon="12.1383883"><ele>122.0</ele><time>2026-05-01T12:52:17.185Z</time></trkpt><trkpt lat="45.842675" lon="12.1381133"><ele>123.66666666666666</ele><time>2026-05-01T12:52:18.185Z</time></trkpt><trkpt lat="45.8425767" lon="12.1378333"><ele>125.33333333333334</ele><time>2026-05-01T12:52:19.184Z</time></trkpt><trkpt lat="45.8424833" lon="12.1375717"><ele>127.0</ele><time>2026-05-01T12:52:20.184Z</time></trkpt><trkpt lat="45.8423933" lon="12.1373333"><ele>127.0</ele><time>2026-05-01T12:52:21.185Z</time></trkpt><trkpt lat="45.8423067" lon="12.137105"><ele>127.0</ele><time>2026-05-01T12:52:22.185Z</time></trkpt><trkpt lat="45.8422167" lon="12.1368783"><ele>127.0</ele><time>2026-05-01T12:52:23.183Z</time></trkpt><trkpt lat="45.8421167" lon="12.1366567"><ele>125.33333333333334</ele><time>2026-05-01T12:52:24.184Z</time></trkpt><trkpt lat="45.841995" lon="12.13645"><ele>123.66666666666666</ele><time>2026-05-01T12:52:25.188Z</time></trkpt><trkpt lat="45.84185" lon="12.1362533"><ele>122.0</ele><time>2026-05-01T12:52:26.186Z</time></trkpt><trkpt lat="45.8417033" lon="12.1360633"><ele>122.66666666666666</ele><time>2026-05-01T12:52:27.188Z</time></trkpt><trkpt lat="45.8415667" lon="12.13589"><ele>123.33333333333334</ele><time>2026-05-01T12:52:28.184Z</time></trkpt><trkpt lat="45.841425" lon="12.13571"><ele>124.0</ele><time>2026-05-01T12:52:29.189Z</time></trkpt><trkpt lat="45.841285" lon="12.1355233"><ele>124.0</ele><time>2026-05-01T12:52:30.187Z</time></trkpt><trkpt lat="45.8411483" lon="12.1353233"><ele>124.0</ele><time>2026-05-01T12:52:31.186Z</time></trkpt><trkpt lat="45.8410233" lon="12.13511"><ele>124.0</ele><time>2026-05-01T12:52:32.186Z</time></trkpt><trkpt lat="45.840905" lon="12.1348767"><ele>126.33333333333334</ele><time>2026-05-01T12:52:33.186Z</time></trkpt><trkpt lat="45.84079" lon="12.1346433"><ele>128.66666666666666</ele><time>2026-05-01T12:52:34.185Z</time></trkpt><trkpt lat="45.8406867" lon="12.1344"><ele>131.0</ele><time>2026-05-01T12:52:35.189Z</time></trkpt><trkpt lat="45.8405917" lon="12.1341617"><ele>129.0</ele><time>2026-05-01T12:52:36.186Z</time></trkpt><trkpt lat="45.840505" lon="12.1339317"><ele>127.0</ele><time>2026-05-01T12:52:37.185Z</time></trkpt><trkpt lat="45.84042" lon="12.1337083"><ele>125.0</ele><time>2026-05-01T12:52:38.186Z</time></trkpt><trkpt lat="45.84036" lon="12.13347"><ele>123.33333333333333</ele><time>2026-05-01T12:52:39.186Z</time></trkpt><trkpt lat="45.8403083" lon="12.133215"><ele>121.66666666666666</ele><time>2026-05-01T12:52:40.187Z</time></trkpt><trkpt lat="45.8402617" lon="12.132945"><ele>120.0</ele><time>2026-05-01T12:52:41.187Z</time></trkpt><trkpt lat="45.8402167" lon="12.1326567"><ele>118.66666666666666</ele><time>2026-05-01T12:52:42.189Z</time></trkpt><trkpt lat="45.8401717" lon="12.1323567"><ele>117.33333333333333</ele><time>2026-05-01T12:52:43.187Z</time></trkpt><trkpt lat="45.84013" lon="12.132055"><ele>116.0</ele><time>2026-05-01T12:52:44.187Z</time></trkpt><trkpt lat="45.8400833" lon="12.131765"><ele>120.66666666666666</ele><time>2026-05-01T12:52:45.186Z</time></trkpt><trkpt lat="45.84003" lon="12.13148"><ele>125.33333333333334</ele><time>2026-05-01T12:52:46.192Z</time></trkpt><trkpt lat="45.8399583" lon="12.1311983"><ele>130.0</ele><time>2026-05-01T12:52:47.187Z</time></trkpt><trkpt lat="45.839875" lon="12.1309117"><ele>127.0</ele><time>2026-05-01T12:52:48.188Z</time></trkpt><trkpt lat="45.8397817" lon="12.1306233"><ele>124.0</ele><time>2026-05-01T12:52:49.184Z</time></trkpt><trkpt lat="45.839685" lon="12.1303267"><ele>124.0</ele><time>2026-05-01T12:52:50.185Z</time></trkpt><trkpt lat="45.8395867" lon="12.130025"><ele>124.0</ele><time>2026-05-01T12:52:51.187Z</time></trkpt><trkpt lat="45.8394833" lon="12.1297233"><ele>120.0</ele><time>2026-05-01T12:52:52.185Z</time></trkpt><trkpt lat="45.8393817" lon="12.12942"><ele>116.0</ele><time>2026-05-01T12:52:53.184Z</time></trkpt><trkpt lat="45.8392817" lon="12.1291317"><ele>120.0</ele><time>2026-05-01T12:52:54.187Z</time></trkpt><trkpt lat="45.83919" lon="12.1288683"><ele>124.0</ele><time>2026-05-01T12:52:55.185Z</time></trkpt><trkpt lat="45.8391017" lon="12.1286083"><ele>128.0</ele><time>2026-05-01T12:52:56.188Z</time></trkpt><trkpt lat="45.839015" lon="12.12834"><ele>128.0</ele><time>2026-05-01T12:52:57.187Z</time></trkpt><trkpt lat="45.8389283" lon="12.12807"><ele>128.0</ele><time>2026-05-01T12:52:58.186Z</time></trkpt><trkpt lat="45.8388383" lon="12.1278017"><ele>128.0</ele><time>2026-05-01T12:52:59.183Z</time></trkpt><trkpt lat="45.83874" lon="12.1275433"><ele>129.66666666666666</ele><time>2026-05-01T12:53:00.185Z</time></trkpt><trkpt lat="45.8386317" lon="12.1272917"><ele>131.33333333333334</ele><time>2026-05-01T12:53:01.188Z</time></trkpt><trkpt lat="45.8385183" lon="12.1270467"><ele>133.0</ele><time>2026-05-01T12:53:02.189Z</time></trkpt><trkpt lat="45.8384017" lon="12.1268"><ele>132.0</ele><time>2026-05-01T12:53:03.186Z</time></trkpt><trkpt lat="45.83829" lon="12.1265533"><ele>131.0</ele><time>2026-05-01T12:53:04.185Z</time></trkpt><trkpt lat="45.8381767" lon="12.1263083"><ele>130.0</ele><time>2026-05-01T12:53:05.187Z</time></trkpt><trkpt lat="45.8380633" lon="12.126065"><ele>130.0</ele><time>2026-05-01T12:53:06.184Z</time></trkpt><trkpt lat="45.8379483" lon="12.1258233"><ele>130.0</ele><time>2026-05-01T12:53:07.184Z</time></trkpt><trkpt lat="45.8378383" lon="12.1255783"><ele>130.0</ele><time>2026-05-01T12:53:08.185Z</time></trkpt><trkpt lat="45.8377283" lon="12.1253333"><ele>131.33333333333334</ele><time>2026-05-01T12:53:09.184Z</time></trkpt><trkpt lat="45.8376233" lon="12.125085"><ele>132.66666666666666</ele><time>2026-05-01T12:53:10.185Z</time></trkpt><trkpt lat="45.8375233" lon="12.12483"><ele>134.0</ele><time>2026-05-01T12:53:11.186Z</time></trkpt><trkpt lat="45.83743" lon="12.1245683"><ele>134.0</ele><time>2026-05-01T12:53:12.185Z</time></trkpt><trkpt lat="45.8373367" lon="12.1243033"><ele>134.0</ele><time>2026-05-01T12:53:13.186Z</time></trkpt><trkpt lat="45.8372467" lon="12.1240367"><ele>134.0</ele><time>2026-05-01T12:53:14.184Z</time></trkpt><trkpt lat="45.8371567" lon="12.1237667"><ele>132.33333333333331</ele><time>2026-05-01T12:53:15.186Z</time></trkpt><trkpt lat="45.8370667" lon="12.123495"><ele>130.66666666666666</ele><time>2026-05-01T12:53:16.184Z</time></trkpt><trkpt lat="45.8369783" lon="12.1232233"><ele>129.0</ele><time>2026-05-01T12:53:17.191Z</time></trkpt><trkpt lat="45.8368933" lon="12.1229517"><ele>130.33333333333334</ele><time>2026-05-01T12:53:18.187Z</time></trkpt><trkpt lat="45.83681" lon="12.1226867"><ele>131.66666666666669</ele><time>2026-05-01T12:53:19.189Z</time></trkpt><trkpt lat="45.836725" lon="12.1224367"><ele>133.0</ele><time>2026-05-01T12:53:20.187Z</time></trkpt><trkpt lat="45.8366417" lon="12.122195"><ele>133.0</ele><time>2026-05-01T12:53:21.184Z</time></trkpt><trkpt lat="45.83655" lon="12.1219583"><ele>133.0</ele><time>2026-05-01T12:53:22.183Z</time></trkpt><trkpt lat="45.836445" lon="12.1217267"><ele>133.0</ele><time>2026-05-01T12:53:23.184Z</time></trkpt><trkpt lat="45.836345" lon="12.1215"><ele>132.33333333333334</ele><time>2026-05-01T12:53:24.186Z</time></trkpt><trkpt lat="45.8362317" lon="12.12127"><ele>131.66666666666666</ele><time>2026-05-01T12:53:25.185Z</time></trkpt><trkpt lat="45.8361217" lon="12.1210383"><ele>131.0</ele><time>2026-05-01T12:53:26.183Z</time></trkpt><trkpt lat="45.8360083" lon="12.1208067"><ele>132.0</ele><time>2026-05-01T12:53:27.186Z</time></trkpt><trkpt lat="45.8358983" lon="12.120585"><ele>133.0</ele><time>2026-05-01T12:53:28.186Z</time></trkpt><trkpt lat="45.8357933" lon="12.1203733"><ele>134.0</ele><time>2026-05-01T12:53:29.185Z</time></trkpt><trkpt lat="45.8356983" lon="12.1201683"><ele>134.0</ele><time>2026-05-01T12:53:30.187Z</time></trkpt><trkpt lat="45.835615" lon="12.119955"><ele>134.0</ele><time>2026-05-01T12:53:31.184Z</time></trkpt><trkpt lat="45.8355483" lon="12.1197183"><ele>134.0</ele><time>2026-05-01T12:53:32.187Z</time></trkpt><trkpt lat="45.835505" lon="12.119465"><ele>134.0</ele><time>2026-05-01T12:53:33.188Z</time></trkpt><trkpt lat="45.8354667" lon="12.119195"><ele>134.0</ele><time>2026-05-01T12:53:34.187Z</time></trkpt><trkpt lat="45.835425" lon="12.118915"><ele>134.0</ele><time>2026-05-01T12:53:35.187Z</time></trkpt><trkpt lat="45.8353767" lon="12.1186367"><ele>134.0</ele><time>2026-05-01T12:53:36.184Z</time></trkpt><trkpt lat="45.83532" lon="12.1183583"><ele>134.0</ele><time>2026-05-01T12:53:37.184Z</time></trkpt><trkpt lat="45.83525" lon="12.11808"><ele>134.0</ele><time>2026-05-01T12:53:38.188Z</time></trkpt><trkpt lat="45.8351833" lon="12.1177967"><ele>134.66666666666666</ele><time>2026-05-01T12:53:39.185Z</time></trkpt><trkpt lat="45.8351117" lon="12.1175183"><ele>135.33333333333334</ele><time>2026-05-01T12:53:40.184Z</time></trkpt><trkpt lat="45.83504" lon="12.1172467"><ele>136.0</ele><time>2026-05-01T12:53:41.187Z</time></trkpt><trkpt lat="45.8349733" lon="12.116995"><ele>136.0</ele><time>2026-05-01T12:53:42.186Z</time></trkpt><trkpt lat="45.8349083" lon="12.1167533"><ele>136.0</ele><time>2026-05-01T12:53:43.187Z</time></trkpt><trkpt lat="45.8348417" lon="12.1165067"><ele>136.0</ele><time>2026-05-01T12:53:44.187Z</time></trkpt><trkpt lat="45.834775" lon="12.11626"><ele>136.33333333333334</ele><time>2026-05-01T12:53:45.186Z</time></trkpt><trkpt lat="45.8347117" lon="12.1160267"><ele>136.66666666666666</ele><time>2026-05-01T12:53:46.187Z</time></trkpt><trkpt lat="45.83465" lon="12.115805"><ele>137.0</ele><time>2026-05-01T12:53:47.188Z</time></trkpt><trkpt lat="45.8345933" lon="12.1156"><ele>136.0</ele><time>2026-05-01T12:53:48.183Z</time></trkpt><trkpt lat="45.8345367" lon="12.1154017"><ele>135.0</ele><time>2026-05-01T12:53:49.184Z</time></trkpt><trkpt lat="45.8344817" lon="12.115195"><ele>134.0</ele><time>2026-05-01T12:53:50.184Z</time></trkpt><trkpt lat="45.8344267" lon="12.1149867"><ele>134.33333333333331</ele><time>2026-05-01T12:53:51.278Z</time></trkpt><trkpt lat="45.8343717" lon="12.114775"><ele>134.66666666666666</ele><time>2026-05-01T12:53:52.186Z</time></trkpt><trkpt lat="45.834315" lon="12.11456"><ele>135.0</ele><time>2026-05-01T12:53:53.186Z</time></trkpt><trkpt lat="45.83425" lon="12.1143467"><ele>135.0</ele><time>2026-05-01T12:53:54.186Z</time></trkpt><trkpt lat="45.8341817" lon="12.1141333"><ele>135.0</ele><time>2026-05-01T12:53:55.185Z</time></trkpt><trkpt lat="45.8341217" lon="12.11391"><ele>135.0</ele><time>2026-05-01T12:53:56.184Z</time></trkpt><trkpt lat="45.8340633" lon="12.1136717"><ele>134.66666666666666</ele><time>2026-05-01T12:53:57.186Z</time></trkpt><trkpt lat="45.8339983" lon="12.1134367"><ele>134.33333333333331</ele><time>2026-05-01T12:53:58.187Z</time></trkpt><trkpt lat="45.8339283" lon="12.113195"><ele>134.0</ele><time>2026-05-01T12:53:59.184Z</time></trkpt><trkpt lat="45.83386" lon="12.1129517"><ele>133.66666666666666</ele><time>2026-05-01T12:54:00.184Z</time></trkpt><trkpt lat="45.8337917" lon="12.1127033"><ele>133.33333333333334</ele><time>2026-05-01T12:54:01.185Z</time></trkpt><trkpt lat="45.83372" lon="12.1124483"><ele>133.0</ele><time>2026-05-01T12:54:02.188Z</time></trkpt><trkpt lat="45.8336467" lon="12.1121817"><ele>132.66666666666669</ele><time>2026-05-01T12:54:03.186Z</time></trkpt><trkpt lat="45.8335717" lon="12.11191"><ele>132.33333333333334</ele><time>2026-05-01T12:54:04.189Z</time></trkpt><trkpt lat="45.8334983" lon="12.1116517"><ele>132.0</ele><time>2026-05-01T12:54:05.186Z</time></trkpt><trkpt lat="45.8334283" lon="12.111405"><ele>133.33333333333334</ele><time>2026-05-01T12:54:06.185Z</time></trkpt><trkpt lat="45.83336" lon="12.111145"><ele>134.66666666666669</ele><time>2026-05-01T12:54:07.184Z</time></trkpt><trkpt lat="45.833305" lon="12.110875"><ele>136.0</ele><time>2026-05-01T12:54:08.19Z</time></trkpt><trkpt lat="45.8332617" lon="12.1106033"><ele>136.0</ele><time>2026-05-01T12:54:09.186Z</time></trkpt><trkpt lat="45.8332283" lon="12.1103217"><ele>136.0</ele><time>2026-05-01T12:54:10.187Z</time></trkpt><trkpt lat="45.833195" lon="12.1100333"><ele>136.0</ele><time>2026-05-01T12:54:11.187Z</time></trkpt><trkpt lat="45.8331567" lon="12.109745"><ele>136.33333333333334</ele><time>2026-05-01T12:54:12.187Z</time></trkpt><trkpt lat="45.833125" lon="12.109455"><ele>136.66666666666666</ele><time>2026-05-01T12:54:13.185Z</time></trkpt><trkpt lat="45.8330933" lon="12.10918"><ele>137.0</ele><time>2026-05-01T12:54:14.183Z</time></trkpt><trkpt lat="45.8330633" lon="12.108915"><ele>137.0</ele><time>2026-05-01T12:54:15.186Z</time></trkpt><trkpt lat="45.8330317" lon="12.1086517"><ele>137.0</ele><time>2026-05-01T12:54:16.185Z</time></trkpt><trkpt lat="45.8330017" lon="12.1083883"><ele>137.0</ele><time>2026-05-01T12:54:17.187Z</time></trkpt><trkpt lat="45.8329717" lon="12.108125"><ele>136.66666666666666</ele><time>2026-05-01T12:54:18.187Z</time></trkpt><trkpt lat="45.832945" lon="12.107865"><ele>136.33333333333334</ele><time>2026-05-01T12:54:19.185Z</time></trkpt><trkpt lat="45.832915" lon="12.1076067"><ele>136.0</ele><time>2026-05-01T12:54:20.185Z</time></trkpt><trkpt lat="45.83289" lon="12.1073483"><ele>136.66666666666669</ele><time>2026-05-01T12:54:21.185Z</time></trkpt><trkpt lat="45.8328633" lon="12.1070883"><ele>137.33333333333334</ele><time>2026-05-01T12:54:22.185Z</time></trkpt><trkpt lat="45.8328367" lon="12.106825"><ele>138.0</ele><time>2026-05-01T12:54:23.187Z</time></trkpt><trkpt lat="45.8328067" lon="12.10656"><ele>138.0</ele><time>2026-05-01T12:54:24.188Z</time></trkpt><trkpt lat="45.832775" lon="12.1062967"><ele>138.0</ele><time>2026-05-01T12:54:25.186Z</time></trkpt><trkpt lat="45.8327433" lon="12.106035"><ele>138.0</ele><time>2026-05-01T12:54:26.184Z</time></trkpt><trkpt lat="45.8327067" lon="12.10577"><ele>137.33333333333334</ele><time>2026-05-01T12:54:27.183Z</time></trkpt><trkpt lat="45.83266" lon="12.1055033"><ele>136.66666666666669</ele><time>2026-05-01T12:54:28.188Z</time></trkpt><trkpt lat="45.8326033" lon="12.1052417"><ele>136.0</ele><time>2026-05-01T12:54:29.185Z</time></trkpt><trkpt lat="45.83254" lon="12.1049783"><ele>137.33333333333334</ele><time>2026-05-01T12:54:30.188Z</time></trkpt><trkpt lat="45.8324783" lon="12.1047183"><ele>138.66666666666666</ele><time>2026-05-01T12:54:31.185Z</time></trkpt><trkpt lat="45.8324183" lon="12.104455"><ele>140.0</ele><time>2026-05-01T12:54:32.187Z</time></trkpt><trkpt lat="45.83236" lon="12.1041933"><ele>140.66666666666666</ele><time>2026-05-01T12:54:33.188Z</time></trkpt><trkpt lat="45.8323" lon="12.10393"><ele>141.33333333333334</ele><time>2026-05-01T12:54:34.184Z</time></trkpt><trkpt lat="45.8322367" lon="12.10367"><ele>142.0</ele><time>2026-05-01T12:54:35.184Z</time></trkpt><trkpt lat="45.8321767" lon="12.1034283"><ele>141.66666666666669</ele><time>2026-05-01T12:54:36.185Z</time></trkpt><trkpt lat="45.83212" lon="12.1031917"><ele>141.33333333333334</ele><time>2026-05-01T12:54:37.183Z</time></trkpt><trkpt lat="45.8320667" lon="12.1029533"><ele>141.0</ele><time>2026-05-01T12:54:38.19Z</time></trkpt><trkpt lat="45.8320117" lon="12.1027117"><ele>141.0</ele><time>2026-05-01T12:54:39.186Z</time></trkpt><trkpt lat="45.831955" lon="12.102465"><ele>141.0</ele><time>2026-05-01T12:54:40.186Z</time></trkpt><trkpt lat="45.8318967" lon="12.1022183"><ele>141.0</ele><time>2026-05-01T12:54:41.184Z</time></trkpt><trkpt lat="45.8318383" lon="12.1019683"><ele>143.66666666666666</ele><time>2026-05-01T12:54:42.185Z</time></trkpt><trkpt lat="45.831785" lon="12.1017167"><ele>146.33333333333331</ele><time>2026-05-01T12:54:43.19Z</time></trkpt><trkpt lat="45.83173" lon="12.1014633"><ele>149.0</ele><time>2026-05-01T12:54:44.188Z</time></trkpt><trkpt lat="45.831675" lon="12.1012117"><ele>150.0</ele><time>2026-05-01T12:54:45.187Z</time></trkpt><trkpt lat="45.8316217" lon="12.1009567"><ele>151.0</ele><time>2026-05-01T12:54:46.185Z</time></trkpt><trkpt lat="45.8315717" lon="12.100705"><ele>152.0</ele><time>2026-05-01T12:54:47.186Z</time></trkpt><trkpt lat="45.83153" lon="12.1004717"><ele>152.0</ele><time>2026-05-01T12:54:48.185Z</time></trkpt><trkpt lat="45.8314983" lon="12.1002417"><ele>152.0</ele><time>2026-05-01T12:54:49.185Z</time></trkpt><trkpt lat="45.8314767" lon="12.1000017"><ele>152.0</ele><time>2026-05-01T12:54:50.183Z</time></trkpt><trkpt lat="45.831475" lon="12.09976"><ele>152.0</ele><time>2026-05-01T12:54:51.188Z</time></trkpt><trkpt lat="45.8314833" lon="12.09952"><ele>152.0</ele><time>2026-05-01T12:54:52.185Z</time></trkpt><trkpt lat="45.8314933" lon="12.0992867"><ele>152.0</ele><time>2026-05-01T12:54:53.186Z</time></trkpt><trkpt lat="45.8314933" lon="12.0990533"><ele>151.0</ele><time>2026-05-01T12:54:54.186Z</time></trkpt><trkpt lat="45.831475" lon="12.098815"><ele>150.0</ele><time>2026-05-01T12:54:55.184Z</time></trkpt><trkpt lat="45.831445" lon="12.0985683"><ele>149.0</ele><time>2026-05-01T12:54:56.184Z</time></trkpt><trkpt lat="45.8314017" lon="12.0983133"><ele>146.0</ele><time>2026-05-01T12:54:57.185Z</time></trkpt><trkpt lat="45.8313433" lon="12.0980583"><ele>143.0</ele><time>2026-05-01T12:54:58.189Z</time></trkpt><trkpt lat="45.8312833" lon="12.0978"><ele>140.0</ele><time>2026-05-01T12:54:59.187Z</time></trkpt><trkpt lat="45.83123" lon="12.09755"><ele>137.66666666666666</ele><time>2026-05-01T12:55:00.185Z</time></trkpt><trkpt lat="45.8311833" lon="12.0973"><ele>135.33333333333334</ele><time>2026-05-01T12:55:01.188Z</time></trkpt><trkpt lat="45.831155" lon="12.0970367"><ele>133.0</ele><time>2026-05-01T12:55:02.186Z</time></trkpt><trkpt lat="45.831125" lon="12.0967667"><ele>131.33333333333334</ele><time>2026-05-01T12:55:03.185Z</time></trkpt><trkpt lat="45.8310983" lon="12.0964933"><ele>129.66666666666666</ele><time>2026-05-01T12:55:04.186Z</time></trkpt><trkpt lat="45.83107" lon="12.0962233"><ele>128.0</ele><time>2026-05-01T12:55:05.184Z</time></trkpt><trkpt lat="45.8310433" lon="12.095965"><ele>127.0</ele><time>2026-05-01T12:55:06.188Z</time></trkpt><trkpt lat="45.8310167" lon="12.0957183"><ele>126.0</ele><time>2026-05-01T12:55:07.186Z</time></trkpt><trkpt lat="45.830995" lon="12.09547"><ele>125.0</ele><time>2026-05-01T12:55:08.183Z</time></trkpt><trkpt lat="45.83097" lon="12.09522"><ele>131.0</ele><time>2026-05-01T12:55:09.189Z</time></trkpt><trkpt lat="45.8309417" lon="12.0949667"><ele>137.0</ele><time>2026-05-01T12:55:10.184Z</time></trkpt><trkpt lat="45.8309117" lon="12.0947067"><ele>143.0</ele><time>2026-05-01T12:55:11.184Z</time></trkpt><trkpt lat="45.8308817" lon="12.0944433"><ele>143.0</ele><time>2026-05-01T12:55:12.185Z</time></trkpt><trkpt lat="45.83086" lon="12.09418"><ele>143.0</ele><time>2026-05-01T12:55:13.187Z</time></trkpt><trkpt lat="45.8308367" lon="12.0939133"><ele>143.0</ele><time>2026-05-01T12:55:14.188Z</time></trkpt><trkpt lat="45.8308083" lon="12.0936417"><ele>140.66666666666666</ele><time>2026-05-01T12:55:15.185Z</time></trkpt><trkpt lat="45.830775" lon="12.0933733"><ele>138.33333333333334</ele><time>2026-05-01T12:55:16.186Z</time></trkpt><trkpt lat="45.8307433" lon="12.0931"><ele>136.0</ele><time>2026-05-01T12:55:17.184Z</time></trkpt><trkpt lat="45.830695" lon="12.092825"><ele>135.33333333333334</ele><time>2026-05-01T12:55:18.188Z</time></trkpt><trkpt lat="45.8306317" lon="12.0925467"><ele>134.66666666666666</ele><time>2026-05-01T12:55:19.186Z</time></trkpt><trkpt lat="45.830565" lon="12.092265"><ele>134.0</ele><time>2026-05-01T12:55:20.187Z</time></trkpt><trkpt lat="45.830495" lon="12.0919967"><ele>133.0</ele><time>2026-05-01T12:55:21.186Z</time></trkpt><trkpt lat="45.8304233" lon="12.0917483"><ele>132.0</ele><time>2026-05-01T12:55:22.185Z</time></trkpt><trkpt lat="45.8303533" lon="12.0915033"><ele>131.0</ele><time>2026-05-01T12:55:23.188Z</time></trkpt><trkpt lat="45.8303033" lon="12.0912433"><ele>130.0</ele><time>2026-05-01T12:55:24.186Z</time></trkpt><trkpt lat="45.8302683" lon="12.09097"><ele>129.0</ele><time>2026-05-01T12:55:25.188Z</time></trkpt><trkpt lat="45.8302417" lon="12.0906867"><ele>128.0</ele><time>2026-05-01T12:55:26.187Z</time></trkpt><trkpt lat="45.830225" lon="12.0904017"><ele>128.0</ele><time>2026-05-01T12:55:27.186Z</time></trkpt><trkpt lat="45.8302067" lon="12.09013"><ele>128.0</ele><time>2026-05-01T12:55:28.184Z</time></trkpt><trkpt lat="45.8301933" lon="12.0898683"><ele>128.0</ele><time>2026-05-01T12:55:29.184Z</time></trkpt><trkpt lat="45.8301733" lon="12.0896067"><ele>127.66666666666666</ele><time>2026-05-01T12:55:30.186Z</time></trkpt><trkpt lat="45.8301467" lon="12.0893383"><ele>127.33333333333334</ele><time>2026-05-01T12:55:31.183Z</time></trkpt><trkpt lat="45.830105" lon="12.0890633"><ele>127.0</ele><time>2026-05-01T12:55:32.188Z</time></trkpt><trkpt lat="45.8300517" lon="12.088795"><ele>128.66666666666669</ele><time>2026-05-01T12:55:33.187Z</time></trkpt><trkpt lat="45.8299983" lon="12.0885467"><ele>130.33333333333334</ele><time>2026-05-01T12:55:34.185Z</time></trkpt><trkpt lat="45.8299517" lon="12.0883083"><ele>132.0</ele><time>2026-05-01T12:55:35.187Z</time></trkpt><trkpt lat="45.8299067" lon="12.08808"><ele>132.0</ele><time>2026-05-01T12:55:36.184Z</time></trkpt><trkpt lat="45.8298633" lon="12.0878667"><ele>132.0</ele><time>2026-05-01T12:55:37.185Z</time></trkpt><trkpt lat="45.8298217" lon="12.087645"><ele>132.0</ele><time>2026-05-01T12:55:38.183Z</time></trkpt><trkpt lat="45.8297833" lon="12.0874183"><ele>131.0</ele><time>2026-05-01T12:55:39.186Z</time></trkpt><trkpt lat="45.8297483" lon="12.0871867"><ele>130.0</ele><time>2026-05-01T12:55:40.184Z</time></trkpt><trkpt lat="45.829715" lon="12.0869517"><ele>129.0</ele><time>2026-05-01T12:55:41.184Z</time></trkpt><trkpt lat="45.8296817" lon="12.0867133"><ele>129.0</ele><time>2026-05-01T12:55:42.183Z</time></trkpt><trkpt lat="45.8296533" lon="12.0864833"><ele>129.0</ele><time>2026-05-01T12:55:43.186Z</time></trkpt><trkpt lat="45.8296267" lon="12.0862683"><ele>129.0</ele><time>2026-05-01T12:55:44.185Z</time></trkpt><trkpt lat="45.8295983" lon="12.0860533"><ele>129.0</ele><time>2026-05-01T12:55:45.184Z</time></trkpt><trkpt lat="45.8295733" lon="12.0858317"><ele>129.0</ele><time>2026-05-01T12:55:46.185Z</time></trkpt><trkpt lat="45.82955" lon="12.085605"><ele>129.0</ele><time>2026-05-01T12:55:47.188Z</time></trkpt><trkpt lat="45.8295167" lon="12.0853767"><ele>128.33333333333334</ele><time>2026-05-01T12:55:48.185Z</time></trkpt><trkpt lat="45.8294817" lon="12.0851467"><ele>127.66666666666667</ele><time>2026-05-01T12:55:49.186Z</time></trkpt><trkpt lat="45.8294467" lon="12.084915"><ele>127.0</ele><time>2026-05-01T12:55:50.182Z</time></trkpt><trkpt lat="45.829415" lon="12.0846783"><ele>127.0</ele><time>2026-05-01T12:55:51.19Z</time></trkpt><trkpt lat="45.82939" lon="12.0844367"><ele>127.0</ele><time>2026-05-01T12:55:52.185Z</time></trkpt><trkpt lat="45.8293733" lon="12.08419"><ele>127.0</ele><time>2026-05-01T12:55:53.184Z</time></trkpt><trkpt lat="45.82936" lon="12.083945"><ele>127.0</ele><time>2026-05-01T12:55:54.185Z</time></trkpt><trkpt lat="45.8293567" lon="12.0837133"><ele>127.0</ele><time>2026-05-01T12:55:55.183Z</time></trkpt><trkpt lat="45.8293567" lon="12.0835"><ele>127.0</ele><time>2026-05-01T12:55:56.186Z</time></trkpt><trkpt lat="45.8293467" lon="12.0832933"><ele>126.75</ele><time>2026-05-01T12:55:57.185Z</time></trkpt><trkpt lat="45.8293367" lon="12.0830817"><ele>126.5</ele><time>2026-05-01T12:55:58.188Z</time></trkpt><trkpt lat="45.8293317" lon="12.0828683"><ele>126.25</ele><time>2026-05-01T12:55:59.185Z</time></trkpt><trkpt lat="45.8293267" lon="12.08265"><ele>126.0</ele><time>2026-05-01T12:56:00.183Z</time></trkpt><trkpt lat="45.8293217" lon="12.0824317"><ele>126.0</ele><time>2026-05-01T12:56:01.187Z</time></trkpt><trkpt lat="45.8293183" lon="12.0822267"><ele>126.0</ele><time>2026-05-01T12:56:02.185Z</time></trkpt><trkpt lat="45.8293167" lon="12.0820233"><ele>126.0</ele><time>2026-05-01T12:56:03.188Z</time></trkpt><trkpt lat="45.829315" lon="12.081815"><ele>126.0</ele><time>2026-05-01T12:56:04.184Z</time></trkpt><trkpt lat="45.8293133" lon="12.0816"><ele>125.33333333333334</ele><time>2026-05-01T12:56:05.185Z</time></trkpt><trkpt lat="45.82931" lon="12.0813767"><ele>124.66666666666667</ele><time>2026-05-01T12:56:06.184Z</time></trkpt><trkpt lat="45.8293033" lon="12.081155"><ele>124.0</ele><time>2026-05-01T12:56:07.188Z</time></trkpt><trkpt lat="45.8292967" lon="12.0809517"><ele>125.25</ele><time>2026-05-01T12:56:08.189Z</time></trkpt><trkpt lat="45.8292883" lon="12.080755"><ele>126.5</ele><time>2026-05-01T12:56:09.184Z</time></trkpt><trkpt lat="45.8292783" lon="12.08056"><ele>127.75</ele><time>2026-05-01T12:56:10.185Z</time></trkpt><trkpt lat="45.8292633" lon="12.0803583"><ele>129.0</ele><time>2026-05-01T12:56:11.183Z</time></trkpt><trkpt lat="45.829245" lon="12.0801533"><ele>129.0</ele><time>2026-05-01T12:56:12.186Z</time></trkpt><trkpt lat="45.8292117" lon="12.0799417"><ele>129.0</ele><time>2026-05-01T12:56:13.184Z</time></trkpt><trkpt lat="45.8291717" lon="12.0797267"><ele>129.0</ele><time>2026-05-01T12:56:14.185Z</time></trkpt><trkpt lat="45.8291283" lon="12.0795183"><ele>129.0</ele><time>2026-05-01T12:56:15.184Z</time></trkpt><trkpt lat="45.829085" lon="12.0793217"><ele>129.0</ele><time>2026-05-01T12:56:16.184Z</time></trkpt><trkpt lat="45.8290467" lon="12.07914"><ele>129.0</ele><time>2026-05-01T12:56:17.188Z</time></trkpt><trkpt lat="45.82901" lon="12.0789683"><ele>129.0</ele><time>2026-05-01T12:56:18.184Z</time></trkpt><trkpt lat="45.8289717" lon="12.0787917"><ele>128.5</ele><time>2026-05-01T12:56:19.185Z</time></trkpt><trkpt lat="45.8289283" lon="12.0786033"><ele>128.0</ele><time>2026-05-01T12:56:20.185Z</time></trkpt><trkpt lat="45.8288817" lon="12.0784"><ele>127.5</ele><time>2026-05-01T12:56:21.186Z</time></trkpt><trkpt lat="45.8288317" lon="12.0781867"><ele>127.0</ele><time>2026-05-01T12:56:22.187Z</time></trkpt><trkpt lat="45.828785" lon="12.0779783"><ele>127.0</ele><time>2026-05-01T12:56:23.185Z</time></trkpt><trkpt lat="45.8287417" lon="12.07778"><ele>127.0</ele><time>2026-05-01T12:56:24.186Z</time></trkpt><trkpt lat="45.8286967" lon="12.0775717"><ele>127.0</ele><time>2026-05-01T12:56:25.188Z</time></trkpt><trkpt lat="45.8286517" lon="12.0773617"><ele>127.0</ele><time>2026-05-01T12:56:26.187Z</time></trkpt><trkpt lat="45.8286033" lon="12.077145"><ele>127.0</ele><time>2026-05-01T12:56:27.188Z</time></trkpt><trkpt lat="45.8285583" lon="12.0769233"><ele>127.0</ele><time>2026-05-01T12:56:28.184Z</time></trkpt><trkpt lat="45.8285183" lon="12.0767083"><ele>127.0</ele><time>2026-05-01T12:56:29.185Z</time></trkpt><trkpt lat="45.8284833" lon="12.076505"><ele>127.0</ele><time>2026-05-01T12:56:30.184Z</time></trkpt><trkpt lat="45.8284433" lon="12.0762967"><ele>127.0</ele><time>2026-05-01T12:56:31.185Z</time></trkpt><trkpt lat="45.8284033" lon="12.0760833"><ele>128.66666666666669</ele><time>2026-05-01T12:56:32.184Z</time></trkpt><trkpt lat="45.8283617" lon="12.07586"><ele>130.33333333333334</ele><time>2026-05-01T12:56:33.185Z</time></trkpt><trkpt lat="45.8283183" lon="12.0756367"><ele>132.0</ele><time>2026-05-01T12:56:34.186Z</time></trkpt><trkpt lat="45.82828" lon="12.075425"><ele>132.0</ele><time>2026-05-01T12:56:35.183Z</time></trkpt><trkpt lat="45.828245" lon="12.0752267"><ele>132.0</ele><time>2026-05-01T12:56:36.19Z</time></trkpt><trkpt lat="45.82821" lon="12.0750317"><ele>132.0</ele><time>2026-05-01T12:56:37.184Z</time></trkpt><trkpt lat="45.8281717" lon="12.07483"><ele>132.0</ele><time>2026-05-01T12:56:38.184Z</time></trkpt><trkpt lat="45.8281283" lon="12.0746317"><ele>132.0</ele><time>2026-05-01T12:56:39.188Z</time></trkpt><trkpt lat="45.82808" lon="12.0744367"><ele>132.0</ele><time>2026-05-01T12:56:40.184Z</time></trkpt><trkpt lat="45.828035" lon="12.0742533"><ele>132.0</ele><time>2026-05-01T12:56:41.186Z</time></trkpt><trkpt lat="45.82799" lon="12.0740867"><ele>132.0</ele><time>2026-05-01T12:56:42.188Z</time></trkpt><trkpt lat="45.827955" lon="12.0739333"><ele>132.0</ele><time>2026-05-01T12:56:43.183Z</time></trkpt><trkpt lat="45.82792" lon="12.0737733"><ele>132.0</ele><time>2026-05-01T12:56:44.183Z</time></trkpt><trkpt lat="45.82788" lon="12.0736033"><ele>132.0</ele><time>2026-05-01T12:56:45.185Z</time></trkpt><trkpt lat="45.82784" lon="12.07343"><ele>132.0</ele><time>2026-05-01T12:56:46.184Z</time></trkpt><trkpt lat="45.8277933" lon="12.0732533"><ele>132.0</ele><time>2026-05-01T12:56:47.184Z</time></trkpt><trkpt lat="45.8277483" lon="12.0730717"><ele>132.0</ele><time>2026-05-01T12:56:48.185Z</time></trkpt><trkpt lat="45.8276983" lon="12.07289"><ele>132.0</ele><time>2026-05-01T12:56:49.184Z</time></trkpt><trkpt lat="45.8276467" lon="12.0727"><ele>132.0</ele><time>2026-05-01T12:56:50.185Z</time></trkpt><trkpt lat="45.8275967" lon="12.0725033"><ele>132.66666666666666</ele><time>2026-05-01T12:56:51.186Z</time></trkpt><trkpt lat="45.8275433" lon="12.0722983"><ele>133.33333333333331</ele><time>2026-05-01T12:56:52.185Z</time></trkpt><trkpt lat="45.8274867" lon="12.07209"><ele>134.0</ele><time>2026-05-01T12:56:53.19Z</time></trkpt><trkpt lat="45.8274317" lon="12.0718783"><ele>134.0</ele><time>2026-05-01T12:56:54.188Z</time></trkpt><trkpt lat="45.8273767" lon="12.0716683"><ele>134.0</ele><time>2026-05-01T12:56:55.184Z</time></trkpt><trkpt lat="45.8273217" lon="12.07147"><ele>134.0</ele><time>2026-05-01T12:56:56.186Z</time></trkpt><trkpt lat="45.8272633" lon="12.0712667"><ele>134.0</ele><time>2026-05-01T12:56:57.188Z</time></trkpt><trkpt lat="45.8271983" lon="12.0710733"><ele>134.0</ele><time>2026-05-01T12:56:58.186Z</time></trkpt><trkpt lat="45.8271333" lon="12.0708983"><ele>134.0</ele><time>2026-05-01T12:56:59.184Z</time></trkpt><trkpt lat="45.8270683" lon="12.0707283"><ele>134.0</ele><time>2026-05-01T12:57:00.185Z</time></trkpt><trkpt lat="45.827" lon="12.0705533"><ele>134.0</ele><time>2026-05-01T12:57:01.184Z</time></trkpt><trkpt lat="45.82693" lon="12.0703717"><ele>134.0</ele><time>2026-05-01T12:57:02.186Z</time></trkpt><trkpt lat="45.82686" lon="12.0701883"><ele>134.0</ele><time>2026-05-01T12:57:03.185Z</time></trkpt><trkpt lat="45.8267883" lon="12.0700033"><ele>134.0</ele><time>2026-05-01T12:57:04.184Z</time></trkpt><trkpt lat="45.8267217" lon="12.0698167"><ele>134.5</ele><time>2026-05-01T12:57:05.19Z</time></trkpt><trkpt lat="45.82666" lon="12.06964"><ele>135.0</ele><time>2026-05-01T12:57:06.185Z</time></trkpt><trkpt lat="45.826595" lon="12.0694717"><ele>135.5</ele><time>2026-05-01T12:57:07.183Z</time></trkpt><trkpt lat="45.8265317" lon="12.069295"><ele>136.0</ele><time>2026-05-01T12:57:08.184Z</time></trkpt><trkpt lat="45.8264767" lon="12.0691217"><ele>136.25</ele><time>2026-05-01T12:57:09.186Z</time></trkpt><trkpt lat="45.826435" lon="12.0689533"><ele>136.5</ele><time>2026-05-01T12:57:10.187Z</time></trkpt><trkpt lat="45.8264" lon="12.06879"><ele>136.75</ele><time>2026-05-01T12:57:11.185Z</time></trkpt><trkpt lat="45.82637" lon="12.0686317"><ele>137.0</ele><time>2026-05-01T12:57:12.186Z</time></trkpt><trkpt lat="45.8263417" lon="12.0684767"><ele>137.0</ele><time>2026-05-01T12:57:13.185Z</time></trkpt><trkpt lat="45.8263133" lon="12.0683333"><ele>137.0</ele><time>2026-05-01T12:57:14.184Z</time></trkpt><trkpt lat="45.8262867" lon="12.0682017"><ele>137.0</ele><time>2026-05-01T12:57:15.185Z</time></trkpt><trkpt lat="45.826265" lon="12.06808"><ele>137.0</ele><time>2026-05-01T12:57:16.185Z</time></trkpt><trkpt lat="45.8262467" lon="12.0679767"><ele>137.0</ele><time>2026-05-01T12:57:17.185Z</time></trkpt><trkpt lat="45.826225" lon="12.0678667"><ele>137.0</ele><time>2026-05-01T12:57:18.185Z</time></trkpt><trkpt lat="45.8261983" lon="12.0677533"><ele>137.0</ele><time>2026-05-01T12:57:19.183Z</time></trkpt><trkpt lat="45.8261717" lon="12.0676317"><ele>137.0</ele><time>2026-05-01T12:57:20.184Z</time></trkpt><trkpt lat="45.8261533" lon="12.0675083"><ele>137.0</ele><time>2026-05-01T12:57:21.187Z</time></trkpt><trkpt lat="45.826135" lon="12.0673883"><ele>137.0</ele><time>2026-05-01T12:57:22.185Z</time></trkpt><trkpt lat="45.82612" lon="12.06729"><ele>137.0</ele><time>2026-05-01T12:57:23.183Z</time></trkpt><trkpt lat="45.8261033" lon="12.06719"><ele>137.0</ele><time>2026-05-01T12:57:24.186Z</time></trkpt><trkpt lat="45.8260933" lon="12.0670833"><ele>137.0</ele><time>2026-05-01T12:57:25.186Z</time></trkpt><trkpt lat="45.8260933" lon="12.0669783"><ele>137.0</ele><time>2026-05-01T12:57:26.186Z</time></trkpt><trkpt lat="45.8260883" lon="12.0668167"><ele>137.0</ele><time>2026-05-01T12:57:28.182Z</time></trkpt><trkpt lat="45.8261167" lon="12.0666733"><ele>137.0</ele><time>2026-05-01T12:57:30.183Z</time></trkpt><trkpt lat="45.8261567" lon="12.066515"><ele>137.0</ele><time>2026-05-01T12:57:32.188Z</time></trkpt><trkpt lat="45.8261433" lon="12.0663483"><ele>137.0</ele><time>2026-05-01T12:57:34.183Z</time></trkpt><trkpt lat="45.8261283" lon="12.06616"><ele>137.0</ele><time>2026-05-01T12:57:36.183Z</time></trkpt><trkpt lat="45.82613" lon="12.066055"><ele>137.0</ele><time>2026-05-01T12:57:37.183Z</time></trkpt><trkpt lat="45.82613" lon="12.06595"><ele>137.0</ele><time>2026-05-01T12:57:38.183Z</time></trkpt><trkpt lat="45.8261433" lon="12.06585"><ele>137.0</ele><time>2026-05-01T12:57:39.185Z</time></trkpt><trkpt lat="45.8261583" lon="12.06575"><ele>137.0</ele><time>2026-05-01T12:57:40.184Z</time></trkpt><trkpt lat="45.8261733" lon="12.06564"><ele>136.4</ele><time>2026-05-01T12:57:41.188Z</time></trkpt><trkpt lat="45.8261883" lon="12.0655183"><ele>135.79999999999998</ele><time>2026-05-01T12:57:42.184Z</time></trkpt><trkpt lat="45.8262" lon="12.0653933"><ele>135.2</ele><time>2026-05-01T12:57:43.186Z</time></trkpt><trkpt lat="45.8262133" lon="12.06527"><ele>134.6</ele><time>2026-05-01T12:57:44.189Z</time></trkpt><trkpt lat="45.826225" lon="12.06514"><ele>134.0</ele><time>2026-05-01T12:57:45.184Z</time></trkpt><trkpt lat="45.8262383" lon="12.064995"><ele>133.8</ele><time>2026-05-01T12:57:46.183Z</time></trkpt><trkpt lat="45.8262583" lon="12.0648433"><ele>133.60000000000002</ele><time>2026-05-01T12:57:47.184Z</time></trkpt><trkpt lat="45.8262767" lon="12.0647017"><ele>133.4</ele><time>2026-05-01T12:57:48.186Z</time></trkpt><trkpt lat="45.82629" lon="12.0645633"><ele>133.20000000000002</ele><time>2026-05-01T12:57:49.185Z</time></trkpt><trkpt lat="45.8262967" lon="12.0644217"><ele>133.0</ele><time>2026-05-01T12:57:50.185Z</time></trkpt><trkpt lat="45.8262967" lon="12.064275"><ele>133.0</ele><time>2026-05-01T12:57:51.186Z</time></trkpt><trkpt lat="45.8262783" lon="12.0641183"><ele>133.0</ele><time>2026-05-01T12:57:52.187Z</time></trkpt><trkpt lat="45.8262583" lon="12.0639567"><ele>133.0</ele><time>2026-05-01T12:57:53.186Z</time></trkpt><trkpt lat="45.8262283" lon="12.0637967"><ele>133.0</ele><time>2026-05-01T12:57:54.186Z</time></trkpt><trkpt lat="45.8262033" lon="12.0636517"><ele>133.0</ele><time>2026-05-01T12:57:55.185Z</time></trkpt><trkpt lat="45.826185" lon="12.0635183"><ele>132.6</ele><time>2026-05-01T12:57:56.184Z</time></trkpt><trkpt lat="45.82617" lon="12.0633817"><ele>132.20000000000002</ele><time>2026-05-01T12:57:57.267Z</time></trkpt><trkpt lat="45.8261617" lon="12.0632283"><ele>131.8</ele><time>2026-05-01T12:57:58.186Z</time></trkpt><trkpt lat="45.826145" lon="12.0630633"><ele>131.4</ele><time>2026-05-01T12:57:59.187Z</time></trkpt><trkpt lat="45.8261317" lon="12.06289"><ele>131.0</ele><time>2026-05-01T12:58:00.187Z</time></trkpt><trkpt lat="45.8261183" lon="12.0627083"><ele>130.25</ele><time>2026-05-01T12:58:01.186Z</time></trkpt><trkpt lat="45.82611" lon="12.0625233"><ele>129.5</ele><time>2026-05-01T12:58:02.187Z</time></trkpt><trkpt lat="45.8260983" lon="12.06233"><ele>128.75</ele><time>2026-05-01T12:58:03.186Z</time></trkpt><trkpt lat="45.8260833" lon="12.0621283"><ele>128.0</ele><time>2026-05-01T12:58:04.183Z</time></trkpt><trkpt lat="45.8260683" lon="12.06191"><ele>127.66666666666666</ele><time>2026-05-01T12:58:05.184Z</time></trkpt><trkpt lat="45.82605" lon="12.06168"><ele>127.33333333333334</ele><time>2026-05-01T12:58:06.185Z</time></trkpt><trkpt lat="45.8260333" lon="12.0614333"><ele>127.0</ele><time>2026-05-01T12:58:07.187Z</time></trkpt><trkpt lat="45.8260133" lon="12.061185"><ele>127.0</ele><time>2026-05-01T12:58:08.184Z</time></trkpt><trkpt lat="45.825985" lon="12.0609433"><ele>127.0</ele><time>2026-05-01T12:58:09.185Z</time></trkpt><trkpt lat="45.8259633" lon="12.060715"><ele>127.0</ele><time>2026-05-01T12:58:10.185Z</time></trkpt><trkpt lat="45.8259417" lon="12.060505"><ele>128.75</ele><time>2026-05-01T12:58:11.188Z</time></trkpt><trkpt lat="45.82592" lon="12.0603067"><ele>130.5</ele><time>2026-05-01T12:58:12.186Z</time></trkpt><trkpt lat="45.825895" lon="12.0601067"><ele>132.25</ele><time>2026-05-01T12:58:13.185Z</time></trkpt><trkpt lat="45.8258683" lon="12.0599033"><ele>134.0</ele><time>2026-05-01T12:58:14.186Z</time></trkpt><trkpt lat="45.8258467" lon="12.0597017"><ele>134.0</ele><time>2026-05-01T12:58:15.185Z</time></trkpt><trkpt lat="45.825825" lon="12.059495"><ele>134.0</ele><time>2026-05-01T12:58:16.184Z</time></trkpt><trkpt lat="45.8257983" lon="12.0592883"><ele>134.0</ele><time>2026-05-01T12:58:17.188Z</time></trkpt><trkpt lat="45.8257783" lon="12.0590883"><ele>134.0</ele><time>2026-05-01T12:58:18.187Z</time></trkpt><trkpt lat="45.82576" lon="12.0588983"><ele>134.0</ele><time>2026-05-01T12:58:19.188Z</time></trkpt><trkpt lat="45.8257383" lon="12.0587167"><ele>134.0</ele><time>2026-05-01T12:58:20.189Z</time></trkpt><trkpt lat="45.8257217" lon="12.0585333"><ele>134.0</ele><time>2026-05-01T12:58:21.186Z</time></trkpt><trkpt lat="45.8257067" lon="12.0583533"><ele>134.0</ele><time>2026-05-01T12:58:22.185Z</time></trkpt><trkpt lat="45.8256917" lon="12.0581833"><ele>134.5</ele><time>2026-05-01T12:58:23.186Z</time></trkpt><trkpt lat="45.8256767" lon="12.0580183"><ele>135.0</ele><time>2026-05-01T12:58:24.185Z</time></trkpt><trkpt lat="45.8256667" lon="12.057855"><ele>135.5</ele><time>2026-05-01T12:58:25.189Z</time></trkpt><trkpt lat="45.8256617" lon="12.0576867"><ele>136.0</ele><time>2026-05-01T12:58:26.185Z</time></trkpt><trkpt lat="45.825655" lon="12.0575133"><ele>136.0</ele><time>2026-05-01T12:58:27.184Z</time></trkpt><trkpt lat="45.825645" lon="12.0573467"><ele>136.0</ele><time>2026-05-01T12:58:28.183Z</time></trkpt><trkpt lat="45.8256383" lon="12.0571967"><ele>136.0</ele><time>2026-05-01T12:58:29.184Z</time></trkpt><trkpt lat="45.825635" lon="12.057055"><ele>136.0</ele><time>2026-05-01T12:58:30.19Z</time></trkpt><trkpt lat="45.82563" lon="12.0569267"><ele>136.0</ele><time>2026-05-01T12:58:31.185Z</time></trkpt><trkpt lat="45.82562" lon="12.0568"><ele>136.0</ele><time>2026-05-01T12:58:32.186Z</time></trkpt><trkpt lat="45.8255967" lon="12.0566683"><ele>136.0</ele><time>2026-05-01T12:58:33.188Z</time></trkpt><trkpt lat="45.8255583" lon="12.05654"><ele>136.0</ele><time>2026-05-01T12:58:34.185Z</time></trkpt><trkpt lat="45.8255133" lon="12.0564267"><ele>136.0</ele><time>2026-05-01T12:58:35.183Z</time></trkpt><trkpt lat="45.8254717" lon="12.0563233"><ele>136.0</ele><time>2026-05-01T12:58:36.184Z</time></trkpt><trkpt lat="45.825435" lon="12.0562167"><ele>136.0</ele><time>2026-05-01T12:58:37.183Z</time></trkpt><trkpt lat="45.8254067" lon="12.0561067"><ele>136.0</ele><time>2026-05-01T12:58:38.186Z</time></trkpt><trkpt lat="45.825375" lon="12.055995"><ele>136.0</ele><time>2026-05-01T12:58:39.187Z</time></trkpt><trkpt lat="45.825355" lon="12.0558733"><ele>136.0</ele><time>2026-05-01T12:58:40.185Z</time></trkpt><trkpt lat="45.8253317" lon="12.0557467"><ele>136.0</ele><time>2026-05-01T12:58:41.185Z</time></trkpt><trkpt lat="45.8253133" lon="12.0556033"><ele>136.0</ele><time>2026-05-01T12:58:42.184Z</time></trkpt><trkpt lat="45.825305" lon="12.0554567"><ele>136.0</ele><time>2026-05-01T12:58:43.191Z</time></trkpt><trkpt lat="45.8253083" lon="12.0552883"><ele>136.0</ele><time>2026-05-01T12:58:44.188Z</time></trkpt><trkpt lat="45.8253183" lon="12.055115"><ele>136.0</ele><time>2026-05-01T12:58:45.187Z</time></trkpt><trkpt lat="45.8253283" lon="12.0549467"><ele>136.0</ele><time>2026-05-01T12:58:46.187Z</time></trkpt><trkpt lat="45.8253367" lon="12.0547733"><ele>136.5</ele><time>2026-05-01T12:58:47.184Z</time></trkpt><trkpt lat="45.825345" lon="12.05459"><ele>137.0</ele><time>2026-05-01T12:58:48.185Z</time></trkpt><trkpt lat="45.8253517" lon="12.054405"><ele>137.5</ele><time>2026-05-01T12:58:49.186Z</time></trkpt><trkpt lat="45.82536" lon="12.0542333"><ele>138.0</ele><time>2026-05-01T12:58:50.185Z</time></trkpt><trkpt lat="45.825365" lon="12.0540717"><ele>138.0</ele><time>2026-05-01T12:58:51.187Z</time></trkpt><trkpt lat="45.8253767" lon="12.0539117"><ele>138.0</ele><time>2026-05-01T12:58:52.185Z</time></trkpt><trkpt lat="45.8253833" lon="12.053745"><ele>138.0</ele><time>2026-05-01T12:58:53.185Z</time></trkpt><trkpt lat="45.8253867" lon="12.0535767"><ele>138.0</ele><time>2026-05-01T12:58:54.187Z</time></trkpt><trkpt lat="45.8253933" lon="12.0534067"><ele>138.25</ele><time>2026-05-01T12:58:55.185Z</time></trkpt><trkpt lat="45.8254" lon="12.0532267"><ele>138.5</ele><time>2026-05-01T12:58:56.183Z</time></trkpt><trkpt lat="45.82541" lon="12.05305"><ele>138.75</ele><time>2026-05-01T12:58:57.184Z</time></trkpt><trkpt lat="45.8254167" lon="12.0528717"><ele>139.0</ele><time>2026-05-01T12:58:58.187Z</time></trkpt><trkpt lat="45.825425" lon="12.0526883"><ele>139.0</ele><time>2026-05-01T12:58:59.185Z</time></trkpt><trkpt lat="45.825435" lon="12.0525167"><ele>139.0</ele><time>2026-05-01T12:59:00.186Z</time></trkpt><trkpt lat="45.825445" lon="12.0523633"><ele>139.0</ele><time>2026-05-01T12:59:01.184Z</time></trkpt><trkpt lat="45.8254517" lon="12.05221"><ele>139.0</ele><time>2026-05-01T12:59:02.183Z</time></trkpt><trkpt lat="45.8254617" lon="12.0520517"><ele>139.0</ele><time>2026-05-01T12:59:03.185Z</time></trkpt><trkpt lat="45.8254683" lon="12.0518917"><ele>139.2</ele><time>2026-05-01T12:59:04.189Z</time></trkpt><trkpt lat="45.825475" lon="12.0517417"><ele>139.4</ele><time>2026-05-01T12:59:05.187Z</time></trkpt><trkpt lat="45.8254833" lon="12.0515983"><ele>139.6</ele><time>2026-05-01T12:59:06.184Z</time></trkpt><trkpt lat="45.8254917" lon="12.051455"><ele>139.8</ele><time>2026-05-01T12:59:07.183Z</time></trkpt><trkpt lat="45.8255017" lon="12.051305"><ele>140.0</ele><time>2026-05-01T12:59:08.183Z</time></trkpt><trkpt lat="45.825515" lon="12.0511467"><ele>140.5</ele><time>2026-05-01T12:59:09.185Z</time></trkpt><trkpt lat="45.825525" lon="12.05098"><ele>141.0</ele><time>2026-05-01T12:59:10.191Z</time></trkpt><trkpt lat="45.82553" lon="12.050805"><ele>141.5</ele><time>2026-05-01T12:59:11.187Z</time></trkpt><trkpt lat="45.8255383" lon="12.0506233"><ele>142.0</ele><time>2026-05-01T12:59:12.187Z</time></trkpt><trkpt lat="45.825545" lon="12.0504283"><ele>142.25</ele><time>2026-05-01T12:59:13.185Z</time></trkpt><trkpt lat="45.825555" lon="12.0502217"><ele>142.5</ele><time>2026-05-01T12:59:14.185Z</time></trkpt><trkpt lat="45.8255667" lon="12.050005"><ele>142.75</ele><time>2026-05-01T12:59:15.184Z</time></trkpt><trkpt lat="45.8255783" lon="12.0497867"><ele>143.0</ele><time>2026-05-01T12:59:16.184Z</time></trkpt><trkpt lat="45.82559" lon="12.0495767"><ele>143.0</ele><time>2026-05-01T12:59:17.185Z</time></trkpt><trkpt lat="45.8256" lon="12.0493617"><ele>143.0</ele><time>2026-05-01T12:59:18.185Z</time></trkpt><trkpt lat="45.825605" lon="12.0491383"><ele>143.0</ele><time>2026-05-01T12:59:19.188Z</time></trkpt><trkpt lat="45.8256117" lon="12.0489117"><ele>143.0</ele><time>2026-05-01T12:59:20.188Z</time></trkpt><trkpt lat="45.8256217" lon="12.0486917"><ele>143.0</ele><time>2026-05-01T12:59:21.184Z</time></trkpt><trkpt lat="45.82563" lon="12.048485"><ele>143.0</ele><time>2026-05-01T12:59:22.19Z</time></trkpt><trkpt lat="45.82564" lon="12.0482883"><ele>143.0</ele><time>2026-05-01T12:59:23.185Z</time></trkpt><trkpt lat="45.8256483" lon="12.0480883"><ele>143.25</ele><time>2026-05-01T12:59:24.188Z</time></trkpt><trkpt lat="45.8256567" lon="12.0478833"><ele>143.5</ele><time>2026-05-01T12:59:25.185Z</time></trkpt><trkpt lat="45.8256667" lon="12.0476733"><ele>143.75</ele><time>2026-05-01T12:59:26.188Z</time></trkpt><trkpt lat="45.8256783" lon="12.04746"><ele>144.0</ele><time>2026-05-01T12:59:27.186Z</time></trkpt><trkpt lat="45.8256917" lon="12.0472417"><ele>144.25</ele><time>2026-05-01T12:59:28.183Z</time></trkpt><trkpt lat="45.8257033" lon="12.04702"><ele>144.5</ele><time>2026-05-01T12:59:29.184Z</time></trkpt><trkpt lat="45.825715" lon="12.04682"><ele>144.75</ele><time>2026-05-01T12:59:30.183Z</time></trkpt><trkpt lat="45.825725" lon="12.0466267"><ele>145.0</ele><time>2026-05-01T12:59:31.189Z</time></trkpt><trkpt lat="45.8257333" lon="12.0464283"><ele>145.0</ele><time>2026-05-01T12:59:32.186Z</time></trkpt><trkpt lat="45.8257433" lon="12.0462217"><ele>145.0</ele><time>2026-05-01T12:59:33.185Z</time></trkpt><trkpt lat="45.825755" lon="12.046015"><ele>145.0</ele><time>2026-05-01T12:59:34.185Z</time></trkpt><trkpt lat="45.8257683" lon="12.0458067"><ele>145.0</ele><time>2026-05-01T12:59:35.184Z</time></trkpt><trkpt lat="45.8257767" lon="12.045595"><ele>145.0</ele><time>2026-05-01T12:59:36.183Z</time></trkpt><trkpt lat="45.8257883" lon="12.0453817"><ele>145.0</ele><time>2026-05-01T12:59:37.184Z</time></trkpt><trkpt lat="45.8257933" lon="12.0451617"><ele>145.0</ele><time>2026-05-01T12:59:38.185Z</time></trkpt><trkpt lat="45.8257983" lon="12.0449433"><ele>145.0</ele><time>2026-05-01T12:59:39.187Z</time></trkpt><trkpt lat="45.8258" lon="12.044715"><ele>145.0</ele><time>2026-05-01T12:59:40.186Z</time></trkpt><trkpt lat="45.8257983" lon="12.044485"><ele>145.0</ele><time>2026-05-01T12:59:41.188Z</time></trkpt><trkpt lat="45.825795" lon="12.044245"><ele>145.0</ele><time>2026-05-01T12:59:42.186Z</time></trkpt><trkpt lat="45.8257933" lon="12.0439933"><ele>145.0</ele><time>2026-05-01T12:59:43.186Z</time></trkpt><trkpt lat="45.8257867" lon="12.0437333"><ele>145.0</ele><time>2026-05-01T12:59:44.186Z</time></trkpt><trkpt lat="45.8257817" lon="12.04349"><ele>144.66666666666669</ele><time>2026-05-01T12:59:45.185Z</time></trkpt><trkpt lat="45.8257767" lon="12.0432467"><ele>144.33333333333334</ele><time>2026-05-01T12:59:46.183Z</time></trkpt><trkpt lat="45.82577" lon="12.043"><ele>144.0</ele><time>2026-05-01T12:59:47.183Z</time></trkpt><trkpt lat="45.8257617" lon="12.0427467"><ele>144.0</ele><time>2026-05-01T12:59:48.186Z</time></trkpt><trkpt lat="45.8257467" lon="12.0424917"><ele>144.0</ele><time>2026-05-01T12:59:49.184Z</time></trkpt><trkpt lat="45.8257233" lon="12.042245"><ele>144.0</ele><time>2026-05-01T12:59:50.186Z</time></trkpt><trkpt lat="45.8256983" lon="12.0420183"><ele>144.0</ele><time>2026-05-01T12:59:51.187Z</time></trkpt><trkpt lat="45.8256717" lon="12.0417983"><ele>144.0</ele><time>2026-05-01T12:59:52.186Z</time></trkpt><trkpt lat="45.8256483" lon="12.0415917"><ele>144.0</ele><time>2026-05-01T12:59:53.184Z</time></trkpt><trkpt lat="45.8256267" lon="12.0413933"><ele>144.0</ele><time>2026-05-01T12:59:54.184Z</time></trkpt><trkpt lat="45.8256033" lon="12.0411933"><ele>144.0</ele><time>2026-05-01T12:59:55.187Z</time></trkpt><trkpt lat="45.82558" lon="12.04099"><ele>144.0</ele><time>2026-05-01T12:59:56.187Z</time></trkpt><trkpt lat="45.8255583" lon="12.0407833"><ele>144.0</ele><time>2026-05-01T12:59:57.189Z</time></trkpt><trkpt lat="45.8255367" lon="12.04057"><ele>144.0</ele><time>2026-05-01T12:59:58.183Z</time></trkpt><trkpt lat="45.825515" lon="12.040355"><ele>144.0</ele><time>2026-05-01T12:59:59.186Z</time></trkpt><trkpt lat="45.8254933" lon="12.0401367"><ele>144.0</ele><time>2026-05-01T13:00:00.184Z</time></trkpt><trkpt lat="45.8254683" lon="12.039915"><ele>144.0</ele><time>2026-05-01T13:00:01.188Z</time></trkpt><trkpt lat="45.8254433" lon="12.0396933"><ele>144.0</ele><time>2026-05-01T13:00:02.185Z</time></trkpt><trkpt lat="45.82542" lon="12.0394783"><ele>144.0</ele><time>2026-05-01T13:00:03.184Z</time></trkpt><trkpt lat="45.8253967" lon="12.0392733"><ele>144.0</ele><time>2026-05-01T13:00:04.184Z</time></trkpt><trkpt lat="45.8253733" lon="12.0390717"><ele>144.0</ele><time>2026-05-01T13:00:05.185Z</time></trkpt><trkpt lat="45.82535" lon="12.0388683"><ele>144.75</ele><time>2026-05-01T13:00:06.187Z</time></trkpt><trkpt lat="45.8253267" lon="12.03866"><ele>145.5</ele><time>2026-05-01T13:00:07.188Z</time></trkpt><trkpt lat="45.8253017" lon="12.0384483"><ele>146.25</ele><time>2026-05-01T13:00:08.187Z</time></trkpt><trkpt lat="45.8252767" lon="12.038235"><ele>147.0</ele><time>2026-05-01T13:00:09.187Z</time></trkpt><trkpt lat="45.825255" lon="12.0380317"><ele>147.0</ele><time>2026-05-01T13:00:10.186Z</time></trkpt><trkpt lat="45.825235" lon="12.0378483"><ele>147.0</ele><time>2026-05-01T13:00:11.185Z</time></trkpt><trkpt lat="45.8252167" lon="12.0376733"><ele>147.0</ele><time>2026-05-01T13:00:12.19Z</time></trkpt><trkpt lat="45.8251983" lon="12.0375133"><ele>147.0</ele><time>2026-05-01T13:00:13.186Z</time></trkpt><trkpt lat="45.8251783" lon="12.0373583"><ele>146.79999999999998</ele><time>2026-05-01T13:00:14.187Z</time></trkpt><trkpt lat="45.8251617" lon="12.0371933"><ele>146.6</ele><time>2026-05-01T13:00:15.186Z</time></trkpt><trkpt lat="45.8251433" lon="12.03703"><ele>146.39999999999998</ele><time>2026-05-01T13:00:16.185Z</time></trkpt><trkpt lat="45.825125" lon="12.036885"><ele>146.2</ele><time>2026-05-01T13:00:17.184Z</time></trkpt><trkpt lat="45.8251117" lon="12.03676"><ele>146.0</ele><time>2026-05-01T13:00:18.186Z</time></trkpt><trkpt lat="45.8251033" lon="12.036655"><ele>146.2</ele><time>2026-05-01T13:00:19.187Z</time></trkpt><trkpt lat="45.825095" lon="12.0365617"><ele>146.39999999999998</ele><time>2026-05-01T13:00:20.187Z</time></trkpt><trkpt lat="45.82509" lon="12.03647"><ele>146.6</ele><time>2026-05-01T13:00:21.185Z</time></trkpt><trkpt lat="45.8250933" lon="12.0362933"><ele>146.79999999999998</ele><time>2026-05-01T13:00:23.183Z</time></trkpt><trkpt lat="45.8250917" lon="12.03615"><ele>147.0</ele><time>2026-05-01T13:00:25.187Z</time></trkpt><trkpt lat="45.8250867" lon="12.03599"><ele>147.0</ele><time>2026-05-01T13:00:27.186Z</time></trkpt><trkpt lat="45.825145" lon="12.0358217"><ele>147.0</ele><time>2026-05-01T13:00:29.188Z</time></trkpt><trkpt lat="45.8252017" lon="12.03575"><ele>147.0</ele><time>2026-05-01T13:00:30.19Z</time></trkpt><trkpt lat="45.825275" lon="12.0356967"><ele>147.0</ele><time>2026-05-01T13:00:31.189Z</time></trkpt><trkpt lat="45.8253467" lon="12.03565"><ele>147.0</ele><time>2026-05-01T13:00:32.186Z</time></trkpt><trkpt lat="45.82542" lon="12.03561"><ele>147.0</ele><time>2026-05-01T13:00:33.184Z</time></trkpt><trkpt lat="45.8255067" lon="12.0355617"><ele>147.0</ele><time>2026-05-01T13:00:34.183Z</time></trkpt><trkpt lat="45.8256117" lon="12.0355033"><ele>147.0</ele><time>2026-05-01T13:00:35.187Z</time></trkpt><trkpt lat="45.8257317" lon="12.03544"><ele>147.0</ele><time>2026-05-01T13:00:36.184Z</time></trkpt><trkpt lat="45.82586" lon="12.03538"><ele>147.0</ele><time>2026-05-01T13:00:37.183Z</time></trkpt><trkpt lat="45.8259967" lon="12.03532"><ele>147.0</ele><time>2026-05-01T13:00:38.185Z</time></trkpt><trkpt lat="45.8261333" lon="12.035255"><ele>147.0</ele><time>2026-05-01T13:00:39.189Z</time></trkpt><trkpt lat="45.8262833" lon="12.0351883"><ele>147.0</ele><time>2026-05-01T13:00:40.185Z</time></trkpt><trkpt lat="45.8264417" lon="12.0351167"><ele>147.0</ele><time>2026-05-01T13:00:41.188Z</time></trkpt><trkpt lat="45.826605" lon="12.03505"><ele>147.0</ele><time>2026-05-01T13:00:42.184Z</time></trkpt><trkpt lat="45.826775" lon="12.034985"><ele>147.0</ele><time>2026-05-01T13:00:43.184Z</time></trkpt><trkpt lat="45.8269433" lon="12.0349333"><ele>147.33333333333334</ele><time>2026-05-01T13:00:44.185Z</time></trkpt><trkpt lat="45.8271117" lon="12.03488"><ele>147.66666666666669</ele><time>2026-05-01T13:00:45.183Z</time></trkpt><trkpt lat="45.8272833" lon="12.0348217"><ele>148.0</ele><time>2026-05-01T13:00:46.186Z</time></trkpt><trkpt lat="45.827455" lon="12.0347617"><ele>148.0</ele><time>2026-05-01T13:00:47.186Z</time></trkpt><trkpt lat="45.82763" lon="12.0347067"><ele>148.0</ele><time>2026-05-01T13:00:48.187Z</time></trkpt><trkpt lat="45.827795" lon="12.0346533"><ele>148.0</ele><time>2026-05-01T13:00:49.185Z</time></trkpt><trkpt lat="45.827955" lon="12.0346083"><ele>148.0</ele><time>2026-05-01T13:00:50.183Z</time></trkpt><trkpt lat="45.8281067" lon="12.0345633"><ele>148.0</ele><time>2026-05-01T13:00:51.188Z</time></trkpt><trkpt lat="45.82826" lon="12.0345167"><ele>148.0</ele><time>2026-05-01T13:00:52.186Z</time></trkpt><trkpt lat="45.8284133" lon="12.03447"><ele>148.25</ele><time>2026-05-01T13:00:53.185Z</time></trkpt><trkpt lat="45.8285667" lon="12.0344217"><ele>148.5</ele><time>2026-05-01T13:00:54.184Z</time></trkpt><trkpt lat="45.8287167" lon="12.0343817"><ele>148.75</ele><time>2026-05-01T13:00:55.183Z</time></trkpt><trkpt lat="45.8288517" lon="12.03434"><ele>149.0</ele><time>2026-05-01T13:00:56.184Z</time></trkpt><trkpt lat="45.8289883" lon="12.0343"><ele>149.0</ele><time>2026-05-01T13:00:57.187Z</time></trkpt><trkpt lat="45.8291317" lon="12.0342567"><ele>149.0</ele><time>2026-05-01T13:00:58.185Z</time></trkpt><trkpt lat="45.8292717" lon="12.0341983"><ele>149.0</ele><time>2026-05-01T13:00:59.189Z</time></trkpt><trkpt lat="45.829415" lon="12.03413"><ele>149.0</ele><time>2026-05-01T13:01:00.191Z</time></trkpt><trkpt lat="45.82956" lon="12.0340517"><ele>149.25</ele><time>2026-05-01T13:01:01.188Z</time></trkpt><trkpt lat="45.8297033" lon="12.0339717"><ele>149.5</ele><time>2026-05-01T13:01:02.186Z</time></trkpt><trkpt lat="45.8298383" lon="12.0338933"><ele>149.75</ele><time>2026-05-01T13:01:03.184Z</time></trkpt><trkpt lat="45.82996" lon="12.0338217"><ele>150.0</ele><time>2026-05-01T13:01:04.184Z</time></trkpt><trkpt lat="45.8300767" lon="12.0337517"><ele>150.0</ele><time>2026-05-01T13:01:05.186Z</time></trkpt><trkpt lat="45.8301983" lon="12.0336833"><ele>150.0</ele><time>2026-05-01T13:01:06.186Z</time></trkpt><trkpt lat="45.8303233" lon="12.033615"><ele>150.0</ele><time>2026-05-01T13:01:07.187Z</time></trkpt><trkpt lat="45.8304417" lon="12.0335467"><ele>150.0</ele><time>2026-05-01T13:01:08.186Z</time></trkpt><trkpt lat="45.8305567" lon="12.033475"><ele>150.0</ele><time>2026-05-01T13:01:09.184Z</time></trkpt><trkpt lat="45.8306717" lon="12.0334033"><ele>150.0</ele><time>2026-05-01T13:01:10.186Z</time></trkpt><trkpt lat="45.8307883" lon="12.0333283"><ele>150.0</ele><time>2026-05-01T13:01:11.184Z</time></trkpt><trkpt lat="45.83091" lon="12.0332583"><ele>150.0</ele><time>2026-05-01T13:01:12.186Z</time></trkpt><trkpt lat="45.831025" lon="12.0331883"><ele>150.2</ele><time>2026-05-01T13:01:13.184Z</time></trkpt><trkpt lat="45.8311333" lon="12.033125"><ele>150.4</ele><time>2026-05-01T13:01:14.184Z</time></trkpt><trkpt lat="45.831235" lon="12.033065"><ele>150.6</ele><time>2026-05-01T13:01:15.186Z</time></trkpt><trkpt lat="45.831335" lon="12.03301"><ele>150.8</ele><time>2026-05-01T13:01:16.186Z</time></trkpt><trkpt lat="45.83143" lon="12.032955"><ele>151.0</ele><time>2026-05-01T13:01:17.183Z</time></trkpt><trkpt lat="45.8315217" lon="12.032905"><ele>151.0</ele><time>2026-05-01T13:01:18.184Z</time></trkpt><trkpt lat="45.83161" lon="12.0328533"><ele>151.0</ele><time>2026-05-01T13:01:19.186Z</time></trkpt><trkpt lat="45.8317083" lon="12.0328033"><ele>151.0</ele><time>2026-05-01T13:01:20.186Z</time></trkpt><trkpt lat="45.8318133" lon="12.032745"><ele>151.0</ele><time>2026-05-01T13:01:21.185Z</time></trkpt><trkpt lat="45.8319267" lon="12.03269"><ele>151.0</ele><time>2026-05-01T13:01:22.188Z</time></trkpt><trkpt lat="45.8320467" lon="12.0326333"><ele>151.0</ele><time>2026-05-01T13:01:23.187Z</time></trkpt><trkpt lat="45.832175" lon="12.0325817"><ele>151.0</ele><time>2026-05-01T13:01:24.188Z</time></trkpt><trkpt lat="45.8323067" lon="12.0325333"><ele>151.0</ele><time>2026-05-01T13:01:25.184Z</time></trkpt><trkpt lat="45.8324317" lon="12.032485"><ele>151.0</ele><time>2026-05-01T13:01:26.186Z</time></trkpt><trkpt lat="45.83255" lon="12.03244"><ele>151.75</ele><time>2026-05-01T13:01:27.186Z</time></trkpt><trkpt lat="45.832665" lon="12.03239"><ele>152.5</ele><time>2026-05-01T13:01:28.183Z</time></trkpt><trkpt lat="45.832785" lon="12.03234"><ele>153.25</ele><time>2026-05-01T13:01:29.185Z</time></trkpt><trkpt lat="45.8329083" lon="12.0322917"><ele>154.0</ele><time>2026-05-01T13:01:30.191Z</time></trkpt><trkpt lat="45.83303" lon="12.03226"><ele>154.0</ele><time>2026-05-01T13:01:31.187Z</time></trkpt><trkpt lat="45.8331383" lon="12.0322167"><ele>154.0</ele><time>2026-05-01T13:01:32.187Z</time></trkpt><trkpt lat="45.8332533" lon="12.0321767"><ele>154.0</ele><time>2026-05-01T13:01:33.188Z</time></trkpt><trkpt lat="45.8333683" lon="12.0321417"><ele>154.0</ele><time>2026-05-01T13:01:34.188Z</time></trkpt><trkpt lat="45.8334767" lon="12.032115"><ele>153.66666666666669</ele><time>2026-05-01T13:01:35.183Z</time></trkpt><trkpt lat="45.833575" lon="12.0320817"><ele>153.33333333333334</ele><time>2026-05-01T13:01:36.187Z</time></trkpt><trkpt lat="45.833665" lon="12.0320533"><ele>153.0</ele><time>2026-05-01T13:01:37.189Z</time></trkpt><trkpt lat="45.8337367" lon="12.03203"><ele>152.66666666666666</ele><time>2026-05-01T13:01:38.188Z</time></trkpt><trkpt lat="45.8338367" lon="12.031985"><ele>152.33333333333331</ele><time>2026-05-01T13:01:40.187Z</time></trkpt><trkpt lat="45.833905" lon="12.03196"><ele>152.0</ele><time>2026-05-01T13:01:42.185Z</time></trkpt><trkpt lat="45.8339217" lon="12.0318417"><ele>152.0</ele><time>2026-05-01T13:01:44.184Z</time></trkpt><trkpt lat="45.833895" lon="12.0316867"><ele>152.0</ele><time>2026-05-01T13:01:46.185Z</time></trkpt><trkpt lat="45.833875" lon="12.031595"><ele>152.0</ele><time>2026-05-01T13:01:47.184Z</time></trkpt><trkpt lat="45.8338567" lon="12.0315"><ele>152.0</ele><time>2026-05-01T13:01:48.185Z</time></trkpt><trkpt lat="45.8338367" lon="12.0313867"><ele>152.0</ele><time>2026-05-01T13:01:49.185Z</time></trkpt><trkpt lat="45.833825" lon="12.0312683"><ele>152.0</ele><time>2026-05-01T13:01:50.187Z</time></trkpt><trkpt lat="45.8338183" lon="12.0311467"><ele>152.0</ele><time>2026-05-01T13:01:51.186Z</time></trkpt><trkpt lat="45.8338183" lon="12.0310117"><ele>152.0</ele><time>2026-05-01T13:01:52.184Z</time></trkpt><trkpt lat="45.83382" lon="12.030855"><ele>152.0</ele><time>2026-05-01T13:01:53.184Z</time></trkpt><trkpt lat="45.83384" lon="12.030675"><ele>152.0</ele><time>2026-05-01T13:01:54.185Z</time></trkpt><trkpt lat="45.8338767" lon="12.0304917"><ele>152.0</ele><time>2026-05-01T13:01:55.184Z</time></trkpt><trkpt lat="45.833905" lon="12.0303083"><ele>152.0</ele><time>2026-05-01T13:01:56.191Z</time></trkpt><trkpt lat="45.8339367" lon="12.0301217"><ele>152.0</ele><time>2026-05-01T13:01:57.186Z</time></trkpt><trkpt lat="45.8339683" lon="12.0299217"><ele>152.0</ele><time>2026-05-01T13:01:58.187Z</time></trkpt><trkpt lat="45.8340067" lon="12.0297167"><ele>152.0</ele><time>2026-05-01T13:01:59.185Z</time></trkpt><trkpt lat="45.8340417" lon="12.0295017"><ele>152.0</ele><time>2026-05-01T13:02:00.185Z</time></trkpt><trkpt lat="45.83408" lon="12.0292833"><ele>152.0</ele><time>2026-05-01T13:02:01.184Z</time></trkpt><trkpt lat="45.8341183" lon="12.0290733"><ele>152.0</ele><time>2026-05-01T13:02:02.186Z</time></trkpt><trkpt lat="45.834155" lon="12.0288583"><ele>152.0</ele><time>2026-05-01T13:02:03.19Z</time></trkpt><trkpt lat="45.8341867" lon="12.02864"><ele>152.0</ele><time>2026-05-01T13:02:04.186Z</time></trkpt><trkpt lat="45.8342217" lon="12.0284333"><ele>152.5</ele><time>2026-05-01T13:02:05.185Z</time></trkpt><trkpt lat="45.8342533" lon="12.0282417"><ele>153.0</ele><time>2026-05-01T13:02:06.184Z</time></trkpt><trkpt lat="45.8342867" lon="12.0280633"><ele>153.5</ele><time>2026-05-01T13:02:07.184Z</time></trkpt><trkpt lat="45.8343117" lon="12.02791"><ele>154.0</ele><time>2026-05-01T13:02:08.184Z</time></trkpt><trkpt lat="45.8343383" lon="12.0277783"><ele>154.0</ele><time>2026-05-01T13:02:09.184Z</time></trkpt><trkpt lat="45.8343617" lon="12.0276467"><ele>154.0</ele><time>2026-05-01T13:02:10.189Z</time></trkpt><trkpt lat="45.8343867" lon="12.0275117"><ele>154.0</ele><time>2026-05-01T13:02:11.187Z</time></trkpt><trkpt lat="45.83441" lon="12.0273717"><ele>154.0</ele><time>2026-05-01T13:02:12.184Z</time></trkpt><trkpt lat="45.8344333" lon="12.0272267"><ele>154.0</ele><time>2026-05-01T13:02:13.184Z</time></trkpt><trkpt lat="45.83446" lon="12.0270717"><ele>154.0</ele><time>2026-05-01T13:02:14.187Z</time></trkpt><trkpt lat="45.834485" lon="12.0269"><ele>154.0</ele><time>2026-05-01T13:02:15.185Z</time></trkpt><trkpt lat="45.8345167" lon="12.02672"><ele>154.0</ele><time>2026-05-01T13:02:16.185Z</time></trkpt><trkpt lat="45.8345533" lon="12.0265283"><ele>154.0</ele><time>2026-05-01T13:02:17.185Z</time></trkpt><trkpt lat="45.83459" lon="12.0263183"><ele>153.66666666666669</ele><time>2026-05-01T13:02:18.185Z</time></trkpt><trkpt lat="45.834635" lon="12.0261067"><ele>153.33333333333334</ele><time>2026-05-01T13:02:19.185Z</time></trkpt><trkpt lat="45.8346733" lon="12.0258883"><ele>153.0</ele><time>2026-05-01T13:02:20.184Z</time></trkpt><trkpt lat="45.834715" lon="12.0256733"><ele>153.0</ele><time>2026-05-01T13:02:21.184Z</time></trkpt><trkpt lat="45.834755" lon="12.02546"><ele>153.0</ele><time>2026-05-01T13:02:22.185Z</time></trkpt><trkpt lat="45.8348" lon="12.025245"><ele>153.0</ele><time>2026-05-01T13:02:23.185Z</time></trkpt><trkpt lat="45.83484" lon="12.0250317"><ele>153.0</ele><time>2026-05-01T13:02:24.184Z</time></trkpt><trkpt lat="45.834875" lon="12.0248267"><ele>153.0</ele><time>2026-05-01T13:02:25.185Z</time></trkpt><trkpt lat="45.83491" lon="12.0246283"><ele>153.0</ele><time>2026-05-01T13:02:26.187Z</time></trkpt><trkpt lat="45.834945" lon="12.0244267"><ele>153.0</ele><time>2026-05-01T13:02:27.186Z</time></trkpt><trkpt lat="45.83496" lon="12.0242167"><ele>153.33333333333334</ele><time>2026-05-01T13:02:28.184Z</time></trkpt><trkpt lat="45.8349583" lon="12.0240067"><ele>153.66666666666669</ele><time>2026-05-01T13:02:29.186Z</time></trkpt><trkpt lat="45.8349433" lon="12.0237883"><ele>154.0</ele><time>2026-05-01T13:02:30.184Z</time></trkpt><trkpt lat="45.8349083" lon="12.0235667"><ele>154.0</ele><time>2026-05-01T13:02:31.187Z</time></trkpt><trkpt lat="45.834855" lon="12.0233433"><ele>154.0</ele><time>2026-05-01T13:02:32.187Z</time></trkpt><trkpt lat="45.8347917" lon="12.0231117"><ele>154.0</ele><time>2026-05-01T13:02:33.186Z</time></trkpt><trkpt lat="45.8347233" lon="12.0228817"><ele>154.0</ele><time>2026-05-01T13:02:34.184Z</time></trkpt><trkpt lat="45.8346583" lon="12.02266"><ele>154.0</ele><time>2026-05-01T13:02:35.184Z</time></trkpt><trkpt lat="45.8345983" lon="12.0224467"><ele>154.0</ele><time>2026-05-01T13:02:36.187Z</time></trkpt><trkpt lat="45.8345383" lon="12.0222383"><ele>154.0</ele><time>2026-05-01T13:02:37.185Z</time></trkpt><trkpt lat="45.8344767" lon="12.022025"><ele>154.0</ele><time>2026-05-01T13:02:38.184Z</time></trkpt><trkpt lat="45.8344183" lon="12.0218083"><ele>154.0</ele><time>2026-05-01T13:02:39.189Z</time></trkpt><trkpt lat="45.8343733" lon="12.0215833"><ele>154.0</ele><time>2026-05-01T13:02:40.188Z</time></trkpt><trkpt lat="45.8343367" lon="12.0213617"><ele>154.0</ele><time>2026-05-01T13:02:41.184Z</time></trkpt><trkpt lat="45.8343033" lon="12.0211533"><ele>154.0</ele><time>2026-05-01T13:02:42.184Z</time></trkpt><trkpt lat="45.8342817" lon="12.0209617"><ele>154.0</ele><time>2026-05-01T13:02:43.185Z</time></trkpt><trkpt lat="45.8342633" lon="12.0207917"><ele>154.2</ele><time>2026-05-01T13:02:44.185Z</time></trkpt><trkpt lat="45.8342517" lon="12.0206483"><ele>154.4</ele><time>2026-05-01T13:02:45.187Z</time></trkpt><trkpt lat="45.8342383" lon="12.020535"><ele>154.6</ele><time>2026-05-01T13:02:46.186Z</time></trkpt><trkpt lat="45.8342" lon="12.0203933"><ele>154.8</ele><time>2026-05-01T13:02:48.188Z</time></trkpt><trkpt lat="45.8340933" lon="12.020365"><ele>155.0</ele><time>2026-05-01T13:02:50.184Z</time></trkpt><trkpt lat="45.8340117" lon="12.020385"><ele>155.0</ele><time>2026-05-01T13:02:51.187Z</time></trkpt><trkpt lat="45.8339133" lon="12.0204317"><ele>155.0</ele><time>2026-05-01T13:02:52.184Z</time></trkpt><trkpt lat="45.8337917" lon="12.0204717"><ele>155.0</ele><time>2026-05-01T13:02:53.185Z</time></trkpt><trkpt lat="45.8336667" lon="12.0205083"><ele>155.0</ele><time>2026-05-01T13:02:54.183Z</time></trkpt><trkpt lat="45.8335383" lon="12.0205417"><ele>154.8</ele><time>2026-05-01T13:02:55.184Z</time></trkpt><trkpt lat="45.83342" lon="12.0205633"><ele>154.6</ele><time>2026-05-01T13:02:56.183Z</time></trkpt><trkpt lat="45.8333133" lon="12.0205567"><ele>154.4</ele><time>2026-05-01T13:02:57.186Z</time></trkpt><trkpt lat="45.8332133" lon="12.020515"><ele>154.2</ele><time>2026-05-01T13:02:58.183Z</time></trkpt><trkpt lat="45.83312" lon="12.02044"><ele>154.0</ele><time>2026-05-01T13:02:59.184Z</time></trkpt><trkpt lat="45.8330483" lon="12.0203217"><ele>154.0</ele><time>2026-05-01T13:03:00.187Z</time></trkpt><trkpt lat="45.8329967" lon="12.0201717"><ele>154.0</ele><time>2026-05-01T13:03:01.189Z</time></trkpt><trkpt lat="45.83297" lon="12.02001"><ele>154.0</ele><time>2026-05-01T13:03:02.188Z</time></trkpt><trkpt lat="45.83297" lon="12.0198433"><ele>154.0</ele><time>2026-05-01T13:03:03.184Z</time></trkpt><trkpt lat="45.833015" lon="12.0196883"><ele>154.25</ele><time>2026-05-01T13:03:04.185Z</time></trkpt><trkpt lat="45.8330867" lon="12.0195533"><ele>154.5</ele><time>2026-05-01T13:03:05.19Z</time></trkpt><trkpt lat="45.8331717" lon="12.0194267"><ele>154.75</ele><time>2026-05-01T13:03:06.185Z</time></trkpt><trkpt lat="45.8332783" lon="12.0193333"><ele>155.0</ele><time>2026-05-01T13:03:07.185Z</time></trkpt><trkpt lat="45.8333983" lon="12.0192717"><ele>155.25</ele><time>2026-05-01T13:03:08.185Z</time></trkpt><trkpt lat="45.8335283" lon="12.0192283"><ele>155.5</ele><time>2026-05-01T13:03:09.186Z</time></trkpt><trkpt lat="45.8336583" lon="12.0191767"><ele>155.75</ele><time>2026-05-01T13:03:10.186Z</time></trkpt><trkpt lat="45.8337967" lon="12.0190933"><ele>156.0</ele><time>2026-05-01T13:03:11.184Z</time></trkpt><trkpt lat="45.8339517" lon="12.0190033"><ele>156.0</ele><time>2026-05-01T13:03:12.186Z</time></trkpt><trkpt lat="45.8341367" lon="12.018915"><ele>156.0</ele><time>2026-05-01T13:03:13.187Z</time></trkpt><trkpt lat="45.834345" lon="12.0188333"><ele>156.0</ele><time>2026-05-01T13:03:14.185Z</time></trkpt><trkpt lat="45.8345633" lon="12.0187333"><ele>156.5</ele><time>2026-05-01T13:03:15.185Z</time></trkpt><trkpt lat="45.8348" lon="12.0186133"><ele>157.0</ele><time>2026-05-01T13:03:16.187Z</time></trkpt><trkpt lat="45.8350533" lon="12.0184633"><ele>157.0</ele><time>2026-05-01T13:03:17.185Z</time></trkpt><trkpt lat="45.8353217" lon="12.018345"><ele>157.0</ele><time>2026-05-01T13:03:18.184Z</time></trkpt><trkpt lat="45.8355817" lon="12.018235"><ele>156.5</ele><time>2026-05-01T13:03:19.186Z</time></trkpt><trkpt lat="45.8358267" lon="12.018125"><ele>156.0</ele><time>2026-05-01T13:03:20.186Z</time></trkpt><trkpt lat="45.8360583" lon="12.018015"><ele>156.66666666666666</ele><time>2026-05-01T13:03:21.187Z</time></trkpt><trkpt lat="45.83627" lon="12.017905"><ele>157.33333333333331</ele><time>2026-05-01T13:03:22.187Z</time></trkpt><trkpt lat="45.8364717" lon="12.0177917"><ele>158.0</ele><time>2026-05-01T13:03:23.186Z</time></trkpt><trkpt lat="45.8366583" lon="12.0176767"><ele>158.0</ele><time>2026-05-01T13:03:24.189Z</time></trkpt><trkpt lat="45.8368417" lon="12.01756"><ele>158.0</ele><time>2026-05-01T13:03:25.19Z</time></trkpt><trkpt lat="45.83703" lon="12.017435"><ele>158.0</ele><time>2026-05-01T13:03:26.188Z</time></trkpt><trkpt lat="45.8372183" lon="12.01731"><ele>158.0</ele><time>2026-05-01T13:03:27.185Z</time></trkpt><trkpt lat="45.83741" lon="12.0171783"><ele>158.0</ele><time>2026-05-01T13:03:28.193Z</time></trkpt><trkpt lat="45.8375967" lon="12.0170533"><ele>158.0</ele><time>2026-05-01T13:03:29.184Z</time></trkpt><trkpt lat="45.8377733" lon="12.0169333"><ele>158.66666666666666</ele><time>2026-05-01T13:03:30.186Z</time></trkpt><trkpt lat="45.8379467" lon="12.01682"><ele>159.33333333333334</ele><time>2026-05-01T13:03:31.186Z</time></trkpt><trkpt lat="45.8381217" lon="12.0167033"><ele>160.0</ele><time>2026-05-01T13:03:32.187Z</time></trkpt><trkpt lat="45.8382933" lon="12.0165733"><ele>160.0</ele><time>2026-05-01T13:03:33.186Z</time></trkpt><trkpt lat="45.838465" lon="12.0164483"><ele>160.0</ele><time>2026-05-01T13:03:34.186Z</time></trkpt><trkpt lat="45.8386317" lon="12.0163317"><ele>160.0</ele><time>2026-05-01T13:03:35.184Z</time></trkpt><trkpt lat="45.8387967" lon="12.0162283"><ele>159.66666666666669</ele><time>2026-05-01T13:03:36.188Z</time></trkpt><trkpt lat="45.8389567" lon="12.01612"><ele>159.33333333333334</ele><time>2026-05-01T13:03:37.189Z</time></trkpt><trkpt lat="45.8391167" lon="12.016005"><ele>159.0</ele><time>2026-05-01T13:03:38.187Z</time></trkpt><trkpt lat="45.8392833" lon="12.01589"><ele>159.66666666666666</ele><time>2026-05-01T13:03:39.187Z</time></trkpt><trkpt lat="45.83945" lon="12.0157733"><ele>160.33333333333331</ele><time>2026-05-01T13:03:40.187Z</time></trkpt><trkpt lat="45.8396133" lon="12.0156583"><ele>161.0</ele><time>2026-05-01T13:03:41.186Z</time></trkpt><trkpt lat="45.839765" lon="12.01555"><ele>161.0</ele><time>2026-05-01T13:03:42.185Z</time></trkpt><trkpt lat="45.8399117" lon="12.0154467"><ele>161.0</ele><time>2026-05-01T13:03:43.187Z</time></trkpt><trkpt lat="45.84006" lon="12.0153417"><ele>161.0</ele><time>2026-05-01T13:03:44.187Z</time></trkpt><trkpt lat="45.8402117" lon="12.015235"><ele>161.0</ele><time>2026-05-01T13:03:45.188Z</time></trkpt><trkpt lat="45.8403633" lon="12.0151317"><ele>161.0</ele><time>2026-05-01T13:03:46.185Z</time></trkpt><trkpt lat="45.84051" lon="12.01503"><ele>161.0</ele><time>2026-05-01T13:03:47.188Z</time></trkpt><trkpt lat="45.8406467" lon="12.0149333"><ele>161.0</ele><time>2026-05-01T13:03:48.186Z</time></trkpt><trkpt lat="45.840775" lon="12.0148433"><ele>161.0</ele><time>2026-05-01T13:03:49.189Z</time></trkpt><trkpt lat="45.8409033" lon="12.0147567"><ele>161.0</ele><time>2026-05-01T13:03:50.185Z</time></trkpt><trkpt lat="45.8410317" lon="12.0146717"><ele>161.0</ele><time>2026-05-01T13:03:51.185Z</time></trkpt><trkpt lat="45.8411633" lon="12.01458"><ele>161.0</ele><time>2026-05-01T13:03:52.189Z</time></trkpt><trkpt lat="45.8412967" lon="12.0144883"><ele>161.0</ele><time>2026-05-01T13:03:53.189Z</time></trkpt><trkpt lat="45.8414417" lon="12.0143933"><ele>161.0</ele><time>2026-05-01T13:03:54.187Z</time></trkpt><trkpt lat="45.8415983" lon="12.0142917"><ele>161.0</ele><time>2026-05-01T13:03:55.186Z</time></trkpt><trkpt lat="45.841765" lon="12.0141867"><ele>161.0</ele><time>2026-05-01T13:03:56.187Z</time></trkpt><trkpt lat="45.84195" lon="12.0140667"><ele>161.0</ele><time>2026-05-01T13:03:57.187Z</time></trkpt><trkpt lat="45.8421467" lon="12.01395"><ele>160.33333333333331</ele><time>2026-05-01T13:03:58.187Z</time></trkpt><trkpt lat="45.8423483" lon="12.013835"><ele>159.66666666666666</ele><time>2026-05-01T13:03:59.188Z</time></trkpt><trkpt lat="45.8425583" lon="12.01372"><ele>159.0</ele><time>2026-05-01T13:04:00.187Z</time></trkpt><trkpt lat="45.8427717" lon="12.0136083"><ele>159.0</ele><time>2026-05-01T13:04:01.188Z</time></trkpt><trkpt lat="45.8429967" lon="12.0135017"><ele>159.0</ele><time>2026-05-01T13:04:02.189Z</time></trkpt><trkpt lat="45.8432233" lon="12.0134067"><ele>158.5</ele><time>2026-05-01T13:04:03.187Z</time></trkpt><trkpt lat="45.843445" lon="12.0133083"><ele>158.0</ele><time>2026-05-01T13:04:04.187Z</time></trkpt><trkpt lat="45.84367" lon="12.0132167"><ele>159.5</ele><time>2026-05-01T13:04:05.189Z</time></trkpt><trkpt lat="45.8438967" lon="12.0131283"><ele>161.0</ele><time>2026-05-01T13:04:06.187Z</time></trkpt><trkpt lat="45.8441233" lon="12.013035"><ele>160.5</ele><time>2026-05-01T13:04:07.185Z</time></trkpt><trkpt lat="45.84435" lon="12.0129417"><ele>160.0</ele><time>2026-05-01T13:04:08.185Z</time></trkpt><trkpt lat="45.8445767" lon="12.01285"><ele>160.0</ele><time>2026-05-01T13:04:09.186Z</time></trkpt><trkpt lat="45.844805" lon="12.012755"><ele>160.0</ele><time>2026-05-01T13:04:10.186Z</time></trkpt><trkpt lat="45.8450333" lon="12.0126567"><ele>160.5</ele><time>2026-05-01T13:04:11.183Z</time></trkpt><trkpt lat="45.8452633" lon="12.0125667"><ele>161.0</ele><time>2026-05-01T13:04:12.185Z</time></trkpt><trkpt lat="45.845495" lon="12.0124767"><ele>159.5</ele><time>2026-05-01T13:04:13.187Z</time></trkpt><trkpt lat="45.8457283" lon="12.0123867"><ele>158.0</ele><time>2026-05-01T13:04:14.188Z</time></trkpt><trkpt lat="45.8459617" lon="12.0122933"><ele>158.0</ele><time>2026-05-01T13:04:15.187Z</time></trkpt><trkpt lat="45.8461983" lon="12.0121967"><ele>158.0</ele><time>2026-05-01T13:04:16.188Z</time></trkpt><trkpt lat="45.8464333" lon="12.0120983"><ele>158.0</ele><time>2026-05-01T13:04:17.188Z</time></trkpt><trkpt lat="45.84667" lon="12.0120017"><ele>158.0</ele><time>2026-05-01T13:04:18.188Z</time></trkpt><trkpt lat="45.8469017" lon="12.01189"><ele>158.0</ele><time>2026-05-01T13:04:19.186Z</time></trkpt><trkpt lat="45.8471333" lon="12.0117733"><ele>158.0</ele><time>2026-05-01T13:04:20.185Z</time></trkpt><trkpt lat="45.8473633" lon="12.0116483"><ele>158.5</ele><time>2026-05-01T13:04:21.186Z</time></trkpt><trkpt lat="45.8475833" lon="12.011515"><ele>159.0</ele><time>2026-05-01T13:04:22.186Z</time></trkpt><trkpt lat="45.8477917" lon="12.0113767"><ele>159.66666666666666</ele><time>2026-05-01T13:04:23.184Z</time></trkpt><trkpt lat="45.8479817" lon="12.011245"><ele>160.33333333333331</ele><time>2026-05-01T13:04:24.185Z</time></trkpt><trkpt lat="45.84815" lon="12.0111183"><ele>161.0</ele><time>2026-05-01T13:04:25.185Z</time></trkpt><trkpt lat="45.8483033" lon="12.010985"><ele>161.0</ele><time>2026-05-01T13:04:26.189Z</time></trkpt><trkpt lat="45.8484567" lon="12.010845"><ele>161.0</ele><time>2026-05-01T13:04:27.189Z</time></trkpt><trkpt lat="45.8486133" lon="12.0106967"><ele>161.0</ele><time>2026-05-01T13:04:28.187Z</time></trkpt><trkpt lat="45.8487733" lon="12.0105433"><ele>162.0</ele><time>2026-05-01T13:04:29.187Z</time></trkpt><trkpt lat="45.8489333" lon="12.010375"><ele>163.0</ele><time>2026-05-01T13:04:30.185Z</time></trkpt><trkpt lat="45.8490933" lon="12.0102"><ele>164.0</ele><time>2026-05-01T13:04:31.187Z</time></trkpt><trkpt lat="45.8492433" lon="12.0100317"><ele>162.33333333333331</ele><time>2026-05-01T13:04:32.185Z</time></trkpt><trkpt lat="45.849385" lon="12.00987"><ele>160.66666666666666</ele><time>2026-05-01T13:04:33.189Z</time></trkpt><trkpt lat="45.8495167" lon="12.009715"><ele>159.0</ele><time>2026-05-01T13:04:34.186Z</time></trkpt><trkpt lat="45.8496467" lon="12.0095683"><ele>159.0</ele><time>2026-05-01T13:04:35.185Z</time></trkpt><trkpt lat="45.849775" lon="12.00942"><ele>159.0</ele><time>2026-05-01T13:04:36.183Z</time></trkpt><trkpt lat="45.8499033" lon="12.0092633"><ele>159.0</ele><time>2026-05-01T13:04:37.185Z</time></trkpt><trkpt lat="45.8500367" lon="12.0091033"><ele>160.33333333333334</ele><time>2026-05-01T13:04:38.186Z</time></trkpt><trkpt lat="45.8501683" lon="12.0089433"><ele>161.66666666666669</ele><time>2026-05-01T13:04:39.189Z</time></trkpt><trkpt lat="45.8502967" lon="12.0087883"><ele>163.0</ele><time>2026-05-01T13:04:40.185Z</time></trkpt><trkpt lat="45.8504233" lon="12.00863"><ele>163.0</ele><time>2026-05-01T13:04:41.186Z</time></trkpt><trkpt lat="45.8505533" lon="12.008465"><ele>163.0</ele><time>2026-05-01T13:04:42.184Z</time></trkpt><trkpt lat="45.85069" lon="12.0083017"><ele>163.0</ele><time>2026-05-01T13:04:43.185Z</time></trkpt><trkpt lat="45.8508267" lon="12.0081317"><ele>163.66666666666669</ele><time>2026-05-01T13:04:44.188Z</time></trkpt><trkpt lat="45.85096" lon="12.0079633"><ele>164.33333333333334</ele><time>2026-05-01T13:04:45.186Z</time></trkpt><trkpt lat="45.8510883" lon="12.0077967"><ele>165.0</ele><time>2026-05-01T13:04:46.189Z</time></trkpt><trkpt lat="45.8512067" lon="12.0076117"><ele>164.0</ele><time>2026-05-01T13:04:47.185Z</time></trkpt><trkpt lat="45.8513333" lon="12.0074433"><ele>163.0</ele><time>2026-05-01T13:04:48.188Z</time></trkpt><trkpt lat="45.851465" lon="12.0072783"><ele>162.0</ele><time>2026-05-01T13:04:49.185Z</time></trkpt><trkpt lat="45.851595" lon="12.0071183"><ele>162.0</ele><time>2026-05-01T13:04:50.183Z</time></trkpt><trkpt lat="45.851725" lon="12.00696"><ele>162.0</ele><time>2026-05-01T13:04:51.185Z</time></trkpt><trkpt lat="45.8518567" lon="12.0068"><ele>162.0</ele><time>2026-05-01T13:04:52.186Z</time></trkpt><trkpt lat="45.85198" lon="12.0066383"><ele>161.66666666666666</ele><time>2026-05-01T13:04:53.185Z</time></trkpt><trkpt lat="45.8520983" lon="12.00648"><ele>161.33333333333331</ele><time>2026-05-01T13:04:54.186Z</time></trkpt><trkpt lat="45.8522067" lon="12.0063083"><ele>161.0</ele><time>2026-05-01T13:04:55.187Z</time></trkpt><trkpt lat="45.8523233" lon="12.0061433"><ele>161.0</ele><time>2026-05-01T13:04:56.184Z</time></trkpt><trkpt lat="45.852435" lon="12.0059633"><ele>161.0</ele><time>2026-05-01T13:04:57.184Z</time></trkpt><trkpt lat="45.8525433" lon="12.00578"><ele>161.0</ele><time>2026-05-01T13:04:58.185Z</time></trkpt><trkpt lat="45.8526567" lon="12.0055933"><ele>161.66666666666666</ele><time>2026-05-01T13:04:59.188Z</time></trkpt><trkpt lat="45.85276" lon="12.0054017"><ele>162.33333333333334</ele><time>2026-05-01T13:05:00.185Z</time></trkpt><trkpt lat="45.8528817" lon="12.0052333"><ele>163.0</ele><time>2026-05-01T13:05:01.183Z</time></trkpt><trkpt lat="45.852985" lon="12.005055"><ele>163.33333333333334</ele><time>2026-05-01T13:05:02.183Z</time></trkpt><trkpt lat="45.8530817" lon="12.0048617"><ele>163.66666666666666</ele><time>2026-05-01T13:05:03.184Z</time></trkpt><trkpt lat="45.8531833" lon="12.0046733"><ele>164.0</ele><time>2026-05-01T13:05:04.184Z</time></trkpt><trkpt lat="45.8532933" lon="12.0044933"><ele>164.0</ele><time>2026-05-01T13:05:05.185Z</time></trkpt><trkpt lat="45.853405" lon="12.0043183"><ele>164.0</ele><time>2026-05-01T13:05:06.183Z</time></trkpt><trkpt lat="45.85352" lon="12.0041467"><ele>164.0</ele><time>2026-05-01T13:05:07.184Z</time></trkpt><trkpt lat="45.8536417" lon="12.0039817"><ele>164.66666666666666</ele><time>2026-05-01T13:05:08.186Z</time></trkpt><trkpt lat="45.85377" lon="12.0038183"><ele>165.33333333333334</ele><time>2026-05-01T13:05:09.185Z</time></trkpt><trkpt lat="45.8539033" lon="12.003665"><ele>166.0</ele><time>2026-05-01T13:05:10.182Z</time></trkpt><trkpt lat="45.8540433" lon="12.0035133"><ele>166.0</ele><time>2026-05-01T13:05:11.183Z</time></trkpt><trkpt lat="45.854185" lon="12.003365"><ele>166.0</ele><time>2026-05-01T13:05:12.183Z</time></trkpt><trkpt lat="45.8543317" lon="12.00323"><ele>166.0</ele><time>2026-05-01T13:05:13.182Z</time></trkpt><trkpt lat="45.8544733" lon="12.0031"><ele>165.33333333333334</ele><time>2026-05-01T13:05:14.185Z</time></trkpt><trkpt lat="45.8546183" lon="12.002975"><ele>164.66666666666666</ele><time>2026-05-01T13:05:15.183Z</time></trkpt><trkpt lat="45.8547633" lon="12.002845"><ele>164.0</ele><time>2026-05-01T13:05:16.185Z</time></trkpt><trkpt lat="45.8549117" lon="12.0027033"><ele>164.0</ele><time>2026-05-01T13:05:17.184Z</time></trkpt><trkpt lat="45.8550633" lon="12.0025583"><ele>164.0</ele><time>2026-05-01T13:05:18.188Z</time></trkpt><trkpt lat="45.8552183" lon="12.0024083"><ele>164.0</ele><time>2026-05-01T13:05:19.185Z</time></trkpt><trkpt lat="45.85538" lon="12.0022583"><ele>164.66666666666666</ele><time>2026-05-01T13:05:20.184Z</time></trkpt><trkpt lat="45.8555467" lon="12.0020967"><ele>165.33333333333334</ele><time>2026-05-01T13:05:21.185Z</time></trkpt><trkpt lat="45.8557183" lon="12.00193"><ele>166.0</ele><time>2026-05-01T13:05:22.184Z</time></trkpt><trkpt lat="45.8558833" lon="12.001765"><ele>165.33333333333334</ele><time>2026-05-01T13:05:23.184Z</time></trkpt><trkpt lat="45.85604" lon="12.00161"><ele>164.66666666666666</ele><time>2026-05-01T13:05:24.19Z</time></trkpt><trkpt lat="45.856195" lon="12.0014583"><ele>164.0</ele><time>2026-05-01T13:05:25.185Z</time></trkpt><trkpt lat="45.8563533" lon="12.0012967"><ele>164.0</ele><time>2026-05-01T13:05:26.187Z</time></trkpt><trkpt lat="45.856515" lon="12.001125"><ele>164.0</ele><time>2026-05-01T13:05:27.187Z</time></trkpt><trkpt lat="45.8566833" lon="12.000945"><ele>164.0</ele><time>2026-05-01T13:05:28.189Z</time></trkpt><trkpt lat="45.8568667" lon="12.00075"><ele>165.0</ele><time>2026-05-01T13:05:29.184Z</time></trkpt><trkpt lat="45.8570633" lon="12.0005417"><ele>166.0</ele><time>2026-05-01T13:05:30.188Z</time></trkpt><trkpt lat="45.85727" lon="12.0003317"><ele>166.0</ele><time>2026-05-01T13:05:31.19Z</time></trkpt><trkpt lat="45.8574767" lon="12.0001167"><ele>166.0</ele><time>2026-05-01T13:05:32.187Z</time></trkpt><trkpt lat="45.857675" lon="11.9998983"><ele>165.5</ele><time>2026-05-01T13:05:33.19Z</time></trkpt><trkpt lat="45.8578717" lon="11.999685"><ele>165.0</ele><time>2026-05-01T13:05:34.185Z</time></trkpt><trkpt lat="45.8580633" lon="11.99947"><ele>165.0</ele><time>2026-05-01T13:05:35.188Z</time></trkpt><trkpt lat="45.8582517" lon="11.9992483"><ele>165.0</ele><time>2026-05-01T13:05:36.186Z</time></trkpt><trkpt lat="45.8584367" lon="11.999025"><ele>166.0</ele><time>2026-05-01T13:05:37.184Z</time></trkpt><trkpt lat="45.858615" lon="11.998795"><ele>167.0</ele><time>2026-05-01T13:05:38.184Z</time></trkpt><trkpt lat="45.8587867" lon="11.99856"><ele>166.0</ele><time>2026-05-01T13:05:39.188Z</time></trkpt><trkpt lat="45.8589567" lon="11.9983217"><ele>165.0</ele><time>2026-05-01T13:05:40.185Z</time></trkpt><trkpt lat="45.8590967" lon="11.9980467"><ele>165.0</ele><time>2026-05-01T13:05:41.186Z</time></trkpt><trkpt lat="45.85923" lon="11.9977617"><ele>165.0</ele><time>2026-05-01T13:05:42.185Z</time></trkpt><trkpt lat="45.8593667" lon="11.9974833"><ele>165.5</ele><time>2026-05-01T13:05:43.185Z</time></trkpt><trkpt lat="45.8595" lon="11.9972"><ele>166.0</ele><time>2026-05-01T13:05:44.184Z</time></trkpt><trkpt lat="45.8596333" lon="11.996915"><ele>166.0</ele><time>2026-05-01T13:05:45.184Z</time></trkpt><trkpt lat="45.8597633" lon="11.996625"><ele>166.0</ele><time>2026-05-01T13:05:46.186Z</time></trkpt><trkpt lat="45.8598933" lon="11.9963383"><ele>166.0</ele><time>2026-05-01T13:05:47.189Z</time></trkpt><trkpt lat="45.8600217" lon="11.99605"><ele>166.0</ele><time>2026-05-01T13:05:48.192Z</time></trkpt><trkpt lat="45.8601483" lon="11.9957567"><ele>167.5</ele><time>2026-05-01T13:05:49.186Z</time></trkpt><trkpt lat="45.8602817" lon="11.9954717"><ele>169.0</ele><time>2026-05-01T13:05:50.185Z</time></trkpt><trkpt lat="45.8604217" lon="11.9951933"><ele>167.5</ele><time>2026-05-01T13:05:51.191Z</time></trkpt><trkpt lat="45.8605617" lon="11.9949167"><ele>166.0</ele><time>2026-05-01T13:05:52.188Z</time></trkpt><trkpt lat="45.86071" lon="11.9946533"><ele>166.0</ele><time>2026-05-01T13:05:53.185Z</time></trkpt><trkpt lat="45.8608583" lon="11.99439"><ele>166.0</ele><time>2026-05-01T13:05:54.185Z</time></trkpt><trkpt lat="45.8610167" lon="11.9941383"><ele>161.0</ele><time>2026-05-01T13:05:55.185Z</time></trkpt><trkpt lat="45.8611867" lon="11.9939"><ele>156.0</ele><time>2026-05-01T13:05:56.185Z</time></trkpt><trkpt lat="45.86136" lon="11.99367"><ele>156.0</ele><time>2026-05-01T13:05:57.191Z</time></trkpt><trkpt lat="45.8615383" lon="11.9934467"><ele>156.0</ele><time>2026-05-01T13:05:58.188Z</time></trkpt><trkpt lat="45.8617217" lon="11.99323"><ele>155.0</ele><time>2026-05-01T13:05:59.185Z</time></trkpt><trkpt lat="45.861905" lon="11.9930133"><ele>154.0</ele><time>2026-05-01T13:06:00.185Z</time></trkpt><trkpt lat="45.862085" lon="11.9927967"><ele>154.0</ele><time>2026-05-01T13:06:01.184Z</time></trkpt><trkpt lat="45.8622683" lon="11.9925833"><ele>154.0</ele><time>2026-05-01T13:06:02.188Z</time></trkpt><trkpt lat="45.8624483" lon="11.9923667"><ele>156.5</ele><time>2026-05-01T13:06:03.185Z</time></trkpt><trkpt lat="45.86263" lon="11.992155"><ele>159.0</ele><time>2026-05-01T13:06:04.186Z</time></trkpt><trkpt lat="45.8628117" lon="11.9919433"><ele>159.0</ele><time>2026-05-01T13:06:05.186Z</time></trkpt><trkpt lat="45.86299" lon="11.991725"><ele>159.0</ele><time>2026-05-01T13:06:06.187Z</time></trkpt><trkpt lat="45.8631633" lon="11.9915033"><ele>160.0</ele><time>2026-05-01T13:06:07.185Z</time></trkpt><trkpt lat="45.8633283" lon="11.9912717"><ele>161.0</ele><time>2026-05-01T13:06:08.187Z</time></trkpt><trkpt lat="45.8634867" lon="11.9910367"><ele>166.0</ele><time>2026-05-01T13:06:09.184Z</time></trkpt><trkpt lat="45.8636383" lon="11.990795"><ele>171.0</ele><time>2026-05-01T13:06:10.185Z</time></trkpt><trkpt lat="45.8637867" lon="11.99055"><ele>171.0</ele><time>2026-05-01T13:06:11.183Z</time></trkpt><trkpt lat="45.8639267" lon="11.9902917"><ele>171.0</ele><time>2026-05-01T13:06:12.186Z</time></trkpt><trkpt lat="45.86406" lon="11.9900333"><ele>171.0</ele><time>2026-05-01T13:06:13.185Z</time></trkpt><trkpt lat="45.8641767" lon="11.9897667"><ele>171.0</ele><time>2026-05-01T13:06:14.184Z</time></trkpt><trkpt lat="45.86429" lon="11.9894917"><ele>171.0</ele><time>2026-05-01T13:06:15.183Z</time></trkpt><trkpt lat="45.8643867" lon="11.9892033"><ele>169.33333333333334</ele><time>2026-05-01T13:06:16.185Z</time></trkpt><trkpt lat="45.8644733" lon="11.9889067"><ele>167.66666666666669</ele><time>2026-05-01T13:06:17.183Z</time></trkpt><trkpt lat="45.8645533" lon="11.9886083"><ele>166.0</ele><time>2026-05-01T13:06:18.189Z</time></trkpt><trkpt lat="45.8646233" lon="11.988305"><ele>166.0</ele><time>2026-05-01T13:06:19.187Z</time></trkpt><trkpt lat="45.8646867" lon="11.9879967"><ele>166.0</ele><time>2026-05-01T13:06:20.189Z</time></trkpt><trkpt lat="45.8647433" lon="11.9876883"><ele>166.0</ele><time>2026-05-01T13:06:21.184Z</time></trkpt><trkpt lat="45.8647917" lon="11.987375"><ele>167.66666666666669</ele><time>2026-05-01T13:06:22.186Z</time></trkpt><trkpt lat="45.86483" lon="11.98706"><ele>169.33333333333334</ele><time>2026-05-01T13:06:23.189Z</time></trkpt><trkpt lat="45.8648667" lon="11.986745"><ele>171.0</ele><time>2026-05-01T13:06:24.19Z</time></trkpt><trkpt lat="45.864895" lon="11.9864283"><ele>171.66666666666666</ele><time>2026-05-01T13:06:25.189Z</time></trkpt><trkpt lat="45.8649217" lon="11.9861083"><ele>172.33333333333331</ele><time>2026-05-01T13:06:26.184Z</time></trkpt><trkpt lat="45.8649483" lon="11.9857933"><ele>173.0</ele><time>2026-05-01T13:06:27.185Z</time></trkpt><trkpt lat="45.8649733" lon="11.9854767"><ele>173.33333333333331</ele><time>2026-05-01T13:06:28.185Z</time></trkpt><trkpt lat="45.865" lon="11.9851633"><ele>173.66666666666666</ele><time>2026-05-01T13:06:29.184Z</time></trkpt><trkpt lat="45.865025" lon="11.9848583"><ele>174.0</ele><time>2026-05-01T13:06:30.189Z</time></trkpt><trkpt lat="45.8650483" lon="11.9845617"><ele>174.0</ele><time>2026-05-01T13:06:31.189Z</time></trkpt><trkpt lat="45.8650717" lon="11.98427"><ele>174.0</ele><time>2026-05-01T13:06:32.185Z</time></trkpt><trkpt lat="45.8650967" lon="11.9839833"><ele>174.0</ele><time>2026-05-01T13:06:33.186Z</time></trkpt><trkpt lat="45.8651183" lon="11.9836967"><ele>172.66666666666666</ele><time>2026-05-01T13:06:34.185Z</time></trkpt><trkpt lat="45.8651383" lon="11.9834083"><ele>171.33333333333331</ele><time>2026-05-01T13:06:35.183Z</time></trkpt><trkpt lat="45.86516" lon="11.98312"><ele>170.0</ele><time>2026-05-01T13:06:36.187Z</time></trkpt><trkpt lat="45.8651833" lon="11.9828283"><ele>170.0</ele><time>2026-05-01T13:06:37.19Z</time></trkpt><trkpt lat="45.8652067" lon="11.9825367"><ele>170.0</ele><time>2026-05-01T13:06:38.186Z</time></trkpt><trkpt lat="45.86523" lon="11.9822467"><ele>170.0</ele><time>2026-05-01T13:06:39.187Z</time></trkpt><trkpt lat="45.8652533" lon="11.981955"><ele>172.0</ele><time>2026-05-01T13:06:40.185Z</time></trkpt><trkpt lat="45.8652783" lon="11.9816633"><ele>174.0</ele><time>2026-05-01T13:06:41.185Z</time></trkpt><trkpt lat="45.8653067" lon="11.981375"><ele>176.0</ele><time>2026-05-01T13:06:42.184Z</time></trkpt><trkpt lat="45.8653367" lon="11.981085"><ele>175.33333333333331</ele><time>2026-05-01T13:06:43.184Z</time></trkpt><trkpt lat="45.8653667" lon="11.980795"><ele>174.66666666666666</ele><time>2026-05-01T13:06:44.184Z</time></trkpt><trkpt lat="45.8654017" lon="11.980505"><ele>174.0</ele><time>2026-05-01T13:06:45.186Z</time></trkpt><trkpt lat="45.8654433" lon="11.9802183"><ele>175.33333333333334</ele><time>2026-05-01T13:06:46.188Z</time></trkpt><trkpt lat="45.86549" lon="11.9799317"><ele>176.66666666666669</ele><time>2026-05-01T13:06:47.188Z</time></trkpt><trkpt lat="45.8655483" lon="11.979645"><ele>178.0</ele><time>2026-05-01T13:06:48.188Z</time></trkpt><trkpt lat="45.865615" lon="11.97936"><ele>178.66666666666669</ele><time>2026-05-01T13:06:49.185Z</time></trkpt><trkpt lat="45.86569" lon="11.97908"><ele>179.33333333333334</ele><time>2026-05-01T13:06:50.191Z</time></trkpt><trkpt lat="45.86577" lon="11.9788017"><ele>180.0</ele><time>2026-05-01T13:06:51.186Z</time></trkpt><trkpt lat="45.8658533" lon="11.9785383"><ele>180.0</ele><time>2026-05-01T13:06:52.186Z</time></trkpt><trkpt lat="45.8659367" lon="11.9782883"><ele>180.0</ele><time>2026-05-01T13:06:53.184Z</time></trkpt><trkpt lat="45.866025" lon="11.9780467"><ele>180.0</ele><time>2026-05-01T13:06:54.186Z</time></trkpt><trkpt lat="45.8661167" lon="11.9778083"><ele>179.0</ele><time>2026-05-01T13:06:55.186Z</time></trkpt><trkpt lat="45.86621" lon="11.97757"><ele>178.0</ele><time>2026-05-01T13:06:56.186Z</time></trkpt><trkpt lat="45.8663033" lon="11.97733"><ele>177.0</ele><time>2026-05-01T13:06:57.194Z</time></trkpt><trkpt lat="45.8663967" lon="11.97709"><ele>177.0</ele><time>2026-05-01T13:06:58.185Z</time></trkpt><trkpt lat="45.8664883" lon="11.9768483"><ele>177.0</ele><time>2026-05-01T13:06:59.186Z</time></trkpt><trkpt lat="45.8665783" lon="11.97661"><ele>177.0</ele><time>2026-05-01T13:07:00.186Z</time></trkpt><trkpt lat="45.8666717" lon="11.9763733"><ele>176.66666666666666</ele><time>2026-05-01T13:07:01.185Z</time></trkpt><trkpt lat="45.866765" lon="11.9761367"><ele>176.33333333333331</ele><time>2026-05-01T13:07:02.189Z</time></trkpt><trkpt lat="45.8668617" lon="11.9758983"><ele>176.0</ele><time>2026-05-01T13:07:03.185Z</time></trkpt><trkpt lat="45.8669567" lon="11.975655"><ele>176.0</ele><time>2026-05-01T13:07:04.184Z</time></trkpt><trkpt lat="45.8670517" lon="11.9754067"><ele>176.0</ele><time>2026-05-01T13:07:05.184Z</time></trkpt><trkpt lat="45.867145" lon="11.9751583"><ele>176.0</ele><time>2026-05-01T13:07:06.186Z</time></trkpt><trkpt lat="45.8672417" lon="11.9749117"><ele>177.66666666666666</ele><time>2026-05-01T13:07:07.187Z</time></trkpt><trkpt lat="45.86734" lon="11.9746617"><ele>179.33333333333334</ele><time>2026-05-01T13:07:08.187Z</time></trkpt><trkpt lat="45.86744" lon="11.97441"><ele>181.0</ele><time>2026-05-01T13:07:09.188Z</time></trkpt><trkpt lat="45.86754" lon="11.9741567"><ele>177.0</ele><time>2026-05-01T13:07:10.189Z</time></trkpt><trkpt lat="45.86764" lon="11.9739033"><ele>173.0</ele><time>2026-05-01T13:07:11.185Z</time></trkpt><trkpt lat="45.8677417" lon="11.9736483"><ele>169.0</ele><time>2026-05-01T13:07:12.185Z</time></trkpt><trkpt lat="45.8678433" lon="11.9733917"><ele>171.0</ele><time>2026-05-01T13:07:13.187Z</time></trkpt><trkpt lat="45.8679433" lon="11.9731333"><ele>173.0</ele><time>2026-05-01T13:07:14.184Z</time></trkpt><trkpt lat="45.8680433" lon="11.9728767"><ele>175.0</ele><time>2026-05-01T13:07:15.19Z</time></trkpt><trkpt lat="45.8681433" lon="11.9726167"><ele>178.0</ele><time>2026-05-01T13:07:16.184Z</time></trkpt><trkpt lat="45.868245" lon="11.9723567"><ele>181.0</ele><time>2026-05-01T13:07:17.184Z</time></trkpt><trkpt lat="45.8683433" lon="11.9720967"><ele>184.0</ele><time>2026-05-01T13:07:18.186Z</time></trkpt><trkpt lat="45.8684433" lon="11.9718383"><ele>179.66666666666669</ele><time>2026-05-01T13:07:19.186Z</time></trkpt><trkpt lat="45.8685417" lon="11.9715817"><ele>175.33333333333334</ele><time>2026-05-01T13:07:20.187Z</time></trkpt><trkpt lat="45.8686367" lon="11.9713317"><ele>171.0</ele><time>2026-05-01T13:07:21.189Z</time></trkpt><trkpt lat="45.8687233" lon="11.9711"><ele>171.0</ele><time>2026-05-01T13:07:22.186Z</time></trkpt><trkpt lat="45.8688117" lon="11.9708767"><ele>171.0</ele><time>2026-05-01T13:07:23.186Z</time></trkpt><trkpt lat="45.8689" lon="11.9706517"><ele>171.0</ele><time>2026-05-01T13:07:24.185Z</time></trkpt><trkpt lat="45.8689917" lon="11.9704267"><ele>170.66666666666666</ele><time>2026-05-01T13:07:25.185Z</time></trkpt><trkpt lat="45.8690867" lon="11.9701967"><ele>170.33333333333331</ele><time>2026-05-01T13:07:26.189Z</time></trkpt><trkpt lat="45.8691867" lon="11.96997"><ele>170.0</ele><time>2026-05-01T13:07:27.187Z</time></trkpt><trkpt lat="45.8692933" lon="11.9697533"><ele>170.0</ele><time>2026-05-01T13:07:28.186Z</time></trkpt><trkpt lat="45.8694017" lon="11.969555"><ele>170.0</ele><time>2026-05-01T13:07:29.184Z</time></trkpt><trkpt lat="45.869515" lon="11.9693717"><ele>170.0</ele><time>2026-05-01T13:07:30.186Z</time></trkpt><trkpt lat="45.8696317" lon="11.9692117"><ele>174.0</ele><time>2026-05-01T13:07:31.186Z</time></trkpt><trkpt lat="45.869755" lon="11.9690633"><ele>178.0</ele><time>2026-05-01T13:07:32.186Z</time></trkpt><trkpt lat="45.8698867" lon="11.9689217"><ele>182.0</ele><time>2026-05-01T13:07:33.186Z</time></trkpt><trkpt lat="45.870025" lon="11.96878"><ele>177.0</ele><time>2026-05-01T13:07:34.184Z</time></trkpt><trkpt lat="45.8701617" lon="11.9686417"><ele>172.0</ele><time>2026-05-01T13:07:35.184Z</time></trkpt><trkpt lat="45.870295" lon="11.9685117"><ele>167.0</ele><time>2026-05-01T13:07:36.185Z</time></trkpt><trkpt lat="45.8704267" lon="11.9683917"><ele>169.75</ele><time>2026-05-01T13:07:37.184Z</time></trkpt><trkpt lat="45.870555" lon="11.9682667"><ele>172.5</ele><time>2026-05-01T13:07:38.183Z</time></trkpt><trkpt lat="45.8706733" lon="11.9681433"><ele>175.25</ele><time>2026-05-01T13:07:39.188Z</time></trkpt><trkpt lat="45.8707833" lon="11.9680267"><ele>178.0</ele><time>2026-05-01T13:07:40.186Z</time></trkpt><trkpt lat="45.870875" lon="11.967915"><ele>175.2</ele><time>2026-05-01T13:07:41.184Z</time></trkpt><trkpt lat="45.8709533" lon="11.9678117"><ele>172.4</ele><time>2026-05-01T13:07:42.184Z</time></trkpt><trkpt lat="45.8710167" lon="11.967725"><ele>169.6</ele><time>2026-05-01T13:07:43.184Z</time></trkpt><trkpt lat="45.87107" lon="11.9676433"><ele>166.79999999999998</ele><time>2026-05-01T13:07:45.185Z</time></trkpt><trkpt lat="45.8711417" lon="11.9676283"><ele>164.0</ele><time>2026-05-01T13:07:48.184Z</time></trkpt><trkpt lat="45.8712533" lon="11.967545"><ele>166.2</ele><time>2026-05-01T13:07:50.185Z</time></trkpt><trkpt lat="45.8713333" lon="11.9674917"><ele>168.39999999999998</ele><time>2026-05-01T13:07:51.185Z</time></trkpt><trkpt lat="45.871405" lon="11.96743"><ele>170.6</ele><time>2026-05-01T13:07:52.187Z</time></trkpt><trkpt lat="45.87146" lon="11.9673467"><ele>172.8</ele><time>2026-05-01T13:07:53.185Z</time></trkpt><trkpt lat="45.8715233" lon="11.967245"><ele>175.0</ele><time>2026-05-01T13:07:54.183Z</time></trkpt><trkpt lat="45.871615" lon="11.9671567"><ele>175.0</ele><time>2026-05-01T13:07:55.186Z</time></trkpt><trkpt lat="45.8717267" lon="11.9670733"><ele>175.0</ele><time>2026-05-01T13:07:56.187Z</time></trkpt><trkpt lat="45.8718333" lon="11.966965"><ele>175.0</ele><time>2026-05-01T13:07:57.187Z</time></trkpt><trkpt lat="45.8719367" lon="11.96682"><ele>175.0</ele><time>2026-05-01T13:07:58.186Z</time></trkpt><trkpt lat="45.8720583" lon="11.9666383"><ele>175.66666666666669</ele><time>2026-05-01T13:07:59.185Z</time></trkpt><trkpt lat="45.8722017" lon="11.96643"><ele>176.33333333333334</ele><time>2026-05-01T13:08:00.184Z</time></trkpt><trkpt lat="45.8723667" lon="11.9662133"><ele>177.0</ele><time>2026-05-01T13:08:01.185Z</time></trkpt><trkpt lat="45.8725467" lon="11.9659983"><ele>176.0</ele><time>2026-05-01T13:08:02.185Z</time></trkpt><trkpt lat="45.8727333" lon="11.9657983"><ele>175.0</ele><time>2026-05-01T13:08:03.183Z</time></trkpt><trkpt lat="45.8729167" lon="11.965625"><ele>175.0</ele><time>2026-05-01T13:08:04.183Z</time></trkpt><trkpt lat="45.8731033" lon="11.9654683"><ele>175.0</ele><time>2026-05-01T13:08:05.189Z</time></trkpt><trkpt lat="45.873295" lon="11.96532"><ele>175.0</ele><time>2026-05-01T13:08:06.186Z</time></trkpt><trkpt lat="45.873495" lon="11.9651767"><ele>174.0</ele><time>2026-05-01T13:08:07.185Z</time></trkpt><trkpt lat="45.873695" lon="11.9650467"><ele>173.0</ele><time>2026-05-01T13:08:08.186Z</time></trkpt><trkpt lat="45.87389" lon="11.9649217"><ele>172.0</ele><time>2026-05-01T13:08:09.187Z</time></trkpt><trkpt lat="45.8740833" lon="11.964795"><ele>172.33333333333334</ele><time>2026-05-01T13:08:10.187Z</time></trkpt><trkpt lat="45.874275" lon="11.9646667"><ele>172.66666666666666</ele><time>2026-05-01T13:08:11.184Z</time></trkpt><trkpt lat="45.874465" lon="11.9645433"><ele>173.0</ele><time>2026-05-01T13:08:12.186Z</time></trkpt><trkpt lat="45.8746433" lon="11.9644267"><ele>173.0</ele><time>2026-05-01T13:08:13.185Z</time></trkpt><trkpt lat="45.8748217" lon="11.9643117"><ele>173.0</ele><time>2026-05-01T13:08:14.184Z</time></trkpt><trkpt lat="45.8749983" lon="11.9641983"><ele>173.0</ele><time>2026-05-01T13:08:15.186Z</time></trkpt><trkpt lat="45.87517" lon="11.9640867"><ele>175.33333333333331</ele><time>2026-05-01T13:08:16.185Z</time></trkpt><trkpt lat="45.8753283" lon="11.9639817"><ele>177.66666666666666</ele><time>2026-05-01T13:08:17.186Z</time></trkpt><trkpt lat="45.8754767" lon="11.9638867"><ele>180.0</ele><time>2026-05-01T13:08:18.184Z</time></trkpt><trkpt lat="45.875615" lon="11.9637967"><ele>180.0</ele><time>2026-05-01T13:08:19.189Z</time></trkpt><trkpt lat="45.875745" lon="11.9637083"><ele>180.0</ele><time>2026-05-01T13:08:20.185Z</time></trkpt><trkpt lat="45.875875" lon="11.9636283"><ele>180.0</ele><time>2026-05-01T13:08:21.184Z</time></trkpt><trkpt lat="45.8760033" lon="11.9635517"><ele>180.0</ele><time>2026-05-01T13:08:22.184Z</time></trkpt><trkpt lat="45.87613" lon="11.9634933"><ele>180.25</ele><time>2026-05-01T13:08:23.185Z</time></trkpt><trkpt lat="45.8762583" lon="11.9634517"><ele>180.5</ele><time>2026-05-01T13:08:24.185Z</time></trkpt><trkpt lat="45.8763917" lon="11.9634117"><ele>180.75</ele><time>2026-05-01T13:08:25.185Z</time></trkpt><trkpt lat="45.8765283" lon="11.9633767"><ele>181.0</ele><time>2026-05-01T13:08:26.184Z</time></trkpt><trkpt lat="45.8766717" lon="11.963345"><ele>180.5</ele><time>2026-05-01T13:08:27.186Z</time></trkpt><trkpt lat="45.8768117" lon="11.9633217"><ele>180.0</ele><time>2026-05-01T13:08:28.187Z</time></trkpt><trkpt lat="45.87695" lon="11.9633033"><ele>179.5</ele><time>2026-05-01T13:08:29.185Z</time></trkpt><trkpt lat="45.8770933" lon="11.96328"><ele>179.0</ele><time>2026-05-01T13:08:30.187Z</time></trkpt><trkpt lat="45.8772383" lon="11.9632583"><ele>179.0</ele><time>2026-05-01T13:08:31.187Z</time></trkpt><trkpt lat="45.87738" lon="11.9632383"><ele>179.0</ele><time>2026-05-01T13:08:32.186Z</time></trkpt><trkpt lat="45.8775183" lon="11.9632217"><ele>179.0</ele><time>2026-05-01T13:08:33.185Z</time></trkpt><trkpt lat="45.877655" lon="11.9631983"><ele>179.0</ele><time>2026-05-01T13:08:34.185Z</time></trkpt><trkpt lat="45.8778067" lon="11.9631667"><ele>178.66666666666666</ele><time>2026-05-01T13:08:35.186Z</time></trkpt><trkpt lat="45.8779733" lon="11.9631233"><ele>178.33333333333334</ele><time>2026-05-01T13:08:36.185Z</time></trkpt><trkpt lat="45.8781567" lon="11.9630883"><ele>178.0</ele><time>2026-05-01T13:08:37.188Z</time></trkpt><trkpt lat="45.8783467" lon="11.96305"><ele>174.66666666666669</ele><time>2026-05-01T13:08:38.186Z</time></trkpt><trkpt lat="45.8785433" lon="11.962995"><ele>171.33333333333334</ele><time>2026-05-01T13:08:39.184Z</time></trkpt><trkpt lat="45.8787333" lon="11.96295"><ele>168.0</ele><time>2026-05-01T13:08:40.187Z</time></trkpt><trkpt lat="45.8789067" lon="11.962905"><ele>168.0</ele><time>2026-05-01T13:08:41.183Z</time></trkpt><trkpt lat="45.8790733" lon="11.9628517"><ele>168.0</ele><time>2026-05-01T13:08:42.184Z</time></trkpt><trkpt lat="45.879225" lon="11.9627917"><ele>168.0</ele><time>2026-05-01T13:08:43.183Z</time></trkpt><trkpt lat="45.879385" lon="11.9626983"><ele>167.33333333333334</ele><time>2026-05-01T13:08:44.185Z</time></trkpt><trkpt lat="45.8795333" lon="11.962555"><ele>166.66666666666669</ele><time>2026-05-01T13:08:45.187Z</time></trkpt><trkpt lat="45.87969" lon="11.9623683"><ele>166.0</ele><time>2026-05-01T13:08:46.185Z</time></trkpt><trkpt lat="45.8798567" lon="11.9621633"><ele>167.5</ele><time>2026-05-01T13:08:47.187Z</time></trkpt><trkpt lat="45.880035" lon="11.961945"><ele>169.0</ele><time>2026-05-01T13:08:48.185Z</time></trkpt><trkpt lat="45.8802217" lon="11.9617217"><ele>170.5</ele><time>2026-05-01T13:08:49.184Z</time></trkpt><trkpt lat="45.880405" lon="11.9614833"><ele>172.0</ele><time>2026-05-01T13:08:50.185Z</time></trkpt><trkpt lat="45.8805833" lon="11.9612267"><ele>172.0</ele><time>2026-05-01T13:08:51.185Z</time></trkpt><trkpt lat="45.880755" lon="11.96095"><ele>172.0</ele><time>2026-05-01T13:08:52.192Z</time></trkpt><trkpt lat="45.8809183" lon="11.9606617"><ele>170.0</ele><time>2026-05-01T13:08:53.187Z</time></trkpt><trkpt lat="45.88107" lon="11.960365"><ele>168.0</ele><time>2026-05-01T13:08:54.184Z</time></trkpt><trkpt lat="45.8812133" lon="11.9600617"><ele>168.0</ele><time>2026-05-01T13:08:55.187Z</time></trkpt><trkpt lat="45.8813533" lon="11.95976"><ele>168.0</ele><time>2026-05-01T13:08:56.187Z</time></trkpt><trkpt lat="45.8814867" lon="11.959475"><ele>170.0</ele><time>2026-05-01T13:08:57.185Z</time></trkpt><trkpt lat="45.8816217" lon="11.959195"><ele>172.0</ele><time>2026-05-01T13:08:58.185Z</time></trkpt><trkpt lat="45.8817617" lon="11.95892"><ele>168.5</ele><time>2026-05-01T13:08:59.186Z</time></trkpt><trkpt lat="45.88191" lon="11.9586517"><ele>165.0</ele><time>2026-05-01T13:09:00.186Z</time></trkpt><trkpt lat="45.882065" lon="11.9583883"><ele>167.0</ele><time>2026-05-01T13:09:01.183Z</time></trkpt><trkpt lat="45.882225" lon="11.9581317"><ele>169.0</ele><time>2026-05-01T13:09:02.187Z</time></trkpt><trkpt lat="45.8823867" lon="11.9578767"><ele>169.0</ele><time>2026-05-01T13:09:03.192Z</time></trkpt><trkpt lat="45.882555" lon="11.9576267"><ele>169.0</ele><time>2026-05-01T13:09:04.184Z</time></trkpt><trkpt lat="45.88272" lon="11.9573717"><ele>168.5</ele><time>2026-05-01T13:09:05.186Z</time></trkpt><trkpt lat="45.88288" lon="11.9571133"><ele>168.0</ele><time>2026-05-01T13:09:06.186Z</time></trkpt><trkpt lat="45.88304" lon="11.9568517"><ele>171.5</ele><time>2026-05-01T13:09:07.183Z</time></trkpt><trkpt lat="45.8831983" lon="11.9565883"><ele>175.0</ele><time>2026-05-01T13:09:08.187Z</time></trkpt><trkpt lat="45.8833533" lon="11.956325"><ele>172.0</ele><time>2026-05-01T13:09:09.185Z</time></trkpt><trkpt lat="45.8835083" lon="11.9560617"><ele>169.0</ele><time>2026-05-01T13:09:10.186Z</time></trkpt><trkpt lat="45.8836633" lon="11.9558033"><ele>169.0</ele><time>2026-05-01T13:09:11.188Z</time></trkpt><trkpt lat="45.8838167" lon="11.955545"><ele>169.0</ele><time>2026-05-01T13:09:12.185Z</time></trkpt><trkpt lat="45.8839617" lon="11.9552983"><ele>169.0</ele><time>2026-05-01T13:09:13.187Z</time></trkpt><trkpt lat="45.8841" lon="11.9550683"><ele>169.0</ele><time>2026-05-01T13:09:14.186Z</time></trkpt><trkpt lat="45.8842333" lon="11.9548517"><ele>169.0</ele><time>2026-05-01T13:09:15.189Z</time></trkpt><trkpt lat="45.8843617" lon="11.954645"><ele>170.0</ele><time>2026-05-01T13:09:16.184Z</time></trkpt><trkpt lat="45.8844833" lon="11.9544433"><ele>171.0</ele><time>2026-05-01T13:09:17.184Z</time></trkpt><trkpt lat="45.88459" lon="11.9542217"><ele>172.0</ele><time>2026-05-01T13:09:18.186Z</time></trkpt><trkpt lat="45.884685" lon="11.9539767"><ele>172.0</ele><time>2026-05-01T13:09:19.186Z</time></trkpt><trkpt lat="45.8847583" lon="11.9537083"><ele>172.0</ele><time>2026-05-01T13:09:20.185Z</time></trkpt><trkpt lat="45.8848183" lon="11.9534167"><ele>172.0</ele><time>2026-05-01T13:09:21.19Z</time></trkpt><trkpt lat="45.88487" lon="11.9531133"><ele>174.5</ele><time>2026-05-01T13:09:22.186Z</time></trkpt><trkpt lat="45.88492" lon="11.9527967"><ele>177.0</ele><time>2026-05-01T13:09:23.184Z</time></trkpt><trkpt lat="45.8849717" lon="11.9524733"><ele>180.5</ele><time>2026-05-01T13:09:24.184Z</time></trkpt><trkpt lat="45.8850267" lon="11.9521433"><ele>184.0</ele><time>2026-05-01T13:09:25.189Z</time></trkpt><trkpt lat="45.88508" lon="11.95181"><ele>175.0</ele><time>2026-05-01T13:09:26.186Z</time></trkpt><trkpt lat="45.88514" lon="11.9514817"><ele>166.0</ele><time>2026-05-01T13:09:27.185Z</time></trkpt><trkpt lat="45.8852017" lon="11.951165"><ele>164.0</ele><time>2026-05-01T13:09:28.187Z</time></trkpt><trkpt lat="45.8852683" lon="11.9508567"><ele>162.0</ele><time>2026-05-01T13:09:29.186Z</time></trkpt><trkpt lat="45.88534" lon="11.9505433"><ele>162.0</ele><time>2026-05-01T13:09:30.186Z</time></trkpt><trkpt lat="45.8854133" lon="11.9502267"><ele>162.0</ele><time>2026-05-01T13:09:31.185Z</time></trkpt><trkpt lat="45.8854933" lon="11.9499067"><ele>166.0</ele><time>2026-05-01T13:09:32.185Z</time></trkpt><trkpt lat="45.8855817" lon="11.949585"><ele>170.0</ele><time>2026-05-01T13:09:33.186Z</time></trkpt><trkpt lat="45.88568" lon="11.949275"><ele>169.66666666666666</ele><time>2026-05-01T13:09:34.185Z</time></trkpt><trkpt lat="45.8857883" lon="11.94899"><ele>169.33333333333334</ele><time>2026-05-01T13:09:35.191Z</time></trkpt><trkpt lat="45.8858933" lon="11.9487217"><ele>169.0</ele><time>2026-05-01T13:09:36.185Z</time></trkpt><trkpt lat="45.8859967" lon="11.948455"><ele>169.0</ele><time>2026-05-01T13:09:37.187Z</time></trkpt><trkpt lat="45.88611" lon="11.9482033"><ele>169.0</ele><time>2026-05-01T13:09:38.185Z</time></trkpt><trkpt lat="45.8862267" lon="11.9479583"><ele>169.0</ele><time>2026-05-01T13:09:39.187Z</time></trkpt><trkpt lat="45.88635" lon="11.9477217"><ele>169.33333333333334</ele><time>2026-05-01T13:09:40.186Z</time></trkpt><trkpt lat="45.8864783" lon="11.9474917"><ele>169.66666666666666</ele><time>2026-05-01T13:09:41.186Z</time></trkpt><trkpt lat="45.8866317" lon="11.947285"><ele>170.0</ele><time>2026-05-01T13:09:42.187Z</time></trkpt><trkpt lat="45.8867983" lon="11.947095"><ele>170.0</ele><time>2026-05-01T13:09:43.187Z</time></trkpt><trkpt lat="45.886985" lon="11.9469283"><ele>170.0</ele><time>2026-05-01T13:09:44.188Z</time></trkpt><trkpt lat="45.8871733" lon="11.9467617"><ele>170.0</ele><time>2026-05-01T13:09:45.191Z</time></trkpt><trkpt lat="45.887365" lon="11.94659"><ele>170.0</ele><time>2026-05-01T13:09:46.187Z</time></trkpt><trkpt lat="45.8875583" lon="11.94641"><ele>170.0</ele><time>2026-05-01T13:09:47.185Z</time></trkpt><trkpt lat="45.88775" lon="11.9462267"><ele>170.0</ele><time>2026-05-01T13:09:48.186Z</time></trkpt><trkpt lat="45.8879417" lon="11.9460433"><ele>170.0</ele><time>2026-05-01T13:09:49.186Z</time></trkpt><trkpt lat="45.8881367" lon="11.945865"><ele>169.5</ele><time>2026-05-01T13:09:50.185Z</time></trkpt><trkpt lat="45.8883333" lon="11.9456933"><ele>169.0</ele><time>2026-05-01T13:09:51.195Z</time></trkpt><trkpt lat="45.8885317" lon="11.9455233"><ele>169.0</ele><time>2026-05-01T13:09:52.186Z</time></trkpt><trkpt lat="45.8887283" lon="11.9453467"><ele>169.0</ele><time>2026-05-01T13:09:53.185Z</time></trkpt><trkpt lat="45.8889317" lon="11.9451717"><ele>171.5</ele><time>2026-05-01T13:09:54.187Z</time></trkpt><trkpt lat="45.8891383" lon="11.945"><ele>174.0</ele><time>2026-05-01T13:09:55.188Z</time></trkpt><trkpt lat="45.88934" lon="11.9448267"><ele>174.0</ele><time>2026-05-01T13:09:56.186Z</time></trkpt><trkpt lat="45.88953" lon="11.9446517"><ele>174.0</ele><time>2026-05-01T13:09:57.185Z</time></trkpt><trkpt lat="45.88971" lon="11.9444833"><ele>174.0</ele><time>2026-05-01T13:09:58.185Z</time></trkpt><trkpt lat="45.88988" lon="11.9443267"><ele>174.66666666666666</ele><time>2026-05-01T13:09:59.185Z</time></trkpt><trkpt lat="45.8900483" lon="11.944175"><ele>175.33333333333331</ele><time>2026-05-01T13:10:00.187Z</time></trkpt><trkpt lat="45.8902333" lon="11.9440517"><ele>176.0</ele><time>2026-05-01T13:10:01.187Z</time></trkpt><trkpt lat="45.8904433" lon="11.9439683"><ele>176.0</ele><time>2026-05-01T13:10:02.19Z</time></trkpt><trkpt lat="45.8906667" lon="11.9439167"><ele>176.0</ele><time>2026-05-01T13:10:03.186Z</time></trkpt><trkpt lat="45.8909067" lon="11.9438817"><ele>175.5</ele><time>2026-05-01T13:10:04.186Z</time></trkpt><trkpt lat="45.8911517" lon="11.94385"><ele>175.0</ele><time>2026-05-01T13:10:05.185Z</time></trkpt><trkpt lat="45.8913917" lon="11.94381"><ele>175.0</ele><time>2026-05-01T13:10:06.185Z</time></trkpt><trkpt lat="45.89163" lon="11.9437617"><ele>175.0</ele><time>2026-05-01T13:10:07.185Z</time></trkpt><trkpt lat="45.8918667" lon="11.9437083"><ele>175.5</ele><time>2026-05-01T13:10:08.186Z</time></trkpt><trkpt lat="45.8921017" lon="11.9436483"><ele>176.0</ele><time>2026-05-01T13:10:09.186Z</time></trkpt><trkpt lat="45.89234" lon="11.94357"><ele>176.0</ele><time>2026-05-01T13:10:10.187Z</time></trkpt><trkpt lat="45.8925733" lon="11.943465"><ele>176.0</ele><time>2026-05-01T13:10:11.191Z</time></trkpt><trkpt lat="45.8928" lon="11.9433283"><ele>177.0</ele><time>2026-05-01T13:10:12.185Z</time></trkpt><trkpt lat="45.8930217" lon="11.943175"><ele>178.0</ele><time>2026-05-01T13:10:13.187Z</time></trkpt><trkpt lat="45.8932383" lon="11.9430267"><ele>175.33333333333334</ele><time>2026-05-01T13:10:14.186Z</time></trkpt><trkpt lat="45.893445" lon="11.94288"><ele>172.66666666666666</ele><time>2026-05-01T13:10:15.188Z</time></trkpt><trkpt lat="45.8936417" lon="11.942745"><ele>170.0</ele><time>2026-05-01T13:10:16.186Z</time></trkpt><trkpt lat="45.8938283" lon="11.94262"><ele>172.66666666666666</ele><time>2026-05-01T13:10:17.186Z</time></trkpt><trkpt lat="45.89401" lon="11.942525"><ele>175.33333333333334</ele><time>2026-05-01T13:10:18.186Z</time></trkpt><trkpt lat="45.8941867" lon="11.942455"><ele>178.0</ele><time>2026-05-01T13:10:19.186Z</time></trkpt><trkpt lat="45.8943633" lon="11.9424133"><ele>178.0</ele><time>2026-05-01T13:10:20.187Z</time></trkpt><trkpt lat="45.8945433" lon="11.942395"><ele>178.0</ele><time>2026-05-01T13:10:21.189Z</time></trkpt><trkpt lat="45.8947267" lon="11.9424017"><ele>178.0</ele><time>2026-05-01T13:10:22.186Z</time></trkpt><trkpt lat="45.8949167" lon="11.9424267"><ele>179.66666666666669</ele><time>2026-05-01T13:10:23.186Z</time></trkpt><trkpt lat="45.8951167" lon="11.9424633"><ele>181.33333333333334</ele><time>2026-05-01T13:10:24.186Z</time></trkpt><trkpt lat="45.8953217" lon="11.9424867"><ele>183.0</ele><time>2026-05-01T13:10:25.185Z</time></trkpt><trkpt lat="45.8955283" lon="11.9425083"><ele>183.0</ele><time>2026-05-01T13:10:26.185Z</time></trkpt><trkpt lat="45.8957383" lon="11.94254"><ele>183.0</ele><time>2026-05-01T13:10:27.188Z</time></trkpt><trkpt lat="45.8959517" lon="11.9425733"><ele>183.0</ele><time>2026-05-01T13:10:28.191Z</time></trkpt><trkpt lat="45.8961683" lon="11.9426067"><ele>180.66666666666666</ele><time>2026-05-01T13:10:29.185Z</time></trkpt><trkpt lat="45.896375" lon="11.9426433"><ele>178.33333333333331</ele><time>2026-05-01T13:10:30.187Z</time></trkpt><trkpt lat="45.8965683" lon="11.9426767"><ele>176.0</ele><time>2026-05-01T13:10:31.189Z</time></trkpt><trkpt lat="45.89676" lon="11.9426967"><ele>175.33333333333331</ele><time>2026-05-01T13:10:32.19Z</time></trkpt><trkpt lat="45.8969517" lon="11.9427083"><ele>174.66666666666666</ele><time>2026-05-01T13:10:33.186Z</time></trkpt><trkpt lat="45.8971433" lon="11.9427183"><ele>174.0</ele><time>2026-05-01T13:10:34.185Z</time></trkpt><trkpt lat="45.8973367" lon="11.9427217"><ele>174.0</ele><time>2026-05-01T13:10:35.185Z</time></trkpt><trkpt lat="45.8975283" lon="11.9427117"><ele>174.0</ele><time>2026-05-01T13:10:36.191Z</time></trkpt><trkpt lat="45.897715" lon="11.9426933"><ele>174.0</ele><time>2026-05-01T13:10:37.188Z</time></trkpt><trkpt lat="45.8978867" lon="11.9426667"><ele>174.0</ele><time>2026-05-01T13:10:38.183Z</time></trkpt><trkpt lat="45.8980517" lon="11.942645"><ele>174.0</ele><time>2026-05-01T13:10:39.185Z</time></trkpt><trkpt lat="45.898205" lon="11.942625"><ele>174.0</ele><time>2026-05-01T13:10:40.185Z</time></trkpt><trkpt lat="45.8983483" lon="11.9426167"><ele>175.5</ele><time>2026-05-01T13:10:41.185Z</time></trkpt><trkpt lat="45.898485" lon="11.942615"><ele>177.0</ele><time>2026-05-01T13:10:42.188Z</time></trkpt><trkpt lat="45.8986183" lon="11.9426283"><ele>178.5</ele><time>2026-05-01T13:10:43.185Z</time></trkpt><trkpt lat="45.89875" lon="11.9426567"><ele>180.0</ele><time>2026-05-01T13:10:44.185Z</time></trkpt><trkpt lat="45.898875" lon="11.9426817"><ele>180.0</ele><time>2026-05-01T13:10:45.185Z</time></trkpt><trkpt lat="45.8989917" lon="11.94271"><ele>180.0</ele><time>2026-05-01T13:10:46.185Z</time></trkpt><trkpt lat="45.8990983" lon="11.9427417"><ele>180.0</ele><time>2026-05-01T13:10:47.184Z</time></trkpt><trkpt lat="45.8992017" lon="11.9427683"><ele>180.0</ele><time>2026-05-01T13:10:48.186Z</time></trkpt><trkpt lat="45.8992967" lon="11.9428067"><ele>180.0</ele><time>2026-05-01T13:10:49.186Z</time></trkpt><trkpt lat="45.8993717" lon="11.942865"><ele>180.57142857142856</ele><time>2026-05-01T13:10:50.185Z</time></trkpt><trkpt lat="45.8994383" lon="11.9429267"><ele>181.14285714285717</ele><time>2026-05-01T13:10:51.185Z</time></trkpt><trkpt lat="45.8994917" lon="11.9430067"><ele>181.71428571428572</ele><time>2026-05-01T13:10:52.186Z</time></trkpt><trkpt lat="45.8995183" lon="11.9431117"><ele>182.28571428571428</ele><time>2026-05-01T13:10:53.184Z</time></trkpt><trkpt lat="45.8995667" lon="11.9431833"><ele>182.85714285714283</ele><time>2026-05-01T13:10:54.184Z</time></trkpt><trkpt lat="45.8996267" lon="11.9432217"><ele>183.42857142857144</ele><time>2026-05-01T13:10:55.183Z</time></trkpt><trkpt lat="45.8996967" lon="11.9432267"><ele>184.0</ele><time>2026-05-01T13:10:56.183Z</time></trkpt><trkpt lat="45.89978" lon="11.9431483"><ele>184.0</ele><time>2026-05-01T13:10:57.186Z</time></trkpt><trkpt lat="45.89987" lon="11.943045"><ele>184.0</ele><time>2026-05-01T13:10:58.187Z</time></trkpt><trkpt lat="45.8999917" lon="11.9429883"><ele>184.0</ele><time>2026-05-01T13:10:59.185Z</time></trkpt><trkpt lat="45.900145" lon="11.9429683"><ele>184.0</ele><time>2026-05-01T13:11:00.185Z</time></trkpt><trkpt lat="45.900335" lon="11.94299"><ele>185.0</ele><time>2026-05-01T13:11:01.188Z</time></trkpt><trkpt lat="45.90055" lon="11.9429517"><ele>186.0</ele><time>2026-05-01T13:11:02.184Z</time></trkpt><trkpt lat="45.900785" lon="11.94289"><ele>185.5</ele><time>2026-05-01T13:11:03.185Z</time></trkpt><trkpt lat="45.9010233" lon="11.9428383"><ele>185.0</ele><time>2026-05-01T13:11:04.19Z</time></trkpt><trkpt lat="45.9012567" lon="11.94279"><ele>185.0</ele><time>2026-05-01T13:11:05.186Z</time></trkpt><trkpt lat="45.901475" lon="11.942745"><ele>185.0</ele><time>2026-05-01T13:11:06.187Z</time></trkpt><trkpt lat="45.9016783" lon="11.9427"><ele>185.0</ele><time>2026-05-01T13:11:07.188Z</time></trkpt><trkpt lat="45.9018733" lon="11.942655"><ele>186.0</ele><time>2026-05-01T13:11:08.187Z</time></trkpt><trkpt lat="45.9020667" lon="11.9426067"><ele>187.0</ele><time>2026-05-01T13:11:09.185Z</time></trkpt><trkpt lat="45.90226" lon="11.94255"><ele>188.0</ele><time>2026-05-01T13:11:10.186Z</time></trkpt><trkpt lat="45.9024533" lon="11.9424967"><ele>188.66666666666666</ele><time>2026-05-01T13:11:11.188Z</time></trkpt><trkpt lat="45.9026417" lon="11.942445"><ele>189.33333333333334</ele><time>2026-05-01T13:11:12.187Z</time></trkpt><trkpt lat="45.9028233" lon="11.9423933"><ele>190.0</ele><time>2026-05-01T13:11:13.188Z</time></trkpt><trkpt lat="45.9030067" lon="11.9423267"><ele>190.0</ele><time>2026-05-01T13:11:14.189Z</time></trkpt><trkpt lat="45.903185" lon="11.9422567"><ele>190.0</ele><time>2026-05-01T13:11:15.186Z</time></trkpt><trkpt lat="45.9033717" lon="11.942195"><ele>190.0</ele><time>2026-05-01T13:11:16.188Z</time></trkpt><trkpt lat="45.9035583" lon="11.9421233"><ele>189.66666666666669</ele><time>2026-05-01T13:11:17.186Z</time></trkpt><trkpt lat="45.903745" lon="11.9420517"><ele>189.33333333333334</ele><time>2026-05-01T13:11:18.187Z</time></trkpt><trkpt lat="45.9039217" lon="11.9419783"><ele>189.0</ele><time>2026-05-01T13:11:19.187Z</time></trkpt><trkpt lat="45.9040917" lon="11.9419083"><ele>189.33333333333334</ele><time>2026-05-01T13:11:20.187Z</time></trkpt><trkpt lat="45.9042517" lon="11.94184"><ele>189.66666666666669</ele><time>2026-05-01T13:11:21.188Z</time></trkpt><trkpt lat="45.9043983" lon="11.9417767"><ele>190.0</ele><time>2026-05-01T13:11:22.188Z</time></trkpt><trkpt lat="45.9045317" lon="11.9417133"><ele>190.0</ele><time>2026-05-01T13:11:23.184Z</time></trkpt><trkpt lat="45.904655" lon="11.941655"><ele>190.0</ele><time>2026-05-01T13:11:24.186Z</time></trkpt><trkpt lat="45.90477" lon="11.9415967"><ele>190.0</ele><time>2026-05-01T13:11:25.187Z</time></trkpt><trkpt lat="45.9048717" lon="11.9415383"><ele>190.0</ele><time>2026-05-01T13:11:26.186Z</time></trkpt><trkpt lat="45.9049633" lon="11.9414833"><ele>190.0</ele><time>2026-05-01T13:11:27.187Z</time></trkpt><trkpt lat="45.9050533" lon="11.9414383"><ele>190.0</ele><time>2026-05-01T13:11:28.184Z</time></trkpt><trkpt lat="45.9051517" lon="11.9414"><ele>190.0</ele><time>2026-05-01T13:11:29.184Z</time></trkpt><trkpt lat="45.9052617" lon="11.941385"><ele>190.0</ele><time>2026-05-01T13:11:30.184Z</time></trkpt><trkpt lat="45.905385" lon="11.9413967"><ele>190.0</ele><time>2026-05-01T13:11:31.187Z</time></trkpt><trkpt lat="45.9055167" lon="11.9414217"><ele>188.25</ele><time>2026-05-01T13:11:32.184Z</time></trkpt><trkpt lat="45.9056517" lon="11.94146"><ele>186.5</ele><time>2026-05-01T13:11:33.189Z</time></trkpt><trkpt lat="45.905795" lon="11.9415067"><ele>184.75</ele><time>2026-05-01T13:11:34.184Z</time></trkpt><trkpt lat="45.9059467" lon="11.9415683"><ele>183.0</ele><time>2026-05-01T13:11:35.183Z</time></trkpt><trkpt lat="45.9061017" lon="11.941635"><ele>181.66666666666666</ele><time>2026-05-01T13:11:36.185Z</time></trkpt><trkpt lat="45.9062467" lon="11.9416933"><ele>180.33333333333331</ele><time>2026-05-01T13:11:37.185Z</time></trkpt><trkpt lat="45.9063917" lon="11.9417567"><ele>179.0</ele><time>2026-05-01T13:11:38.187Z</time></trkpt><trkpt lat="45.90654" lon="11.9418283"><ele>178.66666666666666</ele><time>2026-05-01T13:11:39.188Z</time></trkpt><trkpt lat="45.90668" lon="11.9418917"><ele>178.33333333333334</ele><time>2026-05-01T13:11:40.186Z</time></trkpt><trkpt lat="45.906825" lon="11.9419583"><ele>178.0</ele><time>2026-05-01T13:11:41.188Z</time></trkpt><trkpt lat="45.9069783" lon="11.9420317"><ele>178.0</ele><time>2026-05-01T13:11:42.186Z</time></trkpt><trkpt lat="45.907135" lon="11.9421083"><ele>178.0</ele><time>2026-05-01T13:11:43.185Z</time></trkpt><trkpt lat="45.907295" lon="11.9421833"><ele>178.0</ele><time>2026-05-01T13:11:44.188Z</time></trkpt><trkpt lat="45.90745" lon="11.942255"><ele>179.0</ele><time>2026-05-01T13:11:45.189Z</time></trkpt><trkpt lat="45.907595" lon="11.94232"><ele>180.0</ele><time>2026-05-01T13:11:46.184Z</time></trkpt><trkpt lat="45.9077417" lon="11.9423833"><ele>181.0</ele><time>2026-05-01T13:11:47.184Z</time></trkpt><trkpt lat="45.907895" lon="11.9424367"><ele>181.0</ele><time>2026-05-01T13:11:48.184Z</time></trkpt><trkpt lat="45.9080583" lon="11.9424633"><ele>181.0</ele><time>2026-05-01T13:11:49.185Z</time></trkpt><trkpt lat="45.9082233" lon="11.9424617"><ele>181.0</ele><time>2026-05-01T13:11:50.187Z</time></trkpt><trkpt lat="45.9083883" lon="11.9424317"><ele>182.33333333333334</ele><time>2026-05-01T13:11:51.185Z</time></trkpt><trkpt lat="45.9085467" lon="11.9423867"><ele>183.66666666666666</ele><time>2026-05-01T13:11:52.187Z</time></trkpt><trkpt lat="45.908695" lon="11.94234"><ele>185.0</ele><time>2026-05-01T13:11:53.187Z</time></trkpt><trkpt lat="45.90885" lon="11.942285"><ele>185.0</ele><time>2026-05-01T13:11:54.187Z</time></trkpt><trkpt lat="45.9090083" lon="11.9422267"><ele>185.0</ele><time>2026-05-01T13:11:55.266Z</time></trkpt><trkpt lat="45.9091683" lon="11.9421667"><ele>185.0</ele><time>2026-05-01T13:11:56.185Z</time></trkpt><trkpt lat="45.9093317" lon="11.942105"><ele>183.66666666666666</ele><time>2026-05-01T13:11:57.184Z</time></trkpt><trkpt lat="45.90949" lon="11.9420467"><ele>182.33333333333334</ele><time>2026-05-01T13:11:58.187Z</time></trkpt><trkpt lat="45.9096417" lon="11.9419933"><ele>181.0</ele><time>2026-05-01T13:11:59.186Z</time></trkpt><trkpt lat="45.9097883" lon="11.9419383"><ele>181.0</ele><time>2026-05-01T13:12:00.183Z</time></trkpt><trkpt lat="45.9099233" lon="11.94189"><ele>181.0</ele><time>2026-05-01T13:12:01.185Z</time></trkpt><trkpt lat="45.9100617" lon="11.9418483"><ele>181.0</ele><time>2026-05-01T13:12:02.184Z</time></trkpt><trkpt lat="45.910205" lon="11.9418083"><ele>181.0</ele><time>2026-05-01T13:12:03.185Z</time></trkpt><trkpt lat="45.9103533" lon="11.941765"><ele>180.0</ele><time>2026-05-01T13:12:04.183Z</time></trkpt><trkpt lat="45.9105167" lon="11.94172"><ele>179.0</ele><time>2026-05-01T13:12:05.184Z</time></trkpt><trkpt lat="45.9106917" lon="11.9416767"><ele>178.0</ele><time>2026-05-01T13:12:06.186Z</time></trkpt><trkpt lat="45.9108733" lon="11.941635"><ele>182.66666666666669</ele><time>2026-05-01T13:12:07.184Z</time></trkpt><trkpt lat="45.9110467" lon="11.941595"><ele>187.33333333333334</ele><time>2026-05-01T13:12:08.187Z</time></trkpt><trkpt lat="45.9112267" lon="11.941555"><ele>192.0</ele><time>2026-05-01T13:12:09.186Z</time></trkpt><trkpt lat="45.9114067" lon="11.941515"><ele>192.0</ele><time>2026-05-01T13:12:10.184Z</time></trkpt><trkpt lat="45.9115917" lon="11.9414733"><ele>192.0</ele><time>2026-05-01T13:12:11.184Z</time></trkpt><trkpt lat="45.9117733" lon="11.94143"><ele>192.0</ele><time>2026-05-01T13:12:12.188Z</time></trkpt><trkpt lat="45.91194" lon="11.9413933"><ele>191.33333333333334</ele><time>2026-05-01T13:12:13.187Z</time></trkpt><trkpt lat="45.9121" lon="11.94136"><ele>190.66666666666669</ele><time>2026-05-01T13:12:14.183Z</time></trkpt><trkpt lat="45.9122617" lon="11.9413267"><ele>190.0</ele><time>2026-05-01T13:12:15.186Z</time></trkpt><trkpt lat="45.9124267" lon="11.9413017"><ele>191.66666666666669</ele><time>2026-05-01T13:12:16.186Z</time></trkpt><trkpt lat="45.9125983" lon="11.9412867"><ele>193.33333333333334</ele><time>2026-05-01T13:12:17.184Z</time></trkpt><trkpt lat="45.9127717" lon="11.941285"><ele>195.0</ele><time>2026-05-01T13:12:18.184Z</time></trkpt><trkpt lat="45.9129483" lon="11.9412967"><ele>195.0</ele><time>2026-05-01T13:12:19.185Z</time></trkpt><trkpt lat="45.9131317" lon="11.941315"><ele>195.0</ele><time>2026-05-01T13:12:20.188Z</time></trkpt><trkpt lat="45.91332" lon="11.9413417"><ele>195.0</ele><time>2026-05-01T13:12:21.186Z</time></trkpt><trkpt lat="45.9135083" lon="11.9413667"><ele>196.0</ele><time>2026-05-01T13:12:22.187Z</time></trkpt><trkpt lat="45.9136933" lon="11.94139"><ele>197.0</ele><time>2026-05-01T13:12:23.186Z</time></trkpt><trkpt lat="45.9138633" lon="11.9414133"><ele>198.0</ele><time>2026-05-01T13:12:24.185Z</time></trkpt><trkpt lat="45.9140283" lon="11.94144"><ele>198.0</ele><time>2026-05-01T13:12:25.185Z</time></trkpt><trkpt lat="45.914195" lon="11.9414683"><ele>198.0</ele><time>2026-05-01T13:12:26.185Z</time></trkpt><trkpt lat="45.914365" lon="11.9414967"><ele>198.0</ele><time>2026-05-01T13:12:27.186Z</time></trkpt><trkpt lat="45.9145333" lon="11.9415283"><ele>201.33333333333331</ele><time>2026-05-01T13:12:28.184Z</time></trkpt><trkpt lat="45.9147033" lon="11.94156"><ele>204.66666666666666</ele><time>2026-05-01T13:12:29.186Z</time></trkpt><trkpt lat="45.9148733" lon="11.94159"><ele>208.0</ele><time>2026-05-01T13:12:30.185Z</time></trkpt><trkpt lat="45.9150433" lon="11.941615"><ele>210.0</ele><time>2026-05-01T13:12:31.185Z</time></trkpt><trkpt lat="45.9152083" lon="11.9416383"><ele>212.0</ele><time>2026-05-01T13:12:32.184Z</time></trkpt><trkpt lat="45.915365" lon="11.9416717"><ele>214.0</ele><time>2026-05-01T13:12:33.185Z</time></trkpt><trkpt lat="45.915515" lon="11.9417"><ele>212.66666666666666</ele><time>2026-05-01T13:12:34.183Z</time></trkpt><trkpt lat="45.915665" lon="11.9417267"><ele>211.33333333333331</ele><time>2026-05-01T13:12:35.185Z</time></trkpt><trkpt lat="45.9158183" lon="11.9417533"><ele>210.0</ele><time>2026-05-01T13:12:36.184Z</time></trkpt><trkpt lat="45.9159783" lon="11.94178"><ele>210.0</ele><time>2026-05-01T13:12:37.186Z</time></trkpt><trkpt lat="45.9161367" lon="11.941805"><ele>210.0</ele><time>2026-05-01T13:12:38.185Z</time></trkpt><trkpt lat="45.9162983" lon="11.9418283"><ele>210.0</ele><time>2026-05-01T13:12:39.185Z</time></trkpt><trkpt lat="45.9164617" lon="11.9418467"><ele>210.0</ele><time>2026-05-01T13:12:40.184Z</time></trkpt><trkpt lat="45.9166283" lon="11.94187"><ele>210.0</ele><time>2026-05-01T13:12:41.187Z</time></trkpt><trkpt lat="45.9167983" lon="11.9418917"><ele>210.0</ele><time>2026-05-01T13:12:42.185Z</time></trkpt><trkpt lat="45.916965" lon="11.9419167"><ele>213.0</ele><time>2026-05-01T13:12:43.187Z</time></trkpt><trkpt lat="45.91714" lon="11.9419467"><ele>216.0</ele><time>2026-05-01T13:12:44.184Z</time></trkpt><trkpt lat="45.9173167" lon="11.9419783"><ele>219.0</ele><time>2026-05-01T13:12:45.188Z</time></trkpt><trkpt lat="45.9174933" lon="11.9420133"><ele>220.0</ele><time>2026-05-01T13:12:46.183Z</time></trkpt><trkpt lat="45.9176633" lon="11.9420567"><ele>221.0</ele><time>2026-05-01T13:12:47.189Z</time></trkpt><trkpt lat="45.917825" lon="11.9421133"><ele>222.0</ele><time>2026-05-01T13:12:48.185Z</time></trkpt><trkpt lat="45.9179767" lon="11.9421883"><ele>222.0</ele><time>2026-05-01T13:12:49.185Z</time></trkpt><trkpt lat="45.9181183" lon="11.9422783"><ele>222.0</ele><time>2026-05-01T13:12:50.183Z</time></trkpt><trkpt lat="45.91826" lon="11.94238"><ele>222.0</ele><time>2026-05-01T13:12:51.187Z</time></trkpt><trkpt lat="45.9183983" lon="11.9424933"><ele>221.33333333333331</ele><time>2026-05-01T13:12:52.183Z</time></trkpt><trkpt lat="45.9185333" lon="11.942615"><ele>220.66666666666666</ele><time>2026-05-01T13:12:53.184Z</time></trkpt><trkpt lat="45.9186683" lon="11.94274"><ele>220.0</ele><time>2026-05-01T13:12:54.185Z</time></trkpt><trkpt lat="45.9188" lon="11.9428667"><ele>220.0</ele><time>2026-05-01T13:12:55.185Z</time></trkpt><trkpt lat="45.9189283" lon="11.943"><ele>220.0</ele><time>2026-05-01T13:12:56.186Z</time></trkpt><trkpt lat="45.91906" lon="11.9431417"><ele>220.0</ele><time>2026-05-01T13:12:57.187Z</time></trkpt><trkpt lat="45.919195" lon="11.9432917"><ele>221.66666666666666</ele><time>2026-05-01T13:12:58.187Z</time></trkpt><trkpt lat="45.9193383" lon="11.94344"><ele>223.33333333333331</ele><time>2026-05-01T13:12:59.186Z</time></trkpt><trkpt lat="45.9194783" lon="11.9435833"><ele>225.0</ele><time>2026-05-01T13:13:00.182Z</time></trkpt><trkpt lat="45.9196167" lon="11.943715"><ele>225.0</ele><time>2026-05-01T13:13:01.183Z</time></trkpt><trkpt lat="45.9197517" lon="11.9438333"><ele>225.0</ele><time>2026-05-01T13:13:02.189Z</time></trkpt><trkpt lat="45.9198883" lon="11.9439533"><ele>225.0</ele><time>2026-05-01T13:13:03.187Z</time></trkpt><trkpt lat="45.9200133" lon="11.9440717"><ele>225.25</ele><time>2026-05-01T13:13:04.183Z</time></trkpt><trkpt lat="45.92013" lon="11.9441883"><ele>225.5</ele><time>2026-05-01T13:13:05.264Z</time></trkpt><trkpt lat="45.9202467" lon="11.9443167"><ele>225.75</ele><time>2026-05-01T13:13:06.186Z</time></trkpt><trkpt lat="45.9203717" lon="11.944455"><ele>226.0</ele><time>2026-05-01T13:13:07.185Z</time></trkpt><trkpt lat="45.9205033" lon="11.9446033"><ele>226.0</ele><time>2026-05-01T13:13:08.185Z</time></trkpt><trkpt lat="45.9206317" lon="11.9447417"><ele>226.0</ele><time>2026-05-01T13:13:09.185Z</time></trkpt><trkpt lat="45.9207467" lon="11.944865"><ele>226.0</ele><time>2026-05-01T13:13:10.187Z</time></trkpt><trkpt lat="45.9208567" lon="11.9449767"><ele>226.0</ele><time>2026-05-01T13:13:11.188Z</time></trkpt><trkpt lat="45.9209717" lon="11.94509"><ele>226.0</ele><time>2026-05-01T13:13:12.186Z</time></trkpt><trkpt lat="45.9210933" lon="11.9452"><ele>226.0</ele><time>2026-05-01T13:13:13.185Z</time></trkpt><trkpt lat="45.921225" lon="11.9452933"><ele>226.0</ele><time>2026-05-01T13:13:14.184Z</time></trkpt><trkpt lat="45.9213567" lon="11.9453583"><ele>226.0</ele><time>2026-05-01T13:13:15.186Z</time></trkpt><trkpt lat="45.9214933" lon="11.9454133"><ele>226.0</ele><time>2026-05-01T13:13:16.184Z</time></trkpt><trkpt lat="45.921635" lon="11.945455"><ele>226.0</ele><time>2026-05-01T13:13:17.185Z</time></trkpt><trkpt lat="45.9217867" lon="11.9454867"><ele>226.0</ele><time>2026-05-01T13:13:18.188Z</time></trkpt><trkpt lat="45.9219433" lon="11.9455117"><ele>226.25</ele><time>2026-05-01T13:13:19.188Z</time></trkpt><trkpt lat="45.9220933" lon="11.9455233"><ele>226.5</ele><time>2026-05-01T13:13:20.184Z</time></trkpt><trkpt lat="45.92224" lon="11.9455167"><ele>226.75</ele><time>2026-05-01T13:13:21.184Z</time></trkpt><trkpt lat="45.92238" lon="11.9455"><ele>227.0</ele><time>2026-05-01T13:13:22.183Z</time></trkpt><trkpt lat="45.9225233" lon="11.9454633"><ele>225.75</ele><time>2026-05-01T13:13:23.185Z</time></trkpt><trkpt lat="45.9226667" lon="11.9454117"><ele>224.5</ele><time>2026-05-01T13:13:24.187Z</time></trkpt><trkpt lat="45.9228017" lon="11.94535"><ele>223.25</ele><time>2026-05-01T13:13:25.187Z</time></trkpt><trkpt lat="45.9229267" lon="11.9452783"><ele>222.0</ele><time>2026-05-01T13:13:26.188Z</time></trkpt><trkpt lat="45.923055" lon="11.9451933"><ele>222.0</ele><time>2026-05-01T13:13:27.186Z</time></trkpt><trkpt lat="45.9231833" lon="11.94509"><ele>222.0</ele><time>2026-05-01T13:13:28.185Z</time></trkpt><trkpt lat="45.923315" lon="11.9449667"><ele>222.0</ele><time>2026-05-01T13:13:29.183Z</time></trkpt><trkpt lat="45.92345" lon="11.944825"><ele>223.0</ele><time>2026-05-01T13:13:30.191Z</time></trkpt><trkpt lat="45.9235767" lon="11.944675"><ele>224.0</ele><time>2026-05-01T13:13:31.186Z</time></trkpt><trkpt lat="45.9237033" lon="11.94453"><ele>225.0</ele><time>2026-05-01T13:13:32.186Z</time></trkpt><trkpt lat="45.92383" lon="11.9443883"><ele>225.0</ele><time>2026-05-01T13:13:33.188Z</time></trkpt><trkpt lat="45.9239633" lon="11.9442433"><ele>225.0</ele><time>2026-05-01T13:13:34.184Z</time></trkpt><trkpt lat="45.9241" lon="11.9440917"><ele>225.0</ele><time>2026-05-01T13:13:35.184Z</time></trkpt><trkpt lat="45.924255" lon="11.9439183"><ele>225.33333333333331</ele><time>2026-05-01T13:13:36.187Z</time></trkpt><trkpt lat="45.9244267" lon="11.9437333"><ele>225.66666666666666</ele><time>2026-05-01T13:13:37.185Z</time></trkpt><trkpt lat="45.9246117" lon="11.943545"><ele>226.0</ele><time>2026-05-01T13:13:38.186Z</time></trkpt><trkpt lat="45.9247983" lon="11.9433567"><ele>227.0</ele><time>2026-05-01T13:13:39.186Z</time></trkpt><trkpt lat="45.9249817" lon="11.943165"><ele>228.0</ele><time>2026-05-01T13:13:40.185Z</time></trkpt><trkpt lat="45.9251617" lon="11.942965"><ele>225.5</ele><time>2026-05-01T13:13:41.184Z</time></trkpt><trkpt lat="45.9253417" lon="11.9427617"><ele>223.0</ele><time>2026-05-01T13:13:42.186Z</time></trkpt><trkpt lat="45.9255267" lon="11.94256"><ele>223.66666666666666</ele><time>2026-05-01T13:13:43.184Z</time></trkpt><trkpt lat="45.9257083" lon="11.9423583"><ele>224.33333333333331</ele><time>2026-05-01T13:13:44.184Z</time></trkpt><trkpt lat="45.9258767" lon="11.942155"><ele>225.0</ele><time>2026-05-01T13:13:45.19Z</time></trkpt><trkpt lat="45.9260267" lon="11.9419517"><ele>222.66666666666669</ele><time>2026-05-01T13:13:46.184Z</time></trkpt><trkpt lat="45.9261583" lon="11.9417417"><ele>220.33333333333334</ele><time>2026-05-01T13:13:47.183Z</time></trkpt><trkpt lat="45.9262817" lon="11.9415183"><ele>218.0</ele><time>2026-05-01T13:13:48.186Z</time></trkpt><trkpt lat="45.926405" lon="11.9412867"><ele>218.0</ele><time>2026-05-01T13:13:49.185Z</time></trkpt><trkpt lat="45.926525" lon="11.9410467"><ele>218.0</ele><time>2026-05-01T13:13:50.188Z</time></trkpt><trkpt lat="45.92664" lon="11.9407967"><ele>218.0</ele><time>2026-05-01T13:13:51.184Z</time></trkpt><trkpt lat="45.926745" lon="11.9405367"><ele>216.33333333333334</ele><time>2026-05-01T13:13:52.189Z</time></trkpt><trkpt lat="45.9268383" lon="11.94027"><ele>214.66666666666669</ele><time>2026-05-01T13:13:53.184Z</time></trkpt><trkpt lat="45.9269267" lon="11.9400017"><ele>213.0</ele><time>2026-05-01T13:13:54.184Z</time></trkpt><trkpt lat="45.9270133" lon="11.9397533"><ele>213.0</ele><time>2026-05-01T13:13:55.186Z</time></trkpt><trkpt lat="45.9271017" lon="11.939515"><ele>213.0</ele><time>2026-05-01T13:13:56.185Z</time></trkpt><trkpt lat="45.92719" lon="11.9392833"><ele>213.0</ele><time>2026-05-01T13:13:57.185Z</time></trkpt><trkpt lat="45.9272767" lon="11.93905"><ele>214.0</ele><time>2026-05-01T13:13:58.186Z</time></trkpt><trkpt lat="45.9273633" lon="11.9388167"><ele>215.0</ele><time>2026-05-01T13:13:59.184Z</time></trkpt><trkpt lat="45.9274467" lon="11.9385917"><ele>216.0</ele><time>2026-05-01T13:14:00.185Z</time></trkpt><trkpt lat="45.927525" lon="11.9383733"><ele>213.66666666666669</ele><time>2026-05-01T13:14:01.184Z</time></trkpt><trkpt lat="45.9276067" lon="11.938155"><ele>211.33333333333334</ele><time>2026-05-01T13:14:02.188Z</time></trkpt><trkpt lat="45.92769" lon="11.9379533"><ele>209.0</ele><time>2026-05-01T13:14:03.185Z</time></trkpt><trkpt lat="45.927775" lon="11.93777"><ele>209.0</ele><time>2026-05-01T13:14:04.183Z</time></trkpt><trkpt lat="45.9278667" lon="11.937595"><ele>209.0</ele><time>2026-05-01T13:14:05.188Z</time></trkpt><trkpt lat="45.9279683" lon="11.9374267"><ele>209.0</ele><time>2026-05-01T13:14:06.185Z</time></trkpt><trkpt lat="45.9280867" lon="11.9372667"><ele>210.33333333333334</ele><time>2026-05-01T13:14:07.186Z</time></trkpt><trkpt lat="45.9282133" lon="11.93712"><ele>211.66666666666669</ele><time>2026-05-01T13:14:08.185Z</time></trkpt><trkpt lat="45.9283433" lon="11.93698"><ele>213.0</ele><time>2026-05-01T13:14:09.183Z</time></trkpt><trkpt lat="45.9284833" lon="11.9368433"><ele>214.0</ele><time>2026-05-01T13:14:10.186Z</time></trkpt><trkpt lat="45.9286333" lon="11.9367067"><ele>215.0</ele><time>2026-05-01T13:14:11.183Z</time></trkpt><trkpt lat="45.9287933" lon="11.9365733"><ele>216.0</ele><time>2026-05-01T13:14:12.184Z</time></trkpt><trkpt lat="45.92896" lon="11.936445"><ele>216.0</ele><time>2026-05-01T13:14:13.185Z</time></trkpt><trkpt lat="45.9291267" lon="11.9363217"><ele>216.0</ele><time>2026-05-01T13:14:14.187Z</time></trkpt><trkpt lat="45.929285" lon="11.9362067"><ele>216.0</ele><time>2026-05-01T13:14:15.187Z</time></trkpt><trkpt lat="45.9294367" lon="11.9360933"><ele>216.33333333333331</ele><time>2026-05-01T13:14:16.186Z</time></trkpt><trkpt lat="45.9295917" lon="11.9359767"><ele>216.66666666666666</ele><time>2026-05-01T13:14:17.187Z</time></trkpt><trkpt lat="45.9297417" lon="11.9358583"><ele>217.0</ele><time>2026-05-01T13:14:18.183Z</time></trkpt><trkpt lat="45.92988" lon="11.93575"><ele>217.0</ele><time>2026-05-01T13:14:19.183Z</time></trkpt><trkpt lat="45.9300067" lon="11.935645"><ele>217.0</ele><time>2026-05-01T13:14:20.187Z</time></trkpt><trkpt lat="45.9301233" lon="11.935535"><ele>217.0</ele><time>2026-05-01T13:14:21.185Z</time></trkpt><trkpt lat="45.9302383" lon="11.935405"><ele>217.0</ele><time>2026-05-01T13:14:22.186Z</time></trkpt><trkpt lat="45.9303517" lon="11.9352583"><ele>217.0</ele><time>2026-05-01T13:14:23.185Z</time></trkpt><trkpt lat="45.9304583" lon="11.9350967"><ele>217.0</ele><time>2026-05-01T13:14:24.182Z</time></trkpt><trkpt lat="45.930565" lon="11.934925"><ele>217.0</ele><time>2026-05-01T13:14:25.185Z</time></trkpt><trkpt lat="45.9306617" lon="11.9347417"><ele>217.0</ele><time>2026-05-01T13:14:26.184Z</time></trkpt><trkpt lat="45.9307517" lon="11.93455"><ele>217.0</ele><time>2026-05-01T13:14:27.186Z</time></trkpt><trkpt lat="45.9308367" lon="11.9343483"><ele>217.0</ele><time>2026-05-01T13:14:28.186Z</time></trkpt><trkpt lat="45.9309133" lon="11.9341267"><ele>216.33333333333331</ele><time>2026-05-01T13:14:29.184Z</time></trkpt><trkpt lat="45.9309817" lon="11.9339133"><ele>215.66666666666669</ele><time>2026-05-01T13:14:30.186Z</time></trkpt><trkpt lat="45.93105" lon="11.9337117"><ele>215.0</ele><time>2026-05-01T13:14:31.187Z</time></trkpt><trkpt lat="45.9311233" lon="11.93351"><ele>215.0</ele><time>2026-05-01T13:14:32.186Z</time></trkpt><trkpt lat="45.9312" lon="11.933305"><ele>215.0</ele><time>2026-05-01T13:14:33.188Z</time></trkpt><trkpt lat="45.9312783" lon="11.9330967"><ele>215.0</ele><time>2026-05-01T13:14:34.186Z</time></trkpt><trkpt lat="45.9313617" lon="11.9328883"><ele>215.0</ele><time>2026-05-01T13:14:35.185Z</time></trkpt><trkpt lat="45.931445" lon="11.9326733"><ele>215.0</ele><time>2026-05-01T13:14:36.185Z</time></trkpt><trkpt lat="45.9315267" lon="11.9324517"><ele>215.0</ele><time>2026-05-01T13:14:37.184Z</time></trkpt><trkpt lat="45.931605" lon="11.9322267"><ele>215.66666666666669</ele><time>2026-05-01T13:14:38.186Z</time></trkpt><trkpt lat="45.9316783" lon="11.9319883"><ele>216.33333333333331</ele><time>2026-05-01T13:14:39.185Z</time></trkpt><trkpt lat="45.9317417" lon="11.93174"><ele>217.0</ele><time>2026-05-01T13:14:40.19Z</time></trkpt><trkpt lat="45.9317983" lon="11.9314983"><ele>215.66666666666666</ele><time>2026-05-01T13:14:41.186Z</time></trkpt><trkpt lat="45.9318483" lon="11.9312633"><ele>214.33333333333331</ele><time>2026-05-01T13:14:42.185Z</time></trkpt><trkpt lat="45.931895" lon="11.9310283"><ele>213.0</ele><time>2026-05-01T13:14:43.185Z</time></trkpt><trkpt lat="45.93194" lon="11.9307867"><ele>212.0</ele><time>2026-05-01T13:14:44.184Z</time></trkpt><trkpt lat="45.9319867" lon="11.9305367"><ele>211.0</ele><time>2026-05-01T13:14:45.187Z</time></trkpt><trkpt lat="45.932035" lon="11.9302783"><ele>210.0</ele><time>2026-05-01T13:14:46.187Z</time></trkpt><trkpt lat="45.9320883" lon="11.9300117"><ele>210.0</ele><time>2026-05-01T13:14:47.185Z</time></trkpt><trkpt lat="45.932145" lon="11.929745"><ele>210.0</ele><time>2026-05-01T13:14:48.186Z</time></trkpt><trkpt lat="45.9322017" lon="11.9294833"><ele>210.0</ele><time>2026-05-01T13:14:49.183Z</time></trkpt><trkpt lat="45.9322567" lon="11.9292283"><ele>210.0</ele><time>2026-05-01T13:14:50.186Z</time></trkpt><trkpt lat="45.9323117" lon="11.9289683"><ele>210.0</ele><time>2026-05-01T13:14:51.184Z</time></trkpt><trkpt lat="45.932375" lon="11.9287033"><ele>210.0</ele><time>2026-05-01T13:14:52.186Z</time></trkpt><trkpt lat="45.932445" lon="11.9284383"><ele>210.66666666666669</ele><time>2026-05-01T13:14:53.188Z</time></trkpt><trkpt lat="45.9325267" lon="11.92819"><ele>211.33333333333334</ele><time>2026-05-01T13:14:54.188Z</time></trkpt><trkpt lat="45.932615" lon="11.9279583"><ele>212.0</ele><time>2026-05-01T13:14:55.186Z</time></trkpt><trkpt lat="45.9327067" lon="11.9277233"><ele>206.0</ele><time>2026-05-01T13:14:56.186Z</time></trkpt><trkpt lat="45.932805" lon="11.9274917"><ele>200.0</ele><time>2026-05-01T13:14:57.186Z</time></trkpt><trkpt lat="45.9329067" lon="11.9272517"><ele>194.0</ele><time>2026-05-01T13:14:58.193Z</time></trkpt><trkpt lat="45.9330217" lon="11.9270217"><ele>194.0</ele><time>2026-05-01T13:14:59.186Z</time></trkpt><trkpt lat="45.9331433" lon="11.9268067"><ele>194.0</ele><time>2026-05-01T13:15:00.187Z</time></trkpt><trkpt lat="45.9332633" lon="11.9266017"><ele>194.0</ele><time>2026-05-01T13:15:01.186Z</time></trkpt><trkpt lat="45.9333767" lon="11.9263967"><ele>193.66666666666669</ele><time>2026-05-01T13:15:02.185Z</time></trkpt><trkpt lat="45.93349" lon="11.9261883"><ele>193.33333333333331</ele><time>2026-05-01T13:15:03.185Z</time></trkpt><trkpt lat="45.9336067" lon="11.9259733"><ele>193.0</ele><time>2026-05-01T13:15:04.187Z</time></trkpt><trkpt lat="45.9337233" lon="11.9257533"><ele>193.0</ele><time>2026-05-01T13:15:05.187Z</time></trkpt><trkpt lat="45.9338433" lon="11.92553"><ele>193.0</ele><time>2026-05-01T13:15:06.187Z</time></trkpt><trkpt lat="45.933965" lon="11.9253017"><ele>193.0</ele><time>2026-05-01T13:15:07.187Z</time></trkpt><trkpt lat="45.93409" lon="11.925065"><ele>190.33333333333331</ele><time>2026-05-01T13:15:08.19Z</time></trkpt><trkpt lat="45.934215" lon="11.9248267"><ele>187.66666666666666</ele><time>2026-05-01T13:15:09.188Z</time></trkpt><trkpt lat="45.9343383" lon="11.9245967"><ele>185.0</ele><time>2026-05-01T13:15:10.187Z</time></trkpt><trkpt lat="45.9344567" lon="11.9243767"><ele>187.33333333333331</ele><time>2026-05-01T13:15:11.183Z</time></trkpt><trkpt lat="45.9345767" lon="11.9241583"><ele>189.66666666666666</ele><time>2026-05-01T13:15:12.186Z</time></trkpt><trkpt lat="45.9346967" lon="11.9239383"><ele>192.0</ele><time>2026-05-01T13:15:13.185Z</time></trkpt><trkpt lat="45.934815" lon="11.9237117"><ele>192.0</ele><time>2026-05-01T13:15:14.186Z</time></trkpt><trkpt lat="45.934935" lon="11.9234817"><ele>192.0</ele><time>2026-05-01T13:15:15.19Z</time></trkpt><trkpt lat="45.9350533" lon="11.9232633"><ele>192.0</ele><time>2026-05-01T13:15:16.186Z</time></trkpt><trkpt lat="45.9351717" lon="11.92306"><ele>193.33333333333331</ele><time>2026-05-01T13:15:17.186Z</time></trkpt><trkpt lat="45.9352933" lon="11.9228633"><ele>194.66666666666666</ele><time>2026-05-01T13:15:18.188Z</time></trkpt><trkpt lat="45.9354183" lon="11.9226633"><ele>196.0</ele><time>2026-05-01T13:15:19.185Z</time></trkpt><trkpt lat="45.935535" lon="11.9224483"><ele>196.0</ele><time>2026-05-01T13:15:20.185Z</time></trkpt><trkpt lat="45.935645" lon="11.9222183"><ele>196.0</ele><time>2026-05-01T13:15:21.187Z</time></trkpt><trkpt lat="45.9357583" lon="11.9219883"><ele>196.0</ele><time>2026-05-01T13:15:22.189Z</time></trkpt><trkpt lat="45.935875" lon="11.921775"><ele>193.66666666666666</ele><time>2026-05-01T13:15:23.187Z</time></trkpt><trkpt lat="45.9359917" lon="11.9215817"><ele>191.33333333333331</ele><time>2026-05-01T13:15:24.185Z</time></trkpt><trkpt lat="45.9361067" lon="11.9213983"><ele>189.0</ele><time>2026-05-01T13:15:25.188Z</time></trkpt><trkpt lat="45.9362167" lon="11.921215"><ele>189.0</ele><time>2026-05-01T13:15:26.186Z</time></trkpt><trkpt lat="45.9363433" lon="11.9210483"><ele>189.0</ele><time>2026-05-01T13:15:27.186Z</time></trkpt><trkpt lat="45.936495" lon="11.920905"><ele>189.0</ele><time>2026-05-01T13:15:28.185Z</time></trkpt><trkpt lat="45.9366583" lon="11.920785"><ele>190.0</ele><time>2026-05-01T13:15:29.188Z</time></trkpt><trkpt lat="45.9368317" lon="11.92067"><ele>191.0</ele><time>2026-05-01T13:15:30.186Z</time></trkpt><trkpt lat="45.9370033" lon="11.9205533"><ele>192.0</ele><time>2026-05-01T13:15:31.186Z</time></trkpt><trkpt lat="45.9371667" lon="11.9204383"><ele>192.0</ele><time>2026-05-01T13:15:32.189Z</time></trkpt><trkpt lat="45.9373267" lon="11.9203433"><ele>192.0</ele><time>2026-05-01T13:15:33.187Z</time></trkpt><trkpt lat="45.93749" lon="11.92027"><ele>192.0</ele><time>2026-05-01T13:15:34.186Z</time></trkpt><trkpt lat="45.9376583" lon="11.9202017"><ele>191.66666666666666</ele><time>2026-05-01T13:15:35.185Z</time></trkpt><trkpt lat="45.9378233" lon="11.92012"><ele>191.33333333333331</ele><time>2026-05-01T13:15:36.184Z</time></trkpt><trkpt lat="45.93798" lon="11.9200433"><ele>191.0</ele><time>2026-05-01T13:15:37.186Z</time></trkpt><trkpt lat="45.9381333" lon="11.919975"><ele>193.66666666666666</ele><time>2026-05-01T13:15:38.188Z</time></trkpt><trkpt lat="45.9382783" lon="11.91992"><ele>196.33333333333331</ele><time>2026-05-01T13:15:39.185Z</time></trkpt><trkpt lat="45.9384283" lon="11.919875"><ele>199.0</ele><time>2026-05-01T13:15:40.187Z</time></trkpt><trkpt lat="45.9385817" lon="11.9198483"><ele>199.0</ele><time>2026-05-01T13:15:41.186Z</time></trkpt><trkpt lat="45.9387467" lon="11.919835"><ele>199.0</ele><time>2026-05-01T13:15:42.185Z</time></trkpt><trkpt lat="45.9389133" lon="11.9198217"><ele>199.0</ele><time>2026-05-01T13:15:43.183Z</time></trkpt><trkpt lat="45.9390867" lon="11.919805"><ele>199.0</ele><time>2026-05-01T13:15:44.185Z</time></trkpt><trkpt lat="45.93925" lon="11.91979"><ele>199.0</ele><time>2026-05-01T13:15:45.185Z</time></trkpt><trkpt lat="45.9394017" lon="11.9197767"><ele>199.0</ele><time>2026-05-01T13:15:46.183Z</time></trkpt><trkpt lat="45.939545" lon="11.9197633"><ele>199.0</ele><time>2026-05-01T13:15:47.184Z</time></trkpt><trkpt lat="45.9396883" lon="11.9197483"><ele>199.0</ele><time>2026-05-01T13:15:48.187Z</time></trkpt><trkpt lat="45.9398333" lon="11.91974"><ele>199.0</ele><time>2026-05-01T13:15:49.184Z</time></trkpt><trkpt lat="45.93998" lon="11.9197383"><ele>199.0</ele><time>2026-05-01T13:15:50.185Z</time></trkpt><trkpt lat="45.940135" lon="11.9197533"><ele>200.33333333333331</ele><time>2026-05-01T13:15:51.183Z</time></trkpt><trkpt lat="45.9402933" lon="11.919785"><ele>201.66666666666669</ele><time>2026-05-01T13:15:52.184Z</time></trkpt><trkpt lat="45.9404583" lon="11.9198417"><ele>203.0</ele><time>2026-05-01T13:15:53.184Z</time></trkpt><trkpt lat="45.9406267" lon="11.9199183"><ele>203.0</ele><time>2026-05-01T13:15:54.184Z</time></trkpt><trkpt lat="45.9407933" lon="11.9200167"><ele>203.0</ele><time>2026-05-01T13:15:55.185Z</time></trkpt><trkpt lat="45.940965" lon="11.9201367"><ele>203.0</ele><time>2026-05-01T13:15:56.187Z</time></trkpt><trkpt lat="45.9411417" lon="11.9202583"><ele>201.33333333333334</ele><time>2026-05-01T13:15:57.187Z</time></trkpt><trkpt lat="45.94132" lon="11.9203867"><ele>199.66666666666669</ele><time>2026-05-01T13:15:58.185Z</time></trkpt><trkpt lat="45.9414967" lon="11.920515"><ele>198.0</ele><time>2026-05-01T13:15:59.187Z</time></trkpt><trkpt lat="45.9416667" lon="11.92063"><ele>198.66666666666669</ele><time>2026-05-01T13:16:00.184Z</time></trkpt><trkpt lat="45.94182" lon="11.9207383"><ele>199.33333333333334</ele><time>2026-05-01T13:16:01.184Z</time></trkpt><trkpt lat="45.9419683" lon="11.9208433"><ele>200.0</ele><time>2026-05-01T13:16:02.187Z</time></trkpt><trkpt lat="45.94212" lon="11.9209483"><ele>200.0</ele><time>2026-05-01T13:16:03.185Z</time></trkpt><trkpt lat="45.942275" lon="11.9210583"><ele>200.0</ele><time>2026-05-01T13:16:04.184Z</time></trkpt><trkpt lat="45.9424283" lon="11.9211667"><ele>200.0</ele><time>2026-05-01T13:16:05.185Z</time></trkpt><trkpt lat="45.942585" lon="11.9212717"><ele>205.0</ele><time>2026-05-01T13:16:06.187Z</time></trkpt><trkpt lat="45.942735" lon="11.9213733"><ele>210.0</ele><time>2026-05-01T13:16:07.184Z</time></trkpt><trkpt lat="45.9428833" lon="11.9214767"><ele>215.0</ele><time>2026-05-01T13:16:08.183Z</time></trkpt><trkpt lat="45.943025" lon="11.9215683"><ele>215.0</ele><time>2026-05-01T13:16:09.186Z</time></trkpt><trkpt lat="45.9431617" lon="11.9216533"><ele>215.0</ele><time>2026-05-01T13:16:10.187Z</time></trkpt><trkpt lat="45.9433067" lon="11.9217267"><ele>215.0</ele><time>2026-05-01T13:16:11.189Z</time></trkpt><trkpt lat="45.94346" lon="11.9217883"><ele>208.66666666666669</ele><time>2026-05-01T13:16:12.186Z</time></trkpt><trkpt lat="45.9436233" lon="11.9218433"><ele>202.33333333333331</ele><time>2026-05-01T13:16:13.183Z</time></trkpt><trkpt lat="45.9437917" lon="11.921895"><ele>196.0</ele><time>2026-05-01T13:16:14.184Z</time></trkpt><trkpt lat="45.9439667" lon="11.9219283"><ele>196.0</ele><time>2026-05-01T13:16:15.184Z</time></trkpt><trkpt lat="45.9441517" lon="11.9219567"><ele>196.0</ele><time>2026-05-01T13:16:16.183Z</time></trkpt><trkpt lat="45.9443267" lon="11.9219833"><ele>196.0</ele><time>2026-05-01T13:16:17.187Z</time></trkpt><trkpt lat="45.94449" lon="11.92201"><ele>200.0</ele><time>2026-05-01T13:16:18.184Z</time></trkpt><trkpt lat="45.9446567" lon="11.9220583"><ele>204.0</ele><time>2026-05-01T13:16:19.184Z</time></trkpt><trkpt lat="45.9448167" lon="11.9221267"><ele>208.0</ele><time>2026-05-01T13:16:20.186Z</time></trkpt><trkpt lat="45.94497" lon="11.9221967"><ele>206.75</ele><time>2026-05-01T13:16:21.185Z</time></trkpt><trkpt lat="45.945115" lon="11.9222583"><ele>205.5</ele><time>2026-05-01T13:16:22.188Z</time></trkpt><trkpt lat="45.9452517" lon="11.922315"><ele>204.25</ele><time>2026-05-01T13:16:23.184Z</time></trkpt><trkpt lat="45.9453917" lon="11.9223733"><ele>203.0</ele><time>2026-05-01T13:16:24.184Z</time></trkpt><trkpt lat="45.9455333" lon="11.9224133"><ele>203.0</ele><time>2026-05-01T13:16:25.187Z</time></trkpt><trkpt lat="45.9456783" lon="11.9224283"><ele>203.0</ele><time>2026-05-01T13:16:26.187Z</time></trkpt><trkpt lat="45.945825" lon="11.9224283"><ele>203.0</ele><time>2026-05-01T13:16:27.188Z</time></trkpt><trkpt lat="45.945965" lon="11.9224217"><ele>203.0</ele><time>2026-05-01T13:16:28.186Z</time></trkpt><trkpt lat="45.9461067" lon="11.9224233"><ele>209.0</ele><time>2026-05-01T13:16:29.184Z</time></trkpt><trkpt lat="45.9462567" lon="11.9224333"><ele>215.0</ele><time>2026-05-01T13:16:30.185Z</time></trkpt><trkpt lat="45.946415" lon="11.9224583"><ele>221.0</ele><time>2026-05-01T13:16:31.185Z</time></trkpt><trkpt lat="45.9465783" lon="11.92251"><ele>215.33333333333334</ele><time>2026-05-01T13:16:32.187Z</time></trkpt><trkpt lat="45.94674" lon="11.92257"><ele>209.66666666666669</ele><time>2026-05-01T13:16:33.184Z</time></trkpt><trkpt lat="45.9469067" lon="11.9226383"><ele>204.0</ele><time>2026-05-01T13:16:34.184Z</time></trkpt><trkpt lat="45.947075" lon="11.92271"><ele>204.0</ele><time>2026-05-01T13:16:35.184Z</time></trkpt><trkpt lat="45.9472467" lon="11.92277"><ele>204.0</ele><time>2026-05-01T13:16:36.185Z</time></trkpt><trkpt lat="45.9474133" lon="11.9228267"><ele>204.0</ele><time>2026-05-01T13:16:37.184Z</time></trkpt><trkpt lat="45.9475717" lon="11.922885"><ele>208.66666666666669</ele><time>2026-05-01T13:16:38.188Z</time></trkpt><trkpt lat="45.9477283" lon="11.9229317"><ele>213.33333333333334</ele><time>2026-05-01T13:16:39.188Z</time></trkpt><trkpt lat="45.94789" lon="11.9230083"><ele>218.0</ele><time>2026-05-01T13:16:40.186Z</time></trkpt><trkpt lat="45.94805" lon="11.9231017"><ele>218.0</ele><time>2026-05-01T13:16:41.186Z</time></trkpt><trkpt lat="45.9482067" lon="11.9232233"><ele>218.0</ele><time>2026-05-01T13:16:42.184Z</time></trkpt><trkpt lat="45.948365" lon="11.9233667"><ele>218.0</ele><time>2026-05-01T13:16:43.185Z</time></trkpt><trkpt lat="45.9485217" lon="11.9235267"><ele>215.0</ele><time>2026-05-01T13:16:44.185Z</time></trkpt><trkpt lat="45.9486783" lon="11.9237067"><ele>212.0</ele><time>2026-05-01T13:16:45.184Z</time></trkpt><trkpt lat="45.9488317" lon="11.92391"><ele>209.0</ele><time>2026-05-01T13:16:46.189Z</time></trkpt><trkpt lat="45.94898" lon="11.9241183"><ele>211.66666666666669</ele><time>2026-05-01T13:16:47.187Z</time></trkpt><trkpt lat="45.9491333" lon="11.9243217"><ele>214.33333333333331</ele><time>2026-05-01T13:16:48.188Z</time></trkpt><trkpt lat="45.9492933" lon="11.9245183"><ele>217.0</ele><time>2026-05-01T13:16:49.186Z</time></trkpt><trkpt lat="45.9494583" lon="11.92471"><ele>217.0</ele><time>2026-05-01T13:16:50.185Z</time></trkpt><trkpt lat="45.949615" lon="11.9248933"><ele>217.0</ele><time>2026-05-01T13:16:51.184Z</time></trkpt><trkpt lat="45.9497617" lon="11.9250717"><ele>217.0</ele><time>2026-05-01T13:16:52.185Z</time></trkpt><trkpt lat="45.9499033" lon="11.9252533"><ele>217.0</ele><time>2026-05-01T13:16:53.187Z</time></trkpt><trkpt lat="45.9500517" lon="11.9254333"><ele>217.0</ele><time>2026-05-01T13:16:54.186Z</time></trkpt><trkpt lat="45.9502067" lon="11.925605"><ele>217.0</ele><time>2026-05-01T13:16:55.186Z</time></trkpt><trkpt lat="45.9503683" lon="11.9257667"><ele>210.66666666666666</ele><time>2026-05-01T13:16:56.186Z</time></trkpt><trkpt lat="45.95053" lon="11.9259067"><ele>204.33333333333331</ele><time>2026-05-01T13:16:57.186Z</time></trkpt><trkpt lat="45.9506933" lon="11.9260317"><ele>198.0</ele><time>2026-05-01T13:16:58.187Z</time></trkpt><trkpt lat="45.95085" lon="11.9261483"><ele>201.33333333333331</ele><time>2026-05-01T13:16:59.186Z</time></trkpt><trkpt lat="45.9510083" lon="11.9262633"><ele>204.66666666666666</ele><time>2026-05-01T13:17:00.186Z</time></trkpt><trkpt lat="45.9511667" lon="11.92638"><ele>208.0</ele><time>2026-05-01T13:17:01.186Z</time></trkpt><trkpt lat="45.9513283" lon="11.9265033"><ele>208.0</ele><time>2026-05-01T13:17:02.186Z</time></trkpt><trkpt lat="45.95149" lon="11.9266333"><ele>208.0</ele><time>2026-05-01T13:17:03.186Z</time></trkpt><trkpt lat="45.9516533" lon="11.926765"><ele>208.0</ele><time>2026-05-01T13:17:04.185Z</time></trkpt><trkpt lat="45.9518183" lon="11.9268967"><ele>207.33333333333331</ele><time>2026-05-01T13:17:05.185Z</time></trkpt><trkpt lat="45.9519817" lon="11.9270267"><ele>206.66666666666669</ele><time>2026-05-01T13:17:06.184Z</time></trkpt><trkpt lat="45.952135" lon="11.9271517"><ele>206.0</ele><time>2026-05-01T13:17:07.185Z</time></trkpt><trkpt lat="45.95228" lon="11.9272817"><ele>206.0</ele><time>2026-05-01T13:17:08.185Z</time></trkpt><trkpt lat="45.952425" lon="11.927425"><ele>206.0</ele><time>2026-05-01T13:17:09.184Z</time></trkpt><trkpt lat="45.9525717" lon="11.9275783"><ele>206.0</ele><time>2026-05-01T13:17:10.183Z</time></trkpt><trkpt lat="45.9527167" lon="11.92774"><ele>207.66666666666669</ele><time>2026-05-01T13:17:11.189Z</time></trkpt><trkpt lat="45.9528633" lon="11.9279033"><ele>209.33333333333331</ele><time>2026-05-01T13:17:12.184Z</time></trkpt><trkpt lat="45.9530133" lon="11.928055"><ele>211.0</ele><time>2026-05-01T13:17:13.187Z</time></trkpt><trkpt lat="45.9531617" lon="11.92819"><ele>211.0</ele><time>2026-05-01T13:17:14.185Z</time></trkpt><trkpt lat="45.9533067" lon="11.92831"><ele>211.0</ele><time>2026-05-01T13:17:15.185Z</time></trkpt><trkpt lat="45.9534517" lon="11.9284233"><ele>211.0</ele><time>2026-05-01T13:17:16.184Z</time></trkpt><trkpt lat="45.9536033" lon="11.9285383"><ele>209.66666666666666</ele><time>2026-05-01T13:17:17.186Z</time></trkpt><trkpt lat="45.9537633" lon="11.9286483"><ele>208.33333333333331</ele><time>2026-05-01T13:17:18.188Z</time></trkpt><trkpt lat="45.9539267" lon="11.9287567"><ele>207.0</ele><time>2026-05-01T13:17:19.185Z</time></trkpt><trkpt lat="45.9540917" lon="11.9288683"><ele>212.0</ele><time>2026-05-01T13:17:20.183Z</time></trkpt><trkpt lat="45.9542533" lon="11.9289817"><ele>217.0</ele><time>2026-05-01T13:17:21.185Z</time></trkpt><trkpt lat="45.954415" lon="11.9291"><ele>222.0</ele><time>2026-05-01T13:17:22.186Z</time></trkpt><trkpt lat="45.9545717" lon="11.92921"><ele>216.66666666666669</ele><time>2026-05-01T13:17:23.184Z</time></trkpt><trkpt lat="45.9547183" lon="11.9293167"><ele>211.33333333333334</ele><time>2026-05-01T13:17:24.186Z</time></trkpt><trkpt lat="45.95486" lon="11.9294233"><ele>206.0</ele><time>2026-05-01T13:17:25.189Z</time></trkpt><trkpt lat="45.9549917" lon="11.92954"><ele>217.33333333333334</ele><time>2026-05-01T13:17:26.186Z</time></trkpt><trkpt lat="45.9551233" lon="11.929675"><ele>228.66666666666669</ele><time>2026-05-01T13:17:27.186Z</time></trkpt><trkpt lat="45.9552467" lon="11.9298433"><ele>240.0</ele><time>2026-05-01T13:17:28.185Z</time></trkpt><trkpt lat="45.9553583" lon="11.9300417"><ele>233.66666666666669</ele><time>2026-05-01T13:17:29.184Z</time></trkpt><trkpt lat="45.955465" lon="11.9302633"><ele>227.33333333333334</ele><time>2026-05-01T13:17:30.189Z</time></trkpt><trkpt lat="45.9555683" lon="11.9305067"><ele>221.0</ele><time>2026-05-01T13:17:31.185Z</time></trkpt><trkpt lat="45.95566" lon="11.930745"><ele>216.66666666666669</ele><time>2026-05-01T13:17:32.186Z</time></trkpt><trkpt lat="45.955745" lon="11.93096"><ele>212.33333333333331</ele><time>2026-05-01T13:17:33.185Z</time></trkpt><trkpt lat="45.9558317" lon="11.93116"><ele>208.0</ele><time>2026-05-01T13:17:34.184Z</time></trkpt><trkpt lat="45.9559217" lon="11.9313617"><ele>210.66666666666666</ele><time>2026-05-01T13:17:35.184Z</time></trkpt><trkpt lat="45.95602" lon="11.9315683"><ele>213.33333333333331</ele><time>2026-05-01T13:17:36.185Z</time></trkpt><trkpt lat="45.95613" lon="11.9317717"><ele>216.0</ele><time>2026-05-01T13:17:37.186Z</time></trkpt><trkpt lat="45.9562467" lon="11.931965"><ele>216.0</ele><time>2026-05-01T13:17:38.188Z</time></trkpt><trkpt lat="45.9563617" lon="11.9321383"><ele>216.0</ele><time>2026-05-01T13:17:39.184Z</time></trkpt><trkpt lat="45.95648" lon="11.9323067"><ele>216.0</ele><time>2026-05-01T13:17:40.185Z</time></trkpt><trkpt lat="45.9566067" lon="11.93248"><ele>215.66666666666669</ele><time>2026-05-01T13:17:41.184Z</time></trkpt><trkpt lat="45.9567417" lon="11.9326567"><ele>215.33333333333334</ele><time>2026-05-01T13:17:42.185Z</time></trkpt><trkpt lat="45.95688" lon="11.9328333"><ele>215.0</ele><time>2026-05-01T13:17:43.189Z</time></trkpt><trkpt lat="45.9570217" lon="11.933005"><ele>215.0</ele><time>2026-05-01T13:17:44.185Z</time></trkpt><trkpt lat="45.95717" lon="11.9331617"><ele>215.0</ele><time>2026-05-01T13:17:45.186Z</time></trkpt><trkpt lat="45.9573167" lon="11.9333"><ele>215.0</ele><time>2026-05-01T13:17:46.184Z</time></trkpt><trkpt lat="45.95747" lon="11.93342"><ele>210.66666666666669</ele><time>2026-05-01T13:17:47.186Z</time></trkpt><trkpt lat="45.9576333" lon="11.93353"><ele>206.33333333333331</ele><time>2026-05-01T13:17:48.186Z</time></trkpt><trkpt lat="45.9578067" lon="11.9336183"><ele>202.0</ele><time>2026-05-01T13:17:49.187Z</time></trkpt><trkpt lat="45.9579833" lon="11.9336967"><ele>202.0</ele><time>2026-05-01T13:17:50.183Z</time></trkpt><trkpt lat="45.9581517" lon="11.9337683"><ele>202.0</ele><time>2026-05-01T13:17:51.185Z</time></trkpt><trkpt lat="45.958315" lon="11.93383"><ele>202.0</ele><time>2026-05-01T13:17:52.186Z</time></trkpt><trkpt lat="45.9584833" lon="11.9338883"><ele>203.0</ele><time>2026-05-01T13:17:53.185Z</time></trkpt><trkpt lat="45.9586567" lon="11.9339367"><ele>204.0</ele><time>2026-05-01T13:17:54.19Z</time></trkpt><trkpt lat="45.958835" lon="11.93397"><ele>205.0</ele><time>2026-05-01T13:17:55.185Z</time></trkpt><trkpt lat="45.959015" lon="11.9339833"><ele>205.33333333333331</ele><time>2026-05-01T13:17:56.186Z</time></trkpt><trkpt lat="45.9592017" lon="11.9339817"><ele>205.66666666666669</ele><time>2026-05-01T13:17:57.186Z</time></trkpt><trkpt lat="45.95939" lon="11.9339617"><ele>206.0</ele><time>2026-05-01T13:17:58.183Z</time></trkpt><trkpt lat="45.9595733" lon="11.933925"><ele>206.0</ele><time>2026-05-01T13:17:59.188Z</time></trkpt><trkpt lat="45.959755" lon="11.93388"><ele>206.0</ele><time>2026-05-01T13:18:00.186Z</time></trkpt><trkpt lat="45.9599367" lon="11.93382"><ele>206.0</ele><time>2026-05-01T13:18:01.185Z</time></trkpt><trkpt lat="45.960115" lon="11.933765"><ele>204.0</ele><time>2026-05-01T13:18:02.186Z</time></trkpt><trkpt lat="45.960285" lon="11.9337133"><ele>202.0</ele><time>2026-05-01T13:18:03.185Z</time></trkpt><trkpt lat="45.9604533" lon="11.9336633"><ele>200.0</ele><time>2026-05-01T13:18:04.185Z</time></trkpt><trkpt lat="45.9606217" lon="11.9336117"><ele>200.0</ele><time>2026-05-01T13:18:05.186Z</time></trkpt><trkpt lat="45.960795" lon="11.9335583"><ele>200.0</ele><time>2026-05-01T13:18:06.186Z</time></trkpt><trkpt lat="45.9609717" lon="11.9335067"><ele>200.0</ele><time>2026-05-01T13:18:07.183Z</time></trkpt><trkpt lat="45.9611567" lon="11.933455"><ele>201.0</ele><time>2026-05-01T13:18:08.186Z</time></trkpt><trkpt lat="45.961345" lon="11.933405"><ele>202.0</ele><time>2026-05-01T13:18:09.184Z</time></trkpt><trkpt lat="45.9615317" lon="11.933355"><ele>203.0</ele><time>2026-05-01T13:18:10.185Z</time></trkpt><trkpt lat="45.9617167" lon="11.9333017"><ele>203.0</ele><time>2026-05-01T13:18:11.185Z</time></trkpt><trkpt lat="45.961895" lon="11.9332533"><ele>203.0</ele><time>2026-05-01T13:18:12.187Z</time></trkpt><trkpt lat="45.9620683" lon="11.9332133"><ele>203.0</ele><time>2026-05-01T13:18:13.189Z</time></trkpt><trkpt lat="45.962245" lon="11.9331633"><ele>203.0</ele><time>2026-05-01T13:18:14.189Z</time></trkpt><trkpt lat="45.962425" lon="11.9331083"><ele>203.0</ele><time>2026-05-01T13:18:15.189Z</time></trkpt><trkpt lat="45.9626067" lon="11.9330433"><ele>203.0</ele><time>2026-05-01T13:18:16.187Z</time></trkpt><trkpt lat="45.9627917" lon="11.9329717"><ele>200.66666666666669</ele><time>2026-05-01T13:18:17.185Z</time></trkpt><trkpt lat="45.9629817" lon="11.9328917"><ele>198.33333333333331</ele><time>2026-05-01T13:18:18.188Z</time></trkpt><trkpt lat="45.9631733" lon="11.9328033"><ele>196.0</ele><time>2026-05-01T13:18:19.185Z</time></trkpt><trkpt lat="45.9633633" lon="11.9327067"><ele>195.66666666666666</ele><time>2026-05-01T13:18:20.186Z</time></trkpt><trkpt lat="45.9635383" lon="11.9326067"><ele>195.33333333333331</ele><time>2026-05-01T13:18:21.189Z</time></trkpt><trkpt lat="45.963705" lon="11.9325083"><ele>195.0</ele><time>2026-05-01T13:18:22.187Z</time></trkpt><trkpt lat="45.9638667" lon="11.932415"><ele>196.0</ele><time>2026-05-01T13:18:23.182Z</time></trkpt><trkpt lat="45.9640183" lon="11.93232"><ele>197.0</ele><time>2026-05-01T13:18:24.186Z</time></trkpt><trkpt lat="45.9641733" lon="11.9322267"><ele>198.0</ele><time>2026-05-01T13:18:25.184Z</time></trkpt><trkpt lat="45.96433" lon="11.932135"><ele>198.0</ele><time>2026-05-01T13:18:26.184Z</time></trkpt><trkpt lat="45.9644833" lon="11.93205"><ele>198.0</ele><time>2026-05-01T13:18:27.188Z</time></trkpt><trkpt lat="45.964635" lon="11.93198"><ele>198.0</ele><time>2026-05-01T13:18:28.184Z</time></trkpt><trkpt lat="45.9648" lon="11.931925"><ele>198.0</ele><time>2026-05-01T13:18:29.185Z</time></trkpt><trkpt lat="45.9649767" lon="11.9319067"><ele>198.0</ele><time>2026-05-01T13:18:30.187Z</time></trkpt><trkpt lat="45.9651633" lon="11.9319267"><ele>198.0</ele><time>2026-05-01T13:18:31.189Z</time></trkpt><trkpt lat="45.965355" lon="11.9319783"><ele>199.0</ele><time>2026-05-01T13:18:32.186Z</time></trkpt><trkpt lat="45.9655417" lon="11.9320717"><ele>200.0</ele><time>2026-05-01T13:18:33.186Z</time></trkpt><trkpt lat="45.9657317" lon="11.9321917"><ele>201.0</ele><time>2026-05-01T13:18:34.186Z</time></trkpt><trkpt lat="45.965925" lon="11.9323267"><ele>199.66666666666669</ele><time>2026-05-01T13:18:35.185Z</time></trkpt><trkpt lat="45.9661133" lon="11.9324467"><ele>198.33333333333334</ele><time>2026-05-01T13:18:36.188Z</time></trkpt><trkpt lat="45.9662867" lon="11.9325533"><ele>197.0</ele><time>2026-05-01T13:18:37.186Z</time></trkpt><trkpt lat="45.96645" lon="11.9326517"><ele>197.0</ele><time>2026-05-01T13:18:38.191Z</time></trkpt><trkpt lat="45.9666033" lon="11.9327483"><ele>197.0</ele><time>2026-05-01T13:18:39.187Z</time></trkpt><trkpt lat="45.96676" lon="11.9328367"><ele>197.0</ele><time>2026-05-01T13:18:40.185Z</time></trkpt><trkpt lat="45.96691" lon="11.9329133"><ele>199.0</ele><time>2026-05-01T13:18:41.189Z</time></trkpt><trkpt lat="45.9670683" lon="11.9329833"><ele>201.0</ele><time>2026-05-01T13:18:42.183Z</time></trkpt><trkpt lat="45.96723" lon="11.93306"><ele>203.0</ele><time>2026-05-01T13:18:43.184Z</time></trkpt><trkpt lat="45.9673967" lon="11.9331417"><ele>206.0</ele><time>2026-05-01T13:18:44.184Z</time></trkpt><trkpt lat="45.9675583" lon="11.9332183"><ele>209.0</ele><time>2026-05-01T13:18:45.185Z</time></trkpt><trkpt lat="45.9677083" lon="11.9332867"><ele>212.0</ele><time>2026-05-01T13:18:46.185Z</time></trkpt><trkpt lat="45.9678517" lon="11.9333383"><ele>212.0</ele><time>2026-05-01T13:18:47.186Z</time></trkpt><trkpt lat="45.967995" lon="11.93337"><ele>212.0</ele><time>2026-05-01T13:18:48.185Z</time></trkpt><trkpt lat="45.9681433" lon="11.9333817"><ele>212.0</ele><time>2026-05-01T13:18:49.186Z</time></trkpt><trkpt lat="45.9682967" lon="11.9333783"><ele>212.0</ele><time>2026-05-01T13:18:50.184Z</time></trkpt><trkpt lat="45.9684483" lon="11.9333733"><ele>210.33333333333334</ele><time>2026-05-01T13:18:51.186Z</time></trkpt><trkpt lat="45.9685983" lon="11.93337"><ele>208.66666666666669</ele><time>2026-05-01T13:18:52.186Z</time></trkpt><trkpt lat="45.9687583" lon="11.93336"><ele>207.0</ele><time>2026-05-01T13:18:53.183Z</time></trkpt><trkpt lat="45.96892" lon="11.93335"><ele>207.0</ele><time>2026-05-01T13:18:54.184Z</time></trkpt><trkpt lat="45.9690783" lon="11.93334"><ele>207.0</ele><time>2026-05-01T13:18:55.187Z</time></trkpt><trkpt lat="45.96924" lon="11.9333317"><ele>207.0</ele><time>2026-05-01T13:18:56.184Z</time></trkpt><trkpt lat="45.9694083" lon="11.9333217"><ele>206.0</ele><time>2026-05-01T13:18:57.185Z</time></trkpt><trkpt lat="45.9695817" lon="11.9333167"><ele>205.0</ele><time>2026-05-01T13:18:58.185Z</time></trkpt><trkpt lat="45.9697367" lon="11.93332"><ele>204.0</ele><time>2026-05-01T13:18:59.186Z</time></trkpt><trkpt lat="45.9698933" lon="11.9333333"><ele>204.66666666666669</ele><time>2026-05-01T13:19:00.187Z</time></trkpt><trkpt lat="45.970055" lon="11.9333633"><ele>205.33333333333334</ele><time>2026-05-01T13:19:01.184Z</time></trkpt><trkpt lat="45.9702183" lon="11.9334117"><ele>206.0</ele><time>2026-05-01T13:19:02.185Z</time></trkpt><trkpt lat="45.9703783" lon="11.9334717"><ele>204.0</ele><time>2026-05-01T13:19:03.186Z</time></trkpt><trkpt lat="45.9705317" lon="11.93355"><ele>202.0</ele><time>2026-05-01T13:19:04.264Z</time></trkpt><trkpt lat="45.97068" lon="11.9336517"><ele>200.0</ele><time>2026-05-01T13:19:05.186Z</time></trkpt><trkpt lat="45.9708217" lon="11.9337683"><ele>203.66666666666669</ele><time>2026-05-01T13:19:06.185Z</time></trkpt><trkpt lat="45.97096" lon="11.9338983"><ele>207.33333333333331</ele><time>2026-05-01T13:19:07.188Z</time></trkpt><trkpt lat="45.971095" lon="11.93404"><ele>211.0</ele><time>2026-05-01T13:19:08.183Z</time></trkpt><trkpt lat="45.9712283" lon="11.934185"><ele>209.0</ele><time>2026-05-01T13:19:09.185Z</time></trkpt><trkpt lat="45.9713567" lon="11.9343283"><ele>207.0</ele><time>2026-05-01T13:19:10.186Z</time></trkpt><trkpt lat="45.9714817" lon="11.9344733"><ele>205.0</ele><time>2026-05-01T13:19:11.186Z</time></trkpt><trkpt lat="45.9716067" lon="11.9346317"><ele>206.66666666666666</ele><time>2026-05-01T13:19:12.185Z</time></trkpt><trkpt lat="45.9717233" lon="11.9348"><ele>208.33333333333331</ele><time>2026-05-01T13:19:13.185Z</time></trkpt><trkpt lat="45.9718417" lon="11.934975"><ele>210.0</ele><time>2026-05-01T13:19:14.187Z</time></trkpt><trkpt lat="45.9719567" lon="11.9351517"><ele>210.0</ele><time>2026-05-01T13:19:15.188Z</time></trkpt><trkpt lat="45.972065" lon="11.9353183"><ele>210.0</ele><time>2026-05-01T13:19:16.184Z</time></trkpt><trkpt lat="45.9721667" lon="11.9354833"><ele>210.0</ele><time>2026-05-01T13:19:17.183Z</time></trkpt><trkpt lat="45.972265" lon="11.93565"><ele>210.0</ele><time>2026-05-01T13:19:18.185Z</time></trkpt><trkpt lat="45.97236" lon="11.93582"><ele>210.0</ele><time>2026-05-01T13:19:19.184Z</time></trkpt><trkpt lat="45.9724583" lon="11.935985"><ele>210.0</ele><time>2026-05-01T13:19:20.19Z</time></trkpt><trkpt lat="45.9725683" lon="11.9361417"><ele>210.66666666666669</ele><time>2026-05-01T13:19:21.186Z</time></trkpt><trkpt lat="45.9726833" lon="11.93629"><ele>211.33333333333334</ele><time>2026-05-01T13:19:22.188Z</time></trkpt><trkpt lat="45.9727933" lon="11.9364317"><ele>212.0</ele><time>2026-05-01T13:19:23.186Z</time></trkpt><trkpt lat="45.9729067" lon="11.936575"><ele>212.0</ele><time>2026-05-01T13:19:24.183Z</time></trkpt><trkpt lat="45.97303" lon="11.9367117"><ele>212.0</ele><time>2026-05-01T13:19:25.184Z</time></trkpt><trkpt lat="45.97317" lon="11.9368283"><ele>212.0</ele><time>2026-05-01T13:19:26.183Z</time></trkpt><trkpt lat="45.9733367" lon="11.9369133"><ele>210.33333333333334</ele><time>2026-05-01T13:19:27.187Z</time></trkpt><trkpt lat="45.9735117" lon="11.93699"><ele>208.66666666666669</ele><time>2026-05-01T13:19:28.189Z</time></trkpt><trkpt lat="45.9736883" lon="11.937065"><ele>207.0</ele><time>2026-05-01T13:19:29.191Z</time></trkpt><trkpt lat="45.97385" lon="11.9371433"><ele>207.0</ele><time>2026-05-01T13:19:30.184Z</time></trkpt><trkpt lat="45.9740033" lon="11.9372217"><ele>207.0</ele><time>2026-05-01T13:19:31.185Z</time></trkpt><trkpt lat="45.9741617" lon="11.9373033"><ele>207.0</ele><time>2026-05-01T13:19:32.187Z</time></trkpt><trkpt lat="45.9743267" lon="11.937385"><ele>207.0</ele><time>2026-05-01T13:19:33.186Z</time></trkpt><trkpt lat="45.974495" lon="11.9374733"><ele>207.0</ele><time>2026-05-01T13:19:34.188Z</time></trkpt><trkpt lat="45.974665" lon="11.9375617"><ele>207.0</ele><time>2026-05-01T13:19:35.185Z</time></trkpt><trkpt lat="45.97484" lon="11.9376533"><ele>207.0</ele><time>2026-05-01T13:19:36.185Z</time></trkpt><trkpt lat="45.9750133" lon="11.9377433"><ele>207.0</ele><time>2026-05-01T13:19:37.185Z</time></trkpt><trkpt lat="45.9751817" lon="11.9378367"><ele>207.0</ele><time>2026-05-01T13:19:38.187Z</time></trkpt><trkpt lat="45.975345" lon="11.9379433"><ele>206.33333333333331</ele><time>2026-05-01T13:19:39.189Z</time></trkpt><trkpt lat="45.9755033" lon="11.938085"><ele>205.66666666666666</ele><time>2026-05-01T13:19:40.187Z</time></trkpt><trkpt lat="45.975655" lon="11.9382567"><ele>205.0</ele><time>2026-05-01T13:19:41.187Z</time></trkpt><trkpt lat="45.975795" lon="11.938455"><ele>206.0</ele><time>2026-05-01T13:19:42.184Z</time></trkpt><trkpt lat="45.9759333" lon="11.9386717"><ele>207.0</ele><time>2026-05-01T13:19:43.184Z</time></trkpt><trkpt lat="45.9760783" lon="11.938895"><ele>208.0</ele><time>2026-05-01T13:19:44.184Z</time></trkpt><trkpt lat="45.9762283" lon="11.9391183"><ele>207.0</ele><time>2026-05-01T13:19:45.187Z</time></trkpt><trkpt lat="45.9763733" lon="11.9393367"><ele>206.0</ele><time>2026-05-01T13:19:46.189Z</time></trkpt><trkpt lat="45.9765133" lon="11.9395433"><ele>205.0</ele><time>2026-05-01T13:19:47.188Z</time></trkpt><trkpt lat="45.9766517" lon="11.9397433"><ele>205.33333333333331</ele><time>2026-05-01T13:19:48.187Z</time></trkpt><trkpt lat="45.9767917" lon="11.939945"><ele>205.66666666666669</ele><time>2026-05-01T13:19:49.186Z</time></trkpt><trkpt lat="45.9769317" lon="11.9401467"><ele>206.0</ele><time>2026-05-01T13:19:50.186Z</time></trkpt><trkpt lat="45.97707" lon="11.94035"><ele>206.0</ele><time>2026-05-01T13:19:51.185Z</time></trkpt><trkpt lat="45.9772067" lon="11.9405467"><ele>206.0</ele><time>2026-05-01T13:19:52.184Z</time></trkpt><trkpt lat="45.977335" lon="11.9407317"><ele>206.0</ele><time>2026-05-01T13:19:53.185Z</time></trkpt><trkpt lat="45.97746" lon="11.9409083"><ele>208.66666666666669</ele><time>2026-05-01T13:19:54.185Z</time></trkpt><trkpt lat="45.9775833" lon="11.9410833"><ele>211.33333333333331</ele><time>2026-05-01T13:19:55.186Z</time></trkpt><trkpt lat="45.97771" lon="11.9412617"><ele>214.0</ele><time>2026-05-01T13:19:56.186Z</time></trkpt><trkpt lat="45.977835" lon="11.9414417"><ele>214.0</ele><time>2026-05-01T13:19:57.184Z</time></trkpt><trkpt lat="45.9779583" lon="11.941615"><ele>214.0</ele><time>2026-05-01T13:19:58.184Z</time></trkpt><trkpt lat="45.9780767" lon="11.941785"><ele>214.0</ele><time>2026-05-01T13:19:59.184Z</time></trkpt><trkpt lat="45.9781917" lon="11.9419483"><ele>212.33333333333331</ele><time>2026-05-01T13:20:00.186Z</time></trkpt><trkpt lat="45.97831" lon="11.9421167"><ele>210.66666666666669</ele><time>2026-05-01T13:20:01.184Z</time></trkpt><trkpt lat="45.9784317" lon="11.9422917"><ele>209.0</ele><time>2026-05-01T13:20:02.184Z</time></trkpt><trkpt lat="45.978555" lon="11.9424717"><ele>209.66666666666669</ele><time>2026-05-01T13:20:03.184Z</time></trkpt><trkpt lat="45.9786817" lon="11.9426567"><ele>210.33333333333331</ele><time>2026-05-01T13:20:04.184Z</time></trkpt><trkpt lat="45.9788133" lon="11.9428433"><ele>211.0</ele><time>2026-05-01T13:20:05.184Z</time></trkpt><trkpt lat="45.9789433" lon="11.94303"><ele>211.0</ele><time>2026-05-01T13:20:06.185Z</time></trkpt><trkpt lat="45.9790717" lon="11.9432133"><ele>211.0</ele><time>2026-05-01T13:20:07.184Z</time></trkpt><trkpt lat="45.9791983" lon="11.9433933"><ele>211.0</ele><time>2026-05-01T13:20:08.187Z</time></trkpt><trkpt lat="45.9793167" lon="11.9435717"><ele>211.66666666666666</ele><time>2026-05-01T13:20:09.186Z</time></trkpt><trkpt lat="45.9794317" lon="11.9437433"><ele>212.33333333333331</ele><time>2026-05-01T13:20:10.187Z</time></trkpt><trkpt lat="45.9795567" lon="11.943925"><ele>213.0</ele><time>2026-05-01T13:20:11.188Z</time></trkpt><trkpt lat="45.97969" lon="11.9441167"><ele>210.33333333333331</ele><time>2026-05-01T13:20:12.187Z</time></trkpt><trkpt lat="45.9798233" lon="11.9443083"><ele>207.66666666666666</ele><time>2026-05-01T13:20:13.185Z</time></trkpt><trkpt lat="45.9799583" lon="11.944505"><ele>205.0</ele><time>2026-05-01T13:20:14.185Z</time></trkpt><trkpt lat="45.9800917" lon="11.9447033"><ele>207.0</ele><time>2026-05-01T13:20:15.184Z</time></trkpt><trkpt lat="45.9802267" lon="11.9449"><ele>209.0</ele><time>2026-05-01T13:20:16.185Z</time></trkpt><trkpt lat="45.980355" lon="11.94509"><ele>211.0</ele><time>2026-05-01T13:20:17.188Z</time></trkpt><trkpt lat="45.98048" lon="11.9452733"><ele>211.0</ele><time>2026-05-01T13:20:18.184Z</time></trkpt><trkpt lat="45.9806033" lon="11.9454583"><ele>211.0</ele><time>2026-05-01T13:20:19.185Z</time></trkpt><trkpt lat="45.9807267" lon="11.9456467"><ele>211.0</ele><time>2026-05-01T13:20:20.185Z</time></trkpt><trkpt lat="45.9808467" lon="11.94584"><ele>216.33333333333331</ele><time>2026-05-01T13:20:21.186Z</time></trkpt><trkpt lat="45.9809617" lon="11.9460383"><ele>221.66666666666669</ele><time>2026-05-01T13:20:22.185Z</time></trkpt><trkpt lat="45.9810733" lon="11.9462417"><ele>227.0</ele><time>2026-05-01T13:20:23.187Z</time></trkpt><trkpt lat="45.9811817" lon="11.9464533"><ele>227.0</ele><time>2026-05-01T13:20:24.187Z</time></trkpt><trkpt lat="45.9812867" lon="11.9466717"><ele>227.0</ele><time>2026-05-01T13:20:25.185Z</time></trkpt><trkpt lat="45.9813833" lon="11.94689"><ele>227.0</ele><time>2026-05-01T13:20:26.184Z</time></trkpt><trkpt lat="45.98147" lon="11.9471133"><ele>223.0</ele><time>2026-05-01T13:20:27.188Z</time></trkpt><trkpt lat="45.9815533" lon="11.947345"><ele>219.0</ele><time>2026-05-01T13:20:28.185Z</time></trkpt><trkpt lat="45.981635" lon="11.947585"><ele>215.0</ele><time>2026-05-01T13:20:29.183Z</time></trkpt><trkpt lat="45.98172" lon="11.94783"><ele>219.0</ele><time>2026-05-01T13:20:30.185Z</time></trkpt><trkpt lat="45.981805" lon="11.9480783"><ele>223.0</ele><time>2026-05-01T13:20:31.184Z</time></trkpt><trkpt lat="45.981895" lon="11.9483283"><ele>227.0</ele><time>2026-05-01T13:20:32.184Z</time></trkpt><trkpt lat="45.9819833" lon="11.9485733"><ele>227.0</ele><time>2026-05-01T13:20:33.19Z</time></trkpt><trkpt lat="45.9820667" lon="11.9488083"><ele>227.0</ele><time>2026-05-01T13:20:34.186Z</time></trkpt><trkpt lat="45.9821433" lon="11.9490383"><ele>227.0</ele><time>2026-05-01T13:20:35.186Z</time></trkpt><trkpt lat="45.98222" lon="11.9492633"><ele>222.66666666666669</ele><time>2026-05-01T13:20:36.185Z</time></trkpt><trkpt lat="45.9822967" lon="11.9494867"><ele>218.33333333333331</ele><time>2026-05-01T13:20:37.186Z</time></trkpt><trkpt lat="45.9823767" lon="11.94971"><ele>214.0</ele><time>2026-05-01T13:20:38.189Z</time></trkpt><trkpt lat="45.9824617" lon="11.9499383"><ele>220.33333333333331</ele><time>2026-05-01T13:20:39.183Z</time></trkpt><trkpt lat="45.9825483" lon="11.9501667"><ele>226.66666666666669</ele><time>2026-05-01T13:20:40.186Z</time></trkpt><trkpt lat="45.982645" lon="11.9503917"><ele>233.0</ele><time>2026-05-01T13:20:41.184Z</time></trkpt><trkpt lat="45.982755" lon="11.95061"><ele>233.0</ele><time>2026-05-01T13:20:42.184Z</time></trkpt><trkpt lat="45.98287" lon="11.9508133"><ele>233.0</ele><time>2026-05-01T13:20:43.185Z</time></trkpt><trkpt lat="45.9829867" lon="11.9510067"><ele>233.0</ele><time>2026-05-01T13:20:44.188Z</time></trkpt><trkpt lat="45.9831117" lon="11.9511983"><ele>234.33333333333334</ele><time>2026-05-01T13:20:45.185Z</time></trkpt><trkpt lat="45.9832417" lon="11.9513833"><ele>235.66666666666669</ele><time>2026-05-01T13:20:46.184Z</time></trkpt><trkpt lat="45.983375" lon="11.951555"><ele>237.0</ele><time>2026-05-01T13:20:47.184Z</time></trkpt><trkpt lat="45.98351" lon="11.9517133"><ele>229.33333333333331</ele><time>2026-05-01T13:20:48.184Z</time></trkpt><trkpt lat="45.9836383" lon="11.9518617"><ele>221.66666666666666</ele><time>2026-05-01T13:20:49.184Z</time></trkpt><trkpt lat="45.983765" lon="11.9520067"><ele>214.0</ele><time>2026-05-01T13:20:50.184Z</time></trkpt><trkpt lat="45.9838917" lon="11.952155"><ele>214.0</ele><time>2026-05-01T13:20:51.187Z</time></trkpt><trkpt lat="45.9840183" lon="11.9523067"><ele>214.0</ele><time>2026-05-01T13:20:52.184Z</time></trkpt><trkpt lat="45.9841433" lon="11.95246"><ele>214.0</ele><time>2026-05-01T13:20:53.183Z</time></trkpt><trkpt lat="45.9842633" lon="11.9526033"><ele>214.0</ele><time>2026-05-01T13:20:54.187Z</time></trkpt><trkpt lat="45.98438" lon="11.9527467"><ele>214.0</ele><time>2026-05-01T13:20:55.185Z</time></trkpt><trkpt lat="45.9844967" lon="11.9528883"><ele>214.0</ele><time>2026-05-01T13:20:56.186Z</time></trkpt><trkpt lat="45.98462" lon="11.95303"><ele>214.0</ele><time>2026-05-01T13:20:57.187Z</time></trkpt><trkpt lat="45.9847333" lon="11.9531633"><ele>214.0</ele><time>2026-05-01T13:20:58.185Z</time></trkpt><trkpt lat="45.9848567" lon="11.953285"><ele>214.0</ele><time>2026-05-01T13:20:59.186Z</time></trkpt><trkpt lat="45.9849967" lon="11.9533733"><ele>214.0</ele><time>2026-05-01T13:21:00.187Z</time></trkpt><trkpt lat="45.9851517" lon="11.9534267"><ele>212.0</ele><time>2026-05-01T13:21:01.187Z</time></trkpt><trkpt lat="45.9853117" lon="11.9534533"><ele>210.0</ele><time>2026-05-01T13:21:02.185Z</time></trkpt><trkpt lat="45.985475" lon="11.9534633"><ele>208.0</ele><time>2026-05-01T13:21:03.185Z</time></trkpt><trkpt lat="45.9856317" lon="11.9534767"><ele>208.0</ele><time>2026-05-01T13:21:04.185Z</time></trkpt><trkpt lat="45.9857783" lon="11.9534917"><ele>208.0</ele><time>2026-05-01T13:21:05.186Z</time></trkpt><trkpt lat="45.9859317" lon="11.9535067"><ele>208.0</ele><time>2026-05-01T13:21:06.182Z</time></trkpt><trkpt lat="45.9860883" lon="11.953515"><ele>208.66666666666666</ele><time>2026-05-01T13:21:07.186Z</time></trkpt><trkpt lat="45.986245" lon="11.9535117"><ele>209.33333333333331</ele><time>2026-05-01T13:21:08.188Z</time></trkpt><trkpt lat="45.9864" lon="11.9534917"><ele>210.0</ele><time>2026-05-01T13:21:09.184Z</time></trkpt><trkpt lat="45.98656" lon="11.9534833"><ele>210.33333333333331</ele><time>2026-05-01T13:21:10.187Z</time></trkpt><trkpt lat="45.9867167" lon="11.9535017"><ele>210.66666666666666</ele><time>2026-05-01T13:21:11.185Z</time></trkpt><trkpt lat="45.986875" lon="11.9535567"><ele>211.0</ele><time>2026-05-01T13:21:12.185Z</time></trkpt><trkpt lat="45.9870267" lon="11.953635"><ele>211.0</ele><time>2026-05-01T13:21:13.186Z</time></trkpt><trkpt lat="45.98716" lon="11.9537233"><ele>211.0</ele><time>2026-05-01T13:21:14.186Z</time></trkpt><trkpt lat="45.9872917" lon="11.9538133"><ele>211.0</ele><time>2026-05-01T13:21:15.184Z</time></trkpt><trkpt lat="45.9874283" lon="11.9538983"><ele>211.0</ele><time>2026-05-01T13:21:16.189Z</time></trkpt><trkpt lat="45.9875717" lon="11.95396"><ele>212.33333333333331</ele><time>2026-05-01T13:21:17.184Z</time></trkpt><trkpt lat="45.98772" lon="11.953995"><ele>213.66666666666669</ele><time>2026-05-01T13:21:18.185Z</time></trkpt><trkpt lat="45.987875" lon="11.954"><ele>215.0</ele><time>2026-05-01T13:21:19.185Z</time></trkpt><trkpt lat="45.9880367" lon="11.9539917"><ele>215.0</ele><time>2026-05-01T13:21:20.183Z</time></trkpt><trkpt lat="45.9882" lon="11.95398"><ele>215.0</ele><time>2026-05-01T13:21:21.185Z</time></trkpt><trkpt lat="45.98836" lon="11.95397"><ele>215.0</ele><time>2026-05-01T13:21:22.188Z</time></trkpt><trkpt lat="45.98851" lon="11.9539583"><ele>214.0</ele><time>2026-05-01T13:21:23.188Z</time></trkpt><trkpt lat="45.9886583" lon="11.953935"><ele>213.0</ele><time>2026-05-01T13:21:24.188Z</time></trkpt><trkpt lat="45.9888133" lon="11.9538817"><ele>212.0</ele><time>2026-05-01T13:21:25.184Z</time></trkpt><trkpt lat="45.9889683" lon="11.9538017"><ele>212.0</ele><time>2026-05-01T13:21:26.184Z</time></trkpt><trkpt lat="45.989125" lon="11.9537017"><ele>212.0</ele><time>2026-05-01T13:21:27.188Z</time></trkpt><trkpt lat="45.9892717" lon="11.953605"><ele>212.0</ele><time>2026-05-01T13:21:28.186Z</time></trkpt><trkpt lat="45.9894083" lon="11.95352"><ele>211.75</ele><time>2026-05-01T13:21:29.184Z</time></trkpt><trkpt lat="45.9895417" lon="11.9534383"><ele>211.5</ele><time>2026-05-01T13:21:30.184Z</time></trkpt><trkpt lat="45.9896783" lon="11.95336"><ele>211.25</ele><time>2026-05-01T13:21:31.186Z</time></trkpt><trkpt lat="45.98982" lon="11.9532917"><ele>211.0</ele><time>2026-05-01T13:21:32.185Z</time></trkpt><trkpt lat="45.989975" lon="11.953245"><ele>213.0</ele><time>2026-05-01T13:21:33.187Z</time></trkpt><trkpt lat="45.9901417" lon="11.953215"><ele>215.0</ele><time>2026-05-01T13:21:34.189Z</time></trkpt><trkpt lat="45.99031" lon="11.953195"><ele>217.0</ele><time>2026-05-01T13:21:35.183Z</time></trkpt><trkpt lat="45.9904667" lon="11.9531783"><ele>217.0</ele><time>2026-05-01T13:21:36.184Z</time></trkpt><trkpt lat="45.990615" lon="11.9531583"><ele>217.0</ele><time>2026-05-01T13:21:37.184Z</time></trkpt><trkpt lat="45.9907617" lon="11.9531283"><ele>217.0</ele><time>2026-05-01T13:21:38.185Z</time></trkpt><trkpt lat="45.99091" lon="11.9530733"><ele>216.0</ele><time>2026-05-01T13:21:39.186Z</time></trkpt><trkpt lat="45.9910567" lon="11.9529883"><ele>215.0</ele><time>2026-05-01T13:21:40.186Z</time></trkpt><trkpt lat="45.9912067" lon="11.9528883"><ele>214.0</ele><time>2026-05-01T13:21:41.185Z</time></trkpt><trkpt lat="45.9913617" lon="11.95278"><ele>214.0</ele><time>2026-05-01T13:21:42.184Z</time></trkpt><trkpt lat="45.9915167" lon="11.9526733"><ele>214.0</ele><time>2026-05-01T13:21:43.188Z</time></trkpt><trkpt lat="45.9916667" lon="11.952575"><ele>214.0</ele><time>2026-05-01T13:21:44.184Z</time></trkpt><trkpt lat="45.991805" lon="11.9524833"><ele>215.0</ele><time>2026-05-01T13:21:45.185Z</time></trkpt><trkpt lat="45.9919483" lon="11.95239"><ele>216.0</ele><time>2026-05-01T13:21:46.184Z</time></trkpt><trkpt lat="45.9920983" lon="11.9522817"><ele>217.0</ele><time>2026-05-01T13:21:47.185Z</time></trkpt><trkpt lat="45.992255" lon="11.9521533"><ele>217.0</ele><time>2026-05-01T13:21:48.185Z</time></trkpt><trkpt lat="45.9924117" lon="11.9520033"><ele>217.0</ele><time>2026-05-01T13:21:49.186Z</time></trkpt><trkpt lat="45.9925667" lon="11.9518367"><ele>217.0</ele><time>2026-05-01T13:21:50.185Z</time></trkpt><trkpt lat="45.9927233" lon="11.95167"><ele>216.66666666666666</ele><time>2026-05-01T13:21:51.19Z</time></trkpt><trkpt lat="45.9928733" lon="11.9515183"><ele>216.33333333333331</ele><time>2026-05-01T13:21:52.184Z</time></trkpt><trkpt lat="45.9930233" lon="11.9513783"><ele>216.0</ele><time>2026-05-01T13:21:53.186Z</time></trkpt><trkpt lat="45.9931583" lon="11.9512417"><ele>216.0</ele><time>2026-05-01T13:21:54.185Z</time></trkpt><trkpt lat="45.99329" lon="11.951095"><ele>216.0</ele><time>2026-05-01T13:21:55.184Z</time></trkpt><trkpt lat="45.993425" lon="11.9509467"><ele>216.0</ele><time>2026-05-01T13:21:56.185Z</time></trkpt><trkpt lat="45.9935633" lon="11.9507933"><ele>216.66666666666669</ele><time>2026-05-01T13:21:57.184Z</time></trkpt><trkpt lat="45.9937067" lon="11.950625"><ele>217.33333333333334</ele><time>2026-05-01T13:21:58.185Z</time></trkpt><trkpt lat="45.9938433" lon="11.950455"><ele>218.0</ele><time>2026-05-01T13:21:59.185Z</time></trkpt><trkpt lat="45.9939733" lon="11.9502867"><ele>218.0</ele><time>2026-05-01T13:22:00.188Z</time></trkpt><trkpt lat="45.9940983" lon="11.9501367"><ele>218.0</ele><time>2026-05-01T13:22:01.188Z</time></trkpt><trkpt lat="45.994225" lon="11.9499883"><ele>218.0</ele><time>2026-05-01T13:22:02.185Z</time></trkpt><trkpt lat="45.994355" lon="11.94984"><ele>218.66666666666669</ele><time>2026-05-01T13:22:03.187Z</time></trkpt><trkpt lat="45.9944883" lon="11.949685"><ele>219.33333333333331</ele><time>2026-05-01T13:22:04.188Z</time></trkpt><trkpt lat="45.9946333" lon="11.94955"><ele>220.0</ele><time>2026-05-01T13:22:05.184Z</time></trkpt><trkpt lat="45.9947883" lon="11.9494267"><ele>220.0</ele><time>2026-05-01T13:22:06.183Z</time></trkpt><trkpt lat="45.9949533" lon="11.9493183"><ele>220.0</ele><time>2026-05-01T13:22:07.184Z</time></trkpt><trkpt lat="45.9951167" lon="11.9492183"><ele>220.0</ele><time>2026-05-01T13:22:08.184Z</time></trkpt><trkpt lat="45.995275" lon="11.9491267"><ele>221.33333333333331</ele><time>2026-05-01T13:22:09.185Z</time></trkpt><trkpt lat="45.9954283" lon="11.94904"><ele>222.66666666666669</ele><time>2026-05-01T13:22:10.183Z</time></trkpt><trkpt lat="45.995585" lon="11.9489533"><ele>224.0</ele><time>2026-05-01T13:22:11.186Z</time></trkpt><trkpt lat="45.9957433" lon="11.9488683"><ele>223.0</ele><time>2026-05-01T13:22:12.186Z</time></trkpt><trkpt lat="45.9959033" lon="11.948785"><ele>222.0</ele><time>2026-05-01T13:22:13.184Z</time></trkpt><trkpt lat="45.9960683" lon="11.94871"><ele>221.0</ele><time>2026-05-01T13:22:14.185Z</time></trkpt><trkpt lat="45.9962367" lon="11.9486483"><ele>221.0</ele><time>2026-05-01T13:22:15.185Z</time></trkpt><trkpt lat="45.9964067" lon="11.948605"><ele>221.0</ele><time>2026-05-01T13:22:16.183Z</time></trkpt><trkpt lat="45.9965833" lon="11.9485717"><ele>221.0</ele><time>2026-05-01T13:22:17.183Z</time></trkpt><trkpt lat="45.99676" lon="11.9485467"><ele>221.33333333333334</ele><time>2026-05-01T13:22:18.186Z</time></trkpt><trkpt lat="45.9969383" lon="11.948525"><ele>221.66666666666669</ele><time>2026-05-01T13:22:19.186Z</time></trkpt><trkpt lat="45.9970983" lon="11.9485083"><ele>222.0</ele><time>2026-05-01T13:22:20.186Z</time></trkpt><trkpt lat="45.9972483" lon="11.9484917"><ele>222.0</ele><time>2026-05-01T13:22:21.185Z</time></trkpt><trkpt lat="45.9974" lon="11.9484733"><ele>222.0</ele><time>2026-05-01T13:22:22.184Z</time></trkpt><trkpt lat="45.9975567" lon="11.9484583"><ele>222.0</ele><time>2026-05-01T13:22:23.187Z</time></trkpt><trkpt lat="45.997715" lon="11.9484433"><ele>221.66666666666669</ele><time>2026-05-01T13:22:24.185Z</time></trkpt><trkpt lat="45.9978733" lon="11.94843"><ele>221.33333333333334</ele><time>2026-05-01T13:22:25.186Z</time></trkpt><trkpt lat="45.9980283" lon="11.9484217"><ele>221.0</ele><time>2026-05-01T13:22:26.185Z</time></trkpt><trkpt lat="45.9981733" lon="11.9484117"><ele>221.0</ele><time>2026-05-01T13:22:27.182Z</time></trkpt><trkpt lat="45.99832" lon="11.9483983"><ele>221.0</ele><time>2026-05-01T13:22:28.185Z</time></trkpt><trkpt lat="45.9984733" lon="11.9483917"><ele>221.0</ele><time>2026-05-01T13:22:29.185Z</time></trkpt><trkpt lat="45.9986317" lon="11.9483933"><ele>221.33333333333334</ele><time>2026-05-01T13:22:30.184Z</time></trkpt><trkpt lat="45.99879" lon="11.948405"><ele>221.66666666666669</ele><time>2026-05-01T13:22:31.184Z</time></trkpt><trkpt lat="45.9989383" lon="11.948415"><ele>222.0</ele><time>2026-05-01T13:22:32.185Z</time></trkpt><trkpt lat="45.9990817" lon="11.9484217"><ele>221.5</ele><time>2026-05-01T13:22:33.184Z</time></trkpt><trkpt lat="45.999225" lon="11.9484217"><ele>221.0</ele><time>2026-05-01T13:22:34.191Z</time></trkpt><trkpt lat="45.999375" lon="11.9484117"><ele>220.5</ele><time>2026-05-01T13:22:35.186Z</time></trkpt><trkpt lat="45.9995283" lon="11.9483783"><ele>220.0</ele><time>2026-05-01T13:22:36.187Z</time></trkpt><trkpt lat="45.999685" lon="11.94832"><ele>221.66666666666666</ele><time>2026-05-01T13:22:37.186Z</time></trkpt><trkpt lat="45.9998467" lon="11.948225"><ele>223.33333333333331</ele><time>2026-05-01T13:22:38.185Z</time></trkpt><trkpt lat="45.9999867" lon="11.9481233"><ele>225.0</ele><time>2026-05-01T13:22:39.191Z</time></trkpt><trkpt lat="46.0001117" lon="11.9480083"><ele>225.0</ele><time>2026-05-01T13:22:40.185Z</time></trkpt><trkpt lat="46.0002267" lon="11.94786"><ele>225.0</ele><time>2026-05-01T13:22:41.185Z</time></trkpt><trkpt lat="46.0003333" lon="11.947675"><ele>225.0</ele><time>2026-05-01T13:22:42.183Z</time></trkpt><trkpt lat="46.0004267" lon="11.947465"><ele>225.66666666666669</ele><time>2026-05-01T13:22:43.183Z</time></trkpt><trkpt lat="46.000505" lon="11.9472517"><ele>226.33333333333334</ele><time>2026-05-01T13:22:44.184Z</time></trkpt><trkpt lat="46.0005767" lon="11.9470533"><ele>227.0</ele><time>2026-05-01T13:22:45.184Z</time></trkpt><trkpt lat="46.00065" lon="11.946865"><ele>228.0</ele><time>2026-05-01T13:22:46.187Z</time></trkpt><trkpt lat="46.0007283" lon="11.9466783"><ele>229.0</ele><time>2026-05-01T13:22:47.187Z</time></trkpt><trkpt lat="46.0008067" lon="11.9464867"><ele>230.0</ele><time>2026-05-01T13:22:48.187Z</time></trkpt><trkpt lat="46.0008817" lon="11.946285"><ele>228.33333333333334</ele><time>2026-05-01T13:22:49.188Z</time></trkpt><trkpt lat="46.0009417" lon="11.94607"><ele>226.66666666666669</ele><time>2026-05-01T13:22:50.184Z</time></trkpt><trkpt lat="46.0009867" lon="11.9458433"><ele>225.0</ele><time>2026-05-01T13:22:51.186Z</time></trkpt><trkpt lat="46.0010167" lon="11.9456083"><ele>225.0</ele><time>2026-05-01T13:22:52.184Z</time></trkpt><trkpt lat="46.0010367" lon="11.9453817"><ele>225.0</ele><time>2026-05-01T13:22:53.187Z</time></trkpt><trkpt lat="46.0010533" lon="11.9451517"><ele>225.0</ele><time>2026-05-01T13:22:54.185Z</time></trkpt><trkpt lat="46.0010717" lon="11.9449483"><ele>225.0</ele><time>2026-05-01T13:22:55.19Z</time></trkpt><trkpt lat="46.0010867" lon="11.9447533"><ele>225.0</ele><time>2026-05-01T13:22:56.188Z</time></trkpt><trkpt lat="46.0010917" lon="11.9445517"><ele>225.0</ele><time>2026-05-01T13:22:57.188Z</time></trkpt><trkpt lat="46.0010667" lon="11.944335"><ele>225.0</ele><time>2026-05-01T13:22:58.185Z</time></trkpt><trkpt lat="46.0010133" lon="11.9441117"><ele>226.33333333333331</ele><time>2026-05-01T13:22:59.184Z</time></trkpt><trkpt lat="46.00094" lon="11.94389"><ele>227.66666666666666</ele><time>2026-05-01T13:23:00.185Z</time></trkpt><trkpt lat="46.00085" lon="11.94367"><ele>229.0</ele><time>2026-05-01T13:23:01.185Z</time></trkpt><trkpt lat="46.00074" lon="11.9434617"><ele>228.66666666666666</ele><time>2026-05-01T13:23:02.186Z</time></trkpt><trkpt lat="46.000625" lon="11.94328"><ele>228.33333333333331</ele><time>2026-05-01T13:23:03.184Z</time></trkpt><trkpt lat="46.0005133" lon="11.9431183"><ele>228.0</ele><time>2026-05-01T13:23:04.185Z</time></trkpt><trkpt lat="46.0004017" lon="11.9429633"><ele>228.0</ele><time>2026-05-01T13:23:05.184Z</time></trkpt><trkpt lat="46.000285" lon="11.9428117"><ele>228.0</ele><time>2026-05-01T13:23:06.184Z</time></trkpt><trkpt lat="46.0001733" lon="11.9426633"><ele>228.0</ele><time>2026-05-01T13:23:07.186Z</time></trkpt><trkpt lat="46.0000733" lon="11.9425183"><ele>228.5</ele><time>2026-05-01T13:23:08.186Z</time></trkpt><trkpt lat="45.9999783" lon="11.942365"><ele>229.0</ele><time>2026-05-01T13:23:09.188Z</time></trkpt><trkpt lat="45.9998883" lon="11.9421933"><ele>229.5</ele><time>2026-05-01T13:23:10.183Z</time></trkpt><trkpt lat="45.9998067" lon="11.9420067"><ele>230.0</ele><time>2026-05-01T13:23:11.185Z</time></trkpt><trkpt lat="45.999745" lon="11.94181"><ele>231.0</ele><time>2026-05-01T13:23:12.184Z</time></trkpt><trkpt lat="45.9997067" lon="11.9416083"><ele>232.0</ele><time>2026-05-01T13:23:13.187Z</time></trkpt><trkpt lat="45.9996833" lon="11.9414067"><ele>233.0</ele><time>2026-05-01T13:23:14.186Z</time></trkpt><trkpt lat="45.9996733" lon="11.9412033"><ele>234.0</ele><time>2026-05-01T13:23:15.187Z</time></trkpt><trkpt lat="45.9996833" lon="11.9409983"><ele>234.33333333333331</ele><time>2026-05-01T13:23:16.184Z</time></trkpt><trkpt lat="45.9997083" lon="11.9407833"><ele>234.66666666666666</ele><time>2026-05-01T13:23:17.186Z</time></trkpt><trkpt lat="45.9997483" lon="11.940565"><ele>235.0</ele><time>2026-05-01T13:23:18.183Z</time></trkpt><trkpt lat="45.9998117" lon="11.9403467"><ele>235.0</ele><time>2026-05-01T13:23:19.185Z</time></trkpt><trkpt lat="45.999895" lon="11.940135"><ele>235.0</ele><time>2026-05-01T13:23:20.187Z</time></trkpt><trkpt lat="45.9999967" lon="11.93994"><ele>235.0</ele><time>2026-05-01T13:23:21.186Z</time></trkpt><trkpt lat="46.000115" lon="11.939765"><ele>233.33333333333331</ele><time>2026-05-01T13:23:22.183Z</time></trkpt><trkpt lat="46.00025" lon="11.939615"><ele>231.66666666666669</ele><time>2026-05-01T13:23:23.185Z</time></trkpt><trkpt lat="46.0004" lon="11.93948"><ele>230.0</ele><time>2026-05-01T13:23:24.184Z</time></trkpt><trkpt lat="46.000565" lon="11.939365"><ele>230.0</ele><time>2026-05-01T13:23:25.185Z</time></trkpt><trkpt lat="46.0007433" lon="11.9392583"><ele>230.0</ele><time>2026-05-01T13:23:26.185Z</time></trkpt><trkpt lat="46.0009367" lon="11.93915"><ele>230.0</ele><time>2026-05-01T13:23:27.184Z</time></trkpt><trkpt lat="46.0011433" lon="11.93904"><ele>229.5</ele><time>2026-05-01T13:23:28.185Z</time></trkpt><trkpt lat="46.0013617" lon="11.9389217"><ele>229.0</ele><time>2026-05-01T13:23:29.186Z</time></trkpt><trkpt lat="46.0015883" lon="11.9387883"><ele>238.5</ele><time>2026-05-01T13:23:30.185Z</time></trkpt><trkpt lat="46.0018217" lon="11.9386583"><ele>248.0</ele><time>2026-05-01T13:23:31.19Z</time></trkpt><trkpt lat="46.00206" lon="11.93853"><ele>248.0</ele><time>2026-05-01T13:23:32.188Z</time></trkpt><trkpt lat="46.0023033" lon="11.9383983"><ele>248.0</ele><time>2026-05-01T13:23:33.185Z</time></trkpt><trkpt lat="46.002555" lon="11.93826"><ele>243.0</ele><time>2026-05-01T13:23:34.186Z</time></trkpt><trkpt lat="46.0028083" lon="11.9381183"><ele>238.0</ele><time>2026-05-01T13:23:35.184Z</time></trkpt><trkpt lat="46.0030633" lon="11.9379767"><ele>238.0</ele><time>2026-05-01T13:23:36.184Z</time></trkpt><trkpt lat="46.003315" lon="11.93783"><ele>238.0</ele><time>2026-05-01T13:23:37.184Z</time></trkpt><trkpt lat="46.0035583" lon="11.93768"><ele>233.5</ele><time>2026-05-01T13:23:38.183Z</time></trkpt><trkpt lat="46.00379" lon="11.9375367"><ele>229.0</ele><time>2026-05-01T13:23:39.185Z</time></trkpt><trkpt lat="46.0040017" lon="11.9374067"><ele>229.66666666666666</ele><time>2026-05-01T13:23:40.185Z</time></trkpt><trkpt lat="46.0042" lon="11.9372883"><ele>230.33333333333331</ele><time>2026-05-01T13:23:41.185Z</time></trkpt><trkpt lat="46.004375" lon="11.93718"><ele>231.0</ele><time>2026-05-01T13:23:42.186Z</time></trkpt><trkpt lat="46.0045267" lon="11.9370617"><ele>231.0</ele><time>2026-05-01T13:23:43.186Z</time></trkpt><trkpt lat="46.0046583" lon="11.9369233"><ele>231.0</ele><time>2026-05-01T13:23:44.185Z</time></trkpt><trkpt lat="46.004775" lon="11.936745"><ele>231.0</ele><time>2026-05-01T13:23:45.183Z</time></trkpt><trkpt lat="46.0048767" lon="11.936525"><ele>231.0</ele><time>2026-05-01T13:23:46.184Z</time></trkpt><trkpt lat="46.0049717" lon="11.93627"><ele>231.0</ele><time>2026-05-01T13:23:47.184Z</time></trkpt><trkpt lat="46.00509" lon="11.9359883"><ele>231.0</ele><time>2026-05-01T13:23:48.184Z</time></trkpt><trkpt lat="46.0052267" lon="11.9357017"><ele>231.0</ele><time>2026-05-01T13:23:49.189Z</time></trkpt><trkpt lat="46.0053717" lon="11.9354167"><ele>231.0</ele><time>2026-05-01T13:23:50.185Z</time></trkpt><trkpt lat="46.00552" lon="11.9351383"><ele>232.5</ele><time>2026-05-01T13:23:51.185Z</time></trkpt><trkpt lat="46.0056717" lon="11.9348567"><ele>234.0</ele><time>2026-05-01T13:23:52.184Z</time></trkpt><trkpt lat="46.0058233" lon="11.93457"><ele>233.5</ele><time>2026-05-01T13:23:53.183Z</time></trkpt><trkpt lat="46.0059783" lon="11.9342783"><ele>233.0</ele><time>2026-05-01T13:23:54.185Z</time></trkpt><trkpt lat="46.006135" lon="11.9339867"><ele>233.0</ele><time>2026-05-01T13:23:55.187Z</time></trkpt><trkpt lat="46.00629" lon="11.9336933"><ele>233.0</ele><time>2026-05-01T13:23:56.186Z</time></trkpt><trkpt lat="46.0064417" lon="11.93341"><ele>233.0</ele><time>2026-05-01T13:23:57.185Z</time></trkpt><trkpt lat="46.0065917" lon="11.93313"><ele>233.0</ele><time>2026-05-01T13:23:58.187Z</time></trkpt><trkpt lat="46.00674" lon="11.9328517"><ele>233.0</ele><time>2026-05-01T13:23:59.186Z</time></trkpt><trkpt lat="46.0068917" lon="11.9325733"><ele>233.0</ele><time>2026-05-01T13:24:00.185Z</time></trkpt><trkpt lat="46.0070417" lon="11.932295"><ele>233.5</ele><time>2026-05-01T13:24:01.188Z</time></trkpt><trkpt lat="46.0071917" lon="11.9320183"><ele>234.0</ele><time>2026-05-01T13:24:02.188Z</time></trkpt><trkpt lat="46.0073383" lon="11.9317417"><ele>234.0</ele><time>2026-05-01T13:24:03.186Z</time></trkpt><trkpt lat="46.0074817" lon="11.931475"><ele>234.0</ele><time>2026-05-01T13:24:04.185Z</time></trkpt><trkpt lat="46.0076167" lon="11.9312233"><ele>233.66666666666669</ele><time>2026-05-01T13:24:05.187Z</time></trkpt><trkpt lat="46.007745" lon="11.9309917"><ele>233.33333333333334</ele><time>2026-05-01T13:24:06.185Z</time></trkpt><trkpt lat="46.0078667" lon="11.9307733"><ele>233.0</ele><time>2026-05-01T13:24:07.185Z</time></trkpt><trkpt lat="46.0079767" lon="11.93057"><ele>233.0</ele><time>2026-05-01T13:24:08.187Z</time></trkpt><trkpt lat="46.0080783" lon="11.93038"><ele>233.0</ele><time>2026-05-01T13:24:09.186Z</time></trkpt><trkpt lat="46.0081717" lon="11.9302033"><ele>233.0</ele><time>2026-05-01T13:24:10.184Z</time></trkpt><trkpt lat="46.0082583" lon="11.930045"><ele>233.50000000000003</ele><time>2026-05-01T13:24:11.184Z</time></trkpt><trkpt lat="46.0083333" lon="11.9299133"><ele>234.0</ele><time>2026-05-01T13:24:12.185Z</time></trkpt><trkpt lat="46.0083983" lon="11.9298067"><ele>234.5</ele><time>2026-05-01T13:24:13.186Z</time></trkpt><trkpt lat="46.0084617" lon="11.9297467"><ele>235.0</ele><time>2026-05-01T13:24:14.184Z</time></trkpt><trkpt lat="46.0085333" lon="11.929715"><ele>235.50000000000003</ele><time>2026-05-01T13:24:15.185Z</time></trkpt><trkpt lat="46.00861" lon="11.929705"><ele>236.0</ele><time>2026-05-01T13:24:16.186Z</time></trkpt><trkpt lat="46.008685" lon="11.9297233"><ele>236.0</ele><time>2026-05-01T13:24:17.188Z</time></trkpt><trkpt lat="46.00876" lon="11.9297667"><ele>236.00000000000003</ele><time>2026-05-01T13:24:18.184Z</time></trkpt><trkpt lat="46.0088383" lon="11.9298083"><ele>236.00000000000003</ele><time>2026-05-01T13:24:19.186Z</time></trkpt><trkpt lat="46.0089317" lon="11.9298267"><ele>236.0</ele><time>2026-05-01T13:24:20.185Z</time></trkpt><trkpt lat="46.009035" lon="11.929815"><ele>236.0</ele><time>2026-05-01T13:24:21.183Z</time></trkpt><trkpt lat="46.0091317" lon="11.9297567"><ele>236.75</ele><time>2026-05-01T13:24:22.189Z</time></trkpt><trkpt lat="46.009235" lon="11.9296683"><ele>237.5</ele><time>2026-05-01T13:24:23.186Z</time></trkpt><trkpt lat="46.0093517" lon="11.9295767"><ele>238.25</ele><time>2026-05-01T13:24:24.187Z</time></trkpt><trkpt lat="46.009475" lon="11.92948"><ele>239.0</ele><time>2026-05-01T13:24:25.186Z</time></trkpt><trkpt lat="46.0096033" lon="11.9293467"><ele>239.0</ele><time>2026-05-01T13:24:26.184Z</time></trkpt><trkpt lat="46.0097267" lon="11.9291767"><ele>239.0</ele><time>2026-05-01T13:24:27.187Z</time></trkpt><trkpt lat="46.0098433" lon="11.9289817"><ele>239.0</ele><time>2026-05-01T13:24:28.184Z</time></trkpt><trkpt lat="46.0099583" lon="11.9287917"><ele>238.66666666666669</ele><time>2026-05-01T13:24:29.183Z</time></trkpt><trkpt lat="46.01007" lon="11.9286083"><ele>238.33333333333331</ele><time>2026-05-01T13:24:30.184Z</time></trkpt><trkpt lat="46.010185" lon="11.9284217"><ele>238.0</ele><time>2026-05-01T13:24:31.183Z</time></trkpt><trkpt lat="46.010305" lon="11.928225"><ele>239.0</ele><time>2026-05-01T13:24:32.187Z</time></trkpt><trkpt lat="46.0104267" lon="11.9280183"><ele>240.0</ele><time>2026-05-01T13:24:33.186Z</time></trkpt><trkpt lat="46.0105467" lon="11.927805"><ele>241.0</ele><time>2026-05-01T13:24:34.184Z</time></trkpt><trkpt lat="46.0106733" lon="11.9275983"><ele>240.66666666666666</ele><time>2026-05-01T13:24:35.184Z</time></trkpt><trkpt lat="46.0107967" lon="11.9273767"><ele>240.33333333333331</ele><time>2026-05-01T13:24:36.186Z</time></trkpt><trkpt lat="46.0109217" lon="11.92714"><ele>240.0</ele><time>2026-05-01T13:24:37.187Z</time></trkpt><trkpt lat="46.01104" lon="11.9268983"><ele>240.66666666666669</ele><time>2026-05-01T13:24:38.185Z</time></trkpt><trkpt lat="46.011145" lon="11.9266633"><ele>241.33333333333334</ele><time>2026-05-01T13:24:39.187Z</time></trkpt><trkpt lat="46.0112333" lon="11.9264433"><ele>242.0</ele><time>2026-05-01T13:24:40.185Z</time></trkpt><trkpt lat="46.01131" lon="11.92623"><ele>242.0</ele><time>2026-05-01T13:24:41.184Z</time></trkpt><trkpt lat="46.0113783" lon="11.92601"><ele>242.0</ele><time>2026-05-01T13:24:42.184Z</time></trkpt><trkpt lat="46.011435" lon="11.9257967"><ele>242.0</ele><time>2026-05-01T13:24:43.184Z</time></trkpt><trkpt lat="46.0114817" lon="11.9255867"><ele>242.0</ele><time>2026-05-01T13:24:44.189Z</time></trkpt><trkpt lat="46.0115267" lon="11.9253783"><ele>242.0</ele><time>2026-05-01T13:24:45.186Z</time></trkpt><trkpt lat="46.011565" lon="11.925175"><ele>242.0</ele><time>2026-05-01T13:24:46.187Z</time></trkpt><trkpt lat="46.0116" lon="11.9249833"><ele>242.0</ele><time>2026-05-01T13:24:47.187Z</time></trkpt><trkpt lat="46.0116367" lon="11.9247983"><ele>243.25</ele><time>2026-05-01T13:24:48.185Z</time></trkpt><trkpt lat="46.01168" lon="11.9246183"><ele>244.5</ele><time>2026-05-01T13:24:49.184Z</time></trkpt><trkpt lat="46.0117333" lon="11.9244417"><ele>245.75</ele><time>2026-05-01T13:24:50.19Z</time></trkpt><trkpt lat="46.01179" lon="11.92428"><ele>247.0</ele><time>2026-05-01T13:24:51.185Z</time></trkpt><trkpt lat="46.0118567" lon="11.924135"><ele>247.0</ele><time>2026-05-01T13:24:52.184Z</time></trkpt><trkpt lat="46.01194" lon="11.9239967"><ele>247.0</ele><time>2026-05-01T13:24:53.184Z</time></trkpt><trkpt lat="46.01204" lon="11.9238767"><ele>247.0</ele><time>2026-05-01T13:24:54.185Z</time></trkpt><trkpt lat="46.0121533" lon="11.923775"><ele>247.0</ele><time>2026-05-01T13:24:55.184Z</time></trkpt><trkpt lat="46.0122717" lon="11.923675"><ele>247.0</ele><time>2026-05-01T13:24:56.185Z</time></trkpt><trkpt lat="46.0123867" lon="11.9235733"><ele>247.0</ele><time>2026-05-01T13:24:57.184Z</time></trkpt><trkpt lat="46.0124967" lon="11.923455"><ele>247.0</ele><time>2026-05-01T13:24:58.183Z</time></trkpt><trkpt lat="46.0126033" lon="11.92333"><ele>247.0</ele><time>2026-05-01T13:24:59.183Z</time></trkpt><trkpt lat="46.012705" lon="11.923205"><ele>249.0</ele><time>2026-05-01T13:25:00.182Z</time></trkpt><trkpt lat="46.0127983" lon="11.923075"><ele>251.0</ele><time>2026-05-01T13:25:01.184Z</time></trkpt><trkpt lat="46.0128917" lon="11.9229367"><ele>253.0</ele><time>2026-05-01T13:25:02.186Z</time></trkpt><trkpt lat="46.012985" lon="11.92278"><ele>255.0</ele><time>2026-05-01T13:25:03.185Z</time></trkpt><trkpt lat="46.013075" lon="11.9226033"><ele>256.3333333333333</ele><time>2026-05-01T13:25:04.185Z</time></trkpt><trkpt lat="46.013165" lon="11.9224083"><ele>257.66666666666663</ele><time>2026-05-01T13:25:05.183Z</time></trkpt><trkpt lat="46.0132533" lon="11.9222217"><ele>259.0</ele><time>2026-05-01T13:25:06.184Z</time></trkpt><trkpt lat="46.01333" lon="11.9220283"><ele>259.0</ele><time>2026-05-01T13:25:07.186Z</time></trkpt><trkpt lat="46.0133967" lon="11.9218317"><ele>259.0</ele><time>2026-05-01T13:25:08.184Z</time></trkpt><trkpt lat="46.013455" lon="11.9216233"><ele>259.0</ele><time>2026-05-01T13:25:09.185Z</time></trkpt><trkpt lat="46.0135083" lon="11.921405"><ele>258.0</ele><time>2026-05-01T13:25:10.186Z</time></trkpt><trkpt lat="46.013555" lon="11.92118"><ele>257.0</ele><time>2026-05-01T13:25:11.184Z</time></trkpt><trkpt lat="46.013585" lon="11.920945"><ele>256.0</ele><time>2026-05-01T13:25:12.183Z</time></trkpt><trkpt lat="46.0136083" lon="11.9207117"><ele>256.0</ele><time>2026-05-01T13:25:13.186Z</time></trkpt><trkpt lat="46.0136217" lon="11.9204883"><ele>256.0</ele><time>2026-05-01T13:25:14.185Z</time></trkpt><trkpt lat="46.0136317" lon="11.920275"><ele>256.0</ele><time>2026-05-01T13:25:15.187Z</time></trkpt><trkpt lat="46.01364" lon="11.92006"><ele>257.66666666666663</ele><time>2026-05-01T13:25:16.187Z</time></trkpt><trkpt lat="46.0136517" lon="11.9198417"><ele>259.3333333333333</ele><time>2026-05-01T13:25:17.185Z</time></trkpt><trkpt lat="46.0136567" lon="11.9196167"><ele>261.0</ele><time>2026-05-01T13:25:18.189Z</time></trkpt><trkpt lat="46.01366" lon="11.919385"><ele>260.3333333333333</ele><time>2026-05-01T13:25:19.189Z</time></trkpt><trkpt lat="46.0136533" lon="11.919145"><ele>259.66666666666663</ele><time>2026-05-01T13:25:20.184Z</time></trkpt><trkpt lat="46.0136267" lon="11.91888"><ele>259.0</ele><time>2026-05-01T13:25:21.186Z</time></trkpt><trkpt lat="46.0135883" lon="11.9185917"><ele>257.3333333333333</ele><time>2026-05-01T13:25:22.188Z</time></trkpt><trkpt lat="46.0135567" lon="11.9182933"><ele>255.66666666666669</ele><time>2026-05-01T13:25:23.183Z</time></trkpt><trkpt lat="46.01353" lon="11.91801"><ele>254.0</ele><time>2026-05-01T13:25:24.186Z</time></trkpt><trkpt lat="46.0135167" lon="11.9177433"><ele>255.66666666666669</ele><time>2026-05-01T13:25:25.186Z</time></trkpt><trkpt lat="46.013515" lon="11.9174833"><ele>257.3333333333333</ele><time>2026-05-01T13:25:26.188Z</time></trkpt><trkpt lat="46.0135317" lon="11.9172183"><ele>259.0</ele><time>2026-05-01T13:25:27.187Z</time></trkpt><trkpt lat="46.0135617" lon="11.9169467"><ele>258.66666666666663</ele><time>2026-05-01T13:25:28.188Z</time></trkpt><trkpt lat="46.0135967" lon="11.9166717"><ele>258.3333333333333</ele><time>2026-05-01T13:25:29.184Z</time></trkpt><trkpt lat="46.0136383" lon="11.9163933"><ele>258.0</ele><time>2026-05-01T13:25:30.183Z</time></trkpt><trkpt lat="46.0136767" lon="11.91612"><ele>256.0</ele><time>2026-05-01T13:25:31.185Z</time></trkpt><trkpt lat="46.0137067" lon="11.9158583"><ele>254.0</ele><time>2026-05-01T13:25:32.189Z</time></trkpt><trkpt lat="46.0137367" lon="11.9156067"><ele>252.0</ele><time>2026-05-01T13:25:33.185Z</time></trkpt><trkpt lat="46.01377" lon="11.9153567"><ele>252.0</ele><time>2026-05-01T13:25:34.184Z</time></trkpt><trkpt lat="46.013805" lon="11.9150983"><ele>252.0</ele><time>2026-05-01T13:25:35.187Z</time></trkpt><trkpt lat="46.0138383" lon="11.914855"><ele>252.0</ele><time>2026-05-01T13:25:36.184Z</time></trkpt><trkpt lat="46.0138583" lon="11.914625"><ele>251.75</ele><time>2026-05-01T13:25:37.184Z</time></trkpt><trkpt lat="46.0138667" lon="11.9144083"><ele>251.5</ele><time>2026-05-01T13:25:38.184Z</time></trkpt><trkpt lat="46.01387" lon="11.914195"><ele>251.25</ele><time>2026-05-01T13:25:39.186Z</time></trkpt><trkpt lat="46.013865" lon="11.9139883"><ele>251.0</ele><time>2026-05-01T13:25:40.186Z</time></trkpt><trkpt lat="46.013855" lon="11.913795"><ele>251.0</ele><time>2026-05-01T13:25:41.185Z</time></trkpt><trkpt lat="46.01384" lon="11.9136217"><ele>251.00000000000003</ele><time>2026-05-01T13:25:42.187Z</time></trkpt><trkpt lat="46.0138267" lon="11.91346"><ele>251.00000000000003</ele><time>2026-05-01T13:25:43.184Z</time></trkpt><trkpt lat="46.0138083" lon="11.9133117"><ele>251.0</ele><time>2026-05-01T13:25:44.184Z</time></trkpt><trkpt lat="46.0137833" lon="11.9131783"><ele>251.0</ele><time>2026-05-01T13:25:45.186Z</time></trkpt><trkpt lat="46.013765" lon="11.91306"><ele>251.00000000000003</ele><time>2026-05-01T13:25:46.186Z</time></trkpt><trkpt lat="46.01376" lon="11.91296"><ele>251.0</ele><time>2026-05-01T13:25:47.186Z</time></trkpt><trkpt lat="46.0137683" lon="11.91285"><ele>251.0</ele><time>2026-05-01T13:25:49.184Z</time></trkpt><trkpt lat="46.0138133" lon="11.912725"><ele>251.0</ele><time>2026-05-01T13:25:51.184Z</time></trkpt><trkpt lat="46.0138183" lon="11.91263"><ele>251.00000000000003</ele><time>2026-05-01T13:25:52.184Z</time></trkpt><trkpt lat="46.013795" lon="11.912535"><ele>251.0</ele><time>2026-05-01T13:25:53.184Z</time></trkpt><trkpt lat="46.01375" lon="11.91244"><ele>251.4</ele><time>2026-05-01T13:25:54.184Z</time></trkpt><trkpt lat="46.0136867" lon="11.9123517"><ele>251.8</ele><time>2026-05-01T13:25:55.184Z</time></trkpt><trkpt lat="46.0136117" lon="11.91224"><ele>252.20000000000002</ele><time>2026-05-01T13:25:56.187Z</time></trkpt><trkpt lat="46.0135517" lon="11.9121033"><ele>252.60000000000002</ele><time>2026-05-01T13:25:57.185Z</time></trkpt><trkpt lat="46.0135067" lon="11.91194"><ele>253.0</ele><time>2026-05-01T13:25:58.187Z</time></trkpt><trkpt lat="46.0134633" lon="11.9117783"><ele>253.5</ele><time>2026-05-01T13:25:59.183Z</time></trkpt><trkpt lat="46.013425" lon="11.91162"><ele>254.0</ele><time>2026-05-01T13:26:00.184Z</time></trkpt><trkpt lat="46.0133867" lon="11.91146"><ele>254.5</ele><time>2026-05-01T13:26:01.185Z</time></trkpt><trkpt lat="46.0133467" lon="11.911305"><ele>255.0</ele><time>2026-05-01T13:26:02.185Z</time></trkpt><trkpt lat="46.0133067" lon="11.9111483"><ele>255.0</ele><time>2026-05-01T13:26:03.185Z</time></trkpt><trkpt lat="46.0132633" lon="11.9109833"><ele>255.0</ele><time>2026-05-01T13:26:04.185Z</time></trkpt><trkpt lat="46.0132217" lon="11.9108267"><ele>255.0</ele><time>2026-05-01T13:26:05.186Z</time></trkpt><trkpt lat="46.013185" lon="11.9106767"><ele>255.0</ele><time>2026-05-01T13:26:06.184Z</time></trkpt><trkpt lat="46.0131533" lon="11.910535"><ele>255.0</ele><time>2026-05-01T13:26:07.185Z</time></trkpt><trkpt lat="46.013125" lon="11.9104117"><ele>255.0</ele><time>2026-05-01T13:26:08.186Z</time></trkpt><trkpt lat="46.0131017" lon="11.9102983"><ele>255.0</ele><time>2026-05-01T13:26:09.186Z</time></trkpt><trkpt lat="46.0130717" lon="11.910185"><ele>255.0</ele><time>2026-05-01T13:26:10.185Z</time></trkpt><trkpt lat="46.0130383" lon="11.9100633"><ele>255.0</ele><time>2026-05-01T13:26:11.186Z</time></trkpt><trkpt lat="46.013005" lon="11.909935"><ele>255.0</ele><time>2026-05-01T13:26:12.186Z</time></trkpt><trkpt lat="46.0129717" lon="11.9097983"><ele>254.8</ele><time>2026-05-01T13:26:13.183Z</time></trkpt><trkpt lat="46.0129533" lon="11.9096483"><ele>254.6</ele><time>2026-05-01T13:26:14.184Z</time></trkpt><trkpt lat="46.012955" lon="11.9095033"><ele>254.39999999999998</ele><time>2026-05-01T13:26:15.185Z</time></trkpt><trkpt lat="46.0129667" lon="11.9093733"><ele>254.2</ele><time>2026-05-01T13:26:16.184Z</time></trkpt><trkpt lat="46.0129917" lon="11.9092483"><ele>254.0</ele><time>2026-05-01T13:26:17.187Z</time></trkpt><trkpt lat="46.0130333" lon="11.9091233"><ele>254.0</ele><time>2026-05-01T13:26:18.187Z</time></trkpt><trkpt lat="46.01309" lon="11.90899"><ele>253.99999999999997</ele><time>2026-05-01T13:26:19.185Z</time></trkpt><trkpt lat="46.0131583" lon="11.9088567"><ele>253.99999999999997</ele><time>2026-05-01T13:26:20.186Z</time></trkpt><trkpt lat="46.0132317" lon="11.908735"><ele>254.0</ele><time>2026-05-01T13:26:21.185Z</time></trkpt><trkpt lat="46.0133033" lon="11.9086317"><ele>254.0</ele><time>2026-05-01T13:26:22.184Z</time></trkpt><trkpt lat="46.013365" lon="11.908535"><ele>254.2</ele><time>2026-05-01T13:26:23.185Z</time></trkpt><trkpt lat="46.013425" lon="11.908445"><ele>254.39999999999998</ele><time>2026-05-01T13:26:24.185Z</time></trkpt><trkpt lat="46.01349" lon="11.9083567"><ele>254.6</ele><time>2026-05-01T13:26:25.186Z</time></trkpt><trkpt lat="46.0135633" lon="11.908255"><ele>254.8</ele><time>2026-05-01T13:26:26.186Z</time></trkpt><trkpt lat="46.0136433" lon="11.9081417"><ele>255.0</ele><time>2026-05-01T13:26:27.187Z</time></trkpt><trkpt lat="46.01372" lon="11.90803"><ele>255.16666666666666</ele><time>2026-05-01T13:26:28.185Z</time></trkpt><trkpt lat="46.0137883" lon="11.9079333"><ele>255.33333333333331</ele><time>2026-05-01T13:26:29.186Z</time></trkpt><trkpt lat="46.0138517" lon="11.90785"><ele>255.5</ele><time>2026-05-01T13:26:30.184Z</time></trkpt><trkpt lat="46.0139117" lon="11.9077667"><ele>255.66666666666666</ele><time>2026-05-01T13:26:31.184Z</time></trkpt><trkpt lat="46.013975" lon="11.907685"><ele>255.83333333333331</ele><time>2026-05-01T13:26:32.185Z</time></trkpt><trkpt lat="46.01404" lon="11.9076"><ele>256.0</ele><time>2026-05-01T13:26:33.186Z</time></trkpt><trkpt lat="46.0141067" lon="11.9075133"><ele>256.0</ele><time>2026-05-01T13:26:34.184Z</time></trkpt><trkpt lat="46.0141717" lon="11.9074167"><ele>256.0</ele><time>2026-05-01T13:26:35.185Z</time></trkpt><trkpt lat="46.0142367" lon="11.90732"><ele>256.0</ele><time>2026-05-01T13:26:36.183Z</time></trkpt><trkpt lat="46.0143033" lon="11.9072267"><ele>256.0</ele><time>2026-05-01T13:26:37.184Z</time></trkpt><trkpt lat="46.01437" lon="11.9071383"><ele>256.0</ele><time>2026-05-01T13:26:38.184Z</time></trkpt><trkpt lat="46.0144367" lon="11.9070483"><ele>256.0</ele><time>2026-05-01T13:26:39.187Z</time></trkpt><trkpt lat="46.014505" lon="11.9069533"><ele>256.0</ele><time>2026-05-01T13:26:40.185Z</time></trkpt><trkpt lat="46.0145733" lon="11.9068533"><ele>256.0</ele><time>2026-05-01T13:26:41.184Z</time></trkpt><trkpt lat="46.0146433" lon="11.9067483"><ele>256.0</ele><time>2026-05-01T13:26:42.183Z</time></trkpt><trkpt lat="46.0147133" lon="11.90665"><ele>256.0</ele><time>2026-05-01T13:26:43.183Z</time></trkpt><trkpt lat="46.0147783" lon="11.90656"><ele>256.40000000000003</ele><time>2026-05-01T13:26:44.184Z</time></trkpt><trkpt lat="46.0148467" lon="11.906465"><ele>256.8</ele><time>2026-05-01T13:26:45.184Z</time></trkpt><trkpt lat="46.0149183" lon="11.9063617"><ele>257.20000000000005</ele><time>2026-05-01T13:26:46.187Z</time></trkpt><trkpt lat="46.0149883" lon="11.906245"><ele>257.6</ele><time>2026-05-01T13:26:47.186Z</time></trkpt><trkpt lat="46.01505" lon="11.9061133"><ele>258.0</ele><time>2026-05-01T13:26:48.185Z</time></trkpt><trkpt lat="46.015095" lon="11.9059567"><ele>259.0</ele><time>2026-05-01T13:26:49.186Z</time></trkpt><trkpt lat="46.0151233" lon="11.9057667"><ele>260.0</ele><time>2026-05-01T13:26:50.185Z</time></trkpt><trkpt lat="46.0151567" lon="11.9055583"><ele>261.0</ele><time>2026-05-01T13:26:51.188Z</time></trkpt><trkpt lat="46.015205" lon="11.905355"><ele>262.0</ele><time>2026-05-01T13:26:52.189Z</time></trkpt><trkpt lat="46.0152483" lon="11.9051617"><ele>262.25</ele><time>2026-05-01T13:26:53.186Z</time></trkpt><trkpt lat="46.0152867" lon="11.904985"><ele>262.5</ele><time>2026-05-01T13:26:54.186Z</time></trkpt><trkpt lat="46.0153183" lon="11.9048033"><ele>262.75</ele><time>2026-05-01T13:26:55.185Z</time></trkpt><trkpt lat="46.0153533" lon="11.9046167"><ele>263.0</ele><time>2026-05-01T13:26:56.186Z</time></trkpt><trkpt lat="46.01539" lon="11.9044267"><ele>263.0</ele><time>2026-05-01T13:26:57.184Z</time></trkpt><trkpt lat="46.0154183" lon="11.904245"><ele>263.0</ele><time>2026-05-01T13:26:58.185Z</time></trkpt><trkpt lat="46.0154417" lon="11.9040817"><ele>263.0</ele><time>2026-05-01T13:26:59.184Z</time></trkpt><trkpt lat="46.0154667" lon="11.90393"><ele>263.0</ele><time>2026-05-01T13:27:00.187Z</time></trkpt><trkpt lat="46.0154933" lon="11.9037783"><ele>263.0</ele><time>2026-05-01T13:27:01.183Z</time></trkpt><trkpt lat="46.0155217" lon="11.9036217"><ele>263.0</ele><time>2026-05-01T13:27:02.187Z</time></trkpt><trkpt lat="46.0155517" lon="11.9034583"><ele>263.0</ele><time>2026-05-01T13:27:03.183Z</time></trkpt><trkpt lat="46.0155783" lon="11.9032917"><ele>263.0</ele><time>2026-05-01T13:27:04.185Z</time></trkpt><trkpt lat="46.0156017" lon="11.9031333"><ele>263.0</ele><time>2026-05-01T13:27:05.185Z</time></trkpt><trkpt lat="46.0156233" lon="11.902985"><ele>263.0</ele><time>2026-05-01T13:27:06.185Z</time></trkpt><trkpt lat="46.015645" lon="11.902835"><ele>263.0</ele><time>2026-05-01T13:27:07.184Z</time></trkpt><trkpt lat="46.015665" lon="11.902685"><ele>263.0</ele><time>2026-05-01T13:27:08.185Z</time></trkpt><trkpt lat="46.0156867" lon="11.9025483"><ele>263.0</ele><time>2026-05-01T13:27:09.184Z</time></trkpt><trkpt lat="46.0157083" lon="11.902425"><ele>263.0</ele><time>2026-05-01T13:27:10.185Z</time></trkpt><trkpt lat="46.0157283" lon="11.902315"><ele>263.0</ele><time>2026-05-01T13:27:11.184Z</time></trkpt><trkpt lat="46.015745" lon="11.902215"><ele>263.0</ele><time>2026-05-01T13:27:12.187Z</time></trkpt><trkpt lat="46.0157533" lon="11.9021133"><ele>263.0</ele><time>2026-05-01T13:27:13.185Z</time></trkpt><trkpt lat="46.015765" lon="11.902"><ele>263.0</ele><time>2026-05-01T13:27:14.185Z</time></trkpt><trkpt lat="46.0157883" lon="11.9018783"><ele>263.0</ele><time>2026-05-01T13:27:15.184Z</time></trkpt><trkpt lat="46.015835" lon="11.901765"><ele>264.0</ele><time>2026-05-01T13:27:16.184Z</time></trkpt><trkpt lat="46.0158983" lon="11.90165"><ele>265.0</ele><time>2026-05-01T13:27:17.185Z</time></trkpt><trkpt lat="46.015985" lon="11.9015483"><ele>266.0</ele><time>2026-05-01T13:27:18.185Z</time></trkpt><trkpt lat="46.0160967" lon="11.9014733"><ele>267.0</ele><time>2026-05-01T13:27:19.187Z</time></trkpt><trkpt lat="46.0162167" lon="11.9014083"><ele>267.0</ele><time>2026-05-01T13:27:20.186Z</time></trkpt><trkpt lat="46.0163367" lon="11.9013433"><ele>267.0</ele><time>2026-05-01T13:27:21.185Z</time></trkpt><trkpt lat="46.0164567" lon="11.9012733"><ele>267.0</ele><time>2026-05-01T13:27:22.185Z</time></trkpt><trkpt lat="46.0165667" lon="11.901205"><ele>267.0</ele><time>2026-05-01T13:27:23.187Z</time></trkpt><trkpt lat="46.0166733" lon="11.9011483"><ele>266.8</ele><time>2026-05-01T13:27:24.184Z</time></trkpt><trkpt lat="46.016775" lon="11.90109"><ele>266.6</ele><time>2026-05-01T13:27:25.185Z</time></trkpt><trkpt lat="46.016875" lon="11.9010333"><ele>266.40000000000003</ele><time>2026-05-01T13:27:26.186Z</time></trkpt><trkpt lat="46.0169633" lon="11.9009817"><ele>266.2</ele><time>2026-05-01T13:27:27.185Z</time></trkpt><trkpt lat="46.01704" lon="11.90094"><ele>266.0</ele><time>2026-05-01T13:27:28.188Z</time></trkpt><trkpt lat="46.0171117" lon="11.9009083"><ele>266.0</ele><time>2026-05-01T13:27:29.185Z</time></trkpt><trkpt lat="46.0171733" lon="11.9008667"><ele>266.0</ele><time>2026-05-01T13:27:30.184Z</time></trkpt><trkpt lat="46.0172317" lon="11.900825"><ele>266.0</ele><time>2026-05-01T13:27:31.185Z</time></trkpt><trkpt lat="46.01731" lon="11.9007667"><ele>266.0</ele><time>2026-05-01T13:27:33.184Z</time></trkpt><trkpt lat="46.0174183" lon="11.9007133"><ele>266.0</ele><time>2026-05-01T13:27:35.186Z</time></trkpt><trkpt lat="46.0175067" lon="11.9006833"><ele>266.0</ele><time>2026-05-01T13:27:36.184Z</time></trkpt><trkpt lat="46.0176017" lon="11.9006467"><ele>266.5</ele><time>2026-05-01T13:27:37.186Z</time></trkpt><trkpt lat="46.0177017" lon="11.9005917"><ele>267.0</ele><time>2026-05-01T13:27:38.186Z</time></trkpt><trkpt lat="46.017805" lon="11.90049"><ele>267.5</ele><time>2026-05-01T13:27:39.188Z</time></trkpt><trkpt lat="46.0179067" lon="11.9003483"><ele>268.0</ele><time>2026-05-01T13:27:40.185Z</time></trkpt><trkpt lat="46.018" lon="11.90018"><ele>268.66666666666663</ele><time>2026-05-01T13:27:41.185Z</time></trkpt><trkpt lat="46.0180883" lon="11.9000083"><ele>269.3333333333333</ele><time>2026-05-01T13:27:42.186Z</time></trkpt><trkpt lat="46.018175" lon="11.899825"><ele>270.0</ele><time>2026-05-01T13:27:43.183Z</time></trkpt><trkpt lat="46.0182733" lon="11.89964"><ele>270.0</ele><time>2026-05-01T13:27:44.183Z</time></trkpt><trkpt lat="46.0183867" lon="11.89946"><ele>270.0</ele><time>2026-05-01T13:27:45.186Z</time></trkpt><trkpt lat="46.0185067" lon="11.8992833"><ele>270.0</ele><time>2026-05-01T13:27:46.183Z</time></trkpt><trkpt lat="46.01862" lon="11.89911"><ele>270.0</ele><time>2026-05-01T13:27:47.185Z</time></trkpt><trkpt lat="46.0187283" lon="11.898935"><ele>270.0</ele><time>2026-05-01T13:27:48.187Z</time></trkpt><trkpt lat="46.0188283" lon="11.8987533"><ele>270.0</ele><time>2026-05-01T13:27:49.186Z</time></trkpt><trkpt lat="46.0189133" lon="11.8985467"><ele>270.3333333333333</ele><time>2026-05-01T13:27:50.188Z</time></trkpt><trkpt lat="46.01898" lon="11.89831"><ele>270.66666666666663</ele><time>2026-05-01T13:27:51.184Z</time></trkpt><trkpt lat="46.0190383" lon="11.8980617"><ele>271.0</ele><time>2026-05-01T13:27:52.185Z</time></trkpt><trkpt lat="46.0190867" lon="11.8978217"><ele>271.0</ele><time>2026-05-01T13:27:53.184Z</time></trkpt><trkpt lat="46.0191333" lon="11.8975983"><ele>271.0</ele><time>2026-05-01T13:27:54.184Z</time></trkpt><trkpt lat="46.0191783" lon="11.8973833"><ele>271.0</ele><time>2026-05-01T13:27:55.186Z</time></trkpt><trkpt lat="46.019225" lon="11.8971633"><ele>271.75</ele><time>2026-05-01T13:27:56.186Z</time></trkpt><trkpt lat="46.0192733" lon="11.8969467"><ele>272.5</ele><time>2026-05-01T13:27:57.185Z</time></trkpt><trkpt lat="46.01931" lon="11.8967433"><ele>273.25</ele><time>2026-05-01T13:27:58.185Z</time></trkpt><trkpt lat="46.0193467" lon="11.8965567"><ele>274.0</ele><time>2026-05-01T13:27:59.183Z</time></trkpt><trkpt lat="46.0193683" lon="11.89638"><ele>274.0</ele><time>2026-05-01T13:28:00.184Z</time></trkpt><trkpt lat="46.0193867" lon="11.8962233"><ele>274.0</ele><time>2026-05-01T13:28:01.184Z</time></trkpt><trkpt lat="46.019405" lon="11.8960833"><ele>274.0</ele><time>2026-05-01T13:28:02.186Z</time></trkpt><trkpt lat="46.01943" lon="11.8959633"><ele>274.0</ele><time>2026-05-01T13:28:03.184Z</time></trkpt><trkpt lat="46.0194667" lon="11.8958633"><ele>274.0</ele><time>2026-05-01T13:28:04.188Z</time></trkpt><trkpt lat="46.0195217" lon="11.8957833"><ele>274.0</ele><time>2026-05-01T13:28:05.185Z</time></trkpt><trkpt lat="46.019595" lon="11.8957233"><ele>274.0</ele><time>2026-05-01T13:28:06.188Z</time></trkpt><trkpt lat="46.019635" lon="11.89563"><ele>274.0</ele><time>2026-05-01T13:28:07.185Z</time></trkpt><trkpt lat="46.019655" lon="11.8955117"><ele>274.0</ele><time>2026-05-01T13:28:08.185Z</time></trkpt><trkpt lat="46.0196467" lon="11.89537"><ele>274.0</ele><time>2026-05-01T13:28:09.185Z</time></trkpt><trkpt lat="46.0196017" lon="11.8952183"><ele>273.75</ele><time>2026-05-01T13:28:10.183Z</time></trkpt><trkpt lat="46.01952" lon="11.8950633"><ele>273.5</ele><time>2026-05-01T13:28:11.262Z</time></trkpt><trkpt lat="46.019455" lon="11.8948817"><ele>273.25</ele><time>2026-05-01T13:28:12.187Z</time></trkpt><trkpt lat="46.0194217" lon="11.8946667"><ele>273.0</ele><time>2026-05-01T13:28:13.188Z</time></trkpt><trkpt lat="46.0193967" lon="11.8944417"><ele>273.0</ele><time>2026-05-01T13:28:14.184Z</time></trkpt><trkpt lat="46.0193717" lon="11.89423"><ele>273.0</ele><time>2026-05-01T13:28:15.186Z</time></trkpt><trkpt lat="46.0193433" lon="11.8940417"><ele>273.0</ele><time>2026-05-01T13:28:16.184Z</time></trkpt><trkpt lat="46.019315" lon="11.89387"><ele>273.0</ele><time>2026-05-01T13:28:17.188Z</time></trkpt><trkpt lat="46.0192867" lon="11.8936983"><ele>273.0</ele><time>2026-05-01T13:28:18.184Z</time></trkpt><trkpt lat="46.0192583" lon="11.8935217"><ele>273.0</ele><time>2026-05-01T13:28:19.186Z</time></trkpt><trkpt lat="46.0192267" lon="11.8933483"><ele>273.0</ele><time>2026-05-01T13:28:20.186Z</time></trkpt><trkpt lat="46.0192017" lon="11.8931833"><ele>273.0</ele><time>2026-05-01T13:28:21.186Z</time></trkpt><trkpt lat="46.01918" lon="11.8930217"><ele>273.0</ele><time>2026-05-01T13:28:22.188Z</time></trkpt><trkpt lat="46.0191567" lon="11.8928633"><ele>273.0</ele><time>2026-05-01T13:28:23.186Z</time></trkpt><trkpt lat="46.0191317" lon="11.89271"><ele>273.0</ele><time>2026-05-01T13:28:24.187Z</time></trkpt><trkpt lat="46.01911" lon="11.8925683"><ele>273.0</ele><time>2026-05-01T13:28:25.187Z</time></trkpt><trkpt lat="46.0190933" lon="11.8924383"><ele>273.0</ele><time>2026-05-01T13:28:26.186Z</time></trkpt><trkpt lat="46.019075" lon="11.8923133"><ele>272.8</ele><time>2026-05-01T13:28:27.188Z</time></trkpt><trkpt lat="46.0190583" lon="11.892185"><ele>272.6</ele><time>2026-05-01T13:28:28.186Z</time></trkpt><trkpt lat="46.01904" lon="11.8920567"><ele>272.4</ele><time>2026-05-01T13:28:29.187Z</time></trkpt><trkpt lat="46.0190233" lon="11.8919183"><ele>272.2</ele><time>2026-05-01T13:28:30.185Z</time></trkpt><trkpt lat="46.0190083" lon="11.8917817"><ele>272.0</ele><time>2026-05-01T13:28:31.184Z</time></trkpt><trkpt lat="46.0189967" lon="11.8916383"><ele>272.0</ele><time>2026-05-01T13:28:32.187Z</time></trkpt><trkpt lat="46.0189833" lon="11.89149"><ele>272.0</ele><time>2026-05-01T13:28:33.184Z</time></trkpt><trkpt lat="46.0189683" lon="11.89135"><ele>272.0</ele><time>2026-05-01T13:28:34.185Z</time></trkpt><trkpt lat="46.0189567" lon="11.8912267"><ele>272.0</ele><time>2026-05-01T13:28:35.184Z</time></trkpt><trkpt lat="46.018945" lon="11.8911217"><ele>272.0</ele><time>2026-05-01T13:28:36.187Z</time></trkpt><trkpt lat="46.0189317" lon="11.891025"><ele>272.0</ele><time>2026-05-01T13:28:37.186Z</time></trkpt><trkpt lat="46.01892" lon="11.8909267"><ele>271.8</ele><time>2026-05-01T13:28:38.185Z</time></trkpt><trkpt lat="46.0189117" lon="11.8908233"><ele>271.6</ele><time>2026-05-01T13:28:39.185Z</time></trkpt><trkpt lat="46.0189033" lon="11.8907033"><ele>271.40000000000003</ele><time>2026-05-01T13:28:40.184Z</time></trkpt><trkpt lat="46.0188917" lon="11.8905717"><ele>271.2</ele><time>2026-05-01T13:28:41.184Z</time></trkpt><trkpt lat="46.01888" lon="11.89043"><ele>271.0</ele><time>2026-05-01T13:28:42.184Z</time></trkpt><trkpt lat="46.0188683" lon="11.8902817"><ele>271.0</ele><time>2026-05-01T13:28:43.184Z</time></trkpt><trkpt lat="46.018855" lon="11.89012"><ele>271.0</ele><time>2026-05-01T13:28:44.184Z</time></trkpt><trkpt lat="46.01884" lon="11.8899467"><ele>271.0</ele><time>2026-05-01T13:28:45.187Z</time></trkpt><trkpt lat="46.0188183" lon="11.8897717"><ele>271.0</ele><time>2026-05-01T13:28:46.183Z</time></trkpt><trkpt lat="46.0188033" lon="11.88962"><ele>271.0</ele><time>2026-05-01T13:28:47.186Z</time></trkpt><trkpt lat="46.01879" lon="11.8894783"><ele>271.0</ele><time>2026-05-01T13:28:48.186Z</time></trkpt><trkpt lat="46.0187783" lon="11.889355"><ele>271.0</ele><time>2026-05-01T13:28:49.185Z</time></trkpt><trkpt lat="46.0187683" lon="11.8892467"><ele>271.0</ele><time>2026-05-01T13:28:50.185Z</time></trkpt><trkpt lat="46.0187583" lon="11.889145"><ele>271.0</ele><time>2026-05-01T13:28:51.188Z</time></trkpt><trkpt lat="46.0187483" lon="11.8890417"><ele>271.0</ele><time>2026-05-01T13:28:52.186Z</time></trkpt><trkpt lat="46.0187383" lon="11.888945"><ele>271.0</ele><time>2026-05-01T13:28:53.186Z</time></trkpt><trkpt lat="46.0187233" lon="11.888775"><ele>271.0</ele><time>2026-05-01T13:28:55.187Z</time></trkpt><trkpt lat="46.0187033" lon="11.88861"><ele>271.0</ele><time>2026-05-01T13:28:57.184Z</time></trkpt><trkpt lat="46.0186533" lon="11.88845"><ele>271.0</ele><time>2026-05-01T13:28:59.185Z</time></trkpt><trkpt lat="46.018585" lon="11.888305"><ele>270.2</ele><time>2026-05-01T13:29:01.184Z</time></trkpt><trkpt lat="46.018555" lon="11.8881183"><ele>269.40000000000003</ele><time>2026-05-01T13:29:03.184Z</time></trkpt><trkpt lat="46.0185233" lon="11.888015"><ele>268.6</ele><time>2026-05-01T13:29:04.187Z</time></trkpt><trkpt lat="46.0184733" lon="11.887905"><ele>267.8</ele><time>2026-05-01T13:29:05.183Z</time></trkpt><trkpt lat="46.0184517" lon="11.88777"><ele>267.0</ele><time>2026-05-01T13:29:06.185Z</time></trkpt><trkpt lat="46.0184883" lon="11.8876233"><ele>267.0</ele><time>2026-05-01T13:29:07.186Z</time></trkpt><trkpt lat="46.0185367" lon="11.88747"><ele>267.0</ele><time>2026-05-01T13:29:08.183Z</time></trkpt><trkpt lat="46.0185383" lon="11.88732"><ele>267.0</ele><time>2026-05-01T13:29:09.188Z</time></trkpt><trkpt lat="46.0185267" lon="11.8871817"><ele>267.0</ele><time>2026-05-01T13:29:10.187Z</time></trkpt><trkpt lat="46.0185033" lon="11.887055"><ele>267.0</ele><time>2026-05-01T13:29:11.185Z</time></trkpt><trkpt lat="46.0184767" lon="11.8869367"><ele>267.0</ele><time>2026-05-01T13:29:12.187Z</time></trkpt><trkpt lat="46.0184483" lon="11.8868367"><ele>267.0</ele><time>2026-05-01T13:29:13.184Z</time></trkpt><trkpt lat="46.01842" lon="11.88674"><ele>267.0</ele><time>2026-05-01T13:29:14.189Z</time></trkpt><trkpt lat="46.01839" lon="11.8866267"><ele>267.0</ele><time>2026-05-01T13:29:15.189Z</time></trkpt><trkpt lat="46.0183517" lon="11.886495"><ele>267.0</ele><time>2026-05-01T13:29:16.186Z</time></trkpt><trkpt lat="46.018305" lon="11.8863467"><ele>267.0</ele><time>2026-05-01T13:29:17.184Z</time></trkpt><trkpt lat="46.0182533" lon="11.8861867"><ele>267.0</ele><time>2026-05-01T13:29:18.183Z</time></trkpt><trkpt lat="46.0181983" lon="11.8860217"><ele>267.0</ele><time>2026-05-01T13:29:19.185Z</time></trkpt><trkpt lat="46.0181417" lon="11.885855"><ele>267.0</ele><time>2026-05-01T13:29:20.184Z</time></trkpt><trkpt lat="46.0180933" lon="11.8856783"><ele>267.0</ele><time>2026-05-01T13:29:21.19Z</time></trkpt><trkpt lat="46.0180333" lon="11.8854917"><ele>267.0</ele><time>2026-05-01T13:29:22.185Z</time></trkpt><trkpt lat="46.0179617" lon="11.8852967"><ele>267.0</ele><time>2026-05-01T13:29:23.186Z</time></trkpt><trkpt lat="46.0178917" lon="11.8851"><ele>267.0</ele><time>2026-05-01T13:29:24.186Z</time></trkpt><trkpt lat="46.0178167" lon="11.8849067"><ele>267.0</ele><time>2026-05-01T13:29:25.184Z</time></trkpt><trkpt lat="46.0177433" lon="11.8847067"><ele>267.0</ele><time>2026-05-01T13:29:26.187Z</time></trkpt><trkpt lat="46.01767" lon="11.8844967"><ele>267.0</ele><time>2026-05-01T13:29:27.185Z</time></trkpt><trkpt lat="46.0175983" lon="11.8842883"><ele>267.6666666666667</ele><time>2026-05-01T13:29:28.185Z</time></trkpt><trkpt lat="46.0175283" lon="11.884085"><ele>268.33333333333337</ele><time>2026-05-01T13:29:29.186Z</time></trkpt><trkpt lat="46.0174617" lon="11.8838867"><ele>269.0</ele><time>2026-05-01T13:29:30.184Z</time></trkpt><trkpt lat="46.0173917" lon="11.8836833"><ele>269.6666666666667</ele><time>2026-05-01T13:29:31.184Z</time></trkpt><trkpt lat="46.017315" lon="11.883475"><ele>270.3333333333333</ele><time>2026-05-01T13:29:32.186Z</time></trkpt><trkpt lat="46.0172383" lon="11.883255"><ele>271.0</ele><time>2026-05-01T13:29:33.187Z</time></trkpt><trkpt lat="46.0171617" lon="11.8830267"><ele>271.0</ele><time>2026-05-01T13:29:34.185Z</time></trkpt><trkpt lat="46.0170833" lon="11.8827883"><ele>271.0</ele><time>2026-05-01T13:29:35.184Z</time></trkpt><trkpt lat="46.0170033" lon="11.8825467"><ele>271.0</ele><time>2026-05-01T13:29:36.186Z</time></trkpt><trkpt lat="46.0169167" lon="11.8823117"><ele>271.0</ele><time>2026-05-01T13:29:37.185Z</time></trkpt><trkpt lat="46.0168317" lon="11.8820717"><ele>271.0</ele><time>2026-05-01T13:29:38.186Z</time></trkpt><trkpt lat="46.0167483" lon="11.8818267"><ele>271.0</ele><time>2026-05-01T13:29:39.186Z</time></trkpt><trkpt lat="46.0166683" lon="11.8815833"><ele>271.0</ele><time>2026-05-01T13:29:40.184Z</time></trkpt><trkpt lat="46.016595" lon="11.8813533"><ele>271.0</ele><time>2026-05-01T13:29:41.187Z</time></trkpt><trkpt lat="46.01652" lon="11.8811333"><ele>271.0</ele><time>2026-05-01T13:29:42.186Z</time></trkpt><trkpt lat="46.016445" lon="11.8809133"><ele>271.0</ele><time>2026-05-01T13:29:43.185Z</time></trkpt><trkpt lat="46.0163667" lon="11.8806917"><ele>271.0</ele><time>2026-05-01T13:29:44.187Z</time></trkpt><trkpt lat="46.0162867" lon="11.8804683"><ele>271.0</ele><time>2026-05-01T13:29:45.188Z</time></trkpt><trkpt lat="46.016205" lon="11.88024"><ele>272.0</ele><time>2026-05-01T13:29:46.185Z</time></trkpt><trkpt lat="46.01612" lon="11.8800067"><ele>273.0</ele><time>2026-05-01T13:29:47.185Z</time></trkpt><trkpt lat="46.0160367" lon="11.8797667"><ele>274.0</ele><time>2026-05-01T13:29:48.186Z</time></trkpt><trkpt lat="46.0159567" lon="11.8795317"><ele>274.0</ele><time>2026-05-01T13:29:49.186Z</time></trkpt><trkpt lat="46.0158783" lon="11.8793067"><ele>274.0</ele><time>2026-05-01T13:29:50.186Z</time></trkpt><trkpt lat="46.0158" lon="11.8790817"><ele>274.0</ele><time>2026-05-01T13:29:51.185Z</time></trkpt><trkpt lat="46.01572" lon="11.8788483"><ele>274.3333333333333</ele><time>2026-05-01T13:29:52.186Z</time></trkpt><trkpt lat="46.01564" lon="11.878615"><ele>274.6666666666667</ele><time>2026-05-01T13:29:53.189Z</time></trkpt><trkpt lat="46.01556" lon="11.8783783"><ele>275.0</ele><time>2026-05-01T13:29:54.184Z</time></trkpt><trkpt lat="46.015475" lon="11.87814"><ele>275.0</ele><time>2026-05-01T13:29:55.187Z</time></trkpt><trkpt lat="46.0153933" lon="11.877895"><ele>275.0</ele><time>2026-05-01T13:29:56.188Z</time></trkpt><trkpt lat="46.0153117" lon="11.8776483"><ele>275.0</ele><time>2026-05-01T13:29:57.185Z</time></trkpt><trkpt lat="46.0152267" lon="11.8773983"><ele>275.0</ele><time>2026-05-01T13:29:58.185Z</time></trkpt><trkpt lat="46.01514" lon="11.8771483"><ele>275.0</ele><time>2026-05-01T13:29:59.184Z</time></trkpt><trkpt lat="46.0150533" lon="11.876905"><ele>275.0</ele><time>2026-05-01T13:30:00.189Z</time></trkpt><trkpt lat="46.014975" lon="11.8766717"><ele>275.33333333333337</ele><time>2026-05-01T13:30:01.184Z</time></trkpt><trkpt lat="46.014895" lon="11.876445"><ele>275.6666666666667</ele><time>2026-05-01T13:30:02.185Z</time></trkpt><trkpt lat="46.014815" lon="11.8762167"><ele>276.0</ele><time>2026-05-01T13:30:03.185Z</time></trkpt><trkpt lat="46.0147383" lon="11.8759817"><ele>276.6666666666667</ele><time>2026-05-01T13:30:04.186Z</time></trkpt><trkpt lat="46.01466" lon="11.8757467"><ele>277.33333333333337</ele><time>2026-05-01T13:30:05.184Z</time></trkpt><trkpt lat="46.01458" lon="11.8755083"><ele>278.0</ele><time>2026-05-01T13:30:06.184Z</time></trkpt><trkpt lat="46.0144967" lon="11.87527"><ele>278.33333333333337</ele><time>2026-05-01T13:30:07.184Z</time></trkpt><trkpt lat="46.0144133" lon="11.8750283"><ele>278.6666666666667</ele><time>2026-05-01T13:30:08.186Z</time></trkpt><trkpt lat="46.01433" lon="11.874785"><ele>279.0</ele><time>2026-05-01T13:30:09.187Z</time></trkpt><trkpt lat="46.01425" lon="11.874545"><ele>279.0</ele><time>2026-05-01T13:30:10.184Z</time></trkpt><trkpt lat="46.01417" lon="11.874315"><ele>279.0</ele><time>2026-05-01T13:30:11.182Z</time></trkpt><trkpt lat="46.014095" lon="11.8740883"><ele>279.0</ele><time>2026-05-01T13:30:12.187Z</time></trkpt><trkpt lat="46.0140167" lon="11.8738667"><ele>279.0</ele><time>2026-05-01T13:30:13.185Z</time></trkpt><trkpt lat="46.01394" lon="11.8736583"><ele>279.0</ele><time>2026-05-01T13:30:14.187Z</time></trkpt><trkpt lat="46.0138667" lon="11.8734633"><ele>279.0</ele><time>2026-05-01T13:30:15.188Z</time></trkpt><trkpt lat="46.0137983" lon="11.8732667"><ele>279.5</ele><time>2026-05-01T13:30:16.187Z</time></trkpt><trkpt lat="46.0137333" lon="11.873075"><ele>280.0</ele><time>2026-05-01T13:30:17.185Z</time></trkpt><trkpt lat="46.0136717" lon="11.87289"><ele>280.5</ele><time>2026-05-01T13:30:18.183Z</time></trkpt><trkpt lat="46.013605" lon="11.8727033"><ele>281.0</ele><time>2026-05-01T13:30:19.183Z</time></trkpt><trkpt lat="46.013535" lon="11.872515"><ele>281.0</ele><time>2026-05-01T13:30:20.185Z</time></trkpt><trkpt lat="46.013465" lon="11.8723217"><ele>281.0</ele><time>2026-05-01T13:30:21.186Z</time></trkpt><trkpt lat="46.0133967" lon="11.8721233"><ele>281.0</ele><time>2026-05-01T13:30:22.184Z</time></trkpt><trkpt lat="46.0133267" lon="11.8719167"><ele>281.25</ele><time>2026-05-01T13:30:23.183Z</time></trkpt><trkpt lat="46.0132567" lon="11.871715"><ele>281.5</ele><time>2026-05-01T13:30:24.186Z</time></trkpt><trkpt lat="46.0131933" lon="11.8715233"><ele>281.75</ele><time>2026-05-01T13:30:25.184Z</time></trkpt><trkpt lat="46.0131317" lon="11.87134"><ele>282.0</ele><time>2026-05-01T13:30:26.183Z</time></trkpt><trkpt lat="46.0130717" lon="11.8711583"><ele>282.0</ele><time>2026-05-01T13:30:27.186Z</time></trkpt><trkpt lat="46.01301" lon="11.87097"><ele>282.0</ele><time>2026-05-01T13:30:28.182Z</time></trkpt><trkpt lat="46.012945" lon="11.8707767"><ele>282.0</ele><time>2026-05-01T13:30:29.183Z</time></trkpt><trkpt lat="46.0128767" lon="11.87058"><ele>282.0</ele><time>2026-05-01T13:30:30.183Z</time></trkpt><trkpt lat="46.0128067" lon="11.8703733"><ele>282.3333333333333</ele><time>2026-05-01T13:30:31.184Z</time></trkpt><trkpt lat="46.0127383" lon="11.8701633"><ele>282.66666666666663</ele><time>2026-05-01T13:30:32.19Z</time></trkpt><trkpt lat="46.0126683" lon="11.869965"><ele>283.0</ele><time>2026-05-01T13:30:33.186Z</time></trkpt><trkpt lat="46.012605" lon="11.8697783"><ele>283.0</ele><time>2026-05-01T13:30:34.184Z</time></trkpt><trkpt lat="46.012545" lon="11.8696"><ele>283.0</ele><time>2026-05-01T13:30:35.183Z</time></trkpt><trkpt lat="46.012485" lon="11.869425"><ele>283.0</ele><time>2026-05-01T13:30:36.183Z</time></trkpt><trkpt lat="46.0124233" lon="11.869245"><ele>283.0</ele><time>2026-05-01T13:30:37.183Z</time></trkpt><trkpt lat="46.01236" lon="11.8690633"><ele>283.0</ele><time>2026-05-01T13:30:38.186Z</time></trkpt><trkpt lat="46.012295" lon="11.8688817"><ele>283.0</ele><time>2026-05-01T13:30:39.187Z</time></trkpt><trkpt lat="46.01223" lon="11.8687"><ele>283.0</ele><time>2026-05-01T13:30:40.189Z</time></trkpt><trkpt lat="46.012165" lon="11.8685117"><ele>283.0</ele><time>2026-05-01T13:30:41.183Z</time></trkpt><trkpt lat="46.0121" lon="11.86832"><ele>284.0</ele><time>2026-05-01T13:30:42.184Z</time></trkpt><trkpt lat="46.01203" lon="11.8681233"><ele>285.0</ele><time>2026-05-01T13:30:43.183Z</time></trkpt><trkpt lat="46.0119617" lon="11.86792"><ele>286.0</ele><time>2026-05-01T13:30:44.185Z</time></trkpt><trkpt lat="46.0118833" lon="11.8677017"><ele>286.0</ele><time>2026-05-01T13:30:45.188Z</time></trkpt><trkpt lat="46.0117933" lon="11.8674717"><ele>286.0</ele><time>2026-05-01T13:30:46.183Z</time></trkpt><trkpt lat="46.0117067" lon="11.8672217"><ele>286.0</ele><time>2026-05-01T13:30:47.185Z</time></trkpt><trkpt lat="46.01162" lon="11.8669617"><ele>286.0</ele><time>2026-05-01T13:30:48.185Z</time></trkpt><trkpt lat="46.011535" lon="11.8667033"><ele>286.0</ele><time>2026-05-01T13:30:49.187Z</time></trkpt><trkpt lat="46.0114533" lon="11.8664483"><ele>286.0</ele><time>2026-05-01T13:30:50.184Z</time></trkpt><trkpt lat="46.011375" lon="11.8661933"><ele>286.3333333333333</ele><time>2026-05-01T13:30:51.184Z</time></trkpt><trkpt lat="46.0112933" lon="11.8659417"><ele>286.6666666666667</ele><time>2026-05-01T13:30:52.187Z</time></trkpt><trkpt lat="46.0112117" lon="11.8656983"><ele>287.0</ele><time>2026-05-01T13:30:53.183Z</time></trkpt><trkpt lat="46.0111333" lon="11.8654683"><ele>287.0</ele><time>2026-05-01T13:30:54.183Z</time></trkpt><trkpt lat="46.0110533" lon="11.86524"><ele>287.0</ele><time>2026-05-01T13:30:55.188Z</time></trkpt><trkpt lat="46.0109767" lon="11.8650133"><ele>287.0</ele><time>2026-05-01T13:30:56.187Z</time></trkpt><trkpt lat="46.0108933" lon="11.86479"><ele>287.6666666666667</ele><time>2026-05-01T13:30:57.184Z</time></trkpt><trkpt lat="46.0108083" lon="11.8645667"><ele>288.3333333333333</ele><time>2026-05-01T13:30:58.187Z</time></trkpt><trkpt lat="46.0107317" lon="11.8643467"><ele>289.0</ele><time>2026-05-01T13:30:59.186Z</time></trkpt><trkpt lat="46.0106583" lon="11.8641333"><ele>290.0</ele><time>2026-05-01T13:31:00.186Z</time></trkpt><trkpt lat="46.0105883" lon="11.8639233"><ele>291.0</ele><time>2026-05-01T13:31:01.185Z</time></trkpt><trkpt lat="46.01052" lon="11.8637217"><ele>292.0</ele><time>2026-05-01T13:31:02.185Z</time></trkpt><trkpt lat="46.0104567" lon="11.8635317"><ele>291.66666666666663</ele><time>2026-05-01T13:31:03.188Z</time></trkpt><trkpt lat="46.01039" lon="11.86334"><ele>291.3333333333333</ele><time>2026-05-01T13:31:04.188Z</time></trkpt><trkpt lat="46.01032" lon="11.86314"><ele>291.0</ele><time>2026-05-01T13:31:05.182Z</time></trkpt><trkpt lat="46.0102433" lon="11.8629233"><ele>291.0</ele><time>2026-05-01T13:31:06.183Z</time></trkpt><trkpt lat="46.0101617" lon="11.8626883"><ele>291.0</ele><time>2026-05-01T13:31:07.182Z</time></trkpt><trkpt lat="46.0100767" lon="11.8624433"><ele>291.0</ele><time>2026-05-01T13:31:08.183Z</time></trkpt><trkpt lat="46.00999" lon="11.8622033"><ele>291.0</ele><time>2026-05-01T13:31:09.185Z</time></trkpt><trkpt lat="46.00991" lon="11.8619633"><ele>291.0</ele><time>2026-05-01T13:31:10.184Z</time></trkpt><trkpt lat="46.0098267" lon="11.8617217"><ele>291.0</ele><time>2026-05-01T13:31:11.186Z</time></trkpt><trkpt lat="46.0097433" lon="11.861485"><ele>291.0</ele><time>2026-05-01T13:31:12.187Z</time></trkpt><trkpt lat="46.009665" lon="11.8612533"><ele>291.0</ele><time>2026-05-01T13:31:13.186Z</time></trkpt><trkpt lat="46.0095867" lon="11.8610367"><ele>291.0</ele><time>2026-05-01T13:31:14.186Z</time></trkpt><trkpt lat="46.0095117" lon="11.8608233"><ele>292.0</ele><time>2026-05-01T13:31:15.185Z</time></trkpt><trkpt lat="46.009435" lon="11.8606083"><ele>293.0</ele><time>2026-05-01T13:31:16.183Z</time></trkpt><trkpt lat="46.00936" lon="11.8603833"><ele>294.0</ele><time>2026-05-01T13:31:17.183Z</time></trkpt><trkpt lat="46.0092867" lon="11.8601533"><ele>294.0</ele><time>2026-05-01T13:31:18.186Z</time></trkpt><trkpt lat="46.009205" lon="11.8599233"><ele>294.0</ele><time>2026-05-01T13:31:19.183Z</time></trkpt><trkpt lat="46.009125" lon="11.85968"><ele>294.0</ele><time>2026-05-01T13:31:20.184Z</time></trkpt><trkpt lat="46.0090383" lon="11.8594367"><ele>294.6666666666667</ele><time>2026-05-01T13:31:21.185Z</time></trkpt><trkpt lat="46.0089517" lon="11.8591933"><ele>295.33333333333337</ele><time>2026-05-01T13:31:22.183Z</time></trkpt><trkpt lat="46.00887" lon="11.8589467"><ele>296.0</ele><time>2026-05-01T13:31:23.185Z</time></trkpt><trkpt lat="46.0087917" lon="11.8587033"><ele>296.0</ele><time>2026-05-01T13:31:24.187Z</time></trkpt><trkpt lat="46.0087067" lon="11.8584617"><ele>296.0</ele><time>2026-05-01T13:31:25.187Z</time></trkpt><trkpt lat="46.0086283" lon="11.858225"><ele>296.0</ele><time>2026-05-01T13:31:26.185Z</time></trkpt><trkpt lat="46.008555" lon="11.8579983"><ele>297.0</ele><time>2026-05-01T13:31:27.184Z</time></trkpt><trkpt lat="46.00848" lon="11.8577783"><ele>298.0</ele><time>2026-05-01T13:31:28.184Z</time></trkpt><trkpt lat="46.008405" lon="11.8575583"><ele>299.0</ele><time>2026-05-01T13:31:29.184Z</time></trkpt><trkpt lat="46.0083267" lon="11.8573367"><ele>298.6666666666667</ele><time>2026-05-01T13:31:30.182Z</time></trkpt><trkpt lat="46.0082467" lon="11.8571083"><ele>298.3333333333333</ele><time>2026-05-01T13:31:31.182Z</time></trkpt><trkpt lat="46.0081667" lon="11.8568783"><ele>298.0</ele><time>2026-05-01T13:31:32.187Z</time></trkpt><trkpt lat="46.0080883" lon="11.856645"><ele>299.0</ele><time>2026-05-01T13:31:33.185Z</time></trkpt><trkpt lat="46.0080067" lon="11.856405"><ele>300.0</ele><time>2026-05-01T13:31:34.183Z</time></trkpt><trkpt lat="46.0079217" lon="11.85616"><ele>301.0</ele><time>2026-05-01T13:31:35.263Z</time></trkpt><trkpt lat="46.007835" lon="11.8559117"><ele>301.66666666666663</ele><time>2026-05-01T13:31:36.186Z</time></trkpt><trkpt lat="46.0077483" lon="11.85566"><ele>302.3333333333333</ele><time>2026-05-01T13:31:37.184Z</time></trkpt><trkpt lat="46.0076583" lon="11.85541"><ele>303.0</ele><time>2026-05-01T13:31:38.182Z</time></trkpt><trkpt lat="46.0075717" lon="11.8551617"><ele>303.3333333333333</ele><time>2026-05-01T13:31:39.185Z</time></trkpt><trkpt lat="46.00749" lon="11.8549217"><ele>303.66666666666663</ele><time>2026-05-01T13:31:40.186Z</time></trkpt><trkpt lat="46.007415" lon="11.8546933"><ele>304.0</ele><time>2026-05-01T13:31:41.185Z</time></trkpt><trkpt lat="46.0073417" lon="11.8544733"><ele>304.66666666666663</ele><time>2026-05-01T13:31:42.185Z</time></trkpt><trkpt lat="46.0072683" lon="11.8542517"><ele>305.3333333333333</ele><time>2026-05-01T13:31:43.184Z</time></trkpt><trkpt lat="46.0071933" lon="11.854025"><ele>306.0</ele><time>2026-05-01T13:31:44.183Z</time></trkpt><trkpt lat="46.0071133" lon="11.8537967"><ele>306.0</ele><time>2026-05-01T13:31:45.185Z</time></trkpt><trkpt lat="46.007035" lon="11.853565"><ele>306.0</ele><time>2026-05-01T13:31:46.182Z</time></trkpt><trkpt lat="46.0069517" lon="11.8533333"><ele>306.0</ele><time>2026-05-01T13:31:47.184Z</time></trkpt><trkpt lat="46.0068667" lon="11.8531"><ele>306.0</ele><time>2026-05-01T13:31:48.189Z</time></trkpt><trkpt lat="46.00679" lon="11.8528683"><ele>306.0</ele><time>2026-05-01T13:31:49.19Z</time></trkpt><trkpt lat="46.00672" lon="11.8526533"><ele>306.0</ele><time>2026-05-01T13:31:50.185Z</time></trkpt><trkpt lat="46.0066517" lon="11.8524433"><ele>306.3333333333333</ele><time>2026-05-01T13:31:51.184Z</time></trkpt><trkpt lat="46.00658" lon="11.8522383"><ele>306.66666666666663</ele><time>2026-05-01T13:31:52.182Z</time></trkpt><trkpt lat="46.0065133" lon="11.8520283"><ele>307.0</ele><time>2026-05-01T13:31:53.183Z</time></trkpt><trkpt lat="46.006435" lon="11.8518167"><ele>308.0</ele><time>2026-05-01T13:31:54.186Z</time></trkpt><trkpt lat="46.0063617" lon="11.8516067"><ele>309.0</ele><time>2026-05-01T13:31:55.263Z</time></trkpt><trkpt lat="46.00629" lon="11.8514117"><ele>310.0</ele><time>2026-05-01T13:31:56.185Z</time></trkpt><trkpt lat="46.0062183" lon="11.8512167"><ele>310.0</ele><time>2026-05-01T13:31:57.185Z</time></trkpt><trkpt lat="46.0061467" lon="11.8510133"><ele>310.0</ele><time>2026-05-01T13:31:58.183Z</time></trkpt><trkpt lat="46.006075" lon="11.850805"><ele>310.0</ele><time>2026-05-01T13:31:59.183Z</time></trkpt><trkpt lat="46.0060017" lon="11.8505933"><ele>310.3333333333333</ele><time>2026-05-01T13:32:00.186Z</time></trkpt><trkpt lat="46.0059283" lon="11.8503733"><ele>310.6666666666667</ele><time>2026-05-01T13:32:01.191Z</time></trkpt><trkpt lat="46.0058583" lon="11.8501583"><ele>311.0</ele><time>2026-05-01T13:32:02.183Z</time></trkpt><trkpt lat="46.00579" lon="11.8499583"><ele>311.0</ele><time>2026-05-01T13:32:03.184Z</time></trkpt><trkpt lat="46.005725" lon="11.8497667"><ele>311.0</ele><time>2026-05-01T13:32:04.185Z</time></trkpt><trkpt lat="46.0056583" lon="11.8495733"><ele>311.0</ele><time>2026-05-01T13:32:05.184Z</time></trkpt><trkpt lat="46.0055867" lon="11.8493783"><ele>311.0</ele><time>2026-05-01T13:32:06.183Z</time></trkpt><trkpt lat="46.005505" lon="11.8491883"><ele>311.0</ele><time>2026-05-01T13:32:07.184Z</time></trkpt><trkpt lat="46.00542" lon="11.849005"><ele>311.0</ele><time>2026-05-01T13:32:08.183Z</time></trkpt><trkpt lat="46.00533" lon="11.8488283"><ele>311.0</ele><time>2026-05-01T13:32:09.186Z</time></trkpt><trkpt lat="46.005235" lon="11.848655"><ele>311.0</ele><time>2026-05-01T13:32:10.185Z</time></trkpt><trkpt lat="46.00514" lon="11.8484817"><ele>311.0</ele><time>2026-05-01T13:32:11.183Z</time></trkpt><trkpt lat="46.0050417" lon="11.84831"><ele>311.0</ele><time>2026-05-01T13:32:12.186Z</time></trkpt><trkpt lat="46.004945" lon="11.8481383"><ele>311.0</ele><time>2026-05-01T13:32:13.184Z</time></trkpt><trkpt lat="46.0048533" lon="11.8479733"><ele>311.0</ele><time>2026-05-01T13:32:14.186Z</time></trkpt><trkpt lat="46.0047667" lon="11.8478133"><ele>311.0</ele><time>2026-05-01T13:32:15.183Z</time></trkpt><trkpt lat="46.0046767" lon="11.84766"><ele>311.75</ele><time>2026-05-01T13:32:16.184Z</time></trkpt><trkpt lat="46.0045883" lon="11.847505"><ele>312.5</ele><time>2026-05-01T13:32:17.182Z</time></trkpt><trkpt lat="46.0045" lon="11.847345"><ele>313.25</ele><time>2026-05-01T13:32:18.183Z</time></trkpt><trkpt lat="46.0044183" lon="11.8471767"><ele>314.0</ele><time>2026-05-01T13:32:19.184Z</time></trkpt><trkpt lat="46.0043383" lon="11.8470033"><ele>314.0</ele><time>2026-05-01T13:32:20.184Z</time></trkpt><trkpt lat="46.0042583" lon="11.846825"><ele>314.0</ele><time>2026-05-01T13:32:21.184Z</time></trkpt><trkpt lat="46.0041767" lon="11.8466483"><ele>314.0</ele><time>2026-05-01T13:32:22.185Z</time></trkpt><trkpt lat="46.0040917" lon="11.84647"><ele>314.0</ele><time>2026-05-01T13:32:23.186Z</time></trkpt><trkpt lat="46.004005" lon="11.8462917"><ele>314.0</ele><time>2026-05-01T13:32:24.186Z</time></trkpt><trkpt lat="46.00392" lon="11.8461117"><ele>314.0</ele><time>2026-05-01T13:32:25.186Z</time></trkpt><trkpt lat="46.0038317" lon="11.8459333"><ele>314.0</ele><time>2026-05-01T13:32:26.185Z</time></trkpt><trkpt lat="46.0037533" lon="11.8457533"><ele>314.5</ele><time>2026-05-01T13:32:27.186Z</time></trkpt><trkpt lat="46.0036783" lon="11.8455767"><ele>315.0</ele><time>2026-05-01T13:32:28.184Z</time></trkpt><trkpt lat="46.0036033" lon="11.8454033"><ele>315.5</ele><time>2026-05-01T13:32:29.183Z</time></trkpt><trkpt lat="46.0035267" lon="11.8452233"><ele>316.0</ele><time>2026-05-01T13:32:30.186Z</time></trkpt><trkpt lat="46.0034533" lon="11.8450383"><ele>316.5</ele><time>2026-05-01T13:32:31.188Z</time></trkpt><trkpt lat="46.00339" lon="11.8448533"><ele>317.0</ele><time>2026-05-01T13:32:32.183Z</time></trkpt><trkpt lat="46.0033367" lon="11.8446633"><ele>317.5</ele><time>2026-05-01T13:32:33.185Z</time></trkpt><trkpt lat="46.0032817" lon="11.8444667"><ele>318.0</ele><time>2026-05-01T13:32:34.186Z</time></trkpt><trkpt lat="46.003225" lon="11.8442633"><ele>318.5</ele><time>2026-05-01T13:32:35.186Z</time></trkpt><trkpt lat="46.0031733" lon="11.844055"><ele>319.0</ele><time>2026-05-01T13:32:36.184Z</time></trkpt><trkpt lat="46.00313" lon="11.8438533"><ele>319.5</ele><time>2026-05-01T13:32:37.185Z</time></trkpt><trkpt lat="46.0030933" lon="11.843655"><ele>320.0</ele><time>2026-05-01T13:32:38.184Z</time></trkpt><trkpt lat="46.0030617" lon="11.8434467"><ele>320.5</ele><time>2026-05-01T13:32:39.185Z</time></trkpt><trkpt lat="46.0030383" lon="11.8432317"><ele>321.0</ele><time>2026-05-01T13:32:40.186Z</time></trkpt><trkpt lat="46.0030217" lon="11.8430167"><ele>321.5</ele><time>2026-05-01T13:32:41.185Z</time></trkpt><trkpt lat="46.0030067" lon="11.8428133"><ele>322.0</ele><time>2026-05-01T13:32:42.183Z</time></trkpt><trkpt lat="46.0029967" lon="11.8426233"><ele>322.25</ele><time>2026-05-01T13:32:43.186Z</time></trkpt><trkpt lat="46.0029867" lon="11.842435"><ele>322.5</ele><time>2026-05-01T13:32:44.185Z</time></trkpt><trkpt lat="46.0029933" lon="11.84224"><ele>322.75</ele><time>2026-05-01T13:32:45.188Z</time></trkpt><trkpt lat="46.0030167" lon="11.8420433"><ele>323.0</ele><time>2026-05-01T13:32:46.184Z</time></trkpt><trkpt lat="46.00305" lon="11.8418483"><ele>322.5</ele><time>2026-05-01T13:32:47.186Z</time></trkpt><trkpt lat="46.0030867" lon="11.8416667"><ele>322.0</ele><time>2026-05-01T13:32:48.183Z</time></trkpt><trkpt lat="46.0031283" lon="11.8414983"><ele>321.5</ele><time>2026-05-01T13:32:49.184Z</time></trkpt><trkpt lat="46.003175" lon="11.8413317"><ele>321.0</ele><time>2026-05-01T13:32:50.186Z</time></trkpt><trkpt lat="46.00323" lon="11.8411617"><ele>321.0</ele><time>2026-05-01T13:32:51.192Z</time></trkpt><trkpt lat="46.0032817" lon="11.8409867"><ele>321.0</ele><time>2026-05-01T13:32:52.186Z</time></trkpt><trkpt lat="46.0033333" lon="11.8408133"><ele>321.0</ele><time>2026-05-01T13:32:53.185Z</time></trkpt><trkpt lat="46.0033883" lon="11.8406633"><ele>321.0</ele><time>2026-05-01T13:32:54.186Z</time></trkpt><trkpt lat="46.003435" lon="11.8405183"><ele>321.20000000000005</ele><time>2026-05-01T13:32:55.185Z</time></trkpt><trkpt lat="46.0034783" lon="11.8403817"><ele>321.40000000000003</ele><time>2026-05-01T13:32:56.184Z</time></trkpt><trkpt lat="46.0035167" lon="11.8402517"><ele>321.6</ele><time>2026-05-01T13:32:57.184Z</time></trkpt><trkpt lat="46.003555" lon="11.8401217"><ele>321.8</ele><time>2026-05-01T13:32:58.184Z</time></trkpt><trkpt lat="46.0035983" lon="11.8399917"><ele>322.0</ele><time>2026-05-01T13:32:59.187Z</time></trkpt><trkpt lat="46.00364" lon="11.83987"><ele>322.0</ele><time>2026-05-01T13:33:00.19Z</time></trkpt><trkpt lat="46.00367" lon="11.8397483"><ele>322.0</ele><time>2026-05-01T13:33:01.185Z</time></trkpt><trkpt lat="46.0036883" lon="11.8396317"><ele>322.0</ele><time>2026-05-01T13:33:02.188Z</time></trkpt><trkpt lat="46.0037" lon="11.83953"><ele>322.0</ele><time>2026-05-01T13:33:03.186Z</time></trkpt><trkpt lat="46.0037233" lon="11.83938"><ele>322.0</ele><time>2026-05-01T13:33:05.184Z</time></trkpt><trkpt lat="46.00376" lon="11.8393017"><ele>322.0</ele><time>2026-05-01T13:33:06.184Z</time></trkpt><trkpt lat="46.00381" lon="11.839205"><ele>321.25</ele><time>2026-05-01T13:33:07.187Z</time></trkpt><trkpt lat="46.003865" lon="11.83908"><ele>320.5</ele><time>2026-05-01T13:33:08.184Z</time></trkpt><trkpt lat="46.00392" lon="11.8389267"><ele>319.75</ele><time>2026-05-01T13:33:09.184Z</time></trkpt><trkpt lat="46.0039733" lon="11.8387683"><ele>319.0</ele><time>2026-05-01T13:33:10.184Z</time></trkpt><trkpt lat="46.0040267" lon="11.8386"><ele>318.5</ele><time>2026-05-01T13:33:11.185Z</time></trkpt><trkpt lat="46.0040833" lon="11.8384183"><ele>318.0</ele><time>2026-05-01T13:33:12.184Z</time></trkpt><trkpt lat="46.004145" lon="11.83822"><ele>317.5</ele><time>2026-05-01T13:33:13.187Z</time></trkpt><trkpt lat="46.0042083" lon="11.8380117"><ele>317.0</ele><time>2026-05-01T13:33:14.186Z</time></trkpt><trkpt lat="46.0042733" lon="11.8378033"><ele>318.0</ele><time>2026-05-01T13:33:15.188Z</time></trkpt><trkpt lat="46.00434" lon="11.8375917"><ele>319.0</ele><time>2026-05-01T13:33:16.185Z</time></trkpt><trkpt lat="46.00441" lon="11.8373783"><ele>320.0</ele><time>2026-05-01T13:33:17.185Z</time></trkpt><trkpt lat="46.0044917" lon="11.83718"><ele>320.0</ele><time>2026-05-01T13:33:18.184Z</time></trkpt><trkpt lat="46.0045917" lon="11.8369983"><ele>320.0</ele><time>2026-05-01T13:33:19.184Z</time></trkpt><trkpt lat="46.0046983" lon="11.8368217"><ele>320.0</ele><time>2026-05-01T13:33:20.189Z</time></trkpt><trkpt lat="46.00482" lon="11.836645"><ele>320.33333333333337</ele><time>2026-05-01T13:33:21.189Z</time></trkpt><trkpt lat="46.00495" lon="11.8364767"><ele>320.6666666666667</ele><time>2026-05-01T13:33:22.186Z</time></trkpt><trkpt lat="46.00508" lon="11.836305"><ele>321.0</ele><time>2026-05-01T13:33:23.184Z</time></trkpt><trkpt lat="46.0052117" lon="11.83614"><ele>321.0</ele><time>2026-05-01T13:33:24.184Z</time></trkpt><trkpt lat="46.0053433" lon="11.8359767"><ele>321.0</ele><time>2026-05-01T13:33:25.186Z</time></trkpt><trkpt lat="46.00547" lon="11.8358117"><ele>321.0</ele><time>2026-05-01T13:33:26.184Z</time></trkpt><trkpt lat="46.0055917" lon="11.8356467"><ele>319.0</ele><time>2026-05-01T13:33:27.185Z</time></trkpt><trkpt lat="46.0057117" lon="11.835475"><ele>317.0</ele><time>2026-05-01T13:33:28.185Z</time></trkpt><trkpt lat="46.005825" lon="11.8353017"><ele>315.0</ele><time>2026-05-01T13:33:29.185Z</time></trkpt><trkpt lat="46.0059217" lon="11.8351317"><ele>315.0</ele><time>2026-05-01T13:33:30.184Z</time></trkpt><trkpt lat="46.0060083" lon="11.83497"><ele>315.0</ele><time>2026-05-01T13:33:31.184Z</time></trkpt><trkpt lat="46.006095" lon="11.8348133"><ele>315.0</ele><time>2026-05-01T13:33:32.185Z</time></trkpt><trkpt lat="46.0061867" lon="11.8346517"><ele>315.0</ele><time>2026-05-01T13:33:33.188Z</time></trkpt><trkpt lat="46.006295" lon="11.8344983"><ele>315.0</ele><time>2026-05-01T13:33:34.185Z</time></trkpt><trkpt lat="46.00642" lon="11.834355"><ele>315.0</ele><time>2026-05-01T13:33:35.189Z</time></trkpt><trkpt lat="46.006555" lon="11.8342133"><ele>315.0</ele><time>2026-05-01T13:33:36.188Z</time></trkpt><trkpt lat="46.006695" lon="11.83407"><ele>317.3333333333333</ele><time>2026-05-01T13:33:37.188Z</time></trkpt><trkpt lat="46.0068367" lon="11.8339267"><ele>319.66666666666663</ele><time>2026-05-01T13:33:38.187Z</time></trkpt><trkpt lat="46.0069717" lon="11.83379"><ele>322.0</ele><time>2026-05-01T13:33:39.186Z</time></trkpt><trkpt lat="46.0070983" lon="11.8336617"><ele>322.0</ele><time>2026-05-01T13:33:40.185Z</time></trkpt><trkpt lat="46.0072167" lon="11.8335417"><ele>322.0</ele><time>2026-05-01T13:33:41.184Z</time></trkpt><trkpt lat="46.00733" lon="11.8334283"><ele>322.0</ele><time>2026-05-01T13:33:42.184Z</time></trkpt><trkpt lat="46.007435" lon="11.8332967"><ele>322.0</ele><time>2026-05-01T13:33:43.184Z</time></trkpt><trkpt lat="46.0075333" lon="11.8331417"><ele>320.5</ele><time>2026-05-01T13:33:44.186Z</time></trkpt><trkpt lat="46.0076233" lon="11.832985"><ele>319.0</ele><time>2026-05-01T13:33:45.184Z</time></trkpt><trkpt lat="46.007705" lon="11.8328233"><ele>317.5</ele><time>2026-05-01T13:33:46.183Z</time></trkpt><trkpt lat="46.00778" lon="11.8326733"><ele>316.0</ele><time>2026-05-01T13:33:47.186Z</time></trkpt><trkpt lat="46.0078417" lon="11.8325417"><ele>315.2</ele><time>2026-05-01T13:33:48.185Z</time></trkpt><trkpt lat="46.00791" lon="11.8324283"><ele>314.40000000000003</ele><time>2026-05-01T13:33:49.185Z</time></trkpt><trkpt lat="46.0079633" lon="11.8323067"><ele>313.6</ele><time>2026-05-01T13:33:50.184Z</time></trkpt><trkpt lat="46.008015" lon="11.8321833"><ele>312.8</ele><time>2026-05-01T13:33:51.191Z</time></trkpt><trkpt lat="46.0080917" lon="11.832085"><ele>312.0</ele><time>2026-05-01T13:33:52.186Z</time></trkpt><trkpt lat="46.0081733" lon="11.831985"><ele>312.0</ele><time>2026-05-01T13:33:53.184Z</time></trkpt><trkpt lat="46.0082583" lon="11.8319133"><ele>312.0</ele><time>2026-05-01T13:33:54.185Z</time></trkpt><trkpt lat="46.00833" lon="11.8318617"><ele>312.0</ele><time>2026-05-01T13:33:55.185Z</time></trkpt><trkpt lat="46.0083983" lon="11.8318033"><ele>312.0</ele><time>2026-05-01T13:33:56.184Z</time></trkpt><trkpt lat="46.0084717" lon="11.8317517"><ele>312.0</ele><time>2026-05-01T13:33:57.185Z</time></trkpt><trkpt lat="46.008535" lon="11.831685"><ele>312.0</ele><time>2026-05-01T13:33:58.184Z</time></trkpt><trkpt lat="46.0086" lon="11.831625"><ele>311.8</ele><time>2026-05-01T13:33:59.184Z</time></trkpt><trkpt lat="46.008665" lon="11.831555"><ele>311.6</ele><time>2026-05-01T13:34:00.185Z</time></trkpt><trkpt lat="46.0087383" lon="11.8314883"><ele>311.40000000000003</ele><time>2026-05-01T13:34:01.185Z</time></trkpt><trkpt lat="46.008825" lon="11.8314117"><ele>311.2</ele><time>2026-05-01T13:34:02.185Z</time></trkpt><trkpt lat="46.0089117" lon="11.831335"><ele>311.0</ele><time>2026-05-01T13:34:03.183Z</time></trkpt><trkpt lat="46.0089917" lon="11.8312433"><ele>311.0</ele><time>2026-05-01T13:34:04.186Z</time></trkpt><trkpt lat="46.0090717" lon="11.83115"><ele>311.0</ele><time>2026-05-01T13:34:05.189Z</time></trkpt><trkpt lat="46.0091617" lon="11.8310717"><ele>311.0</ele><time>2026-05-01T13:34:06.187Z</time></trkpt><trkpt lat="46.0092533" lon="11.83099"><ele>311.0</ele><time>2026-05-01T13:34:07.187Z</time></trkpt><trkpt lat="46.00934" lon="11.8308967"><ele>311.0</ele><time>2026-05-01T13:34:08.185Z</time></trkpt><trkpt lat="46.0094133" lon="11.830785"><ele>311.0</ele><time>2026-05-01T13:34:09.185Z</time></trkpt><trkpt lat="46.00948" lon="11.83065"><ele>311.0</ele><time>2026-05-01T13:34:10.183Z</time></trkpt><trkpt lat="46.0095483" lon="11.83051"><ele>311.0</ele><time>2026-05-01T13:34:11.183Z</time></trkpt><trkpt lat="46.0096233" lon="11.8303683"><ele>311.0</ele><time>2026-05-01T13:34:12.186Z</time></trkpt><trkpt lat="46.0096867" lon="11.8301967"><ele>310.75</ele><time>2026-05-01T13:34:13.185Z</time></trkpt><trkpt lat="46.0097417" lon="11.83002"><ele>310.5</ele><time>2026-05-01T13:34:14.184Z</time></trkpt><trkpt lat="46.0097867" lon="11.8298383"><ele>310.25</ele><time>2026-05-01T13:34:15.187Z</time></trkpt><trkpt lat="46.009815" lon="11.8296483"><ele>310.0</ele><time>2026-05-01T13:34:16.184Z</time></trkpt><trkpt lat="46.0098283" lon="11.82945"><ele>309.25</ele><time>2026-05-01T13:34:17.184Z</time></trkpt><trkpt lat="46.00983" lon="11.829245"><ele>308.5</ele><time>2026-05-01T13:34:18.185Z</time></trkpt><trkpt lat="46.009825" lon="11.8290333"><ele>307.75</ele><time>2026-05-01T13:34:19.187Z</time></trkpt><trkpt lat="46.00982" lon="11.8288183"><ele>307.0</ele><time>2026-05-01T13:34:20.186Z</time></trkpt><trkpt lat="46.0098317" lon="11.8285967"><ele>307.0</ele><time>2026-05-01T13:34:21.184Z</time></trkpt><trkpt lat="46.009845" lon="11.8283817"><ele>307.0</ele><time>2026-05-01T13:34:22.19Z</time></trkpt><trkpt lat="46.00985" lon="11.8281717"><ele>307.0</ele><time>2026-05-01T13:34:23.183Z</time></trkpt><trkpt lat="46.0098617" lon="11.8279717"><ele>307.0</ele><time>2026-05-01T13:34:24.184Z</time></trkpt><trkpt lat="46.009875" lon="11.8277783"><ele>307.0</ele><time>2026-05-01T13:34:25.186Z</time></trkpt><trkpt lat="46.0098983" lon="11.8275817"><ele>307.0</ele><time>2026-05-01T13:34:26.183Z</time></trkpt><trkpt lat="46.0099333" lon="11.8273867"><ele>307.0</ele><time>2026-05-01T13:34:27.184Z</time></trkpt><trkpt lat="46.00998" lon="11.82719"><ele>307.0</ele><time>2026-05-01T13:34:28.262Z</time></trkpt><trkpt lat="46.0100233" lon="11.826985"><ele>309.0</ele><time>2026-05-01T13:34:29.183Z</time></trkpt><trkpt lat="46.0100683" lon="11.82678"><ele>311.0</ele><time>2026-05-01T13:34:30.184Z</time></trkpt><trkpt lat="46.0101133" lon="11.8265733"><ele>313.0</ele><time>2026-05-01T13:34:31.183Z</time></trkpt><trkpt lat="46.0101667" lon="11.826365"><ele>313.0</ele><time>2026-05-01T13:34:32.185Z</time></trkpt><trkpt lat="46.0102233" lon="11.8261633"><ele>313.0</ele><time>2026-05-01T13:34:33.188Z</time></trkpt><trkpt lat="46.0102767" lon="11.8259617"><ele>313.0</ele><time>2026-05-01T13:34:34.186Z</time></trkpt><trkpt lat="46.0103283" lon="11.8257567"><ele>311.0</ele><time>2026-05-01T13:34:35.185Z</time></trkpt><trkpt lat="46.0103733" lon="11.8255433"><ele>309.0</ele><time>2026-05-01T13:34:36.185Z</time></trkpt><trkpt lat="46.0104133" lon="11.8253233"><ele>307.0</ele><time>2026-05-01T13:34:37.184Z</time></trkpt><trkpt lat="46.0104483" lon="11.8250983"><ele>306.3333333333333</ele><time>2026-05-01T13:34:38.187Z</time></trkpt><trkpt lat="46.01049" lon="11.8248717"><ele>305.6666666666667</ele><time>2026-05-01T13:34:39.186Z</time></trkpt><trkpt lat="46.0105333" lon="11.8246417"><ele>305.0</ele><time>2026-05-01T13:34:40.185Z</time></trkpt><trkpt lat="46.010575" lon="11.82441"><ele>305.0</ele><time>2026-05-01T13:34:41.186Z</time></trkpt><trkpt lat="46.0106133" lon="11.8241783"><ele>305.0</ele><time>2026-05-01T13:34:42.184Z</time></trkpt><trkpt lat="46.0106483" lon="11.8239467"><ele>305.0</ele><time>2026-05-01T13:34:43.184Z</time></trkpt><trkpt lat="46.0106883" lon="11.8237133"><ele>305.0</ele><time>2026-05-01T13:34:44.185Z</time></trkpt><trkpt lat="46.0107267" lon="11.8234867"><ele>305.0</ele><time>2026-05-01T13:34:45.185Z</time></trkpt><trkpt lat="46.0107617" lon="11.8232783"><ele>305.0</ele><time>2026-05-01T13:34:46.185Z</time></trkpt><trkpt lat="46.010795" lon="11.8230883"><ele>305.0</ele><time>2026-05-01T13:34:47.185Z</time></trkpt><trkpt lat="46.01082" lon="11.822905"><ele>308.0</ele><time>2026-05-01T13:34:48.185Z</time></trkpt><trkpt lat="46.010845" lon="11.822735"><ele>311.0</ele><time>2026-05-01T13:34:49.189Z</time></trkpt><trkpt lat="46.0108567" lon="11.822565"><ele>314.0</ele><time>2026-05-01T13:34:50.186Z</time></trkpt><trkpt lat="46.01086" lon="11.822385"><ele>317.0</ele><time>2026-05-01T13:34:51.185Z</time></trkpt><trkpt lat="46.0108617" lon="11.8222017"><ele>317.0</ele><time>2026-05-01T13:34:52.186Z</time></trkpt><trkpt lat="46.0108633" lon="11.8220133"><ele>317.0</ele><time>2026-05-01T13:34:53.183Z</time></trkpt><trkpt lat="46.01086" lon="11.8218117"><ele>317.0</ele><time>2026-05-01T13:34:54.188Z</time></trkpt><trkpt lat="46.0108517" lon="11.8216"><ele>317.0</ele><time>2026-05-01T13:34:55.186Z</time></trkpt><trkpt lat="46.0108483" lon="11.8213717"><ele>316.33333333333337</ele><time>2026-05-01T13:34:56.186Z</time></trkpt><trkpt lat="46.0108567" lon="11.8211283"><ele>315.6666666666667</ele><time>2026-05-01T13:34:57.185Z</time></trkpt><trkpt lat="46.01087" lon="11.8208833"><ele>315.0</ele><time>2026-05-01T13:34:58.185Z</time></trkpt><trkpt lat="46.0108867" lon="11.8206433"><ele>315.0</ele><time>2026-05-01T13:34:59.185Z</time></trkpt><trkpt lat="46.010915" lon="11.8203983"><ele>315.0</ele><time>2026-05-01T13:35:00.186Z</time></trkpt><trkpt lat="46.010955" lon="11.82015"><ele>315.0</ele><time>2026-05-01T13:35:01.184Z</time></trkpt><trkpt lat="46.0110067" lon="11.8198967"><ele>314.6666666666667</ele><time>2026-05-01T13:35:02.184Z</time></trkpt><trkpt lat="46.01107" lon="11.8196383"><ele>314.33333333333337</ele><time>2026-05-01T13:35:03.189Z</time></trkpt><trkpt lat="46.0111417" lon="11.819385"><ele>314.0</ele><time>2026-05-01T13:35:04.187Z</time></trkpt><trkpt lat="46.0112217" lon="11.819145"><ele>314.0</ele><time>2026-05-01T13:35:05.186Z</time></trkpt><trkpt lat="46.0113117" lon="11.8189033"><ele>314.0</ele><time>2026-05-01T13:35:06.185Z</time></trkpt><trkpt lat="46.0114133" lon="11.818665"><ele>314.0</ele><time>2026-05-01T13:35:07.185Z</time></trkpt><trkpt lat="46.0115217" lon="11.8184283"><ele>315.0</ele><time>2026-05-01T13:35:08.188Z</time></trkpt><trkpt lat="46.0116233" lon="11.8181817"><ele>316.0</ele><time>2026-05-01T13:35:09.184Z</time></trkpt><trkpt lat="46.0117267" lon="11.8179433"><ele>317.0</ele><time>2026-05-01T13:35:10.186Z</time></trkpt><trkpt lat="46.0118233" lon="11.8177167"><ele>318.6666666666667</ele><time>2026-05-01T13:35:11.183Z</time></trkpt><trkpt lat="46.0119183" lon="11.8175"><ele>320.3333333333333</ele><time>2026-05-01T13:35:12.186Z</time></trkpt><trkpt lat="46.0120083" lon="11.8172767"><ele>322.0</ele><time>2026-05-01T13:35:13.184Z</time></trkpt><trkpt lat="46.0120983" lon="11.8170567"><ele>322.0</ele><time>2026-05-01T13:35:14.183Z</time></trkpt><trkpt lat="46.0121867" lon="11.8168283"><ele>322.0</ele><time>2026-05-01T13:35:15.188Z</time></trkpt><trkpt lat="46.0122733" lon="11.8165967"><ele>322.0</ele><time>2026-05-01T13:35:16.185Z</time></trkpt><trkpt lat="46.0123583" lon="11.8163633"><ele>321.66666666666663</ele><time>2026-05-01T13:35:17.183Z</time></trkpt><trkpt lat="46.0124417" lon="11.816125"><ele>321.3333333333333</ele><time>2026-05-01T13:35:18.187Z</time></trkpt><trkpt lat="46.0125217" lon="11.8158817"><ele>321.0</ele><time>2026-05-01T13:35:19.184Z</time></trkpt><trkpt lat="46.0126" lon="11.8156367"><ele>321.0</ele><time>2026-05-01T13:35:20.187Z</time></trkpt><trkpt lat="46.01268" lon="11.81539"><ele>321.0</ele><time>2026-05-01T13:35:21.185Z</time></trkpt><trkpt lat="46.01276" lon="11.8151383"><ele>321.0</ele><time>2026-05-01T13:35:22.184Z</time></trkpt><trkpt lat="46.01284" lon="11.8148833"><ele>320.0</ele><time>2026-05-01T13:35:23.184Z</time></trkpt><trkpt lat="46.0129117" lon="11.814635"><ele>319.0</ele><time>2026-05-01T13:35:24.188Z</time></trkpt><trkpt lat="46.0129833" lon="11.8144"><ele>318.0</ele><time>2026-05-01T13:35:25.187Z</time></trkpt><trkpt lat="46.0130517" lon="11.814165"><ele>317.6666666666667</ele><time>2026-05-01T13:35:26.184Z</time></trkpt><trkpt lat="46.013125" lon="11.8139317"><ele>317.33333333333337</ele><time>2026-05-01T13:35:27.185Z</time></trkpt><trkpt lat="46.0132017" lon="11.8136983"><ele>317.0</ele><time>2026-05-01T13:35:28.185Z</time></trkpt><trkpt lat="46.01328" lon="11.8134583"><ele>318.6666666666667</ele><time>2026-05-01T13:35:29.186Z</time></trkpt><trkpt lat="46.0133567" lon="11.813215"><ele>320.3333333333333</ele><time>2026-05-01T13:35:30.187Z</time></trkpt><trkpt lat="46.0134333" lon="11.8129683"><ele>322.0</ele><time>2026-05-01T13:35:31.185Z</time></trkpt><trkpt lat="46.0135083" lon="11.8127167"><ele>321.3333333333333</ele><time>2026-05-01T13:35:32.184Z</time></trkpt><trkpt lat="46.013585" lon="11.8124667"><ele>320.6666666666667</ele><time>2026-05-01T13:35:33.189Z</time></trkpt><trkpt lat="46.0136617" lon="11.8122183"><ele>320.0</ele><time>2026-05-01T13:35:34.186Z</time></trkpt><trkpt lat="46.01374" lon="11.81197"><ele>318.33333333333337</ele><time>2026-05-01T13:35:35.185Z</time></trkpt><trkpt lat="46.013815" lon="11.8117217"><ele>316.6666666666667</ele><time>2026-05-01T13:35:36.183Z</time></trkpt><trkpt lat="46.0138867" lon="11.81148"><ele>315.0</ele><time>2026-05-01T13:35:37.185Z</time></trkpt><trkpt lat="46.0139567" lon="11.8112483"><ele>315.0</ele><time>2026-05-01T13:35:38.184Z</time></trkpt><trkpt lat="46.014025" lon="11.8110217"><ele>315.0</ele><time>2026-05-01T13:35:39.185Z</time></trkpt><trkpt lat="46.01409" lon="11.8107883"><ele>315.0</ele><time>2026-05-01T13:35:40.186Z</time></trkpt><trkpt lat="46.01416" lon="11.8105583"><ele>317.3333333333333</ele><time>2026-05-01T13:35:41.184Z</time></trkpt><trkpt lat="46.01423" lon="11.8103233"><ele>319.66666666666663</ele><time>2026-05-01T13:35:42.184Z</time></trkpt><trkpt lat="46.014305" lon="11.810085"><ele>322.0</ele><time>2026-05-01T13:35:43.186Z</time></trkpt><trkpt lat="46.0143817" lon="11.809845"><ele>322.0</ele><time>2026-05-01T13:35:44.184Z</time></trkpt><trkpt lat="46.0144567" lon="11.809605"><ele>322.0</ele><time>2026-05-01T13:35:45.186Z</time></trkpt><trkpt lat="46.0145217" lon="11.80938"><ele>322.0</ele><time>2026-05-01T13:35:46.186Z</time></trkpt><trkpt lat="46.0145783" lon="11.8091733"><ele>321.66666666666663</ele><time>2026-05-01T13:35:47.185Z</time></trkpt><trkpt lat="46.0146367" lon="11.808975"><ele>321.3333333333333</ele><time>2026-05-01T13:35:48.184Z</time></trkpt><trkpt lat="46.0147" lon="11.808775"><ele>321.0</ele><time>2026-05-01T13:35:49.185Z</time></trkpt><trkpt lat="46.0147633" lon="11.8085717"><ele>320.6666666666667</ele><time>2026-05-01T13:35:50.183Z</time></trkpt><trkpt lat="46.0148283" lon="11.8083633"><ele>320.33333333333337</ele><time>2026-05-01T13:35:51.184Z</time></trkpt><trkpt lat="46.014895" lon="11.80815"><ele>320.0</ele><time>2026-05-01T13:35:52.186Z</time></trkpt><trkpt lat="46.0149617" lon="11.807925"><ele>320.6666666666667</ele><time>2026-05-01T13:35:53.183Z</time></trkpt><trkpt lat="46.01503" lon="11.8076917"><ele>321.3333333333333</ele><time>2026-05-01T13:35:54.185Z</time></trkpt><trkpt lat="46.0151" lon="11.8074517"><ele>322.0</ele><time>2026-05-01T13:35:55.19Z</time></trkpt><trkpt lat="46.01517" lon="11.8072133"><ele>322.0</ele><time>2026-05-01T13:35:56.184Z</time></trkpt><trkpt lat="46.0152433" lon="11.8069767"><ele>322.0</ele><time>2026-05-01T13:35:57.186Z</time></trkpt><trkpt lat="46.0153133" lon="11.8067317"><ele>322.0</ele><time>2026-05-01T13:35:58.185Z</time></trkpt><trkpt lat="46.015385" lon="11.806495"><ele>321.66666666666663</ele><time>2026-05-01T13:35:59.186Z</time></trkpt><trkpt lat="46.0154517" lon="11.8062667"><ele>321.3333333333333</ele><time>2026-05-01T13:36:00.183Z</time></trkpt><trkpt lat="46.0155167" lon="11.8060417"><ele>321.0</ele><time>2026-05-01T13:36:01.184Z</time></trkpt><trkpt lat="46.0155867" lon="11.8058183"><ele>320.6666666666667</ele><time>2026-05-01T13:36:02.187Z</time></trkpt><trkpt lat="46.0156633" lon="11.8055917"><ele>320.33333333333337</ele><time>2026-05-01T13:36:03.185Z</time></trkpt><trkpt lat="46.0157383" lon="11.80536"><ele>320.0</ele><time>2026-05-01T13:36:04.188Z</time></trkpt><trkpt lat="46.015805" lon="11.8051217"><ele>320.0</ele><time>2026-05-01T13:36:05.185Z</time></trkpt><trkpt lat="46.01588" lon="11.8048833"><ele>320.0</ele><time>2026-05-01T13:36:06.187Z</time></trkpt><trkpt lat="46.0159533" lon="11.804645"><ele>320.0</ele><time>2026-05-01T13:36:07.186Z</time></trkpt><trkpt lat="46.0160217" lon="11.8044117"><ele>319.6666666666667</ele><time>2026-05-01T13:36:08.185Z</time></trkpt><trkpt lat="46.0160867" lon="11.804185"><ele>319.3333333333333</ele><time>2026-05-01T13:36:09.184Z</time></trkpt><trkpt lat="46.0161567" lon="11.8039567"><ele>319.0</ele><time>2026-05-01T13:36:10.184Z</time></trkpt><trkpt lat="46.0162267" lon="11.8037283"><ele>319.0</ele><time>2026-05-01T13:36:11.185Z</time></trkpt><trkpt lat="46.0162967" lon="11.8035"><ele>319.0</ele><time>2026-05-01T13:36:12.186Z</time></trkpt><trkpt lat="46.016365" lon="11.8032783"><ele>319.0</ele><time>2026-05-01T13:36:13.186Z</time></trkpt><trkpt lat="46.0164267" lon="11.803065"><ele>319.0</ele><time>2026-05-01T13:36:14.186Z</time></trkpt><trkpt lat="46.01649" lon="11.80287"><ele>319.0</ele><time>2026-05-01T13:36:15.183Z</time></trkpt><trkpt lat="46.0165517" lon="11.8026883"><ele>319.0</ele><time>2026-05-01T13:36:16.184Z</time></trkpt><trkpt lat="46.016615" lon="11.8025067"><ele>319.0</ele><time>2026-05-01T13:36:17.184Z</time></trkpt><trkpt lat="46.016675" lon="11.80231"><ele>318.75</ele><time>2026-05-01T13:36:18.188Z</time></trkpt><trkpt lat="46.0167333" lon="11.8021167"><ele>318.5</ele><time>2026-05-01T13:36:19.191Z</time></trkpt><trkpt lat="46.0167917" lon="11.801935"><ele>318.25</ele><time>2026-05-01T13:36:20.185Z</time></trkpt><trkpt lat="46.0168367" lon="11.8017783"><ele>318.0</ele><time>2026-05-01T13:36:21.183Z</time></trkpt><trkpt lat="46.01686" lon="11.8016167"><ele>319.0</ele><time>2026-05-01T13:36:22.187Z</time></trkpt><trkpt lat="46.016855" lon="11.8014383"><ele>320.0</ele><time>2026-05-01T13:36:23.186Z</time></trkpt><trkpt lat="46.0168133" lon="11.8012383"><ele>321.0</ele><time>2026-05-01T13:36:24.184Z</time></trkpt><trkpt lat="46.01677" lon="11.8010317"><ele>322.0</ele><time>2026-05-01T13:36:25.188Z</time></trkpt><trkpt lat="46.0167417" lon="11.8008333"><ele>322.0</ele><time>2026-05-01T13:36:26.186Z</time></trkpt><trkpt lat="46.016715" lon="11.8006483"><ele>322.0</ele><time>2026-05-01T13:36:27.189Z</time></trkpt><trkpt lat="46.01669" lon="11.8004717"><ele>322.0</ele><time>2026-05-01T13:36:28.186Z</time></trkpt><trkpt lat="46.016665" lon="11.8002917"><ele>322.0</ele><time>2026-05-01T13:36:29.185Z</time></trkpt><trkpt lat="46.0166517" lon="11.80011"><ele>322.0</ele><time>2026-05-01T13:36:30.184Z</time></trkpt><trkpt lat="46.0166583" lon="11.7999267"><ele>322.0</ele><time>2026-05-01T13:36:31.185Z</time></trkpt><trkpt lat="46.0166767" lon="11.7997383"><ele>322.0</ele><time>2026-05-01T13:36:32.183Z</time></trkpt><trkpt lat="46.0167" lon="11.7995533"><ele>322.0</ele><time>2026-05-01T13:36:33.187Z</time></trkpt><trkpt lat="46.016725" lon="11.7993733"><ele>322.0</ele><time>2026-05-01T13:36:34.187Z</time></trkpt><trkpt lat="46.0167533" lon="11.7992067"><ele>322.0</ele><time>2026-05-01T13:36:35.187Z</time></trkpt><trkpt lat="46.01679" lon="11.799055"><ele>322.0</ele><time>2026-05-01T13:36:36.184Z</time></trkpt><trkpt lat="46.01683" lon="11.7989117"><ele>322.0</ele><time>2026-05-01T13:36:37.185Z</time></trkpt><trkpt lat="46.01686" lon="11.79876"><ele>322.0</ele><time>2026-05-01T13:36:38.184Z</time></trkpt><trkpt lat="46.0168933" lon="11.798625"><ele>322.0</ele><time>2026-05-01T13:36:39.183Z</time></trkpt><trkpt lat="46.01692" lon="11.79851"><ele>322.0</ele><time>2026-05-01T13:36:40.184Z</time></trkpt><trkpt lat="46.01694" lon="11.798415"><ele>322.0</ele><time>2026-05-01T13:36:41.185Z</time></trkpt><trkpt lat="46.0169167" lon="11.79823"><ele>322.0</ele><time>2026-05-01T13:36:43.185Z</time></trkpt><trkpt lat="46.0168717" lon="11.7981433"><ele>322.0</ele><time>2026-05-01T13:36:44.186Z</time></trkpt><trkpt lat="46.0168133" lon="11.7980617"><ele>322.0</ele><time>2026-05-01T13:36:45.186Z</time></trkpt><trkpt lat="46.016725" lon="11.79797"><ele>322.0</ele><time>2026-05-01T13:36:46.187Z</time></trkpt><trkpt lat="46.016625" lon="11.79787"><ele>322.0</ele><time>2026-05-01T13:36:47.184Z</time></trkpt><trkpt lat="46.016525" lon="11.7977667"><ele>322.0</ele><time>2026-05-01T13:36:48.183Z</time></trkpt><trkpt lat="46.0164133" lon="11.7976617"><ele>322.0</ele><time>2026-05-01T13:36:49.185Z</time></trkpt><trkpt lat="46.0163033" lon="11.797555"><ele>322.0</ele><time>2026-05-01T13:36:50.187Z</time></trkpt><trkpt lat="46.0161933" lon="11.797445"><ele>322.0</ele><time>2026-05-01T13:36:51.189Z</time></trkpt><trkpt lat="46.016075" lon="11.7973517"><ele>322.0</ele><time>2026-05-01T13:36:52.186Z</time></trkpt><trkpt lat="46.015955" lon="11.79726"><ele>322.0</ele><time>2026-05-01T13:36:53.183Z</time></trkpt><trkpt lat="46.015845" lon="11.7971717"><ele>322.20000000000005</ele><time>2026-05-01T13:36:54.184Z</time></trkpt><trkpt lat="46.0157417" lon="11.7970967"><ele>322.4</ele><time>2026-05-01T13:36:55.188Z</time></trkpt><trkpt lat="46.0156517" lon="11.7970233"><ele>322.6</ele><time>2026-05-01T13:36:56.186Z</time></trkpt><trkpt lat="46.0155733" lon="11.7969617"><ele>322.79999999999995</ele><time>2026-05-01T13:36:57.187Z</time></trkpt><trkpt lat="46.0154967" lon="11.79691"><ele>323.0</ele><time>2026-05-01T13:36:58.187Z</time></trkpt><trkpt lat="46.0154283" lon="11.79686"><ele>323.1666666666667</ele><time>2026-05-01T13:36:59.184Z</time></trkpt><trkpt lat="46.0153617" lon="11.7967917"><ele>323.33333333333337</ele><time>2026-05-01T13:37:00.183Z</time></trkpt><trkpt lat="46.0152967" lon="11.7967183"><ele>323.5</ele><time>2026-05-01T13:37:01.186Z</time></trkpt><trkpt lat="46.0152383" lon="11.796635"><ele>323.6666666666667</ele><time>2026-05-01T13:37:02.188Z</time></trkpt><trkpt lat="46.0151817" lon="11.7965367"><ele>323.8333333333333</ele><time>2026-05-01T13:37:03.274Z</time></trkpt><trkpt lat="46.0151267" lon="11.79642"><ele>324.0</ele><time>2026-05-01T13:37:04.184Z</time></trkpt><trkpt lat="46.0150683" lon="11.7962933"><ele>324.0</ele><time>2026-05-01T13:37:05.184Z</time></trkpt><trkpt lat="46.0150067" lon="11.7961667"><ele>324.0</ele><time>2026-05-01T13:37:06.186Z</time></trkpt><trkpt lat="46.0149417" lon="11.7960367"><ele>324.0</ele><time>2026-05-01T13:37:07.189Z</time></trkpt><trkpt lat="46.014865" lon="11.7959033"><ele>324.0</ele><time>2026-05-01T13:37:08.189Z</time></trkpt><trkpt lat="46.0147817" lon="11.79577"><ele>323.79999999999995</ele><time>2026-05-01T13:37:09.187Z</time></trkpt><trkpt lat="46.0146983" lon="11.7956467"><ele>323.59999999999997</ele><time>2026-05-01T13:37:10.184Z</time></trkpt><trkpt lat="46.01462" lon="11.79554"><ele>323.4</ele><time>2026-05-01T13:37:11.185Z</time></trkpt><trkpt lat="46.01454" lon="11.7954583"><ele>323.2</ele><time>2026-05-01T13:37:12.265Z</time></trkpt><trkpt lat="46.0144483" lon="11.79539"><ele>323.0</ele><time>2026-05-01T13:37:13.185Z</time></trkpt><trkpt lat="46.014345" lon="11.7953333"><ele>323.0</ele><time>2026-05-01T13:37:14.185Z</time></trkpt><trkpt lat="46.0142317" lon="11.795285"><ele>323.0</ele><time>2026-05-01T13:37:15.188Z</time></trkpt><trkpt lat="46.014115" lon="11.7952417"><ele>323.0</ele><time>2026-05-01T13:37:16.185Z</time></trkpt><trkpt lat="46.01399" lon="11.79522"><ele>323.0</ele><time>2026-05-01T13:37:17.185Z</time></trkpt><trkpt lat="46.0138567" lon="11.7952217"><ele>321.25</ele><time>2026-05-01T13:37:18.185Z</time></trkpt><trkpt lat="46.013725" lon="11.7952483"><ele>319.5</ele><time>2026-05-01T13:37:19.189Z</time></trkpt><trkpt lat="46.0136033" lon="11.7952933"><ele>317.75</ele><time>2026-05-01T13:37:20.184Z</time></trkpt><trkpt lat="46.0134917" lon="11.795355"><ele>316.0</ele><time>2026-05-01T13:37:21.187Z</time></trkpt><trkpt lat="46.01339" lon="11.7954117"><ele>314.0</ele><time>2026-05-01T13:37:22.187Z</time></trkpt><trkpt lat="46.0132917" lon="11.7954383"><ele>312.0</ele><time>2026-05-01T13:37:23.184Z</time></trkpt><trkpt lat="46.0131983" lon="11.79545"><ele>310.0</ele><time>2026-05-01T13:37:24.186Z</time></trkpt><trkpt lat="46.0131067" lon="11.7954317"><ele>308.0</ele><time>2026-05-01T13:37:25.185Z</time></trkpt><trkpt lat="46.0130183" lon="11.7953717"><ele>306.0</ele><time>2026-05-01T13:37:26.183Z</time></trkpt><trkpt lat="46.0129333" lon="11.7952683"><ele>306.0</ele><time>2026-05-01T13:37:27.185Z</time></trkpt><trkpt lat="46.0128617" lon="11.7951367"><ele>306.0</ele><time>2026-05-01T13:37:28.185Z</time></trkpt><trkpt lat="46.012805" lon="11.7949667"><ele>306.0</ele><time>2026-05-01T13:37:29.184Z</time></trkpt><trkpt lat="46.0127533" lon="11.794795"><ele>306.0</ele><time>2026-05-01T13:37:30.187Z</time></trkpt><trkpt lat="46.0126883" lon="11.7946317"><ele>306.0</ele><time>2026-05-01T13:37:31.263Z</time></trkpt><trkpt lat="46.012615" lon="11.794485"><ele>306.0</ele><time>2026-05-01T13:37:32.184Z</time></trkpt><trkpt lat="46.0125433" lon="11.7943583"><ele>306.0</ele><time>2026-05-01T13:37:33.187Z</time></trkpt><trkpt lat="46.0124767" lon="11.79424"><ele>306.0</ele><time>2026-05-01T13:37:34.186Z</time></trkpt><trkpt lat="46.01242" lon="11.79413"><ele>306.0</ele><time>2026-05-01T13:37:35.188Z</time></trkpt><trkpt lat="46.0123767" lon="11.794025"><ele>306.0</ele><time>2026-05-01T13:37:36.186Z</time></trkpt><trkpt lat="46.0123433" lon="11.7939133"><ele>306.0</ele><time>2026-05-01T13:37:37.188Z</time></trkpt><trkpt lat="46.0123317" lon="11.7937817"><ele>306.0</ele><time>2026-05-01T13:37:38.187Z</time></trkpt><trkpt lat="46.0123083" lon="11.7936533"><ele>306.0</ele><time>2026-05-01T13:37:39.186Z</time></trkpt><trkpt lat="46.0122483" lon="11.7935567"><ele>306.0</ele><time>2026-05-01T13:37:40.185Z</time></trkpt><trkpt lat="46.0121583" lon="11.7935033"><ele>306.0</ele><time>2026-05-01T13:37:41.184Z</time></trkpt><trkpt lat="46.0120367" lon="11.793475"><ele>306.0</ele><time>2026-05-01T13:37:42.187Z</time></trkpt><trkpt lat="46.0119383" lon="11.7934167"><ele>306.0</ele><time>2026-05-01T13:37:43.185Z</time></trkpt><trkpt lat="46.011855" lon="11.7933133"><ele>306.0</ele><time>2026-05-01T13:37:44.185Z</time></trkpt><trkpt lat="46.0117717" lon="11.7931867"><ele>306.0</ele><time>2026-05-01T13:37:45.184Z</time></trkpt><trkpt lat="46.011675" lon="11.7930517"><ele>306.0</ele><time>2026-05-01T13:37:46.183Z</time></trkpt><trkpt lat="46.0115767" lon="11.7929233"><ele>306.0</ele><time>2026-05-01T13:37:47.188Z</time></trkpt><trkpt lat="46.01148" lon="11.7927917"><ele>306.0</ele><time>2026-05-01T13:37:48.184Z</time></trkpt><trkpt lat="46.0113833" lon="11.7926533"><ele>305.0</ele><time>2026-05-01T13:37:49.185Z</time></trkpt><trkpt lat="46.0112783" lon="11.7925133"><ele>304.0</ele><time>2026-05-01T13:37:50.184Z</time></trkpt><trkpt lat="46.0111683" lon="11.7923683"><ele>303.0</ele><time>2026-05-01T13:37:51.187Z</time></trkpt><trkpt lat="46.0110517" lon="11.7922167"><ele>302.0</ele><time>2026-05-01T13:37:52.186Z</time></trkpt><trkpt lat="46.0109367" lon="11.79207"><ele>302.0</ele><time>2026-05-01T13:37:53.184Z</time></trkpt><trkpt lat="46.0108267" lon="11.7919233"><ele>302.0</ele><time>2026-05-01T13:37:54.184Z</time></trkpt><trkpt lat="46.0107217" lon="11.791775"><ele>302.0</ele><time>2026-05-01T13:37:55.186Z</time></trkpt><trkpt lat="46.010625" lon="11.7916333"><ele>302.0</ele><time>2026-05-01T13:37:56.183Z</time></trkpt><trkpt lat="46.0105367" lon="11.7915017"><ele>302.2</ele><time>2026-05-01T13:37:57.186Z</time></trkpt><trkpt lat="46.010455" lon="11.791385"><ele>302.4</ele><time>2026-05-01T13:37:58.185Z</time></trkpt><trkpt lat="46.01038" lon="11.7912817"><ele>302.6</ele><time>2026-05-01T13:37:59.186Z</time></trkpt><trkpt lat="46.0103033" lon="11.7912117"><ele>302.8</ele><time>2026-05-01T13:38:00.186Z</time></trkpt><trkpt lat="46.0102183" lon="11.7911733"><ele>303.0</ele><time>2026-05-01T13:38:01.183Z</time></trkpt><trkpt lat="46.0101183" lon="11.79117"><ele>303.0</ele><time>2026-05-01T13:38:02.188Z</time></trkpt><trkpt lat="46.01" lon="11.7912217"><ele>303.0</ele><time>2026-05-01T13:38:03.184Z</time></trkpt><trkpt lat="46.0098783" lon="11.791295"><ele>303.0</ele><time>2026-05-01T13:38:04.184Z</time></trkpt><trkpt lat="46.00975" lon="11.791365"><ele>303.0</ele><time>2026-05-01T13:38:05.185Z</time></trkpt><trkpt lat="46.00961" lon="11.7914333"><ele>303.0</ele><time>2026-05-01T13:38:06.184Z</time></trkpt><trkpt lat="46.0094667" lon="11.7915"><ele>303.0</ele><time>2026-05-01T13:38:07.184Z</time></trkpt><trkpt lat="46.009325" lon="11.79157"><ele>303.0</ele><time>2026-05-01T13:38:08.185Z</time></trkpt><trkpt lat="46.0091783" lon="11.7916367"><ele>303.0</ele><time>2026-05-01T13:38:09.187Z</time></trkpt><trkpt lat="46.0090267" lon="11.7917133"><ele>303.0</ele><time>2026-05-01T13:38:10.185Z</time></trkpt><trkpt lat="46.0088717" lon="11.791795"><ele>303.0</ele><time>2026-05-01T13:38:11.186Z</time></trkpt><trkpt lat="46.0087233" lon="11.7918783"><ele>303.0</ele><time>2026-05-01T13:38:12.184Z</time></trkpt><trkpt lat="46.0085817" lon="11.7919617"><ele>303.0</ele><time>2026-05-01T13:38:13.184Z</time></trkpt><trkpt lat="46.0084467" lon="11.7920367"><ele>303.0</ele><time>2026-05-01T13:38:14.185Z</time></trkpt><trkpt lat="46.0083133" lon="11.79211"><ele>303.0</ele><time>2026-05-01T13:38:15.185Z</time></trkpt><trkpt lat="46.0081767" lon="11.792185"><ele>305.0</ele><time>2026-05-01T13:38:16.187Z</time></trkpt><trkpt lat="46.00804" lon="11.792265"><ele>307.0</ele><time>2026-05-01T13:38:17.19Z</time></trkpt><trkpt lat="46.0079067" lon="11.79235"><ele>309.0</ele><time>2026-05-01T13:38:18.184Z</time></trkpt><trkpt lat="46.0077767" lon="11.7924283"><ele>311.0</ele><time>2026-05-01T13:38:19.183Z</time></trkpt><trkpt lat="46.00765" lon="11.7925033"><ele>311.0</ele><time>2026-05-01T13:38:20.184Z</time></trkpt><trkpt lat="46.00753" lon="11.7925867"><ele>311.0</ele><time>2026-05-01T13:38:21.185Z</time></trkpt><trkpt lat="46.00741" lon="11.7926783"><ele>311.0</ele><time>2026-05-01T13:38:22.187Z</time></trkpt><trkpt lat="46.0072783" lon="11.79275"><ele>311.0</ele><time>2026-05-01T13:38:23.184Z</time></trkpt><trkpt lat="46.007135" lon="11.7927967"><ele>306.33333333333337</ele><time>2026-05-01T13:38:24.186Z</time></trkpt><trkpt lat="46.0069883" lon="11.7928617"><ele>301.6666666666667</ele><time>2026-05-01T13:38:25.186Z</time></trkpt><trkpt lat="46.0068383" lon="11.792945"><ele>297.0</ele><time>2026-05-01T13:38:26.187Z</time></trkpt><trkpt lat="46.006685" lon="11.793025"><ele>297.3333333333333</ele><time>2026-05-01T13:38:27.186Z</time></trkpt><trkpt lat="46.0065317" lon="11.7930933"><ele>297.66666666666663</ele><time>2026-05-01T13:38:28.186Z</time></trkpt><trkpt lat="46.0063833" lon="11.7931417"><ele>298.0</ele><time>2026-05-01T13:38:29.183Z</time></trkpt><trkpt lat="46.006235" lon="11.793185"><ele>298.0</ele><time>2026-05-01T13:38:30.185Z</time></trkpt><trkpt lat="46.0060883" lon="11.7932083"><ele>298.0</ele><time>2026-05-01T13:38:31.187Z</time></trkpt><trkpt lat="46.0059483" lon="11.793225"><ele>298.0</ele><time>2026-05-01T13:38:32.185Z</time></trkpt><trkpt lat="46.005815" lon="11.7932283"><ele>298.0</ele><time>2026-05-01T13:38:33.189Z</time></trkpt><trkpt lat="46.00568" lon="11.7932117"><ele>299.0</ele><time>2026-05-01T13:38:34.185Z</time></trkpt><trkpt lat="46.00554" lon="11.7931433"><ele>300.0</ele><time>2026-05-01T13:38:35.185Z</time></trkpt><trkpt lat="46.0053967" lon="11.7930417"><ele>301.0</ele><time>2026-05-01T13:38:36.184Z</time></trkpt><trkpt lat="46.0052533" lon="11.7929083"><ele>301.0</ele><time>2026-05-01T13:38:37.185Z</time></trkpt><trkpt lat="46.0051033" lon="11.79277"><ele>301.0</ele><time>2026-05-01T13:38:38.186Z</time></trkpt><trkpt lat="46.0049433" lon="11.7926333"><ele>301.0</ele><time>2026-05-01T13:38:39.185Z</time></trkpt><trkpt lat="46.0047833" lon="11.7924933"><ele>299.3333333333333</ele><time>2026-05-01T13:38:40.186Z</time></trkpt><trkpt lat="46.0046283" lon="11.7923567"><ele>297.6666666666667</ele><time>2026-05-01T13:38:41.184Z</time></trkpt><trkpt lat="46.0044717" lon="11.79222"><ele>296.0</ele><time>2026-05-01T13:38:42.184Z</time></trkpt><trkpt lat="46.004315" lon="11.7920817"><ele>295.0</ele><time>2026-05-01T13:38:43.189Z</time></trkpt><trkpt lat="46.0041583" lon="11.7919383"><ele>294.0</ele><time>2026-05-01T13:38:44.184Z</time></trkpt><trkpt lat="46.004005" lon="11.7918"><ele>293.0</ele><time>2026-05-01T13:38:45.186Z</time></trkpt><trkpt lat="46.0038617" lon="11.7916717"><ele>293.0</ele><time>2026-05-01T13:38:46.185Z</time></trkpt><trkpt lat="46.0037267" lon="11.7915483"><ele>293.0</ele><time>2026-05-01T13:38:47.185Z</time></trkpt><trkpt lat="46.0036" lon="11.7914367"><ele>293.0</ele><time>2026-05-01T13:38:48.183Z</time></trkpt><trkpt lat="46.0034783" lon="11.7913283"><ele>293.0</ele><time>2026-05-01T13:38:49.185Z</time></trkpt><trkpt lat="46.003355" lon="11.7912167"><ele>293.0</ele><time>2026-05-01T13:38:50.185Z</time></trkpt><trkpt lat="46.0032283" lon="11.791105"><ele>293.0</ele><time>2026-05-01T13:38:51.186Z</time></trkpt><trkpt lat="46.0031" lon="11.7909833"><ele>293.0</ele><time>2026-05-01T13:38:52.185Z</time></trkpt><trkpt lat="46.0029683" lon="11.7908667"><ele>292.0</ele><time>2026-05-01T13:38:53.185Z</time></trkpt><trkpt lat="46.0028283" lon="11.790755"><ele>291.0</ele><time>2026-05-01T13:38:54.183Z</time></trkpt><trkpt lat="46.0026833" lon="11.7906483"><ele>290.0</ele><time>2026-05-01T13:38:55.184Z</time></trkpt><trkpt lat="46.002535" lon="11.790545"><ele>291.0</ele><time>2026-05-01T13:38:56.186Z</time></trkpt><trkpt lat="46.002385" lon="11.7904433"><ele>292.0</ele><time>2026-05-01T13:38:57.189Z</time></trkpt><trkpt lat="46.0022417" lon="11.7903433"><ele>293.0</ele><time>2026-05-01T13:38:58.189Z</time></trkpt><trkpt lat="46.002105" lon="11.790255"><ele>292.5</ele><time>2026-05-01T13:38:59.183Z</time></trkpt><trkpt lat="46.00197" lon="11.7901733"><ele>292.0</ele><time>2026-05-01T13:39:00.19Z</time></trkpt><trkpt lat="46.001835" lon="11.7900883"><ele>291.5</ele><time>2026-05-01T13:39:01.186Z</time></trkpt><trkpt lat="46.0016967" lon="11.7899983"><ele>291.0</ele><time>2026-05-01T13:39:02.184Z</time></trkpt><trkpt lat="46.0015533" lon="11.7899083"><ele>290.3333333333333</ele><time>2026-05-01T13:39:03.185Z</time></trkpt><trkpt lat="46.0014067" lon="11.7898167"><ele>289.66666666666663</ele><time>2026-05-01T13:39:04.187Z</time></trkpt><trkpt lat="46.0012633" lon="11.7897183"><ele>289.0</ele><time>2026-05-01T13:39:05.186Z</time></trkpt><trkpt lat="46.001115" lon="11.7896183"><ele>289.0</ele><time>2026-05-01T13:39:06.187Z</time></trkpt><trkpt lat="46.0009667" lon="11.7895233"><ele>289.0</ele><time>2026-05-01T13:39:07.186Z</time></trkpt><trkpt lat="46.0008233" lon="11.7894267"><ele>289.0</ele><time>2026-05-01T13:39:08.183Z</time></trkpt><trkpt lat="46.00069" lon="11.7893367"><ele>288.5</ele><time>2026-05-01T13:39:09.184Z</time></trkpt><trkpt lat="46.00056" lon="11.7892517"><ele>288.0</ele><time>2026-05-01T13:39:10.184Z</time></trkpt><trkpt lat="46.0004283" lon="11.789165"><ele>287.5</ele><time>2026-05-01T13:39:11.187Z</time></trkpt><trkpt lat="46.000295" lon="11.7890733"><ele>287.0</ele><time>2026-05-01T13:39:12.184Z</time></trkpt><trkpt lat="46.0001583" lon="11.78898"><ele>287.0</ele><time>2026-05-01T13:39:13.184Z</time></trkpt><trkpt lat="46.0000183" lon="11.788885"><ele>287.0</ele><time>2026-05-01T13:39:14.185Z</time></trkpt><trkpt lat="45.999875" lon="11.7887867"><ele>287.0</ele><time>2026-05-01T13:39:15.186Z</time></trkpt><trkpt lat="45.9997317" lon="11.7886917"><ele>287.0</ele><time>2026-05-01T13:39:16.184Z</time></trkpt><trkpt lat="45.99959" lon="11.7885917"><ele>287.0</ele><time>2026-05-01T13:39:17.183Z</time></trkpt><trkpt lat="45.99945" lon="11.7884783"><ele>287.0</ele><time>2026-05-01T13:39:18.186Z</time></trkpt><trkpt lat="45.9993067" lon="11.7883717"><ele>287.6666666666667</ele><time>2026-05-01T13:39:19.184Z</time></trkpt><trkpt lat="45.999165" lon="11.788265"><ele>288.3333333333333</ele><time>2026-05-01T13:39:20.189Z</time></trkpt><trkpt lat="45.9990217" lon="11.78816"><ele>289.0</ele><time>2026-05-01T13:39:21.186Z</time></trkpt><trkpt lat="45.9988817" lon="11.7880517"><ele>289.0</ele><time>2026-05-01T13:39:22.184Z</time></trkpt><trkpt lat="45.998745" lon="11.787935"><ele>289.0</ele><time>2026-05-01T13:39:23.186Z</time></trkpt><trkpt lat="45.9986083" lon="11.7878217"><ele>289.0</ele><time>2026-05-01T13:39:24.187Z</time></trkpt><trkpt lat="45.99847" lon="11.7877183"><ele>289.66666666666663</ele><time>2026-05-01T13:39:25.188Z</time></trkpt><trkpt lat="45.9983317" lon="11.7875983"><ele>290.3333333333333</ele><time>2026-05-01T13:39:26.184Z</time></trkpt><trkpt lat="45.99819" lon="11.7874883"><ele>291.0</ele><time>2026-05-01T13:39:27.186Z</time></trkpt><trkpt lat="45.9980483" lon="11.787375"><ele>291.0</ele><time>2026-05-01T13:39:28.183Z</time></trkpt><trkpt lat="45.9979067" lon="11.787265"><ele>291.0</ele><time>2026-05-01T13:39:29.187Z</time></trkpt><trkpt lat="45.9977633" lon="11.78716"><ele>291.0</ele><time>2026-05-01T13:39:30.184Z</time></trkpt><trkpt lat="45.9976217" lon="11.7870483"><ele>289.6666666666667</ele><time>2026-05-01T13:39:31.185Z</time></trkpt><trkpt lat="45.997475" lon="11.7869383"><ele>288.33333333333337</ele><time>2026-05-01T13:39:32.188Z</time></trkpt><trkpt lat="45.9973317" lon="11.78682"><ele>287.0</ele><time>2026-05-01T13:39:33.186Z</time></trkpt><trkpt lat="45.9971883" lon="11.786705"><ele>287.0</ele><time>2026-05-01T13:39:34.186Z</time></trkpt><trkpt lat="45.997045" lon="11.7865917"><ele>287.0</ele><time>2026-05-01T13:39:35.185Z</time></trkpt><trkpt lat="45.9969067" lon="11.7864933"><ele>287.0</ele><time>2026-05-01T13:39:36.183Z</time></trkpt><trkpt lat="45.996775" lon="11.7863933"><ele>286.5</ele><time>2026-05-01T13:39:37.184Z</time></trkpt><trkpt lat="45.9966517" lon="11.7862983"><ele>286.0</ele><time>2026-05-01T13:39:38.188Z</time></trkpt><trkpt lat="45.99653" lon="11.786205"><ele>285.5</ele><time>2026-05-01T13:39:39.186Z</time></trkpt><trkpt lat="45.9964083" lon="11.7861017"><ele>285.0</ele><time>2026-05-01T13:39:40.188Z</time></trkpt><trkpt lat="45.99629" lon="11.7859983"><ele>285.0</ele><time>2026-05-01T13:39:41.188Z</time></trkpt><trkpt lat="45.9961783" lon="11.7858917"><ele>285.0</ele><time>2026-05-01T13:39:42.186Z</time></trkpt><trkpt lat="45.99607" lon="11.7857683"><ele>285.0</ele><time>2026-05-01T13:39:43.185Z</time></trkpt><trkpt lat="45.9959733" lon="11.785615"><ele>285.0</ele><time>2026-05-01T13:39:44.184Z</time></trkpt><trkpt lat="45.9958817" lon="11.785435"><ele>284.6666666666667</ele><time>2026-05-01T13:39:45.185Z</time></trkpt><trkpt lat="45.9957883" lon="11.7852417"><ele>284.33333333333337</ele><time>2026-05-01T13:39:46.185Z</time></trkpt><trkpt lat="45.995685" lon="11.78505"><ele>284.0</ele><time>2026-05-01T13:39:47.186Z</time></trkpt><trkpt lat="45.995575" lon="11.7848667"><ele>284.0</ele><time>2026-05-01T13:39:48.187Z</time></trkpt><trkpt lat="45.9954733" lon="11.784695"><ele>284.0</ele><time>2026-05-01T13:39:49.185Z</time></trkpt><trkpt lat="45.9953733" lon="11.7845367"><ele>284.0</ele><time>2026-05-01T13:39:50.186Z</time></trkpt><trkpt lat="45.9952783" lon="11.7843867"><ele>284.0</ele><time>2026-05-01T13:39:51.186Z</time></trkpt><trkpt lat="45.9951917" lon="11.7842467"><ele>283.59999999999997</ele><time>2026-05-01T13:39:52.186Z</time></trkpt><trkpt lat="45.9951133" lon="11.78412"><ele>283.2</ele><time>2026-05-01T13:39:53.184Z</time></trkpt><trkpt lat="45.9950383" lon="11.7840017"><ele>282.79999999999995</ele><time>2026-05-01T13:39:54.185Z</time></trkpt><trkpt lat="45.9949717" lon="11.7838917"><ele>282.4</ele><time>2026-05-01T13:39:55.184Z</time></trkpt><trkpt lat="45.9949067" lon="11.7837917"><ele>282.0</ele><time>2026-05-01T13:39:56.186Z</time></trkpt><trkpt lat="45.9948417" lon="11.7837033"><ele>282.0</ele><time>2026-05-01T13:39:57.189Z</time></trkpt><trkpt lat="45.994785" lon="11.7836217"><ele>282.0</ele><time>2026-05-01T13:39:58.186Z</time></trkpt><trkpt lat="45.9947317" lon="11.783545"><ele>282.0</ele><time>2026-05-01T13:39:59.184Z</time></trkpt><trkpt lat="45.9946733" lon="11.7834683"><ele>282.0</ele><time>2026-05-01T13:40:00.184Z</time></trkpt><trkpt lat="45.9946083" lon="11.7833767"><ele>282.0</ele><time>2026-05-01T13:40:01.187Z</time></trkpt><trkpt lat="45.9945333" lon="11.7832783"><ele>282.0</ele><time>2026-05-01T13:40:02.185Z</time></trkpt><trkpt lat="45.99445" lon="11.7831733"><ele>281.0</ele><time>2026-05-01T13:40:03.19Z</time></trkpt><trkpt lat="45.9943533" lon="11.78307"><ele>280.0</ele><time>2026-05-01T13:40:04.184Z</time></trkpt><trkpt lat="45.994255" lon="11.78298"><ele>279.0</ele><time>2026-05-01T13:40:05.183Z</time></trkpt><trkpt lat="45.9941517" lon="11.7828967"><ele>278.0</ele><time>2026-05-01T13:40:06.186Z</time></trkpt><trkpt lat="45.9940433" lon="11.7828033"><ele>278.0</ele><time>2026-05-01T13:40:07.184Z</time></trkpt><trkpt lat="45.9939333" lon="11.78269"><ele>278.0</ele><time>2026-05-01T13:40:08.184Z</time></trkpt><trkpt lat="45.9938183" lon="11.7825683"><ele>278.0</ele><time>2026-05-01T13:40:09.186Z</time></trkpt><trkpt lat="45.993705" lon="11.7824533"><ele>278.0</ele><time>2026-05-01T13:40:10.188Z</time></trkpt><trkpt lat="45.9936033" lon="11.7823483"><ele>277.8</ele><time>2026-05-01T13:40:11.184Z</time></trkpt><trkpt lat="45.99351" lon="11.782255"><ele>277.6</ele><time>2026-05-01T13:40:12.184Z</time></trkpt><trkpt lat="45.993425" lon="11.7821667"><ele>277.4</ele><time>2026-05-01T13:40:13.188Z</time></trkpt><trkpt lat="45.9933483" lon="11.78209"><ele>277.2</ele><time>2026-05-01T13:40:14.186Z</time></trkpt><trkpt lat="45.9932817" lon="11.7820317"><ele>277.0</ele><time>2026-05-01T13:40:15.184Z</time></trkpt><trkpt lat="45.9931967" lon="11.7819417"><ele>277.0</ele><time>2026-05-01T13:40:17.186Z</time></trkpt><trkpt lat="45.9931433" lon="11.7818767"><ele>277.0</ele><time>2026-05-01T13:40:19.183Z</time></trkpt><trkpt lat="45.9930717" lon="11.7818983"><ele>277.0</ele><time>2026-05-01T13:41:00.186Z</time></trkpt><trkpt lat="45.9931033" lon="11.782"><ele>277.0</ele><time>2026-05-01T13:41:04.185Z</time></trkpt><trkpt lat="45.9932017" lon="11.7820117"><ele>277.0</ele><time>2026-05-01T13:41:06.184Z</time></trkpt><trkpt lat="45.9933033" lon="11.7820983"><ele>277.0</ele><time>2026-05-01T13:41:08.184Z</time></trkpt><trkpt lat="45.9933633" lon="11.7821783"><ele>278.0</ele><time>2026-05-01T13:41:09.195Z</time></trkpt><trkpt lat="45.9934283" lon="11.78226"><ele>279.0</ele><time>2026-05-01T13:41:10.184Z</time></trkpt><trkpt lat="45.9935017" lon="11.782335"><ele>280.0</ele><time>2026-05-01T13:41:11.187Z</time></trkpt><trkpt lat="45.9935883" lon="11.7824117"><ele>281.0</ele><time>2026-05-01T13:41:12.185Z</time></trkpt><trkpt lat="45.9936833" lon="11.782495"><ele>282.0</ele><time>2026-05-01T13:41:13.183Z</time></trkpt><trkpt lat="45.99378" lon="11.7825867"><ele>281.0</ele><time>2026-05-01T13:41:14.185Z</time></trkpt><trkpt lat="45.9938783" lon="11.7826817"><ele>280.0</ele><time>2026-05-01T13:41:15.19Z</time></trkpt><trkpt lat="45.9939717" lon="11.7827783"><ele>279.0</ele><time>2026-05-01T13:41:16.185Z</time></trkpt><trkpt lat="45.9940683" lon="11.7828717"><ele>278.0</ele><time>2026-05-01T13:41:17.186Z</time></trkpt><trkpt lat="45.9941667" lon="11.7829683"><ele>280.4</ele><time>2026-05-01T13:41:18.186Z</time></trkpt><trkpt lat="45.9942583" lon="11.783055"><ele>282.8</ele><time>2026-05-01T13:41:19.185Z</time></trkpt><trkpt lat="45.99434" lon="11.7831267"><ele>285.2</ele><time>2026-05-01T13:41:20.186Z</time></trkpt><trkpt lat="45.9944067" lon="11.783185"><ele>287.6</ele><time>2026-05-01T13:41:21.185Z</time></trkpt><trkpt lat="45.9944933" lon="11.7832733"><ele>290.0</ele><time>2026-05-01T13:41:23.187Z</time></trkpt><trkpt lat="45.99456" lon="11.7833167"><ele>290.0</ele><time>2026-05-01T13:41:25.186Z</time></trkpt><trkpt lat="45.9946383" lon="11.783265"><ele>290.0</ele><time>2026-05-01T13:41:28.184Z</time></trkpt><trkpt lat="45.9946517" lon="11.783365"><ele>290.0</ele><time>2026-05-01T13:47:47.184Z</time></trkpt><trkpt lat="45.9946683" lon="11.78349"><ele>290.0</ele><time>2026-05-01T13:47:50.184Z</time></trkpt><trkpt lat="45.9947383" lon="11.7836183"><ele>290.0</ele><time>2026-05-01T13:47:52.184Z</time></trkpt><trkpt lat="45.9947883" lon="11.7836833"><ele>290.0</ele><time>2026-05-01T13:47:53.184Z</time></trkpt><trkpt lat="45.9948333" lon="11.7837517"><ele>290.6666666666667</ele><time>2026-05-01T13:47:54.188Z</time></trkpt><trkpt lat="45.9948817" lon="11.78382"><ele>291.33333333333337</ele><time>2026-05-01T13:47:55.184Z</time></trkpt><trkpt lat="45.994935" lon="11.783895"><ele>292.0</ele><time>2026-05-01T13:47:56.183Z</time></trkpt><trkpt lat="45.9949883" lon="11.78397"><ele>292.6666666666667</ele><time>2026-05-01T13:47:57.186Z</time></trkpt><trkpt lat="45.9950417" lon="11.784055"><ele>293.3333333333333</ele><time>2026-05-01T13:47:58.184Z</time></trkpt><trkpt lat="45.9950967" lon="11.78414"><ele>294.0</ele><time>2026-05-01T13:47:59.182Z</time></trkpt><trkpt lat="45.9951567" lon="11.7842233"><ele>294.0</ele><time>2026-05-01T13:48:00.183Z</time></trkpt><trkpt lat="45.9952167" lon="11.784315"><ele>294.0</ele><time>2026-05-01T13:48:01.187Z</time></trkpt><trkpt lat="45.99528" lon="11.78441"><ele>294.0</ele><time>2026-05-01T13:48:02.185Z</time></trkpt><trkpt lat="45.99535" lon="11.7845233"><ele>294.0</ele><time>2026-05-01T13:48:03.183Z</time></trkpt><trkpt lat="45.9954167" lon="11.7846467"><ele>294.0</ele><time>2026-05-01T13:48:04.182Z</time></trkpt><trkpt lat="45.9954833" lon="11.7847683"><ele>291.5</ele><time>2026-05-01T13:48:05.185Z</time></trkpt><trkpt lat="45.995555" lon="11.7848883"><ele>289.0</ele><time>2026-05-01T13:48:06.184Z</time></trkpt><trkpt lat="45.9956267" lon="11.7850167"><ele>286.5</ele><time>2026-05-01T13:48:07.185Z</time></trkpt><trkpt lat="45.9957033" lon="11.7851467"><ele>284.0</ele><time>2026-05-01T13:48:08.183Z</time></trkpt><trkpt lat="45.9957817" lon="11.7852833"><ele>284.25</ele><time>2026-05-01T13:48:09.187Z</time></trkpt><trkpt lat="45.9958583" lon="11.7854283"><ele>284.5</ele><time>2026-05-01T13:48:10.184Z</time></trkpt><trkpt lat="45.9959317" lon="11.7855633"><ele>284.75</ele><time>2026-05-01T13:48:11.187Z</time></trkpt><trkpt lat="45.9960083" lon="11.7856817"><ele>285.0</ele><time>2026-05-01T13:48:12.184Z</time></trkpt><trkpt lat="45.99609" lon="11.7857933"><ele>285.0</ele><time>2026-05-01T13:48:13.186Z</time></trkpt><trkpt lat="45.9961817" lon="11.7858967"><ele>285.0</ele><time>2026-05-01T13:48:14.183Z</time></trkpt><trkpt lat="45.9962783" lon="11.7859933"><ele>285.0</ele><time>2026-05-01T13:48:15.182Z</time></trkpt><trkpt lat="45.9963833" lon="11.7860833"><ele>285.0</ele><time>2026-05-01T13:48:16.184Z</time></trkpt><trkpt lat="45.9964933" lon="11.7861667"><ele>284.5</ele><time>2026-05-01T13:48:17.186Z</time></trkpt><trkpt lat="45.99661" lon="11.78626"><ele>284.0</ele><time>2026-05-01T13:48:18.185Z</time></trkpt><trkpt lat="45.9967283" lon="11.7863617"><ele>283.5</ele><time>2026-05-01T13:48:19.185Z</time></trkpt><trkpt lat="45.9968417" lon="11.78647"><ele>283.0</ele><time>2026-05-01T13:48:20.186Z</time></trkpt><trkpt lat="45.9969617" lon="11.7865667"><ele>283.5</ele><time>2026-05-01T13:48:21.184Z</time></trkpt><trkpt lat="45.99708" lon="11.78666"><ele>284.0</ele><time>2026-05-01T13:48:22.185Z</time></trkpt><trkpt lat="45.9972" lon="11.7867567"><ele>284.5</ele><time>2026-05-01T13:48:23.185Z</time></trkpt><trkpt lat="45.9973183" lon="11.7868533"><ele>285.0</ele><time>2026-05-01T13:48:24.185Z</time></trkpt><trkpt lat="45.997435" lon="11.7869467"><ele>286.5</ele><time>2026-05-01T13:48:25.185Z</time></trkpt><trkpt lat="45.997555" lon="11.7870333"><ele>288.0</ele><time>2026-05-01T13:48:26.189Z</time></trkpt><trkpt lat="45.99768" lon="11.7871217"><ele>289.5</ele><time>2026-05-01T13:48:27.184Z</time></trkpt><trkpt lat="45.9978017" lon="11.7872233"><ele>291.0</ele><time>2026-05-01T13:48:28.182Z</time></trkpt><trkpt lat="45.9979233" lon="11.7873367"><ele>291.0</ele><time>2026-05-01T13:48:29.183Z</time></trkpt><trkpt lat="45.9980517" lon="11.7874433"><ele>291.0</ele><time>2026-05-01T13:48:30.185Z</time></trkpt><trkpt lat="45.99818" lon="11.7875417"><ele>291.0</ele><time>2026-05-01T13:48:31.187Z</time></trkpt><trkpt lat="45.9983133" lon="11.7876417"><ele>291.0</ele><time>2026-05-01T13:48:32.184Z</time></trkpt><trkpt lat="45.998445" lon="11.7877433"><ele>290.5</ele><time>2026-05-01T13:48:33.19Z</time></trkpt><trkpt lat="45.9985767" lon="11.7878483"><ele>290.0</ele><time>2026-05-01T13:48:34.183Z</time></trkpt><trkpt lat="45.9987033" lon="11.78795"><ele>289.5</ele><time>2026-05-01T13:48:35.184Z</time></trkpt><trkpt lat="45.998825" lon="11.7880467"><ele>289.0</ele><time>2026-05-01T13:48:36.184Z</time></trkpt><trkpt lat="45.998945" lon="11.7881467"><ele>289.0</ele><time>2026-05-01T13:48:37.187Z</time></trkpt><trkpt lat="45.99907" lon="11.7882467"><ele>289.0</ele><time>2026-05-01T13:48:38.182Z</time></trkpt><trkpt lat="45.9991983" lon="11.788345"><ele>289.0</ele><time>2026-05-01T13:48:39.185Z</time></trkpt><trkpt lat="45.9993267" lon="11.7884417"><ele>289.0</ele><time>2026-05-01T13:48:40.184Z</time></trkpt><trkpt lat="45.99946" lon="11.7885333"><ele>288.5</ele><time>2026-05-01T13:48:41.187Z</time></trkpt><trkpt lat="45.9995967" lon="11.788625"><ele>288.0</ele><time>2026-05-01T13:48:42.185Z</time></trkpt><trkpt lat="45.99973" lon="11.7887167"><ele>287.5</ele><time>2026-05-01T13:48:43.186Z</time></trkpt><trkpt lat="45.9998667" lon="11.7888083"><ele>287.0</ele><time>2026-05-01T13:48:44.19Z</time></trkpt><trkpt lat="46.0000067" lon="11.7889"><ele>287.0</ele><time>2026-05-01T13:48:45.184Z</time></trkpt><trkpt lat="46.0001467" lon="11.7889917"><ele>287.0</ele><time>2026-05-01T13:48:46.185Z</time></trkpt><trkpt lat="46.000275" lon="11.7890783"><ele>287.0</ele><time>2026-05-01T13:48:47.184Z</time></trkpt><trkpt lat="46.0003967" lon="11.78916"><ele>287.0</ele><time>2026-05-01T13:48:48.186Z</time></trkpt><trkpt lat="46.00052" lon="11.7892417"><ele>287.0</ele><time>2026-05-01T13:48:49.186Z</time></trkpt><trkpt lat="46.000645" lon="11.789325"><ele>287.0</ele><time>2026-05-01T13:48:50.185Z</time></trkpt><trkpt lat="46.0007717" lon="11.7894083"><ele>287.0</ele><time>2026-05-01T13:48:51.188Z</time></trkpt><trkpt lat="46.0009017" lon="11.7894933"><ele>287.0</ele><time>2026-05-01T13:48:52.184Z</time></trkpt><trkpt lat="46.0010333" lon="11.7895783"><ele>287.5</ele><time>2026-05-01T13:48:53.185Z</time></trkpt><trkpt lat="46.0011667" lon="11.789665"><ele>288.0</ele><time>2026-05-01T13:48:54.188Z</time></trkpt><trkpt lat="46.0013" lon="11.7897533"><ele>288.5</ele><time>2026-05-01T13:48:55.185Z</time></trkpt><trkpt lat="46.0014367" lon="11.7898433"><ele>289.0</ele><time>2026-05-01T13:48:56.185Z</time></trkpt><trkpt lat="46.0015733" lon="11.7899317"><ele>289.66666666666663</ele><time>2026-05-01T13:48:57.185Z</time></trkpt><trkpt lat="46.001715" lon="11.7900217"><ele>290.3333333333333</ele><time>2026-05-01T13:48:58.185Z</time></trkpt><trkpt lat="46.0018567" lon="11.790115"><ele>291.0</ele><time>2026-05-01T13:48:59.185Z</time></trkpt><trkpt lat="46.0019983" lon="11.7902083"><ele>291.6666666666667</ele><time>2026-05-01T13:49:00.188Z</time></trkpt><trkpt lat="46.0021417" lon="11.7903017"><ele>292.33333333333337</ele><time>2026-05-01T13:49:01.183Z</time></trkpt><trkpt lat="46.0022867" lon="11.7903983"><ele>293.0</ele><time>2026-05-01T13:49:02.183Z</time></trkpt><trkpt lat="46.002425" lon="11.79049"><ele>292.25</ele><time>2026-05-01T13:49:03.183Z</time></trkpt><trkpt lat="46.0025533" lon="11.79058"><ele>291.5</ele><time>2026-05-01T13:49:04.187Z</time></trkpt><trkpt lat="46.00268" lon="11.790675"><ele>290.75</ele><time>2026-05-01T13:49:05.184Z</time></trkpt><trkpt lat="46.00281" lon="11.7907783"><ele>290.0</ele><time>2026-05-01T13:49:06.186Z</time></trkpt><trkpt lat="46.002935" lon="11.7908867"><ele>290.0</ele><time>2026-05-01T13:49:07.183Z</time></trkpt><trkpt lat="46.0030617" lon="11.791"><ele>290.0</ele><time>2026-05-01T13:49:08.187Z</time></trkpt><trkpt lat="46.0031883" lon="11.7911133"><ele>290.0</ele><time>2026-05-01T13:49:09.184Z</time></trkpt><trkpt lat="46.0033183" lon="11.7912283"><ele>291.0</ele><time>2026-05-01T13:49:10.186Z</time></trkpt><trkpt lat="46.0034467" lon="11.7913433"><ele>292.0</ele><time>2026-05-01T13:49:11.185Z</time></trkpt><trkpt lat="46.003575" lon="11.79146"><ele>293.0</ele><time>2026-05-01T13:49:12.268Z</time></trkpt><trkpt lat="46.0037033" lon="11.7915733"><ele>293.0</ele><time>2026-05-01T13:49:13.184Z</time></trkpt><trkpt lat="46.0038333" lon="11.79168"><ele>293.0</ele><time>2026-05-01T13:49:14.187Z</time></trkpt><trkpt lat="46.0039633" lon="11.7917933"><ele>293.0</ele><time>2026-05-01T13:49:15.187Z</time></trkpt><trkpt lat="46.0040933" lon="11.7919083"><ele>294.0</ele><time>2026-05-01T13:49:16.185Z</time></trkpt><trkpt lat="46.004225" lon="11.7920283"><ele>295.0</ele><time>2026-05-01T13:49:17.186Z</time></trkpt><trkpt lat="46.0043567" lon="11.7921467"><ele>296.0</ele><time>2026-05-01T13:49:18.188Z</time></trkpt><trkpt lat="46.00449" lon="11.792265"><ele>296.0</ele><time>2026-05-01T13:49:19.185Z</time></trkpt><trkpt lat="46.0046217" lon="11.79238"><ele>296.0</ele><time>2026-05-01T13:49:20.184Z</time></trkpt><trkpt lat="46.0047433" lon="11.7924883"><ele>296.0</ele><time>2026-05-01T13:49:21.182Z</time></trkpt><trkpt lat="46.0048667" lon="11.7925983"><ele>296.0</ele><time>2026-05-01T13:49:22.187Z</time></trkpt><trkpt lat="46.0049917" lon="11.792705"><ele>297.25</ele><time>2026-05-01T13:49:23.189Z</time></trkpt><trkpt lat="46.0051217" lon="11.79281"><ele>298.5</ele><time>2026-05-01T13:49:24.185Z</time></trkpt><trkpt lat="46.0052483" lon="11.79292"><ele>299.75</ele><time>2026-05-01T13:49:25.185Z</time></trkpt><trkpt lat="46.0053783" lon="11.7930183"><ele>301.0</ele><time>2026-05-01T13:49:26.184Z</time></trkpt><trkpt lat="46.005515" lon="11.7931"><ele>301.0</ele><time>2026-05-01T13:49:27.188Z</time></trkpt><trkpt lat="46.005665" lon="11.7931583"><ele>301.0</ele><time>2026-05-01T13:49:28.185Z</time></trkpt><trkpt lat="46.005825" lon="11.7931817"><ele>301.0</ele><time>2026-05-01T13:49:29.184Z</time></trkpt><trkpt lat="46.0059883" lon="11.7931833"><ele>300.0</ele><time>2026-05-01T13:49:30.184Z</time></trkpt><trkpt lat="46.006155" lon="11.7931683"><ele>299.0</ele><time>2026-05-01T13:49:31.188Z</time></trkpt><trkpt lat="46.00633" lon="11.7931333"><ele>298.0</ele><time>2026-05-01T13:49:32.186Z</time></trkpt><trkpt lat="46.006495" lon="11.7930783"><ele>298.0</ele><time>2026-05-01T13:49:33.182Z</time></trkpt><trkpt lat="46.0066483" lon="11.7930117"><ele>298.0</ele><time>2026-05-01T13:49:34.183Z</time></trkpt><trkpt lat="46.00679" lon="11.7929467"><ele>298.0</ele><time>2026-05-01T13:49:35.182Z</time></trkpt><trkpt lat="46.00692" lon="11.79288"><ele>298.0</ele><time>2026-05-01T13:49:36.183Z</time></trkpt><trkpt lat="46.0070467" lon="11.7928183"><ele>297.75</ele><time>2026-05-01T13:49:37.186Z</time></trkpt><trkpt lat="46.0071683" lon="11.7927683"><ele>297.5</ele><time>2026-05-01T13:49:38.183Z</time></trkpt><trkpt lat="46.00728" lon="11.7927333"><ele>297.25</ele><time>2026-05-01T13:49:39.185Z</time></trkpt><trkpt lat="46.0073917" lon="11.7926883"><ele>297.0</ele><time>2026-05-01T13:49:40.185Z</time></trkpt><trkpt lat="46.0075067" lon="11.792615"><ele>301.6666666666667</ele><time>2026-05-01T13:49:41.186Z</time></trkpt><trkpt lat="46.0076333" lon="11.7925267"><ele>306.33333333333337</ele><time>2026-05-01T13:49:42.186Z</time></trkpt><trkpt lat="46.0077733" lon="11.792445"><ele>311.0</ele><time>2026-05-01T13:49:43.181Z</time></trkpt><trkpt lat="46.0079217" lon="11.7923667"><ele>311.0</ele><time>2026-05-01T13:49:44.186Z</time></trkpt><trkpt lat="46.00807" lon="11.7922917"><ele>311.0</ele><time>2026-05-01T13:49:45.185Z</time></trkpt><trkpt lat="46.008215" lon="11.79221"><ele>311.0</ele><time>2026-05-01T13:49:46.182Z</time></trkpt><trkpt lat="46.0083667" lon="11.7921267"><ele>308.33333333333337</ele><time>2026-05-01T13:49:47.182Z</time></trkpt><trkpt lat="46.0085217" lon="11.79204"><ele>305.6666666666667</ele><time>2026-05-01T13:49:48.185Z</time></trkpt><trkpt lat="46.0086833" lon="11.7919567"><ele>303.0</ele><time>2026-05-01T13:49:49.184Z</time></trkpt><trkpt lat="46.0088467" lon="11.7918733"><ele>303.0</ele><time>2026-05-01T13:49:50.184Z</time></trkpt><trkpt lat="46.0090017" lon="11.791795"><ele>303.0</ele><time>2026-05-01T13:49:51.187Z</time></trkpt><trkpt lat="46.0091483" lon="11.7917167"><ele>303.0</ele><time>2026-05-01T13:49:52.183Z</time></trkpt><trkpt lat="46.00929" lon="11.7916367"><ele>303.0</ele><time>2026-05-01T13:49:53.183Z</time></trkpt><trkpt lat="46.0094317" lon="11.7915567"><ele>303.0</ele><time>2026-05-01T13:49:54.182Z</time></trkpt><trkpt lat="46.0095767" lon="11.7914783"><ele>303.0</ele><time>2026-05-01T13:49:55.185Z</time></trkpt><trkpt lat="46.0097167" lon="11.7914017"><ele>303.0</ele><time>2026-05-01T13:49:56.188Z</time></trkpt><trkpt lat="46.0098467" lon="11.7913317"><ele>303.0</ele><time>2026-05-01T13:49:57.187Z</time></trkpt><trkpt lat="46.0099583" lon="11.7912767"><ele>303.0</ele><time>2026-05-01T13:49:58.187Z</time></trkpt><trkpt lat="46.0100533" lon="11.791235"><ele>303.0</ele><time>2026-05-01T13:49:59.182Z</time></trkpt><trkpt lat="46.010145" lon="11.7912167"><ele>303.0</ele><time>2026-05-01T13:50:00.182Z</time></trkpt><trkpt lat="46.0102333" lon="11.7912283"><ele>303.0</ele><time>2026-05-01T13:50:01.185Z</time></trkpt><trkpt lat="46.010325" lon="11.7912817"><ele>303.0</ele><time>2026-05-01T13:50:02.185Z</time></trkpt><trkpt lat="46.0104117" lon="11.7913667"><ele>303.0</ele><time>2026-05-01T13:50:03.184Z</time></trkpt><trkpt lat="46.0105017" lon="11.7914817"><ele>303.0</ele><time>2026-05-01T13:50:04.184Z</time></trkpt><trkpt lat="46.0105883" lon="11.79161"><ele>303.0</ele><time>2026-05-01T13:50:05.182Z</time></trkpt><trkpt lat="46.0106733" lon="11.7917267"><ele>303.0</ele><time>2026-05-01T13:50:06.183Z</time></trkpt><trkpt lat="46.0107533" lon="11.7918283"><ele>303.0</ele><time>2026-05-01T13:50:07.182Z</time></trkpt><trkpt lat="46.010825" lon="11.7919217"><ele>303.0</ele><time>2026-05-01T13:50:08.187Z</time></trkpt><trkpt lat="46.0108883" lon="11.79201"><ele>303.0</ele><time>2026-05-01T13:50:09.184Z</time></trkpt><trkpt lat="46.0109483" lon="11.7920917"><ele>303.0</ele><time>2026-05-01T13:50:10.188Z</time></trkpt><trkpt lat="46.0110017" lon="11.7921617"><ele>303.0</ele><time>2026-05-01T13:50:11.183Z</time></trkpt><trkpt lat="46.01109" lon="11.7922783"><ele>302.8333333333333</ele><time>2026-05-01T13:50:13.183Z</time></trkpt><trkpt lat="46.0111667" lon="11.7923817"><ele>302.6666666666667</ele><time>2026-05-01T13:50:15.185Z</time></trkpt><trkpt lat="46.0112217" lon="11.79245"><ele>302.5</ele><time>2026-05-01T13:50:17.185Z</time></trkpt><trkpt lat="46.01128" lon="11.7925317"><ele>302.33333333333337</ele><time>2026-05-01T13:50:20.184Z</time></trkpt><trkpt lat="46.011335" lon="11.79259"><ele>302.1666666666667</ele><time>2026-05-01T13:50:23.184Z</time></trkpt><trkpt lat="46.0113817" lon="11.7926517"><ele>302.0</ele><time>2026-05-01T13:50:25.185Z</time></trkpt><trkpt lat="46.0114383" lon="11.7927217"><ele>302.33333333333337</ele><time>2026-05-01T13:50:27.184Z</time></trkpt><trkpt lat="46.0114817" lon="11.7928"><ele>302.6666666666667</ele><time>2026-05-01T13:50:29.182Z</time></trkpt><trkpt lat="46.011545" lon="11.7928617"><ele>303.0</ele><time>2026-05-01T13:50:31.187Z</time></trkpt><trkpt lat="46.0116117" lon="11.7929383"><ele>303.3333333333333</ele><time>2026-05-01T13:50:33.183Z</time></trkpt><trkpt lat="46.0116783" lon="11.793035"><ele>303.66666666666663</ele><time>2026-05-01T13:50:35.184Z</time></trkpt><trkpt lat="46.0117517" lon="11.7931383"><ele>304.0</ele><time>2026-05-01T13:50:37.185Z</time></trkpt><trkpt lat="46.0118183" lon="11.7932517"><ele>304.0</ele><time>2026-05-01T13:50:39.186Z</time></trkpt><trkpt lat="46.0118983" lon="11.7933767"><ele>304.0</ele><time>2026-05-01T13:50:41.185Z</time></trkpt><trkpt lat="46.0119317" lon="11.79352"><ele>304.0</ele><time>2026-05-01T13:50:43.184Z</time></trkpt><trkpt lat="46.0119133" lon="11.7936233"><ele>304.0</ele><time>2026-05-01T13:50:44.184Z</time></trkpt><trkpt lat="46.0118733" lon="11.7937317"><ele>304.0</ele><time>2026-05-01T13:50:45.184Z</time></trkpt><trkpt lat="46.0118217" lon="11.7938383"><ele>304.0</ele><time>2026-05-01T13:50:46.187Z</time></trkpt><trkpt lat="46.0117567" lon="11.7939733"><ele>304.0</ele><time>2026-05-01T13:50:47.184Z</time></trkpt><trkpt lat="46.01168" lon="11.79411"><ele>304.0</ele><time>2026-05-01T13:50:48.184Z</time></trkpt><trkpt lat="46.011595" lon="11.7942367"><ele>304.0</ele><time>2026-05-01T13:50:49.189Z</time></trkpt><trkpt lat="46.0114983" lon="11.7943617"><ele>304.0</ele><time>2026-05-01T13:50:50.185Z</time></trkpt><trkpt lat="46.0114" lon="11.7944867"><ele>304.0</ele><time>2026-05-01T13:50:51.185Z</time></trkpt><trkpt lat="46.011295" lon="11.7946167"><ele>304.0</ele><time>2026-05-01T13:50:52.185Z</time></trkpt><trkpt lat="46.0111967" lon="11.79476"><ele>304.0</ele><time>2026-05-01T13:50:53.19Z</time></trkpt><trkpt lat="46.0111067" lon="11.7949017"><ele>304.0</ele><time>2026-05-01T13:50:54.184Z</time></trkpt><trkpt lat="46.011015" lon="11.7950317"><ele>304.0</ele><time>2026-05-01T13:50:55.183Z</time></trkpt><trkpt lat="46.01092" lon="11.7951467"><ele>304.0</ele><time>2026-05-01T13:50:56.182Z</time></trkpt><trkpt lat="46.0108233" lon="11.7952617"><ele>304.0</ele><time>2026-05-01T13:50:57.185Z</time></trkpt><trkpt lat="46.0107283" lon="11.7953817"><ele>304.0</ele><time>2026-05-01T13:50:58.183Z</time></trkpt><trkpt lat="46.0106283" lon="11.795515"><ele>304.0</ele><time>2026-05-01T13:50:59.184Z</time></trkpt><trkpt lat="46.0105217" lon="11.7956517"><ele>304.0</ele><time>2026-05-01T13:51:00.184Z</time></trkpt><trkpt lat="46.0104083" lon="11.7957983"><ele>304.0</ele><time>2026-05-01T13:51:01.183Z</time></trkpt><trkpt lat="46.0102933" lon="11.7959517"><ele>302.66666666666663</ele><time>2026-05-01T13:51:02.185Z</time></trkpt><trkpt lat="46.010175" lon="11.7961067"><ele>301.3333333333333</ele><time>2026-05-01T13:51:03.184Z</time></trkpt><trkpt lat="46.010055" lon="11.7962617"><ele>300.0</ele><time>2026-05-01T13:51:04.183Z</time></trkpt><trkpt lat="46.0099333" lon="11.7964133"><ele>300.0</ele><time>2026-05-01T13:51:05.186Z</time></trkpt><trkpt lat="46.0098133" lon="11.79656"><ele>300.0</ele><time>2026-05-01T13:51:06.186Z</time></trkpt><trkpt lat="46.009695" lon="11.79671"><ele>300.0</ele><time>2026-05-01T13:51:07.185Z</time></trkpt><trkpt lat="46.0095783" lon="11.7968633"><ele>299.6666666666667</ele><time>2026-05-01T13:51:08.186Z</time></trkpt><trkpt lat="46.00946" lon="11.7970267"><ele>299.33333333333337</ele><time>2026-05-01T13:51:09.184Z</time></trkpt><trkpt lat="46.00933" lon="11.7972"><ele>299.0</ele><time>2026-05-01T13:51:10.184Z</time></trkpt><trkpt lat="46.0091967" lon="11.7973833"><ele>299.0</ele><time>2026-05-01T13:51:11.184Z</time></trkpt><trkpt lat="46.009055" lon="11.79757"><ele>299.0</ele><time>2026-05-01T13:51:12.185Z</time></trkpt><trkpt lat="46.0089167" lon="11.797755"><ele>299.0</ele><time>2026-05-01T13:51:13.186Z</time></trkpt><trkpt lat="46.0087733" lon="11.7979417"><ele>298.6666666666667</ele><time>2026-05-01T13:51:14.187Z</time></trkpt><trkpt lat="46.0086317" lon="11.7981283"><ele>298.3333333333333</ele><time>2026-05-01T13:51:15.186Z</time></trkpt><trkpt lat="46.0084883" lon="11.7983267"><ele>298.0</ele><time>2026-05-01T13:51:16.184Z</time></trkpt><trkpt lat="46.00834" lon="11.79853"><ele>298.0</ele><time>2026-05-01T13:51:17.184Z</time></trkpt><trkpt lat="46.00819" lon="11.7987333"><ele>298.0</ele><time>2026-05-01T13:51:18.183Z</time></trkpt><trkpt lat="46.0080367" lon="11.7989317"><ele>298.0</ele><time>2026-05-01T13:51:19.184Z</time></trkpt><trkpt lat="46.007885" lon="11.79913"><ele>298.0</ele><time>2026-05-01T13:51:20.186Z</time></trkpt><trkpt lat="46.0077333" lon="11.7993317"><ele>298.0</ele><time>2026-05-01T13:51:21.187Z</time></trkpt><trkpt lat="46.00758" lon="11.799535"><ele>298.0</ele><time>2026-05-01T13:51:22.184Z</time></trkpt><trkpt lat="46.0074217" lon="11.7997417"><ele>297.0</ele><time>2026-05-01T13:51:23.187Z</time></trkpt><trkpt lat="46.007265" lon="11.7999483"><ele>296.0</ele><time>2026-05-01T13:51:24.184Z</time></trkpt><trkpt lat="46.0071083" lon="11.8001583"><ele>295.0</ele><time>2026-05-01T13:51:25.185Z</time></trkpt><trkpt lat="46.0069483" lon="11.80037"><ele>295.0</ele><time>2026-05-01T13:51:26.184Z</time></trkpt><trkpt lat="46.0067917" lon="11.8005783"><ele>295.0</ele><time>2026-05-01T13:51:27.187Z</time></trkpt><trkpt lat="46.0066417" lon="11.8007767"><ele>295.0</ele><time>2026-05-01T13:51:28.186Z</time></trkpt><trkpt lat="46.006495" lon="11.8009683"><ele>295.0</ele><time>2026-05-01T13:51:29.184Z</time></trkpt><trkpt lat="46.0063483" lon="11.8011633"><ele>295.0</ele><time>2026-05-01T13:51:30.185Z</time></trkpt><trkpt lat="46.0062" lon="11.801365"><ele>295.0</ele><time>2026-05-01T13:51:31.184Z</time></trkpt><trkpt lat="46.0060517" lon="11.8015683"><ele>295.0</ele><time>2026-05-01T13:51:32.185Z</time></trkpt><trkpt lat="46.0059033" lon="11.8017733"><ele>295.0</ele><time>2026-05-01T13:51:33.186Z</time></trkpt><trkpt lat="46.0057567" lon="11.8019733"><ele>295.0</ele><time>2026-05-01T13:51:34.186Z</time></trkpt><trkpt lat="46.0056133" lon="11.80217"><ele>294.66666666666663</ele><time>2026-05-01T13:51:35.185Z</time></trkpt><trkpt lat="46.0054717" lon="11.8023583"><ele>294.3333333333333</ele><time>2026-05-01T13:51:36.186Z</time></trkpt><trkpt lat="46.0053317" lon="11.8025433"><ele>294.0</ele><time>2026-05-01T13:51:37.184Z</time></trkpt><trkpt lat="46.00519" lon="11.8027317"><ele>293.6666666666667</ele><time>2026-05-01T13:51:38.187Z</time></trkpt><trkpt lat="46.0050467" lon="11.8029233"><ele>293.33333333333337</ele><time>2026-05-01T13:51:39.188Z</time></trkpt><trkpt lat="46.004905" lon="11.803115"><ele>293.0</ele><time>2026-05-01T13:51:40.186Z</time></trkpt><trkpt lat="46.0047617" lon="11.8033067"><ele>293.0</ele><time>2026-05-01T13:51:41.185Z</time></trkpt><trkpt lat="46.00462" lon="11.80349"><ele>293.0</ele><time>2026-05-01T13:51:42.186Z</time></trkpt><trkpt lat="46.0044883" lon="11.8036667"><ele>293.0</ele><time>2026-05-01T13:51:43.186Z</time></trkpt><trkpt lat="46.00436" lon="11.80384"><ele>293.0</ele><time>2026-05-01T13:51:44.185Z</time></trkpt><trkpt lat="46.00423" lon="11.8040167"><ele>293.0</ele><time>2026-05-01T13:51:45.185Z</time></trkpt><trkpt lat="46.004095" lon="11.8041983"><ele>293.0</ele><time>2026-05-01T13:51:46.188Z</time></trkpt><trkpt lat="46.0039583" lon="11.8043817"><ele>293.0</ele><time>2026-05-01T13:51:47.186Z</time></trkpt><trkpt lat="46.0038183" lon="11.8045667"><ele>293.0</ele><time>2026-05-01T13:51:48.186Z</time></trkpt><trkpt lat="46.0036783" lon="11.80475"><ele>293.0</ele><time>2026-05-01T13:51:49.187Z</time></trkpt><trkpt lat="46.0035367" lon="11.8049367"><ele>293.0</ele><time>2026-05-01T13:51:50.188Z</time></trkpt><trkpt lat="46.0033967" lon="11.8051233"><ele>293.0</ele><time>2026-05-01T13:51:51.185Z</time></trkpt><trkpt lat="46.0032583" lon="11.805305"><ele>293.0</ele><time>2026-05-01T13:51:52.186Z</time></trkpt><trkpt lat="46.00313" lon="11.8054717"><ele>293.6666666666667</ele><time>2026-05-01T13:51:53.186Z</time></trkpt><trkpt lat="46.0030067" lon="11.805615"><ele>294.3333333333333</ele><time>2026-05-01T13:51:54.187Z</time></trkpt><trkpt lat="46.0028867" lon="11.8057467"><ele>295.0</ele><time>2026-05-01T13:51:55.185Z</time></trkpt><trkpt lat="46.002765" lon="11.8058667"><ele>295.0</ele><time>2026-05-01T13:51:56.187Z</time></trkpt><trkpt lat="46.00264" lon="11.8059783"><ele>295.0</ele><time>2026-05-01T13:51:57.187Z</time></trkpt><trkpt lat="46.00251" lon="11.8060817"><ele>295.0</ele><time>2026-05-01T13:51:58.186Z</time></trkpt><trkpt lat="46.0023867" lon="11.806175"><ele>295.0</ele><time>2026-05-01T13:51:59.184Z</time></trkpt><trkpt lat="46.0022667" lon="11.8062617"><ele>294.75</ele><time>2026-05-01T13:52:00.188Z</time></trkpt><trkpt lat="46.0021433" lon="11.806335"><ele>294.5</ele><time>2026-05-01T13:52:01.185Z</time></trkpt><trkpt lat="46.00201" lon="11.8063817"><ele>294.25</ele><time>2026-05-01T13:52:02.186Z</time></trkpt><trkpt lat="46.0018683" lon="11.8063983"><ele>294.0</ele><time>2026-05-01T13:52:03.186Z</time></trkpt><trkpt lat="46.0017217" lon="11.8063683"><ele>294.0</ele><time>2026-05-01T13:52:04.183Z</time></trkpt><trkpt lat="46.0015767" lon="11.8062983"><ele>294.0</ele><time>2026-05-01T13:52:05.183Z</time></trkpt><trkpt lat="46.0014383" lon="11.8061833"><ele>294.0</ele><time>2026-05-01T13:52:06.184Z</time></trkpt><trkpt lat="46.0013083" lon="11.8060233"><ele>294.3333333333333</ele><time>2026-05-01T13:52:07.183Z</time></trkpt><trkpt lat="46.0011933" lon="11.8058217"><ele>294.66666666666663</ele><time>2026-05-01T13:52:08.264Z</time></trkpt><trkpt lat="46.00108" lon="11.8056117"><ele>295.0</ele><time>2026-05-01T13:52:09.186Z</time></trkpt><trkpt lat="46.0009567" lon="11.8054017"><ele>299.0</ele><time>2026-05-01T13:52:10.183Z</time></trkpt><trkpt lat="46.0008283" lon="11.8052"><ele>303.0</ele><time>2026-05-01T13:52:11.183Z</time></trkpt><trkpt lat="46.000695" lon="11.805005"><ele>307.0</ele><time>2026-05-01T13:52:12.187Z</time></trkpt><trkpt lat="46.0005567" lon="11.8048167"><ele>307.0</ele><time>2026-05-01T13:52:13.183Z</time></trkpt><trkpt lat="46.0004117" lon="11.80463"><ele>307.0</ele><time>2026-05-01T13:52:14.185Z</time></trkpt><trkpt lat="46.0002633" lon="11.8044483"><ele>307.0</ele><time>2026-05-01T13:52:15.188Z</time></trkpt><trkpt lat="46.0001117" lon="11.8042667"><ele>305.0</ele><time>2026-05-01T13:52:16.184Z</time></trkpt><trkpt lat="45.99996" lon="11.80408"><ele>303.0</ele><time>2026-05-01T13:52:17.184Z</time></trkpt><trkpt lat="45.99981" lon="11.8038867"><ele>301.0</ele><time>2026-05-01T13:52:18.184Z</time></trkpt><trkpt lat="45.999665" lon="11.8036933"><ele>301.0</ele><time>2026-05-01T13:52:19.187Z</time></trkpt><trkpt lat="45.9995183" lon="11.8035017"><ele>301.0</ele><time>2026-05-01T13:52:20.184Z</time></trkpt><trkpt lat="45.9993733" lon="11.8033117"><ele>301.0</ele><time>2026-05-01T13:52:21.182Z</time></trkpt><trkpt lat="45.999225" lon="11.8031217"><ele>299.0</ele><time>2026-05-01T13:52:22.184Z</time></trkpt><trkpt lat="45.9990833" lon="11.8029217"><ele>297.0</ele><time>2026-05-01T13:52:23.183Z</time></trkpt><trkpt lat="45.9989367" lon="11.80274"><ele>295.0</ele><time>2026-05-01T13:52:24.186Z</time></trkpt><trkpt lat="45.9987983" lon="11.8025417"><ele>295.0</ele><time>2026-05-01T13:52:25.185Z</time></trkpt><trkpt lat="45.9986633" lon="11.8023433"><ele>295.0</ele><time>2026-05-01T13:52:26.185Z</time></trkpt><trkpt lat="45.99853" lon="11.8021433"><ele>295.0</ele><time>2026-05-01T13:52:27.188Z</time></trkpt><trkpt lat="45.9984" lon="11.8019383"><ele>295.0</ele><time>2026-05-01T13:52:28.184Z</time></trkpt><trkpt lat="45.998275" lon="11.80173"><ele>295.0</ele><time>2026-05-01T13:52:29.187Z</time></trkpt><trkpt lat="45.9981467" lon="11.8015267"><ele>295.0</ele><time>2026-05-01T13:52:30.185Z</time></trkpt><trkpt lat="45.9980183" lon="11.8013267"><ele>295.0</ele><time>2026-05-01T13:52:31.184Z</time></trkpt><trkpt lat="45.9978917" lon="11.8011283"><ele>295.0</ele><time>2026-05-01T13:52:32.182Z</time></trkpt><trkpt lat="45.9977667" lon="11.8009317"><ele>295.0</ele><time>2026-05-01T13:52:33.186Z</time></trkpt><trkpt lat="45.9976383" lon="11.8007317"><ele>295.3333333333333</ele><time>2026-05-01T13:52:34.187Z</time></trkpt><trkpt lat="45.9975133" lon="11.8005283"><ele>295.6666666666667</ele><time>2026-05-01T13:52:35.185Z</time></trkpt><trkpt lat="45.9973867" lon="11.8003267"><ele>296.0</ele><time>2026-05-01T13:52:36.185Z</time></trkpt><trkpt lat="45.99726" lon="11.800125"><ele>296.0</ele><time>2026-05-01T13:52:37.183Z</time></trkpt><trkpt lat="45.997135" lon="11.7999217"><ele>296.0</ele><time>2026-05-01T13:52:38.184Z</time></trkpt><trkpt lat="45.99701" lon="11.7997183"><ele>296.0</ele><time>2026-05-01T13:52:39.185Z</time></trkpt><trkpt lat="45.9968867" lon="11.7995183"><ele>294.33333333333337</ele><time>2026-05-01T13:52:40.186Z</time></trkpt><trkpt lat="45.9967633" lon="11.799325"><ele>292.6666666666667</ele><time>2026-05-01T13:52:41.184Z</time></trkpt><trkpt lat="45.99664" lon="11.7991283"><ele>291.0</ele><time>2026-05-01T13:52:42.184Z</time></trkpt><trkpt lat="45.996515" lon="11.798935"><ele>291.0</ele><time>2026-05-01T13:52:43.187Z</time></trkpt><trkpt lat="45.9963917" lon="11.79874"><ele>291.0</ele><time>2026-05-01T13:52:44.185Z</time></trkpt><trkpt lat="45.9962683" lon="11.7985433"><ele>291.0</ele><time>2026-05-01T13:52:45.186Z</time></trkpt><trkpt lat="45.9961433" lon="11.798345"><ele>291.0</ele><time>2026-05-01T13:52:46.185Z</time></trkpt><trkpt lat="45.99602" lon="11.798145"><ele>291.0</ele><time>2026-05-01T13:52:47.184Z</time></trkpt><trkpt lat="45.9959" lon="11.797945"><ele>291.0</ele><time>2026-05-01T13:52:48.186Z</time></trkpt><trkpt lat="45.9957767" lon="11.7977417"><ele>290.0</ele><time>2026-05-01T13:52:49.183Z</time></trkpt><trkpt lat="45.9956517" lon="11.797535"><ele>289.0</ele><time>2026-05-01T13:52:50.184Z</time></trkpt><trkpt lat="45.9955217" lon="11.79733"><ele>288.0</ele><time>2026-05-01T13:52:51.187Z</time></trkpt><trkpt lat="45.9953883" lon="11.797125"><ele>288.0</ele><time>2026-05-01T13:52:52.186Z</time></trkpt><trkpt lat="45.9952583" lon="11.79691"><ele>288.0</ele><time>2026-05-01T13:52:53.183Z</time></trkpt><trkpt lat="45.9951283" lon="11.796685"><ele>288.0</ele><time>2026-05-01T13:52:54.184Z</time></trkpt><trkpt lat="45.994995" lon="11.7964583"><ele>287.6666666666667</ele><time>2026-05-01T13:52:55.184Z</time></trkpt><trkpt lat="45.994865" lon="11.7962283"><ele>287.33333333333337</ele><time>2026-05-01T13:52:56.186Z</time></trkpt><trkpt lat="45.994735" lon="11.795995"><ele>287.0</ele><time>2026-05-01T13:52:57.185Z</time></trkpt><trkpt lat="45.994605" lon="11.7957617"><ele>285.6666666666667</ele><time>2026-05-01T13:52:58.183Z</time></trkpt><trkpt lat="45.994475" lon="11.7955233"><ele>284.3333333333333</ele><time>2026-05-01T13:52:59.186Z</time></trkpt><trkpt lat="45.99435" lon="11.7952717"><ele>283.0</ele><time>2026-05-01T13:53:00.185Z</time></trkpt><trkpt lat="45.9942267" lon="11.79502"><ele>282.66666666666663</ele><time>2026-05-01T13:53:01.184Z</time></trkpt><trkpt lat="45.9941083" lon="11.7947683"><ele>282.3333333333333</ele><time>2026-05-01T13:53:02.184Z</time></trkpt><trkpt lat="45.9939883" lon="11.7945117"><ele>282.0</ele><time>2026-05-01T13:53:03.184Z</time></trkpt><trkpt lat="45.9938667" lon="11.7942583"><ele>282.0</ele><time>2026-05-01T13:53:04.184Z</time></trkpt><trkpt lat="45.9937467" lon="11.7940033"><ele>282.0</ele><time>2026-05-01T13:53:05.183Z</time></trkpt><trkpt lat="45.9936283" lon="11.79375"><ele>282.0</ele><time>2026-05-01T13:53:06.184Z</time></trkpt><trkpt lat="45.9935083" lon="11.7934933"><ele>281.6666666666667</ele><time>2026-05-01T13:53:07.187Z</time></trkpt><trkpt lat="45.993385" lon="11.7932433"><ele>281.33333333333337</ele><time>2026-05-01T13:53:08.184Z</time></trkpt><trkpt lat="45.9932633" lon="11.792995"><ele>281.0</ele><time>2026-05-01T13:53:09.184Z</time></trkpt><trkpt lat="45.99313" lon="11.7927567"><ele>280.33333333333337</ele><time>2026-05-01T13:53:10.185Z</time></trkpt><trkpt lat="45.992985" lon="11.79253"><ele>279.6666666666667</ele><time>2026-05-01T13:53:11.183Z</time></trkpt><trkpt lat="45.9928283" lon="11.7923233"><ele>279.0</ele><time>2026-05-01T13:53:12.185Z</time></trkpt><trkpt lat="45.9926517" lon="11.7921433"><ele>280.0</ele><time>2026-05-01T13:53:13.184Z</time></trkpt><trkpt lat="45.9924767" lon="11.791965"><ele>281.0</ele><time>2026-05-01T13:53:14.186Z</time></trkpt><trkpt lat="45.9922983" lon="11.7917867"><ele>282.0</ele><time>2026-05-01T13:53:15.186Z</time></trkpt><trkpt lat="45.992115" lon="11.7916167"><ele>282.0</ele><time>2026-05-01T13:53:16.184Z</time></trkpt><trkpt lat="45.9919383" lon="11.79144"><ele>282.0</ele><time>2026-05-01T13:53:17.183Z</time></trkpt><trkpt lat="45.99176" lon="11.7912633"><ele>282.0</ele><time>2026-05-01T13:53:18.186Z</time></trkpt><trkpt lat="45.99158" lon="11.7910917"><ele>283.0</ele><time>2026-05-01T13:53:19.184Z</time></trkpt><trkpt lat="45.991405" lon="11.790915"><ele>284.0</ele><time>2026-05-01T13:53:20.19Z</time></trkpt><trkpt lat="45.99123" lon="11.79073"><ele>285.0</ele><time>2026-05-01T13:53:21.184Z</time></trkpt><trkpt lat="45.99106" lon="11.79055"><ele>285.0</ele><time>2026-05-01T13:53:22.185Z</time></trkpt><trkpt lat="45.9909017" lon="11.790365"><ele>285.0</ele><time>2026-05-01T13:53:23.183Z</time></trkpt><trkpt lat="45.9907583" lon="11.79017"><ele>285.0</ele><time>2026-05-01T13:53:24.186Z</time></trkpt><trkpt lat="45.9906267" lon="11.7899833"><ele>287.0</ele><time>2026-05-01T13:53:25.187Z</time></trkpt><trkpt lat="45.990505" lon="11.789805"><ele>289.0</ele><time>2026-05-01T13:53:26.184Z</time></trkpt><trkpt lat="45.99039" lon="11.7896383"><ele>291.0</ele><time>2026-05-01T13:53:27.183Z</time></trkpt><trkpt lat="45.9902833" lon="11.7894883"><ele>291.0</ele><time>2026-05-01T13:53:28.183Z</time></trkpt><trkpt lat="45.9901817" lon="11.7893517"><ele>291.0</ele><time>2026-05-01T13:53:29.182Z</time></trkpt><trkpt lat="45.9900783" lon="11.7892233"><ele>291.0</ele><time>2026-05-01T13:53:30.184Z</time></trkpt><trkpt lat="45.9899767" lon="11.7890917"><ele>291.0</ele><time>2026-05-01T13:53:31.183Z</time></trkpt><trkpt lat="45.9898767" lon="11.7889517"><ele>290.75</ele><time>2026-05-01T13:53:32.184Z</time></trkpt><trkpt lat="45.9897717" lon="11.78881"><ele>290.5</ele><time>2026-05-01T13:53:33.184Z</time></trkpt><trkpt lat="45.9896567" lon="11.7886767"><ele>290.25</ele><time>2026-05-01T13:53:34.186Z</time></trkpt><trkpt lat="45.9895317" lon="11.788555"><ele>290.0</ele><time>2026-05-01T13:53:35.187Z</time></trkpt><trkpt lat="45.989395" lon="11.78844"><ele>287.6666666666667</ele><time>2026-05-01T13:53:36.189Z</time></trkpt><trkpt lat="45.989245" lon="11.7883317"><ele>285.3333333333333</ele><time>2026-05-01T13:53:37.184Z</time></trkpt><trkpt lat="45.9890867" lon="11.7882283"><ele>283.0</ele><time>2026-05-01T13:53:38.185Z</time></trkpt><trkpt lat="45.9889233" lon="11.7881133"><ele>282.66666666666663</ele><time>2026-05-01T13:53:39.186Z</time></trkpt><trkpt lat="45.9887633" lon="11.788"><ele>282.3333333333333</ele><time>2026-05-01T13:53:40.183Z</time></trkpt><trkpt lat="45.988605" lon="11.7878967"><ele>282.0</ele><time>2026-05-01T13:53:41.182Z</time></trkpt><trkpt lat="45.988445" lon="11.7878017"><ele>282.6666666666667</ele><time>2026-05-01T13:53:42.182Z</time></trkpt><trkpt lat="45.9882833" lon="11.7877067"><ele>283.33333333333337</ele><time>2026-05-01T13:53:43.184Z</time></trkpt><trkpt lat="45.9881283" lon="11.7876083"><ele>284.0</ele><time>2026-05-01T13:53:44.185Z</time></trkpt><trkpt lat="45.987975" lon="11.787505"><ele>282.33333333333337</ele><time>2026-05-01T13:53:45.182Z</time></trkpt><trkpt lat="45.9878233" lon="11.7874"><ele>280.6666666666667</ele><time>2026-05-01T13:53:46.185Z</time></trkpt><trkpt lat="45.9876683" lon="11.7872967"><ele>279.0</ele><time>2026-05-01T13:53:47.184Z</time></trkpt><trkpt lat="45.987515" lon="11.7871933"><ele>278.3333333333333</ele><time>2026-05-01T13:53:48.184Z</time></trkpt><trkpt lat="45.9873583" lon="11.7870917"><ele>277.66666666666663</ele><time>2026-05-01T13:53:49.184Z</time></trkpt><trkpt lat="45.9872" lon="11.7869883"><ele>277.0</ele><time>2026-05-01T13:53:50.182Z</time></trkpt><trkpt lat="45.9870383" lon="11.7868933"><ele>276.3333333333333</ele><time>2026-05-01T13:53:51.186Z</time></trkpt><trkpt lat="45.9868767" lon="11.7867933"><ele>275.6666666666667</ele><time>2026-05-01T13:53:52.185Z</time></trkpt><trkpt lat="45.9867167" lon="11.78669"><ele>275.0</ele><time>2026-05-01T13:53:53.182Z</time></trkpt><trkpt lat="45.986555" lon="11.7865917"><ele>274.33333333333337</ele><time>2026-05-01T13:53:54.184Z</time></trkpt><trkpt lat="45.986395" lon="11.7864933"><ele>273.6666666666667</ele><time>2026-05-01T13:53:55.185Z</time></trkpt><trkpt lat="45.9862317" lon="11.786395"><ele>273.0</ele><time>2026-05-01T13:53:56.185Z</time></trkpt><trkpt lat="45.9860683" lon="11.7863"><ele>273.0</ele><time>2026-05-01T13:53:57.185Z</time></trkpt><trkpt lat="45.9859033" lon="11.7862"><ele>273.0</ele><time>2026-05-01T13:53:58.186Z</time></trkpt><trkpt lat="45.98574" lon="11.78609"><ele>273.0</ele><time>2026-05-01T13:53:59.185Z</time></trkpt><trkpt lat="45.9855667" lon="11.7859817"><ele>272.0</ele><time>2026-05-01T13:54:00.183Z</time></trkpt><trkpt lat="45.9853883" lon="11.78587"><ele>271.0</ele><time>2026-05-01T13:54:01.183Z</time></trkpt><trkpt lat="45.9852083" lon="11.7857567"><ele>270.0</ele><time>2026-05-01T13:54:02.186Z</time></trkpt><trkpt lat="45.9850217" lon="11.7856383"><ele>270.0</ele><time>2026-05-01T13:54:03.184Z</time></trkpt><trkpt lat="45.984835" lon="11.785515"><ele>270.0</ele><time>2026-05-01T13:54:04.183Z</time></trkpt><trkpt lat="45.984645" lon="11.7853833"><ele>270.0</ele><time>2026-05-01T13:54:05.185Z</time></trkpt><trkpt lat="45.9844533" lon="11.785245"><ele>269.6666666666667</ele><time>2026-05-01T13:54:06.185Z</time></trkpt><trkpt lat="45.98426" lon="11.78512"><ele>269.33333333333337</ele><time>2026-05-01T13:54:07.185Z</time></trkpt><trkpt lat="45.98408" lon="11.784975"><ele>269.0</ele><time>2026-05-01T13:54:08.185Z</time></trkpt><trkpt lat="45.98391" lon="11.78481"><ele>269.0</ele><time>2026-05-01T13:54:09.186Z</time></trkpt><trkpt lat="45.9837483" lon="11.7846317"><ele>269.0</ele><time>2026-05-01T13:54:10.187Z</time></trkpt><trkpt lat="45.983595" lon="11.7844433"><ele>269.0</ele><time>2026-05-01T13:54:11.185Z</time></trkpt><trkpt lat="45.9834467" lon="11.7842467"><ele>269.6666666666667</ele><time>2026-05-01T13:54:12.184Z</time></trkpt><trkpt lat="45.983305" lon="11.7840367"><ele>270.3333333333333</ele><time>2026-05-01T13:54:13.185Z</time></trkpt><trkpt lat="45.9831733" lon="11.7838117"><ele>271.0</ele><time>2026-05-01T13:54:14.184Z</time></trkpt><trkpt lat="45.9830533" lon="11.783575"><ele>270.3333333333333</ele><time>2026-05-01T13:54:15.188Z</time></trkpt><trkpt lat="45.98294" lon="11.7833317"><ele>269.6666666666667</ele><time>2026-05-01T13:54:16.186Z</time></trkpt><trkpt lat="45.982835" lon="11.7830817"><ele>269.0</ele><time>2026-05-01T13:54:17.185Z</time></trkpt><trkpt lat="45.9827433" lon="11.7828233"><ele>269.0</ele><time>2026-05-01T13:54:18.185Z</time></trkpt><trkpt lat="45.98266" lon="11.7825617"><ele>269.0</ele><time>2026-05-01T13:54:19.187Z</time></trkpt><trkpt lat="45.9825867" lon="11.7822933"><ele>269.0</ele><time>2026-05-01T13:54:20.186Z</time></trkpt><trkpt lat="45.9825167" lon="11.782025"><ele>274.33333333333337</ele><time>2026-05-01T13:54:21.184Z</time></trkpt><trkpt lat="45.9824467" lon="11.7817617"><ele>279.6666666666667</ele><time>2026-05-01T13:54:22.186Z</time></trkpt><trkpt lat="45.9823833" lon="11.781495"><ele>285.0</ele><time>2026-05-01T13:54:23.185Z</time></trkpt><trkpt lat="45.9823233" lon="11.7812233"><ele>300.6666666666667</ele><time>2026-05-01T13:54:24.186Z</time></trkpt><trkpt lat="45.98226" lon="11.7809483"><ele>316.33333333333337</ele><time>2026-05-01T13:54:25.185Z</time></trkpt><trkpt lat="45.9821983" lon="11.7806683"><ele>332.0</ele><time>2026-05-01T13:54:26.186Z</time></trkpt><trkpt lat="45.9821383" lon="11.7803867"><ele>319.0</ele><time>2026-05-01T13:54:27.185Z</time></trkpt><trkpt lat="45.9820817" lon="11.7801033"><ele>306.0</ele><time>2026-05-01T13:54:28.183Z</time></trkpt><trkpt lat="45.980955" lon="11.7770233"><ele>294.0</ele><time>2026-05-01T13:54:41.189Z</time></trkpt><trkpt lat="45.9808483" lon="11.7767883"><ele>282.0</ele><time>2026-05-01T13:54:42.188Z</time></trkpt><trkpt lat="45.980745" lon="11.7765567"><ele>270.0</ele><time>2026-05-01T13:54:43.19Z</time></trkpt><trkpt lat="45.9806467" lon="11.7763233"><ele>270.0</ele><time>2026-05-01T13:54:44.186Z</time></trkpt><trkpt lat="45.9805483" lon="11.7760883"><ele>270.0</ele><time>2026-05-01T13:54:45.187Z</time></trkpt><trkpt lat="45.9804567" lon="11.77585"><ele>270.0</ele><time>2026-05-01T13:54:46.186Z</time></trkpt><trkpt lat="45.98037" lon="11.7756067"><ele>271.0</ele><time>2026-05-01T13:54:47.185Z</time></trkpt><trkpt lat="45.9802883" lon="11.77536"><ele>272.0</ele><time>2026-05-01T13:54:48.186Z</time></trkpt><trkpt lat="45.98022" lon="11.7751017"><ele>273.0</ele><time>2026-05-01T13:54:49.185Z</time></trkpt><trkpt lat="45.9801683" lon="11.77483"><ele>273.0</ele><time>2026-05-01T13:54:50.184Z</time></trkpt><trkpt lat="45.9801333" lon="11.7745483"><ele>273.0</ele><time>2026-05-01T13:54:51.185Z</time></trkpt><trkpt lat="45.9800983" lon="11.774265"><ele>273.0</ele><time>2026-05-01T13:54:52.185Z</time></trkpt><trkpt lat="45.98007" lon="11.7739783"><ele>273.0</ele><time>2026-05-01T13:54:53.185Z</time></trkpt><trkpt lat="45.98006" lon="11.7736833"><ele>273.0</ele><time>2026-05-01T13:54:54.185Z</time></trkpt><trkpt lat="45.9800667" lon="11.773385"><ele>273.0</ele><time>2026-05-01T13:54:55.184Z</time></trkpt><trkpt lat="45.9800783" lon="11.7730833"><ele>273.6666666666667</ele><time>2026-05-01T13:54:56.186Z</time></trkpt><trkpt lat="45.980095" lon="11.7727783"><ele>274.33333333333337</ele><time>2026-05-01T13:54:57.19Z</time></trkpt><trkpt lat="45.9801233" lon="11.7724733"><ele>275.0</ele><time>2026-05-01T13:54:58.191Z</time></trkpt><trkpt lat="45.980155" lon="11.7721683"><ele>277.6666666666667</ele><time>2026-05-01T13:54:59.185Z</time></trkpt><trkpt lat="45.9801867" lon="11.7718617"><ele>280.3333333333333</ele><time>2026-05-01T13:55:00.186Z</time></trkpt><trkpt lat="45.98022" lon="11.77156"><ele>283.0</ele><time>2026-05-01T13:55:01.184Z</time></trkpt><trkpt lat="45.9802467" lon="11.7712567"><ele>285.3333333333333</ele><time>2026-05-01T13:55:02.187Z</time></trkpt><trkpt lat="45.98026" lon="11.7709567"><ele>287.6666666666667</ele><time>2026-05-01T13:55:03.188Z</time></trkpt><trkpt lat="45.9802567" lon="11.770655"><ele>290.0</ele><time>2026-05-01T13:55:04.19Z</time></trkpt><trkpt lat="45.9802533" lon="11.7703533"><ele>293.0</ele><time>2026-05-01T13:55:05.186Z</time></trkpt><trkpt lat="45.9802383" lon="11.7700533"><ele>296.0</ele><time>2026-05-01T13:55:06.187Z</time></trkpt><trkpt lat="45.9802317" lon="11.7697533"><ele>299.0</ele><time>2026-05-01T13:55:07.186Z</time></trkpt><trkpt lat="45.9802267" lon="11.769455"><ele>301.0</ele><time>2026-05-01T13:55:08.185Z</time></trkpt><trkpt lat="45.9802283" lon="11.7691567"><ele>303.0</ele><time>2026-05-01T13:55:09.185Z</time></trkpt><trkpt lat="45.9802333" lon="11.7688617"><ele>305.0</ele><time>2026-05-01T13:55:10.186Z</time></trkpt><trkpt lat="45.9802367" lon="11.7685667"><ele>306.6666666666667</ele><time>2026-05-01T13:55:11.186Z</time></trkpt><trkpt lat="45.9802267" lon="11.7682733"><ele>308.3333333333333</ele><time>2026-05-01T13:55:12.187Z</time></trkpt><trkpt lat="45.9802167" lon="11.76798"><ele>310.0</ele><time>2026-05-01T13:55:13.186Z</time></trkpt><trkpt lat="45.9802083" lon="11.7676833"><ele>310.66666666666663</ele><time>2026-05-01T13:55:14.185Z</time></trkpt><trkpt lat="45.9801967" lon="11.7673883"><ele>311.3333333333333</ele><time>2026-05-01T13:55:15.185Z</time></trkpt><trkpt lat="45.9801833" lon="11.7670967"><ele>312.0</ele><time>2026-05-01T13:55:16.186Z</time></trkpt><trkpt lat="45.9801683" lon="11.7668067"><ele>312.3333333333333</ele><time>2026-05-01T13:55:17.185Z</time></trkpt><trkpt lat="45.98015" lon="11.7665133"><ele>312.66666666666663</ele><time>2026-05-01T13:55:18.183Z</time></trkpt><trkpt lat="45.9801317" lon="11.7662183"><ele>313.0</ele><time>2026-05-01T13:55:19.189Z</time></trkpt><trkpt lat="45.9801133" lon="11.7659267"><ele>314.0</ele><time>2026-05-01T13:55:20.186Z</time></trkpt><trkpt lat="45.9800817" lon="11.76565"><ele>315.0</ele><time>2026-05-01T13:55:21.185Z</time></trkpt><trkpt lat="45.980055" lon="11.7653683"><ele>316.0</ele><time>2026-05-01T13:55:22.186Z</time></trkpt><trkpt lat="45.9800083" lon="11.7644367"><ele>315.66666666666663</ele><time>2026-05-01T13:55:25.189Z</time></trkpt><trkpt lat="45.9800233" lon="11.76413"><ele>315.3333333333333</ele><time>2026-05-01T13:55:26.187Z</time></trkpt><trkpt lat="45.9800217" lon="11.763855"><ele>315.0</ele><time>2026-05-01T13:55:27.188Z</time></trkpt><trkpt lat="45.9800017" lon="11.7635833"><ele>312.3333333333333</ele><time>2026-05-01T13:55:28.186Z</time></trkpt><trkpt lat="45.979965" lon="11.763315"><ele>309.66666666666663</ele><time>2026-05-01T13:55:29.185Z</time></trkpt><trkpt lat="45.9799167" lon="11.7630533"><ele>307.0</ele><time>2026-05-01T13:55:30.191Z</time></trkpt><trkpt lat="45.9798617" lon="11.7627917"><ele>306.0</ele><time>2026-05-01T13:55:31.187Z</time></trkpt><trkpt lat="45.9797917" lon="11.762535"><ele>305.0</ele><time>2026-05-01T13:55:32.189Z</time></trkpt><trkpt lat="45.9797167" lon="11.76228"><ele>304.0</ele><time>2026-05-01T13:55:33.188Z</time></trkpt><trkpt lat="45.9796333" lon="11.7620317"><ele>303.3333333333333</ele><time>2026-05-01T13:55:34.191Z</time></trkpt><trkpt lat="45.9795433" lon="11.7617867"><ele>302.6666666666667</ele><time>2026-05-01T13:55:35.187Z</time></trkpt><trkpt lat="45.9794467" lon="11.7615533"><ele>302.0</ele><time>2026-05-01T13:55:36.187Z</time></trkpt><trkpt lat="45.9793383" lon="11.7613517"><ele>302.0</ele><time>2026-05-01T13:55:37.186Z</time></trkpt><trkpt lat="45.97923" lon="11.7611617"><ele>302.0</ele><time>2026-05-01T13:55:38.184Z</time></trkpt><trkpt lat="45.9791217" lon="11.7609767"><ele>302.0</ele><time>2026-05-01T13:55:39.186Z</time></trkpt><trkpt lat="45.9790033" lon="11.7608017"><ele>301.33333333333337</ele><time>2026-05-01T13:55:40.187Z</time></trkpt><trkpt lat="45.97889" lon="11.7606367"><ele>300.6666666666667</ele><time>2026-05-01T13:55:41.187Z</time></trkpt><trkpt lat="45.9787767" lon="11.760495"><ele>300.0</ele><time>2026-05-01T13:55:42.184Z</time></trkpt><trkpt lat="45.97867" lon="11.760365"><ele>300.0</ele><time>2026-05-01T13:55:43.186Z</time></trkpt><trkpt lat="45.978575" lon="11.7602367"><ele>300.0</ele><time>2026-05-01T13:55:44.183Z</time></trkpt><trkpt lat="45.97849" lon="11.7601083"><ele>300.0</ele><time>2026-05-01T13:55:45.184Z</time></trkpt><trkpt lat="45.978415" lon="11.7599733"><ele>300.0</ele><time>2026-05-01T13:55:46.186Z</time></trkpt><trkpt lat="45.978345" lon="11.75984"><ele>299.2</ele><time>2026-05-01T13:55:47.187Z</time></trkpt><trkpt lat="45.978275" lon="11.7597067"><ele>298.4</ele><time>2026-05-01T13:55:48.185Z</time></trkpt><trkpt lat="45.9782067" lon="11.759575"><ele>297.6</ele><time>2026-05-01T13:55:49.186Z</time></trkpt><trkpt lat="45.9781383" lon="11.75945"><ele>296.8</ele><time>2026-05-01T13:55:50.185Z</time></trkpt><trkpt lat="45.9780683" lon="11.7593317"><ele>296.0</ele><time>2026-05-01T13:55:51.184Z</time></trkpt><trkpt lat="45.9780033" lon="11.7592283"><ele>295.33333333333337</ele><time>2026-05-01T13:55:52.184Z</time></trkpt><trkpt lat="45.9779417" lon="11.75914"><ele>294.6666666666667</ele><time>2026-05-01T13:55:53.188Z</time></trkpt><trkpt lat="45.9778833" lon="11.7590617"><ele>294.0</ele><time>2026-05-01T13:55:54.186Z</time></trkpt><trkpt lat="45.9778333" lon="11.7589967"><ele>293.3333333333333</ele><time>2026-05-01T13:55:55.189Z</time></trkpt><trkpt lat="45.9777883" lon="11.7588367"><ele>292.66666666666663</ele><time>2026-05-01T13:55:57.186Z</time></trkpt><trkpt lat="45.9778" lon="11.7587383"><ele>292.0</ele><time>2026-05-01T13:55:58.185Z</time></trkpt><trkpt lat="45.977835" lon="11.75863"><ele>292.0</ele><time>2026-05-01T13:55:59.184Z</time></trkpt><trkpt lat="45.9778933" lon="11.7585367"><ele>292.0</ele><time>2026-05-01T13:56:00.185Z</time></trkpt><trkpt lat="45.9779567" lon="11.758455"><ele>292.0</ele><time>2026-05-01T13:56:01.183Z</time></trkpt><trkpt lat="45.9780217" lon="11.7583917"><ele>292.0</ele><time>2026-05-01T13:56:02.185Z</time></trkpt><trkpt lat="45.9780867" lon="11.7583533"><ele>292.0</ele><time>2026-05-01T13:56:03.186Z</time></trkpt><trkpt lat="45.9782" lon="11.7583167"><ele>292.0</ele><time>2026-05-01T13:56:05.183Z</time></trkpt><trkpt lat="45.9782633" lon="11.7581833"><ele>292.0</ele><time>2026-05-01T13:56:07.186Z</time></trkpt><trkpt lat="45.9782783" lon="11.75808"><ele>292.0</ele><time>2026-05-01T13:56:08.184Z</time></trkpt><trkpt lat="45.97828" lon="11.7579767"><ele>292.0</ele><time>2026-05-01T13:56:09.185Z</time></trkpt><trkpt lat="45.9782883" lon="11.7578733"><ele>292.0</ele><time>2026-05-01T13:56:10.183Z</time></trkpt><trkpt lat="45.97832" lon="11.75777"><ele>292.0</ele><time>2026-05-01T13:56:11.187Z</time></trkpt><trkpt lat="45.9783733" lon="11.7576767"><ele>292.0</ele><time>2026-05-01T13:56:12.185Z</time></trkpt><trkpt lat="45.9784267" lon="11.7575917"><ele>292.0</ele><time>2026-05-01T13:56:13.184Z</time></trkpt><trkpt lat="45.9784833" lon="11.757505"><ele>292.0</ele><time>2026-05-01T13:56:14.19Z</time></trkpt><trkpt lat="45.9785383" lon="11.75741"><ele>292.0</ele><time>2026-05-01T13:56:15.187Z</time></trkpt><trkpt lat="45.9785933" lon="11.7573183"><ele>292.0</ele><time>2026-05-01T13:56:16.185Z</time></trkpt><trkpt lat="45.978655" lon="11.7572317"><ele>292.0</ele><time>2026-05-01T13:56:17.186Z</time></trkpt><trkpt lat="45.97872" lon="11.7571483"><ele>292.0</ele><time>2026-05-01T13:56:18.184Z</time></trkpt><trkpt lat="45.97879" lon="11.75707"><ele>292.0</ele><time>2026-05-01T13:56:19.187Z</time></trkpt><trkpt lat="45.97886" lon="11.7569933"><ele>292.0</ele><time>2026-05-01T13:56:20.184Z</time></trkpt><trkpt lat="45.97893" lon="11.7569167"><ele>292.0</ele><time>2026-05-01T13:56:21.187Z</time></trkpt><trkpt lat="45.9789933" lon="11.7568333"><ele>292.0</ele><time>2026-05-01T13:56:22.186Z</time></trkpt><trkpt lat="45.9790583" lon="11.756755"><ele>292.0</ele><time>2026-05-01T13:56:23.184Z</time></trkpt><trkpt lat="45.979125" lon="11.7566783"><ele>292.0</ele><time>2026-05-01T13:56:24.183Z</time></trkpt><trkpt lat="45.9791933" lon="11.7566033"><ele>293.0</ele><time>2026-05-01T13:56:25.183Z</time></trkpt><trkpt lat="45.979265" lon="11.7565283"><ele>294.0</ele><time>2026-05-01T13:56:26.183Z</time></trkpt><trkpt lat="45.979335" lon="11.7564467"><ele>295.0</ele><time>2026-05-01T13:56:27.188Z</time></trkpt><trkpt lat="45.9794067" lon="11.7563683"><ele>296.0</ele><time>2026-05-01T13:56:28.186Z</time></trkpt><trkpt lat="45.9794817" lon="11.75628"><ele>297.0</ele><time>2026-05-01T13:56:29.185Z</time></trkpt><trkpt lat="45.9795567" lon="11.75618"><ele>297.0</ele><time>2026-05-01T13:56:30.184Z</time></trkpt><trkpt lat="45.979635" lon="11.756075"><ele>297.0</ele><time>2026-05-01T13:56:31.185Z</time></trkpt><trkpt lat="45.9797183" lon="11.75597"><ele>297.0</ele><time>2026-05-01T13:56:32.188Z</time></trkpt><trkpt lat="45.9798083" lon="11.75585"><ele>297.0</ele><time>2026-05-01T13:56:33.191Z</time></trkpt><trkpt lat="45.97991" lon="11.7556983"><ele>298.3333333333333</ele><time>2026-05-01T13:56:34.189Z</time></trkpt><trkpt lat="45.9800233" lon="11.7555283"><ele>299.66666666666663</ele><time>2026-05-01T13:56:35.187Z</time></trkpt><trkpt lat="45.9801467" lon="11.7553467"><ele>301.0</ele><time>2026-05-01T13:56:36.184Z</time></trkpt><trkpt lat="45.9802683" lon="11.7551683"><ele>301.0</ele><time>2026-05-01T13:56:37.184Z</time></trkpt><trkpt lat="45.98038" lon="11.755005"><ele>301.0</ele><time>2026-05-01T13:56:38.183Z</time></trkpt><trkpt lat="45.9804917" lon="11.7548567"><ele>301.0</ele><time>2026-05-01T13:56:39.185Z</time></trkpt><trkpt lat="45.980615" lon="11.7547133"><ele>301.0</ele><time>2026-05-01T13:56:40.186Z</time></trkpt><trkpt lat="45.9807583" lon="11.75459"><ele>301.0</ele><time>2026-05-01T13:56:41.185Z</time></trkpt><trkpt lat="45.9809017" lon="11.7544833"><ele>301.0</ele><time>2026-05-01T13:56:42.187Z</time></trkpt><trkpt lat="45.9810267" lon="11.7543817"><ele>303.0</ele><time>2026-05-01T13:56:43.186Z</time></trkpt><trkpt lat="45.9811483" lon="11.7542967"><ele>305.0</ele><time>2026-05-01T13:56:44.183Z</time></trkpt><trkpt lat="45.9812717" lon="11.7542433"><ele>307.0</ele><time>2026-05-01T13:56:45.186Z</time></trkpt><trkpt lat="45.9814033" lon="11.7542333"><ele>309.0</ele><time>2026-05-01T13:56:46.187Z</time></trkpt><trkpt lat="45.9815267" lon="11.7542317"><ele>309.0</ele><time>2026-05-01T13:56:47.184Z</time></trkpt><trkpt lat="45.9816267" lon="11.754215"><ele>309.0</ele><time>2026-05-01T13:56:48.187Z</time></trkpt><trkpt lat="45.9817133" lon="11.7541967"><ele>309.0</ele><time>2026-05-01T13:56:49.186Z</time></trkpt><trkpt lat="45.981795" lon="11.75419"><ele>309.0</ele><time>2026-05-01T13:56:50.186Z</time></trkpt><trkpt lat="45.9818667" lon="11.7541617"><ele>309.0</ele><time>2026-05-01T13:56:51.183Z</time></trkpt><trkpt lat="45.981965" lon="11.7540733"><ele>312.0</ele><time>2026-05-01T13:56:53.184Z</time></trkpt><trkpt lat="45.9819817" lon="11.75398"><ele>315.0</ele><time>2026-05-01T13:56:54.186Z</time></trkpt><trkpt lat="45.981975" lon="11.75385"><ele>318.0</ele><time>2026-05-01T13:56:55.185Z</time></trkpt><trkpt lat="45.98196" lon="11.7537083"><ele>321.0</ele><time>2026-05-01T13:56:56.187Z</time></trkpt><trkpt lat="45.98191" lon="11.7535483"><ele>324.0</ele><time>2026-05-01T13:56:57.185Z</time></trkpt><trkpt lat="45.9818683" lon="11.7534033"><ele>325.0</ele><time>2026-05-01T13:56:58.184Z</time></trkpt><trkpt lat="45.981835" lon="11.7532667"><ele>326.0</ele><time>2026-05-01T13:56:59.185Z</time></trkpt><trkpt lat="45.9817983" lon="11.7531217"><ele>327.0</ele><time>2026-05-01T13:57:00.184Z</time></trkpt><trkpt lat="45.98175" lon="11.7529867"><ele>328.0</ele><time>2026-05-01T13:57:01.188Z</time></trkpt><trkpt lat="45.9816883" lon="11.7528567"><ele>329.0</ele><time>2026-05-01T13:57:02.185Z</time></trkpt><trkpt lat="45.981625" lon="11.7527283"><ele>326.83333333333337</ele><time>2026-05-01T13:57:03.187Z</time></trkpt><trkpt lat="45.9815733" lon="11.7526117"><ele>324.6666666666667</ele><time>2026-05-01T13:57:04.187Z</time></trkpt><trkpt lat="45.9815267" lon="11.7525117"><ele>322.5</ele><time>2026-05-01T13:57:05.189Z</time></trkpt><trkpt lat="45.9814817" lon="11.7524217"><ele>320.3333333333333</ele><time>2026-05-01T13:57:06.185Z</time></trkpt><trkpt lat="45.9814417" lon="11.7523383"><ele>318.16666666666663</ele><time>2026-05-01T13:57:07.184Z</time></trkpt><trkpt lat="45.981415" lon="11.752255"><ele>316.0</ele><time>2026-05-01T13:57:08.188Z</time></trkpt><trkpt lat="45.9813767" lon="11.7521483"><ele>316.0</ele><time>2026-05-01T13:57:10.19Z</time></trkpt><trkpt lat="45.9813267" lon="11.752055"><ele>316.0</ele><time>2026-05-01T13:57:13.185Z</time></trkpt><trkpt lat="45.9814033" lon="11.7520083"><ele>316.0</ele><time>2026-05-01T13:57:30.185Z</time></trkpt><trkpt lat="45.9814933" lon="11.7521617"><ele>316.0</ele><time>2026-05-01T13:57:32.19Z</time></trkpt><trkpt lat="45.9815533" lon="11.7522467"><ele>316.0</ele><time>2026-05-01T13:57:33.185Z</time></trkpt><trkpt lat="45.9816183" lon="11.7523367"><ele>318.6</ele><time>2026-05-01T13:57:34.185Z</time></trkpt><trkpt lat="45.9816833" lon="11.7524317"><ele>321.20000000000005</ele><time>2026-05-01T13:57:35.185Z</time></trkpt><trkpt lat="45.98174" lon="11.7525383"><ele>323.79999999999995</ele><time>2026-05-01T13:57:36.183Z</time></trkpt><trkpt lat="45.9817983" lon="11.75265"><ele>326.4</ele><time>2026-05-01T13:57:37.186Z</time></trkpt><trkpt lat="45.98185" lon="11.7527667"><ele>329.0</ele><time>2026-05-01T13:57:38.187Z</time></trkpt><trkpt lat="45.9818933" lon="11.7528917"><ele>329.0</ele><time>2026-05-01T13:57:39.184Z</time></trkpt><trkpt lat="45.9819317" lon="11.7530133"><ele>329.0</ele><time>2026-05-01T13:57:40.189Z</time></trkpt><trkpt lat="45.9819683" lon="11.753135"><ele>329.0</ele><time>2026-05-01T13:57:41.188Z</time></trkpt><trkpt lat="45.9820017" lon="11.7532683"><ele>329.0</ele><time>2026-05-01T13:57:42.185Z</time></trkpt><trkpt lat="45.982045" lon="11.753415"><ele>329.0</ele><time>2026-05-01T13:57:43.183Z</time></trkpt><trkpt lat="45.9820867" lon="11.75357"><ele>327.75</ele><time>2026-05-01T13:57:44.188Z</time></trkpt><trkpt lat="45.9821367" lon="11.7537267"><ele>326.5</ele><time>2026-05-01T13:57:45.184Z</time></trkpt><trkpt lat="45.9822" lon="11.753885"><ele>325.25</ele><time>2026-05-01T13:57:46.185Z</time></trkpt><trkpt lat="45.9822783" lon="11.7540383"><ele>324.0</ele><time>2026-05-01T13:57:47.186Z</time></trkpt><trkpt lat="45.9823567" lon="11.754195"><ele>324.0</ele><time>2026-05-01T13:57:48.186Z</time></trkpt><trkpt lat="45.9824317" lon="11.754355"><ele>324.0</ele><time>2026-05-01T13:57:49.185Z</time></trkpt><trkpt lat="45.982495" lon="11.7545083"><ele>324.0</ele><time>2026-05-01T13:57:50.185Z</time></trkpt><trkpt lat="45.9825483" lon="11.7546683"><ele>324.0</ele><time>2026-05-01T13:57:51.187Z</time></trkpt><trkpt lat="45.9825967" lon="11.75483"><ele>323.4</ele><time>2026-05-01T13:57:52.192Z</time></trkpt><trkpt lat="45.9826367" lon="11.754985"><ele>322.79999999999995</ele><time>2026-05-01T13:57:53.185Z</time></trkpt><trkpt lat="45.982685" lon="11.755125"><ele>322.20000000000005</ele><time>2026-05-01T13:57:54.187Z</time></trkpt><trkpt lat="45.98274" lon="11.7552633"><ele>321.6</ele><time>2026-05-01T13:57:55.186Z</time></trkpt><trkpt lat="45.9828067" lon="11.7553983"><ele>321.0</ele><time>2026-05-01T13:57:56.191Z</time></trkpt><trkpt lat="45.98289" lon="11.7555233"><ele>321.0</ele><time>2026-05-01T13:57:57.184Z</time></trkpt><trkpt lat="45.9829883" lon="11.7556533"><ele>321.0</ele><time>2026-05-01T13:57:58.184Z</time></trkpt><trkpt lat="45.9830817" lon="11.7557933"><ele>321.0</ele><time>2026-05-01T13:57:59.186Z</time></trkpt><trkpt lat="45.98316" lon="11.75594"><ele>321.0</ele><time>2026-05-01T13:58:00.187Z</time></trkpt><trkpt lat="45.9832133" lon="11.75609"><ele>320.40000000000003</ele><time>2026-05-01T13:58:01.185Z</time></trkpt><trkpt lat="45.9832517" lon="11.75624"><ele>319.8</ele><time>2026-05-01T13:58:02.186Z</time></trkpt><trkpt lat="45.98328" lon="11.756385"><ele>319.20000000000005</ele><time>2026-05-01T13:58:03.186Z</time></trkpt><trkpt lat="45.9833017" lon="11.7565217"><ele>318.6</ele><time>2026-05-01T13:58:04.186Z</time></trkpt><trkpt lat="45.98332" lon="11.756645"><ele>318.0</ele><time>2026-05-01T13:58:05.185Z</time></trkpt><trkpt lat="45.98334" lon="11.7567583"><ele>318.1666666666667</ele><time>2026-05-01T13:58:06.186Z</time></trkpt><trkpt lat="45.9833583" lon="11.7568583"><ele>318.3333333333333</ele><time>2026-05-01T13:58:07.186Z</time></trkpt><trkpt lat="45.9834017" lon="11.7569883"><ele>318.5</ele><time>2026-05-01T13:58:09.187Z</time></trkpt><trkpt lat="45.983465" lon="11.756975"><ele>318.66666666666663</ele><time>2026-05-01T13:58:11.185Z</time></trkpt><trkpt lat="45.9834833" lon="11.7568783"><ele>318.8333333333333</ele><time>2026-05-01T13:58:14.184Z</time></trkpt><trkpt lat="45.983445" lon="11.7567983"><ele>319.0</ele><time>2026-05-01T13:58:27.187Z</time></trkpt><trkpt lat="45.98336" lon="11.7567233"><ele>318.8</ele><time>2026-05-01T13:58:43.185Z</time></trkpt><trkpt lat="45.9833133" lon="11.7565283"><ele>318.59999999999997</ele><time>2026-05-01T13:58:45.185Z</time></trkpt><trkpt lat="45.98329" lon="11.7564017"><ele>318.4</ele><time>2026-05-01T13:58:46.184Z</time></trkpt><trkpt lat="45.9832667" lon="11.75627"><ele>318.2</ele><time>2026-05-01T13:58:47.183Z</time></trkpt><trkpt lat="45.9832317" lon="11.7561283"><ele>318.0</ele><time>2026-05-01T13:58:48.19Z</time></trkpt><trkpt lat="45.9831767" lon="11.7559833"><ele>318.75</ele><time>2026-05-01T13:58:49.189Z</time></trkpt><trkpt lat="45.983105" lon="11.755835"><ele>319.5</ele><time>2026-05-01T13:58:50.19Z</time></trkpt><trkpt lat="45.9830167" lon="11.7556967"><ele>320.25</ele><time>2026-05-01T13:58:51.185Z</time></trkpt><trkpt lat="45.9829217" lon="11.7555633"><ele>321.0</ele><time>2026-05-01T13:58:52.186Z</time></trkpt><trkpt lat="45.982835" lon="11.75543"><ele>321.0</ele><time>2026-05-01T13:58:53.184Z</time></trkpt><trkpt lat="45.9827633" lon="11.7552833"><ele>321.0</ele><time>2026-05-01T13:58:54.185Z</time></trkpt><trkpt lat="45.9827017" lon="11.75512"><ele>321.0</ele><time>2026-05-01T13:58:55.187Z</time></trkpt><trkpt lat="45.9826467" lon="11.7549317"><ele>321.0</ele><time>2026-05-01T13:58:56.186Z</time></trkpt><trkpt lat="45.9825917" lon="11.7547333"><ele>322.0</ele><time>2026-05-01T13:58:57.183Z</time></trkpt><trkpt lat="45.9825283" lon="11.7545383"><ele>323.0</ele><time>2026-05-01T13:58:58.186Z</time></trkpt><trkpt lat="45.9824583" lon="11.7543467"><ele>324.0</ele><time>2026-05-01T13:58:59.184Z</time></trkpt><trkpt lat="45.9823667" lon="11.75417"><ele>324.0</ele><time>2026-05-01T13:59:00.183Z</time></trkpt><trkpt lat="45.9822767" lon="11.7539983"><ele>324.0</ele><time>2026-05-01T13:59:01.186Z</time></trkpt><trkpt lat="45.9821933" lon="11.7538433"><ele>324.0</ele><time>2026-05-01T13:59:02.186Z</time></trkpt><trkpt lat="45.98213" lon="11.7536833"><ele>324.0</ele><time>2026-05-01T13:59:03.185Z</time></trkpt><trkpt lat="45.9820867" lon="11.7535033"><ele>325.25</ele><time>2026-05-01T13:59:04.187Z</time></trkpt><trkpt lat="45.982045" lon="11.7533133"><ele>326.5</ele><time>2026-05-01T13:59:05.185Z</time></trkpt><trkpt lat="45.9819967" lon="11.75312"><ele>327.75</ele><time>2026-05-01T13:59:06.187Z</time></trkpt><trkpt lat="45.9819383" lon="11.7529217"><ele>329.0</ele><time>2026-05-01T13:59:07.187Z</time></trkpt><trkpt lat="45.9818767" lon="11.7527183"><ele>331.0</ele><time>2026-05-01T13:59:08.183Z</time></trkpt><trkpt lat="45.9817967" lon="11.7525267"><ele>333.0</ele><time>2026-05-01T13:59:09.185Z</time></trkpt><trkpt lat="45.9816967" lon="11.7523467"><ele>335.0</ele><time>2026-05-01T13:59:10.184Z</time></trkpt><trkpt lat="45.9815933" lon="11.7521733"><ele>332.5</ele><time>2026-05-01T13:59:11.183Z</time></trkpt><trkpt lat="45.9814867" lon="11.7520183"><ele>330.0</ele><time>2026-05-01T13:59:12.184Z</time></trkpt><trkpt lat="45.9813833" lon="11.7518783"><ele>327.5</ele><time>2026-05-01T13:59:13.184Z</time></trkpt><trkpt lat="45.9812917" lon="11.7517467"><ele>325.0</ele><time>2026-05-01T13:59:14.186Z</time></trkpt><trkpt lat="45.98122" lon="11.751615"><ele>325.0</ele><time>2026-05-01T13:59:15.184Z</time></trkpt><trkpt lat="45.9811533" lon="11.751485"><ele>325.0</ele><time>2026-05-01T13:59:16.188Z</time></trkpt><trkpt lat="45.9810917" lon="11.7513317"><ele>325.0</ele><time>2026-05-01T13:59:17.184Z</time></trkpt><trkpt lat="45.9810417" lon="11.7511583"><ele>325.0</ele><time>2026-05-01T13:59:18.184Z</time></trkpt><trkpt lat="45.980995" lon="11.75097"><ele>323.5</ele><time>2026-05-01T13:59:19.188Z</time></trkpt><trkpt lat="45.9809467" lon="11.750775"><ele>322.0</ele><time>2026-05-01T13:59:20.184Z</time></trkpt><trkpt lat="45.9808933" lon="11.7505883"><ele>320.5</ele><time>2026-05-01T13:59:21.191Z</time></trkpt><trkpt lat="45.9808567" lon="11.750405"><ele>319.0</ele><time>2026-05-01T13:59:22.186Z</time></trkpt><trkpt lat="45.980835" lon="11.750215"><ele>320.25</ele><time>2026-05-01T13:59:23.185Z</time></trkpt><trkpt lat="45.9808233" lon="11.75001"><ele>321.5</ele><time>2026-05-01T13:59:24.185Z</time></trkpt><trkpt lat="45.9808133" lon="11.7497967"><ele>322.75</ele><time>2026-05-01T13:59:25.185Z</time></trkpt><trkpt lat="45.980805" lon="11.749595"><ele>324.0</ele><time>2026-05-01T13:59:26.187Z</time></trkpt><trkpt lat="45.9808" lon="11.74941"><ele>324.75</ele><time>2026-05-01T13:59:27.186Z</time></trkpt><trkpt lat="45.98081" lon="11.749245"><ele>325.5</ele><time>2026-05-01T13:59:28.184Z</time></trkpt><trkpt lat="45.9808483" lon="11.7490983"><ele>326.25</ele><time>2026-05-01T13:59:29.185Z</time></trkpt><trkpt lat="45.9809083" lon="11.7489667"><ele>327.0</ele><time>2026-05-01T13:59:30.187Z</time></trkpt><trkpt lat="45.9809917" lon="11.7488483"><ele>328.5</ele><time>2026-05-01T13:59:31.184Z</time></trkpt><trkpt lat="45.981105" lon="11.7487533"><ele>330.0</ele><time>2026-05-01T13:59:32.188Z</time></trkpt><trkpt lat="45.9812383" lon="11.748685"><ele>331.5</ele><time>2026-05-01T13:59:33.184Z</time></trkpt><trkpt lat="45.9813833" lon="11.7486317"><ele>333.0</ele><time>2026-05-01T13:59:34.183Z</time></trkpt><trkpt lat="45.9815367" lon="11.74857"><ele>332.6666666666667</ele><time>2026-05-01T13:59:35.184Z</time></trkpt><trkpt lat="45.9816833" lon="11.7484817"><ele>332.33333333333337</ele><time>2026-05-01T13:59:36.184Z</time></trkpt><trkpt lat="45.9818233" lon="11.748395"><ele>332.0</ele><time>2026-05-01T13:59:37.185Z</time></trkpt><trkpt lat="45.9819633" lon="11.7482933"><ele>332.0</ele><time>2026-05-01T13:59:38.183Z</time></trkpt><trkpt lat="45.98211" lon="11.7481733"><ele>332.0</ele><time>2026-05-01T13:59:39.185Z</time></trkpt><trkpt lat="45.9822517" lon="11.7480517"><ele>332.0</ele><time>2026-05-01T13:59:40.185Z</time></trkpt><trkpt lat="45.98238" lon="11.7479"><ele>331.0</ele><time>2026-05-01T13:59:41.184Z</time></trkpt><trkpt lat="45.9824817" lon="11.7477067"><ele>330.0</ele><time>2026-05-01T13:59:42.188Z</time></trkpt><trkpt lat="45.9825617" lon="11.7475"><ele>329.0</ele><time>2026-05-01T13:59:43.185Z</time></trkpt><trkpt lat="45.98263" lon="11.74729"><ele>328.0</ele><time>2026-05-01T13:59:44.184Z</time></trkpt><trkpt lat="45.98268" lon="11.7470567"><ele>327.0</ele><time>2026-05-01T13:59:45.189Z</time></trkpt><trkpt lat="45.982725" lon="11.7468183"><ele>326.0</ele><time>2026-05-01T13:59:46.183Z</time></trkpt><trkpt lat="45.9827617" lon="11.7465733"><ele>326.0</ele><time>2026-05-01T13:59:47.186Z</time></trkpt><trkpt lat="45.9828083" lon="11.746345"><ele>326.0</ele><time>2026-05-01T13:59:48.19Z</time></trkpt><trkpt lat="45.98286" lon="11.7461267"><ele>326.0</ele><time>2026-05-01T13:59:49.187Z</time></trkpt><trkpt lat="45.98292" lon="11.7459117"><ele>326.6666666666667</ele><time>2026-05-01T13:59:50.186Z</time></trkpt><trkpt lat="45.982995" lon="11.7457033"><ele>327.3333333333333</ele><time>2026-05-01T13:59:51.186Z</time></trkpt><trkpt lat="45.983095" lon="11.7455067"><ele>328.0</ele><time>2026-05-01T13:59:52.185Z</time></trkpt><trkpt lat="45.9832133" lon="11.74532"><ele>327.66666666666663</ele><time>2026-05-01T13:59:53.184Z</time></trkpt><trkpt lat="45.9833333" lon="11.74513"><ele>327.3333333333333</ele><time>2026-05-01T13:59:54.185Z</time></trkpt><trkpt lat="45.9834533" lon="11.74494"><ele>327.0</ele><time>2026-05-01T13:59:55.186Z</time></trkpt><trkpt lat="45.9835717" lon="11.74474"><ele>327.0</ele><time>2026-05-01T13:59:56.187Z</time></trkpt><trkpt lat="45.98369" lon="11.744535"><ele>327.0</ele><time>2026-05-01T13:59:57.185Z</time></trkpt><trkpt lat="45.98381" lon="11.7443317"><ele>327.0</ele><time>2026-05-01T13:59:58.186Z</time></trkpt><trkpt lat="45.9839283" lon="11.7441167"><ele>328.6666666666667</ele><time>2026-05-01T13:59:59.185Z</time></trkpt><trkpt lat="45.9840367" lon="11.7438983"><ele>330.33333333333337</ele><time>2026-05-01T14:00:00.183Z</time></trkpt><trkpt lat="45.9841233" lon="11.74368"><ele>332.0</ele><time>2026-05-01T14:00:01.183Z</time></trkpt><trkpt lat="45.9842" lon="11.743475"><ele>333.33333333333337</ele><time>2026-05-01T14:00:02.185Z</time></trkpt><trkpt lat="45.9842917" lon="11.7432867"><ele>334.6666666666667</ele><time>2026-05-01T14:00:03.185Z</time></trkpt><trkpt lat="45.9844017" lon="11.74311"><ele>336.0</ele><time>2026-05-01T14:00:04.185Z</time></trkpt><trkpt lat="45.98452" lon="11.7429383"><ele>336.0</ele><time>2026-05-01T14:00:05.187Z</time></trkpt><trkpt lat="45.9846533" lon="11.74278"><ele>336.0</ele><time>2026-05-01T14:00:06.185Z</time></trkpt><trkpt lat="45.9847967" lon="11.74264"><ele>336.0</ele><time>2026-05-01T14:00:07.188Z</time></trkpt><trkpt lat="45.9849483" lon="11.7425167"><ele>339.0</ele><time>2026-05-01T14:00:08.185Z</time></trkpt><trkpt lat="45.9851067" lon="11.74241"><ele>342.0</ele><time>2026-05-01T14:00:09.184Z</time></trkpt><trkpt lat="45.9852767" lon="11.7423233"><ele>345.0</ele><time>2026-05-01T14:00:10.187Z</time></trkpt><trkpt lat="45.9854517" lon="11.7422517"><ele>345.0</ele><time>2026-05-01T14:00:11.188Z</time></trkpt><trkpt lat="45.9856117" lon="11.7421717"><ele>345.0</ele><time>2026-05-01T14:00:12.187Z</time></trkpt><trkpt lat="45.9857583" lon="11.7420933"><ele>345.0</ele><time>2026-05-01T14:00:13.184Z</time></trkpt><trkpt lat="45.9858967" lon="11.7420183"><ele>345.0</ele><time>2026-05-01T14:00:14.186Z</time></trkpt><trkpt lat="45.986035" lon="11.7419233"><ele>345.0</ele><time>2026-05-01T14:00:15.187Z</time></trkpt><trkpt lat="45.9861667" lon="11.7418017"><ele>345.0</ele><time>2026-05-01T14:00:16.187Z</time></trkpt><trkpt lat="45.9862983" lon="11.7416533"><ele>344.3333333333333</ele><time>2026-05-01T14:00:17.184Z</time></trkpt><trkpt lat="45.9864217" lon="11.7414883"><ele>343.66666666666663</ele><time>2026-05-01T14:00:18.185Z</time></trkpt><trkpt lat="45.9865367" lon="11.7413083"><ele>343.0</ele><time>2026-05-01T14:00:19.186Z</time></trkpt><trkpt lat="45.9866433" lon="11.7411133"><ele>342.66666666666663</ele><time>2026-05-01T14:00:20.189Z</time></trkpt><trkpt lat="45.9867383" lon="11.7409017"><ele>342.3333333333333</ele><time>2026-05-01T14:00:21.188Z</time></trkpt><trkpt lat="45.9868117" lon="11.7406867"><ele>342.0</ele><time>2026-05-01T14:00:22.185Z</time></trkpt><trkpt lat="45.986875" lon="11.7404733"><ele>342.0</ele><time>2026-05-01T14:00:23.185Z</time></trkpt><trkpt lat="45.9869283" lon="11.7402517"><ele>342.0</ele><time>2026-05-01T14:00:24.186Z</time></trkpt><trkpt lat="45.9869683" lon="11.7400217"><ele>342.0</ele><time>2026-05-01T14:00:25.186Z</time></trkpt><trkpt lat="45.9869917" lon="11.7397767"><ele>342.6666666666667</ele><time>2026-05-01T14:00:26.184Z</time></trkpt><trkpt lat="45.9869883" lon="11.7395233"><ele>343.33333333333337</ele><time>2026-05-01T14:00:27.186Z</time></trkpt><trkpt lat="45.9869617" lon="11.73926"><ele>344.0</ele><time>2026-05-01T14:00:28.187Z</time></trkpt><trkpt lat="45.9869217" lon="11.7389917"><ele>344.0</ele><time>2026-05-01T14:00:29.187Z</time></trkpt><trkpt lat="45.98687" lon="11.7387117"><ele>344.0</ele><time>2026-05-01T14:00:30.188Z</time></trkpt><trkpt lat="45.986815" lon="11.7384283"><ele>344.0</ele><time>2026-05-01T14:00:31.189Z</time></trkpt><trkpt lat="45.98676" lon="11.7381533"><ele>343.0</ele><time>2026-05-01T14:00:32.185Z</time></trkpt><trkpt lat="45.9867" lon="11.7378767"><ele>342.0</ele><time>2026-05-01T14:00:33.185Z</time></trkpt><trkpt lat="45.9866467" lon="11.7375917"><ele>341.0</ele><time>2026-05-01T14:00:34.186Z</time></trkpt><trkpt lat="45.9865783" lon="11.737315"><ele>342.33333333333337</ele><time>2026-05-01T14:00:35.184Z</time></trkpt><trkpt lat="45.9865017" lon="11.7370533"><ele>343.6666666666667</ele><time>2026-05-01T14:00:36.186Z</time></trkpt><trkpt lat="45.9864283" lon="11.73682"><ele>345.0</ele><time>2026-05-01T14:00:37.188Z</time></trkpt><trkpt lat="45.9863617" lon="11.7366167"><ele>345.0</ele><time>2026-05-01T14:00:38.186Z</time></trkpt><trkpt lat="45.9862967" lon="11.7364333"><ele>345.0</ele><time>2026-05-01T14:00:39.184Z</time></trkpt><trkpt lat="45.986265" lon="11.7362617"><ele>345.0</ele><time>2026-05-01T14:00:40.183Z</time></trkpt><trkpt lat="45.9862517" lon="11.73609"><ele>345.0</ele><time>2026-05-01T14:00:41.184Z</time></trkpt><trkpt lat="45.986265" lon="11.735915"><ele>345.75</ele><time>2026-05-01T14:00:42.187Z</time></trkpt><trkpt lat="45.986315" lon="11.7357467"><ele>346.5</ele><time>2026-05-01T14:00:43.185Z</time></trkpt><trkpt lat="45.9863933" lon="11.7355967"><ele>347.25</ele><time>2026-05-01T14:00:44.186Z</time></trkpt><trkpt lat="45.9865067" lon="11.73548"><ele>348.0</ele><time>2026-05-01T14:00:45.184Z</time></trkpt><trkpt lat="45.9866567" lon="11.7353967"><ele>346.6666666666667</ele><time>2026-05-01T14:00:46.189Z</time></trkpt><trkpt lat="45.98683" lon="11.7353467"><ele>345.33333333333337</ele><time>2026-05-01T14:00:47.185Z</time></trkpt><trkpt lat="45.9869783" lon="11.7352733"><ele>344.0</ele><time>2026-05-01T14:00:48.185Z</time></trkpt><trkpt lat="45.9871117" lon="11.7352083"><ele>346.5</ele><time>2026-05-01T14:00:49.185Z</time></trkpt><trkpt lat="45.9872317" lon="11.7351467"><ele>349.0</ele><time>2026-05-01T14:00:50.184Z</time></trkpt><trkpt lat="45.98734" lon="11.73508"><ele>351.5</ele><time>2026-05-01T14:00:51.186Z</time></trkpt><trkpt lat="45.98742" lon="11.7349567"><ele>354.0</ele><time>2026-05-01T14:00:52.189Z</time></trkpt><trkpt lat="45.98748" lon="11.7348017"><ele>356.6666666666667</ele><time>2026-05-01T14:00:53.187Z</time></trkpt><trkpt lat="45.987515" lon="11.7346067"><ele>359.33333333333337</ele><time>2026-05-01T14:00:54.184Z</time></trkpt><trkpt lat="45.987525" lon="11.7343683"><ele>362.0</ele><time>2026-05-01T14:00:55.186Z</time></trkpt><trkpt lat="45.9875283" lon="11.7341033"><ele>363.6666666666667</ele><time>2026-05-01T14:00:56.186Z</time></trkpt><trkpt lat="45.9875333" lon="11.7338317"><ele>365.3333333333333</ele><time>2026-05-01T14:00:57.185Z</time></trkpt><trkpt lat="45.9875383" lon="11.7335533"><ele>367.0</ele><time>2026-05-01T14:00:58.185Z</time></trkpt><trkpt lat="45.9875483" lon="11.733265"><ele>367.0</ele><time>2026-05-01T14:00:59.185Z</time></trkpt><trkpt lat="45.9875533" lon="11.7329733"><ele>367.0</ele><time>2026-05-01T14:01:00.185Z</time></trkpt><trkpt lat="45.9875633" lon="11.732685"><ele>367.0</ele><time>2026-05-01T14:01:01.186Z</time></trkpt><trkpt lat="45.987575" lon="11.7324017"><ele>367.0</ele><time>2026-05-01T14:01:02.183Z</time></trkpt><trkpt lat="45.9875833" lon="11.7321217"><ele>367.0</ele><time>2026-05-01T14:01:03.184Z</time></trkpt><trkpt lat="45.9875917" lon="11.731845"><ele>367.0</ele><time>2026-05-01T14:01:04.187Z</time></trkpt><trkpt lat="45.9876" lon="11.731585"><ele>367.3333333333333</ele><time>2026-05-01T14:01:05.188Z</time></trkpt><trkpt lat="45.9876033" lon="11.7313417"><ele>367.6666666666667</ele><time>2026-05-01T14:01:06.192Z</time></trkpt><trkpt lat="45.9876117" lon="11.731115"><ele>368.0</ele><time>2026-05-01T14:01:07.188Z</time></trkpt><trkpt lat="45.9876183" lon="11.7309017"><ele>368.6666666666667</ele><time>2026-05-01T14:01:08.186Z</time></trkpt><trkpt lat="45.98762" lon="11.73069"><ele>369.3333333333333</ele><time>2026-05-01T14:01:09.187Z</time></trkpt><trkpt lat="45.9876167" lon="11.7304733"><ele>370.0</ele><time>2026-05-01T14:01:10.187Z</time></trkpt><trkpt lat="45.9875967" lon="11.73025"><ele>373.3333333333333</ele><time>2026-05-01T14:01:11.184Z</time></trkpt><trkpt lat="45.9875583" lon="11.73002"><ele>376.6666666666667</ele><time>2026-05-01T14:01:12.185Z</time></trkpt><trkpt lat="45.9875117" lon="11.7297867"><ele>380.0</ele><time>2026-05-01T14:01:13.184Z</time></trkpt><trkpt lat="45.98745" lon="11.72955"><ele>374.33333333333337</ele><time>2026-05-01T14:01:14.183Z</time></trkpt><trkpt lat="45.9873783" lon="11.7293117"><ele>368.6666666666667</ele><time>2026-05-01T14:01:15.19Z</time></trkpt><trkpt lat="45.987315" lon="11.7290683"><ele>363.0</ele><time>2026-05-01T14:01:16.184Z</time></trkpt><trkpt lat="45.9872767" lon="11.7288083"><ele>366.3333333333333</ele><time>2026-05-01T14:01:17.185Z</time></trkpt><trkpt lat="45.98724" lon="11.7285383"><ele>369.66666666666663</ele><time>2026-05-01T14:01:18.186Z</time></trkpt><trkpt lat="45.9871767" lon="11.7282717"><ele>373.0</ele><time>2026-05-01T14:01:19.188Z</time></trkpt><trkpt lat="45.9870883" lon="11.728005"><ele>373.0</ele><time>2026-05-01T14:01:20.187Z</time></trkpt><trkpt lat="45.9869867" lon="11.72774"><ele>373.0</ele><time>2026-05-01T14:01:21.185Z</time></trkpt><trkpt lat="45.9868883" lon="11.7274817"><ele>373.0</ele><time>2026-05-01T14:01:22.185Z</time></trkpt><trkpt lat="45.9867933" lon="11.7272367"><ele>371.66666666666663</ele><time>2026-05-01T14:01:23.186Z</time></trkpt><trkpt lat="45.9867133" lon="11.7270083"><ele>370.3333333333333</ele><time>2026-05-01T14:01:24.189Z</time></trkpt><trkpt lat="45.98664" lon="11.7268117"><ele>369.0</ele><time>2026-05-01T14:01:25.191Z</time></trkpt><trkpt lat="45.9865683" lon="11.7266467"><ele>369.0</ele><time>2026-05-01T14:01:26.188Z</time></trkpt><trkpt lat="45.9864833" lon="11.7265067"><ele>369.0</ele><time>2026-05-01T14:01:27.185Z</time></trkpt><trkpt lat="45.9863783" lon="11.7263917"><ele>369.0</ele><time>2026-05-01T14:01:28.185Z</time></trkpt><trkpt lat="45.986245" lon="11.7263183"><ele>369.0</ele><time>2026-05-01T14:01:29.187Z</time></trkpt><trkpt lat="45.986075" lon="11.7262883"><ele>369.0</ele><time>2026-05-01T14:01:30.185Z</time></trkpt><trkpt lat="45.9858883" lon="11.7262633"><ele>369.0</ele><time>2026-05-01T14:01:31.185Z</time></trkpt><trkpt lat="45.9857" lon="11.7262383"><ele>369.0</ele><time>2026-05-01T14:01:32.184Z</time></trkpt><trkpt lat="45.9855033" lon="11.726225"><ele>367.3333333333333</ele><time>2026-05-01T14:01:33.185Z</time></trkpt><trkpt lat="45.9853083" lon="11.7261967"><ele>365.66666666666663</ele><time>2026-05-01T14:01:34.188Z</time></trkpt><trkpt lat="45.9851233" lon="11.7261667"><ele>364.0</ele><time>2026-05-01T14:01:35.186Z</time></trkpt><trkpt lat="45.98495" lon="11.7261417"><ele>364.0</ele><time>2026-05-01T14:01:36.186Z</time></trkpt><trkpt lat="45.984795" lon="11.7261033"><ele>364.0</ele><time>2026-05-01T14:01:37.185Z</time></trkpt><trkpt lat="45.984645" lon="11.7260517"><ele>364.0</ele><time>2026-05-01T14:01:38.187Z</time></trkpt><trkpt lat="45.9844967" lon="11.7259783"><ele>364.0</ele><time>2026-05-01T14:01:39.185Z</time></trkpt><trkpt lat="45.9843467" lon="11.7258717"><ele>364.0</ele><time>2026-05-01T14:01:40.185Z</time></trkpt><trkpt lat="45.9841967" lon="11.7257517"><ele>364.0</ele><time>2026-05-01T14:01:41.184Z</time></trkpt><trkpt lat="45.9840517" lon="11.725615"><ele>364.0</ele><time>2026-05-01T14:01:42.188Z</time></trkpt><trkpt lat="45.9839133" lon="11.7254967"><ele>364.0</ele><time>2026-05-01T14:01:43.186Z</time></trkpt><trkpt lat="45.98379" lon="11.725405"><ele>364.0</ele><time>2026-05-01T14:01:44.184Z</time></trkpt><trkpt lat="45.9837017" lon="11.7253267"><ele>364.0</ele><time>2026-05-01T14:01:45.189Z</time></trkpt><trkpt lat="45.98364" lon="11.725275"><ele>364.66666666666663</ele><time>2026-05-01T14:01:46.184Z</time></trkpt><trkpt lat="45.9835767" lon="11.7251833"><ele>365.3333333333333</ele><time>2026-05-01T14:01:48.184Z</time></trkpt><trkpt lat="45.983505" lon="11.72516"><ele>366.0</ele><time>2026-05-01T14:03:19.184Z</time></trkpt><trkpt lat="45.98342" lon="11.72511"><ele>366.6666666666667</ele><time>2026-05-01T14:03:21.186Z</time></trkpt><trkpt lat="45.98336" lon="11.72505"><ele>367.33333333333337</ele><time>2026-05-01T14:03:22.185Z</time></trkpt><trkpt lat="45.9832917" lon="11.72497"><ele>368.0</ele><time>2026-05-01T14:03:23.189Z</time></trkpt><trkpt lat="45.983225" lon="11.7248833"><ele>368.0</ele><time>2026-05-01T14:03:24.184Z</time></trkpt><trkpt lat="45.9831567" lon="11.7247917"><ele>368.0</ele><time>2026-05-01T14:03:25.185Z</time></trkpt><trkpt lat="45.9830867" lon="11.7246933"><ele>368.0</ele><time>2026-05-01T14:03:26.185Z</time></trkpt><trkpt lat="45.98302" lon="11.7245767"><ele>368.0</ele><time>2026-05-01T14:03:27.184Z</time></trkpt><trkpt lat="45.982955" lon="11.7244333"><ele>368.0</ele><time>2026-05-01T14:03:28.185Z</time></trkpt><trkpt lat="45.9828917" lon="11.724265"><ele>367.75</ele><time>2026-05-01T14:03:29.185Z</time></trkpt><trkpt lat="45.982835" lon="11.7240833"><ele>367.5</ele><time>2026-05-01T14:03:30.184Z</time></trkpt><trkpt lat="45.9827967" lon="11.723885"><ele>367.25</ele><time>2026-05-01T14:03:31.184Z</time></trkpt><trkpt lat="45.9827717" lon="11.7236717"><ele>367.0</ele><time>2026-05-01T14:03:32.183Z</time></trkpt><trkpt lat="45.9827567" lon="11.7234617"><ele>368.25</ele><time>2026-05-01T14:03:33.186Z</time></trkpt><trkpt lat="45.9827483" lon="11.723265"><ele>369.5</ele><time>2026-05-01T14:03:34.185Z</time></trkpt><trkpt lat="45.9827333" lon="11.72307"><ele>370.75</ele><time>2026-05-01T14:03:35.183Z</time></trkpt><trkpt lat="45.9827083" lon="11.7228717"><ele>372.0</ele><time>2026-05-01T14:03:36.184Z</time></trkpt><trkpt lat="45.9826683" lon="11.72266"><ele>374.6666666666667</ele><time>2026-05-01T14:03:37.188Z</time></trkpt><trkpt lat="45.9826217" lon="11.722445"><ele>377.33333333333337</ele><time>2026-05-01T14:03:38.186Z</time></trkpt><trkpt lat="45.98257" lon="11.722225"><ele>380.0</ele><time>2026-05-01T14:03:39.184Z</time></trkpt><trkpt lat="45.9825133" lon="11.72202"><ele>376.25</ele><time>2026-05-01T14:03:40.184Z</time></trkpt><trkpt lat="45.98245" lon="11.7218383"><ele>372.5</ele><time>2026-05-01T14:03:41.187Z</time></trkpt><trkpt lat="45.9823783" lon="11.7216683"><ele>368.75</ele><time>2026-05-01T14:03:42.186Z</time></trkpt><trkpt lat="45.9822917" lon="11.7215"><ele>365.0</ele><time>2026-05-01T14:03:43.184Z</time></trkpt><trkpt lat="45.9821967" lon="11.7213517"><ele>365.0</ele><time>2026-05-01T14:03:44.184Z</time></trkpt><trkpt lat="45.9820783" lon="11.7212183"><ele>365.0</ele><time>2026-05-01T14:03:45.188Z</time></trkpt><trkpt lat="45.981925" lon="11.721125"><ele>365.0</ele><time>2026-05-01T14:03:46.188Z</time></trkpt><trkpt lat="45.9817533" lon="11.7210533"><ele>364.6666666666667</ele><time>2026-05-01T14:03:47.186Z</time></trkpt><trkpt lat="45.98157" lon="11.7210083"><ele>364.3333333333333</ele><time>2026-05-01T14:03:48.185Z</time></trkpt><trkpt lat="45.9813867" lon="11.7209833"><ele>364.0</ele><time>2026-05-01T14:03:49.185Z</time></trkpt><trkpt lat="45.981205" lon="11.7209517"><ele>364.0</ele><time>2026-05-01T14:03:50.185Z</time></trkpt><trkpt lat="45.981025" lon="11.720915"><ele>364.0</ele><time>2026-05-01T14:03:51.185Z</time></trkpt><trkpt lat="45.9808567" lon="11.720875"><ele>364.0</ele><time>2026-05-01T14:03:52.187Z</time></trkpt><trkpt lat="45.980685" lon="11.72083"><ele>361.0</ele><time>2026-05-01T14:03:53.185Z</time></trkpt><trkpt lat="45.9805067" lon="11.7207767"><ele>358.0</ele><time>2026-05-01T14:03:54.186Z</time></trkpt><trkpt lat="45.980325" lon="11.7207283"><ele>355.0</ele><time>2026-05-01T14:03:55.19Z</time></trkpt><trkpt lat="45.9801383" lon="11.7206967"><ele>353.66666666666663</ele><time>2026-05-01T14:03:56.184Z</time></trkpt><trkpt lat="45.97996" lon="11.7206983"><ele>352.3333333333333</ele><time>2026-05-01T14:03:57.184Z</time></trkpt><trkpt lat="45.979795" lon="11.7207133"><ele>351.0</ele><time>2026-05-01T14:03:58.184Z</time></trkpt><trkpt lat="45.9796367" lon="11.720725"><ele>351.0</ele><time>2026-05-01T14:03:59.187Z</time></trkpt><trkpt lat="45.9794783" lon="11.7207167"><ele>351.0</ele><time>2026-05-01T14:04:00.188Z</time></trkpt><trkpt lat="45.979315" lon="11.72068"><ele>351.0</ele><time>2026-05-01T14:04:01.192Z</time></trkpt><trkpt lat="45.9791417" lon="11.7206283"><ele>351.3333333333333</ele><time>2026-05-01T14:04:02.186Z</time></trkpt><trkpt lat="45.9789583" lon="11.7205583"><ele>351.66666666666663</ele><time>2026-05-01T14:04:03.187Z</time></trkpt><trkpt lat="45.9787683" lon="11.720495"><ele>352.0</ele><time>2026-05-01T14:04:04.187Z</time></trkpt><trkpt lat="45.9785783" lon="11.7204333"><ele>352.0</ele><time>2026-05-01T14:04:05.186Z</time></trkpt><trkpt lat="45.9783917" lon="11.7203667"><ele>352.0</ele><time>2026-05-01T14:04:06.189Z</time></trkpt><trkpt lat="45.9782133" lon="11.7203"><ele>352.0</ele><time>2026-05-01T14:04:07.184Z</time></trkpt><trkpt lat="45.9780467" lon="11.7202333"><ele>352.66666666666663</ele><time>2026-05-01T14:04:08.188Z</time></trkpt><trkpt lat="45.9778817" lon="11.72017"><ele>353.3333333333333</ele><time>2026-05-01T14:04:09.188Z</time></trkpt><trkpt lat="45.97772" lon="11.72009"><ele>354.0</ele><time>2026-05-01T14:04:10.188Z</time></trkpt><trkpt lat="45.9775617" lon="11.7199833"><ele>353.3333333333333</ele><time>2026-05-01T14:04:11.183Z</time></trkpt><trkpt lat="45.9774033" lon="11.7198617"><ele>352.66666666666663</ele><time>2026-05-01T14:04:12.184Z</time></trkpt><trkpt lat="45.9772483" lon="11.7197283"><ele>352.0</ele><time>2026-05-01T14:04:13.263Z</time></trkpt><trkpt lat="45.9770883" lon="11.7196033"><ele>352.0</ele><time>2026-05-01T14:04:14.184Z</time></trkpt><trkpt lat="45.97692" lon="11.7194833"><ele>352.0</ele><time>2026-05-01T14:04:15.186Z</time></trkpt><trkpt lat="45.97675" lon="11.7193517"><ele>352.0</ele><time>2026-05-01T14:04:16.185Z</time></trkpt><trkpt lat="45.9765783" lon="11.7192167"><ele>352.0</ele><time>2026-05-01T14:04:17.184Z</time></trkpt><trkpt lat="45.9763983" lon="11.7190817"><ele>352.0</ele><time>2026-05-01T14:04:18.185Z</time></trkpt><trkpt lat="45.97622" lon="11.718955"><ele>352.0</ele><time>2026-05-01T14:04:19.185Z</time></trkpt><trkpt lat="45.9760483" lon="11.7188333"><ele>352.0</ele><time>2026-05-01T14:04:20.185Z</time></trkpt><trkpt lat="45.975875" lon="11.7187133"><ele>352.0</ele><time>2026-05-01T14:04:21.183Z</time></trkpt><trkpt lat="45.9757017" lon="11.7186033"><ele>352.0</ele><time>2026-05-01T14:04:22.185Z</time></trkpt><trkpt lat="45.975525" lon="11.7185"><ele>352.3333333333333</ele><time>2026-05-01T14:04:23.188Z</time></trkpt><trkpt lat="45.9753467" lon="11.7184017"><ele>352.6666666666667</ele><time>2026-05-01T14:04:24.184Z</time></trkpt><trkpt lat="45.9751667" lon="11.7183"><ele>353.0</ele><time>2026-05-01T14:04:25.188Z</time></trkpt><trkpt lat="45.9749883" lon="11.7181983"><ele>353.0</ele><time>2026-05-01T14:04:26.185Z</time></trkpt><trkpt lat="45.9748117" lon="11.7180933"><ele>353.0</ele><time>2026-05-01T14:04:27.191Z</time></trkpt><trkpt lat="45.9746333" lon="11.7179833"><ele>353.0</ele><time>2026-05-01T14:04:28.19Z</time></trkpt><trkpt lat="45.9744517" lon="11.7178717"><ele>353.0</ele><time>2026-05-01T14:04:29.185Z</time></trkpt><trkpt lat="45.9742783" lon="11.7177617"><ele>353.0</ele><time>2026-05-01T14:04:30.184Z</time></trkpt><trkpt lat="45.9741167" lon="11.7176483"><ele>353.0</ele><time>2026-05-01T14:04:31.184Z</time></trkpt><trkpt lat="45.9739617" lon="11.7175367"><ele>354.0</ele><time>2026-05-01T14:04:32.186Z</time></trkpt><trkpt lat="45.9738067" lon="11.7174283"><ele>355.0</ele><time>2026-05-01T14:04:33.185Z</time></trkpt><trkpt lat="45.9736517" lon="11.7173217"><ele>356.0</ele><time>2026-05-01T14:04:34.183Z</time></trkpt><trkpt lat="45.9735017" lon="11.7172233"><ele>356.0</ele><time>2026-05-01T14:04:35.185Z</time></trkpt><trkpt lat="45.9733583" lon="11.71714"><ele>356.0</ele><time>2026-05-01T14:04:36.187Z</time></trkpt><trkpt lat="45.9732017" lon="11.7170867"><ele>356.0</ele><time>2026-05-01T14:04:37.185Z</time></trkpt><trkpt lat="45.973035" lon="11.7170617"><ele>354.6666666666667</ele><time>2026-05-01T14:04:38.186Z</time></trkpt><trkpt lat="45.9728617" lon="11.71707"><ele>353.3333333333333</ele><time>2026-05-01T14:04:39.187Z</time></trkpt><trkpt lat="45.97268" lon="11.7170967"><ele>352.0</ele><time>2026-05-01T14:04:40.264Z</time></trkpt><trkpt lat="45.9725" lon="11.7171183"><ele>351.0</ele><time>2026-05-01T14:04:41.185Z</time></trkpt><trkpt lat="45.9723183" lon="11.71714"><ele>350.0</ele><time>2026-05-01T14:04:42.186Z</time></trkpt><trkpt lat="45.9721383" lon="11.7171533"><ele>349.0</ele><time>2026-05-01T14:04:43.187Z</time></trkpt><trkpt lat="45.9719633" lon="11.7171517"><ele>349.0</ele><time>2026-05-01T14:04:44.186Z</time></trkpt><trkpt lat="45.9717883" lon="11.7171383"><ele>349.0</ele><time>2026-05-01T14:04:45.189Z</time></trkpt><trkpt lat="45.97161" lon="11.7171167"><ele>349.0</ele><time>2026-05-01T14:04:46.186Z</time></trkpt><trkpt lat="45.97143" lon="11.7171"><ele>349.0</ele><time>2026-05-01T14:04:47.184Z</time></trkpt><trkpt lat="45.971245" lon="11.71708"><ele>349.0</ele><time>2026-05-01T14:04:48.186Z</time></trkpt><trkpt lat="45.97106" lon="11.7170633"><ele>349.0</ele><time>2026-05-01T14:04:49.187Z</time></trkpt><trkpt lat="45.9708733" lon="11.7170433"><ele>349.0</ele><time>2026-05-01T14:04:50.185Z</time></trkpt><trkpt lat="45.9706817" lon="11.7170183"><ele>349.0</ele><time>2026-05-01T14:04:51.186Z</time></trkpt><trkpt lat="45.9704917" lon="11.7169933"><ele>349.0</ele><time>2026-05-01T14:04:52.183Z</time></trkpt><trkpt lat="45.9703083" lon="11.7169717"><ele>349.0</ele><time>2026-05-01T14:04:53.184Z</time></trkpt><trkpt lat="45.97014" lon="11.7169533"><ele>349.0</ele><time>2026-05-01T14:04:54.188Z</time></trkpt><trkpt lat="45.9699783" lon="11.7169383"><ele>349.0</ele><time>2026-05-01T14:04:55.187Z</time></trkpt><trkpt lat="45.9698267" lon="11.7169217"><ele>349.25</ele><time>2026-05-01T14:04:56.188Z</time></trkpt><trkpt lat="45.969685" lon="11.7169083"><ele>349.5</ele><time>2026-05-01T14:04:57.184Z</time></trkpt><trkpt lat="45.9695533" lon="11.7168933"><ele>349.75</ele><time>2026-05-01T14:04:58.186Z</time></trkpt><trkpt lat="45.9694333" lon="11.71687"><ele>350.0</ele><time>2026-05-01T14:04:59.185Z</time></trkpt><trkpt lat="45.9693233" lon="11.716835"><ele>349.75</ele><time>2026-05-01T14:05:00.184Z</time></trkpt><trkpt lat="45.9692233" lon="11.7167717"><ele>349.5</ele><time>2026-05-01T14:05:01.187Z</time></trkpt><trkpt lat="45.9691267" lon="11.7166617"><ele>349.25</ele><time>2026-05-01T14:05:02.183Z</time></trkpt><trkpt lat="45.9690367" lon="11.7165217"><ele>349.0</ele><time>2026-05-01T14:05:03.185Z</time></trkpt><trkpt lat="45.9689733" lon="11.71636"><ele>349.0</ele><time>2026-05-01T14:05:04.183Z</time></trkpt><trkpt lat="45.9689133" lon="11.7162167"><ele>349.0</ele><time>2026-05-01T14:05:05.185Z</time></trkpt><trkpt lat="45.96886" lon="11.71611"><ele>349.0</ele><time>2026-05-01T14:05:06.185Z</time></trkpt><trkpt lat="45.9688067" lon="11.71604"><ele>349.0</ele><time>2026-05-01T14:05:07.186Z</time></trkpt><trkpt lat="45.9687333" lon="11.7160083"><ele>349.0</ele><time>2026-05-01T14:05:08.184Z</time></trkpt><trkpt lat="45.9686517" lon="11.71605"><ele>349.0</ele><time>2026-05-01T14:05:09.185Z</time></trkpt><trkpt lat="45.9685667" lon="11.7161617"><ele>349.0</ele><time>2026-05-01T14:05:10.186Z</time></trkpt><trkpt lat="45.96847" lon="11.7162983"><ele>349.0</ele><time>2026-05-01T14:05:11.186Z</time></trkpt><trkpt lat="45.9683567" lon="11.7164183"><ele>349.0</ele><time>2026-05-01T14:05:12.186Z</time></trkpt><trkpt lat="45.9682483" lon="11.7165133"><ele>349.0</ele><time>2026-05-01T14:05:13.183Z</time></trkpt><trkpt lat="45.9681383" lon="11.7165783"><ele>349.5</ele><time>2026-05-01T14:05:14.185Z</time></trkpt><trkpt lat="45.9680183" lon="11.7166417"><ele>350.0</ele><time>2026-05-01T14:05:15.185Z</time></trkpt><trkpt lat="45.967885" lon="11.7167"><ele>350.5</ele><time>2026-05-01T14:05:16.185Z</time></trkpt><trkpt lat="45.9677433" lon="11.7167667"><ele>351.0</ele><time>2026-05-01T14:05:17.188Z</time></trkpt><trkpt lat="45.9675967" lon="11.7168333"><ele>350.75</ele><time>2026-05-01T14:05:18.187Z</time></trkpt><trkpt lat="45.96746" lon="11.7168867"><ele>350.5</ele><time>2026-05-01T14:05:19.186Z</time></trkpt><trkpt lat="45.9673367" lon="11.716935"><ele>350.25</ele><time>2026-05-01T14:05:20.186Z</time></trkpt><trkpt lat="45.9672233" lon="11.71694"><ele>350.0</ele><time>2026-05-01T14:05:21.186Z</time></trkpt><trkpt lat="45.9671033" lon="11.7169067"><ele>349.5</ele><time>2026-05-01T14:05:22.186Z</time></trkpt><trkpt lat="45.9669783" lon="11.716835"><ele>349.0</ele><time>2026-05-01T14:05:23.185Z</time></trkpt><trkpt lat="45.96686" lon="11.7167283"><ele>348.5</ele><time>2026-05-01T14:05:24.186Z</time></trkpt><trkpt lat="45.9667583" lon="11.71662"><ele>348.0</ele><time>2026-05-01T14:05:25.184Z</time></trkpt><trkpt lat="45.96667" lon="11.716515"><ele>347.0</ele><time>2026-05-01T14:05:26.184Z</time></trkpt><trkpt lat="45.96661" lon="11.7163833"><ele>346.0</ele><time>2026-05-01T14:05:27.186Z</time></trkpt><trkpt lat="45.9665733" lon="11.7162233"><ele>345.0</ele><time>2026-05-01T14:05:28.186Z</time></trkpt><trkpt lat="45.9665517" lon="11.7160417"><ele>344.0</ele><time>2026-05-01T14:05:29.184Z</time></trkpt><trkpt lat="45.966535" lon="11.7158417"><ele>344.0</ele><time>2026-05-01T14:05:30.183Z</time></trkpt><trkpt lat="45.966485" lon="11.7156383"><ele>344.0</ele><time>2026-05-01T14:05:31.187Z</time></trkpt><trkpt lat="45.9664233" lon="11.71544"><ele>344.0</ele><time>2026-05-01T14:05:32.184Z</time></trkpt><trkpt lat="45.9663533" lon="11.7152583"><ele>344.0</ele><time>2026-05-01T14:05:33.184Z</time></trkpt><trkpt lat="45.96629" lon="11.7150917"><ele>346.0</ele><time>2026-05-01T14:05:34.186Z</time></trkpt><trkpt lat="45.966235" lon="11.7149333"><ele>348.0</ele><time>2026-05-01T14:05:35.188Z</time></trkpt><trkpt lat="45.9661917" lon="11.7147733"><ele>350.0</ele><time>2026-05-01T14:05:36.187Z</time></trkpt><trkpt lat="45.9661767" lon="11.7145983"><ele>352.0</ele><time>2026-05-01T14:05:37.188Z</time></trkpt><trkpt lat="45.9661833" lon="11.7144017"><ele>353.66666666666663</ele><time>2026-05-01T14:05:38.184Z</time></trkpt><trkpt lat="45.966195" lon="11.7141917"><ele>355.3333333333333</ele><time>2026-05-01T14:05:39.186Z</time></trkpt><trkpt lat="45.96619" lon="11.71397"><ele>357.0</ele><time>2026-05-01T14:05:40.188Z</time></trkpt><trkpt lat="45.9661767" lon="11.71373"><ele>357.3333333333333</ele><time>2026-05-01T14:05:41.189Z</time></trkpt><trkpt lat="45.966165" lon="11.7134733"><ele>357.66666666666663</ele><time>2026-05-01T14:05:42.185Z</time></trkpt><trkpt lat="45.9661533" lon="11.7132133"><ele>358.0</ele><time>2026-05-01T14:05:43.188Z</time></trkpt><trkpt lat="45.9661367" lon="11.71295"><ele>358.0</ele><time>2026-05-01T14:05:44.186Z</time></trkpt><trkpt lat="45.96611" lon="11.712685"><ele>358.0</ele><time>2026-05-01T14:05:45.183Z</time></trkpt><trkpt lat="45.9660717" lon="11.7124367"><ele>358.0</ele><time>2026-05-01T14:05:46.185Z</time></trkpt><trkpt lat="45.9660367" lon="11.7122183"><ele>358.0</ele><time>2026-05-01T14:05:47.184Z</time></trkpt><trkpt lat="45.9660017" lon="11.712025"><ele>358.0</ele><time>2026-05-01T14:05:48.186Z</time></trkpt><trkpt lat="45.9659683" lon="11.7118583"><ele>358.0</ele><time>2026-05-01T14:05:49.191Z</time></trkpt><trkpt lat="45.9659317" lon="11.7117017"><ele>358.0</ele><time>2026-05-01T14:05:50.185Z</time></trkpt><trkpt lat="45.96592" lon="11.7115517"><ele>358.0</ele><time>2026-05-01T14:05:51.188Z</time></trkpt><trkpt lat="45.9659183" lon="11.711415"><ele>358.0</ele><time>2026-05-01T14:05:52.186Z</time></trkpt><trkpt lat="45.96593" lon="11.711305"><ele>358.0</ele><time>2026-05-01T14:05:53.184Z</time></trkpt><trkpt lat="45.9658867" lon="11.7111667"><ele>358.0</ele><time>2026-05-01T14:05:55.187Z</time></trkpt><trkpt lat="45.965785" lon="11.7112017"><ele>358.0</ele><time>2026-05-01T14:05:57.187Z</time></trkpt><trkpt lat="45.9657383" lon="11.711335"><ele>348.25</ele><time>2026-05-01T14:05:58.188Z</time></trkpt><trkpt lat="45.965695" lon="11.71149"><ele>338.5</ele><time>2026-05-01T14:05:59.185Z</time></trkpt><trkpt lat="45.9656283" lon="11.7116483"><ele>328.75</ele><time>2026-05-01T14:06:00.264Z</time></trkpt><trkpt lat="45.9655533" lon="11.7118067"><ele>319.0</ele><time>2026-05-01T14:06:01.185Z</time></trkpt><trkpt lat="45.96548" lon="11.7119717"><ele>319.0</ele><time>2026-05-01T14:06:02.184Z</time></trkpt><trkpt lat="45.9654083" lon="11.712155"><ele>319.0</ele><time>2026-05-01T14:06:03.183Z</time></trkpt><trkpt lat="45.9653467" lon="11.7123417"><ele>319.0</ele><time>2026-05-01T14:06:04.187Z</time></trkpt><trkpt lat="45.96529" lon="11.7125217"><ele>319.0</ele><time>2026-05-01T14:06:05.183Z</time></trkpt><trkpt lat="45.9652333" lon="11.7126917"><ele>318.59999999999997</ele><time>2026-05-01T14:06:06.187Z</time></trkpt><trkpt lat="45.965185" lon="11.7128483"><ele>318.2</ele><time>2026-05-01T14:06:07.186Z</time></trkpt><trkpt lat="45.96514" lon="11.7129933"><ele>317.79999999999995</ele><time>2026-05-01T14:06:08.186Z</time></trkpt><trkpt lat="45.965105" lon="11.7131183"><ele>317.4</ele><time>2026-05-01T14:06:09.186Z</time></trkpt><trkpt lat="45.9650733" lon="11.71321"><ele>317.0</ele><time>2026-05-01T14:06:10.187Z</time></trkpt><trkpt lat="45.9649917" lon="11.713255"><ele>317.4</ele><time>2026-05-01T14:06:12.184Z</time></trkpt><trkpt lat="45.964925" lon="11.7131433"><ele>317.79999999999995</ele><time>2026-05-01T14:06:14.187Z</time></trkpt><trkpt lat="45.9649733" lon="11.7129617"><ele>318.2</ele><time>2026-05-01T14:06:16.183Z</time></trkpt><trkpt lat="45.9650283" lon="11.7128517"><ele>318.59999999999997</ele><time>2026-05-01T14:06:17.187Z</time></trkpt><trkpt lat="45.965075" lon="11.7127317"><ele>319.0</ele><time>2026-05-01T14:06:18.186Z</time></trkpt><trkpt lat="45.9651367" lon="11.7125917"><ele>319.0</ele><time>2026-05-01T14:06:19.186Z</time></trkpt><trkpt lat="45.9651967" lon="11.712445"><ele>319.0</ele><time>2026-05-01T14:06:20.184Z</time></trkpt><trkpt lat="45.9652483" lon="11.7122933"><ele>319.0</ele><time>2026-05-01T14:06:21.187Z</time></trkpt><trkpt lat="45.9653067" lon="11.7121367"><ele>319.0</ele><time>2026-05-01T14:06:22.187Z</time></trkpt><trkpt lat="45.9653683" lon="11.7119867"><ele>318.4</ele><time>2026-05-01T14:06:23.186Z</time></trkpt><trkpt lat="45.96543" lon="11.7118533"><ele>317.79999999999995</ele><time>2026-05-01T14:06:24.184Z</time></trkpt><trkpt lat="45.9654817" lon="11.7117267"><ele>317.20000000000005</ele><time>2026-05-01T14:06:25.184Z</time></trkpt><trkpt lat="45.9655267" lon="11.71162"><ele>316.6</ele><time>2026-05-01T14:06:26.184Z</time></trkpt><trkpt lat="45.96557" lon="11.71154"><ele>316.0</ele><time>2026-05-01T14:06:27.187Z</time></trkpt><trkpt lat="45.96557" lon="11.7113883"><ele>316.0</ele><time>2026-05-01T14:06:29.187Z</time></trkpt><trkpt lat="45.9654533" lon="11.7113717"><ele>316.0</ele><time>2026-05-01T14:06:31.187Z</time></trkpt><trkpt lat="45.9653833" lon="11.71148"><ele>316.0</ele><time>2026-05-01T14:06:32.186Z</time></trkpt><trkpt lat="45.9653267" lon="11.7116333"><ele>316.0</ele><time>2026-05-01T14:06:33.186Z</time></trkpt><trkpt lat="45.9652783" lon="11.71179"><ele>316.6</ele><time>2026-05-01T14:06:34.185Z</time></trkpt><trkpt lat="45.9652167" lon="11.7119233"><ele>317.20000000000005</ele><time>2026-05-01T14:06:35.186Z</time></trkpt><trkpt lat="45.9651583" lon="11.7120517"><ele>317.79999999999995</ele><time>2026-05-01T14:06:36.184Z</time></trkpt><trkpt lat="45.9651017" lon="11.712165"><ele>318.4</ele><time>2026-05-01T14:06:37.185Z</time></trkpt><trkpt lat="45.9650617" lon="11.7122583"><ele>319.0</ele><time>2026-05-01T14:06:38.189Z</time></trkpt><trkpt lat="45.9649833" lon="11.7123383"><ele>319.0</ele><time>2026-05-01T14:06:40.185Z</time></trkpt><trkpt lat="45.9649383" lon="11.7121933"><ele>319.0</ele><time>2026-05-01T14:06:42.185Z</time></trkpt><trkpt lat="45.9649717" lon="11.7120817"><ele>319.0</ele><time>2026-05-01T14:06:43.184Z</time></trkpt><trkpt lat="45.9650417" lon="11.711955"><ele>319.0</ele><time>2026-05-01T14:06:44.184Z</time></trkpt><trkpt lat="45.9650867" lon="11.7118333"><ele>319.0</ele><time>2026-05-01T14:06:45.186Z</time></trkpt><trkpt lat="45.96513" lon="11.711665"><ele>318.5</ele><time>2026-05-01T14:06:46.185Z</time></trkpt><trkpt lat="45.9652017" lon="11.7114783"><ele>318.0</ele><time>2026-05-01T14:06:47.186Z</time></trkpt><trkpt lat="45.9652583" lon="11.7112833"><ele>317.5</ele><time>2026-05-01T14:06:48.185Z</time></trkpt><trkpt lat="45.9653067" lon="11.7110917"><ele>317.0</ele><time>2026-05-01T14:06:49.184Z</time></trkpt><trkpt lat="45.9653533" lon="11.7109167"><ele>317.0</ele><time>2026-05-01T14:06:50.184Z</time></trkpt><trkpt lat="45.9653933" lon="11.7107583"><ele>317.0</ele><time>2026-05-01T14:06:51.184Z</time></trkpt><trkpt lat="45.9654267" lon="11.7106133"><ele>317.0</ele><time>2026-05-01T14:06:52.186Z</time></trkpt><trkpt lat="45.9654517" lon="11.71049"><ele>317.0</ele><time>2026-05-01T14:06:53.185Z</time></trkpt><trkpt lat="45.965475" lon="11.7104033"><ele>317.0</ele><time>2026-05-01T14:06:54.188Z</time></trkpt><trkpt lat="45.9654367" lon="11.7102933"><ele>317.0</ele><time>2026-05-01T14:06:56.188Z</time></trkpt><trkpt lat="45.9653267" lon="11.71037"><ele>317.0</ele><time>2026-05-01T14:06:58.185Z</time></trkpt><trkpt lat="45.9652983" lon="11.71054"><ele>317.0</ele><time>2026-05-01T14:06:59.185Z</time></trkpt><trkpt lat="45.965265" lon="11.710725"><ele>317.0</ele><time>2026-05-01T14:07:00.183Z</time></trkpt><trkpt lat="45.9652017" lon="11.710905"><ele>316.6666666666667</ele><time>2026-05-01T14:07:01.189Z</time></trkpt><trkpt lat="45.965135" lon="11.7110983"><ele>316.3333333333333</ele><time>2026-05-01T14:07:02.185Z</time></trkpt><trkpt lat="45.965065" lon="11.7112967"><ele>316.0</ele><time>2026-05-01T14:07:03.183Z</time></trkpt><trkpt lat="45.964995" lon="11.71148"><ele>310.75</ele><time>2026-05-01T14:07:04.183Z</time></trkpt><trkpt lat="45.9649217" lon="11.7116433"><ele>305.5</ele><time>2026-05-01T14:07:05.184Z</time></trkpt><trkpt lat="45.9648317" lon="11.7117767"><ele>300.25</ele><time>2026-05-01T14:07:06.186Z</time></trkpt><trkpt lat="45.964735" lon="11.7118917"><ele>295.0</ele><time>2026-05-01T14:07:07.186Z</time></trkpt><trkpt lat="45.9646367" lon="11.7119933"><ele>295.0</ele><time>2026-05-01T14:07:08.183Z</time></trkpt><trkpt lat="45.9645383" lon="11.7120817"><ele>295.0</ele><time>2026-05-01T14:07:09.186Z</time></trkpt><trkpt lat="45.9644383" lon="11.71215"><ele>295.0</ele><time>2026-05-01T14:07:10.185Z</time></trkpt><trkpt lat="45.964325" lon="11.71219"><ele>295.0</ele><time>2026-05-01T14:07:11.185Z</time></trkpt><trkpt lat="45.9642017" lon="11.712185"><ele>295.2</ele><time>2026-05-01T14:07:12.185Z</time></trkpt><trkpt lat="45.964085" lon="11.712165"><ele>295.4</ele><time>2026-05-01T14:07:13.184Z</time></trkpt><trkpt lat="45.96399" lon="11.7121617"><ele>295.6</ele><time>2026-05-01T14:07:14.184Z</time></trkpt><trkpt lat="45.96392" lon="11.7121567"><ele>295.8</ele><time>2026-05-01T14:07:15.185Z</time></trkpt><trkpt lat="45.9638583" lon="11.7120633"><ele>296.0</ele><time>2026-05-01T14:07:17.186Z</time></trkpt><trkpt lat="45.96394" lon="11.71193"><ele>293.8</ele><time>2026-05-01T14:07:19.185Z</time></trkpt><trkpt lat="45.96402" lon="11.7118967"><ele>291.6</ele><time>2026-05-01T14:07:20.184Z</time></trkpt><trkpt lat="45.9640983" lon="11.7118417"><ele>289.4</ele><time>2026-05-01T14:07:21.184Z</time></trkpt><trkpt lat="45.9642067" lon="11.7117883"><ele>287.2</ele><time>2026-05-01T14:07:22.186Z</time></trkpt><trkpt lat="45.964305" lon="11.7117467"><ele>285.0</ele><time>2026-05-01T14:07:23.184Z</time></trkpt><trkpt lat="45.9644" lon="11.7117067"><ele>285.0</ele><time>2026-05-01T14:07:24.183Z</time></trkpt><trkpt lat="45.9644817" lon="11.7117017"><ele>285.0</ele><time>2026-05-01T14:07:25.185Z</time></trkpt><trkpt lat="45.9645517" lon="11.7116917"><ele>285.0</ele><time>2026-05-01T14:07:26.184Z</time></trkpt><trkpt lat="45.964625" lon="11.711605"><ele>285.0</ele><time>2026-05-01T14:07:28.185Z</time></trkpt><trkpt lat="45.9645617" lon="11.7115083"><ele>285.0</ele><time>2026-05-01T14:07:30.184Z</time></trkpt><trkpt lat="45.9644583" lon="11.711525"><ele>285.0</ele><time>2026-05-01T14:07:31.187Z</time></trkpt><trkpt lat="45.9643767" lon="11.7115233"><ele>285.0</ele><time>2026-05-01T14:07:32.185Z</time></trkpt><trkpt lat="45.9642867" lon="11.7115067"><ele>285.0</ele><time>2026-05-01T14:07:33.184Z</time></trkpt><trkpt lat="45.9641517" lon="11.7115417"><ele>285.0</ele><time>2026-05-01T14:07:34.186Z</time></trkpt><trkpt lat="45.96402" lon="11.7115867"><ele>285.0</ele><time>2026-05-01T14:07:35.183Z</time></trkpt><trkpt lat="45.9638983" lon="11.71164"><ele>280.5</ele><time>2026-05-01T14:07:36.186Z</time></trkpt><trkpt lat="45.96378" lon="11.71165"><ele>276.0</ele><time>2026-05-01T14:07:37.186Z</time></trkpt><trkpt lat="45.963655" lon="11.7116183"><ele>271.5</ele><time>2026-05-01T14:07:38.185Z</time></trkpt><trkpt lat="45.96352" lon="11.7115817"><ele>267.0</ele><time>2026-05-01T14:07:39.186Z</time></trkpt><trkpt lat="45.963375" lon="11.711575"><ele>266.0</ele><time>2026-05-01T14:07:40.186Z</time></trkpt><trkpt lat="45.9632267" lon="11.7115767"><ele>265.0</ele><time>2026-05-01T14:07:41.187Z</time></trkpt><trkpt lat="45.963085" lon="11.71157"><ele>264.0</ele><time>2026-05-01T14:07:42.187Z</time></trkpt><trkpt lat="45.96294" lon="11.7115367"><ele>263.0</ele><time>2026-05-01T14:07:43.185Z</time></trkpt><trkpt lat="45.9627983" lon="11.7114817"><ele>263.0</ele><time>2026-05-01T14:07:44.186Z</time></trkpt><trkpt lat="45.9626583" lon="11.7114083"><ele>263.0</ele><time>2026-05-01T14:07:45.191Z</time></trkpt><trkpt lat="45.962525" lon="11.7113317"><ele>263.0</ele><time>2026-05-01T14:07:46.186Z</time></trkpt><trkpt lat="45.9623983" lon="11.71126"><ele>263.0</ele><time>2026-05-01T14:07:47.185Z</time></trkpt><trkpt lat="45.9622767" lon="11.7111967"><ele>267.8</ele><time>2026-05-01T14:07:48.186Z</time></trkpt><trkpt lat="45.9621633" lon="11.7111283"><ele>272.6</ele><time>2026-05-01T14:07:49.185Z</time></trkpt><trkpt lat="45.96206" lon="11.7110617"><ele>277.4</ele><time>2026-05-01T14:07:50.185Z</time></trkpt><trkpt lat="45.9619667" lon="11.7110033"><ele>282.2</ele><time>2026-05-01T14:07:51.187Z</time></trkpt><trkpt lat="45.9618917" lon="11.7109617"><ele>287.0</ele><time>2026-05-01T14:07:52.186Z</time></trkpt><trkpt lat="45.9617933" lon="11.7108917"><ele>276.8</ele><time>2026-05-01T14:07:54.185Z</time></trkpt><trkpt lat="45.961835" lon="11.7107833"><ele>266.6</ele><time>2026-05-01T14:07:56.184Z</time></trkpt><trkpt lat="45.96195" lon="11.7108067"><ele>256.40000000000003</ele><time>2026-05-01T14:07:58.186Z</time></trkpt><trkpt lat="45.9620233" lon="11.7108783"><ele>246.20000000000002</ele><time>2026-05-01T14:07:59.183Z</time></trkpt><trkpt lat="45.9621283" lon="11.71092"><ele>236.0</ele><time>2026-05-01T14:08:00.185Z</time></trkpt><trkpt lat="45.9622567" lon="11.7109767"><ele>236.0</ele><time>2026-05-01T14:08:01.188Z</time></trkpt><trkpt lat="45.9623933" lon="11.71102"><ele>236.0</ele><time>2026-05-01T14:08:02.184Z</time></trkpt><trkpt lat="45.96254" lon="11.7110533"><ele>236.0</ele><time>2026-05-01T14:08:03.184Z</time></trkpt><trkpt lat="45.962695" lon="11.711085"><ele>236.0</ele><time>2026-05-01T14:08:04.185Z</time></trkpt><trkpt lat="45.9628517" lon="11.71112"><ele>245.0</ele><time>2026-05-01T14:08:05.184Z</time></trkpt><trkpt lat="45.96301" lon="11.7111417"><ele>254.0</ele><time>2026-05-01T14:08:06.186Z</time></trkpt><trkpt lat="45.96317" lon="11.7111667"><ele>263.0</ele><time>2026-05-01T14:08:07.189Z</time></trkpt><trkpt lat="45.96332" lon="11.71118"><ele>264.0</ele><time>2026-05-01T14:08:08.184Z</time></trkpt><trkpt lat="45.9634683" lon="11.71119"><ele>265.0</ele><time>2026-05-01T14:08:09.187Z</time></trkpt><trkpt lat="45.9636133" lon="11.7111883"><ele>266.0</ele><time>2026-05-01T14:08:10.189Z</time></trkpt><trkpt lat="45.9637517" lon="11.7111867"><ele>267.0</ele><time>2026-05-01T14:08:11.184Z</time></trkpt><trkpt lat="45.963875" lon="11.7111767"><ele>267.0</ele><time>2026-05-01T14:08:12.186Z</time></trkpt><trkpt lat="45.9639833" lon="11.7111433"><ele>267.0</ele><time>2026-05-01T14:08:13.188Z</time></trkpt><trkpt lat="45.964085" lon="11.7110817"><ele>267.0</ele><time>2026-05-01T14:08:14.183Z</time></trkpt><trkpt lat="45.9641833" lon="11.71098"><ele>267.0</ele><time>2026-05-01T14:08:15.186Z</time></trkpt><trkpt lat="45.964275" lon="11.7108367"><ele>266.75</ele><time>2026-05-01T14:08:16.184Z</time></trkpt><trkpt lat="45.9643783" lon="11.71071"><ele>266.5</ele><time>2026-05-01T14:08:17.185Z</time></trkpt><trkpt lat="45.9644767" lon="11.71059"><ele>266.25</ele><time>2026-05-01T14:08:18.186Z</time></trkpt><trkpt lat="45.9645667" lon="11.7104833"><ele>266.0</ele><time>2026-05-01T14:08:19.185Z</time></trkpt><trkpt lat="45.9646367" lon="11.7103783"><ele>266.0</ele><time>2026-05-01T14:08:20.185Z</time></trkpt><trkpt lat="45.964695" lon="11.710265"><ele>266.0</ele><time>2026-05-01T14:08:21.185Z</time></trkpt><trkpt lat="45.964725" lon="11.71012"><ele>266.0</ele><time>2026-05-01T14:08:22.182Z</time></trkpt><trkpt lat="45.964725" lon="11.70995"><ele>266.0</ele><time>2026-05-01T14:08:23.185Z</time></trkpt><trkpt lat="45.9647517" lon="11.7098217"><ele>266.0</ele><time>2026-05-01T14:08:24.185Z</time></trkpt><trkpt lat="45.96478" lon="11.7097183"><ele>262.1666666666667</ele><time>2026-05-01T14:08:25.185Z</time></trkpt><trkpt lat="45.9648" lon="11.70963"><ele>258.33333333333337</ele><time>2026-05-01T14:08:26.184Z</time></trkpt><trkpt lat="45.9647767" lon="11.7095267"><ele>254.5</ele><time>2026-05-01T14:08:28.186Z</time></trkpt><trkpt lat="45.9646983" lon="11.709525"><ele>250.66666666666669</ele><time>2026-05-01T14:08:32.186Z</time></trkpt><trkpt lat="45.9646217" lon="11.7096183"><ele>246.83333333333334</ele><time>2026-05-01T14:08:34.186Z</time></trkpt><trkpt lat="45.9645317" lon="11.7097317"><ele>243.0</ele><time>2026-05-01T14:08:36.184Z</time></trkpt><trkpt lat="45.9644883" lon="11.7098117"><ele>243.0</ele><time>2026-05-01T14:08:37.185Z</time></trkpt><trkpt lat="45.9644517" lon="11.70992"><ele>243.0</ele><time>2026-05-01T14:08:38.186Z</time></trkpt><trkpt lat="45.96441" lon="11.7100233"><ele>243.0</ele><time>2026-05-01T14:08:39.184Z</time></trkpt><trkpt lat="45.96437" lon="11.7101233"><ele>243.0</ele><time>2026-05-01T14:08:40.186Z</time></trkpt><trkpt lat="45.9643167" lon="11.7102167"><ele>243.0</ele><time>2026-05-01T14:08:41.184Z</time></trkpt><trkpt lat="45.9642533" lon="11.7103033"><ele>243.0</ele><time>2026-05-01T14:08:42.185Z</time></trkpt><trkpt lat="45.9641833" lon="11.7103917"><ele>241.33333333333334</ele><time>2026-05-01T14:08:43.188Z</time></trkpt><trkpt lat="45.9641217" lon="11.710495"><ele>239.66666666666669</ele><time>2026-05-01T14:08:44.186Z</time></trkpt><trkpt lat="45.9640383" lon="11.7105667"><ele>238.0</ele><time>2026-05-01T14:08:45.189Z</time></trkpt><trkpt lat="45.9639667" lon="11.7106317"><ele>236.33333333333334</ele><time>2026-05-01T14:08:46.187Z</time></trkpt><trkpt lat="45.9639033" lon="11.71069"><ele>234.66666666666669</ele><time>2026-05-01T14:08:47.184Z</time></trkpt><trkpt lat="45.963845" lon="11.7107433"><ele>233.0</ele><time>2026-05-01T14:08:48.186Z</time></trkpt><trkpt lat="45.9637783" lon="11.71078"><ele>233.0</ele><time>2026-05-01T14:08:49.183Z</time></trkpt><trkpt lat="45.9636933" lon="11.710795"><ele>233.0</ele><time>2026-05-01T14:08:50.186Z</time></trkpt><trkpt lat="45.9635867" lon="11.7107783"><ele>233.0</ele><time>2026-05-01T14:08:51.185Z</time></trkpt><trkpt lat="45.9634633" lon="11.7107467"><ele>233.0</ele><time>2026-05-01T14:08:52.186Z</time></trkpt><trkpt lat="45.9633283" lon="11.7107183"><ele>231.25</ele><time>2026-05-01T14:08:53.185Z</time></trkpt><trkpt lat="45.9631917" lon="11.7106833"><ele>229.5</ele><time>2026-05-01T14:08:54.186Z</time></trkpt><trkpt lat="45.9630517" lon="11.7106483"><ele>227.75</ele><time>2026-05-01T14:08:55.188Z</time></trkpt><trkpt lat="45.9629033" lon="11.7106067"><ele>226.0</ele><time>2026-05-01T14:08:56.184Z</time></trkpt><trkpt lat="45.9627483" lon="11.7105583"><ele>226.0</ele><time>2026-05-01T14:08:57.185Z</time></trkpt><trkpt lat="45.9625867" lon="11.7104933"><ele>226.0</ele><time>2026-05-01T14:08:58.183Z</time></trkpt><trkpt lat="45.9624233" lon="11.7104183"><ele>226.0</ele><time>2026-05-01T14:08:59.185Z</time></trkpt><trkpt lat="45.9622633" lon="11.7103517"><ele>229.33333333333331</ele><time>2026-05-01T14:09:00.183Z</time></trkpt><trkpt lat="45.9620967" lon="11.7102817"><ele>232.66666666666669</ele><time>2026-05-01T14:09:01.184Z</time></trkpt><trkpt lat="45.9619317" lon="11.710215"><ele>236.0</ele><time>2026-05-01T14:09:02.187Z</time></trkpt><trkpt lat="45.961775" lon="11.7101517"><ele>233.0</ele><time>2026-05-01T14:09:03.188Z</time></trkpt><trkpt lat="45.9616267" lon="11.7100883"><ele>230.0</ele><time>2026-05-01T14:09:04.184Z</time></trkpt><trkpt lat="45.961485" lon="11.7100233"><ele>227.0</ele><time>2026-05-01T14:09:05.187Z</time></trkpt><trkpt lat="45.9613533" lon="11.709955"><ele>224.0</ele><time>2026-05-01T14:09:06.185Z</time></trkpt><trkpt lat="45.9612333" lon="11.7098517"><ele>224.0</ele><time>2026-05-01T14:09:07.182Z</time></trkpt><trkpt lat="45.9611233" lon="11.7097083"><ele>224.0</ele><time>2026-05-01T14:09:08.184Z</time></trkpt><trkpt lat="45.9610267" lon="11.70956"><ele>224.0</ele><time>2026-05-01T14:09:09.186Z</time></trkpt><trkpt lat="45.9609467" lon="11.7094267"><ele>224.0</ele><time>2026-05-01T14:09:10.188Z</time></trkpt><trkpt lat="45.9608817" lon="11.7093"><ele>222.83333333333334</ele><time>2026-05-01T14:09:11.184Z</time></trkpt><trkpt lat="45.9608267" lon="11.709185"><ele>221.66666666666669</ele><time>2026-05-01T14:09:12.185Z</time></trkpt><trkpt lat="45.9607817" lon="11.7090983"><ele>220.5</ele><time>2026-05-01T14:09:13.185Z</time></trkpt><trkpt lat="45.9607367" lon="11.708985"><ele>219.33333333333331</ele><time>2026-05-01T14:09:15.184Z</time></trkpt><trkpt lat="45.9606583" lon="11.7088817"><ele>218.16666666666666</ele><time>2026-05-01T14:09:28.265Z</time></trkpt><trkpt lat="45.96058" lon="11.7088667"><ele>217.0</ele><time>2026-05-01T14:09:29.186Z</time></trkpt><trkpt lat="45.9604617" lon="11.708895"><ele>217.0</ele><time>2026-05-01T14:09:30.185Z</time></trkpt><trkpt lat="45.9603417" lon="11.7089367"><ele>217.0</ele><time>2026-05-01T14:09:31.185Z</time></trkpt><trkpt lat="45.9602117" lon="11.7089833"><ele>217.0</ele><time>2026-05-01T14:09:32.185Z</time></trkpt><trkpt lat="45.96007" lon="11.7090483"><ele>217.0</ele><time>2026-05-01T14:09:33.186Z</time></trkpt><trkpt lat="45.95993" lon="11.7091133"><ele>219.33333333333331</ele><time>2026-05-01T14:09:34.186Z</time></trkpt><trkpt lat="45.959795" lon="11.7091917"><ele>221.66666666666669</ele><time>2026-05-01T14:09:35.185Z</time></trkpt><trkpt lat="45.9596617" lon="11.70929"><ele>224.0</ele><time>2026-05-01T14:09:36.19Z</time></trkpt><trkpt lat="45.95953" lon="11.70941"><ele>224.66666666666669</ele><time>2026-05-01T14:09:37.185Z</time></trkpt><trkpt lat="45.9593967" lon="11.7095517"><ele>225.33333333333331</ele><time>2026-05-01T14:09:38.189Z</time></trkpt><trkpt lat="45.959265" lon="11.7097017"><ele>226.0</ele><time>2026-05-01T14:09:39.186Z</time></trkpt><trkpt lat="45.959125" lon="11.70984"><ele>226.0</ele><time>2026-05-01T14:09:40.185Z</time></trkpt><trkpt lat="45.9589783" lon="11.7099633"><ele>226.0</ele><time>2026-05-01T14:09:41.187Z</time></trkpt><trkpt lat="45.9588283" lon="11.7100917"><ele>226.0</ele><time>2026-05-01T14:09:42.185Z</time></trkpt><trkpt lat="45.958685" lon="11.7102283"><ele>228.25</ele><time>2026-05-01T14:09:43.182Z</time></trkpt><trkpt lat="45.95856" lon="11.7103533"><ele>230.5</ele><time>2026-05-01T14:09:44.187Z</time></trkpt><trkpt lat="45.9584567" lon="11.7104617"><ele>232.75</ele><time>2026-05-01T14:09:45.19Z</time></trkpt><trkpt lat="45.958365" lon="11.7105583"><ele>235.0</ele><time>2026-05-01T14:09:46.184Z</time></trkpt><trkpt lat="45.95828" lon="11.7106317"><ele>235.0</ele><time>2026-05-01T14:09:47.185Z</time></trkpt><trkpt lat="45.9582033" lon="11.7106983"><ele>235.0</ele><time>2026-05-01T14:09:48.185Z</time></trkpt><trkpt lat="45.9581167" lon="11.7107317"><ele>235.0</ele><time>2026-05-01T14:09:49.185Z</time></trkpt><trkpt lat="45.9580233" lon="11.7107067"><ele>235.0</ele><time>2026-05-01T14:09:50.185Z</time></trkpt><trkpt lat="45.9579333" lon="11.710645"><ele>235.0</ele><time>2026-05-01T14:09:51.184Z</time></trkpt><trkpt lat="45.957855" lon="11.7105333"><ele>235.0</ele><time>2026-05-01T14:09:52.186Z</time></trkpt><trkpt lat="45.9577867" lon="11.710425"><ele>235.0</ele><time>2026-05-01T14:09:53.185Z</time></trkpt><trkpt lat="45.957725" lon="11.7103333"><ele>235.0</ele><time>2026-05-01T14:09:54.184Z</time></trkpt><trkpt lat="45.9576717" lon="11.7102367"><ele>235.0</ele><time>2026-05-01T14:09:55.185Z</time></trkpt><trkpt lat="45.9576483" lon="11.71012"><ele>235.0</ele><time>2026-05-01T14:09:56.184Z</time></trkpt><trkpt lat="45.9576483" lon="11.7099917"><ele>231.0</ele><time>2026-05-01T14:09:57.184Z</time></trkpt><trkpt lat="45.957685" lon="11.70988"><ele>227.0</ele><time>2026-05-01T14:09:58.183Z</time></trkpt><trkpt lat="45.9577517" lon="11.7097933"><ele>223.0</ele><time>2026-05-01T14:09:59.186Z</time></trkpt><trkpt lat="45.9578367" lon="11.7097333"><ele>219.0</ele><time>2026-05-01T14:10:00.184Z</time></trkpt><trkpt lat="45.957945" lon="11.709705"><ele>215.0</ele><time>2026-05-01T14:10:01.186Z</time></trkpt><trkpt lat="45.9580667" lon="11.7097017"><ele>215.0</ele><time>2026-05-01T14:10:02.185Z</time></trkpt><trkpt lat="45.9581867" lon="11.7096867"><ele>215.0</ele><time>2026-05-01T14:10:03.185Z</time></trkpt><trkpt lat="45.9583017" lon="11.70966"><ele>215.0</ele><time>2026-05-01T14:10:04.187Z</time></trkpt><trkpt lat="45.9584133" lon="11.7096167"><ele>215.0</ele><time>2026-05-01T14:10:05.184Z</time></trkpt><trkpt lat="45.9585117" lon="11.7095433"><ele>215.25</ele><time>2026-05-01T14:10:06.187Z</time></trkpt><trkpt lat="45.95861" lon="11.70944"><ele>215.5</ele><time>2026-05-01T14:10:07.186Z</time></trkpt><trkpt lat="45.9587067" lon="11.70932"><ele>215.75</ele><time>2026-05-01T14:10:08.189Z</time></trkpt><trkpt lat="45.9588117" lon="11.7092133"><ele>216.0</ele><time>2026-05-01T14:10:09.184Z</time></trkpt><trkpt lat="45.9589167" lon="11.7091183"><ele>216.0</ele><time>2026-05-01T14:10:10.187Z</time></trkpt><trkpt lat="45.9590167" lon="11.7090317"><ele>216.00000000000003</ele><time>2026-05-01T14:10:11.185Z</time></trkpt><trkpt lat="45.9591117" lon="11.7089533"><ele>216.00000000000003</ele><time>2026-05-01T14:10:12.185Z</time></trkpt><trkpt lat="45.9591967" lon="11.7088783"><ele>216.0</ele><time>2026-05-01T14:10:13.187Z</time></trkpt><trkpt lat="45.959275" lon="11.70881"><ele>216.0</ele><time>2026-05-01T14:10:14.184Z</time></trkpt><trkpt lat="45.9593517" lon="11.7087417"><ele>216.0</ele><time>2026-05-01T14:10:15.185Z</time></trkpt><trkpt lat="45.9594167" lon="11.70867"><ele>216.0</ele><time>2026-05-01T14:10:16.184Z</time></trkpt><trkpt lat="45.9594633" lon="11.7085967"><ele>216.0</ele><time>2026-05-01T14:10:17.184Z</time></trkpt><trkpt lat="45.9595017" lon="11.70845"><ele>216.0</ele><time>2026-05-01T14:10:19.188Z</time></trkpt><trkpt lat="45.9595017" lon="11.708345"><ele>216.0</ele><time>2026-05-01T14:10:20.186Z</time></trkpt><trkpt lat="45.9594933" lon="11.7082183"><ele>216.0</ele><time>2026-05-01T14:10:21.185Z</time></trkpt><trkpt lat="45.9594733" lon="11.708065"><ele>216.0</ele><time>2026-05-01T14:10:22.184Z</time></trkpt><trkpt lat="45.95946" lon="11.7078933"><ele>216.0</ele><time>2026-05-01T14:10:23.184Z</time></trkpt><trkpt lat="45.9594433" lon="11.7077167"><ele>216.0</ele><time>2026-05-01T14:10:24.187Z</time></trkpt><trkpt lat="45.9594283" lon="11.7075533"><ele>216.0</ele><time>2026-05-01T14:10:25.186Z</time></trkpt><trkpt lat="45.9594117" lon="11.7074033"><ele>215.66666666666666</ele><time>2026-05-01T14:10:26.187Z</time></trkpt><trkpt lat="45.959395" lon="11.707265"><ele>215.33333333333331</ele><time>2026-05-01T14:10:27.188Z</time></trkpt><trkpt lat="45.9593783" lon="11.7071267"><ele>215.0</ele><time>2026-05-01T14:10:28.188Z</time></trkpt><trkpt lat="45.959365" lon="11.7069967"><ele>214.66666666666666</ele><time>2026-05-01T14:10:29.183Z</time></trkpt><trkpt lat="45.9593567" lon="11.7068883"><ele>214.33333333333331</ele><time>2026-05-01T14:10:30.184Z</time></trkpt><trkpt lat="45.9593483" lon="11.7067983"><ele>214.0</ele><time>2026-05-01T14:10:31.185Z</time></trkpt><trkpt lat="45.9593367" lon="11.7066967"><ele>215.99999999999997</ele><time>2026-05-01T14:10:33.188Z</time></trkpt><trkpt lat="45.9593067" lon="11.7065917"><ele>218.0</ele><time>2026-05-01T14:10:54.186Z</time></trkpt><trkpt lat="45.9592417" lon="11.7065467"><ele>220.0</ele><time>2026-05-01T14:10:55.187Z</time></trkpt><trkpt lat="45.9591617" lon="11.70652"><ele>222.0</ele><time>2026-05-01T14:10:56.185Z</time></trkpt><trkpt lat="45.9590733" lon="11.7065017"><ele>223.99999999999997</ele><time>2026-05-01T14:10:57.184Z</time></trkpt><trkpt lat="45.9589633" lon="11.706515"><ele>226.0</ele><time>2026-05-01T14:10:58.186Z</time></trkpt><trkpt lat="45.9588467" lon="11.70655"><ele>226.0</ele><time>2026-05-01T14:10:59.186Z</time></trkpt><trkpt lat="45.9587233" lon="11.706595"><ele>226.0</ele><time>2026-05-01T14:11:00.186Z</time></trkpt><trkpt lat="45.9586" lon="11.7066633"><ele>226.0</ele><time>2026-05-01T14:11:01.186Z</time></trkpt><trkpt lat="45.958475" lon="11.7067583"><ele>226.0</ele><time>2026-05-01T14:11:02.186Z</time></trkpt><trkpt lat="45.9583517" lon="11.706875"><ele>223.75</ele><time>2026-05-01T14:11:03.184Z</time></trkpt><trkpt lat="45.9582217" lon="11.7069883"><ele>221.5</ele><time>2026-05-01T14:11:04.184Z</time></trkpt><trkpt lat="45.9581" lon="11.7071033"><ele>219.25</ele><time>2026-05-01T14:11:05.185Z</time></trkpt><trkpt lat="45.957985" lon="11.70721"><ele>217.0</ele><time>2026-05-01T14:11:06.185Z</time></trkpt><trkpt lat="45.957875" lon="11.7073133"><ele>217.0</ele><time>2026-05-01T14:11:07.187Z</time></trkpt><trkpt lat="45.9577633" lon="11.70741"><ele>217.0</ele><time>2026-05-01T14:11:08.184Z</time></trkpt><trkpt lat="45.957635" lon="11.7074817"><ele>217.0</ele><time>2026-05-01T14:11:09.184Z</time></trkpt><trkpt lat="45.9574933" lon="11.70754"><ele>217.0</ele><time>2026-05-01T14:11:10.185Z</time></trkpt><trkpt lat="45.9573417" lon="11.7075967"><ele>216.66666666666666</ele><time>2026-05-01T14:11:11.184Z</time></trkpt><trkpt lat="45.9571783" lon="11.7076833"><ele>216.33333333333331</ele><time>2026-05-01T14:11:12.185Z</time></trkpt><trkpt lat="45.9569967" lon="11.7077933"><ele>216.0</ele><time>2026-05-01T14:11:13.183Z</time></trkpt><trkpt lat="45.9568" lon="11.70789"><ele>220.33333333333331</ele><time>2026-05-01T14:11:14.186Z</time></trkpt><trkpt lat="45.9566033" lon="11.7079933"><ele>224.66666666666666</ele><time>2026-05-01T14:11:15.187Z</time></trkpt><trkpt lat="45.9564133" lon="11.7080917"><ele>229.0</ele><time>2026-05-01T14:11:16.184Z</time></trkpt><trkpt lat="45.956235" lon="11.7081883"><ele>229.0</ele><time>2026-05-01T14:11:17.188Z</time></trkpt><trkpt lat="45.9560633" lon="11.7082833"><ele>229.0</ele><time>2026-05-01T14:11:18.185Z</time></trkpt><trkpt lat="45.9558933" lon="11.708405"><ele>229.0</ele><time>2026-05-01T14:11:19.184Z</time></trkpt><trkpt lat="45.9557283" lon="11.708545"><ele>230.33333333333331</ele><time>2026-05-01T14:11:20.184Z</time></trkpt><trkpt lat="45.9555683" lon="11.70869"><ele>231.66666666666669</ele><time>2026-05-01T14:11:21.187Z</time></trkpt><trkpt lat="45.9554133" lon="11.7088417"><ele>233.0</ele><time>2026-05-01T14:11:22.187Z</time></trkpt><trkpt lat="45.955265" lon="11.709015"><ele>233.0</ele><time>2026-05-01T14:11:23.186Z</time></trkpt><trkpt lat="45.9551233" lon="11.7092067"><ele>233.0</ele><time>2026-05-01T14:11:24.184Z</time></trkpt><trkpt lat="45.95499" lon="11.70941"><ele>233.0</ele><time>2026-05-01T14:11:25.186Z</time></trkpt><trkpt lat="45.95487" lon="11.7096333"><ele>231.0</ele><time>2026-05-01T14:11:26.185Z</time></trkpt><trkpt lat="45.9547583" lon="11.7098483"><ele>229.0</ele><time>2026-05-01T14:11:27.185Z</time></trkpt><trkpt lat="45.954655" lon="11.7100583"><ele>227.0</ele><time>2026-05-01T14:11:28.186Z</time></trkpt><trkpt lat="45.954565" lon="11.71026"><ele>227.0</ele><time>2026-05-01T14:11:29.184Z</time></trkpt><trkpt lat="45.9544933" lon="11.7104433"><ele>227.0</ele><time>2026-05-01T14:11:30.187Z</time></trkpt><trkpt lat="45.95443" lon="11.710605"><ele>227.0</ele><time>2026-05-01T14:11:31.184Z</time></trkpt><trkpt lat="45.9543717" lon="11.7107433"><ele>227.0</ele><time>2026-05-01T14:11:32.184Z</time></trkpt><trkpt lat="45.9543267" lon="11.7108533"><ele>227.00000000000003</ele><time>2026-05-01T14:11:33.185Z</time></trkpt><trkpt lat="45.9542983" lon="11.710935"><ele>227.0</ele><time>2026-05-01T14:11:34.191Z</time></trkpt><trkpt lat="45.9542633" lon="11.7110417"><ele>227.0</ele><time>2026-05-01T14:11:36.188Z</time></trkpt><trkpt lat="45.9542333" lon="11.7111283"><ele>227.0</ele><time>2026-05-01T14:11:38.184Z</time></trkpt><trkpt lat="45.9541917" lon="11.7112367"><ele>227.00000000000003</ele><time>2026-05-01T14:11:54.186Z</time></trkpt><trkpt lat="45.954145" lon="11.7113233"><ele>227.0</ele><time>2026-05-01T14:12:21.185Z</time></trkpt><trkpt lat="45.954095" lon="11.7114033"><ele>232.6</ele><time>2026-05-01T14:12:48.183Z</time></trkpt><trkpt lat="45.954045" lon="11.71124"><ele>238.2</ele><time>2026-05-01T14:18:08.184Z</time></trkpt><trkpt lat="45.9540817" lon="11.71111"><ele>243.8</ele><time>2026-05-01T14:18:10.184Z</time></trkpt><trkpt lat="45.9541133" lon="11.7110217"><ele>249.4</ele><time>2026-05-01T14:18:11.186Z</time></trkpt><trkpt lat="45.9541483" lon="11.7109067"><ele>255.0</ele><time>2026-05-01T14:18:12.183Z</time></trkpt><trkpt lat="45.954175" lon="11.710785"><ele>252.8</ele><time>2026-05-01T14:18:13.184Z</time></trkpt><trkpt lat="45.9542033" lon="11.7106533"><ele>250.6</ele><time>2026-05-01T14:18:14.184Z</time></trkpt><trkpt lat="45.9542383" lon="11.7105067"><ele>248.39999999999998</ele><time>2026-05-01T14:18:15.186Z</time></trkpt><trkpt lat="45.9542717" lon="11.7103483"><ele>246.2</ele><time>2026-05-01T14:18:16.183Z</time></trkpt><trkpt lat="45.9543167" lon="11.710185"><ele>244.0</ele><time>2026-05-01T14:18:17.188Z</time></trkpt><trkpt lat="45.9543617" lon="11.7100167"><ele>244.0</ele><time>2026-05-01T14:18:18.185Z</time></trkpt><trkpt lat="45.9544033" lon="11.709845"><ele>244.0</ele><time>2026-05-01T14:18:19.184Z</time></trkpt><trkpt lat="45.9544533" lon="11.7096817"><ele>244.0</ele><time>2026-05-01T14:18:20.184Z</time></trkpt><trkpt lat="45.9545017" lon="11.7095117"><ele>244.0</ele><time>2026-05-01T14:18:21.188Z</time></trkpt><trkpt lat="45.9545633" lon="11.7093433"><ele>248.0</ele><time>2026-05-01T14:18:22.183Z</time></trkpt><trkpt lat="45.9546367" lon="11.7091717"><ele>252.0</ele><time>2026-05-01T14:18:23.185Z</time></trkpt><trkpt lat="45.9547017" lon="11.7089983"><ele>256.0</ele><time>2026-05-01T14:18:24.183Z</time></trkpt><trkpt lat="45.95477" lon="11.70884"><ele>260.0</ele><time>2026-05-01T14:18:25.186Z</time></trkpt><trkpt lat="45.9548283" lon="11.708695"><ele>260.0</ele><time>2026-05-01T14:18:26.184Z</time></trkpt><trkpt lat="45.9548717" lon="11.7085783"><ele>260.0</ele><time>2026-05-01T14:18:27.187Z</time></trkpt><trkpt lat="45.9549117" lon="11.7084917"><ele>260.0</ele><time>2026-05-01T14:18:28.182Z</time></trkpt><trkpt lat="45.9549583" lon="11.70836"><ele>260.0</ele><time>2026-05-01T14:18:30.186Z</time></trkpt><trkpt lat="45.9548783" lon="11.7083"><ele>260.0</ele><time>2026-05-01T14:18:32.186Z</time></trkpt><trkpt lat="45.95482" lon="11.70835"><ele>260.0</ele><time>2026-05-01T14:18:33.185Z</time></trkpt><trkpt lat="45.9547683" lon="11.7084417"><ele>260.0</ele><time>2026-05-01T14:18:34.187Z</time></trkpt><trkpt lat="45.9547233" lon="11.7085617"><ele>260.0</ele><time>2026-05-01T14:18:35.183Z</time></trkpt><trkpt lat="45.9546717" lon="11.7086867"><ele>260.0</ele><time>2026-05-01T14:18:36.184Z</time></trkpt><trkpt lat="45.9546" lon="11.7088233"><ele>260.0</ele><time>2026-05-01T14:18:37.184Z</time></trkpt><trkpt lat="45.95452" lon="11.7089717"><ele>260.0</ele><time>2026-05-01T14:18:38.188Z</time></trkpt><trkpt lat="45.95444" lon="11.70912"><ele>260.0</ele><time>2026-05-01T14:18:39.188Z</time></trkpt><trkpt lat="45.9543567" lon="11.7092733"><ele>260.0</ele><time>2026-05-01T14:18:40.185Z</time></trkpt><trkpt lat="45.9542683" lon="11.7094283"><ele>260.0</ele><time>2026-05-01T14:18:41.185Z</time></trkpt><trkpt lat="45.95419" lon="11.7096017"><ele>260.0</ele><time>2026-05-01T14:18:42.186Z</time></trkpt><trkpt lat="45.9541117" lon="11.7097917"><ele>262.0</ele><time>2026-05-01T14:18:43.185Z</time></trkpt><trkpt lat="45.954035" lon="11.7099817"><ele>264.0</ele><time>2026-05-01T14:18:44.187Z</time></trkpt><trkpt lat="45.9539583" lon="11.7101633"><ele>266.0</ele><time>2026-05-01T14:18:45.183Z</time></trkpt><trkpt lat="45.9538817" lon="11.710335"><ele>268.0</ele><time>2026-05-01T14:18:46.19Z</time></trkpt><trkpt lat="45.953815" lon="11.7104967"><ele>268.0</ele><time>2026-05-01T14:18:47.183Z</time></trkpt><trkpt lat="45.9537567" lon="11.7106683"><ele>268.0</ele><time>2026-05-01T14:18:48.186Z</time></trkpt><trkpt lat="45.9537233" lon="11.710855"><ele>268.0</ele><time>2026-05-01T14:18:49.185Z</time></trkpt><trkpt lat="45.9537017" lon="11.7110533"><ele>268.0</ele><time>2026-05-01T14:18:50.186Z</time></trkpt><trkpt lat="45.9536867" lon="11.71125"><ele>265.4</ele><time>2026-05-01T14:18:51.184Z</time></trkpt><trkpt lat="45.9536883" lon="11.7114283"><ele>262.8</ele><time>2026-05-01T14:18:52.184Z</time></trkpt><trkpt lat="45.9536767" lon="11.711585"><ele>260.2</ele><time>2026-05-01T14:18:53.185Z</time></trkpt><trkpt lat="45.9536583" lon="11.7117317"><ele>257.6</ele><time>2026-05-01T14:18:54.185Z</time></trkpt><trkpt lat="45.9536" lon="11.7118617"><ele>255.0</ele><time>2026-05-01T14:18:55.185Z</time></trkpt><trkpt lat="45.95351" lon="11.7119817"><ele>253.0</ele><time>2026-05-01T14:18:56.185Z</time></trkpt><trkpt lat="45.953435" lon="11.7121183"><ele>251.0</ele><time>2026-05-01T14:18:57.188Z</time></trkpt><trkpt lat="45.9533617" lon="11.71227"><ele>249.0</ele><time>2026-05-01T14:18:58.184Z</time></trkpt><trkpt lat="45.9533" lon="11.7124383"><ele>247.0</ele><time>2026-05-01T14:18:59.185Z</time></trkpt><trkpt lat="45.953265" lon="11.71263"><ele>262.25</ele><time>2026-05-01T14:19:00.185Z</time></trkpt><trkpt lat="45.95324" lon="11.71283"><ele>277.5</ele><time>2026-05-01T14:19:01.183Z</time></trkpt><trkpt lat="45.953225" lon="11.7130183"><ele>292.75</ele><time>2026-05-01T14:19:02.184Z</time></trkpt><trkpt lat="45.9532183" lon="11.7131833"><ele>308.0</ele><time>2026-05-01T14:19:03.185Z</time></trkpt><trkpt lat="45.9532133" lon="11.713315"><ele>308.0</ele><time>2026-05-01T14:19:04.181Z</time></trkpt><trkpt lat="45.9532117" lon="11.7134067"><ele>308.0</ele><time>2026-05-01T14:19:05.185Z</time></trkpt><trkpt lat="45.95319" lon="11.7134967"><ele>308.0</ele><time>2026-05-01T14:19:07.183Z</time></trkpt><trkpt lat="45.9531233" lon="11.7134133"><ele>308.0</ele><time>2026-05-01T14:19:10.184Z</time></trkpt><trkpt lat="45.9531133" lon="11.7133083"><ele>308.0</ele><time>2026-05-01T14:19:11.183Z</time></trkpt><trkpt lat="45.9531183" lon="11.7131733"><ele>308.0</ele><time>2026-05-01T14:19:12.186Z</time></trkpt><trkpt lat="45.9531383" lon="11.7130183"><ele>308.0</ele><time>2026-05-01T14:19:13.185Z</time></trkpt><trkpt lat="45.9531367" lon="11.7128467"><ele>308.0</ele><time>2026-05-01T14:19:14.187Z</time></trkpt><trkpt lat="45.9531367" lon="11.712655"><ele>308.0</ele><time>2026-05-01T14:19:15.183Z</time></trkpt><trkpt lat="45.9531433" lon="11.7124567"><ele>308.0</ele><time>2026-05-01T14:19:16.184Z</time></trkpt><trkpt lat="45.95317" lon="11.7122667"><ele>309.75</ele><time>2026-05-01T14:19:17.185Z</time></trkpt><trkpt lat="45.953215" lon="11.7120883"><ele>311.5</ele><time>2026-05-01T14:19:18.186Z</time></trkpt><trkpt lat="45.95328" lon="11.711915"><ele>313.25</ele><time>2026-05-01T14:19:19.188Z</time></trkpt><trkpt lat="45.9533467" lon="11.711755"><ele>315.0</ele><time>2026-05-01T14:19:20.185Z</time></trkpt><trkpt lat="45.95341" lon="11.7115983"><ele>303.25</ele><time>2026-05-01T14:19:21.184Z</time></trkpt><trkpt lat="45.9534417" lon="11.7114183"><ele>291.5</ele><time>2026-05-01T14:19:22.184Z</time></trkpt><trkpt lat="45.95345" lon="11.71121"><ele>279.75</ele><time>2026-05-01T14:19:23.183Z</time></trkpt><trkpt lat="45.9534483" lon="11.71098"><ele>268.0</ele><time>2026-05-01T14:19:24.182Z</time></trkpt><trkpt lat="45.9534567" lon="11.710745"><ele>268.0</ele><time>2026-05-01T14:19:25.186Z</time></trkpt><trkpt lat="45.95347" lon="11.7105083"><ele>268.0</ele><time>2026-05-01T14:19:26.184Z</time></trkpt><trkpt lat="45.95349" lon="11.71028"><ele>268.0</ele><time>2026-05-01T14:19:27.183Z</time></trkpt><trkpt lat="45.953515" lon="11.71006"><ele>271.5</ele><time>2026-05-01T14:19:28.184Z</time></trkpt><trkpt lat="45.95353" lon="11.7098483"><ele>275.0</ele><time>2026-05-01T14:19:29.185Z</time></trkpt><trkpt lat="45.95353" lon="11.7096533"><ele>278.5</ele><time>2026-05-01T14:19:30.186Z</time></trkpt><trkpt lat="45.9535367" lon="11.7094733"><ele>282.0</ele><time>2026-05-01T14:19:31.185Z</time></trkpt><trkpt lat="45.9535633" lon="11.7092967"><ele>288.5</ele><time>2026-05-01T14:19:32.183Z</time></trkpt><trkpt lat="45.9536217" lon="11.7091283"><ele>295.0</ele><time>2026-05-01T14:19:33.186Z</time></trkpt><trkpt lat="45.9537083" lon="11.7089633"><ele>301.5</ele><time>2026-05-01T14:19:34.186Z</time></trkpt><trkpt lat="45.9538067" lon="11.7088133"><ele>308.0</ele><time>2026-05-01T14:19:35.184Z</time></trkpt><trkpt lat="45.953905" lon="11.7086817"><ele>316.33333333333337</ele><time>2026-05-01T14:19:36.185Z</time></trkpt><trkpt lat="45.95398" lon="11.7085683"><ele>324.6666666666667</ele><time>2026-05-01T14:19:37.188Z</time></trkpt><trkpt lat="45.95404" lon="11.7084767"><ele>333.0</ele><time>2026-05-01T14:19:38.184Z</time></trkpt><trkpt lat="45.9540933" lon="11.70841"><ele>341.3333333333333</ele><time>2026-05-01T14:19:39.185Z</time></trkpt><trkpt lat="45.954105" lon="11.708285"><ele>349.66666666666663</ele><time>2026-05-01T14:19:41.185Z</time></trkpt><trkpt lat="45.9540217" lon="11.7082783"><ele>358.0</ele><time>2026-05-01T14:19:43.185Z</time></trkpt><trkpt lat="45.9538967" lon="11.7084767"><ele>341.3333333333333</ele><time>2026-05-01T14:19:45.185Z</time></trkpt><trkpt lat="45.9538" lon="11.708655"><ele>324.6666666666667</ele><time>2026-05-01T14:19:46.189Z</time></trkpt><trkpt lat="45.9537" lon="11.7088183"><ele>308.0</ele><time>2026-05-01T14:19:47.183Z</time></trkpt><trkpt lat="45.9536067" lon="11.70898"><ele>308.0</ele><time>2026-05-01T14:19:48.185Z</time></trkpt><trkpt lat="45.9535233" lon="11.7091617"><ele>308.0</ele><time>2026-05-01T14:19:49.185Z</time></trkpt><trkpt lat="45.9534583" lon="11.7093817"><ele>308.0</ele><time>2026-05-01T14:19:50.184Z</time></trkpt><trkpt lat="45.9534117" lon="11.7096267"><ele>320.6666666666667</ele><time>2026-05-01T14:19:51.183Z</time></trkpt><trkpt lat="45.95337" lon="11.7098767"><ele>333.3333333333333</ele><time>2026-05-01T14:19:52.184Z</time></trkpt><trkpt lat="45.9533267" lon="11.7101317"><ele>346.0</ele><time>2026-05-01T14:19:53.185Z</time></trkpt><trkpt lat="45.9532767" lon="11.7103817"><ele>346.0</ele><time>2026-05-01T14:19:54.185Z</time></trkpt><trkpt lat="45.9532133" lon="11.7106083"><ele>346.0</ele><time>2026-05-01T14:19:55.184Z</time></trkpt><trkpt lat="45.95315" lon="11.7108067"><ele>346.0</ele><time>2026-05-01T14:19:56.184Z</time></trkpt><trkpt lat="45.9531017" lon="11.7110017"><ele>339.0</ele><time>2026-05-01T14:19:57.185Z</time></trkpt><trkpt lat="45.9531017" lon="11.7112267"><ele>332.0</ele><time>2026-05-01T14:19:58.184Z</time></trkpt><trkpt lat="45.953075" lon="11.7114467"><ele>325.0</ele><time>2026-05-01T14:19:59.185Z</time></trkpt><trkpt lat="45.95305" lon="11.7116633"><ele>325.0</ele><time>2026-05-01T14:20:00.186Z</time></trkpt><trkpt lat="45.9530067" lon="11.71187"><ele>325.0</ele><time>2026-05-01T14:20:01.184Z</time></trkpt><trkpt lat="45.9529517" lon="11.71207"><ele>325.0</ele><time>2026-05-01T14:20:02.184Z</time></trkpt><trkpt lat="45.9528733" lon="11.7122617"><ele>322.5</ele><time>2026-05-01T14:20:03.184Z</time></trkpt><trkpt lat="45.952785" lon="11.7124367"><ele>320.0</ele><time>2026-05-01T14:20:04.185Z</time></trkpt><trkpt lat="45.95272" lon="11.712605"><ele>317.5</ele><time>2026-05-01T14:20:05.183Z</time></trkpt><trkpt lat="45.9526683" lon="11.7127667"><ele>315.0</ele><time>2026-05-01T14:20:06.185Z</time></trkpt><trkpt lat="45.9526367" lon="11.7129233"><ele>313.25</ele><time>2026-05-01T14:20:07.189Z</time></trkpt><trkpt lat="45.9526383" lon="11.7131083"><ele>311.5</ele><time>2026-05-01T14:20:08.186Z</time></trkpt><trkpt lat="45.952655" lon="11.713315"><ele>309.75</ele><time>2026-05-01T14:20:09.186Z</time></trkpt><trkpt lat="45.9526817" lon="11.713535"><ele>308.0</ele><time>2026-05-01T14:20:10.186Z</time></trkpt><trkpt lat="45.9527267" lon="11.7137483"><ele>314.5</ele><time>2026-05-01T14:20:11.186Z</time></trkpt><trkpt lat="45.9527683" lon="11.71394"><ele>321.0</ele><time>2026-05-01T14:20:12.183Z</time></trkpt><trkpt lat="45.9527967" lon="11.7141217"><ele>327.5</ele><time>2026-05-01T14:20:13.184Z</time></trkpt><trkpt lat="45.95282" lon="11.714305"><ele>334.0</ele><time>2026-05-01T14:20:14.186Z</time></trkpt><trkpt lat="45.9528333" lon="11.71448"><ele>335.0</ele><time>2026-05-01T14:20:15.186Z</time></trkpt><trkpt lat="45.9528333" lon="11.71464"><ele>336.0</ele><time>2026-05-01T14:20:16.184Z</time></trkpt><trkpt lat="45.9528083" lon="11.714805"><ele>337.0</ele><time>2026-05-01T14:20:17.184Z</time></trkpt><trkpt lat="45.95274" lon="11.7149717"><ele>338.0</ele><time>2026-05-01T14:20:18.183Z</time></trkpt><trkpt lat="45.952695" lon="11.7151617"><ele>328.33333333333337</ele><time>2026-05-01T14:20:19.186Z</time></trkpt><trkpt lat="45.9526867" lon="11.715385"><ele>318.6666666666667</ele><time>2026-05-01T14:20:20.187Z</time></trkpt><trkpt lat="45.95267" lon="11.715625"><ele>309.0</ele><time>2026-05-01T14:20:21.186Z</time></trkpt><trkpt lat="45.9526567" lon="11.7158667"><ele>304.0</ele><time>2026-05-01T14:20:22.185Z</time></trkpt><trkpt lat="45.9526467" lon="11.7161083"><ele>299.0</ele><time>2026-05-01T14:20:23.183Z</time></trkpt><trkpt lat="45.95264" lon="11.7163417"><ele>294.0</ele><time>2026-05-01T14:20:24.183Z</time></trkpt><trkpt lat="45.9526317" lon="11.7165583"><ele>294.0</ele><time>2026-05-01T14:20:25.182Z</time></trkpt><trkpt lat="45.9526183" lon="11.71676"><ele>294.0</ele><time>2026-05-01T14:20:26.184Z</time></trkpt><trkpt lat="45.9525983" lon="11.7169617"><ele>294.0</ele><time>2026-05-01T14:20:27.189Z</time></trkpt><trkpt lat="45.9525683" lon="11.717155"><ele>294.0</ele><time>2026-05-01T14:20:28.183Z</time></trkpt><trkpt lat="45.9525267" lon="11.7173317"><ele>306.1666666666667</ele><time>2026-05-01T14:20:29.185Z</time></trkpt><trkpt lat="45.9524867" lon="11.71747"><ele>318.3333333333333</ele><time>2026-05-01T14:20:30.182Z</time></trkpt><trkpt lat="45.9524617" lon="11.7175683"><ele>330.5</ele><time>2026-05-01T14:20:31.185Z</time></trkpt><trkpt lat="45.9523817" lon="11.717605"><ele>342.66666666666663</ele><time>2026-05-01T14:20:33.184Z</time></trkpt><trkpt lat="45.9523483" lon="11.7175183"><ele>354.8333333333333</ele><time>2026-05-01T14:20:34.183Z</time></trkpt><trkpt lat="45.9523667" lon="11.7173817"><ele>367.0</ele><time>2026-05-01T14:20:35.182Z</time></trkpt><trkpt lat="45.9524133" lon="11.7172117"><ele>367.0</ele><time>2026-05-01T14:20:36.186Z</time></trkpt><trkpt lat="45.9524533" lon="11.71703"><ele>367.0</ele><time>2026-05-01T14:20:37.185Z</time></trkpt><trkpt lat="45.9524683" lon="11.716835"><ele>367.0</ele><time>2026-05-01T14:20:38.183Z</time></trkpt><trkpt lat="45.9524717" lon="11.71663"><ele>367.0</ele><time>2026-05-01T14:20:39.185Z</time></trkpt><trkpt lat="45.95245" lon="11.7164117"><ele>369.25</ele><time>2026-05-01T14:20:40.189Z</time></trkpt><trkpt lat="45.95242" lon="11.7161883"><ele>371.5</ele><time>2026-05-01T14:20:41.188Z</time></trkpt><trkpt lat="45.952405" lon="11.7159883"><ele>373.75</ele><time>2026-05-01T14:20:42.185Z</time></trkpt><trkpt lat="45.9524" lon="11.7158133"><ele>376.0</ele><time>2026-05-01T14:20:43.184Z</time></trkpt><trkpt lat="45.9523967" lon="11.7156567"><ele>376.0</ele><time>2026-05-01T14:20:44.184Z</time></trkpt><trkpt lat="45.9523917" lon="11.715525"><ele>376.0</ele><time>2026-05-01T14:20:45.184Z</time></trkpt><trkpt lat="45.9523883" lon="11.71542"><ele>376.0</ele><time>2026-05-01T14:20:46.185Z</time></trkpt><trkpt lat="45.9523317" lon="11.7152867"><ele>376.0</ele><time>2026-05-01T14:20:48.187Z</time></trkpt><trkpt lat="45.9522133" lon="11.715285"><ele>376.0</ele><time>2026-05-01T14:20:50.184Z</time></trkpt><trkpt lat="45.9521683" lon="11.7153683"><ele>376.0</ele><time>2026-05-01T14:20:51.186Z</time></trkpt><trkpt lat="45.9521667" lon="11.715575"><ele>376.0</ele><time>2026-05-01T14:20:52.185Z</time></trkpt><trkpt lat="45.9521917" lon="11.7157917"><ele>376.0</ele><time>2026-05-01T14:20:53.185Z</time></trkpt><trkpt lat="45.95218" lon="11.716005"><ele>376.0</ele><time>2026-05-01T14:20:54.183Z</time></trkpt><trkpt lat="45.952155" lon="11.716235"><ele>376.3333333333333</ele><time>2026-05-01T14:20:55.183Z</time></trkpt><trkpt lat="45.9521283" lon="11.7164767"><ele>376.6666666666667</ele><time>2026-05-01T14:20:56.184Z</time></trkpt><trkpt lat="45.95212" lon="11.7167167"><ele>377.0</ele><time>2026-05-01T14:20:57.185Z</time></trkpt><trkpt lat="45.9521117" lon="11.7169367"><ele>374.5</ele><time>2026-05-01T14:20:58.183Z</time></trkpt><trkpt lat="45.9521067" lon="11.7171533"><ele>372.0</ele><time>2026-05-01T14:20:59.183Z</time></trkpt><trkpt lat="45.9520983" lon="11.7173667"><ele>369.5</ele><time>2026-05-01T14:21:00.184Z</time></trkpt><trkpt lat="45.95206" lon="11.7175733"><ele>367.0</ele><time>2026-05-01T14:21:01.185Z</time></trkpt><trkpt lat="45.95199" lon="11.7177783"><ele>360.0</ele><time>2026-05-01T14:21:02.185Z</time></trkpt><trkpt lat="45.9518933" lon="11.71798"><ele>353.0</ele><time>2026-05-01T14:21:03.184Z</time></trkpt><trkpt lat="45.951795" lon="11.71818"><ele>346.0</ele><time>2026-05-01T14:21:04.182Z</time></trkpt><trkpt lat="45.9516817" lon="11.7183733"><ele>363.0</ele><time>2026-05-01T14:21:05.184Z</time></trkpt><trkpt lat="45.9515417" lon="11.71856"><ele>380.0</ele><time>2026-05-01T14:21:06.182Z</time></trkpt><trkpt lat="45.95141" lon="11.7187583"><ele>397.0</ele><time>2026-05-01T14:21:07.187Z</time></trkpt><trkpt lat="45.951285" lon="11.7189883"><ele>397.0</ele><time>2026-05-01T14:21:08.183Z</time></trkpt><trkpt lat="45.9511533" lon="11.71921"><ele>397.0</ele><time>2026-05-01T14:21:09.186Z</time></trkpt><trkpt lat="45.9510233" lon="11.7194233"><ele>397.0</ele><time>2026-05-01T14:21:10.184Z</time></trkpt><trkpt lat="45.9508983" lon="11.7196083"><ele>403.0</ele><time>2026-05-01T14:21:11.183Z</time></trkpt><trkpt lat="45.95078" lon="11.7197783"><ele>409.0</ele><time>2026-05-01T14:21:12.185Z</time></trkpt><trkpt lat="45.9506733" lon="11.7199417"><ele>415.0</ele><time>2026-05-01T14:21:13.184Z</time></trkpt><trkpt lat="45.950575" lon="11.7200983"><ele>410.25</ele><time>2026-05-01T14:21:14.187Z</time></trkpt><trkpt lat="45.9504683" lon="11.7202367"><ele>405.5</ele><time>2026-05-01T14:21:15.185Z</time></trkpt><trkpt lat="45.9503533" lon="11.7203567"><ele>400.75</ele><time>2026-05-01T14:21:16.184Z</time></trkpt><trkpt lat="45.95023" lon="11.72046"><ele>396.0</ele><time>2026-05-01T14:21:17.182Z</time></trkpt><trkpt lat="45.95011" lon="11.72057"><ele>402.25</ele><time>2026-05-01T14:21:18.187Z</time></trkpt><trkpt lat="45.9499933" lon="11.7206717"><ele>408.5</ele><time>2026-05-01T14:21:19.185Z</time></trkpt><trkpt lat="45.949885" lon="11.720775"><ele>414.75</ele><time>2026-05-01T14:21:20.184Z</time></trkpt><trkpt lat="45.9497783" lon="11.7208767"><ele>421.0</ele><time>2026-05-01T14:21:21.185Z</time></trkpt><trkpt lat="45.9496617" lon="11.7209383"><ele>421.0</ele><time>2026-05-01T14:21:22.185Z</time></trkpt><trkpt lat="45.9495383" lon="11.720975"><ele>421.0</ele><time>2026-05-01T14:21:23.185Z</time></trkpt><trkpt lat="45.9494133" lon="11.720995"><ele>421.0</ele><time>2026-05-01T14:21:24.187Z</time></trkpt><trkpt lat="45.9492867" lon="11.7210233"><ele>421.0</ele><time>2026-05-01T14:21:25.186Z</time></trkpt><trkpt lat="45.949165" lon="11.7210667"><ele>417.5</ele><time>2026-05-01T14:21:26.186Z</time></trkpt><trkpt lat="45.9490433" lon="11.7211433"><ele>414.0</ele><time>2026-05-01T14:21:27.186Z</time></trkpt><trkpt lat="45.9489217" lon="11.7212567"><ele>410.5</ele><time>2026-05-01T14:21:28.187Z</time></trkpt><trkpt lat="45.9488" lon="11.7213883"><ele>407.0</ele><time>2026-05-01T14:21:29.186Z</time></trkpt><trkpt lat="45.94868" lon="11.721505"><ele>407.0</ele><time>2026-05-01T14:21:30.185Z</time></trkpt><trkpt lat="45.948565" lon="11.7216067"><ele>407.0</ele><time>2026-05-01T14:21:31.186Z</time></trkpt><trkpt lat="45.9484433" lon="11.72169"><ele>407.0</ele><time>2026-05-01T14:21:32.184Z</time></trkpt><trkpt lat="45.9483083" lon="11.721725"><ele>407.0</ele><time>2026-05-01T14:21:33.187Z</time></trkpt><trkpt lat="45.9481733" lon="11.721775"><ele>408.0</ele><time>2026-05-01T14:21:34.184Z</time></trkpt><trkpt lat="45.9480517" lon="11.721905"><ele>409.0</ele><time>2026-05-01T14:21:35.186Z</time></trkpt><trkpt lat="45.9479317" lon="11.72209"><ele>410.0</ele><time>2026-05-01T14:21:36.187Z</time></trkpt><trkpt lat="45.9478267" lon="11.7223083"><ele>410.0</ele><time>2026-05-01T14:21:37.185Z</time></trkpt><trkpt lat="45.9477167" lon="11.7225"><ele>410.0</ele><time>2026-05-01T14:21:38.188Z</time></trkpt><trkpt lat="45.9476233" lon="11.722665"><ele>410.0</ele><time>2026-05-01T14:21:39.188Z</time></trkpt><trkpt lat="45.947545" lon="11.722795"><ele>410.0</ele><time>2026-05-01T14:21:40.186Z</time></trkpt><trkpt lat="45.9474783" lon="11.72291"><ele>414.2</ele><time>2026-05-01T14:21:41.185Z</time></trkpt><trkpt lat="45.9474267" lon="11.723005"><ele>418.4</ele><time>2026-05-01T14:21:42.183Z</time></trkpt><trkpt lat="45.9473867" lon="11.723075"><ele>422.6</ele><time>2026-05-01T14:21:43.184Z</time></trkpt><trkpt lat="45.9472917" lon="11.72308"><ele>426.8</ele><time>2026-05-01T14:21:45.189Z</time></trkpt><trkpt lat="45.9472783" lon="11.7229067"><ele>431.0</ele><time>2026-05-01T14:21:47.185Z</time></trkpt><trkpt lat="45.9473333" lon="11.72279"><ele>432.5</ele><time>2026-05-01T14:21:48.187Z</time></trkpt><trkpt lat="45.9474067" lon="11.7226683"><ele>434.0</ele><time>2026-05-01T14:21:49.184Z</time></trkpt><trkpt lat="45.9475" lon="11.72252"><ele>435.5</ele><time>2026-05-01T14:21:50.185Z</time></trkpt><trkpt lat="45.9475933" lon="11.722365"><ele>437.0</ele><time>2026-05-01T14:21:51.187Z</time></trkpt><trkpt lat="45.947685" lon="11.722195"><ele>434.3333333333333</ele><time>2026-05-01T14:21:52.185Z</time></trkpt><trkpt lat="45.9477683" lon="11.722"><ele>431.66666666666663</ele><time>2026-05-01T14:21:53.188Z</time></trkpt><trkpt lat="45.9478433" lon="11.721805"><ele>429.0</ele><time>2026-05-01T14:21:54.186Z</time></trkpt><trkpt lat="45.9479283" lon="11.721625"><ele>429.0</ele><time>2026-05-01T14:21:55.186Z</time></trkpt><trkpt lat="45.94804" lon="11.7214617"><ele>429.0</ele><time>2026-05-01T14:21:56.185Z</time></trkpt><trkpt lat="45.9481883" lon="11.72134"><ele>429.0</ele><time>2026-05-01T14:21:57.184Z</time></trkpt><trkpt lat="45.9483383" lon="11.7212317"><ele>432.0</ele><time>2026-05-01T14:21:58.184Z</time></trkpt><trkpt lat="45.9484783" lon="11.7210933"><ele>435.0</ele><time>2026-05-01T14:21:59.187Z</time></trkpt><trkpt lat="45.948605" lon="11.72092"><ele>438.0</ele><time>2026-05-01T14:22:00.185Z</time></trkpt><trkpt lat="45.9487583" lon="11.7207817"><ele>438.0</ele><time>2026-05-01T14:22:01.189Z</time></trkpt><trkpt lat="45.9489183" lon="11.7206817"><ele>438.0</ele><time>2026-05-01T14:22:02.186Z</time></trkpt><trkpt lat="45.949075" lon="11.7206167"><ele>438.0</ele><time>2026-05-01T14:22:03.185Z</time></trkpt><trkpt lat="45.949215" lon="11.7205667"><ele>439.0</ele><time>2026-05-01T14:22:04.185Z</time></trkpt><trkpt lat="45.9493367" lon="11.72053"><ele>440.0</ele><time>2026-05-01T14:22:05.186Z</time></trkpt><trkpt lat="45.9494467" lon="11.7204817"><ele>441.0</ele><time>2026-05-01T14:22:06.184Z</time></trkpt><trkpt lat="45.94955" lon="11.7203833"><ele>442.0</ele><time>2026-05-01T14:22:07.184Z</time></trkpt><trkpt lat="45.9496533" lon="11.7202317"><ele>442.0</ele><time>2026-05-01T14:22:08.185Z</time></trkpt><trkpt lat="45.9497533" lon="11.72002"><ele>442.0</ele><time>2026-05-01T14:22:09.185Z</time></trkpt><trkpt lat="45.9498667" lon="11.7198167"><ele>442.0</ele><time>2026-05-01T14:22:10.185Z</time></trkpt><trkpt lat="45.949985" lon="11.7196333"><ele>439.33333333333337</ele><time>2026-05-01T14:22:11.184Z</time></trkpt><trkpt lat="45.9501067" lon="11.7194683"><ele>436.66666666666663</ele><time>2026-05-01T14:22:12.184Z</time></trkpt><trkpt lat="45.95022" lon="11.719315"><ele>434.0</ele><time>2026-05-01T14:22:13.185Z</time></trkpt><trkpt lat="45.95032" lon="11.7191833"><ele>434.0</ele><time>2026-05-01T14:22:14.188Z</time></trkpt><trkpt lat="45.9504017" lon="11.7190567"><ele>434.0</ele><time>2026-05-01T14:22:15.185Z</time></trkpt><trkpt lat="45.9504617" lon="11.7189083"><ele>434.0</ele><time>2026-05-01T14:22:16.186Z</time></trkpt><trkpt lat="45.9504983" lon="11.7187383"><ele>434.0</ele><time>2026-05-01T14:22:17.183Z</time></trkpt><trkpt lat="45.9505167" lon="11.71856"><ele>437.0</ele><time>2026-05-01T14:22:18.185Z</time></trkpt><trkpt lat="45.9505033" lon="11.7183583"><ele>440.0</ele><time>2026-05-01T14:22:19.186Z</time></trkpt><trkpt lat="45.950475" lon="11.7181483"><ele>443.0</ele><time>2026-05-01T14:22:20.184Z</time></trkpt><trkpt lat="45.95046" lon="11.7179333"><ele>446.0</ele><time>2026-05-01T14:22:21.184Z</time></trkpt><trkpt lat="45.9504217" lon="11.7177117"><ele>447.0</ele><time>2026-05-01T14:22:22.189Z</time></trkpt><trkpt lat="45.9503683" lon="11.71749"><ele>448.0</ele><time>2026-05-01T14:22:23.184Z</time></trkpt><trkpt lat="45.9503167" lon="11.7172717"><ele>449.0</ele><time>2026-05-01T14:22:24.189Z</time></trkpt><trkpt lat="45.950275" lon="11.717045"><ele>449.3333333333333</ele><time>2026-05-01T14:22:25.187Z</time></trkpt><trkpt lat="45.9502583" lon="11.7168067"><ele>449.66666666666663</ele><time>2026-05-01T14:22:26.184Z</time></trkpt><trkpt lat="45.9502717" lon="11.7165583"><ele>450.0</ele><time>2026-05-01T14:22:27.186Z</time></trkpt><trkpt lat="45.9503017" lon="11.7163017"><ele>451.0</ele><time>2026-05-01T14:22:28.185Z</time></trkpt><trkpt lat="45.950325" lon="11.7160617"><ele>452.0</ele><time>2026-05-01T14:22:29.185Z</time></trkpt><trkpt lat="45.9503383" lon="11.7158367"><ele>453.0</ele><time>2026-05-01T14:22:30.191Z</time></trkpt><trkpt lat="45.9503717" lon="11.71562"><ele>453.0</ele><time>2026-05-01T14:22:31.185Z</time></trkpt><trkpt lat="45.9504067" lon="11.7154217"><ele>453.0</ele><time>2026-05-01T14:22:32.185Z</time></trkpt><trkpt lat="45.9504433" lon="11.7152267"><ele>453.0</ele><time>2026-05-01T14:22:33.186Z</time></trkpt><trkpt lat="45.9504717" lon="11.7150317"><ele>453.0</ele><time>2026-05-01T14:22:34.185Z</time></trkpt><trkpt lat="45.95051" lon="11.71486"><ele>453.5</ele><time>2026-05-01T14:22:35.186Z</time></trkpt><trkpt lat="45.9505433" lon="11.71471"><ele>454.0</ele><time>2026-05-01T14:22:36.185Z</time></trkpt><trkpt lat="45.9505667" lon="11.71459"><ele>454.5</ele><time>2026-05-01T14:22:37.187Z</time></trkpt><trkpt lat="45.9505733" lon="11.71449"><ele>455.0</ele><time>2026-05-01T14:22:38.183Z</time></trkpt><trkpt lat="45.950525" lon="11.7143467"><ele>455.5</ele><time>2026-05-01T14:22:40.184Z</time></trkpt><trkpt lat="45.9504583" lon="11.71434"><ele>456.0</ele><time>2026-05-01T14:22:41.186Z</time></trkpt><trkpt lat="45.9503783" lon="11.7144083"><ele>456.0</ele><time>2026-05-01T14:22:42.184Z</time></trkpt><trkpt lat="45.9503183" lon="11.7145333"><ele>456.0</ele><time>2026-05-01T14:22:43.189Z</time></trkpt><trkpt lat="45.9502567" lon="11.7146683"><ele>456.0</ele><time>2026-05-01T14:22:44.185Z</time></trkpt><trkpt lat="45.950185" lon="11.7148167"><ele>456.0</ele><time>2026-05-01T14:22:45.186Z</time></trkpt><trkpt lat="45.95013" lon="11.71501"><ele>456.0</ele><time>2026-05-01T14:22:46.185Z</time></trkpt><trkpt lat="45.950065" lon="11.7151917"><ele>456.0</ele><time>2026-05-01T14:22:47.183Z</time></trkpt><trkpt lat="45.94997" lon="11.7153567"><ele>456.0</ele><time>2026-05-01T14:22:48.186Z</time></trkpt><trkpt lat="45.9498633" lon="11.7155217"><ele>456.0</ele><time>2026-05-01T14:22:49.184Z</time></trkpt><trkpt lat="45.9497433" lon="11.715685"><ele>458.66666666666663</ele><time>2026-05-01T14:22:50.186Z</time></trkpt><trkpt lat="45.9496117" lon="11.71585"><ele>461.3333333333333</ele><time>2026-05-01T14:22:51.185Z</time></trkpt><trkpt lat="45.9494867" lon="11.716015"><ele>464.0</ele><time>2026-05-01T14:22:52.186Z</time></trkpt><trkpt lat="45.949375" lon="11.716165"><ele>464.0</ele><time>2026-05-01T14:22:53.187Z</time></trkpt><trkpt lat="45.9492733" lon="11.7162967"><ele>464.0</ele><time>2026-05-01T14:22:54.185Z</time></trkpt><trkpt lat="45.9491717" lon="11.7164133"><ele>464.0</ele><time>2026-05-01T14:22:55.188Z</time></trkpt><trkpt lat="45.9490567" lon="11.7165183"><ele>464.0</ele><time>2026-05-01T14:22:56.186Z</time></trkpt><trkpt lat="45.948925" lon="11.716605"><ele>465.66666666666663</ele><time>2026-05-01T14:22:57.183Z</time></trkpt><trkpt lat="45.9487867" lon="11.7166933"><ele>467.33333333333337</ele><time>2026-05-01T14:22:58.185Z</time></trkpt><trkpt lat="45.9486533" lon="11.7168133"><ele>469.0</ele><time>2026-05-01T14:22:59.185Z</time></trkpt><trkpt lat="45.9485217" lon="11.7169533"><ele>469.0</ele><time>2026-05-01T14:23:00.184Z</time></trkpt><trkpt lat="45.9483883" lon="11.7171133"><ele>469.0</ele><time>2026-05-01T14:23:01.184Z</time></trkpt><trkpt lat="45.94826" lon="11.71728"><ele>469.0</ele><time>2026-05-01T14:23:02.184Z</time></trkpt><trkpt lat="45.9481367" lon="11.71745"><ele>471.0</ele><time>2026-05-01T14:23:03.186Z</time></trkpt><trkpt lat="45.9480133" lon="11.717635"><ele>473.0</ele><time>2026-05-01T14:23:04.185Z</time></trkpt><trkpt lat="45.9478983" lon="11.717845"><ele>475.0</ele><time>2026-05-01T14:23:05.184Z</time></trkpt><trkpt lat="45.947785" lon="11.71807"><ele>475.0</ele><time>2026-05-01T14:23:06.183Z</time></trkpt><trkpt lat="45.9476783" lon="11.7183017"><ele>475.0</ele><time>2026-05-01T14:23:07.187Z</time></trkpt><trkpt lat="45.9475783" lon="11.7185183"><ele>475.0</ele><time>2026-05-01T14:23:08.184Z</time></trkpt><trkpt lat="45.9474783" lon="11.7187067"><ele>479.0</ele><time>2026-05-01T14:23:09.19Z</time></trkpt><trkpt lat="45.9473833" lon="11.7188933"><ele>483.0</ele><time>2026-05-01T14:23:10.188Z</time></trkpt><trkpt lat="45.9472733" lon="11.7190667"><ele>487.0</ele><time>2026-05-01T14:23:11.186Z</time></trkpt><trkpt lat="45.9471617" lon="11.719235"><ele>486.0</ele><time>2026-05-01T14:23:12.188Z</time></trkpt><trkpt lat="45.9470533" lon="11.719405"><ele>485.0</ele><time>2026-05-01T14:23:13.185Z</time></trkpt><trkpt lat="45.9469567" lon="11.7196"><ele>484.0</ele><time>2026-05-01T14:23:14.184Z</time></trkpt><trkpt lat="45.9468783" lon="11.7198167"><ele>484.0</ele><time>2026-05-01T14:23:15.185Z</time></trkpt><trkpt lat="45.9468183" lon="11.72004"><ele>484.0</ele><time>2026-05-01T14:23:16.185Z</time></trkpt><trkpt lat="45.9467733" lon="11.720255"><ele>484.0</ele><time>2026-05-01T14:23:17.186Z</time></trkpt><trkpt lat="45.94672" lon="11.7204383"><ele>486.4</ele><time>2026-05-01T14:23:18.183Z</time></trkpt><trkpt lat="45.9466667" lon="11.7205867"><ele>488.79999999999995</ele><time>2026-05-01T14:23:19.184Z</time></trkpt><trkpt lat="45.9465967" lon="11.720705"><ele>491.20000000000005</ele><time>2026-05-01T14:23:20.189Z</time></trkpt><trkpt lat="45.9465083" lon="11.7207933"><ele>493.6</ele><time>2026-05-01T14:23:21.186Z</time></trkpt><trkpt lat="45.9463967" lon="11.7208367"><ele>496.0</ele><time>2026-05-01T14:23:22.184Z</time></trkpt><trkpt lat="45.94627" lon="11.7208417"><ele>496.0</ele><time>2026-05-01T14:23:23.185Z</time></trkpt><trkpt lat="45.9461333" lon="11.720845"><ele>496.0</ele><time>2026-05-01T14:23:24.184Z</time></trkpt><trkpt lat="45.9459883" lon="11.7208683"><ele>496.0</ele><time>2026-05-01T14:23:25.183Z</time></trkpt><trkpt lat="45.9458417" lon="11.7209017"><ele>496.0</ele><time>2026-05-01T14:23:26.185Z</time></trkpt><trkpt lat="45.9457" lon="11.7209433"><ele>495.0</ele><time>2026-05-01T14:23:27.185Z</time></trkpt><trkpt lat="45.9455667" lon="11.721015"><ele>494.0</ele><time>2026-05-01T14:23:28.183Z</time></trkpt><trkpt lat="45.94544" lon="11.7211083"><ele>493.0</ele><time>2026-05-01T14:23:29.187Z</time></trkpt><trkpt lat="45.9453117" lon="11.72123"><ele>492.0</ele><time>2026-05-01T14:23:30.188Z</time></trkpt><trkpt lat="45.945195" lon="11.7213717"><ele>492.0</ele><time>2026-05-01T14:23:31.186Z</time></trkpt><trkpt lat="45.9450983" lon="11.7215117"><ele>492.0</ele><time>2026-05-01T14:23:32.184Z</time></trkpt><trkpt lat="45.945005" lon="11.721645"><ele>492.0</ele><time>2026-05-01T14:23:33.187Z</time></trkpt><trkpt lat="45.9449017" lon="11.7217633"><ele>492.0</ele><time>2026-05-01T14:23:34.184Z</time></trkpt><trkpt lat="45.9447883" lon="11.7218517"><ele>492.40000000000003</ele><time>2026-05-01T14:23:35.186Z</time></trkpt><trkpt lat="45.9446733" lon="11.721905"><ele>492.80000000000007</ele><time>2026-05-01T14:23:36.184Z</time></trkpt><trkpt lat="45.94457" lon="11.7219483"><ele>493.2</ele><time>2026-05-01T14:23:37.185Z</time></trkpt><trkpt lat="45.9444817" lon="11.7219833"><ele>493.6</ele><time>2026-05-01T14:23:38.186Z</time></trkpt><trkpt lat="45.94441" lon="11.7220167"><ele>494.0</ele><time>2026-05-01T14:23:39.185Z</time></trkpt><trkpt lat="45.9443467" lon="11.7220417"><ele>494.0</ele><time>2026-05-01T14:23:40.183Z</time></trkpt><trkpt lat="45.9442817" lon="11.7220617"><ele>494.0</ele><time>2026-05-01T14:23:41.184Z</time></trkpt><trkpt lat="45.9442117" lon="11.72205"><ele>494.0</ele><time>2026-05-01T14:23:42.189Z</time></trkpt><trkpt lat="45.944155" lon="11.72199"><ele>494.0</ele><time>2026-05-01T14:23:43.185Z</time></trkpt><trkpt lat="45.9441183" lon="11.7219"><ele>494.0</ele><time>2026-05-01T14:23:44.189Z</time></trkpt><trkpt lat="45.9441133" lon="11.7217917"><ele>494.0</ele><time>2026-05-01T14:23:45.184Z</time></trkpt><trkpt lat="45.9441233" lon="11.7216767"><ele>494.0</ele><time>2026-05-01T14:23:46.185Z</time></trkpt><trkpt lat="45.94414" lon="11.7215533"><ele>496.6</ele><time>2026-05-01T14:23:47.183Z</time></trkpt><trkpt lat="45.944185" lon="11.7214117"><ele>499.2</ele><time>2026-05-01T14:23:48.184Z</time></trkpt><trkpt lat="45.9442367" lon="11.72127"><ele>501.80000000000007</ele><time>2026-05-01T14:23:49.186Z</time></trkpt><trkpt lat="45.9442883" lon="11.7211383"><ele>504.40000000000003</ele><time>2026-05-01T14:23:50.186Z</time></trkpt><trkpt lat="45.94434" lon="11.7210117"><ele>507.0</ele><time>2026-05-01T14:23:51.185Z</time></trkpt><trkpt lat="45.944385" lon="11.72087"><ele>508.40000000000003</ele><time>2026-05-01T14:23:52.187Z</time></trkpt><trkpt lat="45.944425" lon="11.7207267"><ele>509.80000000000007</ele><time>2026-05-01T14:23:53.183Z</time></trkpt><trkpt lat="45.9444517" lon="11.7205867"><ele>511.2</ele><time>2026-05-01T14:23:54.189Z</time></trkpt><trkpt lat="45.9444767" lon="11.7204617"><ele>512.6</ele><time>2026-05-01T14:23:55.186Z</time></trkpt><trkpt lat="45.9444983" lon="11.72033"><ele>514.0</ele><time>2026-05-01T14:23:56.185Z</time></trkpt><trkpt lat="45.9445233" lon="11.72019"><ele>514.8</ele><time>2026-05-01T14:23:57.187Z</time></trkpt><trkpt lat="45.94455" lon="11.720045"><ele>515.5999999999999</ele><time>2026-05-01T14:23:58.184Z</time></trkpt><trkpt lat="45.9445717" lon="11.7198933"><ele>516.4</ele><time>2026-05-01T14:23:59.186Z</time></trkpt><trkpt lat="45.944575" lon="11.7197483"><ele>517.1999999999999</ele><time>2026-05-01T14:24:00.186Z</time></trkpt><trkpt lat="45.9445683" lon="11.71962"><ele>518.0</ele><time>2026-05-01T14:24:01.186Z</time></trkpt><trkpt lat="45.9445483" lon="11.7194933"><ele>519.6</ele><time>2026-05-01T14:24:02.183Z</time></trkpt><trkpt lat="45.944495" lon="11.7193833"><ele>521.1999999999999</ele><time>2026-05-01T14:24:03.19Z</time></trkpt><trkpt lat="45.944405" lon="11.7193067"><ele>522.8</ele><time>2026-05-01T14:24:04.185Z</time></trkpt><trkpt lat="45.944285" lon="11.719285"><ele>524.4</ele><time>2026-05-01T14:24:05.184Z</time></trkpt><trkpt lat="45.9441633" lon="11.719275"><ele>526.0</ele><time>2026-05-01T14:24:06.185Z</time></trkpt><trkpt lat="45.9440583" lon="11.7192433"><ele>526.8</ele><time>2026-05-01T14:24:07.184Z</time></trkpt><trkpt lat="45.9439667" lon="11.7192083"><ele>527.6</ele><time>2026-05-01T14:24:08.184Z</time></trkpt><trkpt lat="45.9438767" lon="11.719175"><ele>528.4</ele><time>2026-05-01T14:24:09.189Z</time></trkpt><trkpt lat="45.9437833" lon="11.7191333"><ele>529.2</ele><time>2026-05-01T14:24:10.185Z</time></trkpt><trkpt lat="45.9436833" lon="11.7191067"><ele>530.0</ele><time>2026-05-01T14:24:11.187Z</time></trkpt><trkpt lat="45.9435767" lon="11.7191033"><ele>530.0</ele><time>2026-05-01T14:24:12.188Z</time></trkpt><trkpt lat="45.9434683" lon="11.719125"><ele>530.0</ele><time>2026-05-01T14:24:13.187Z</time></trkpt><trkpt lat="45.94336" lon="11.7191767"><ele>530.0</ele><time>2026-05-01T14:24:14.187Z</time></trkpt><trkpt lat="45.9432483" lon="11.7192383"><ele>530.0</ele><time>2026-05-01T14:24:15.185Z</time></trkpt><trkpt lat="45.9431383" lon="11.7192967"><ele>530.8</ele><time>2026-05-01T14:24:16.186Z</time></trkpt><trkpt lat="45.943035" lon="11.7193333"><ele>531.6</ele><time>2026-05-01T14:24:17.185Z</time></trkpt><trkpt lat="45.94294" lon="11.71936"><ele>532.4</ele><time>2026-05-01T14:24:18.191Z</time></trkpt><trkpt lat="45.9428417" lon="11.719385"><ele>533.2</ele><time>2026-05-01T14:24:19.186Z</time></trkpt><trkpt lat="45.9427383" lon="11.7194"><ele>534.0</ele><time>2026-05-01T14:24:20.183Z</time></trkpt><trkpt lat="45.9426283" lon="11.7193883"><ele>534.6</ele><time>2026-05-01T14:24:21.187Z</time></trkpt><trkpt lat="45.9425117" lon="11.719345"><ele>535.2</ele><time>2026-05-01T14:24:22.187Z</time></trkpt><trkpt lat="45.942405" lon="11.7192833"><ele>535.8000000000001</ele><time>2026-05-01T14:24:23.186Z</time></trkpt><trkpt lat="45.942315" lon="11.7192217"><ele>536.4</ele><time>2026-05-01T14:24:24.185Z</time></trkpt><trkpt lat="45.9422283" lon="11.71918"><ele>537.0</ele><time>2026-05-01T14:24:25.185Z</time></trkpt><trkpt lat="45.94214" lon="11.719165"><ele>537.0</ele><time>2026-05-01T14:24:26.185Z</time></trkpt><trkpt lat="45.9420483" lon="11.7191683"><ele>537.0</ele><time>2026-05-01T14:24:27.184Z</time></trkpt><trkpt lat="45.9419633" lon="11.7191967"><ele>537.0</ele><time>2026-05-01T14:24:28.185Z</time></trkpt><trkpt lat="45.941885" lon="11.7192633"><ele>537.0</ele><time>2026-05-01T14:24:29.185Z</time></trkpt><trkpt lat="45.94182" lon="11.7193767"><ele>537.0</ele><time>2026-05-01T14:24:30.185Z</time></trkpt><trkpt lat="45.9417883" lon="11.71953"><ele>537.8000000000001</ele><time>2026-05-01T14:24:31.183Z</time></trkpt><trkpt lat="45.941775" lon="11.7196617"><ele>538.6</ele><time>2026-05-01T14:24:32.188Z</time></trkpt><trkpt lat="45.9417683" lon="11.7197717"><ele>539.4000000000001</ele><time>2026-05-01T14:24:33.266Z</time></trkpt><trkpt lat="45.9417633" lon="11.7199233"><ele>540.2</ele><time>2026-05-01T14:24:35.184Z</time></trkpt><trkpt lat="45.9416833" lon="11.7199317"><ele>541.0</ele><time>2026-05-01T14:24:38.185Z</time></trkpt><trkpt lat="45.9416567" lon="11.7197683"><ele>541.0</ele><time>2026-05-01T14:24:40.186Z</time></trkpt><trkpt lat="45.9416883" lon="11.7196333"><ele>541.0</ele><time>2026-05-01T14:24:41.184Z</time></trkpt><trkpt lat="45.9417167" lon="11.7194933"><ele>541.0</ele><time>2026-05-01T14:24:42.185Z</time></trkpt><trkpt lat="45.9417333" lon="11.7193567"><ele>541.0</ele><time>2026-05-01T14:24:43.185Z</time></trkpt><trkpt lat="45.9417483" lon="11.7192183"><ele>541.0</ele><time>2026-05-01T14:24:44.187Z</time></trkpt><trkpt lat="45.94177" lon="11.7190767"><ele>540.2</ele><time>2026-05-01T14:24:45.185Z</time></trkpt><trkpt lat="45.9417983" lon="11.7189367"><ele>539.4000000000001</ele><time>2026-05-01T14:24:46.185Z</time></trkpt><trkpt lat="45.94183" lon="11.7188083"><ele>538.6</ele><time>2026-05-01T14:24:47.184Z</time></trkpt><trkpt lat="45.9418667" lon="11.7186883"><ele>537.8000000000001</ele><time>2026-05-01T14:24:48.185Z</time></trkpt><trkpt lat="45.9419083" lon="11.7185833"><ele>537.0</ele><time>2026-05-01T14:24:49.183Z</time></trkpt><trkpt lat="45.941965" lon="11.7184933"><ele>539.8000000000001</ele><time>2026-05-01T14:24:50.188Z</time></trkpt><trkpt lat="45.9420417" lon="11.7184183"><ele>542.6</ele><time>2026-05-01T14:24:51.187Z</time></trkpt><trkpt lat="45.9421333" lon="11.718375"><ele>545.4000000000001</ele><time>2026-05-01T14:24:52.187Z</time></trkpt><trkpt lat="45.9422267" lon="11.7183533"><ele>548.2</ele><time>2026-05-01T14:24:53.187Z</time></trkpt><trkpt lat="45.942325" lon="11.7183483"><ele>551.0</ele><time>2026-05-01T14:24:54.185Z</time></trkpt><trkpt lat="45.9424317" lon="11.7183683"><ele>551.0</ele><time>2026-05-01T14:24:55.185Z</time></trkpt><trkpt lat="45.942535" lon="11.7183967"><ele>551.0</ele><time>2026-05-01T14:24:56.186Z</time></trkpt><trkpt lat="45.942635" lon="11.7184183"><ele>551.0</ele><time>2026-05-01T14:24:57.185Z</time></trkpt><trkpt lat="45.9427333" lon="11.7184333"><ele>551.0</ele><time>2026-05-01T14:24:58.185Z</time></trkpt><trkpt lat="45.942835" lon="11.7184483"><ele>551.0</ele><time>2026-05-01T14:24:59.184Z</time></trkpt><trkpt lat="45.9429383" lon="11.718465"><ele>551.2</ele><time>2026-05-01T14:25:00.186Z</time></trkpt><trkpt lat="45.9430483" lon="11.718475"><ele>551.4000000000001</ele><time>2026-05-01T14:25:01.185Z</time></trkpt><trkpt lat="45.9431583" lon="11.7184883"><ele>551.6</ele><time>2026-05-01T14:25:02.187Z</time></trkpt><trkpt lat="45.9432667" lon="11.7185"><ele>551.8000000000001</ele><time>2026-05-01T14:25:03.188Z</time></trkpt><trkpt lat="45.94337" lon="11.7185033"><ele>552.0</ele><time>2026-05-01T14:25:04.185Z</time></trkpt><trkpt lat="45.94348" lon="11.71847"><ele>552.0</ele><time>2026-05-01T14:25:05.184Z</time></trkpt><trkpt lat="45.943595" lon="11.7184133"><ele>552.0</ele><time>2026-05-01T14:25:06.186Z</time></trkpt><trkpt lat="45.9437317" lon="11.7183283"><ele>552.0</ele><time>2026-05-01T14:25:07.187Z</time></trkpt><trkpt lat="45.9438833" lon="11.7182667"><ele>552.0</ele><time>2026-05-01T14:25:08.189Z</time></trkpt><trkpt lat="45.9440267" lon="11.7182133"><ele>552.0</ele><time>2026-05-01T14:25:09.184Z</time></trkpt><trkpt lat="45.94415" lon="11.7181483"><ele>552.0</ele><time>2026-05-01T14:25:10.184Z</time></trkpt><trkpt lat="45.9442633" lon="11.7180683"><ele>552.0</ele><time>2026-05-01T14:25:11.184Z</time></trkpt><trkpt lat="45.94437" lon="11.7179867"><ele>552.0</ele><time>2026-05-01T14:25:12.184Z</time></trkpt><trkpt lat="45.944465" lon="11.7178933"><ele>551.25</ele><time>2026-05-01T14:25:13.185Z</time></trkpt><trkpt lat="45.9445517" lon="11.7177817"><ele>550.5</ele><time>2026-05-01T14:25:14.184Z</time></trkpt><trkpt lat="45.9446083" lon="11.7176183"><ele>549.75</ele><time>2026-05-01T14:25:15.185Z</time></trkpt><trkpt lat="45.9446567" lon="11.7174333"><ele>549.0</ele><time>2026-05-01T14:25:16.183Z</time></trkpt><trkpt lat="45.9446983" lon="11.717255"><ele>549.0</ele><time>2026-05-01T14:25:17.275Z</time></trkpt><trkpt lat="45.9447483" lon="11.717105"><ele>549.0</ele><time>2026-05-01T14:25:18.189Z</time></trkpt><trkpt lat="45.9447967" lon="11.7169717"><ele>549.0</ele><time>2026-05-01T14:25:19.186Z</time></trkpt><trkpt lat="45.9448533" lon="11.7168483"><ele>549.0</ele><time>2026-05-01T14:25:20.188Z</time></trkpt><trkpt lat="45.94493" lon="11.7167317"><ele>549.0</ele><time>2026-05-01T14:25:21.187Z</time></trkpt><trkpt lat="45.9450217" lon="11.716615"><ele>550.5</ele><time>2026-05-01T14:25:22.186Z</time></trkpt><trkpt lat="45.9451167" lon="11.7165"><ele>552.0</ele><time>2026-05-01T14:25:23.185Z</time></trkpt><trkpt lat="45.9452133" lon="11.7164"><ele>553.5</ele><time>2026-05-01T14:25:24.185Z</time></trkpt><trkpt lat="45.94531" lon="11.7162983"><ele>555.0</ele><time>2026-05-01T14:25:25.188Z</time></trkpt><trkpt lat="45.9454167" lon="11.7162033"><ele>555.0</ele><time>2026-05-01T14:25:26.187Z</time></trkpt><trkpt lat="45.945525" lon="11.7161183"><ele>555.0</ele><time>2026-05-01T14:25:27.188Z</time></trkpt><trkpt lat="45.9456283" lon="11.7160417"><ele>555.0</ele><time>2026-05-01T14:25:28.185Z</time></trkpt><trkpt lat="45.9457167" lon="11.7159783"><ele>555.0</ele><time>2026-05-01T14:25:29.186Z</time></trkpt><trkpt lat="45.9457883" lon="11.71593"><ele>555.0</ele><time>2026-05-01T14:25:30.185Z</time></trkpt><trkpt lat="45.9458483" lon="11.715895"><ele>556.0</ele><time>2026-05-01T14:25:31.185Z</time></trkpt><trkpt lat="45.9459067" lon="11.715845"><ele>557.0</ele><time>2026-05-01T14:25:32.185Z</time></trkpt><trkpt lat="45.9459483" lon="11.7157583"><ele>558.0</ele><time>2026-05-01T14:25:33.185Z</time></trkpt><trkpt lat="45.94598" lon="11.7156483"><ele>559.0</ele><time>2026-05-01T14:25:34.185Z</time></trkpt><trkpt lat="45.946005" lon="11.7155183"><ele>560.0</ele><time>2026-05-01T14:25:35.184Z</time></trkpt><trkpt lat="45.9460333" lon="11.715375"><ele>561.0</ele><time>2026-05-01T14:25:36.266Z</time></trkpt><trkpt lat="45.9460667" lon="11.7152333"><ele>562.75</ele><time>2026-05-01T14:25:37.183Z</time></trkpt><trkpt lat="45.94611" lon="11.7150883"><ele>564.5</ele><time>2026-05-01T14:25:38.185Z</time></trkpt><trkpt lat="45.9461683" lon="11.714945"><ele>566.25</ele><time>2026-05-01T14:25:39.185Z</time></trkpt><trkpt lat="45.946245" lon="11.7148133"><ele>568.0</ele><time>2026-05-01T14:25:40.185Z</time></trkpt><trkpt lat="45.9463317" lon="11.7147017"><ele>568.0</ele><time>2026-05-01T14:25:41.189Z</time></trkpt><trkpt lat="45.9464217" lon="11.7145933"><ele>568.0</ele><time>2026-05-01T14:25:42.189Z</time></trkpt><trkpt lat="45.9465133" lon="11.7144783"><ele>568.0</ele><time>2026-05-01T14:25:43.188Z</time></trkpt><trkpt lat="45.94661" lon="11.7143533"><ele>568.0</ele><time>2026-05-01T14:25:44.184Z</time></trkpt><trkpt lat="45.94671" lon="11.71422"><ele>568.75</ele><time>2026-05-01T14:25:45.186Z</time></trkpt><trkpt lat="45.9468217" lon="11.7140817"><ele>569.5</ele><time>2026-05-01T14:25:46.184Z</time></trkpt><trkpt lat="45.9469367" lon="11.7139483"><ele>570.25</ele><time>2026-05-01T14:25:47.185Z</time></trkpt><trkpt lat="45.9470483" lon="11.7138267"><ele>571.0</ele><time>2026-05-01T14:25:48.185Z</time></trkpt><trkpt lat="45.9471617" lon="11.7137183"><ele>571.0</ele><time>2026-05-01T14:25:49.186Z</time></trkpt><trkpt lat="45.9472733" lon="11.7136117"><ele>571.0</ele><time>2026-05-01T14:25:50.189Z</time></trkpt><trkpt lat="45.9473783" lon="11.7135067"><ele>571.0</ele><time>2026-05-01T14:25:51.184Z</time></trkpt><trkpt lat="45.9474867" lon="11.71341"><ele>571.0</ele><time>2026-05-01T14:25:52.186Z</time></trkpt><trkpt lat="45.9475983" lon="11.71331"><ele>572.25</ele><time>2026-05-01T14:25:53.187Z</time></trkpt><trkpt lat="45.9477067" lon="11.7132133"><ele>573.5</ele><time>2026-05-01T14:25:54.185Z</time></trkpt><trkpt lat="45.947805" lon="11.7131133"><ele>574.75</ele><time>2026-05-01T14:25:55.186Z</time></trkpt><trkpt lat="45.9479033" lon="11.7130183"><ele>576.0</ele><time>2026-05-01T14:25:56.184Z</time></trkpt><trkpt lat="45.9479983" lon="11.7129133"><ele>576.0</ele><time>2026-05-01T14:25:57.187Z</time></trkpt><trkpt lat="45.9480867" lon="11.7127983"><ele>576.0</ele><time>2026-05-01T14:25:58.185Z</time></trkpt><trkpt lat="45.9481667" lon="11.71269"><ele>576.0</ele><time>2026-05-01T14:25:59.185Z</time></trkpt><trkpt lat="45.9482383" lon="11.71259"><ele>576.0</ele><time>2026-05-01T14:26:00.184Z</time></trkpt><trkpt lat="45.9483067" lon="11.7125"><ele>576.0</ele><time>2026-05-01T14:26:01.187Z</time></trkpt><trkpt lat="45.9483733" lon="11.7124083"><ele>574.3333333333334</ele><time>2026-05-01T14:26:02.184Z</time></trkpt><trkpt lat="45.9484367" lon="11.7123267"><ele>572.6666666666666</ele><time>2026-05-01T14:26:03.188Z</time></trkpt><trkpt lat="45.9484933" lon="11.7122567"><ele>571.0</ele><time>2026-05-01T14:26:04.184Z</time></trkpt><trkpt lat="45.94854" lon="11.7121933"><ele>569.3333333333333</ele><time>2026-05-01T14:26:05.183Z</time></trkpt><trkpt lat="45.948625" lon="11.712075"><ele>567.6666666666666</ele><time>2026-05-01T14:26:07.185Z</time></trkpt><trkpt lat="45.9486733" lon="11.7119583"><ele>566.0</ele><time>2026-05-01T14:26:09.187Z</time></trkpt><trkpt lat="45.9486267" lon="11.7118517"><ele>566.0</ele><time>2026-05-01T14:26:11.184Z</time></trkpt><trkpt lat="45.948505" lon="11.7119"><ele>566.0</ele><time>2026-05-01T14:26:13.183Z</time></trkpt><trkpt lat="45.9484317" lon="11.71201"><ele>566.0</ele><time>2026-05-01T14:26:14.185Z</time></trkpt><trkpt lat="45.9483433" lon="11.7121117"><ele>566.0</ele><time>2026-05-01T14:26:15.183Z</time></trkpt><trkpt lat="45.948245" lon="11.7122233"><ele>571.75</ele><time>2026-05-01T14:26:16.186Z</time></trkpt><trkpt lat="45.948135" lon="11.7123167"><ele>577.5</ele><time>2026-05-01T14:26:17.187Z</time></trkpt><trkpt lat="45.9480183" lon="11.712405"><ele>583.25</ele><time>2026-05-01T14:26:18.183Z</time></trkpt><trkpt lat="45.9479133" lon="11.7125"><ele>589.0</ele><time>2026-05-01T14:26:19.185Z</time></trkpt><trkpt lat="45.94781" lon="11.712575"><ele>589.0</ele><time>2026-05-01T14:26:20.185Z</time></trkpt><trkpt lat="45.94771" lon="11.7126383"><ele>589.0</ele><time>2026-05-01T14:26:21.185Z</time></trkpt><trkpt lat="45.9476167" lon="11.7127"><ele>589.0</ele><time>2026-05-01T14:26:22.184Z</time></trkpt><trkpt lat="45.9475217" lon="11.7127583"><ele>589.0</ele><time>2026-05-01T14:26:23.183Z</time></trkpt><trkpt lat="45.9474183" lon="11.712815"><ele>589.0</ele><time>2026-05-01T14:26:24.184Z</time></trkpt><trkpt lat="45.9473083" lon="11.7128767"><ele>589.0</ele><time>2026-05-01T14:26:25.186Z</time></trkpt><trkpt lat="45.9471933" lon="11.7129383"><ele>589.0</ele><time>2026-05-01T14:26:26.185Z</time></trkpt><trkpt lat="45.94708" lon="11.7129983"><ele>589.0</ele><time>2026-05-01T14:26:27.183Z</time></trkpt><trkpt lat="45.946965" lon="11.71306"><ele>589.0</ele><time>2026-05-01T14:26:28.184Z</time></trkpt><trkpt lat="45.9468417" lon="11.71312"><ele>592.0</ele><time>2026-05-01T14:26:29.183Z</time></trkpt><trkpt lat="45.9467083" lon="11.7131767"><ele>595.0</ele><time>2026-05-01T14:26:30.274Z</time></trkpt><trkpt lat="45.9465767" lon="11.7132317"><ele>598.0</ele><time>2026-05-01T14:26:31.184Z</time></trkpt><trkpt lat="45.9464533" lon="11.713285"><ele>601.0</ele><time>2026-05-01T14:26:32.184Z</time></trkpt><trkpt lat="45.9463383" lon="11.7133283"><ele>601.0</ele><time>2026-05-01T14:26:33.185Z</time></trkpt><trkpt lat="45.9462233" lon="11.71337"><ele>601.0</ele><time>2026-05-01T14:26:34.184Z</time></trkpt><trkpt lat="45.9461" lon="11.7134033"><ele>601.0</ele><time>2026-05-01T14:26:35.187Z</time></trkpt><trkpt lat="45.9459717" lon="11.7134417"><ele>601.0</ele><time>2026-05-01T14:26:36.184Z</time></trkpt><trkpt lat="45.94584" lon="11.7134683"><ele>598.75</ele><time>2026-05-01T14:26:37.185Z</time></trkpt><trkpt lat="45.94571" lon="11.71349"><ele>596.5</ele><time>2026-05-01T14:26:38.187Z</time></trkpt><trkpt lat="45.9455867" lon="11.71353"><ele>594.25</ele><time>2026-05-01T14:26:39.185Z</time></trkpt><trkpt lat="45.9454767" lon="11.7135767"><ele>592.0</ele><time>2026-05-01T14:26:40.185Z</time></trkpt><trkpt lat="45.945385" lon="11.713625"><ele>592.0</ele><time>2026-05-01T14:26:41.186Z</time></trkpt><trkpt lat="45.94531" lon="11.7136783"><ele>592.0</ele><time>2026-05-01T14:26:42.265Z</time></trkpt><trkpt lat="45.9452433" lon="11.7137217"><ele>592.0</ele><time>2026-05-01T14:26:43.184Z</time></trkpt><trkpt lat="45.945185" lon="11.71376"><ele>592.0</ele><time>2026-05-01T14:26:44.184Z</time></trkpt><trkpt lat="45.9450967" lon="11.713815"><ele>592.0</ele><time>2026-05-01T14:26:46.183Z</time></trkpt><trkpt lat="45.9450033" lon="11.71387"><ele>592.0</ele><time>2026-05-01T14:26:48.187Z</time></trkpt><trkpt lat="45.94489" lon="11.7139417"><ele>594.0</ele><time>2026-05-01T14:26:50.184Z</time></trkpt><trkpt lat="45.94482" lon="11.71398"><ele>596.0</ele><time>2026-05-01T14:26:51.188Z</time></trkpt><trkpt lat="45.944745" lon="11.71402"><ele>598.0</ele><time>2026-05-01T14:26:52.183Z</time></trkpt><trkpt lat="45.9446667" lon="11.7140583"><ele>600.0</ele><time>2026-05-01T14:26:53.184Z</time></trkpt><trkpt lat="45.944595" lon="11.7140917"><ele>602.0</ele><time>2026-05-01T14:26:54.186Z</time></trkpt><trkpt lat="45.9445267" lon="11.7141117"><ele>604.0</ele><time>2026-05-01T14:26:55.184Z</time></trkpt><trkpt lat="45.9444217" lon="11.7141533"><ele>604.0</ele><time>2026-05-01T14:26:57.185Z</time></trkpt><trkpt lat="45.9443467" lon="11.7141817"><ele>604.0</ele><time>2026-05-01T14:26:59.184Z</time></trkpt><trkpt lat="45.944275" lon="11.7142233"><ele>604.0</ele><time>2026-05-01T14:27:01.189Z</time></trkpt><trkpt lat="45.9442133" lon="11.7142533"><ele>604.0</ele><time>2026-05-01T14:27:03.185Z</time></trkpt><trkpt lat="45.94415" lon="11.7142817"><ele>604.0</ele><time>2026-05-01T14:27:05.185Z</time></trkpt><trkpt lat="45.94406" lon="11.7143267"><ele>604.0</ele><time>2026-05-01T14:27:08.185Z</time></trkpt><trkpt lat="45.944015" lon="11.7142233"><ele>604.0</ele><time>2026-05-01T14:27:11.188Z</time></trkpt><trkpt lat="45.9440583" lon="11.7141417"><ele>604.0</ele><time>2026-05-01T14:27:13.187Z</time></trkpt><trkpt lat="45.94416" lon="11.7140933"><ele>604.0</ele><time>2026-05-01T14:27:15.189Z</time></trkpt><trkpt lat="45.9442533" lon="11.7140033"><ele>604.0</ele><time>2026-05-01T14:27:17.183Z</time></trkpt><trkpt lat="45.9443183" lon="11.7139533"><ele>604.0</ele><time>2026-05-01T14:27:18.184Z</time></trkpt><trkpt lat="45.9443883" lon="11.7139083"><ele>604.0</ele><time>2026-05-01T14:27:19.186Z</time></trkpt><trkpt lat="45.9444583" lon="11.7138733"><ele>604.0</ele><time>2026-05-01T14:27:20.186Z</time></trkpt><trkpt lat="45.94453" lon="11.7138283"><ele>604.0</ele><time>2026-05-01T14:27:21.189Z</time></trkpt><trkpt lat="45.9446" lon="11.71377"><ele>604.0</ele><time>2026-05-01T14:27:22.261Z</time></trkpt><trkpt lat="45.9446717" lon="11.713715"><ele>604.0</ele><time>2026-05-01T14:27:23.188Z</time></trkpt><trkpt lat="45.944745" lon="11.7136617"><ele>604.0</ele><time>2026-05-01T14:27:24.187Z</time></trkpt><trkpt lat="45.9448133" lon="11.713605"><ele>604.0</ele><time>2026-05-01T14:27:25.184Z</time></trkpt><trkpt lat="45.9448833" lon="11.7135483"><ele>606.2</ele><time>2026-05-01T14:27:26.184Z</time></trkpt><trkpt lat="45.9449567" lon="11.713495"><ele>608.4</ele><time>2026-05-01T14:27:27.185Z</time></trkpt><trkpt lat="45.94503" lon="11.7134283"><ele>610.6</ele><time>2026-05-01T14:27:28.185Z</time></trkpt><trkpt lat="45.9451017" lon="11.71335"><ele>612.8</ele><time>2026-05-01T14:27:29.185Z</time></trkpt><trkpt lat="45.9451783" lon="11.71327"><ele>615.0</ele><time>2026-05-01T14:27:30.186Z</time></trkpt><trkpt lat="45.9452533" lon="11.7131683"><ele>615.0</ele><time>2026-05-01T14:27:31.184Z</time></trkpt><trkpt lat="45.9453383" lon="11.71305"><ele>615.0</ele><time>2026-05-01T14:27:32.185Z</time></trkpt><trkpt lat="45.9454417" lon="11.71296"><ele>615.0</ele><time>2026-05-01T14:27:33.186Z</time></trkpt><trkpt lat="45.9455567" lon="11.7129017"><ele>615.0</ele><time>2026-05-01T14:27:34.185Z</time></trkpt><trkpt lat="45.9456767" lon="11.7128533"><ele>615.0</ele><time>2026-05-01T14:27:35.184Z</time></trkpt><trkpt lat="45.9458" lon="11.7128083"><ele>615.0</ele><time>2026-05-01T14:27:36.184Z</time></trkpt><trkpt lat="45.94591" lon="11.7127617"><ele>615.0</ele><time>2026-05-01T14:27:37.185Z</time></trkpt><trkpt lat="45.9460133" lon="11.712695"><ele>615.0</ele><time>2026-05-01T14:27:38.186Z</time></trkpt><trkpt lat="45.946105" lon="11.7126117"><ele>616.8</ele><time>2026-05-01T14:27:39.268Z</time></trkpt><trkpt lat="45.9461933" lon="11.71252"><ele>618.6</ele><time>2026-05-01T14:27:40.186Z</time></trkpt><trkpt lat="45.9462733" lon="11.7124283"><ele>620.4</ele><time>2026-05-01T14:27:41.186Z</time></trkpt><trkpt lat="45.946345" lon="11.71234"><ele>622.2</ele><time>2026-05-01T14:27:42.184Z</time></trkpt><trkpt lat="45.9464083" lon="11.712265"><ele>624.0</ele><time>2026-05-01T14:27:43.185Z</time></trkpt><trkpt lat="45.9464733" lon="11.7122017"><ele>624.0</ele><time>2026-05-01T14:27:44.185Z</time></trkpt><trkpt lat="45.94654" lon="11.7121467"><ele>624.0</ele><time>2026-05-01T14:27:45.185Z</time></trkpt><trkpt lat="45.946625" lon="11.7120533"><ele>624.0</ele><time>2026-05-01T14:27:47.185Z</time></trkpt><trkpt lat="45.9465917" lon="11.7119267"><ele>624.0</ele><time>2026-05-01T14:27:49.186Z</time></trkpt><trkpt lat="45.946485" lon="11.7119317"><ele>624.0</ele><time>2026-05-01T14:27:51.187Z</time></trkpt><trkpt lat="45.946415" lon="11.7120117"><ele>624.0</ele><time>2026-05-01T14:27:52.185Z</time></trkpt><trkpt lat="45.9463583" lon="11.7121117"><ele>624.0</ele><time>2026-05-01T14:27:53.186Z</time></trkpt><trkpt lat="45.9462817" lon="11.7121883"><ele>624.0</ele><time>2026-05-01T14:27:54.185Z</time></trkpt><trkpt lat="45.9461983" lon="11.7122617"><ele>624.0</ele><time>2026-05-01T14:27:55.188Z</time></trkpt><trkpt lat="45.94611" lon="11.712335"><ele>624.0</ele><time>2026-05-01T14:27:56.185Z</time></trkpt><trkpt lat="45.9460117" lon="11.71239"><ele>624.0</ele><time>2026-05-01T14:27:57.187Z</time></trkpt><trkpt lat="45.9459067" lon="11.712425"><ele>624.0</ele><time>2026-05-01T14:27:58.188Z</time></trkpt><trkpt lat="45.9457917" lon="11.7124383"><ele>624.0</ele><time>2026-05-01T14:27:59.186Z</time></trkpt><trkpt lat="45.94567" lon="11.712475"><ele>624.0</ele><time>2026-05-01T14:28:00.183Z</time></trkpt><trkpt lat="45.9455333" lon="11.7125367"><ele>624.75</ele><time>2026-05-01T14:28:01.183Z</time></trkpt><trkpt lat="45.9453833" lon="11.712595"><ele>625.5</ele><time>2026-05-01T14:28:02.185Z</time></trkpt><trkpt lat="45.9452433" lon="11.712645"><ele>626.25</ele><time>2026-05-01T14:28:03.184Z</time></trkpt><trkpt lat="45.9451233" lon="11.7127"><ele>627.0</ele><time>2026-05-01T14:28:04.185Z</time></trkpt><trkpt lat="45.9450133" lon="11.71275"><ele>627.0</ele><time>2026-05-01T14:28:05.188Z</time></trkpt><trkpt lat="45.944905" lon="11.7127983"><ele>627.0</ele><time>2026-05-01T14:28:06.185Z</time></trkpt><trkpt lat="45.9447917" lon="11.7128067"><ele>627.0</ele><time>2026-05-01T14:28:07.187Z</time></trkpt><trkpt lat="45.9446817" lon="11.7128033"><ele>627.0</ele><time>2026-05-01T14:28:08.186Z</time></trkpt><trkpt lat="45.9445833" lon="11.7127883"><ele>627.0</ele><time>2026-05-01T14:28:09.184Z</time></trkpt><trkpt lat="45.9444983" lon="11.7127617"><ele>630.6</ele><time>2026-05-01T14:28:10.187Z</time></trkpt><trkpt lat="45.94442" lon="11.7127117"><ele>634.2</ele><time>2026-05-01T14:28:11.185Z</time></trkpt><trkpt lat="45.9443483" lon="11.7126333"><ele>637.8</ele><time>2026-05-01T14:28:12.184Z</time></trkpt><trkpt lat="45.9442967" lon="11.7125533"><ele>641.4</ele><time>2026-05-01T14:28:13.183Z</time></trkpt><trkpt lat="45.9442133" lon="11.712435"><ele>645.0</ele><time>2026-05-01T14:28:15.187Z</time></trkpt><trkpt lat="45.944195" lon="11.7122933"><ele>645.4</ele><time>2026-05-01T14:28:17.186Z</time></trkpt><trkpt lat="45.944275" lon="11.7122067"><ele>645.8</ele><time>2026-05-01T14:28:19.185Z</time></trkpt><trkpt lat="45.9444083" lon="11.7122667"><ele>646.2</ele><time>2026-05-01T14:28:21.189Z</time></trkpt><trkpt lat="45.9444817" lon="11.712295"><ele>646.6</ele><time>2026-05-01T14:28:22.188Z</time></trkpt><trkpt lat="45.9445733" lon="11.7123167"><ele>647.0</ele><time>2026-05-01T14:28:23.183Z</time></trkpt><trkpt lat="45.9446733" lon="11.7123267"><ele>647.0</ele><time>2026-05-01T14:28:24.186Z</time></trkpt><trkpt lat="45.9447767" lon="11.7123167"><ele>647.0</ele><time>2026-05-01T14:28:25.186Z</time></trkpt><trkpt lat="45.9448833" lon="11.7123083"><ele>647.0</ele><time>2026-05-01T14:28:26.183Z</time></trkpt><trkpt lat="45.9449817" lon="11.7123"><ele>647.0</ele><time>2026-05-01T14:28:27.186Z</time></trkpt><trkpt lat="45.9450783" lon="11.7122733"><ele>647.0</ele><time>2026-05-01T14:28:28.185Z</time></trkpt><trkpt lat="45.9451733" lon="11.7122183"><ele>645.5</ele><time>2026-05-01T14:28:29.184Z</time></trkpt><trkpt lat="45.9452617" lon="11.7121633"><ele>644.0</ele><time>2026-05-01T14:28:30.188Z</time></trkpt><trkpt lat="45.945335" lon="11.712105"><ele>642.5</ele><time>2026-05-01T14:28:31.188Z</time></trkpt><trkpt lat="45.9454" lon="11.7120433"><ele>641.0</ele><time>2026-05-01T14:28:32.186Z</time></trkpt><trkpt lat="45.9454667" lon="11.711985"><ele>639.5</ele><time>2026-05-01T14:28:33.185Z</time></trkpt><trkpt lat="45.9455317" lon="11.7119067"><ele>638.0</ele><time>2026-05-01T14:28:34.186Z</time></trkpt><trkpt lat="45.94559" lon="11.71181"><ele>642.0</ele><time>2026-05-01T14:28:35.185Z</time></trkpt><trkpt lat="45.9456417" lon="11.7117017"><ele>646.0</ele><time>2026-05-01T14:28:36.184Z</time></trkpt><trkpt lat="45.9456833" lon="11.711575"><ele>650.0</ele><time>2026-05-01T14:28:37.184Z</time></trkpt><trkpt lat="45.9457233" lon="11.7114467"><ele>654.0</ele><time>2026-05-01T14:28:38.183Z</time></trkpt><trkpt lat="45.9457617" lon="11.7113217"><ele>658.0</ele><time>2026-05-01T14:28:39.187Z</time></trkpt><trkpt lat="45.945805" lon="11.7112067"><ele>658.0</ele><time>2026-05-01T14:28:40.184Z</time></trkpt><trkpt lat="45.94586" lon="11.7110983"><ele>658.0</ele><time>2026-05-01T14:28:41.188Z</time></trkpt><trkpt lat="45.9459267" lon="11.7109917"><ele>658.0</ele><time>2026-05-01T14:28:42.185Z</time></trkpt><trkpt lat="45.946015" lon="11.7108983"><ele>658.0</ele><time>2026-05-01T14:28:43.186Z</time></trkpt><trkpt lat="45.946125" lon="11.71082"><ele>658.0</ele><time>2026-05-01T14:28:44.185Z</time></trkpt><trkpt lat="45.9462333" lon="11.7107517"><ele>658.4</ele><time>2026-05-01T14:28:45.184Z</time></trkpt><trkpt lat="45.94633" lon="11.7106883"><ele>658.8</ele><time>2026-05-01T14:28:46.185Z</time></trkpt><trkpt lat="45.9464217" lon="11.7106283"><ele>659.2</ele><time>2026-05-01T14:28:47.185Z</time></trkpt><trkpt lat="45.9464983" lon="11.7105767"><ele>659.6</ele><time>2026-05-01T14:28:48.184Z</time></trkpt><trkpt lat="45.9465867" lon="11.7105233"><ele>660.0</ele><time>2026-05-01T14:28:49.188Z</time></trkpt><trkpt lat="45.9466817" lon="11.7104733"><ele>661.3333333333334</ele><time>2026-05-01T14:28:50.186Z</time></trkpt><trkpt lat="45.9467617" lon="11.7104267"><ele>662.6666666666666</ele><time>2026-05-01T14:28:51.185Z</time></trkpt><trkpt lat="45.9468383" lon="11.7103917"><ele>664.0</ele><time>2026-05-01T14:28:52.188Z</time></trkpt><trkpt lat="45.9468983" lon="11.7103583"><ele>665.3333333333333</ele><time>2026-05-01T14:28:53.186Z</time></trkpt><trkpt lat="45.9469633" lon="11.7102633"><ele>666.6666666666666</ele><time>2026-05-01T14:28:55.185Z</time></trkpt><trkpt lat="45.9469483" lon="11.7101517"><ele>668.0</ele><time>2026-05-01T14:28:57.184Z</time></trkpt><trkpt lat="45.9468433" lon="11.710105"><ele>668.0</ele><time>2026-05-01T14:28:59.184Z</time></trkpt><trkpt lat="45.94675" lon="11.710155"><ele>668.0</ele><time>2026-05-01T14:29:00.185Z</time></trkpt><trkpt lat="45.9466617" lon="11.7102333"><ele>668.0</ele><time>2026-05-01T14:29:01.184Z</time></trkpt><trkpt lat="45.94657" lon="11.7102717"><ele>668.0</ele><time>2026-05-01T14:29:02.184Z</time></trkpt><trkpt lat="45.9464633" lon="11.7102917"><ele>668.0</ele><time>2026-05-01T14:29:03.185Z</time></trkpt><trkpt lat="45.946345" lon="11.71032"><ele>667.3333333333333</ele><time>2026-05-01T14:29:04.184Z</time></trkpt><trkpt lat="45.9462067" lon="11.7103533"><ele>666.6666666666666</ele><time>2026-05-01T14:29:05.185Z</time></trkpt><trkpt lat="45.94604" lon="11.7104"><ele>666.0</ele><time>2026-05-01T14:29:06.183Z</time></trkpt><trkpt lat="45.945855" lon="11.7104183"><ele>666.0</ele><time>2026-05-01T14:29:07.185Z</time></trkpt><trkpt lat="45.9456667" lon="11.7104417"><ele>666.0</ele><time>2026-05-01T14:29:08.187Z</time></trkpt><trkpt lat="45.94549" lon="11.7104717"><ele>666.0</ele><time>2026-05-01T14:29:09.184Z</time></trkpt><trkpt lat="45.94533" lon="11.710495"><ele>666.0</ele><time>2026-05-01T14:29:10.186Z</time></trkpt><trkpt lat="45.9451883" lon="11.7105117"><ele>666.0</ele><time>2026-05-01T14:29:11.186Z</time></trkpt><trkpt lat="45.9450683" lon="11.71053"><ele>666.0</ele><time>2026-05-01T14:29:12.184Z</time></trkpt><trkpt lat="45.9449633" lon="11.71055"><ele>666.0</ele><time>2026-05-01T14:29:13.183Z</time></trkpt><trkpt lat="45.9448733" lon="11.710565"><ele>667.0</ele><time>2026-05-01T14:29:14.187Z</time></trkpt><trkpt lat="45.9448017" lon="11.7105767"><ele>668.0</ele><time>2026-05-01T14:29:15.187Z</time></trkpt><trkpt lat="45.9447083" lon="11.7105883"><ele>669.0</ele><time>2026-05-01T14:29:17.184Z</time></trkpt><trkpt lat="45.9446817" lon="11.7104717"><ele>670.0</ele><time>2026-05-01T14:29:19.186Z</time></trkpt><trkpt lat="45.9448133" lon="11.71033"><ele>671.0</ele><time>2026-05-01T14:29:21.19Z</time></trkpt><trkpt lat="45.9449333" lon="11.7102833"><ele>675.0</ele><time>2026-05-01T14:29:22.185Z</time></trkpt><trkpt lat="45.9450717" lon="11.7102067"><ele>679.0</ele><time>2026-05-01T14:29:23.184Z</time></trkpt><trkpt lat="45.9452517" lon="11.7101283"><ele>683.0</ele><time>2026-05-01T14:29:24.183Z</time></trkpt><trkpt lat="45.945445" lon="11.71002"><ele>683.0</ele><time>2026-05-01T14:29:25.186Z</time></trkpt><trkpt lat="45.9456483" lon="11.7099067"><ele>683.0</ele><time>2026-05-01T14:29:26.186Z</time></trkpt><trkpt lat="45.9458583" lon="11.7098133"><ele>683.0</ele><time>2026-05-01T14:29:27.188Z</time></trkpt><trkpt lat="45.94606" lon="11.70972"><ele>680.6666666666666</ele><time>2026-05-01T14:29:28.188Z</time></trkpt><trkpt lat="45.9462567" lon="11.7096317"><ele>678.3333333333334</ele><time>2026-05-01T14:29:29.184Z</time></trkpt><trkpt lat="45.9464483" lon="11.7095417"><ele>676.0</ele><time>2026-05-01T14:29:30.186Z</time></trkpt><trkpt lat="45.9466417" lon="11.7094367"><ele>680.0</ele><time>2026-05-01T14:29:31.184Z</time></trkpt><trkpt lat="45.9468367" lon="11.7092883"><ele>684.0</ele><time>2026-05-01T14:29:32.186Z</time></trkpt><trkpt lat="45.9470267" lon="11.709115"><ele>688.0</ele><time>2026-05-01T14:29:33.187Z</time></trkpt><trkpt lat="45.94721" lon="11.708945"><ele>688.0</ele><time>2026-05-01T14:29:34.185Z</time></trkpt><trkpt lat="45.9473783" lon="11.7087917"><ele>688.0</ele><time>2026-05-01T14:29:35.184Z</time></trkpt><trkpt lat="45.947545" lon="11.708645"><ele>688.0</ele><time>2026-05-01T14:29:36.186Z</time></trkpt><trkpt lat="45.9477067" lon="11.708495"><ele>690.6666666666667</ele><time>2026-05-01T14:29:37.184Z</time></trkpt><trkpt lat="45.9478633" lon="11.7083333"><ele>693.3333333333334</ele><time>2026-05-01T14:29:38.184Z</time></trkpt><trkpt lat="45.9480067" lon="11.7081683"><ele>696.0</ele><time>2026-05-01T14:29:39.184Z</time></trkpt><trkpt lat="45.9481467" lon="11.7080167"><ele>696.0</ele><time>2026-05-01T14:29:40.187Z</time></trkpt><trkpt lat="45.9482967" lon="11.7078833"><ele>696.0</ele><time>2026-05-01T14:29:41.185Z</time></trkpt><trkpt lat="45.9484683" lon="11.707795"><ele>696.0</ele><time>2026-05-01T14:29:42.185Z</time></trkpt><trkpt lat="45.9486417" lon="11.707745"><ele>697.25</ele><time>2026-05-01T14:29:43.186Z</time></trkpt><trkpt lat="45.94879" lon="11.7076733"><ele>698.5</ele><time>2026-05-01T14:29:44.183Z</time></trkpt><trkpt lat="45.94892" lon="11.707585"><ele>699.75</ele><time>2026-05-01T14:29:45.185Z</time></trkpt><trkpt lat="45.9490383" lon="11.7074883"><ele>701.0</ele><time>2026-05-01T14:29:46.184Z</time></trkpt><trkpt lat="45.9491433" lon="11.7073633"><ele>697.25</ele><time>2026-05-01T14:29:47.188Z</time></trkpt><trkpt lat="45.9492267" lon="11.707205"><ele>693.5</ele><time>2026-05-01T14:29:48.186Z</time></trkpt><trkpt lat="45.949295" lon="11.70704"><ele>689.75</ele><time>2026-05-01T14:29:49.184Z</time></trkpt><trkpt lat="45.9493483" lon="11.70691"><ele>686.0</ele><time>2026-05-01T14:29:50.187Z</time></trkpt><trkpt lat="45.9493917" lon="11.7068133"><ele>686.0</ele><time>2026-05-01T14:29:51.186Z</time></trkpt><trkpt lat="45.9494133" lon="11.7066633"><ele>686.0</ele><time>2026-05-01T14:29:53.187Z</time></trkpt><trkpt lat="45.9493133" lon="11.7066017"><ele>686.0</ele><time>2026-05-01T14:29:55.187Z</time></trkpt><trkpt lat="45.9492533" lon="11.70667"><ele>686.0</ele><time>2026-05-01T14:29:56.185Z</time></trkpt><trkpt lat="45.9492" lon="11.7068133"><ele>686.0</ele><time>2026-05-01T14:29:57.183Z</time></trkpt><trkpt lat="45.94914" lon="11.70696"><ele>689.75</ele><time>2026-05-01T14:29:58.183Z</time></trkpt><trkpt lat="45.9490483" lon="11.7070783"><ele>693.5</ele><time>2026-05-01T14:29:59.186Z</time></trkpt><trkpt lat="45.9489283" lon="11.7071517"><ele>697.25</ele><time>2026-05-01T14:30:00.186Z</time></trkpt><trkpt lat="45.9487817" lon="11.7072017"><ele>701.0</ele><time>2026-05-01T14:30:01.185Z</time></trkpt><trkpt lat="45.9486167" lon="11.7072317"><ele>701.0</ele><time>2026-05-01T14:30:02.184Z</time></trkpt><trkpt lat="45.9484533" lon="11.7072617"><ele>701.0</ele><time>2026-05-01T14:30:03.184Z</time></trkpt><trkpt lat="45.948285" lon="11.7073017"><ele>701.0</ele><time>2026-05-01T14:30:04.185Z</time></trkpt><trkpt lat="45.94811" lon="11.7073483"><ele>705.3333333333333</ele><time>2026-05-01T14:30:05.185Z</time></trkpt><trkpt lat="45.9479367" lon="11.70742"><ele>709.6666666666666</ele><time>2026-05-01T14:30:06.184Z</time></trkpt><trkpt lat="45.947755" lon="11.7075233"><ele>714.0</ele><time>2026-05-01T14:30:07.185Z</time></trkpt><trkpt lat="45.9475733" lon="11.7076517"><ele>711.6666666666666</ele><time>2026-05-01T14:30:08.187Z</time></trkpt><trkpt lat="45.9473933" lon="11.7077933"><ele>709.3333333333333</ele><time>2026-05-01T14:30:09.187Z</time></trkpt><trkpt lat="45.94722" lon="11.7079317"><ele>707.0</ele><time>2026-05-01T14:30:10.186Z</time></trkpt><trkpt lat="45.9470433" lon="11.70804"><ele>707.0</ele><time>2026-05-01T14:30:11.186Z</time></trkpt><trkpt lat="45.946865" lon="11.7081367"><ele>707.0</ele><time>2026-05-01T14:30:12.186Z</time></trkpt><trkpt lat="45.946685" lon="11.7082117"><ele>707.0</ele><time>2026-05-01T14:30:13.189Z</time></trkpt><trkpt lat="45.9465133" lon="11.70827"><ele>712.3333333333333</ele><time>2026-05-01T14:30:14.188Z</time></trkpt><trkpt lat="45.946345" lon="11.7083183"><ele>717.6666666666666</ele><time>2026-05-01T14:30:15.189Z</time></trkpt><trkpt lat="45.94618" lon="11.7083317"><ele>723.0</ele><time>2026-05-01T14:30:16.191Z</time></trkpt><trkpt lat="45.9460267" lon="11.7083317"><ele>723.0</ele><time>2026-05-01T14:30:17.186Z</time></trkpt><trkpt lat="45.9458867" lon="11.7083633"><ele>723.0</ele><time>2026-05-01T14:30:18.186Z</time></trkpt><trkpt lat="45.9457567" lon="11.70843"><ele>723.0</ele><time>2026-05-01T14:30:19.185Z</time></trkpt><trkpt lat="45.945625" lon="11.7085067"><ele>723.0</ele><time>2026-05-01T14:30:20.183Z</time></trkpt><trkpt lat="45.945475" lon="11.7085317"><ele>726.3333333333334</ele><time>2026-05-01T14:30:21.183Z</time></trkpt><trkpt lat="45.9453117" lon="11.7085267"><ele>729.6666666666667</ele><time>2026-05-01T14:30:22.185Z</time></trkpt><trkpt lat="45.9451433" lon="11.7085417"><ele>733.0</ele><time>2026-05-01T14:30:23.185Z</time></trkpt><trkpt lat="45.9449733" lon="11.7085683"><ele>726.6666666666667</ele><time>2026-05-01T14:30:24.183Z</time></trkpt><trkpt lat="45.9448033" lon="11.70859"><ele>720.3333333333334</ele><time>2026-05-01T14:30:25.189Z</time></trkpt><trkpt lat="45.9446433" lon="11.7086"><ele>714.0</ele><time>2026-05-01T14:30:26.184Z</time></trkpt><trkpt lat="45.9444967" lon="11.708595"><ele>714.0</ele><time>2026-05-01T14:30:27.185Z</time></trkpt><trkpt lat="45.94436" lon="11.7086133"><ele>714.0</ele><time>2026-05-01T14:30:28.185Z</time></trkpt><trkpt lat="45.9442267" lon="11.7086733"><ele>714.0</ele><time>2026-05-01T14:30:29.184Z</time></trkpt><trkpt lat="45.9441083" lon="11.7087633"><ele>714.0</ele><time>2026-05-01T14:30:30.185Z</time></trkpt><trkpt lat="45.944" lon="11.708885"><ele>716.75</ele><time>2026-05-01T14:30:31.186Z</time></trkpt><trkpt lat="45.9439117" lon="11.7090233"><ele>719.5</ele><time>2026-05-01T14:30:32.187Z</time></trkpt><trkpt lat="45.943825" lon="11.7091517"><ele>722.25</ele><time>2026-05-01T14:30:33.184Z</time></trkpt><trkpt lat="45.9437217" lon="11.7092567"><ele>725.0</ele><time>2026-05-01T14:30:34.186Z</time></trkpt><trkpt lat="45.943605" lon="11.7093333"><ele>725.0</ele><time>2026-05-01T14:30:35.188Z</time></trkpt><trkpt lat="45.9434783" lon="11.7093667"><ele>725.0</ele><time>2026-05-01T14:30:36.189Z</time></trkpt><trkpt lat="45.943345" lon="11.70937"><ele>725.0</ele><time>2026-05-01T14:30:37.184Z</time></trkpt><trkpt lat="45.943205" lon="11.709345"><ele>725.0</ele><time>2026-05-01T14:30:38.184Z</time></trkpt><trkpt lat="45.9430683" lon="11.7092867"><ele>731.6666666666666</ele><time>2026-05-01T14:30:39.186Z</time></trkpt><trkpt lat="45.94293" lon="11.7092267"><ele>738.3333333333334</ele><time>2026-05-01T14:30:40.185Z</time></trkpt><trkpt lat="45.9427783" lon="11.709235"><ele>745.0</ele><time>2026-05-01T14:30:41.187Z</time></trkpt><trkpt lat="45.9426167" lon="11.7092917"><ele>747.0</ele><time>2026-05-01T14:30:42.185Z</time></trkpt><trkpt lat="45.9424633" lon="11.7093533"><ele>749.0</ele><time>2026-05-01T14:30:43.189Z</time></trkpt><trkpt lat="45.9423317" lon="11.709415"><ele>751.0</ele><time>2026-05-01T14:30:44.267Z</time></trkpt><trkpt lat="45.942205" lon="11.7095067"><ele>753.0</ele><time>2026-05-01T14:30:45.185Z</time></trkpt><trkpt lat="45.94209" lon="11.7096533"><ele>747.25</ele><time>2026-05-01T14:30:46.186Z</time></trkpt><trkpt lat="45.9419883" lon="11.70982"><ele>741.5</ele><time>2026-05-01T14:30:47.184Z</time></trkpt><trkpt lat="45.94189" lon="11.7099733"><ele>735.75</ele><time>2026-05-01T14:30:48.187Z</time></trkpt><trkpt lat="45.9418" lon="11.710095"><ele>730.0</ele><time>2026-05-01T14:30:49.184Z</time></trkpt><trkpt lat="45.9417317" lon="11.71019"><ele>730.2</ele><time>2026-05-01T14:30:50.187Z</time></trkpt><trkpt lat="45.9416683" lon="11.7102517"><ele>730.4</ele><time>2026-05-01T14:30:51.189Z</time></trkpt><trkpt lat="45.9415883" lon="11.7102633"><ele>730.5999999999999</ele><time>2026-05-01T14:30:52.187Z</time></trkpt><trkpt lat="45.9415017" lon="11.710225"><ele>730.8</ele><time>2026-05-01T14:30:53.186Z</time></trkpt><trkpt lat="45.9414117" lon="11.7101633"><ele>731.0</ele><time>2026-05-01T14:30:54.185Z</time></trkpt><trkpt lat="45.9413133" lon="11.7100233"><ele>735.4</ele><time>2026-05-01T14:30:55.188Z</time></trkpt><trkpt lat="45.9412367" lon="11.7098783"><ele>739.8</ele><time>2026-05-01T14:30:56.185Z</time></trkpt><trkpt lat="45.9411683" lon="11.709765"><ele>744.1999999999999</ele><time>2026-05-01T14:30:57.184Z</time></trkpt><trkpt lat="45.94111" lon="11.709665"><ele>748.5999999999999</ele><time>2026-05-01T14:30:58.185Z</time></trkpt><trkpt lat="45.9410633" lon="11.7095683"><ele>753.0</ele><time>2026-05-01T14:30:59.185Z</time></trkpt><trkpt lat="45.9410367" lon="11.7094533"><ele>754.4</ele><time>2026-05-01T14:31:00.185Z</time></trkpt><trkpt lat="45.941025" lon="11.7093267"><ele>755.8</ele><time>2026-05-01T14:31:01.184Z</time></trkpt><trkpt lat="45.9410217" lon="11.7092217"><ele>757.2</ele><time>2026-05-01T14:31:02.182Z</time></trkpt><trkpt lat="45.940935" lon="11.7091483"><ele>758.6</ele><time>2026-05-01T14:31:04.186Z</time></trkpt><trkpt lat="45.94085" lon="11.7091917"><ele>760.0</ele><time>2026-05-01T14:31:06.187Z</time></trkpt><trkpt lat="45.9407533" lon="11.7092767"><ele>760.0</ele><time>2026-05-01T14:31:08.186Z</time></trkpt><trkpt lat="45.9406883" lon="11.7093183"><ele>760.0</ele><time>2026-05-01T14:31:09.183Z</time></trkpt><trkpt lat="45.9406167" lon="11.709365"><ele>760.0</ele><time>2026-05-01T14:31:10.183Z</time></trkpt><trkpt lat="45.940535" lon="11.7094183"><ele>760.0</ele><time>2026-05-01T14:31:11.186Z</time></trkpt><trkpt lat="45.9404533" lon="11.7094733"><ele>760.0</ele><time>2026-05-01T14:31:12.188Z</time></trkpt><trkpt lat="45.9403683" lon="11.7095333"><ele>760.0</ele><time>2026-05-01T14:31:13.189Z</time></trkpt><trkpt lat="45.940275" lon="11.7095867"><ele>759.6</ele><time>2026-05-01T14:31:14.186Z</time></trkpt><trkpt lat="45.9401833" lon="11.709635"><ele>759.2</ele><time>2026-05-01T14:31:15.186Z</time></trkpt><trkpt lat="45.9401017" lon="11.70968"><ele>758.8</ele><time>2026-05-01T14:31:16.184Z</time></trkpt><trkpt lat="45.94003" lon="11.7097217"><ele>758.4</ele><time>2026-05-01T14:31:17.185Z</time></trkpt><trkpt lat="45.9399183" lon="11.7096917"><ele>758.0</ele><time>2026-05-01T14:31:19.186Z</time></trkpt><trkpt lat="45.939885" lon="11.7095867"><ele>758.4</ele><time>2026-05-01T14:31:21.184Z</time></trkpt><trkpt lat="45.9399317" lon="11.70946"><ele>758.8</ele><time>2026-05-01T14:31:23.186Z</time></trkpt><trkpt lat="45.9399833" lon="11.7093933"><ele>759.2</ele><time>2026-05-01T14:31:24.184Z</time></trkpt><trkpt lat="45.9400283" lon="11.709315"><ele>759.6</ele><time>2026-05-01T14:31:25.184Z</time></trkpt><trkpt lat="45.9401083" lon="11.709215"><ele>760.0</ele><time>2026-05-01T14:31:26.184Z</time></trkpt><trkpt lat="45.940195" lon="11.7091133"><ele>760.0</ele><time>2026-05-01T14:31:27.185Z</time></trkpt><trkpt lat="45.9402817" lon="11.709"><ele>760.0</ele><time>2026-05-01T14:31:28.182Z</time></trkpt><trkpt lat="45.9403783" lon="11.7088767"><ele>760.0</ele><time>2026-05-01T14:31:29.184Z</time></trkpt><trkpt lat="45.9404783" lon="11.7087533"><ele>760.0</ele><time>2026-05-01T14:31:30.185Z</time></trkpt><trkpt lat="45.940575" lon="11.7086383"><ele>760.75</ele><time>2026-05-01T14:31:31.186Z</time></trkpt><trkpt lat="45.94067" lon="11.7085417"><ele>761.5</ele><time>2026-05-01T14:31:32.185Z</time></trkpt><trkpt lat="45.9407633" lon="11.7084333"><ele>762.25</ele><time>2026-05-01T14:31:33.186Z</time></trkpt><trkpt lat="45.9408383" lon="11.708295"><ele>763.0</ele><time>2026-05-01T14:31:34.183Z</time></trkpt><trkpt lat="45.9408733" lon="11.7081017"><ele>762.3333333333334</ele><time>2026-05-01T14:31:35.184Z</time></trkpt><trkpt lat="45.94089" lon="11.70787"><ele>761.6666666666666</ele><time>2026-05-01T14:31:36.183Z</time></trkpt><trkpt lat="45.9409133" lon="11.7076167"><ele>761.0</ele><time>2026-05-01T14:31:37.186Z</time></trkpt><trkpt lat="45.9409533" lon="11.7073667"><ele>759.6666666666666</ele><time>2026-05-01T14:31:38.268Z</time></trkpt><trkpt lat="45.9409967" lon="11.70712"><ele>758.3333333333334</ele><time>2026-05-01T14:31:39.186Z</time></trkpt><trkpt lat="45.9410383" lon="11.7068683"><ele>757.0</ele><time>2026-05-01T14:31:40.185Z</time></trkpt><trkpt lat="45.9410783" lon="11.7066217"><ele>757.0</ele><time>2026-05-01T14:31:41.184Z</time></trkpt><trkpt lat="45.9411083" lon="11.70639"><ele>757.0</ele><time>2026-05-01T14:31:42.184Z</time></trkpt><trkpt lat="45.9411467" lon="11.706185"><ele>757.0</ele><time>2026-05-01T14:31:43.185Z</time></trkpt><trkpt lat="45.9412017" lon="11.706015"><ele>757.0</ele><time>2026-05-01T14:31:44.185Z</time></trkpt><trkpt lat="45.9412667" lon="11.705865"><ele>758.0</ele><time>2026-05-01T14:31:45.185Z</time></trkpt><trkpt lat="45.94133" lon="11.7057133"><ele>759.0</ele><time>2026-05-01T14:31:46.186Z</time></trkpt><trkpt lat="45.94136" lon="11.705525"><ele>760.0</ele><time>2026-05-01T14:31:47.184Z</time></trkpt><trkpt lat="45.941365" lon="11.7053167"><ele>761.0</ele><time>2026-05-01T14:31:48.186Z</time></trkpt><trkpt lat="45.941355" lon="11.7050917"><ele>763.6666666666666</ele><time>2026-05-01T14:31:49.187Z</time></trkpt><trkpt lat="45.941375" lon="11.7048617"><ele>766.3333333333333</ele><time>2026-05-01T14:31:50.185Z</time></trkpt><trkpt lat="45.9414267" lon="11.7046317"><ele>769.0</ele><time>2026-05-01T14:31:51.187Z</time></trkpt><trkpt lat="45.9414983" lon="11.7044167"><ele>772.0</ele><time>2026-05-01T14:31:52.186Z</time></trkpt><trkpt lat="45.9415567" lon="11.70422"><ele>775.0</ele><time>2026-05-01T14:31:53.184Z</time></trkpt><trkpt lat="45.9416" lon="11.704055"><ele>778.0</ele><time>2026-05-01T14:31:54.183Z</time></trkpt><trkpt lat="45.9416333" lon="11.70392"><ele>781.0</ele><time>2026-05-01T14:31:55.184Z</time></trkpt><trkpt lat="45.94166" lon="11.70382"><ele>784.0</ele><time>2026-05-01T14:31:56.184Z</time></trkpt><trkpt lat="45.9416667" lon="11.7036917"><ele>784.0</ele><time>2026-05-01T14:31:58.185Z</time></trkpt><trkpt lat="45.94159" lon="11.703635"><ele>784.0</ele><time>2026-05-01T14:32:00.184Z</time></trkpt><trkpt lat="45.9415317" lon="11.7037983"><ele>784.0</ele><time>2026-05-01T14:32:02.183Z</time></trkpt><trkpt lat="45.9415317" lon="11.7039333"><ele>784.0</ele><time>2026-05-01T14:32:03.185Z</time></trkpt><trkpt lat="45.9414983" lon="11.7040583"><ele>784.0</ele><time>2026-05-01T14:32:04.184Z</time></trkpt><trkpt lat="45.94143" lon="11.70419"><ele>784.0</ele><time>2026-05-01T14:32:05.184Z</time></trkpt><trkpt lat="45.941355" lon="11.7043517"><ele>784.0</ele><time>2026-05-01T14:32:06.185Z</time></trkpt><trkpt lat="45.9412633" lon="11.704495"><ele>784.0</ele><time>2026-05-01T14:32:07.185Z</time></trkpt><trkpt lat="45.9412217" lon="11.7046633"><ele>784.0</ele><time>2026-05-01T14:32:08.565Z</time></trkpt><trkpt lat="45.9409283" lon="11.7049233"><ele>787.0</ele><time>2026-05-01T14:32:09.751Z</time></trkpt><trkpt lat="45.9409167" lon="11.7050533"><ele>790.0</ele><time>2026-05-01T14:32:10.683Z</time></trkpt><trkpt lat="45.94083" lon="11.7052833"><ele>793.0</ele><time>2026-05-01T14:32:12.185Z</time></trkpt><trkpt lat="45.9407617" lon="11.7054383"><ele>796.0</ele><time>2026-05-01T14:32:13.185Z</time></trkpt><trkpt lat="45.9406867" lon="11.705575"><ele>796.0</ele><time>2026-05-01T14:32:14.185Z</time></trkpt><trkpt lat="45.9405967" lon="11.7056883"><ele>796.0</ele><time>2026-05-01T14:32:15.186Z</time></trkpt><trkpt lat="45.9404933" lon="11.70578"><ele>796.0</ele><time>2026-05-01T14:32:16.19Z</time></trkpt><trkpt lat="45.9403717" lon="11.705855"><ele>796.0</ele><time>2026-05-01T14:32:17.183Z</time></trkpt><trkpt lat="45.9402433" lon="11.7059183"><ele>796.0</ele><time>2026-05-01T14:32:18.184Z</time></trkpt><trkpt lat="45.9401283" lon="11.705975"><ele>796.0</ele><time>2026-05-01T14:32:19.185Z</time></trkpt><trkpt lat="45.940015" lon="11.70602"><ele>796.0</ele><time>2026-05-01T14:32:20.184Z</time></trkpt><trkpt lat="45.9399033" lon="11.706055"><ele>796.0</ele><time>2026-05-01T14:32:21.19Z</time></trkpt><trkpt lat="45.9397867" lon="11.70605"><ele>800.75</ele><time>2026-05-01T14:32:22.186Z</time></trkpt><trkpt lat="45.93967" lon="11.7059983"><ele>805.5</ele><time>2026-05-01T14:32:23.184Z</time></trkpt><trkpt lat="45.9395433" lon="11.7059283"><ele>810.25</ele><time>2026-05-01T14:32:24.183Z</time></trkpt><trkpt lat="45.9394183" lon="11.7058567"><ele>815.0</ele><time>2026-05-01T14:32:25.188Z</time></trkpt><trkpt lat="45.9393033" lon="11.7057967"><ele>814.0</ele><time>2026-05-01T14:32:26.187Z</time></trkpt><trkpt lat="45.9391983" lon="11.705745"><ele>813.0</ele><time>2026-05-01T14:32:27.187Z</time></trkpt><trkpt lat="45.9391083" lon="11.7056833"><ele>812.0</ele><time>2026-05-01T14:32:28.186Z</time></trkpt><trkpt lat="45.9390417" lon="11.7056"><ele>811.0</ele><time>2026-05-01T14:32:29.185Z</time></trkpt><trkpt lat="45.9389917" lon="11.705495"><ele>810.0</ele><time>2026-05-01T14:32:30.186Z</time></trkpt><trkpt lat="45.93895" lon="11.7053817"><ele>810.0</ele><time>2026-05-01T14:32:31.184Z</time></trkpt><trkpt lat="45.93893" lon="11.7052467"><ele>810.0</ele><time>2026-05-01T14:32:32.184Z</time></trkpt><trkpt lat="45.93892" lon="11.705095"><ele>810.0</ele><time>2026-05-01T14:32:33.183Z</time></trkpt><trkpt lat="45.9389117" lon="11.7049267"><ele>810.0</ele><time>2026-05-01T14:32:34.186Z</time></trkpt><trkpt lat="45.9388917" lon="11.7047617"><ele>810.0</ele><time>2026-05-01T14:32:35.186Z</time></trkpt><trkpt lat="45.93887" lon="11.7045717"><ele>816.3333333333333</ele><time>2026-05-01T14:32:36.188Z</time></trkpt><trkpt lat="45.9388367" lon="11.704365"><ele>822.6666666666666</ele><time>2026-05-01T14:32:37.185Z</time></trkpt><trkpt lat="45.9387767" lon="11.7041733"><ele>829.0</ele><time>2026-05-01T14:32:38.183Z</time></trkpt><trkpt lat="45.9387133" lon="11.7039683"><ele>829.0</ele><time>2026-05-01T14:32:39.183Z</time></trkpt><trkpt lat="45.9386517" lon="11.7037633"><ele>829.0</ele><time>2026-05-01T14:32:40.185Z</time></trkpt><trkpt lat="45.93862" lon="11.7035367"><ele>829.0</ele><time>2026-05-01T14:32:41.185Z</time></trkpt><trkpt lat="45.9386133" lon="11.7033"><ele>832.3333333333333</ele><time>2026-05-01T14:32:42.187Z</time></trkpt><trkpt lat="45.9386267" lon="11.70307"><ele>835.6666666666667</ele><time>2026-05-01T14:32:43.185Z</time></trkpt><trkpt lat="45.93862" lon="11.70286"><ele>839.0</ele><time>2026-05-01T14:32:44.182Z</time></trkpt><trkpt lat="45.9385817" lon="11.7026483"><ele>842.3333333333334</ele><time>2026-05-01T14:32:45.186Z</time></trkpt><trkpt lat="45.938515" lon="11.7024333"><ele>845.6666666666667</ele><time>2026-05-01T14:32:46.187Z</time></trkpt><trkpt lat="45.93843" lon="11.70223"><ele>849.0</ele><time>2026-05-01T14:32:47.186Z</time></trkpt><trkpt lat="45.9383533" lon="11.7020283"><ele>846.0</ele><time>2026-05-01T14:32:48.185Z</time></trkpt><trkpt lat="45.9383" lon="11.701825"><ele>843.0</ele><time>2026-05-01T14:32:49.185Z</time></trkpt><trkpt lat="45.9382633" lon="11.701615"><ele>840.0</ele><time>2026-05-01T14:32:50.185Z</time></trkpt><trkpt lat="45.938235" lon="11.7013983"><ele>840.0</ele><time>2026-05-01T14:32:51.186Z</time></trkpt><trkpt lat="45.9382183" lon="11.7011833"><ele>840.0</ele><time>2026-05-01T14:32:52.186Z</time></trkpt><trkpt lat="45.9381917" lon="11.7009883"><ele>840.0</ele><time>2026-05-01T14:32:53.186Z</time></trkpt><trkpt lat="45.9381583" lon="11.70081"><ele>840.0</ele><time>2026-05-01T14:32:54.187Z</time></trkpt><trkpt lat="45.9381117" lon="11.7006317"><ele>842.8</ele><time>2026-05-01T14:32:55.184Z</time></trkpt><trkpt lat="45.938065" lon="11.70046"><ele>845.6</ele><time>2026-05-01T14:32:56.184Z</time></trkpt><trkpt lat="45.9380233" lon="11.7002933"><ele>848.4000000000001</ele><time>2026-05-01T14:32:57.186Z</time></trkpt><trkpt lat="45.9379917" lon="11.70015"><ele>851.2</ele><time>2026-05-01T14:32:58.185Z</time></trkpt><trkpt lat="45.93796" lon="11.7000283"><ele>854.0</ele><time>2026-05-01T14:32:59.184Z</time></trkpt><trkpt lat="45.93793" lon="11.6999083"><ele>857.0</ele><time>2026-05-01T14:33:00.186Z</time></trkpt><trkpt lat="45.93791" lon="11.69977"><ele>860.0000000000001</ele><time>2026-05-01T14:33:01.19Z</time></trkpt><trkpt lat="45.9379067" lon="11.6996167"><ele>863.0000000000001</ele><time>2026-05-01T14:33:02.188Z</time></trkpt><trkpt lat="45.93792" lon="11.69945"><ele>866.0</ele><time>2026-05-01T14:33:03.188Z</time></trkpt><trkpt lat="45.93792" lon="11.6992733"><ele>869.0</ele><time>2026-05-01T14:33:04.184Z</time></trkpt><trkpt lat="45.9378867" lon="11.69908"><ele>874.6666666666667</ele><time>2026-05-01T14:33:05.187Z</time></trkpt><trkpt lat="45.9378283" lon="11.69884"><ele>880.3333333333333</ele><time>2026-05-01T14:33:06.186Z</time></trkpt><trkpt lat="45.93778" lon="11.6985717"><ele>886.0</ele><time>2026-05-01T14:33:07.185Z</time></trkpt><trkpt lat="45.9377417" lon="11.698295"><ele>891.3333333333333</ele><time>2026-05-01T14:33:08.187Z</time></trkpt><trkpt lat="45.937705" lon="11.69802"><ele>896.6666666666667</ele><time>2026-05-01T14:33:09.187Z</time></trkpt><trkpt lat="45.93766" lon="11.69777"><ele>902.0</ele><time>2026-05-01T14:33:10.187Z</time></trkpt><trkpt lat="45.93761" lon="11.6975333"><ele>906.3333333333334</ele><time>2026-05-01T14:33:11.184Z</time></trkpt><trkpt lat="45.9375583" lon="11.6972967"><ele>910.6666666666667</ele><time>2026-05-01T14:33:12.186Z</time></trkpt><trkpt lat="45.9375183" lon="11.69706"><ele>915.0</ele><time>2026-05-01T14:33:13.185Z</time></trkpt><trkpt lat="45.9374783" lon="11.69683"><ele>908.25</ele><time>2026-05-01T14:33:14.185Z</time></trkpt><trkpt lat="45.9374417" lon="11.69663"><ele>901.5</ele><time>2026-05-01T14:33:15.185Z</time></trkpt><trkpt lat="45.9373917" lon="11.69646"><ele>894.75</ele><time>2026-05-01T14:33:16.183Z</time></trkpt><trkpt lat="45.9373267" lon="11.6963"><ele>888.0</ele><time>2026-05-01T14:33:17.184Z</time></trkpt><trkpt lat="45.9372483" lon="11.6961567"><ele>891.5999999999999</ele><time>2026-05-01T14:33:18.184Z</time></trkpt><trkpt lat="45.9371633" lon="11.696035"><ele>895.1999999999999</ele><time>2026-05-01T14:33:19.188Z</time></trkpt><trkpt lat="45.9370917" lon="11.6959283"><ele>898.8</ele><time>2026-05-01T14:33:20.184Z</time></trkpt><trkpt lat="45.9370183" lon="11.6958483"><ele>902.4</ele><time>2026-05-01T14:33:21.184Z</time></trkpt><trkpt lat="45.9369433" lon="11.695795"><ele>906.0</ele><time>2026-05-01T14:33:22.185Z</time></trkpt><trkpt lat="45.936855" lon="11.6957917"><ele>906.0</ele><time>2026-05-01T14:33:23.184Z</time></trkpt><trkpt lat="45.9367717" lon="11.695825"><ele>906.0</ele><time>2026-05-01T14:33:24.186Z</time></trkpt><trkpt lat="45.9367017" lon="11.6959217"><ele>906.0</ele><time>2026-05-01T14:33:25.184Z</time></trkpt><trkpt lat="45.9366583" lon="11.6960933"><ele>906.0</ele><time>2026-05-01T14:33:26.183Z</time></trkpt><trkpt lat="45.9366267" lon="11.69629"><ele>903.0</ele><time>2026-05-01T14:33:27.184Z</time></trkpt><trkpt lat="45.936615" lon="11.6965167"><ele>900.0</ele><time>2026-05-01T14:33:28.186Z</time></trkpt><trkpt lat="45.9365967" lon="11.6967417"><ele>897.0</ele><time>2026-05-01T14:33:29.186Z</time></trkpt><trkpt lat="45.9365783" lon="11.6969717"><ele>896.0</ele><time>2026-05-01T14:33:30.185Z</time></trkpt><trkpt lat="45.9365667" lon="11.6972"><ele>895.0</ele><time>2026-05-01T14:33:31.186Z</time></trkpt><trkpt lat="45.9365533" lon="11.6974417"><ele>894.0</ele><time>2026-05-01T14:33:32.183Z</time></trkpt><trkpt lat="45.9365283" lon="11.6977033"><ele>892.6666666666667</ele><time>2026-05-01T14:33:33.184Z</time></trkpt><trkpt lat="45.9364917" lon="11.6979817"><ele>891.3333333333334</ele><time>2026-05-01T14:33:34.183Z</time></trkpt><trkpt lat="45.9364433" lon="11.6982633"><ele>890.0</ele><time>2026-05-01T14:33:35.184Z</time></trkpt><trkpt lat="45.9363933" lon="11.6985367"><ele>889.0</ele><time>2026-05-01T14:33:36.186Z</time></trkpt><trkpt lat="45.9363383" lon="11.698815"><ele>888.0</ele><time>2026-05-01T14:33:37.187Z</time></trkpt><trkpt lat="45.936295" lon="11.6991017"><ele>887.0</ele><time>2026-05-01T14:33:38.186Z</time></trkpt><trkpt lat="45.93624" lon="11.6993883"><ele>885.0</ele><time>2026-05-01T14:33:39.187Z</time></trkpt><trkpt lat="45.93618" lon="11.6996783"><ele>883.0</ele><time>2026-05-01T14:33:40.185Z</time></trkpt><trkpt lat="45.9361217" lon="11.6999583"><ele>881.0</ele><time>2026-05-01T14:33:41.184Z</time></trkpt><trkpt lat="45.9360683" lon="11.70022"><ele>879.3333333333334</ele><time>2026-05-01T14:33:42.185Z</time></trkpt><trkpt lat="45.93602" lon="11.7004617"><ele>877.6666666666667</ele><time>2026-05-01T14:33:43.184Z</time></trkpt><trkpt lat="45.9359783" lon="11.7006833"><ele>876.0</ele><time>2026-05-01T14:33:44.186Z</time></trkpt><trkpt lat="45.9359333" lon="11.7008867"><ele>876.0</ele><time>2026-05-01T14:33:45.185Z</time></trkpt><trkpt lat="45.9358883" lon="11.7010717"><ele>876.0</ele><time>2026-05-01T14:33:46.184Z</time></trkpt><trkpt lat="45.9358333" lon="11.7012483"><ele>876.0</ele><time>2026-05-01T14:33:47.185Z</time></trkpt><trkpt lat="45.935755" lon="11.70141"><ele>876.0</ele><time>2026-05-01T14:33:48.187Z</time></trkpt><trkpt lat="45.9356467" lon="11.7015567"><ele>881.0</ele><time>2026-05-01T14:33:49.184Z</time></trkpt><trkpt lat="45.9355133" lon="11.7016983"><ele>886.0</ele><time>2026-05-01T14:33:50.187Z</time></trkpt><trkpt lat="45.9353767" lon="11.7018317"><ele>891.0</ele><time>2026-05-01T14:33:51.184Z</time></trkpt><trkpt lat="45.9352583" lon="11.7019583"><ele>891.0</ele><time>2026-05-01T14:33:52.185Z</time></trkpt><trkpt lat="45.93515" lon="11.702075"><ele>891.0</ele><time>2026-05-01T14:33:53.184Z</time></trkpt><trkpt lat="45.9350383" lon="11.7021917"><ele>891.0</ele><time>2026-05-01T14:33:54.184Z</time></trkpt><trkpt lat="45.934915" lon="11.7022817"><ele>891.0</ele><time>2026-05-01T14:33:55.186Z</time></trkpt><trkpt lat="45.93478" lon="11.7023283"><ele>895.5</ele><time>2026-05-01T14:33:56.188Z</time></trkpt><trkpt lat="45.9346383" lon="11.7023417"><ele>900.0</ele><time>2026-05-01T14:33:57.186Z</time></trkpt><trkpt lat="45.9345117" lon="11.7023517"><ele>904.5</ele><time>2026-05-01T14:33:58.186Z</time></trkpt><trkpt lat="45.9343883" lon="11.7023433"><ele>909.0</ele><time>2026-05-01T14:33:59.185Z</time></trkpt><trkpt lat="45.9342683" lon="11.7022967"><ele>912.3333333333333</ele><time>2026-05-01T14:34:00.185Z</time></trkpt><trkpt lat="45.9341533" lon="11.7021933"><ele>915.6666666666666</ele><time>2026-05-01T14:34:01.184Z</time></trkpt><trkpt lat="45.9340383" lon="11.7020417"><ele>919.0</ele><time>2026-05-01T14:34:02.186Z</time></trkpt><trkpt lat="45.9339017" lon="11.7019"><ele>923.3333333333333</ele><time>2026-05-01T14:34:03.184Z</time></trkpt><trkpt lat="45.933755" lon="11.701765"><ele>927.6666666666667</ele><time>2026-05-01T14:34:04.185Z</time></trkpt><trkpt lat="45.9336167" lon="11.7016333"><ele>932.0</ele><time>2026-05-01T14:34:05.187Z</time></trkpt><trkpt lat="45.933495" lon="11.701525"><ele>932.0</ele><time>2026-05-01T14:34:06.187Z</time></trkpt><trkpt lat="45.9334017" lon="11.7014333"><ele>932.0</ele><time>2026-05-01T14:34:07.185Z</time></trkpt><trkpt lat="45.93333" lon="11.70136"><ele>932.0</ele><time>2026-05-01T14:34:08.187Z</time></trkpt><trkpt lat="45.933255" lon="11.7013217"><ele>932.0</ele><time>2026-05-01T14:34:09.185Z</time></trkpt><trkpt lat="45.9331733" lon="11.7013267"><ele>932.0</ele><time>2026-05-01T14:34:10.185Z</time></trkpt><trkpt lat="45.9331033" lon="11.7014017"><ele>932.0</ele><time>2026-05-01T14:34:11.184Z</time></trkpt><trkpt lat="45.93304" lon="11.7015533"><ele>932.0</ele><time>2026-05-01T14:34:12.184Z</time></trkpt><trkpt lat="45.9329783" lon="11.70171"><ele>932.0</ele><time>2026-05-01T14:34:13.182Z</time></trkpt><trkpt lat="45.9329217" lon="11.7018567"><ele>932.0</ele><time>2026-05-01T14:34:14.184Z</time></trkpt><trkpt lat="45.9328483" lon="11.7019783"><ele>932.5</ele><time>2026-05-01T14:34:15.187Z</time></trkpt><trkpt lat="45.932745" lon="11.7020467"><ele>933.0</ele><time>2026-05-01T14:34:16.185Z</time></trkpt><trkpt lat="45.93262" lon="11.7020683"><ele>933.5</ele><time>2026-05-01T14:34:17.186Z</time></trkpt><trkpt lat="45.9324867" lon="11.7020667"><ele>934.0</ele><time>2026-05-01T14:34:18.185Z</time></trkpt><trkpt lat="45.9323667" lon="11.7020817"><ele>934.0</ele><time>2026-05-01T14:34:19.186Z</time></trkpt><trkpt lat="45.9322583" lon="11.7021633"><ele>934.0</ele><time>2026-05-01T14:34:20.183Z</time></trkpt><trkpt lat="45.932155" lon="11.7023"><ele>934.0</ele><time>2026-05-01T14:34:21.189Z</time></trkpt><trkpt lat="45.9320583" lon="11.702475"><ele>934.0</ele><time>2026-05-01T14:34:22.185Z</time></trkpt><trkpt lat="45.931955" lon="11.702665"><ele>929.6666666666666</ele><time>2026-05-01T14:34:23.187Z</time></trkpt><trkpt lat="45.9318383" lon="11.70285"><ele>925.3333333333333</ele><time>2026-05-01T14:34:24.186Z</time></trkpt><trkpt lat="45.9317317" lon="11.7030267"><ele>921.0</ele><time>2026-05-01T14:34:25.185Z</time></trkpt><trkpt lat="45.9316433" lon="11.7031867"><ele>928.25</ele><time>2026-05-01T14:34:26.184Z</time></trkpt><trkpt lat="45.93157" lon="11.7033233"><ele>935.5</ele><time>2026-05-01T14:34:27.184Z</time></trkpt><trkpt lat="45.9314917" lon="11.7034333"><ele>942.75</ele><time>2026-05-01T14:34:28.185Z</time></trkpt><trkpt lat="45.9313917" lon="11.703505"><ele>950.0</ele><time>2026-05-01T14:34:29.183Z</time></trkpt><trkpt lat="45.93127" lon="11.7035217"><ele>950.0</ele><time>2026-05-01T14:34:30.183Z</time></trkpt><trkpt lat="45.93115" lon="11.7035"><ele>950.0</ele><time>2026-05-01T14:34:31.183Z</time></trkpt><trkpt lat="45.9310217" lon="11.703445"><ele>950.0</ele><time>2026-05-01T14:34:32.186Z</time></trkpt><trkpt lat="45.930895" lon="11.70339"><ele>950.0</ele><time>2026-05-01T14:34:33.188Z</time></trkpt><trkpt lat="45.9307733" lon="11.7033383"><ele>951.5</ele><time>2026-05-01T14:34:34.187Z</time></trkpt><trkpt lat="45.9306567" lon="11.703255"><ele>953.0</ele><time>2026-05-01T14:34:35.188Z</time></trkpt><trkpt lat="45.93056" lon="11.7031233"><ele>954.5</ele><time>2026-05-01T14:34:36.186Z</time></trkpt><trkpt lat="45.9304883" lon="11.702975"><ele>956.0</ele><time>2026-05-01T14:34:37.184Z</time></trkpt><trkpt lat="45.9304033" lon="11.70289"><ele>956.0</ele><time>2026-05-01T14:34:38.186Z</time></trkpt><trkpt lat="45.930315" lon="11.7028583"><ele>955.9999999999999</ele><time>2026-05-01T14:34:39.183Z</time></trkpt><trkpt lat="45.9302367" lon="11.7028567"><ele>955.9999999999999</ele><time>2026-05-01T14:34:40.188Z</time></trkpt><trkpt lat="45.9301567" lon="11.7028983"><ele>956.0</ele><time>2026-05-01T14:34:41.184Z</time></trkpt><trkpt lat="45.930085" lon="11.7029867"><ele>956.0</ele><time>2026-05-01T14:34:42.19Z</time></trkpt><trkpt lat="45.9300333" lon="11.70313"><ele>955.5</ele><time>2026-05-01T14:34:43.186Z</time></trkpt><trkpt lat="45.9299867" lon="11.70329"><ele>955.0</ele><time>2026-05-01T14:34:44.188Z</time></trkpt><trkpt lat="45.9299317" lon="11.7034567"><ele>954.5</ele><time>2026-05-01T14:34:45.187Z</time></trkpt><trkpt lat="45.9298683" lon="11.7036133"><ele>954.0</ele><time>2026-05-01T14:34:46.187Z</time></trkpt><trkpt lat="45.9298117" lon="11.70375"><ele>953.2</ele><time>2026-05-01T14:34:47.184Z</time></trkpt><trkpt lat="45.9297433" lon="11.7038683"><ele>952.4000000000001</ele><time>2026-05-01T14:34:48.186Z</time></trkpt><trkpt lat="45.9296567" lon="11.7039633"><ele>951.6</ele><time>2026-05-01T14:34:49.188Z</time></trkpt><trkpt lat="45.9295533" lon="11.7040267"><ele>950.8</ele><time>2026-05-01T14:34:50.19Z</time></trkpt><trkpt lat="45.929445" lon="11.70406"><ele>950.0</ele><time>2026-05-01T14:34:51.185Z</time></trkpt><trkpt lat="45.9293367" lon="11.70406"><ele>950.0</ele><time>2026-05-01T14:34:52.186Z</time></trkpt><trkpt lat="45.92923" lon="11.704015"><ele>950.0</ele><time>2026-05-01T14:34:53.185Z</time></trkpt><trkpt lat="45.9291333" lon="11.703945"><ele>950.0</ele><time>2026-05-01T14:34:54.184Z</time></trkpt><trkpt lat="45.9290483" lon="11.70385"><ele>950.0</ele><time>2026-05-01T14:34:55.185Z</time></trkpt><trkpt lat="45.928975" lon="11.7037267"><ele>950.0</ele><time>2026-05-01T14:34:56.186Z</time></trkpt><trkpt lat="45.9289283" lon="11.7035683"><ele>953.25</ele><time>2026-05-01T14:34:57.184Z</time></trkpt><trkpt lat="45.9289167" lon="11.70339"><ele>956.5</ele><time>2026-05-01T14:34:58.185Z</time></trkpt><trkpt lat="45.928925" lon="11.7032183"><ele>959.75</ele><time>2026-05-01T14:34:59.185Z</time></trkpt><trkpt lat="45.928955" lon="11.703065"><ele>963.0</ele><time>2026-05-01T14:35:00.183Z</time></trkpt><trkpt lat="45.9290167" lon="11.7029283"><ele>963.0</ele><time>2026-05-01T14:35:01.189Z</time></trkpt><trkpt lat="45.9291" lon="11.7028083"><ele>963.0</ele><time>2026-05-01T14:35:02.186Z</time></trkpt><trkpt lat="45.9291983" lon="11.7026917"><ele>963.0</ele><time>2026-05-01T14:35:03.186Z</time></trkpt><trkpt lat="45.929305" lon="11.7025733"><ele>963.0</ele><time>2026-05-01T14:35:04.186Z</time></trkpt><trkpt lat="45.92942" lon="11.7024417"><ele>963.6666666666667</ele><time>2026-05-01T14:35:05.186Z</time></trkpt><trkpt lat="45.9295383" lon="11.702285"><ele>964.3333333333334</ele><time>2026-05-01T14:35:06.187Z</time></trkpt><trkpt lat="45.9296717" lon="11.7021333"><ele>965.0</ele><time>2026-05-01T14:35:07.187Z</time></trkpt><trkpt lat="45.929815" lon="11.7019817"><ele>967.6666666666667</ele><time>2026-05-01T14:35:08.188Z</time></trkpt><trkpt lat="45.92996" lon="11.7018233"><ele>970.3333333333333</ele><time>2026-05-01T14:35:09.185Z</time></trkpt><trkpt lat="45.9301083" lon="11.7016617"><ele>973.0</ele><time>2026-05-01T14:35:10.191Z</time></trkpt><trkpt lat="45.93026" lon="11.7014967"><ele>974.6666666666666</ele><time>2026-05-01T14:35:11.186Z</time></trkpt><trkpt lat="45.9304083" lon="11.701325"><ele>976.3333333333333</ele><time>2026-05-01T14:35:12.187Z</time></trkpt><trkpt lat="45.9305533" lon="11.7011683"><ele>978.0</ele><time>2026-05-01T14:35:13.187Z</time></trkpt><trkpt lat="45.9306917" lon="11.7010183"><ele>980.0</ele><time>2026-05-01T14:35:14.185Z</time></trkpt><trkpt lat="45.9308283" lon="11.7008683"><ele>982.0</ele><time>2026-05-01T14:35:15.183Z</time></trkpt><trkpt lat="45.930965" lon="11.700715"><ele>984.0</ele><time>2026-05-01T14:35:16.187Z</time></trkpt><trkpt lat="45.9311017" lon="11.7005667"><ele>984.0</ele><time>2026-05-01T14:35:17.186Z</time></trkpt><trkpt lat="45.9312383" lon="11.7004217"><ele>984.0</ele><time>2026-05-01T14:35:18.189Z</time></trkpt><trkpt lat="45.9313617" lon="11.7002883"><ele>984.0</ele><time>2026-05-01T14:35:19.185Z</time></trkpt><trkpt lat="45.9314733" lon="11.7001833"><ele>982.0</ele><time>2026-05-01T14:35:20.185Z</time></trkpt><trkpt lat="45.93157" lon="11.7000783"><ele>980.0</ele><time>2026-05-01T14:35:21.186Z</time></trkpt><trkpt lat="45.93165" lon="11.6999717"><ele>978.0</ele><time>2026-05-01T14:35:22.184Z</time></trkpt><trkpt lat="45.9317117" lon="11.69984"><ele>976.0</ele><time>2026-05-01T14:35:23.184Z</time></trkpt><trkpt lat="45.9317367" lon="11.699685"><ele>976.0</ele><time>2026-05-01T14:35:24.185Z</time></trkpt><trkpt lat="45.9317283" lon="11.6995067"><ele>976.0</ele><time>2026-05-01T14:35:25.183Z</time></trkpt><trkpt lat="45.931695" lon="11.6993267"><ele>976.0</ele><time>2026-05-01T14:35:26.185Z</time></trkpt><trkpt lat="45.93166" lon="11.6991583"><ele>976.0</ele><time>2026-05-01T14:35:27.186Z</time></trkpt><trkpt lat="45.9316517" lon="11.6990067"><ele>978.5999999999999</ele><time>2026-05-01T14:35:28.186Z</time></trkpt><trkpt lat="45.931685" lon="11.6988817"><ele>981.1999999999999</ele><time>2026-05-01T14:35:29.185Z</time></trkpt><trkpt lat="45.931755" lon="11.69878"><ele>983.8000000000001</ele><time>2026-05-01T14:35:30.188Z</time></trkpt><trkpt lat="45.9318517" lon="11.6987067"><ele>986.4000000000001</ele><time>2026-05-01T14:35:31.184Z</time></trkpt><trkpt lat="45.93196" lon="11.6986883"><ele>989.0</ele><time>2026-05-01T14:35:32.186Z</time></trkpt><trkpt lat="45.9320683" lon="11.6987033"><ele>989.0</ele><time>2026-05-01T14:35:33.184Z</time></trkpt><trkpt lat="45.9321633" lon="11.6986767"><ele>989.0000000000001</ele><time>2026-05-01T14:35:34.183Z</time></trkpt><trkpt lat="45.9322483" lon="11.698595"><ele>989.0000000000001</ele><time>2026-05-01T14:35:35.183Z</time></trkpt><trkpt lat="45.9323167" lon="11.6984583"><ele>989.0</ele><time>2026-05-01T14:35:36.186Z</time></trkpt><trkpt lat="45.9323717" lon="11.69829"><ele>989.0</ele><time>2026-05-01T14:35:37.185Z</time></trkpt><trkpt lat="45.9324233" lon="11.6981417"><ele>993.4000000000001</ele><time>2026-05-01T14:35:38.185Z</time></trkpt><trkpt lat="45.9324933" lon="11.698035"><ele>997.8000000000001</ele><time>2026-05-01T14:35:39.186Z</time></trkpt><trkpt lat="45.932575" lon="11.69796"><ele>1002.1999999999999</ele><time>2026-05-01T14:35:40.185Z</time></trkpt><trkpt lat="45.93268" lon="11.6979533"><ele>1006.5999999999999</ele><time>2026-05-01T14:35:41.186Z</time></trkpt><trkpt lat="45.9327917" lon="11.698005"><ele>1011.0</ele><time>2026-05-01T14:35:42.185Z</time></trkpt><trkpt lat="45.9329083" lon="11.6980983"><ele>1011.0</ele><time>2026-05-01T14:35:43.188Z</time></trkpt><trkpt lat="45.9330333" lon="11.6981883"><ele>1011.0</ele><time>2026-05-01T14:35:44.184Z</time></trkpt><trkpt lat="45.9331767" lon="11.6982617"><ele>1011.0</ele><time>2026-05-01T14:35:45.188Z</time></trkpt><trkpt lat="45.933325" lon="11.69827"><ele>1011.0</ele><time>2026-05-01T14:35:46.184Z</time></trkpt><trkpt lat="45.9334583" lon="11.6982567"><ele>1010.25</ele><time>2026-05-01T14:35:47.183Z</time></trkpt><trkpt lat="45.9335883" lon="11.6982433"><ele>1009.5</ele><time>2026-05-01T14:35:48.186Z</time></trkpt><trkpt lat="45.9337117" lon="11.698205"><ele>1008.75</ele><time>2026-05-01T14:35:49.189Z</time></trkpt><trkpt lat="45.933815" lon="11.6981233"><ele>1008.0</ele><time>2026-05-01T14:35:50.191Z</time></trkpt><trkpt lat="45.9339067" lon="11.6980017"><ele>1008.0</ele><time>2026-05-01T14:35:51.186Z</time></trkpt><trkpt lat="45.93399" lon="11.6978617"><ele>1008.0</ele><time>2026-05-01T14:35:52.187Z</time></trkpt><trkpt lat="45.9340467" lon="11.697705"><ele>1008.0</ele><time>2026-05-01T14:35:53.185Z</time></trkpt><trkpt lat="45.93408" lon="11.6975433"><ele>1008.0</ele><time>2026-05-01T14:35:54.187Z</time></trkpt><trkpt lat="45.9340717" lon="11.69737"><ele>1009.5999999999999</ele><time>2026-05-01T14:35:55.187Z</time></trkpt><trkpt lat="45.9340317" lon="11.6972017"><ele>1011.1999999999999</ele><time>2026-05-01T14:35:56.265Z</time></trkpt><trkpt lat="45.9339883" lon="11.6970467"><ele>1012.8</ele><time>2026-05-01T14:35:57.186Z</time></trkpt><trkpt lat="45.93396" lon="11.6969067"><ele>1014.4</ele><time>2026-05-01T14:35:58.184Z</time></trkpt><trkpt lat="45.9339767" lon="11.6967683"><ele>1016.0</ele><time>2026-05-01T14:35:59.185Z</time></trkpt><trkpt lat="45.934035" lon="11.69664"><ele>1017.5</ele><time>2026-05-01T14:36:00.184Z</time></trkpt><trkpt lat="45.9341083" lon="11.6965017"><ele>1019.0</ele><time>2026-05-01T14:36:01.185Z</time></trkpt><trkpt lat="45.9341767" lon="11.6963483"><ele>1020.5</ele><time>2026-05-01T14:36:02.185Z</time></trkpt><trkpt lat="45.934235" lon="11.69616"><ele>1022.0</ele><time>2026-05-01T14:36:03.186Z</time></trkpt><trkpt lat="45.9342817" lon="11.695935"><ele>1015.0</ele><time>2026-05-01T14:36:04.184Z</time></trkpt><trkpt lat="45.9343217" lon="11.6956967"><ele>1008.0</ele><time>2026-05-01T14:36:05.184Z</time></trkpt><trkpt lat="45.9343583" lon="11.6954717"><ele>1001.0</ele><time>2026-05-01T14:36:06.185Z</time></trkpt><trkpt lat="45.934385" lon="11.695275"><ele>1001.5999999999999</ele><time>2026-05-01T14:36:07.185Z</time></trkpt><trkpt lat="45.934405" lon="11.69511"><ele>1002.1999999999999</ele><time>2026-05-01T14:36:08.185Z</time></trkpt><trkpt lat="45.934425" lon="11.694965"><ele>1002.8000000000001</ele><time>2026-05-01T14:36:09.187Z</time></trkpt><trkpt lat="45.9344383" lon="11.6948533"><ele>1003.4000000000001</ele><time>2026-05-01T14:36:10.184Z</time></trkpt><trkpt lat="45.9344417" lon="11.6947"><ele>1004.0</ele><time>2026-05-01T14:36:12.187Z</time></trkpt><trkpt lat="45.9343833" lon="11.69463"><ele>1004.0</ele><time>2026-05-01T14:36:14.184Z</time></trkpt><trkpt lat="45.9342983" lon="11.6946883"><ele>1004.0000000000001</ele><time>2026-05-01T14:36:16.185Z</time></trkpt><trkpt lat="45.93426" lon="11.6947833"><ele>1004.0000000000001</ele><time>2026-05-01T14:36:17.184Z</time></trkpt><trkpt lat="45.9342567" lon="11.6949567"><ele>1004.0</ele><time>2026-05-01T14:36:18.183Z</time></trkpt><trkpt lat="45.9342633" lon="11.6951317"><ele>1004.0</ele><time>2026-05-01T14:36:19.186Z</time></trkpt><trkpt lat="45.9342367" lon="11.6953167"><ele>1013.3333333333334</ele><time>2026-05-01T14:36:20.184Z</time></trkpt><trkpt lat="45.9341867" lon="11.695515"><ele>1022.6666666666667</ele><time>2026-05-01T14:36:21.183Z</time></trkpt><trkpt lat="45.9341133" lon="11.6957183"><ele>1032.0</ele><time>2026-05-01T14:36:22.184Z</time></trkpt><trkpt lat="45.9340283" lon="11.6959133"><ele>1028.6666666666667</ele><time>2026-05-01T14:36:23.184Z</time></trkpt><trkpt lat="45.93394" lon="11.6961"><ele>1025.3333333333335</ele><time>2026-05-01T14:36:24.185Z</time></trkpt><trkpt lat="45.933825" lon="11.6962767"><ele>1022.0</ele><time>2026-05-01T14:36:25.185Z</time></trkpt><trkpt lat="45.9336983" lon="11.6964417"><ele>1022.0</ele><time>2026-05-01T14:36:26.185Z</time></trkpt><trkpt lat="45.93359" lon="11.6966033"><ele>1022.0</ele><time>2026-05-01T14:36:27.186Z</time></trkpt><trkpt lat="45.9335" lon="11.6967533"><ele>1022.0</ele><time>2026-05-01T14:36:28.184Z</time></trkpt><trkpt lat="45.9334217" lon="11.6968717"><ele>1022.0</ele><time>2026-05-01T14:36:29.186Z</time></trkpt><trkpt lat="45.9333517" lon="11.69696"><ele>1024.0</ele><time>2026-05-01T14:36:30.185Z</time></trkpt><trkpt lat="45.9332633" lon="11.696995"><ele>1026.0</ele><time>2026-05-01T14:36:31.182Z</time></trkpt><trkpt lat="45.9331667" lon="11.6969767"><ele>1028.0</ele><time>2026-05-01T14:36:32.185Z</time></trkpt><trkpt lat="45.9330733" lon="11.6969"><ele>1030.0</ele><time>2026-05-01T14:36:33.185Z</time></trkpt><trkpt lat="45.9329833" lon="11.696765"><ele>1032.0</ele><time>2026-05-01T14:36:34.185Z</time></trkpt><trkpt lat="45.9328867" lon="11.6966183"><ele>1033.5</ele><time>2026-05-01T14:36:35.185Z</time></trkpt><trkpt lat="45.9327717" lon="11.69649"><ele>1035.0</ele><time>2026-05-01T14:36:36.185Z</time></trkpt><trkpt lat="45.9326467" lon="11.6963833"><ele>1036.5</ele><time>2026-05-01T14:36:37.186Z</time></trkpt><trkpt lat="45.9325267" lon="11.6962883"><ele>1038.0</ele><time>2026-05-01T14:36:38.187Z</time></trkpt><trkpt lat="45.9324133" lon="11.696215"><ele>1040.2</ele><time>2026-05-01T14:36:39.191Z</time></trkpt><trkpt lat="45.932315" lon="11.6961633"><ele>1042.4</ele><time>2026-05-01T14:36:40.183Z</time></trkpt><trkpt lat="45.9322317" lon="11.6961317"><ele>1044.6000000000001</ele><time>2026-05-01T14:36:41.183Z</time></trkpt><trkpt lat="45.9321433" lon="11.6961517"><ele>1046.8</ele><time>2026-05-01T14:36:42.184Z</time></trkpt><trkpt lat="45.9320667" lon="11.696235"><ele>1049.0</ele><time>2026-05-01T14:36:43.186Z</time></trkpt><trkpt lat="45.9320117" lon="11.6963583"><ele>1049.0</ele><time>2026-05-01T14:36:44.184Z</time></trkpt><trkpt lat="45.9319567" lon="11.6964967"><ele>1049.0</ele><time>2026-05-01T14:36:45.185Z</time></trkpt><trkpt lat="45.9319" lon="11.69661"><ele>1049.0</ele><time>2026-05-01T14:36:46.184Z</time></trkpt><trkpt lat="45.9318183" lon="11.6966717"><ele>1049.0</ele><time>2026-05-01T14:36:47.185Z</time></trkpt><trkpt lat="45.9317033" lon="11.6966733"><ele>1049.0</ele><time>2026-05-01T14:36:48.185Z</time></trkpt><trkpt lat="45.9315783" lon="11.69665"><ele>1050.25</ele><time>2026-05-01T14:36:49.185Z</time></trkpt><trkpt lat="45.9314533" lon="11.6966217"><ele>1051.5</ele><time>2026-05-01T14:36:50.188Z</time></trkpt><trkpt lat="45.9313417" lon="11.6966"><ele>1052.75</ele><time>2026-05-01T14:36:51.184Z</time></trkpt><trkpt lat="45.9312317" lon="11.6965917"><ele>1054.0</ele><time>2026-05-01T14:36:52.184Z</time></trkpt><trkpt lat="45.9311167" lon="11.6965817"><ele>1054.0</ele><time>2026-05-01T14:36:53.186Z</time></trkpt><trkpt lat="45.9310017" lon="11.69657"><ele>1054.0</ele><time>2026-05-01T14:36:54.187Z</time></trkpt><trkpt lat="45.9308967" lon="11.6965483"><ele>1054.0</ele><time>2026-05-01T14:36:55.184Z</time></trkpt><trkpt lat="45.93081" lon="11.6965317"><ele>1054.0</ele><time>2026-05-01T14:36:56.189Z</time></trkpt><trkpt lat="45.9307333" lon="11.6965"><ele>1054.0</ele><time>2026-05-01T14:36:57.188Z</time></trkpt><trkpt lat="45.93067" lon="11.696435"><ele>1055.0</ele><time>2026-05-01T14:36:58.186Z</time></trkpt><trkpt lat="45.9306183" lon="11.696335"><ele>1056.0</ele><time>2026-05-01T14:36:59.186Z</time></trkpt><trkpt lat="45.930595" lon="11.6962017"><ele>1057.0</ele><time>2026-05-01T14:37:00.184Z</time></trkpt><trkpt lat="45.9306" lon="11.6960467"><ele>1058.0</ele><time>2026-05-01T14:37:01.184Z</time></trkpt><trkpt lat="45.93063" lon="11.6958833"><ele>1059.0</ele><time>2026-05-01T14:37:02.184Z</time></trkpt><trkpt lat="45.9306783" lon="11.695705"><ele>1060.0</ele><time>2026-05-01T14:37:03.184Z</time></trkpt><trkpt lat="45.930715" lon="11.6955233"><ele>1061.0</ele><time>2026-05-01T14:37:04.188Z</time></trkpt><trkpt lat="45.93075" lon="11.6953283"><ele>1062.0</ele><time>2026-05-01T14:37:05.184Z</time></trkpt><trkpt lat="45.9307883" lon="11.6951383"><ele>1063.0</ele><time>2026-05-01T14:37:06.185Z</time></trkpt><trkpt lat="45.93083" lon="11.69497"><ele>1063.25</ele><time>2026-05-01T14:37:07.184Z</time></trkpt><trkpt lat="45.9308817" lon="11.6948133"><ele>1063.5</ele><time>2026-05-01T14:37:08.184Z</time></trkpt><trkpt lat="45.930945" lon="11.6946633"><ele>1063.75</ele><time>2026-05-01T14:37:09.183Z</time></trkpt><trkpt lat="45.9310233" lon="11.6945183"><ele>1064.0</ele><time>2026-05-01T14:37:10.186Z</time></trkpt><trkpt lat="45.9311183" lon="11.69438"><ele>1066.5</ele><time>2026-05-01T14:37:11.186Z</time></trkpt><trkpt lat="45.9312317" lon="11.6942533"><ele>1069.0</ele><time>2026-05-01T14:37:12.186Z</time></trkpt><trkpt lat="45.9313467" lon="11.6941333"><ele>1071.5</ele><time>2026-05-01T14:37:13.183Z</time></trkpt><trkpt lat="45.93146" lon="11.6940033"><ele>1074.0</ele><time>2026-05-01T14:37:14.184Z</time></trkpt><trkpt lat="45.9315683" lon="11.693865"><ele>1074.0</ele><time>2026-05-01T14:37:15.188Z</time></trkpt><trkpt lat="45.9316633" lon="11.6937083"><ele>1074.0</ele><time>2026-05-01T14:37:16.185Z</time></trkpt><trkpt lat="45.93175" lon="11.6935617"><ele>1074.0</ele><time>2026-05-01T14:37:17.187Z</time></trkpt><trkpt lat="45.9318367" lon="11.6934267"><ele>1074.0</ele><time>2026-05-01T14:37:18.186Z</time></trkpt><trkpt lat="45.9319283" lon="11.69329"><ele>1077.25</ele><time>2026-05-01T14:37:19.185Z</time></trkpt><trkpt lat="45.9320167" lon="11.6931433"><ele>1080.5</ele><time>2026-05-01T14:37:20.186Z</time></trkpt><trkpt lat="45.932095" lon="11.6929817"><ele>1083.75</ele><time>2026-05-01T14:37:21.185Z</time></trkpt><trkpt lat="45.9321633" lon="11.6928"><ele>1087.0</ele><time>2026-05-01T14:37:22.186Z</time></trkpt><trkpt lat="45.9322183" lon="11.6926067"><ele>1087.0</ele><time>2026-05-01T14:37:23.185Z</time></trkpt><trkpt lat="45.9322617" lon="11.6924183"><ele>1087.0</ele><time>2026-05-01T14:37:24.186Z</time></trkpt><trkpt lat="45.9323" lon="11.6922417"><ele>1087.0</ele><time>2026-05-01T14:37:25.185Z</time></trkpt><trkpt lat="45.9323417" lon="11.6920667"><ele>1087.0</ele><time>2026-05-01T14:37:26.189Z</time></trkpt><trkpt lat="45.9323883" lon="11.6918933"><ele>1086.0</ele><time>2026-05-01T14:37:27.183Z</time></trkpt><trkpt lat="45.9324267" lon="11.6917133"><ele>1085.0</ele><time>2026-05-01T14:37:28.186Z</time></trkpt><trkpt lat="45.932455" lon="11.6915183"><ele>1084.0</ele><time>2026-05-01T14:37:29.187Z</time></trkpt><trkpt lat="45.9324833" lon="11.6913217"><ele>1083.0</ele><time>2026-05-01T14:37:30.185Z</time></trkpt><trkpt lat="45.9324933" lon="11.691115"><ele>1082.0</ele><time>2026-05-01T14:37:31.185Z</time></trkpt><trkpt lat="45.932485" lon="11.6909"><ele>1081.0</ele><time>2026-05-01T14:37:32.185Z</time></trkpt><trkpt lat="45.9324633" lon="11.6906683"><ele>1080.0</ele><time>2026-05-01T14:37:33.185Z</time></trkpt><trkpt lat="45.9324583" lon="11.6904117"><ele>1081.3333333333333</ele><time>2026-05-01T14:37:34.185Z</time></trkpt><trkpt lat="45.9324717" lon="11.6901383"><ele>1082.6666666666665</ele><time>2026-05-01T14:37:35.185Z</time></trkpt><trkpt lat="45.932475" lon="11.6898767"><ele>1084.0</ele><time>2026-05-01T14:37:36.184Z</time></trkpt><trkpt lat="45.9324733" lon="11.6896333"><ele>1087.0</ele><time>2026-05-01T14:37:37.184Z</time></trkpt><trkpt lat="45.9324733" lon="11.6894"><ele>1090.0</ele><time>2026-05-01T14:37:38.185Z</time></trkpt><trkpt lat="45.9324717" lon="11.6891833"><ele>1093.0</ele><time>2026-05-01T14:37:39.189Z</time></trkpt><trkpt lat="45.9324767" lon="11.6889783"><ele>1093.0</ele><time>2026-05-01T14:37:40.184Z</time></trkpt><trkpt lat="45.9325033" lon="11.6887667"><ele>1093.0</ele><time>2026-05-01T14:37:41.184Z</time></trkpt><trkpt lat="45.9325567" lon="11.6885517"><ele>1093.0</ele><time>2026-05-01T14:37:42.186Z</time></trkpt><trkpt lat="45.93261" lon="11.68832"><ele>1100.3333333333333</ele><time>2026-05-01T14:37:43.19Z</time></trkpt><trkpt lat="45.9326417" lon="11.6880717"><ele>1107.6666666666667</ele><time>2026-05-01T14:37:44.186Z</time></trkpt><trkpt lat="45.9326583" lon="11.6878167"><ele>1115.0</ele><time>2026-05-01T14:37:45.184Z</time></trkpt><trkpt lat="45.9326767" lon="11.687585"><ele>1117.5</ele><time>2026-05-01T14:37:46.185Z</time></trkpt><trkpt lat="45.9326967" lon="11.687375"><ele>1120.0</ele><time>2026-05-01T14:37:47.183Z</time></trkpt><trkpt lat="45.9327183" lon="11.6871733"><ele>1122.5</ele><time>2026-05-01T14:37:48.187Z</time></trkpt><trkpt lat="45.9327417" lon="11.68697"><ele>1125.0</ele><time>2026-05-01T14:37:49.183Z</time></trkpt><trkpt lat="45.9327783" lon="11.6867683"><ele>1126.75</ele><time>2026-05-01T14:37:50.185Z</time></trkpt><trkpt lat="45.9328317" lon="11.6865633"><ele>1128.5</ele><time>2026-05-01T14:37:51.185Z</time></trkpt><trkpt lat="45.9328817" lon="11.686365"><ele>1130.25</ele><time>2026-05-01T14:37:52.184Z</time></trkpt><trkpt lat="45.9329117" lon="11.6861617"><ele>1132.0</ele><time>2026-05-01T14:37:53.184Z</time></trkpt><trkpt lat="45.9329083" lon="11.6859467"><ele>1132.0</ele><time>2026-05-01T14:37:54.186Z</time></trkpt><trkpt lat="45.9328733" lon="11.68572"><ele>1132.0</ele><time>2026-05-01T14:37:55.185Z</time></trkpt><trkpt lat="45.9328067" lon="11.6854867"><ele>1132.0</ele><time>2026-05-01T14:37:56.188Z</time></trkpt><trkpt lat="45.9327617" lon="11.6852633"><ele>1134.6666666666665</ele><time>2026-05-01T14:37:57.187Z</time></trkpt><trkpt lat="45.932735" lon="11.6850433"><ele>1137.3333333333333</ele><time>2026-05-01T14:37:58.184Z</time></trkpt><trkpt lat="45.9327333" lon="11.6848217"><ele>1140.0</ele><time>2026-05-01T14:37:59.184Z</time></trkpt><trkpt lat="45.9327467" lon="11.6846117"><ele>1142.75</ele><time>2026-05-01T14:38:00.184Z</time></trkpt><trkpt lat="45.9327533" lon="11.68441"><ele>1145.5</ele><time>2026-05-01T14:38:01.184Z</time></trkpt><trkpt lat="45.9327317" lon="11.68421"><ele>1148.25</ele><time>2026-05-01T14:38:02.183Z</time></trkpt><trkpt lat="45.9326717" lon="11.6840133"><ele>1151.0</ele><time>2026-05-01T14:38:03.184Z</time></trkpt><trkpt lat="45.93259" lon="11.6838317"><ele>1143.6666666666667</ele><time>2026-05-01T14:38:04.184Z</time></trkpt><trkpt lat="45.93248" lon="11.6836633"><ele>1136.3333333333333</ele><time>2026-05-01T14:38:05.183Z</time></trkpt><trkpt lat="45.9323267" lon="11.683515"><ele>1129.0</ele><time>2026-05-01T14:38:06.186Z</time></trkpt><trkpt lat="45.93216" lon="11.68338"><ele>1129.0</ele><time>2026-05-01T14:38:07.184Z</time></trkpt><trkpt lat="45.9319767" lon="11.6832517"><ele>1129.0</ele><time>2026-05-01T14:38:08.186Z</time></trkpt><trkpt lat="45.9317967" lon="11.6831067"><ele>1129.0</ele><time>2026-05-01T14:38:09.185Z</time></trkpt><trkpt lat="45.931615" lon="11.682955"><ele>1130.0</ele><time>2026-05-01T14:38:10.186Z</time></trkpt><trkpt lat="45.931435" lon="11.6828033"><ele>1131.0</ele><time>2026-05-01T14:38:11.185Z</time></trkpt><trkpt lat="45.9312617" lon="11.6826667"><ele>1132.0</ele><time>2026-05-01T14:38:12.186Z</time></trkpt><trkpt lat="45.9311" lon="11.682545"><ele>1132.0</ele><time>2026-05-01T14:38:13.187Z</time></trkpt><trkpt lat="45.93095" lon="11.6824317"><ele>1132.0</ele><time>2026-05-01T14:38:14.184Z</time></trkpt><trkpt lat="45.9308133" lon="11.6823233"><ele>1132.0</ele><time>2026-05-01T14:38:15.184Z</time></trkpt><trkpt lat="45.9306867" lon="11.6822217"><ele>1134.75</ele><time>2026-05-01T14:38:16.183Z</time></trkpt><trkpt lat="45.9305617" lon="11.6821217"><ele>1137.5</ele><time>2026-05-01T14:38:17.183Z</time></trkpt><trkpt lat="45.93044" lon="11.6820067"><ele>1140.25</ele><time>2026-05-01T14:38:18.185Z</time></trkpt><trkpt lat="45.9303517" lon="11.6818583"><ele>1143.0</ele><time>2026-05-01T14:38:19.183Z</time></trkpt><trkpt lat="45.930275" lon="11.6817017"><ele>1143.0</ele><time>2026-05-01T14:38:20.186Z</time></trkpt><trkpt lat="45.9301783" lon="11.6815967"><ele>1143.0</ele><time>2026-05-01T14:38:21.184Z</time></trkpt><trkpt lat="45.9300617" lon="11.6815317"><ele>1143.0</ele><time>2026-05-01T14:38:22.184Z</time></trkpt><trkpt lat="45.9299267" lon="11.6815267"><ele>1143.0</ele><time>2026-05-01T14:38:23.186Z</time></trkpt><trkpt lat="45.9297967" lon="11.6815583"><ele>1136.25</ele><time>2026-05-01T14:38:24.187Z</time></trkpt><trkpt lat="45.9296733" lon="11.681565"><ele>1129.5</ele><time>2026-05-01T14:38:25.185Z</time></trkpt><trkpt lat="45.92955" lon="11.6815033"><ele>1122.75</ele><time>2026-05-01T14:38:26.184Z</time></trkpt><trkpt lat="45.9294317" lon="11.68137"><ele>1116.0</ele><time>2026-05-01T14:38:27.186Z</time></trkpt><trkpt lat="45.9293017" lon="11.681225"><ele>1116.75</ele><time>2026-05-01T14:38:28.183Z</time></trkpt><trkpt lat="45.9291733" lon="11.68109"><ele>1117.5</ele><time>2026-05-01T14:38:29.184Z</time></trkpt><trkpt lat="45.9290533" lon="11.68098"><ele>1118.25</ele><time>2026-05-01T14:38:30.185Z</time></trkpt><trkpt lat="45.9289433" lon="11.6808883"><ele>1119.0</ele><time>2026-05-01T14:38:31.185Z</time></trkpt><trkpt lat="45.92883" lon="11.68082"><ele>1119.0</ele><time>2026-05-01T14:38:32.187Z</time></trkpt><trkpt lat="45.9286967" lon="11.6808117"><ele>1119.0</ele><time>2026-05-01T14:38:33.186Z</time></trkpt><trkpt lat="45.9285483" lon="11.6808583"><ele>1119.0</ele><time>2026-05-01T14:38:34.183Z</time></trkpt><trkpt lat="45.92838" lon="11.680925"><ele>1115.3333333333333</ele><time>2026-05-01T14:38:35.186Z</time></trkpt><trkpt lat="45.9281967" lon="11.6809867"><ele>1111.6666666666665</ele><time>2026-05-01T14:38:36.184Z</time></trkpt><trkpt lat="45.9280233" lon="11.68104"><ele>1108.0</ele><time>2026-05-01T14:38:37.184Z</time></trkpt><trkpt lat="45.92786" lon="11.6810967"><ele>1104.75</ele><time>2026-05-01T14:38:38.183Z</time></trkpt><trkpt lat="45.9277183" lon="11.6811633"><ele>1101.5</ele><time>2026-05-01T14:38:39.183Z</time></trkpt><trkpt lat="45.9275917" lon="11.6812233"><ele>1098.25</ele><time>2026-05-01T14:38:40.183Z</time></trkpt><trkpt lat="45.9274633" lon="11.6812583"><ele>1095.0</ele><time>2026-05-01T14:38:41.185Z</time></trkpt><trkpt lat="45.9273183" lon="11.6812483"><ele>1095.0</ele><time>2026-05-01T14:38:42.185Z</time></trkpt><trkpt lat="45.927165" lon="11.6812033"><ele>1095.0</ele><time>2026-05-01T14:38:43.187Z</time></trkpt><trkpt lat="45.9270133" lon="11.6812167"><ele>1095.0</ele><time>2026-05-01T14:38:44.184Z</time></trkpt><trkpt lat="45.92687" lon="11.6812867"><ele>1095.0</ele><time>2026-05-01T14:38:45.185Z</time></trkpt><trkpt lat="45.926745" lon="11.68136"><ele>1095.0</ele><time>2026-05-01T14:38:46.183Z</time></trkpt><trkpt lat="45.9266333" lon="11.68141"><ele>1095.0</ele><time>2026-05-01T14:38:47.184Z</time></trkpt><trkpt lat="45.9265333" lon="11.6814333"><ele>1095.0</ele><time>2026-05-01T14:38:48.184Z</time></trkpt><trkpt lat="45.92644" lon="11.6814133"><ele>1095.0</ele><time>2026-05-01T14:38:49.183Z</time></trkpt><trkpt lat="45.9263617" lon="11.6813333"><ele>1094.6</ele><time>2026-05-01T14:38:50.183Z</time></trkpt><trkpt lat="45.9263117" lon="11.6812167"><ele>1094.2</ele><time>2026-05-01T14:38:51.183Z</time></trkpt><trkpt lat="45.9262967" lon="11.68108"><ele>1093.8</ele><time>2026-05-01T14:38:52.184Z</time></trkpt><trkpt lat="45.92631" lon="11.6809267"><ele>1093.4</ele><time>2026-05-01T14:38:53.184Z</time></trkpt><trkpt lat="45.92635" lon="11.6807617"><ele>1093.0</ele><time>2026-05-01T14:38:54.183Z</time></trkpt><trkpt lat="45.9263983" lon="11.6805933"><ele>1094.25</ele><time>2026-05-01T14:38:55.185Z</time></trkpt><trkpt lat="45.9264433" lon="11.6804217"><ele>1095.5</ele><time>2026-05-01T14:38:56.186Z</time></trkpt><trkpt lat="45.9264883" lon="11.68024"><ele>1096.75</ele><time>2026-05-01T14:38:57.186Z</time></trkpt><trkpt lat="45.9265467" lon="11.6800283"><ele>1098.0</ele><time>2026-05-01T14:38:58.185Z</time></trkpt><trkpt lat="45.92663" lon="11.679795"><ele>1108.6666666666667</ele><time>2026-05-01T14:38:59.184Z</time></trkpt><trkpt lat="45.9267333" lon="11.679565"><ele>1119.3333333333335</ele><time>2026-05-01T14:39:00.185Z</time></trkpt><trkpt lat="45.9268283" lon="11.679345"><ele>1130.0</ele><time>2026-05-01T14:39:01.185Z</time></trkpt><trkpt lat="45.9269133" lon="11.6791433"><ele>1130.0</ele><time>2026-05-01T14:39:02.184Z</time></trkpt><trkpt lat="45.9269967" lon="11.6789583"><ele>1130.0</ele><time>2026-05-01T14:39:03.185Z</time></trkpt><trkpt lat="45.9270783" lon="11.67879"><ele>1130.0</ele><time>2026-05-01T14:39:04.185Z</time></trkpt><trkpt lat="45.9271517" lon="11.6786367"><ele>1130.0</ele><time>2026-05-01T14:39:05.184Z</time></trkpt><trkpt lat="45.9272117" lon="11.6784917"><ele>1128.6</ele><time>2026-05-01T14:39:06.186Z</time></trkpt><trkpt lat="45.9272583" lon="11.67836"><ele>1127.2</ele><time>2026-05-01T14:39:07.184Z</time></trkpt><trkpt lat="45.9272767" lon="11.6782217"><ele>1125.8</ele><time>2026-05-01T14:39:08.185Z</time></trkpt><trkpt lat="45.927255" lon="11.678075"><ele>1124.4</ele><time>2026-05-01T14:39:09.185Z</time></trkpt><trkpt lat="45.9271833" lon="11.6779183"><ele>1123.0</ele><time>2026-05-01T14:39:10.185Z</time></trkpt><trkpt lat="45.9270917" lon="11.67777"><ele>1123.75</ele><time>2026-05-01T14:39:11.185Z</time></trkpt><trkpt lat="45.9270233" lon="11.6776117"><ele>1124.5</ele><time>2026-05-01T14:39:12.184Z</time></trkpt><trkpt lat="45.9269933" lon="11.6774383"><ele>1125.25</ele><time>2026-05-01T14:39:13.183Z</time></trkpt><trkpt lat="45.9270083" lon="11.6772583"><ele>1126.0</ele><time>2026-05-01T14:39:14.185Z</time></trkpt><trkpt lat="45.9270383" lon="11.67709"><ele>1127.2</ele><time>2026-05-01T14:39:15.186Z</time></trkpt><trkpt lat="45.9270467" lon="11.6769333"><ele>1128.3999999999999</ele><time>2026-05-01T14:39:16.185Z</time></trkpt><trkpt lat="45.92703" lon="11.6767867"><ele>1129.6</ele><time>2026-05-01T14:39:17.185Z</time></trkpt><trkpt lat="45.9269767" lon="11.6766633"><ele>1130.8</ele><time>2026-05-01T14:39:18.183Z</time></trkpt><trkpt lat="45.9268833" lon="11.676565"><ele>1132.0</ele><time>2026-05-01T14:39:19.187Z</time></trkpt><trkpt lat="45.9267667" lon="11.676505"><ele>1125.0</ele><time>2026-05-01T14:39:20.186Z</time></trkpt><trkpt lat="45.9266367" lon="11.6764917"><ele>1118.0</ele><time>2026-05-01T14:39:21.187Z</time></trkpt><trkpt lat="45.9264933" lon="11.67653"><ele>1111.0</ele><time>2026-05-01T14:39:22.183Z</time></trkpt><trkpt lat="45.9263483" lon="11.6765817"><ele>1104.0</ele><time>2026-05-01T14:39:23.184Z</time></trkpt><trkpt lat="45.9261917" lon="11.6765867"><ele>1104.0</ele><time>2026-05-01T14:39:24.189Z</time></trkpt><trkpt lat="45.9260217" lon="11.6765467"><ele>1104.0</ele><time>2026-05-01T14:39:25.184Z</time></trkpt><trkpt lat="45.9258533" lon="11.67648"><ele>1104.0</ele><time>2026-05-01T14:39:26.184Z</time></trkpt><trkpt lat="45.9257033" lon="11.6764167"><ele>1102.0</ele><time>2026-05-01T14:39:27.184Z</time></trkpt><trkpt lat="45.92558" lon="11.6763367"><ele>1100.0</ele><time>2026-05-01T14:39:28.184Z</time></trkpt><trkpt lat="45.9254817" lon="11.6762517"><ele>1098.0</ele><time>2026-05-01T14:39:29.185Z</time></trkpt><trkpt lat="45.9253833" lon="11.6761867"><ele>1096.0</ele><time>2026-05-01T14:39:30.186Z</time></trkpt><trkpt lat="45.92527" lon="11.67619"><ele>1102.0</ele><time>2026-05-01T14:39:31.184Z</time></trkpt><trkpt lat="45.9250167" lon="11.6760383"><ele>1108.0</ele><time>2026-05-01T14:39:32.457Z</time></trkpt><trkpt lat="45.9248617" lon="11.676095"><ele>1114.0</ele><time>2026-05-01T14:39:34.182Z</time></trkpt><trkpt lat="45.9247733" lon="11.6760833"><ele>1114.0</ele><time>2026-05-01T14:39:35.184Z</time></trkpt><trkpt lat="45.9246883" lon="11.6760433"><ele>1114.0</ele><time>2026-05-01T14:39:36.188Z</time></trkpt><trkpt lat="45.9245933" lon="11.6759983"><ele>1114.0</ele><time>2026-05-01T14:39:37.187Z</time></trkpt><trkpt lat="45.9244833" lon="11.6759667"><ele>1114.0</ele><time>2026-05-01T14:39:38.189Z</time></trkpt><trkpt lat="45.92434" lon="11.6760117"><ele>1114.0</ele><time>2026-05-01T14:39:39.189Z</time></trkpt><trkpt lat="45.9242017" lon="11.676065"><ele>1105.0</ele><time>2026-05-01T14:39:40.188Z</time></trkpt><trkpt lat="45.9240683" lon="11.6761217"><ele>1096.0</ele><time>2026-05-01T14:39:41.186Z</time></trkpt><trkpt lat="45.923945" lon="11.676195"><ele>1087.0</ele><time>2026-05-01T14:39:42.185Z</time></trkpt><trkpt lat="45.923825" lon="11.676255"><ele>1078.0</ele><time>2026-05-01T14:39:43.189Z</time></trkpt><trkpt lat="45.923695" lon="11.67629"><ele>1078.0</ele><time>2026-05-01T14:39:44.184Z</time></trkpt><trkpt lat="45.923555" lon="11.6762583"><ele>1078.0</ele><time>2026-05-01T14:39:45.185Z</time></trkpt><trkpt lat="45.9234017" lon="11.6762133"><ele>1078.0</ele><time>2026-05-01T14:39:46.185Z</time></trkpt><trkpt lat="45.9232317" lon="11.6762433"><ele>1079.3333333333333</ele><time>2026-05-01T14:39:47.185Z</time></trkpt><trkpt lat="45.9230417" lon="11.6763233"><ele>1080.6666666666667</ele><time>2026-05-01T14:39:48.185Z</time></trkpt><trkpt lat="45.9228467" lon="11.6763917"><ele>1082.0</ele><time>2026-05-01T14:39:49.189Z</time></trkpt><trkpt lat="45.9226567" lon="11.6764533"><ele>1082.6666666666667</ele><time>2026-05-01T14:39:50.184Z</time></trkpt><trkpt lat="45.9224633" lon="11.6764867"><ele>1083.3333333333333</ele><time>2026-05-01T14:39:51.186Z</time></trkpt><trkpt lat="45.922275" lon="11.67652"><ele>1084.0</ele><time>2026-05-01T14:39:52.185Z</time></trkpt><trkpt lat="45.9220967" lon="11.676555"><ele>1084.0</ele><time>2026-05-01T14:39:53.184Z</time></trkpt><trkpt lat="45.9219317" lon="11.676585"><ele>1084.0</ele><time>2026-05-01T14:39:54.185Z</time></trkpt><trkpt lat="45.9217783" lon="11.67661"><ele>1084.0</ele><time>2026-05-01T14:39:55.184Z</time></trkpt><trkpt lat="45.9216367" lon="11.67663"><ele>1083.25</ele><time>2026-05-01T14:39:56.185Z</time></trkpt><trkpt lat="45.9215033" lon="11.67664"><ele>1082.5</ele><time>2026-05-01T14:39:57.186Z</time></trkpt><trkpt lat="45.9213683" lon="11.6766333"><ele>1081.75</ele><time>2026-05-01T14:39:58.185Z</time></trkpt><trkpt lat="45.9212333" lon="11.6765817"><ele>1081.0</ele><time>2026-05-01T14:39:59.185Z</time></trkpt><trkpt lat="45.921105" lon="11.67648"><ele>1081.0</ele><time>2026-05-01T14:40:00.185Z</time></trkpt><trkpt lat="45.9209917" lon="11.67636"><ele>1081.0</ele><time>2026-05-01T14:40:01.185Z</time></trkpt><trkpt lat="45.9208833" lon="11.676275"><ele>1081.0</ele><time>2026-05-01T14:40:02.184Z</time></trkpt><trkpt lat="45.9207717" lon="11.6762133"><ele>1081.0</ele><time>2026-05-01T14:40:03.185Z</time></trkpt><trkpt lat="45.9206433" lon="11.6762033"><ele>1078.0</ele><time>2026-05-01T14:40:04.186Z</time></trkpt><trkpt lat="45.9205083" lon="11.676235"><ele>1075.0</ele><time>2026-05-01T14:40:05.186Z</time></trkpt><trkpt lat="45.920365" lon="11.6762533"><ele>1072.0</ele><time>2026-05-01T14:40:06.185Z</time></trkpt><trkpt lat="45.9202133" lon="11.6762267"><ele>1069.0</ele><time>2026-05-01T14:40:07.188Z</time></trkpt><trkpt lat="45.920055" lon="11.6761717"><ele>1065.6666666666665</ele><time>2026-05-01T14:40:08.187Z</time></trkpt><trkpt lat="45.9198933" lon="11.6761217"><ele>1062.3333333333333</ele><time>2026-05-01T14:40:09.19Z</time></trkpt><trkpt lat="45.9197417" lon="11.6760817"><ele>1059.0</ele><time>2026-05-01T14:40:10.187Z</time></trkpt><trkpt lat="45.9196067" lon="11.6760417"><ele>1063.0</ele><time>2026-05-01T14:40:11.187Z</time></trkpt><trkpt lat="45.9194783" lon="11.6759983"><ele>1067.0</ele><time>2026-05-01T14:40:12.186Z</time></trkpt><trkpt lat="45.9193533" lon="11.6759483"><ele>1071.0</ele><time>2026-05-01T14:40:13.187Z</time></trkpt><trkpt lat="45.9192317" lon="11.675865"><ele>1075.0</ele><time>2026-05-01T14:40:14.188Z</time></trkpt><trkpt lat="45.9191167" lon="11.6757533"><ele>1075.0</ele><time>2026-05-01T14:40:15.188Z</time></trkpt><trkpt lat="45.9190117" lon="11.6755983"><ele>1075.0</ele><time>2026-05-01T14:40:16.184Z</time></trkpt><trkpt lat="45.9189083" lon="11.6754167"><ele>1075.0</ele><time>2026-05-01T14:40:17.184Z</time></trkpt><trkpt lat="45.91881" lon="11.6752267"><ele>1076.75</ele><time>2026-05-01T14:40:18.185Z</time></trkpt><trkpt lat="45.9187183" lon="11.675055"><ele>1078.5</ele><time>2026-05-01T14:40:19.186Z</time></trkpt><trkpt lat="45.9186233" lon="11.674895"><ele>1080.25</ele><time>2026-05-01T14:40:20.186Z</time></trkpt><trkpt lat="45.9185217" lon="11.6747467"><ele>1082.0</ele><time>2026-05-01T14:40:21.19Z</time></trkpt><trkpt lat="45.918415" lon="11.6746133"><ele>1081.75</ele><time>2026-05-01T14:40:22.185Z</time></trkpt><trkpt lat="45.918295" lon="11.6744917"><ele>1081.5</ele><time>2026-05-01T14:40:23.184Z</time></trkpt><trkpt lat="45.9181617" lon="11.6744017"><ele>1081.25</ele><time>2026-05-01T14:40:24.185Z</time></trkpt><trkpt lat="45.9180183" lon="11.674345"><ele>1081.0</ele><time>2026-05-01T14:40:25.185Z</time></trkpt><trkpt lat="45.9178683" lon="11.6743183"><ele>1081.0</ele><time>2026-05-01T14:40:26.189Z</time></trkpt><trkpt lat="45.91772" lon="11.6743167"><ele>1081.0</ele><time>2026-05-01T14:40:27.186Z</time></trkpt><trkpt lat="45.9175767" lon="11.6743583"><ele>1081.0</ele><time>2026-05-01T14:40:28.187Z</time></trkpt><trkpt lat="45.9174317" lon="11.6744267"><ele>1081.0</ele><time>2026-05-01T14:40:29.187Z</time></trkpt><trkpt lat="45.9172933" lon="11.6745367"><ele>1075.75</ele><time>2026-05-01T14:40:30.188Z</time></trkpt><trkpt lat="45.917165" lon="11.6746667"><ele>1070.5</ele><time>2026-05-01T14:40:31.186Z</time></trkpt><trkpt lat="45.91704" lon="11.6747783"><ele>1065.25</ele><time>2026-05-01T14:40:32.184Z</time></trkpt><trkpt lat="45.9169217" lon="11.6748833"><ele>1060.0</ele><time>2026-05-01T14:40:33.185Z</time></trkpt><trkpt lat="45.916805" lon="11.6749617"><ele>1062.25</ele><time>2026-05-01T14:40:34.186Z</time></trkpt><trkpt lat="45.916675" lon="11.6750217"><ele>1064.5</ele><time>2026-05-01T14:40:35.184Z</time></trkpt><trkpt lat="45.9165267" lon="11.6750583"><ele>1066.75</ele><time>2026-05-01T14:40:36.185Z</time></trkpt><trkpt lat="45.916375" lon="11.6750933"><ele>1069.0</ele><time>2026-05-01T14:40:37.187Z</time></trkpt><trkpt lat="45.91622" lon="11.67514"><ele>1069.0</ele><time>2026-05-01T14:40:38.184Z</time></trkpt><trkpt lat="45.9160633" lon="11.6751983"><ele>1069.0</ele><time>2026-05-01T14:40:39.185Z</time></trkpt><trkpt lat="45.9159133" lon="11.675265"><ele>1069.0</ele><time>2026-05-01T14:40:40.184Z</time></trkpt><trkpt lat="45.915775" lon="11.675325"><ele>1063.75</ele><time>2026-05-01T14:40:41.183Z</time></trkpt><trkpt lat="45.9156483" lon="11.67538"><ele>1058.5</ele><time>2026-05-01T14:40:42.188Z</time></trkpt><trkpt lat="45.9155333" lon="11.6754233"><ele>1053.25</ele><time>2026-05-01T14:40:43.186Z</time></trkpt><trkpt lat="45.91543" lon="11.6754567"><ele>1048.0</ele><time>2026-05-01T14:40:44.185Z</time></trkpt><trkpt lat="45.915335" lon="11.6754833"><ele>1048.0</ele><time>2026-05-01T14:40:45.189Z</time></trkpt><trkpt lat="45.9152483" lon="11.675505"><ele>1048.0</ele><time>2026-05-01T14:40:46.186Z</time></trkpt><trkpt lat="45.9151617" lon="11.6755333"><ele>1048.0</ele><time>2026-05-01T14:40:47.185Z</time></trkpt><trkpt lat="45.915075" lon="11.6755533"><ele>1048.0</ele><time>2026-05-01T14:40:48.184Z</time></trkpt><trkpt lat="45.9149933" lon="11.67555"><ele>1048.0</ele><time>2026-05-01T14:40:49.187Z</time></trkpt><trkpt lat="45.9149183" lon="11.6755117"><ele>1048.0</ele><time>2026-05-01T14:40:50.185Z</time></trkpt><trkpt lat="45.9148567" lon="11.6754367"><ele>1050.0</ele><time>2026-05-01T14:40:51.188Z</time></trkpt><trkpt lat="45.914815" lon="11.6753333"><ele>1052.0</ele><time>2026-05-01T14:40:52.187Z</time></trkpt><trkpt lat="45.9147933" lon="11.6752133"><ele>1054.0</ele><time>2026-05-01T14:40:53.184Z</time></trkpt><trkpt lat="45.9147983" lon="11.6750617"><ele>1056.0</ele><time>2026-05-01T14:40:54.183Z</time></trkpt><trkpt lat="45.9148333" lon="11.674885"><ele>1058.0</ele><time>2026-05-01T14:40:55.187Z</time></trkpt><trkpt lat="45.91488" lon="11.6746833"><ele>1058.6666666666667</ele><time>2026-05-01T14:40:56.184Z</time></trkpt><trkpt lat="45.914905" lon="11.6744683"><ele>1059.3333333333333</ele><time>2026-05-01T14:40:57.183Z</time></trkpt><trkpt lat="45.9149133" lon="11.67424"><ele>1060.0</ele><time>2026-05-01T14:40:58.185Z</time></trkpt><trkpt lat="45.9149117" lon="11.6740117"><ele>1060.0</ele><time>2026-05-01T14:40:59.185Z</time></trkpt><trkpt lat="45.914895" lon="11.673775"><ele>1060.0</ele><time>2026-05-01T14:41:00.188Z</time></trkpt><trkpt lat="45.9148817" lon="11.673525"><ele>1060.0</ele><time>2026-05-01T14:41:01.184Z</time></trkpt><trkpt lat="45.91488" lon="11.673275"><ele>1060.3333333333333</ele><time>2026-05-01T14:41:02.187Z</time></trkpt><trkpt lat="45.9148783" lon="11.6730433"><ele>1060.6666666666667</ele><time>2026-05-01T14:41:03.184Z</time></trkpt><trkpt lat="45.91488" lon="11.672825"><ele>1061.0</ele><time>2026-05-01T14:41:04.188Z</time></trkpt><trkpt lat="45.9148883" lon="11.6726167"><ele>1060.25</ele><time>2026-05-01T14:41:05.186Z</time></trkpt><trkpt lat="45.9148917" lon="11.6724117"><ele>1059.5</ele><time>2026-05-01T14:41:06.186Z</time></trkpt><trkpt lat="45.9148983" lon="11.672205"><ele>1058.75</ele><time>2026-05-01T14:41:07.186Z</time></trkpt><trkpt lat="45.914925" lon="11.671995"><ele>1058.0</ele><time>2026-05-01T14:41:08.185Z</time></trkpt><trkpt lat="45.914955" lon="11.6717833"><ele>1056.6666666666667</ele><time>2026-05-01T14:41:09.187Z</time></trkpt><trkpt lat="45.914965" lon="11.6715683"><ele>1055.3333333333333</ele><time>2026-05-01T14:41:10.188Z</time></trkpt><trkpt lat="45.9149283" lon="11.6713517"><ele>1054.0</ele><time>2026-05-01T14:41:11.189Z</time></trkpt><trkpt lat="45.9148533" lon="11.67113"><ele>1057.0</ele><time>2026-05-01T14:41:12.186Z</time></trkpt><trkpt lat="45.9147633" lon="11.670875"><ele>1060.0</ele><time>2026-05-01T14:41:13.186Z</time></trkpt><trkpt lat="45.9146567" lon="11.6706083"><ele>1063.0</ele><time>2026-05-01T14:41:14.185Z</time></trkpt><trkpt lat="45.914555" lon="11.6703517"><ele>1064.6666666666665</ele><time>2026-05-01T14:41:15.185Z</time></trkpt><trkpt lat="45.9144567" lon="11.67011"><ele>1066.3333333333333</ele><time>2026-05-01T14:41:16.185Z</time></trkpt><trkpt lat="45.9143667" lon="11.6698833"><ele>1068.0</ele><time>2026-05-01T14:41:17.183Z</time></trkpt><trkpt lat="45.9142767" lon="11.6696717"><ele>1061.0</ele><time>2026-05-01T14:41:18.184Z</time></trkpt><trkpt lat="45.91419" lon="11.669475"><ele>1054.0</ele><time>2026-05-01T14:41:19.185Z</time></trkpt><trkpt lat="45.9141067" lon="11.66929"><ele>1047.0</ele><time>2026-05-01T14:41:20.186Z</time></trkpt><trkpt lat="45.9140267" lon="11.6691167"><ele>1047.0</ele><time>2026-05-01T14:41:21.187Z</time></trkpt><trkpt lat="45.9139583" lon="11.6689467"><ele>1047.0</ele><time>2026-05-01T14:41:22.184Z</time></trkpt><trkpt lat="45.9138967" lon="11.6688"><ele>1047.0</ele><time>2026-05-01T14:41:23.184Z</time></trkpt><trkpt lat="45.9138483" lon="11.6686617"><ele>1047.0</ele><time>2026-05-01T14:41:24.189Z</time></trkpt><trkpt lat="45.91381" lon="11.66854"><ele>1046.4</ele><time>2026-05-01T14:41:25.185Z</time></trkpt><trkpt lat="45.9138067" lon="11.6684117"><ele>1045.8000000000002</ele><time>2026-05-01T14:41:26.188Z</time></trkpt><trkpt lat="45.9138467" lon="11.6682833"><ele>1045.2</ele><time>2026-05-01T14:41:27.186Z</time></trkpt><trkpt lat="45.9139317" lon="11.6681883"><ele>1044.6000000000001</ele><time>2026-05-01T14:41:28.183Z</time></trkpt><trkpt lat="45.91403" lon="11.6681267"><ele>1044.0</ele><time>2026-05-01T14:41:29.186Z</time></trkpt><trkpt lat="45.9141533" lon="11.66811"><ele>1044.6666666666667</ele><time>2026-05-01T14:41:30.184Z</time></trkpt><trkpt lat="45.9142933" lon="11.66814"><ele>1045.3333333333335</ele><time>2026-05-01T14:41:31.184Z</time></trkpt><trkpt lat="45.9144517" lon="11.668215"><ele>1046.0</ele><time>2026-05-01T14:41:32.184Z</time></trkpt><trkpt lat="45.914615" lon="11.6683017"><ele>1046.0</ele><time>2026-05-01T14:41:33.185Z</time></trkpt><trkpt lat="45.914785" lon="11.6683783"><ele>1046.0</ele><time>2026-05-01T14:41:34.186Z</time></trkpt><trkpt lat="45.9149583" lon="11.668445"><ele>1046.0</ele><time>2026-05-01T14:41:35.185Z</time></trkpt><trkpt lat="45.9151317" lon="11.6685167"><ele>1045.3333333333335</ele><time>2026-05-01T14:41:36.183Z</time></trkpt><trkpt lat="45.9153117" lon="11.6685783"><ele>1044.6666666666667</ele><time>2026-05-01T14:41:37.183Z</time></trkpt><trkpt lat="45.9154867" lon="11.6686117"><ele>1044.0</ele><time>2026-05-01T14:41:38.184Z</time></trkpt><trkpt lat="45.915655" lon="11.66863"><ele>1044.0</ele><time>2026-05-01T14:41:39.186Z</time></trkpt><trkpt lat="45.9158183" lon="11.6686133"><ele>1044.0</ele><time>2026-05-01T14:41:40.185Z</time></trkpt><trkpt lat="45.915975" lon="11.6685867"><ele>1044.0</ele><time>2026-05-01T14:41:41.184Z</time></trkpt><trkpt lat="45.9161283" lon="11.6685883"><ele>1044.0</ele><time>2026-05-01T14:41:42.185Z</time></trkpt><trkpt lat="45.9162783" lon="11.6685833"><ele>1044.0</ele><time>2026-05-01T14:41:43.186Z</time></trkpt><trkpt lat="45.9164117" lon="11.6685667"><ele>1044.0</ele><time>2026-05-01T14:41:44.184Z</time></trkpt><trkpt lat="45.9165433" lon="11.6685083"><ele>1044.0</ele><time>2026-05-01T14:41:45.186Z</time></trkpt><trkpt lat="45.9166633" lon="11.66842"><ele>1044.0</ele><time>2026-05-01T14:41:46.185Z</time></trkpt><trkpt lat="45.9167783" lon="11.6683017"><ele>1044.0</ele><time>2026-05-01T14:41:47.185Z</time></trkpt><trkpt lat="45.91689" lon="11.6682067"><ele>1044.0</ele><time>2026-05-01T14:41:48.184Z</time></trkpt><trkpt lat="45.917025" lon="11.668165"><ele>1044.0</ele><time>2026-05-01T14:41:49.185Z</time></trkpt><trkpt lat="45.917175" lon="11.6681783"><ele>1044.0</ele><time>2026-05-01T14:41:50.184Z</time></trkpt><trkpt lat="45.91734" lon="11.6682217"><ele>1044.0</ele><time>2026-05-01T14:41:51.186Z</time></trkpt><trkpt lat="45.917515" lon="11.668265"><ele>1044.0</ele><time>2026-05-01T14:41:52.184Z</time></trkpt><trkpt lat="45.9176983" lon="11.6683283"><ele>1040.0</ele><time>2026-05-01T14:41:53.183Z</time></trkpt><trkpt lat="45.9178667" lon="11.6684"><ele>1036.0</ele><time>2026-05-01T14:41:54.187Z</time></trkpt><trkpt lat="45.9180283" lon="11.6684767"><ele>1032.0</ele><time>2026-05-01T14:41:55.185Z</time></trkpt><trkpt lat="45.9181783" lon="11.6685333"><ele>1032.0</ele><time>2026-05-01T14:41:56.188Z</time></trkpt><trkpt lat="45.918325" lon="11.66858"><ele>1032.0</ele><time>2026-05-01T14:41:57.185Z</time></trkpt><trkpt lat="45.91848" lon="11.668595"><ele>1032.0</ele><time>2026-05-01T14:41:58.185Z</time></trkpt><trkpt lat="45.9186217" lon="11.6685733"><ele>1032.0</ele><time>2026-05-01T14:41:59.186Z</time></trkpt><trkpt lat="45.9187483" lon="11.6685267"><ele>1029.0</ele><time>2026-05-01T14:42:00.186Z</time></trkpt><trkpt lat="45.9188683" lon="11.668495"><ele>1026.0</ele><time>2026-05-01T14:42:01.184Z</time></trkpt><trkpt lat="45.9189867" lon="11.6684967"><ele>1023.0</ele><time>2026-05-01T14:42:02.185Z</time></trkpt><trkpt lat="45.9191067" lon="11.6685433"><ele>1020.0</ele><time>2026-05-01T14:42:03.187Z</time></trkpt><trkpt lat="45.9192283" lon="11.6686233"><ele>1026.5</ele><time>2026-05-01T14:42:04.186Z</time></trkpt><trkpt lat="45.91934" lon="11.668715"><ele>1033.0</ele><time>2026-05-01T14:42:05.188Z</time></trkpt><trkpt lat="45.91944" lon="11.6688167"><ele>1039.5</ele><time>2026-05-01T14:42:06.185Z</time></trkpt><trkpt lat="45.9195317" lon="11.6689133"><ele>1046.0</ele><time>2026-05-01T14:42:07.184Z</time></trkpt><trkpt lat="45.9196167" lon="11.6689783"><ele>1046.0</ele><time>2026-05-01T14:42:08.185Z</time></trkpt><trkpt lat="45.9197033" lon="11.6690183"><ele>1046.0</ele><time>2026-05-01T14:42:09.185Z</time></trkpt><trkpt lat="45.91979" lon="11.6689933"><ele>1046.0</ele><time>2026-05-01T14:42:10.186Z</time></trkpt><trkpt lat="45.919875" lon="11.668915"><ele>1046.0</ele><time>2026-05-01T14:42:11.186Z</time></trkpt><trkpt lat="45.9199517" lon="11.6688117"><ele>1046.0</ele><time>2026-05-01T14:42:12.185Z</time></trkpt><trkpt lat="45.9200333" lon="11.6687"><ele>1046.2</ele><time>2026-05-01T14:42:13.184Z</time></trkpt><trkpt lat="45.9201317" lon="11.6686517"><ele>1046.3999999999999</ele><time>2026-05-01T14:42:14.185Z</time></trkpt><trkpt lat="45.9202317" lon="11.668645"><ele>1046.6</ele><time>2026-05-01T14:42:15.184Z</time></trkpt><trkpt lat="45.9203183" lon="11.6686217"><ele>1046.8</ele><time>2026-05-01T14:42:16.183Z</time></trkpt><trkpt lat="45.9203817" lon="11.6685367"><ele>1047.0</ele><time>2026-05-01T14:42:17.184Z</time></trkpt><trkpt lat="45.9204367" lon="11.66842"><ele>1047.0</ele><time>2026-05-01T14:42:18.185Z</time></trkpt><trkpt lat="45.92046" lon="11.6682283"><ele>1047.0</ele><time>2026-05-01T14:42:19.184Z</time></trkpt><trkpt lat="45.9204467" lon="11.6679917"><ele>1047.0</ele><time>2026-05-01T14:42:20.188Z</time></trkpt><trkpt lat="45.9204483" lon="11.6677733"><ele>1043.0</ele><time>2026-05-01T14:42:21.187Z</time></trkpt><trkpt lat="45.9204717" lon="11.6675717"><ele>1039.0</ele><time>2026-05-01T14:42:22.187Z</time></trkpt><trkpt lat="45.9205033" lon="11.6673933"><ele>1035.0</ele><time>2026-05-01T14:42:23.185Z</time></trkpt><trkpt lat="45.9205367" lon="11.6672283"><ele>1031.0</ele><time>2026-05-01T14:42:24.185Z</time></trkpt><trkpt lat="45.9205817" lon="11.6670867"><ele>1031.0</ele><time>2026-05-01T14:42:25.187Z</time></trkpt><trkpt lat="45.9206433" lon="11.66697"><ele>1031.0</ele><time>2026-05-01T14:42:26.183Z</time></trkpt><trkpt lat="45.9207333" lon="11.6668717"><ele>1031.0</ele><time>2026-05-01T14:42:27.184Z</time></trkpt><trkpt lat="45.92085" lon="11.6668067"><ele>1031.0</ele><time>2026-05-01T14:42:28.182Z</time></trkpt><trkpt lat="45.9209767" lon="11.6667617"><ele>1027.0</ele><time>2026-05-01T14:42:29.183Z</time></trkpt><trkpt lat="45.921115" lon="11.6667367"><ele>1023.0</ele><time>2026-05-01T14:42:30.186Z</time></trkpt><trkpt lat="45.9212317" lon="11.6667117"><ele>1019.0</ele><time>2026-05-01T14:42:31.184Z</time></trkpt><trkpt lat="45.9213483" lon="11.66669"><ele>1015.0</ele><time>2026-05-01T14:42:32.19Z</time></trkpt><trkpt lat="45.921465" lon="11.6666867"><ele>1015.0</ele><time>2026-05-01T14:42:33.184Z</time></trkpt><trkpt lat="45.9215733" lon="11.6667033"><ele>1015.0</ele><time>2026-05-01T14:42:34.185Z</time></trkpt><trkpt lat="45.9216717" lon="11.6667217"><ele>1015.0</ele><time>2026-05-01T14:42:35.185Z</time></trkpt><trkpt lat="45.9217683" lon="11.6667467"><ele>1015.0</ele><time>2026-05-01T14:42:36.186Z</time></trkpt><trkpt lat="45.9218633" lon="11.666795"><ele>1015.0</ele><time>2026-05-01T14:42:37.184Z</time></trkpt><trkpt lat="45.9219567" lon="11.666875"><ele>1015.6666666666666</ele><time>2026-05-01T14:42:38.183Z</time></trkpt><trkpt lat="45.9220483" lon="11.6669267"><ele>1016.3333333333333</ele><time>2026-05-01T14:42:39.186Z</time></trkpt><trkpt lat="45.922135" lon="11.66695"><ele>1017.0</ele><time>2026-05-01T14:42:40.187Z</time></trkpt><trkpt lat="45.9222117" lon="11.6669367"><ele>1017.6666666666667</ele><time>2026-05-01T14:42:41.187Z</time></trkpt><trkpt lat="45.922285" lon="11.6668917"><ele>1018.3333333333334</ele><time>2026-05-01T14:42:42.186Z</time></trkpt><trkpt lat="45.9223217" lon="11.66679"><ele>1019.0</ele><time>2026-05-01T14:42:43.186Z</time></trkpt><trkpt lat="45.9222983" lon="11.6666483"><ele>1019.0</ele><time>2026-05-01T14:42:44.185Z</time></trkpt><trkpt lat="45.9222567" lon="11.6665"><ele>1019.0</ele><time>2026-05-01T14:42:45.186Z</time></trkpt><trkpt lat="45.92219" lon="11.6663483"><ele>1019.0</ele><time>2026-05-01T14:42:46.184Z</time></trkpt><trkpt lat="45.92208" lon="11.6662117"><ele>1019.0</ele><time>2026-05-01T14:42:47.189Z</time></trkpt><trkpt lat="45.9219683" lon="11.6660433"><ele>1021.6666666666667</ele><time>2026-05-01T14:42:48.185Z</time></trkpt><trkpt lat="45.9218583" lon="11.665845"><ele>1024.3333333333333</ele><time>2026-05-01T14:42:49.185Z</time></trkpt><trkpt lat="45.92174" lon="11.665665"><ele>1027.0</ele><time>2026-05-01T14:42:50.183Z</time></trkpt><trkpt lat="45.9216267" lon="11.6655083"><ele>1022.5</ele><time>2026-05-01T14:42:51.186Z</time></trkpt><trkpt lat="45.9215433" lon="11.6653567"><ele>1018.0</ele><time>2026-05-01T14:42:52.184Z</time></trkpt><trkpt lat="45.9214883" lon="11.6651967"><ele>1013.5</ele><time>2026-05-01T14:42:53.185Z</time></trkpt><trkpt lat="45.92145" lon="11.66503"><ele>1009.0</ele><time>2026-05-01T14:42:54.185Z</time></trkpt><trkpt lat="45.9213733" lon="11.6649083"><ele>1009.0</ele><time>2026-05-01T14:42:55.185Z</time></trkpt><trkpt lat="45.9212483" lon="11.6648367"><ele>1009.0</ele><time>2026-05-01T14:42:56.187Z</time></trkpt><trkpt lat="45.9210967" lon="11.6647983"><ele>1009.0</ele><time>2026-05-01T14:42:57.189Z</time></trkpt><trkpt lat="45.9209533" lon="11.6647717"><ele>1009.0</ele><time>2026-05-01T14:42:58.187Z</time></trkpt><trkpt lat="45.9208333" lon="11.6647117"><ele>1008.75</ele><time>2026-05-01T14:42:59.185Z</time></trkpt><trkpt lat="45.92073" lon="11.664605"><ele>1008.5</ele><time>2026-05-01T14:43:00.186Z</time></trkpt><trkpt lat="45.92065" lon="11.6644383"><ele>1008.25</ele><time>2026-05-01T14:43:01.184Z</time></trkpt><trkpt lat="45.920565" lon="11.6642567"><ele>1008.0</ele><time>2026-05-01T14:43:02.187Z</time></trkpt><trkpt lat="45.9204367" lon="11.66413"><ele>1008.0</ele><time>2026-05-01T14:43:03.184Z</time></trkpt><trkpt lat="45.9202883" lon="11.6640483"><ele>1008.0</ele><time>2026-05-01T14:43:04.184Z</time></trkpt><trkpt lat="45.920145" lon="11.6639917"><ele>1008.0</ele><time>2026-05-01T14:43:05.185Z</time></trkpt><trkpt lat="45.92001" lon="11.6639533"><ele>1008.0</ele><time>2026-05-01T14:43:06.187Z</time></trkpt><trkpt lat="45.9198867" lon="11.6639133"><ele>1009.75</ele><time>2026-05-01T14:43:07.186Z</time></trkpt><trkpt lat="45.9197717" lon="11.6638283"><ele>1011.5</ele><time>2026-05-01T14:43:08.186Z</time></trkpt><trkpt lat="45.9196667" lon="11.6636783"><ele>1013.25</ele><time>2026-05-01T14:43:09.184Z</time></trkpt><trkpt lat="45.919555" lon="11.6635183"><ele>1015.0</ele><time>2026-05-01T14:43:10.186Z</time></trkpt><trkpt lat="45.9194383" lon="11.66339"><ele>1015.0</ele><time>2026-05-01T14:43:11.186Z</time></trkpt><trkpt lat="45.9193183" lon="11.6632833"><ele>1015.0</ele><time>2026-05-01T14:43:12.185Z</time></trkpt><trkpt lat="45.9191883" lon="11.6631833"><ele>1015.0</ele><time>2026-05-01T14:43:13.183Z</time></trkpt><trkpt lat="45.9190633" lon="11.6630533"><ele>1015.0</ele><time>2026-05-01T14:43:14.185Z</time></trkpt><trkpt lat="45.9189583" lon="11.6628617"><ele>1013.6666666666666</ele><time>2026-05-01T14:43:15.186Z</time></trkpt><trkpt lat="45.91887" lon="11.6626367"><ele>1012.3333333333333</ele><time>2026-05-01T14:43:16.187Z</time></trkpt><trkpt lat="45.9187667" lon="11.6624317"><ele>1011.0</ele><time>2026-05-01T14:43:17.188Z</time></trkpt><trkpt lat="45.9186383" lon="11.6622467"><ele>1011.0</ele><time>2026-05-01T14:43:18.184Z</time></trkpt><trkpt lat="45.91851" lon="11.66207"><ele>1011.0</ele><time>2026-05-01T14:43:19.184Z</time></trkpt><trkpt lat="45.9183967" lon="11.661895"><ele>1011.0</ele><time>2026-05-01T14:43:20.184Z</time></trkpt><trkpt lat="45.9182867" lon="11.66172"><ele>1006.0</ele><time>2026-05-01T14:43:21.184Z</time></trkpt><trkpt lat="45.9181783" lon="11.6615383"><ele>1001.0</ele><time>2026-05-01T14:43:22.184Z</time></trkpt><trkpt lat="45.9180633" lon="11.661365"><ele>996.0</ele><time>2026-05-01T14:43:23.183Z</time></trkpt><trkpt lat="45.917945" lon="11.6611967"><ele>1000.5</ele><time>2026-05-01T14:43:24.185Z</time></trkpt><trkpt lat="45.9178517" lon="11.6610167"><ele>1005.0</ele><time>2026-05-01T14:43:25.184Z</time></trkpt><trkpt lat="45.9177783" lon="11.6608433"><ele>1009.5</ele><time>2026-05-01T14:43:26.186Z</time></trkpt><trkpt lat="45.917725" lon="11.6606933"><ele>1014.0</ele><time>2026-05-01T14:43:27.184Z</time></trkpt><trkpt lat="45.9176917" lon="11.66056"><ele>1014.0</ele><time>2026-05-01T14:43:28.185Z</time></trkpt><trkpt lat="45.9176717" lon="11.66045"><ele>1014.0000000000001</ele><time>2026-05-01T14:43:29.183Z</time></trkpt><trkpt lat="45.9176967" lon="11.66035"><ele>1014.0000000000001</ele><time>2026-05-01T14:43:30.183Z</time></trkpt><trkpt lat="45.9177667" lon="11.6602683"><ele>1014.0</ele><time>2026-05-01T14:43:31.185Z</time></trkpt><trkpt lat="45.91789" lon="11.6602067"><ele>1014.0</ele><time>2026-05-01T14:43:32.183Z</time></trkpt><trkpt lat="45.9179983" lon="11.66011"><ele>1014.25</ele><time>2026-05-01T14:43:33.188Z</time></trkpt><trkpt lat="45.9180733" lon="11.6599783"><ele>1014.5</ele><time>2026-05-01T14:43:34.186Z</time></trkpt><trkpt lat="45.9181283" lon="11.65982"><ele>1014.75</ele><time>2026-05-01T14:43:35.187Z</time></trkpt><trkpt lat="45.9181517" lon="11.65964"><ele>1015.0</ele><time>2026-05-01T14:43:36.184Z</time></trkpt><trkpt lat="45.9181433" lon="11.6594283"><ele>1015.0</ele><time>2026-05-01T14:43:37.186Z</time></trkpt><trkpt lat="45.91812" lon="11.6591983"><ele>1015.0</ele><time>2026-05-01T14:43:38.183Z</time></trkpt><trkpt lat="45.9180583" lon="11.6589517"><ele>1015.0</ele><time>2026-05-01T14:43:39.186Z</time></trkpt><trkpt lat="45.917955" lon="11.65871"><ele>1027.0</ele><time>2026-05-01T14:43:40.184Z</time></trkpt><trkpt lat="45.917835" lon="11.65845"><ele>1039.0</ele><time>2026-05-01T14:43:41.184Z</time></trkpt><trkpt lat="45.9177183" lon="11.6581917"><ele>1051.0</ele><time>2026-05-01T14:43:42.184Z</time></trkpt><trkpt lat="45.9176167" lon="11.657945"><ele>1023.6666666666666</ele><time>2026-05-01T14:43:43.185Z</time></trkpt><trkpt lat="45.917525" lon="11.65771"><ele>996.3333333333333</ele><time>2026-05-01T14:43:44.183Z</time></trkpt><trkpt lat="45.917435" lon="11.657485"><ele>969.0</ele><time>2026-05-01T14:43:45.184Z</time></trkpt><trkpt lat="45.9173467" lon="11.65726"><ele>969.0</ele><time>2026-05-01T14:43:46.188Z</time></trkpt><trkpt lat="45.9172583" lon="11.6570417"><ele>969.0</ele><time>2026-05-01T14:43:47.183Z</time></trkpt><trkpt lat="45.91717" lon="11.6568433"><ele>969.0</ele><time>2026-05-01T14:43:48.186Z</time></trkpt><trkpt lat="45.91709" lon="11.6566533"><ele>966.75</ele><time>2026-05-01T14:43:49.185Z</time></trkpt><trkpt lat="45.9170267" lon="11.6564667"><ele>964.5</ele><time>2026-05-01T14:43:50.185Z</time></trkpt><trkpt lat="45.91698" lon="11.6562883"><ele>962.25</ele><time>2026-05-01T14:43:51.185Z</time></trkpt><trkpt lat="45.916935" lon="11.6561183"><ele>960.0</ele><time>2026-05-01T14:43:52.183Z</time></trkpt><trkpt lat="45.9168633" lon="11.6559817"><ele>960.0</ele><time>2026-05-01T14:43:53.184Z</time></trkpt><trkpt lat="45.9167533" lon="11.6558633"><ele>960.0</ele><time>2026-05-01T14:43:54.185Z</time></trkpt><trkpt lat="45.91662" lon="11.655745"><ele>960.0</ele><time>2026-05-01T14:43:55.183Z</time></trkpt><trkpt lat="45.916475" lon="11.6556083"><ele>945.6666666666667</ele><time>2026-05-01T14:43:56.184Z</time></trkpt><trkpt lat="45.916325" lon="11.6554617"><ele>931.3333333333334</ele><time>2026-05-01T14:43:57.186Z</time></trkpt><trkpt lat="45.9161733" lon="11.6553133"><ele>917.0</ele><time>2026-05-01T14:43:58.184Z</time></trkpt><trkpt lat="45.9160167" lon="11.6551667"><ele>895.3333333333334</ele><time>2026-05-01T14:43:59.183Z</time></trkpt><trkpt lat="45.915855" lon="11.6550183"><ele>873.6666666666667</ele><time>2026-05-01T14:44:00.187Z</time></trkpt><trkpt lat="45.9156883" lon="11.6548633"><ele>852.0</ele><time>2026-05-01T14:44:01.184Z</time></trkpt><trkpt lat="45.91552" lon="11.654705"><ele>852.0</ele><time>2026-05-01T14:44:02.186Z</time></trkpt><trkpt lat="45.9153533" lon="11.654555"><ele>852.0</ele><time>2026-05-01T14:44:03.183Z</time></trkpt><trkpt lat="45.9151983" lon="11.6544133"><ele>852.0</ele><time>2026-05-01T14:44:04.185Z</time></trkpt><trkpt lat="45.9150617" lon="11.6542867"><ele>876.75</ele><time>2026-05-01T14:44:05.187Z</time></trkpt><trkpt lat="45.91494" lon="11.6541783"><ele>901.5</ele><time>2026-05-01T14:44:06.184Z</time></trkpt><trkpt lat="45.914835" lon="11.65408"><ele>926.25</ele><time>2026-05-01T14:44:07.184Z</time></trkpt><trkpt lat="45.9147383" lon="11.6539967"><ele>951.0</ele><time>2026-05-01T14:44:08.186Z</time></trkpt><trkpt lat="45.9146433" lon="11.6539433"><ele>951.0</ele><time>2026-05-01T14:44:09.184Z</time></trkpt><trkpt lat="45.91453" lon="11.6539383"><ele>951.0</ele><time>2026-05-01T14:44:10.182Z</time></trkpt><trkpt lat="45.9144067" lon="11.6539683"><ele>951.0</ele><time>2026-05-01T14:44:11.185Z</time></trkpt><trkpt lat="45.9142767" lon="11.65404"><ele>951.0</ele><time>2026-05-01T14:44:12.184Z</time></trkpt><trkpt lat="45.9141483" lon="11.6541683"><ele>956.6666666666667</ele><time>2026-05-01T14:44:13.184Z</time></trkpt><trkpt lat="45.9140117" lon="11.654315"><ele>962.3333333333334</ele><time>2026-05-01T14:44:14.185Z</time></trkpt><trkpt lat="45.91387" lon="11.6544467"><ele>968.0</ele><time>2026-05-01T14:44:15.187Z</time></trkpt><trkpt lat="45.913745" lon="11.6545767"><ele>968.0</ele><time>2026-05-01T14:44:16.189Z</time></trkpt><trkpt lat="45.9136283" lon="11.6547033"><ele>968.0</ele><time>2026-05-01T14:44:17.183Z</time></trkpt><trkpt lat="45.9135133" lon="11.6548333"><ele>968.0</ele><time>2026-05-01T14:44:18.188Z</time></trkpt><trkpt lat="45.9134033" lon="11.6549767"><ele>968.0</ele><time>2026-05-01T14:44:19.186Z</time></trkpt><trkpt lat="45.9132767" lon="11.6550883"><ele>972.25</ele><time>2026-05-01T14:44:20.186Z</time></trkpt><trkpt lat="45.913135" lon="11.6551517"><ele>976.5</ele><time>2026-05-01T14:44:21.187Z</time></trkpt><trkpt lat="45.9130183" lon="11.6552417"><ele>980.75</ele><time>2026-05-01T14:44:22.186Z</time></trkpt><trkpt lat="45.9129217" lon="11.6553833"><ele>985.0</ele><time>2026-05-01T14:44:23.185Z</time></trkpt><trkpt lat="45.91286" lon="11.6555267"><ele>985.0</ele><time>2026-05-01T14:44:24.183Z</time></trkpt><trkpt lat="45.9128" lon="11.6556333"><ele>985.0</ele><time>2026-05-01T14:44:25.185Z</time></trkpt><trkpt lat="45.9127267" lon="11.655685"><ele>985.0</ele><time>2026-05-01T14:44:26.187Z</time></trkpt><trkpt lat="45.9126283" lon="11.6556583"><ele>985.0</ele><time>2026-05-01T14:44:27.184Z</time></trkpt><trkpt lat="45.9125167" lon="11.6555617"><ele>985.0</ele><time>2026-05-01T14:44:28.186Z</time></trkpt><trkpt lat="45.9124017" lon="11.6554367"><ele>986.25</ele><time>2026-05-01T14:44:29.184Z</time></trkpt><trkpt lat="45.9122783" lon="11.6553167"><ele>987.5</ele><time>2026-05-01T14:44:30.187Z</time></trkpt><trkpt lat="45.9121633" lon="11.6551967"><ele>988.75</ele><time>2026-05-01T14:44:31.184Z</time></trkpt><trkpt lat="45.9120583" lon="11.6550483"><ele>990.0</ele><time>2026-05-01T14:44:32.187Z</time></trkpt><trkpt lat="45.9119633" lon="11.654865"><ele>993.0</ele><time>2026-05-01T14:44:33.185Z</time></trkpt><trkpt lat="45.911865" lon="11.6546717"><ele>996.0</ele><time>2026-05-01T14:44:34.184Z</time></trkpt><trkpt lat="45.9117383" lon="11.6545"><ele>999.0</ele><time>2026-05-01T14:44:35.261Z</time></trkpt><trkpt lat="45.9115867" lon="11.6543367"><ele>1006.0</ele><time>2026-05-01T14:44:36.186Z</time></trkpt><trkpt lat="45.91143" lon="11.6541683"><ele>1013.0</ele><time>2026-05-01T14:44:37.188Z</time></trkpt><trkpt lat="45.9112733" lon="11.654"><ele>1020.0</ele><time>2026-05-01T14:44:38.187Z</time></trkpt><trkpt lat="45.9111217" lon="11.6538317"><ele>1020.0</ele><time>2026-05-01T14:44:39.188Z</time></trkpt><trkpt lat="45.9109717" lon="11.65366"><ele>1020.0</ele><time>2026-05-01T14:44:40.19Z</time></trkpt><trkpt lat="45.9108133" lon="11.653505"><ele>1020.0</ele><time>2026-05-01T14:44:41.182Z</time></trkpt><trkpt lat="45.9106533" lon="11.6533567"><ele>1024.0</ele><time>2026-05-01T14:44:42.184Z</time></trkpt><trkpt lat="45.91048" lon="11.65323"><ele>1028.0</ele><time>2026-05-01T14:44:43.184Z</time></trkpt><trkpt lat="45.9103017" lon="11.6531183"><ele>1032.0</ele><time>2026-05-01T14:44:44.185Z</time></trkpt><trkpt lat="45.9101283" lon="11.653015"><ele>1033.5</ele><time>2026-05-01T14:44:45.186Z</time></trkpt><trkpt lat="45.9099783" lon="11.6529267"><ele>1035.0</ele><time>2026-05-01T14:44:46.188Z</time></trkpt><trkpt lat="45.9098483" lon="11.6528467"><ele>1036.5</ele><time>2026-05-01T14:44:47.185Z</time></trkpt><trkpt lat="45.9097267" lon="11.6527633"><ele>1038.0</ele><time>2026-05-01T14:44:48.188Z</time></trkpt><trkpt lat="45.90962" lon="11.6526467"><ele>1038.0</ele><time>2026-05-01T14:44:49.189Z</time></trkpt><trkpt lat="45.9095267" lon="11.6525017"><ele>1038.0</ele><time>2026-05-01T14:44:50.184Z</time></trkpt><trkpt lat="45.9094333" lon="11.6523567"><ele>1038.0</ele><time>2026-05-01T14:44:51.188Z</time></trkpt><trkpt lat="45.90935" lon="11.6522033"><ele>1038.0</ele><time>2026-05-01T14:44:52.186Z</time></trkpt><trkpt lat="45.9092583" lon="11.65205"><ele>1039.6666666666667</ele><time>2026-05-01T14:44:53.185Z</time></trkpt><trkpt lat="45.9091417" lon="11.651925"><ele>1041.3333333333335</ele><time>2026-05-01T14:44:54.185Z</time></trkpt><trkpt lat="45.9089983" lon="11.65184"><ele>1043.0</ele><time>2026-05-01T14:44:55.183Z</time></trkpt><trkpt lat="45.9088567" lon="11.6517667"><ele>1043.0</ele><time>2026-05-01T14:44:56.187Z</time></trkpt><trkpt lat="45.9087367" lon="11.6516883"><ele>1043.0</ele><time>2026-05-01T14:44:57.184Z</time></trkpt><trkpt lat="45.9086383" lon="11.651615"><ele>1043.0</ele><time>2026-05-01T14:44:58.183Z</time></trkpt><trkpt lat="45.9085583" lon="11.651545"><ele>1043.0</ele><time>2026-05-01T14:44:59.184Z</time></trkpt><trkpt lat="45.9084883" lon="11.6514617"><ele>1043.0</ele><time>2026-05-01T14:45:00.186Z</time></trkpt><trkpt lat="45.9084367" lon="11.6513467"><ele>1043.0</ele><time>2026-05-01T14:45:01.183Z</time></trkpt><trkpt lat="45.9084167" lon="11.6511883"><ele>1043.0</ele><time>2026-05-01T14:45:02.19Z</time></trkpt><trkpt lat="45.9084183" lon="11.651005"><ele>1043.0</ele><time>2026-05-01T14:45:03.183Z</time></trkpt><trkpt lat="45.9084167" lon="11.6508133"><ele>1043.0</ele><time>2026-05-01T14:45:04.184Z</time></trkpt><trkpt lat="45.9084117" lon="11.650605"><ele>1043.75</ele><time>2026-05-01T14:45:05.185Z</time></trkpt><trkpt lat="45.9084067" lon="11.6504033"><ele>1044.5</ele><time>2026-05-01T14:45:06.185Z</time></trkpt><trkpt lat="45.9083983" lon="11.6502217"><ele>1045.25</ele><time>2026-05-01T14:45:07.186Z</time></trkpt><trkpt lat="45.9083833" lon="11.6500533"><ele>1046.0</ele><time>2026-05-01T14:45:08.184Z</time></trkpt><trkpt lat="45.90832" lon="11.6499"><ele>1051.6666666666667</ele><time>2026-05-01T14:45:09.184Z</time></trkpt><trkpt lat="45.9082133" lon="11.649765"><ele>1057.3333333333333</ele><time>2026-05-01T14:45:10.183Z</time></trkpt><trkpt lat="45.908075" lon="11.649635"><ele>1063.0</ele><time>2026-05-01T14:45:11.186Z</time></trkpt><trkpt lat="45.907945" lon="11.6495183"><ele>1067.5</ele><time>2026-05-01T14:45:12.186Z</time></trkpt><trkpt lat="45.907835" lon="11.649405"><ele>1072.0</ele><time>2026-05-01T14:45:13.187Z</time></trkpt><trkpt lat="45.90774" lon="11.6492617"><ele>1076.5</ele><time>2026-05-01T14:45:14.186Z</time></trkpt><trkpt lat="45.907665" lon="11.6490733"><ele>1081.0</ele><time>2026-05-01T14:45:15.189Z</time></trkpt><trkpt lat="45.90759" lon="11.6488633"><ele>1079.3333333333333</ele><time>2026-05-01T14:45:16.184Z</time></trkpt><trkpt lat="45.9074783" lon="11.648675"><ele>1077.6666666666667</ele><time>2026-05-01T14:45:17.185Z</time></trkpt><trkpt lat="45.9073433" lon="11.64849"><ele>1076.0</ele><time>2026-05-01T14:45:18.184Z</time></trkpt><trkpt lat="45.9072017" lon="11.6483167"><ele>1076.0</ele><time>2026-05-01T14:45:19.183Z</time></trkpt><trkpt lat="45.907065" lon="11.6481617"><ele>1076.0</ele><time>2026-05-01T14:45:20.186Z</time></trkpt><trkpt lat="45.9069283" lon="11.6480267"><ele>1076.0</ele><time>2026-05-01T14:45:21.188Z</time></trkpt><trkpt lat="45.906795" lon="11.6479067"><ele>1078.3333333333335</ele><time>2026-05-01T14:45:22.187Z</time></trkpt><trkpt lat="45.9066767" lon="11.6477667"><ele>1080.6666666666667</ele><time>2026-05-01T14:45:23.185Z</time></trkpt><trkpt lat="45.9065717" lon="11.6475867"><ele>1083.0</ele><time>2026-05-01T14:45:24.185Z</time></trkpt><trkpt lat="45.9064783" lon="11.647385"><ele>1083.0</ele><time>2026-05-01T14:45:25.185Z</time></trkpt><trkpt lat="45.9063783" lon="11.6471867"><ele>1083.0</ele><time>2026-05-01T14:45:26.186Z</time></trkpt><trkpt lat="45.9062883" lon="11.6469983"><ele>1083.0</ele><time>2026-05-01T14:45:27.187Z</time></trkpt><trkpt lat="45.9062083" lon="11.64683"><ele>1082.75</ele><time>2026-05-01T14:45:28.185Z</time></trkpt><trkpt lat="45.90613" lon="11.6466683"><ele>1082.5</ele><time>2026-05-01T14:45:29.185Z</time></trkpt><trkpt lat="45.9060283" lon="11.6465317"><ele>1082.25</ele><time>2026-05-01T14:45:30.186Z</time></trkpt><trkpt lat="45.9059017" lon="11.646425"><ele>1082.0</ele><time>2026-05-01T14:45:31.186Z</time></trkpt><trkpt lat="45.9057717" lon="11.6463383"><ele>1082.0</ele><time>2026-05-01T14:45:32.184Z</time></trkpt><trkpt lat="45.90566" lon="11.6462617"><ele>1082.0</ele><time>2026-05-01T14:45:33.191Z</time></trkpt><trkpt lat="45.905565" lon="11.6461967"><ele>1082.0</ele><time>2026-05-01T14:45:34.266Z</time></trkpt><trkpt lat="45.9054767" lon="11.6461333"><ele>1082.0</ele><time>2026-05-01T14:45:35.187Z</time></trkpt><trkpt lat="45.9053967" lon="11.64604"><ele>1082.0</ele><time>2026-05-01T14:45:36.184Z</time></trkpt><trkpt lat="45.9053317" lon="11.6459217"><ele>1085.0</ele><time>2026-05-01T14:45:37.189Z</time></trkpt><trkpt lat="45.9052933" lon="11.645775"><ele>1088.0</ele><time>2026-05-01T14:45:38.183Z</time></trkpt><trkpt lat="45.905275" lon="11.6456333"><ele>1091.0</ele><time>2026-05-01T14:45:39.189Z</time></trkpt><trkpt lat="45.9052817" lon="11.6455117"><ele>1094.0</ele><time>2026-05-01T14:45:40.184Z</time></trkpt><trkpt lat="45.9053167" lon="11.6453917"><ele>1097.0</ele><time>2026-05-01T14:45:41.187Z</time></trkpt><trkpt lat="45.90534" lon="11.6452717"><ele>1099.25</ele><time>2026-05-01T14:45:42.185Z</time></trkpt><trkpt lat="45.9053517" lon="11.6451333"><ele>1101.5</ele><time>2026-05-01T14:45:43.186Z</time></trkpt><trkpt lat="45.9053483" lon="11.6449783"><ele>1103.75</ele><time>2026-05-01T14:45:44.185Z</time></trkpt><trkpt lat="45.90533" lon="11.6448"><ele>1106.0</ele><time>2026-05-01T14:45:45.186Z</time></trkpt><trkpt lat="45.90531" lon="11.644605"><ele>1108.75</ele><time>2026-05-01T14:45:46.186Z</time></trkpt><trkpt lat="45.9052983" lon="11.6444067"><ele>1111.5</ele><time>2026-05-01T14:45:47.187Z</time></trkpt><trkpt lat="45.9052867" lon="11.6442133"><ele>1114.25</ele><time>2026-05-01T14:45:48.185Z</time></trkpt><trkpt lat="45.9052817" lon="11.6440317"><ele>1117.0</ele><time>2026-05-01T14:45:49.187Z</time></trkpt><trkpt lat="45.905285" lon="11.6438633"><ele>1117.0</ele><time>2026-05-01T14:45:50.185Z</time></trkpt><trkpt lat="45.9053017" lon="11.6436883"><ele>1117.0</ele><time>2026-05-01T14:45:51.187Z</time></trkpt><trkpt lat="45.90532" lon="11.6435067"><ele>1117.0</ele><time>2026-05-01T14:45:52.188Z</time></trkpt><trkpt lat="45.905335" lon="11.6433183"><ele>1117.0</ele><time>2026-05-01T14:45:53.187Z</time></trkpt><trkpt lat="45.9053467" lon="11.6431333"><ele>1118.25</ele><time>2026-05-01T14:45:54.187Z</time></trkpt><trkpt lat="45.9053567" lon="11.6429533"><ele>1119.5</ele><time>2026-05-01T14:45:55.184Z</time></trkpt><trkpt lat="45.9053667" lon="11.6427683"><ele>1120.75</ele><time>2026-05-01T14:45:56.189Z</time></trkpt><trkpt lat="45.90538" lon="11.64258"><ele>1122.0</ele><time>2026-05-01T14:45:57.187Z</time></trkpt><trkpt lat="45.9053933" lon="11.64238"><ele>1122.0</ele><time>2026-05-01T14:45:58.19Z</time></trkpt><trkpt lat="45.9054167" lon="11.64218"><ele>1122.0</ele><time>2026-05-01T14:45:59.185Z</time></trkpt><trkpt lat="45.9054533" lon="11.6419917"><ele>1122.0</ele><time>2026-05-01T14:46:00.186Z</time></trkpt><trkpt lat="45.9055067" lon="11.6418133"><ele>1122.0</ele><time>2026-05-01T14:46:01.183Z</time></trkpt><trkpt lat="45.90558" lon="11.6416367"><ele>1121.0</ele><time>2026-05-01T14:46:02.185Z</time></trkpt><trkpt lat="45.905655" lon="11.6414483"><ele>1120.0</ele><time>2026-05-01T14:46:03.184Z</time></trkpt><trkpt lat="45.90571" lon="11.6412317"><ele>1119.0</ele><time>2026-05-01T14:46:04.186Z</time></trkpt><trkpt lat="45.9057467" lon="11.6410067"><ele>1122.25</ele><time>2026-05-01T14:46:05.187Z</time></trkpt><trkpt lat="45.9057833" lon="11.6408017"><ele>1125.5</ele><time>2026-05-01T14:46:06.187Z</time></trkpt><trkpt lat="45.905825" lon="11.6406133"><ele>1128.75</ele><time>2026-05-01T14:46:07.187Z</time></trkpt><trkpt lat="45.90588" lon="11.640435"><ele>1132.0</ele><time>2026-05-01T14:46:08.184Z</time></trkpt><trkpt lat="45.9059533" lon="11.64026"><ele>1132.0</ele><time>2026-05-01T14:46:09.188Z</time></trkpt><trkpt lat="45.906045" lon="11.6400933"><ele>1132.0</ele><time>2026-05-01T14:46:10.184Z</time></trkpt><trkpt lat="45.90612" lon="11.639915"><ele>1132.0</ele><time>2026-05-01T14:46:11.186Z</time></trkpt><trkpt lat="45.9061717" lon="11.63974"><ele>1132.0</ele><time>2026-05-01T14:46:12.185Z</time></trkpt><trkpt lat="45.9062283" lon="11.6395883"><ele>1125.0</ele><time>2026-05-01T14:46:13.184Z</time></trkpt><trkpt lat="45.9063017" lon="11.639455"><ele>1118.0</ele><time>2026-05-01T14:46:14.188Z</time></trkpt><trkpt lat="45.906405" lon="11.639345"><ele>1111.0</ele><time>2026-05-01T14:46:15.184Z</time></trkpt><trkpt lat="45.9065317" lon="11.6392483"><ele>1104.0</ele><time>2026-05-01T14:46:16.184Z</time></trkpt><trkpt lat="45.9066583" lon="11.639135"><ele>1110.3333333333333</ele><time>2026-05-01T14:46:17.184Z</time></trkpt><trkpt lat="45.9067733" lon="11.6389817"><ele>1116.6666666666665</ele><time>2026-05-01T14:46:18.184Z</time></trkpt><trkpt lat="45.9068867" lon="11.6388067"><ele>1123.0</ele><time>2026-05-01T14:46:19.186Z</time></trkpt><trkpt lat="45.906995" lon="11.63863"><ele>1123.0</ele><time>2026-05-01T14:46:20.187Z</time></trkpt><trkpt lat="45.9070883" lon="11.6384583"><ele>1123.0</ele><time>2026-05-01T14:46:21.186Z</time></trkpt><trkpt lat="45.907175" lon="11.6383033"><ele>1123.0</ele><time>2026-05-01T14:46:22.188Z</time></trkpt><trkpt lat="45.9072467" lon="11.63815"><ele>1123.0</ele><time>2026-05-01T14:46:23.186Z</time></trkpt><trkpt lat="45.9073067" lon="11.6380133"><ele>1123.0</ele><time>2026-05-01T14:46:24.186Z</time></trkpt><trkpt lat="45.9073467" lon="11.63788"><ele>1123.0</ele><time>2026-05-01T14:46:25.183Z</time></trkpt><trkpt lat="45.9073733" lon="11.637745"><ele>1123.0</ele><time>2026-05-01T14:46:26.186Z</time></trkpt><trkpt lat="45.9073733" lon="11.6375917"><ele>1123.0</ele><time>2026-05-01T14:46:27.187Z</time></trkpt><trkpt lat="45.907335" lon="11.6374267"><ele>1123.0</ele><time>2026-05-01T14:46:28.187Z</time></trkpt><trkpt lat="45.907265" lon="11.6372633"><ele>1124.75</ele><time>2026-05-01T14:46:29.185Z</time></trkpt><trkpt lat="45.90717" lon="11.6371183"><ele>1126.5</ele><time>2026-05-01T14:46:30.186Z</time></trkpt><trkpt lat="45.9070667" lon="11.6369983"><ele>1128.25</ele><time>2026-05-01T14:46:31.189Z</time></trkpt><trkpt lat="45.9069667" lon="11.6368833"><ele>1130.0</ele><time>2026-05-01T14:46:32.185Z</time></trkpt><trkpt lat="45.9068717" lon="11.6367683"><ele>1130.0</ele><time>2026-05-01T14:46:33.183Z</time></trkpt><trkpt lat="45.90679" lon="11.63665"><ele>1130.0</ele><time>2026-05-01T14:46:34.188Z</time></trkpt><trkpt lat="45.90673" lon="11.6365233"><ele>1130.0</ele><time>2026-05-01T14:46:35.185Z</time></trkpt><trkpt lat="45.906675" lon="11.636395"><ele>1130.0</ele><time>2026-05-01T14:46:36.185Z</time></trkpt><trkpt lat="45.9066383" lon="11.636255"><ele>1130.0</ele><time>2026-05-01T14:46:37.188Z</time></trkpt><trkpt lat="45.9066167" lon="11.6361233"><ele>1124.0</ele><time>2026-05-01T14:46:38.188Z</time></trkpt><trkpt lat="45.9065917" lon="11.63599"><ele>1118.0</ele><time>2026-05-01T14:46:39.187Z</time></trkpt><trkpt lat="45.9065633" lon="11.6358383"><ele>1112.0</ele><time>2026-05-01T14:46:40.184Z</time></trkpt><trkpt lat="45.90654" lon="11.6356633"><ele>1106.0</ele><time>2026-05-01T14:46:41.184Z</time></trkpt><trkpt lat="45.90652" lon="11.6354733"><ele>1108.5</ele><time>2026-05-01T14:46:42.183Z</time></trkpt><trkpt lat="45.9064967" lon="11.635275"><ele>1111.0</ele><time>2026-05-01T14:46:43.184Z</time></trkpt><trkpt lat="45.90647" lon="11.6350783"><ele>1113.5</ele><time>2026-05-01T14:46:44.186Z</time></trkpt><trkpt lat="45.9064367" lon="11.634875"><ele>1116.0</ele><time>2026-05-01T14:46:45.185Z</time></trkpt><trkpt lat="45.9063917" lon="11.6346667"><ele>1118.0</ele><time>2026-05-01T14:46:46.188Z</time></trkpt><trkpt lat="45.9063483" lon="11.63446"><ele>1120.0</ele><time>2026-05-01T14:46:47.188Z</time></trkpt><trkpt lat="45.9063067" lon="11.6342567"><ele>1122.0</ele><time>2026-05-01T14:46:48.184Z</time></trkpt><trkpt lat="45.9062817" lon="11.6340683"><ele>1124.0</ele><time>2026-05-01T14:46:49.186Z</time></trkpt><trkpt lat="45.9062617" lon="11.6338717"><ele>1124.0</ele><time>2026-05-01T14:46:50.188Z</time></trkpt><trkpt lat="45.9062467" lon="11.6336783"><ele>1124.0</ele><time>2026-05-01T14:46:51.185Z</time></trkpt><trkpt lat="45.9062367" lon="11.6334983"><ele>1124.0</ele><time>2026-05-01T14:46:52.186Z</time></trkpt><trkpt lat="45.90622" lon="11.63332"><ele>1124.0</ele><time>2026-05-01T14:46:53.269Z</time></trkpt><trkpt lat="45.906185" lon="11.6331467"><ele>1122.8</ele><time>2026-05-01T14:46:54.184Z</time></trkpt><trkpt lat="45.9061333" lon="11.633"><ele>1121.6000000000001</ele><time>2026-05-01T14:46:55.185Z</time></trkpt><trkpt lat="45.906085" lon="11.6328817"><ele>1120.4</ele><time>2026-05-01T14:46:56.185Z</time></trkpt><trkpt lat="45.9060267" lon="11.6327917"><ele>1119.2</ele><time>2026-05-01T14:46:57.185Z</time></trkpt><trkpt lat="45.9059417" lon="11.632735"><ele>1118.0</ele><time>2026-05-01T14:46:58.183Z</time></trkpt><trkpt lat="45.9058283" lon="11.632735"><ele>1118.0</ele><time>2026-05-01T14:46:59.183Z</time></trkpt><trkpt lat="45.9057117" lon="11.63279"><ele>1118.0</ele><time>2026-05-01T14:47:00.185Z</time></trkpt><trkpt lat="45.9055967" lon="11.6328867"><ele>1118.0</ele><time>2026-05-01T14:47:01.186Z</time></trkpt><trkpt lat="45.905495" lon="11.6330033"><ele>1118.0</ele><time>2026-05-01T14:47:02.187Z</time></trkpt><trkpt lat="45.9054033" lon="11.6331083"><ele>1113.8333333333335</ele><time>2026-05-01T14:47:03.184Z</time></trkpt><trkpt lat="45.9053133" lon="11.6332067"><ele>1109.6666666666667</ele><time>2026-05-01T14:47:04.184Z</time></trkpt><trkpt lat="45.90523" lon="11.6333"><ele>1105.5</ele><time>2026-05-01T14:47:05.185Z</time></trkpt><trkpt lat="45.9051583" lon="11.633355"><ele>1101.3333333333333</ele><time>2026-05-01T14:47:06.185Z</time></trkpt><trkpt lat="45.9050867" lon="11.63336"><ele>1097.1666666666665</ele><time>2026-05-01T14:47:07.187Z</time></trkpt><trkpt lat="45.905015" lon="11.6333333"><ele>1093.0</ele><time>2026-05-01T14:47:08.184Z</time></trkpt><trkpt lat="45.9049417" lon="11.63325"><ele>1092.0</ele><time>2026-05-01T14:47:09.184Z</time></trkpt><trkpt lat="45.90488" lon="11.6331133"><ele>1091.0</ele><time>2026-05-01T14:47:10.186Z</time></trkpt><trkpt lat="45.9048217" lon="11.63298"><ele>1090.0</ele><time>2026-05-01T14:47:11.185Z</time></trkpt><trkpt lat="45.904755" lon="11.6328533"><ele>1089.0</ele><time>2026-05-01T14:47:12.184Z</time></trkpt><trkpt lat="45.9046783" lon="11.63272"><ele>1094.75</ele><time>2026-05-01T14:47:13.185Z</time></trkpt><trkpt lat="45.904595" lon="11.6325633"><ele>1100.5</ele><time>2026-05-01T14:47:14.187Z</time></trkpt><trkpt lat="45.9045117" lon="11.6323917"><ele>1106.25</ele><time>2026-05-01T14:47:15.191Z</time></trkpt><trkpt lat="45.9044283" lon="11.632225"><ele>1112.0</ele><time>2026-05-01T14:47:16.185Z</time></trkpt><trkpt lat="45.9043417" lon="11.6320683"><ele>1110.75</ele><time>2026-05-01T14:47:17.19Z</time></trkpt><trkpt lat="45.9042433" lon="11.63194"><ele>1109.5</ele><time>2026-05-01T14:47:18.185Z</time></trkpt><trkpt lat="45.9041133" lon="11.6318367"><ele>1108.25</ele><time>2026-05-01T14:47:19.19Z</time></trkpt><trkpt lat="45.9039567" lon="11.63177"><ele>1107.0</ele><time>2026-05-01T14:47:20.185Z</time></trkpt><trkpt lat="45.9037983" lon="11.6317083"><ele>1107.0</ele><time>2026-05-01T14:47:21.192Z</time></trkpt><trkpt lat="45.903655" lon="11.6316467"><ele>1107.0</ele><time>2026-05-01T14:47:22.184Z</time></trkpt><trkpt lat="45.90352" lon="11.6315733"><ele>1107.0</ele><time>2026-05-01T14:47:23.186Z</time></trkpt><trkpt lat="45.9033817" lon="11.6314933"><ele>1107.0</ele><time>2026-05-01T14:47:24.185Z</time></trkpt><trkpt lat="45.90324" lon="11.63141"><ele>1109.0</ele><time>2026-05-01T14:47:25.184Z</time></trkpt><trkpt lat="45.9031017" lon="11.6313233"><ele>1111.0</ele><time>2026-05-01T14:47:26.188Z</time></trkpt><trkpt lat="45.902975" lon="11.6312333"><ele>1113.0</ele><time>2026-05-01T14:47:27.184Z</time></trkpt><trkpt lat="45.9028533" lon="11.6311367"><ele>1115.0</ele><time>2026-05-01T14:47:28.185Z</time></trkpt><trkpt lat="45.902735" lon="11.63101"><ele>1115.0</ele><time>2026-05-01T14:47:29.184Z</time></trkpt><trkpt lat="45.9026233" lon="11.6308517"><ele>1115.0</ele><time>2026-05-01T14:47:30.184Z</time></trkpt><trkpt lat="45.9025183" lon="11.6306817"><ele>1115.0</ele><time>2026-05-01T14:47:31.185Z</time></trkpt><trkpt lat="45.90242" lon="11.630525"><ele>1112.75</ele><time>2026-05-01T14:47:32.184Z</time></trkpt><trkpt lat="45.9023367" lon="11.63037"><ele>1110.5</ele><time>2026-05-01T14:47:33.189Z</time></trkpt><trkpt lat="45.9022667" lon="11.6302183"><ele>1108.25</ele><time>2026-05-01T14:47:34.183Z</time></trkpt><trkpt lat="45.9021933" lon="11.6300833"><ele>1106.0</ele><time>2026-05-01T14:47:35.184Z</time></trkpt><trkpt lat="45.9021017" lon="11.6299767"><ele>1106.0</ele><time>2026-05-01T14:47:36.183Z</time></trkpt><trkpt lat="45.90198" lon="11.6299267"><ele>1106.0</ele><time>2026-05-01T14:47:37.184Z</time></trkpt><trkpt lat="45.9018317" lon="11.6299283"><ele>1106.0</ele><time>2026-05-01T14:47:38.183Z</time></trkpt><trkpt lat="45.9016683" lon="11.62996"><ele>1106.0</ele><time>2026-05-01T14:47:39.184Z</time></trkpt><trkpt lat="45.901515" lon="11.6299933"><ele>1101.0</ele><time>2026-05-01T14:47:40.185Z</time></trkpt><trkpt lat="45.9013733" lon="11.6300083"><ele>1096.0</ele><time>2026-05-01T14:47:41.184Z</time></trkpt><trkpt lat="45.90124" lon="11.630015"><ele>1091.0</ele><time>2026-05-01T14:47:42.184Z</time></trkpt><trkpt lat="45.901105" lon="11.6300083"><ele>1086.0</ele><time>2026-05-01T14:47:43.189Z</time></trkpt><trkpt lat="45.900965" lon="11.6299817"><ele>1084.25</ele><time>2026-05-01T14:47:44.184Z</time></trkpt><trkpt lat="45.9008233" lon="11.6299417"><ele>1082.5</ele><time>2026-05-01T14:47:45.185Z</time></trkpt><trkpt lat="45.900685" lon="11.6298983"><ele>1080.75</ele><time>2026-05-01T14:47:46.186Z</time></trkpt><trkpt lat="45.9005583" lon="11.629865"><ele>1079.0</ele><time>2026-05-01T14:47:47.187Z</time></trkpt><trkpt lat="45.9004467" lon="11.629845"><ele>1079.0</ele><time>2026-05-01T14:47:48.186Z</time></trkpt><trkpt lat="45.9003467" lon="11.6298383"><ele>1079.0</ele><time>2026-05-01T14:47:49.184Z</time></trkpt><trkpt lat="45.9002533" lon="11.6298517"><ele>1079.0</ele><time>2026-05-01T14:47:50.185Z</time></trkpt><trkpt lat="45.9001533" lon="11.62991"><ele>1079.0</ele><time>2026-05-01T14:47:51.183Z</time></trkpt><trkpt lat="45.90004" lon="11.62999"><ele>1079.0</ele><time>2026-05-01T14:47:52.184Z</time></trkpt><trkpt lat="45.8999217" lon="11.6300783"><ele>1079.0</ele><time>2026-05-01T14:47:53.186Z</time></trkpt><trkpt lat="45.8997967" lon="11.6301683"><ele>1079.0</ele><time>2026-05-01T14:47:54.184Z</time></trkpt><trkpt lat="45.8996733" lon="11.6302617"><ele>1079.0</ele><time>2026-05-01T14:47:55.187Z</time></trkpt><trkpt lat="45.8995417" lon="11.6303667"><ele>1079.0</ele><time>2026-05-01T14:47:56.184Z</time></trkpt><trkpt lat="45.8994117" lon="11.630485"><ele>1078.5</ele><time>2026-05-01T14:47:57.183Z</time></trkpt><trkpt lat="45.899295" lon="11.6306017"><ele>1078.0</ele><time>2026-05-01T14:47:58.185Z</time></trkpt><trkpt lat="45.89919" lon="11.6307217"><ele>1077.5</ele><time>2026-05-01T14:47:59.183Z</time></trkpt><trkpt lat="45.8990967" lon="11.6308417"><ele>1077.0</ele><time>2026-05-01T14:48:00.189Z</time></trkpt><trkpt lat="45.899015" lon="11.6309683"><ele>1077.0</ele><time>2026-05-01T14:48:01.183Z</time></trkpt><trkpt lat="45.8989517" lon="11.6311017"><ele>1077.0</ele><time>2026-05-01T14:48:02.186Z</time></trkpt><trkpt lat="45.898905" lon="11.631235"><ele>1077.0</ele><time>2026-05-01T14:48:03.19Z</time></trkpt><trkpt lat="45.898875" lon="11.631375"><ele>1077.0</ele><time>2026-05-01T14:48:04.185Z</time></trkpt><trkpt lat="45.8988767" lon="11.6315333"><ele>1077.0</ele><time>2026-05-01T14:48:05.182Z</time></trkpt><trkpt lat="45.8989183" lon="11.6317117"><ele>1077.3333333333333</ele><time>2026-05-01T14:48:06.186Z</time></trkpt><trkpt lat="45.8989867" lon="11.63189"><ele>1077.6666666666665</ele><time>2026-05-01T14:48:07.188Z</time></trkpt><trkpt lat="45.8990817" lon="11.6320633"><ele>1078.0</ele><time>2026-05-01T14:48:08.185Z</time></trkpt><trkpt lat="45.8991983" lon="11.6322333"><ele>1073.6666666666665</ele><time>2026-05-01T14:48:09.186Z</time></trkpt><trkpt lat="45.899325" lon="11.6324117"><ele>1069.3333333333333</ele><time>2026-05-01T14:48:10.186Z</time></trkpt><trkpt lat="45.89945" lon="11.6326033"><ele>1065.0</ele><time>2026-05-01T14:48:11.186Z</time></trkpt><trkpt lat="45.8995667" lon="11.6328067"><ele>1065.0</ele><time>2026-05-01T14:48:12.185Z</time></trkpt><trkpt lat="45.8996783" lon="11.6330283"><ele>1065.0</ele><time>2026-05-01T14:48:13.185Z</time></trkpt><trkpt lat="45.899795" lon="11.6332533"><ele>1065.0</ele><time>2026-05-01T14:48:14.184Z</time></trkpt><trkpt lat="45.89991" lon="11.6334683"><ele>1066.0</ele><time>2026-05-01T14:48:15.187Z</time></trkpt><trkpt lat="45.9000217" lon="11.6336733"><ele>1067.0</ele><time>2026-05-01T14:48:16.183Z</time></trkpt><trkpt lat="45.9001267" lon="11.6338717"><ele>1068.0</ele><time>2026-05-01T14:48:17.184Z</time></trkpt><trkpt lat="45.9002233" lon="11.6340717"><ele>1058.0</ele><time>2026-05-01T14:48:18.184Z</time></trkpt><trkpt lat="45.90031" lon="11.6342767"><ele>1048.0</ele><time>2026-05-01T14:48:19.188Z</time></trkpt><trkpt lat="45.9003917" lon="11.6344967"><ele>1038.0</ele><time>2026-05-01T14:48:20.185Z</time></trkpt><trkpt lat="45.9004583" lon="11.634725"><ele>1038.0</ele><time>2026-05-01T14:48:21.186Z</time></trkpt><trkpt lat="45.9005117" lon="11.63495"><ele>1038.0</ele><time>2026-05-01T14:48:22.185Z</time></trkpt><trkpt lat="45.900565" lon="11.635165"><ele>1038.0</ele><time>2026-05-01T14:48:23.185Z</time></trkpt><trkpt lat="45.9006017" lon="11.6353667"><ele>1039.0</ele><time>2026-05-01T14:48:24.187Z</time></trkpt><trkpt lat="45.9006217" lon="11.63556"><ele>1040.0</ele><time>2026-05-01T14:48:25.188Z</time></trkpt><trkpt lat="45.9006217" lon="11.635745"><ele>1041.0</ele><time>2026-05-01T14:48:26.184Z</time></trkpt><trkpt lat="45.9005867" lon="11.6359167"><ele>1042.0</ele><time>2026-05-01T14:48:27.185Z</time></trkpt><trkpt lat="45.9005283" lon="11.636075"><ele>1041.5</ele><time>2026-05-01T14:48:28.182Z</time></trkpt><trkpt lat="45.900445" lon="11.6362283"><ele>1041.0</ele><time>2026-05-01T14:48:29.185Z</time></trkpt><trkpt lat="45.9003467" lon="11.6363717"><ele>1040.5</ele><time>2026-05-01T14:48:30.187Z</time></trkpt><trkpt lat="45.900225" lon="11.6365033"><ele>1040.0</ele><time>2026-05-01T14:48:31.182Z</time></trkpt><trkpt lat="45.9000783" lon="11.6366267"><ele>1040.0</ele><time>2026-05-01T14:48:32.189Z</time></trkpt><trkpt lat="45.899915" lon="11.636735"><ele>1040.0</ele><time>2026-05-01T14:48:33.185Z</time></trkpt><trkpt lat="45.899745" lon="11.636835"><ele>1040.0</ele><time>2026-05-01T14:48:34.184Z</time></trkpt><trkpt lat="45.8995833" lon="11.6369383"><ele>1034.3333333333335</ele><time>2026-05-01T14:48:35.183Z</time></trkpt><trkpt lat="45.8994217" lon="11.6370533"><ele>1028.6666666666667</ele><time>2026-05-01T14:48:36.185Z</time></trkpt><trkpt lat="45.8992517" lon="11.63717"><ele>1023.0</ele><time>2026-05-01T14:48:37.186Z</time></trkpt><trkpt lat="45.8990733" lon="11.6372767"><ele>1023.0</ele><time>2026-05-01T14:48:38.185Z</time></trkpt><trkpt lat="45.8988917" lon="11.6373717"><ele>1023.0</ele><time>2026-05-01T14:48:39.186Z</time></trkpt><trkpt lat="45.8987183" lon="11.6374483"><ele>1023.0</ele><time>2026-05-01T14:48:40.186Z</time></trkpt><trkpt lat="45.89855" lon="11.6375233"><ele>1025.0</ele><time>2026-05-01T14:48:41.184Z</time></trkpt><trkpt lat="45.8983883" lon="11.6375833"><ele>1027.0</ele><time>2026-05-01T14:48:42.183Z</time></trkpt><trkpt lat="45.898235" lon="11.6376467"><ele>1029.0</ele><time>2026-05-01T14:48:43.184Z</time></trkpt><trkpt lat="45.8980817" lon="11.6377067"><ele>1029.0</ele><time>2026-05-01T14:48:44.184Z</time></trkpt><trkpt lat="45.8979333" lon="11.6377533"><ele>1029.0</ele><time>2026-05-01T14:48:45.185Z</time></trkpt><trkpt lat="45.89779" lon="11.6377767"><ele>1029.0</ele><time>2026-05-01T14:48:46.183Z</time></trkpt><trkpt lat="45.8976533" lon="11.637795"><ele>1029.0</ele><time>2026-05-01T14:48:47.183Z</time></trkpt><trkpt lat="45.8975217" lon="11.6378017"><ele>1027.4</ele><time>2026-05-01T14:48:48.183Z</time></trkpt><trkpt lat="45.8974083" lon="11.63779"><ele>1025.8000000000002</ele><time>2026-05-01T14:48:49.185Z</time></trkpt><trkpt lat="45.89731" lon="11.6377567"><ele>1024.1999999999998</ele><time>2026-05-01T14:48:50.184Z</time></trkpt><trkpt lat="45.8972167" lon="11.6377083"><ele>1022.5999999999999</ele><time>2026-05-01T14:48:51.186Z</time></trkpt><trkpt lat="45.8971267" lon="11.6376067"><ele>1021.0</ele><time>2026-05-01T14:48:52.183Z</time></trkpt><trkpt lat="45.8970433" lon="11.6374767"><ele>1021.0</ele><time>2026-05-01T14:48:53.183Z</time></trkpt><trkpt lat="45.89696" lon="11.63736"><ele>1020.9999999999999</ele><time>2026-05-01T14:48:54.187Z</time></trkpt><trkpt lat="45.8968783" lon="11.637255"><ele>1020.9999999999999</ele><time>2026-05-01T14:48:55.183Z</time></trkpt><trkpt lat="45.8967983" lon="11.6371567"><ele>1021.0</ele><time>2026-05-01T14:48:56.184Z</time></trkpt><trkpt lat="45.8967433" lon="11.637025"><ele>1021.0</ele><time>2026-05-01T14:48:57.186Z</time></trkpt><trkpt lat="45.89671" lon="11.6368467"><ele>1017.25</ele><time>2026-05-01T14:48:58.185Z</time></trkpt><trkpt lat="45.8966633" lon="11.636675"><ele>1013.5</ele><time>2026-05-01T14:48:59.182Z</time></trkpt><trkpt lat="45.8966" lon="11.6365083"><ele>1009.75</ele><time>2026-05-01T14:49:00.184Z</time></trkpt><trkpt lat="45.8965283" lon="11.6363567"><ele>1006.0</ele><time>2026-05-01T14:49:01.184Z</time></trkpt><trkpt lat="45.8964683" lon="11.6361983"><ele>1007.5</ele><time>2026-05-01T14:49:02.184Z</time></trkpt><trkpt lat="45.8964317" lon="11.636025"><ele>1009.0</ele><time>2026-05-01T14:49:03.183Z</time></trkpt><trkpt lat="45.8964083" lon="11.6358217"><ele>1010.5</ele><time>2026-05-01T14:49:04.187Z</time></trkpt><trkpt lat="45.89639" lon="11.6356033"><ele>1012.0</ele><time>2026-05-01T14:49:05.188Z</time></trkpt><trkpt lat="45.8963783" lon="11.6353733"><ele>1011.6666666666666</ele><time>2026-05-01T14:49:06.187Z</time></trkpt><trkpt lat="45.8963767" lon="11.63513"><ele>1011.3333333333333</ele><time>2026-05-01T14:49:07.186Z</time></trkpt><trkpt lat="45.896385" lon="11.6348933"><ele>1011.0</ele><time>2026-05-01T14:49:08.184Z</time></trkpt><trkpt lat="45.89639" lon="11.6346717"><ele>1010.75</ele><time>2026-05-01T14:49:09.267Z</time></trkpt><trkpt lat="45.8964017" lon="11.6344633"><ele>1010.5</ele><time>2026-05-01T14:49:10.184Z</time></trkpt><trkpt lat="45.8964017" lon="11.63427"><ele>1010.25</ele><time>2026-05-01T14:49:11.186Z</time></trkpt><trkpt lat="45.8964067" lon="11.6340967"><ele>1010.0</ele><time>2026-05-01T14:49:12.185Z</time></trkpt><trkpt lat="45.8964033" lon="11.6339567"><ele>1010.0000000000001</ele><time>2026-05-01T14:49:13.185Z</time></trkpt><trkpt lat="45.8963917" lon="11.6338367"><ele>1010.0</ele><time>2026-05-01T14:49:14.187Z</time></trkpt><trkpt lat="45.89636" lon="11.63374"><ele>1010.0</ele><time>2026-05-01T14:49:15.186Z</time></trkpt><trkpt lat="45.896305" lon="11.6336767"><ele>1010.0</ele><time>2026-05-01T14:49:16.184Z</time></trkpt><trkpt lat="45.896235" lon="11.6336433"><ele>1010.0000000000001</ele><time>2026-05-01T14:49:17.185Z</time></trkpt><trkpt lat="45.8961467" lon="11.6336483"><ele>1010.0</ele><time>2026-05-01T14:49:18.185Z</time></trkpt><trkpt lat="45.8960333" lon="11.633725"><ele>1004.0</ele><time>2026-05-01T14:49:19.184Z</time></trkpt><trkpt lat="45.8959183" lon="11.6338233"><ele>998.0</ele><time>2026-05-01T14:49:20.186Z</time></trkpt><trkpt lat="45.8957933" lon="11.6339133"><ele>992.0</ele><time>2026-05-01T14:49:21.185Z</time></trkpt><trkpt lat="45.895665" lon="11.634005"><ele>986.0</ele><time>2026-05-01T14:49:22.183Z</time></trkpt><trkpt lat="45.8955283" lon="11.6341017"><ele>986.0</ele><time>2026-05-01T14:49:23.185Z</time></trkpt><trkpt lat="45.8954" lon="11.6342033"><ele>986.0</ele><time>2026-05-01T14:49:24.185Z</time></trkpt><trkpt lat="45.89528" lon="11.6342917"><ele>986.0</ele><time>2026-05-01T14:49:25.184Z</time></trkpt><trkpt lat="45.8951733" lon="11.6343817"><ele>986.0</ele><time>2026-05-01T14:49:26.185Z</time></trkpt><trkpt lat="45.895085" lon="11.6345"><ele>987.0</ele><time>2026-05-01T14:49:27.189Z</time></trkpt><trkpt lat="45.8950133" lon="11.63466"><ele>988.0</ele><time>2026-05-01T14:49:28.183Z</time></trkpt><trkpt lat="45.8949417" lon="11.6348317"><ele>989.0</ele><time>2026-05-01T14:49:29.185Z</time></trkpt><trkpt lat="45.8948633" lon="11.6349867"><ele>990.0</ele><time>2026-05-01T14:49:30.182Z</time></trkpt><trkpt lat="45.8947933" lon="11.6351317"><ele>990.0</ele><time>2026-05-01T14:49:31.186Z</time></trkpt><trkpt lat="45.8947617" lon="11.6352817"><ele>990.0</ele><time>2026-05-01T14:49:32.185Z</time></trkpt><trkpt lat="45.894775" lon="11.635455"><ele>990.0</ele><time>2026-05-01T14:49:33.186Z</time></trkpt><trkpt lat="45.8948133" lon="11.6356567"><ele>990.0</ele><time>2026-05-01T14:49:34.186Z</time></trkpt><trkpt lat="45.89485" lon="11.6358767"><ele>987.3333333333333</ele><time>2026-05-01T14:49:35.187Z</time></trkpt><trkpt lat="45.89486" lon="11.6361267"><ele>984.6666666666666</ele><time>2026-05-01T14:49:36.185Z</time></trkpt><trkpt lat="45.894865" lon="11.6363833"><ele>982.0</ele><time>2026-05-01T14:49:37.184Z</time></trkpt><trkpt lat="45.8948833" lon="11.636645"><ele>981.0</ele><time>2026-05-01T14:49:38.185Z</time></trkpt><trkpt lat="45.894905" lon="11.6369067"><ele>980.0</ele><time>2026-05-01T14:49:39.184Z</time></trkpt><trkpt lat="45.8949317" lon="11.637165"><ele>979.0</ele><time>2026-05-01T14:49:40.185Z</time></trkpt><trkpt lat="45.8949617" lon="11.6374217"><ele>978.0</ele><time>2026-05-01T14:49:41.185Z</time></trkpt><trkpt lat="45.8949933" lon="11.6376633"><ele>977.0</ele><time>2026-05-01T14:49:42.185Z</time></trkpt><trkpt lat="45.8950217" lon="11.63789"><ele>976.0</ele><time>2026-05-01T14:49:43.185Z</time></trkpt><trkpt lat="45.8950433" lon="11.6381"><ele>974.25</ele><time>2026-05-01T14:49:44.186Z</time></trkpt><trkpt lat="45.8950633" lon="11.6382933"><ele>972.5</ele><time>2026-05-01T14:49:45.185Z</time></trkpt><trkpt lat="45.8950717" lon="11.63847"><ele>970.75</ele><time>2026-05-01T14:49:46.185Z</time></trkpt><trkpt lat="45.8950683" lon="11.6386317"><ele>969.0</ele><time>2026-05-01T14:49:47.189Z</time></trkpt><trkpt lat="45.8950567" lon="11.638785"><ele>966.4000000000001</ele><time>2026-05-01T14:49:48.184Z</time></trkpt><trkpt lat="45.895035" lon="11.6389267"><ele>963.8000000000001</ele><time>2026-05-01T14:49:49.184Z</time></trkpt><trkpt lat="45.894995" lon="11.6390683"><ele>961.1999999999999</ele><time>2026-05-01T14:49:50.184Z</time></trkpt><trkpt lat="45.8949367" lon="11.6391967"><ele>958.5999999999999</ele><time>2026-05-01T14:49:51.184Z</time></trkpt><trkpt lat="45.89485" lon="11.6393067"><ele>956.0</ele><time>2026-05-01T14:49:52.189Z</time></trkpt><trkpt lat="45.894735" lon="11.6393867"><ele>956.0</ele><time>2026-05-01T14:49:53.182Z</time></trkpt><trkpt lat="45.8946033" lon="11.639435"><ele>956.0</ele><time>2026-05-01T14:49:54.183Z</time></trkpt><trkpt lat="45.894455" lon="11.63945"><ele>956.0</ele><time>2026-05-01T14:49:55.185Z</time></trkpt><trkpt lat="45.894285" lon="11.639435"><ele>959.0</ele><time>2026-05-01T14:49:56.184Z</time></trkpt><trkpt lat="45.8941083" lon="11.6394233"><ele>962.0</ele><time>2026-05-01T14:49:57.186Z</time></trkpt><trkpt lat="45.89394" lon="11.6394233"><ele>965.0</ele><time>2026-05-01T14:49:58.184Z</time></trkpt><trkpt lat="45.89378" lon="11.639415"><ele>965.0</ele><time>2026-05-01T14:49:59.185Z</time></trkpt><trkpt lat="45.8936267" lon="11.639415"><ele>965.0</ele><time>2026-05-01T14:50:00.183Z</time></trkpt><trkpt lat="45.89349" lon="11.6393917"><ele>965.0</ele><time>2026-05-01T14:50:01.184Z</time></trkpt><trkpt lat="45.89337" lon="11.6393467"><ele>965.0</ele><time>2026-05-01T14:50:02.182Z</time></trkpt><trkpt lat="45.8932617" lon="11.6393283"><ele>964.8</ele><time>2026-05-01T14:50:03.184Z</time></trkpt><trkpt lat="45.89316" lon="11.6393617"><ele>964.6</ele><time>2026-05-01T14:50:04.184Z</time></trkpt><trkpt lat="45.89307" lon="11.6394333"><ele>964.4000000000001</ele><time>2026-05-01T14:50:05.185Z</time></trkpt><trkpt lat="45.892995" lon="11.6395317"><ele>964.2</ele><time>2026-05-01T14:50:06.183Z</time></trkpt><trkpt lat="45.8929267" lon="11.6396683"><ele>964.0</ele><time>2026-05-01T14:50:07.186Z</time></trkpt><trkpt lat="45.89286" lon="11.6398383"><ele>959.75</ele><time>2026-05-01T14:50:08.185Z</time></trkpt><trkpt lat="45.89277" lon="11.6399917"><ele>955.5</ele><time>2026-05-01T14:50:09.185Z</time></trkpt><trkpt lat="45.8926567" lon="11.6401417"><ele>951.25</ele><time>2026-05-01T14:50:10.183Z</time></trkpt><trkpt lat="45.8925333" lon="11.640275"><ele>947.0</ele><time>2026-05-01T14:50:11.184Z</time></trkpt><trkpt lat="45.8924133" lon="11.6403967"><ele>942.0</ele><time>2026-05-01T14:50:12.185Z</time></trkpt><trkpt lat="45.8922967" lon="11.640505"><ele>937.0</ele><time>2026-05-01T14:50:13.183Z</time></trkpt><trkpt lat="45.8921833" lon="11.6406017"><ele>932.0</ele><time>2026-05-01T14:50:14.187Z</time></trkpt><trkpt lat="45.8920683" lon="11.640685"><ele>927.0</ele><time>2026-05-01T14:50:15.184Z</time></trkpt><trkpt lat="45.8919417" lon="11.6407483"><ele>927.0</ele><time>2026-05-01T14:50:16.183Z</time></trkpt><trkpt lat="45.891805" lon="11.6407883"><ele>927.0</ele><time>2026-05-01T14:50:17.183Z</time></trkpt><trkpt lat="45.8916583" lon="11.6407967"><ele>927.0</ele><time>2026-05-01T14:50:18.185Z</time></trkpt><trkpt lat="45.8915167" lon="11.6407767"><ele>927.0</ele><time>2026-05-01T14:50:19.182Z</time></trkpt><trkpt lat="45.8913833" lon="11.6407433"><ele>926.25</ele><time>2026-05-01T14:50:20.183Z</time></trkpt><trkpt lat="45.891255" lon="11.6407033"><ele>925.5</ele><time>2026-05-01T14:50:21.184Z</time></trkpt><trkpt lat="45.8911283" lon="11.6406717"><ele>924.75</ele><time>2026-05-01T14:50:22.184Z</time></trkpt><trkpt lat="45.8909867" lon="11.6406933"><ele>924.0</ele><time>2026-05-01T14:50:23.183Z</time></trkpt><trkpt lat="45.8908333" lon="11.640765"><ele>923.3333333333333</ele><time>2026-05-01T14:50:24.183Z</time></trkpt><trkpt lat="45.8906667" lon="11.640835"><ele>922.6666666666666</ele><time>2026-05-01T14:50:25.183Z</time></trkpt><trkpt lat="45.8904933" lon="11.6408783"><ele>922.0</ele><time>2026-05-01T14:50:26.184Z</time></trkpt><trkpt lat="45.8903067" lon="11.6409117"><ele>922.0</ele><time>2026-05-01T14:50:27.262Z</time></trkpt><trkpt lat="45.8901283" lon="11.6409517"><ele>922.0</ele><time>2026-05-01T14:50:28.186Z</time></trkpt><trkpt lat="45.88995" lon="11.6409967"><ele>922.0</ele><time>2026-05-01T14:50:29.184Z</time></trkpt><trkpt lat="45.889785" lon="11.6410433"><ele>920.6666666666666</ele><time>2026-05-01T14:50:30.184Z</time></trkpt><trkpt lat="45.8896267" lon="11.6410967"><ele>919.3333333333333</ele><time>2026-05-01T14:50:31.185Z</time></trkpt><trkpt lat="45.88946" lon="11.641145"><ele>918.0</ele><time>2026-05-01T14:50:32.185Z</time></trkpt><trkpt lat="45.8892867" lon="11.6411967"><ele>913.3333333333333</ele><time>2026-05-01T14:50:33.184Z</time></trkpt><trkpt lat="45.8891133" lon="11.641255"><ele>908.6666666666666</ele><time>2026-05-01T14:50:34.185Z</time></trkpt><trkpt lat="45.888945" lon="11.641315"><ele>904.0</ele><time>2026-05-01T14:50:35.185Z</time></trkpt><trkpt lat="45.8887833" lon="11.64137"><ele>904.0</ele><time>2026-05-01T14:50:36.185Z</time></trkpt><trkpt lat="45.88863" lon="11.6414233"><ele>904.0</ele><time>2026-05-01T14:50:37.188Z</time></trkpt><trkpt lat="45.888485" lon="11.64147"><ele>904.0</ele><time>2026-05-01T14:50:38.185Z</time></trkpt><trkpt lat="45.8883433" lon="11.6415"><ele>904.75</ele><time>2026-05-01T14:50:39.184Z</time></trkpt><trkpt lat="45.8881967" lon="11.641525"><ele>905.5</ele><time>2026-05-01T14:50:40.185Z</time></trkpt><trkpt lat="45.888055" lon="11.64154"><ele>906.25</ele><time>2026-05-01T14:50:41.185Z</time></trkpt><trkpt lat="45.8879233" lon="11.641575"><ele>907.0</ele><time>2026-05-01T14:50:42.185Z</time></trkpt><trkpt lat="45.887795" lon="11.6416283"><ele>907.0</ele><time>2026-05-01T14:50:43.184Z</time></trkpt><trkpt lat="45.8876783" lon="11.6417317"><ele>907.0</ele><time>2026-05-01T14:50:44.184Z</time></trkpt><trkpt lat="45.8875717" lon="11.6418683"><ele>907.0</ele><time>2026-05-01T14:50:45.185Z</time></trkpt><trkpt lat="45.8874667" lon="11.64199"><ele>907.0</ele><time>2026-05-01T14:50:46.186Z</time></trkpt><trkpt lat="45.887365" lon="11.6420917"><ele>905.25</ele><time>2026-05-01T14:50:47.185Z</time></trkpt><trkpt lat="45.8872667" lon="11.6421867"><ele>903.5</ele><time>2026-05-01T14:50:48.183Z</time></trkpt><trkpt lat="45.8871533" lon="11.6422483"><ele>901.75</ele><time>2026-05-01T14:50:49.185Z</time></trkpt><trkpt lat="45.8870183" lon="11.642265"><ele>900.0</ele><time>2026-05-01T14:50:50.183Z</time></trkpt><trkpt lat="45.8868667" lon="11.6422733"><ele>899.75</ele><time>2026-05-01T14:50:51.185Z</time></trkpt><trkpt lat="45.8867267" lon="11.6423283"><ele>899.5</ele><time>2026-05-01T14:50:52.186Z</time></trkpt><trkpt lat="45.886595" lon="11.6424117"><ele>899.25</ele><time>2026-05-01T14:50:53.187Z</time></trkpt><trkpt lat="45.8864717" lon="11.6424917"><ele>899.0</ele><time>2026-05-01T14:50:54.188Z</time></trkpt><trkpt lat="45.8863483" lon="11.6425567"><ele>899.0</ele><time>2026-05-01T14:50:55.187Z</time></trkpt><trkpt lat="45.8862133" lon="11.6425917"><ele>899.0</ele><time>2026-05-01T14:50:56.183Z</time></trkpt><trkpt lat="45.88607" lon="11.642585"><ele>899.0</ele><time>2026-05-01T14:50:57.187Z</time></trkpt><trkpt lat="45.8859167" lon="11.6425483"><ele>899.0</ele><time>2026-05-01T14:50:58.187Z</time></trkpt><trkpt lat="45.885755" lon="11.6424817"><ele>897.6666666666667</ele><time>2026-05-01T14:50:59.184Z</time></trkpt><trkpt lat="45.8855867" lon="11.6424467"><ele>896.3333333333333</ele><time>2026-05-01T14:51:00.186Z</time></trkpt><trkpt lat="45.8854117" lon="11.642465"><ele>895.0</ele><time>2026-05-01T14:51:01.183Z</time></trkpt><trkpt lat="45.8852383" lon="11.6425017"><ele>895.6666666666666</ele><time>2026-05-01T14:51:02.189Z</time></trkpt><trkpt lat="45.8850767" lon="11.6425533"><ele>896.3333333333333</ele><time>2026-05-01T14:51:03.187Z</time></trkpt><trkpt lat="45.88493" lon="11.6426233"><ele>897.0</ele><time>2026-05-01T14:51:04.188Z</time></trkpt><trkpt lat="45.8847967" lon="11.6426933"><ele>897.0</ele><time>2026-05-01T14:51:05.186Z</time></trkpt><trkpt lat="45.8846733" lon="11.6427533"><ele>897.0</ele><time>2026-05-01T14:51:06.186Z</time></trkpt><trkpt lat="45.88455" lon="11.642805"><ele>897.0</ele><time>2026-05-01T14:51:07.189Z</time></trkpt><trkpt lat="45.8844217" lon="11.64285"><ele>897.0</ele><time>2026-05-01T14:51:08.183Z</time></trkpt><trkpt lat="45.8842783" lon="11.6428633"><ele>887.3333333333333</ele><time>2026-05-01T14:51:09.188Z</time></trkpt><trkpt lat="45.88412" lon="11.6428333"><ele>877.6666666666666</ele><time>2026-05-01T14:51:10.185Z</time></trkpt><trkpt lat="45.8839567" lon="11.64281"><ele>868.0</ele><time>2026-05-01T14:51:11.186Z</time></trkpt><trkpt lat="45.8837933" lon="11.6427983"><ele>873.0</ele><time>2026-05-01T14:51:12.187Z</time></trkpt><trkpt lat="45.883635" lon="11.64279"><ele>878.0</ele><time>2026-05-01T14:51:13.186Z</time></trkpt><trkpt lat="45.8834883" lon="11.6427783"><ele>883.0</ele><time>2026-05-01T14:51:14.187Z</time></trkpt><trkpt lat="45.8833533" lon="11.6427633"><ele>888.0</ele><time>2026-05-01T14:51:15.185Z</time></trkpt><trkpt lat="45.883235" lon="11.6427567"><ele>888.0</ele><time>2026-05-01T14:51:16.19Z</time></trkpt><trkpt lat="45.88314" lon="11.6427483"><ele>888.0</ele><time>2026-05-01T14:51:17.182Z</time></trkpt><trkpt lat="45.88306" lon="11.642735"><ele>888.0</ele><time>2026-05-01T14:51:18.182Z</time></trkpt><trkpt lat="45.8829917" lon="11.6426933"><ele>888.0</ele><time>2026-05-01T14:51:19.19Z</time></trkpt><trkpt lat="45.8829383" lon="11.6426183"><ele>888.0</ele><time>2026-05-01T14:51:20.189Z</time></trkpt><trkpt lat="45.8828933" lon="11.6425417"><ele>888.0</ele><time>2026-05-01T14:51:21.184Z</time></trkpt><trkpt lat="45.8828483" lon="11.64246"><ele>888.0</ele><time>2026-05-01T14:51:22.184Z</time></trkpt><trkpt lat="45.8828067" lon="11.64237"><ele>888.0</ele><time>2026-05-01T14:51:23.186Z</time></trkpt><trkpt lat="45.8827767" lon="11.6422667"><ele>888.0</ele><time>2026-05-01T14:51:24.185Z</time></trkpt><trkpt lat="45.882745" lon="11.6421567"><ele>888.0</ele><time>2026-05-01T14:51:25.184Z</time></trkpt><trkpt lat="45.882685" lon="11.64208"><ele>888.0</ele><time>2026-05-01T14:51:26.187Z</time></trkpt><trkpt lat="45.8825617" lon="11.6421033"><ele>888.0</ele><time>2026-05-01T14:51:27.186Z</time></trkpt><trkpt lat="45.8824633" lon="11.6421583"><ele>882.0</ele><time>2026-05-01T14:51:28.185Z</time></trkpt><trkpt lat="45.8823367" lon="11.6422567"><ele>876.0</ele><time>2026-05-01T14:51:29.184Z</time></trkpt><trkpt lat="45.8822133" lon="11.6423367"><ele>870.0</ele><time>2026-05-01T14:51:30.183Z</time></trkpt><trkpt lat="45.8820883" lon="11.6423967"><ele>864.0</ele><time>2026-05-01T14:51:31.186Z</time></trkpt><trkpt lat="45.8819517" lon="11.642425"><ele>864.0</ele><time>2026-05-01T14:51:32.188Z</time></trkpt><trkpt lat="45.8818067" lon="11.6424267"><ele>864.0</ele><time>2026-05-01T14:51:33.185Z</time></trkpt><trkpt lat="45.88165" lon="11.6423983"><ele>864.0</ele><time>2026-05-01T14:51:34.184Z</time></trkpt><trkpt lat="45.8814833" lon="11.6423367"><ele>858.3333333333333</ele><time>2026-05-01T14:51:35.183Z</time></trkpt><trkpt lat="45.8813183" lon="11.6422483"><ele>852.6666666666666</ele><time>2026-05-01T14:51:36.184Z</time></trkpt><trkpt lat="45.8811617" lon="11.6421683"><ele>847.0</ele><time>2026-05-01T14:51:37.264Z</time></trkpt><trkpt lat="45.8810133" lon="11.64209"><ele>851.5</ele><time>2026-05-01T14:51:38.185Z</time></trkpt><trkpt lat="45.8808817" lon="11.6420183"><ele>856.0</ele><time>2026-05-01T14:51:39.185Z</time></trkpt><trkpt lat="45.8807583" lon="11.6419433"><ele>860.5</ele><time>2026-05-01T14:51:40.185Z</time></trkpt><trkpt lat="45.8806317" lon="11.641925"><ele>865.0</ele><time>2026-05-01T14:51:41.185Z</time></trkpt><trkpt lat="45.8805133" lon="11.6419317"><ele>865.0</ele><time>2026-05-01T14:51:42.182Z</time></trkpt><trkpt lat="45.880405" lon="11.6419533"><ele>865.0</ele><time>2026-05-01T14:51:43.184Z</time></trkpt><trkpt lat="45.88031" lon="11.6419533"><ele>865.0</ele><time>2026-05-01T14:51:44.184Z</time></trkpt><trkpt lat="45.8802233" lon="11.6419333"><ele>865.0</ele><time>2026-05-01T14:51:45.186Z</time></trkpt><trkpt lat="45.880145" lon="11.64187"><ele>865.0</ele><time>2026-05-01T14:51:46.183Z</time></trkpt><trkpt lat="45.88008" lon="11.6417517"><ele>858.5</ele><time>2026-05-01T14:51:47.183Z</time></trkpt><trkpt lat="45.8800033" lon="11.6416517"><ele>852.0</ele><time>2026-05-01T14:51:48.184Z</time></trkpt><trkpt lat="45.8799017" lon="11.6415967"><ele>845.5</ele><time>2026-05-01T14:51:49.188Z</time></trkpt><trkpt lat="45.8797833" lon="11.6415633"><ele>839.0</ele><time>2026-05-01T14:51:50.186Z</time></trkpt><trkpt lat="45.87966" lon="11.6415817"><ele>839.0</ele><time>2026-05-01T14:51:51.184Z</time></trkpt><trkpt lat="45.8795483" lon="11.6416267"><ele>839.0</ele><time>2026-05-01T14:51:52.184Z</time></trkpt><trkpt lat="45.8794433" lon="11.6416633"><ele>839.0</ele><time>2026-05-01T14:51:53.183Z</time></trkpt><trkpt lat="45.87935" lon="11.64168"><ele>839.0</ele><time>2026-05-01T14:51:54.184Z</time></trkpt><trkpt lat="45.8792617" lon="11.6416717"><ele>839.0</ele><time>2026-05-01T14:51:55.184Z</time></trkpt><trkpt lat="45.8791867" lon="11.6416583"><ele>839.0</ele><time>2026-05-01T14:51:56.187Z</time></trkpt><trkpt lat="45.8791133" lon="11.64172"><ele>839.0</ele><time>2026-05-01T14:51:58.182Z</time></trkpt><trkpt lat="45.8791617" lon="11.64185"><ele>839.0</ele><time>2026-05-01T14:52:00.184Z</time></trkpt><trkpt lat="45.8792333" lon="11.64187"><ele>839.0</ele><time>2026-05-01T14:52:01.185Z</time></trkpt><trkpt lat="45.8793433" lon="11.6418383"><ele>839.0</ele><time>2026-05-01T14:52:02.185Z</time></trkpt><trkpt lat="45.87946" lon="11.641795"><ele>839.0</ele><time>2026-05-01T14:52:03.184Z</time></trkpt><trkpt lat="45.8795783" lon="11.6417833"><ele>839.0</ele><time>2026-05-01T14:52:04.185Z</time></trkpt><trkpt lat="45.87969" lon="11.6418117"><ele>839.0</ele><time>2026-05-01T14:52:05.186Z</time></trkpt><trkpt lat="45.8797883" lon="11.6418567"><ele>839.0</ele><time>2026-05-01T14:52:06.187Z</time></trkpt><trkpt lat="45.8798817" lon="11.6419183"><ele>839.0</ele><time>2026-05-01T14:52:07.189Z</time></trkpt><trkpt lat="45.8799633" lon="11.6419933"><ele>835.8333333333334</ele><time>2026-05-01T14:52:08.184Z</time></trkpt><trkpt lat="45.8800267" lon="11.6420833"><ele>832.6666666666667</ele><time>2026-05-01T14:52:09.186Z</time></trkpt><trkpt lat="45.8800633" lon="11.642195"><ele>829.5</ele><time>2026-05-01T14:52:10.187Z</time></trkpt><trkpt lat="45.8801017" lon="11.6422983"><ele>826.3333333333333</ele><time>2026-05-01T14:52:11.183Z</time></trkpt><trkpt lat="45.88015" lon="11.6423933"><ele>823.1666666666666</ele><time>2026-05-01T14:52:12.183Z</time></trkpt><trkpt lat="45.8802183" lon="11.6424517"><ele>820.0</ele><time>2026-05-01T14:52:13.183Z</time></trkpt><trkpt lat="45.8803" lon="11.6424867"><ele>820.0</ele><time>2026-05-01T14:52:14.186Z</time></trkpt><trkpt lat="45.8804133" lon="11.6424617"><ele>820.0</ele><time>2026-05-01T14:52:15.182Z</time></trkpt><trkpt lat="45.88053" lon="11.6424233"><ele>820.0</ele><time>2026-05-01T14:52:16.187Z</time></trkpt><trkpt lat="45.8806383" lon="11.6424317"><ele>820.0</ele><time>2026-05-01T14:52:17.185Z</time></trkpt><trkpt lat="45.880735" lon="11.6424583"><ele>820.0</ele><time>2026-05-01T14:52:18.187Z</time></trkpt><trkpt lat="45.88083" lon="11.6425017"><ele>820.0</ele><time>2026-05-01T14:52:19.184Z</time></trkpt><trkpt lat="45.8809083" lon="11.6426"><ele>820.0</ele><time>2026-05-01T14:52:20.184Z</time></trkpt><trkpt lat="45.8809733" lon="11.6427217"><ele>820.0</ele><time>2026-05-01T14:52:21.184Z</time></trkpt><trkpt lat="45.881065" lon="11.642805"><ele>820.0</ele><time>2026-05-01T14:52:22.185Z</time></trkpt><trkpt lat="45.8811867" lon="11.6428833"><ele>814.5</ele><time>2026-05-01T14:52:23.186Z</time></trkpt><trkpt lat="45.881315" lon="11.642955"><ele>809.0</ele><time>2026-05-01T14:52:24.186Z</time></trkpt><trkpt lat="45.8814417" lon="11.64301"><ele>803.5</ele><time>2026-05-01T14:52:25.185Z</time></trkpt><trkpt lat="45.8815683" lon="11.6430467"><ele>798.0</ele><time>2026-05-01T14:52:26.188Z</time></trkpt><trkpt lat="45.88169" lon="11.6430933"><ele>801.4</ele><time>2026-05-01T14:52:27.185Z</time></trkpt><trkpt lat="45.881815" lon="11.6430917"><ele>804.8</ele><time>2026-05-01T14:52:28.186Z</time></trkpt><trkpt lat="45.88193" lon="11.6430567"><ele>808.2</ele><time>2026-05-01T14:52:29.185Z</time></trkpt><trkpt lat="45.88203" lon="11.64304"><ele>811.6</ele><time>2026-05-01T14:52:30.184Z</time></trkpt><trkpt lat="45.8821233" lon="11.6430417"><ele>815.0</ele><time>2026-05-01T14:52:31.185Z</time></trkpt><trkpt lat="45.8822067" lon="11.64308"><ele>815.0</ele><time>2026-05-01T14:52:32.185Z</time></trkpt><trkpt lat="45.8822717" lon="11.6431667"><ele>815.0</ele><time>2026-05-01T14:52:33.186Z</time></trkpt><trkpt lat="45.88231" lon="11.6432783"><ele>815.0</ele><time>2026-05-01T14:52:34.188Z</time></trkpt><trkpt lat="45.882335" lon="11.6433933"><ele>815.0</ele><time>2026-05-01T14:52:35.185Z</time></trkpt><trkpt lat="45.8823417" lon="11.6435133"><ele>815.0</ele><time>2026-05-01T14:52:36.186Z</time></trkpt><trkpt lat="45.8822883" lon="11.6436467"><ele>821.3333333333334</ele><time>2026-05-01T14:52:37.186Z</time></trkpt><trkpt lat="45.8821683" lon="11.6437717"><ele>827.6666666666667</ele><time>2026-05-01T14:52:38.185Z</time></trkpt><trkpt lat="45.882035" lon="11.6438883"><ele>834.0</ele><time>2026-05-01T14:52:39.187Z</time></trkpt><trkpt lat="45.881885" lon="11.64401"><ele>819.3333333333333</ele><time>2026-05-01T14:52:40.185Z</time></trkpt><trkpt lat="45.88173" lon="11.6441067"><ele>804.6666666666666</ele><time>2026-05-01T14:52:41.187Z</time></trkpt><trkpt lat="45.8815833" lon="11.6441983"><ele>790.0</ele><time>2026-05-01T14:52:42.185Z</time></trkpt><trkpt lat="45.8814483" lon="11.64428"><ele>790.0</ele><time>2026-05-01T14:52:43.186Z</time></trkpt><trkpt lat="45.881315" lon="11.64434"><ele>790.0</ele><time>2026-05-01T14:52:44.185Z</time></trkpt><trkpt lat="45.8811733" lon="11.6443633"><ele>790.0</ele><time>2026-05-01T14:52:45.192Z</time></trkpt><trkpt lat="45.8810217" lon="11.6443633"><ele>790.0</ele><time>2026-05-01T14:52:46.186Z</time></trkpt><trkpt lat="45.880865" lon="11.6444017"><ele>796.0</ele><time>2026-05-01T14:52:47.185Z</time></trkpt><trkpt lat="45.8806967" lon="11.6444917"><ele>802.0</ele><time>2026-05-01T14:52:48.185Z</time></trkpt><trkpt lat="45.8805317" lon="11.6445967"><ele>808.0</ele><time>2026-05-01T14:52:49.184Z</time></trkpt><trkpt lat="45.880375" lon="11.6446817"><ele>808.0</ele><time>2026-05-01T14:52:50.187Z</time></trkpt><trkpt lat="45.8802383" lon="11.6447617"><ele>808.0</ele><time>2026-05-01T14:52:51.185Z</time></trkpt><trkpt lat="45.8801233" lon="11.6448333"><ele>808.0</ele><time>2026-05-01T14:52:52.187Z</time></trkpt><trkpt lat="45.8800217" lon="11.6449083"><ele>808.0</ele><time>2026-05-01T14:52:53.188Z</time></trkpt><trkpt lat="45.8799417" lon="11.64499"><ele>807.4</ele><time>2026-05-01T14:52:54.185Z</time></trkpt><trkpt lat="45.879875" lon="11.6450967"><ele>806.8</ele><time>2026-05-01T14:52:55.186Z</time></trkpt><trkpt lat="45.8798233" lon="11.645245"><ele>806.2</ele><time>2026-05-01T14:52:56.185Z</time></trkpt><trkpt lat="45.8797633" lon="11.6453933"><ele>805.6</ele><time>2026-05-01T14:52:57.188Z</time></trkpt><trkpt lat="45.8796833" lon="11.6455033"><ele>805.0</ele><time>2026-05-01T14:52:58.184Z</time></trkpt><trkpt lat="45.87959" lon="11.6455767"><ele>805.0</ele><time>2026-05-01T14:52:59.186Z</time></trkpt><trkpt lat="45.8795117" lon="11.6456467"><ele>805.0</ele><time>2026-05-01T14:53:00.185Z</time></trkpt><trkpt lat="45.87945" lon="11.6457317"><ele>805.0</ele><time>2026-05-01T14:53:01.185Z</time></trkpt><trkpt lat="45.8794083" lon="11.6458467"><ele>805.0</ele><time>2026-05-01T14:53:02.185Z</time></trkpt><trkpt lat="45.8793883" lon="11.64598"><ele>805.0</ele><time>2026-05-01T14:53:03.185Z</time></trkpt><trkpt lat="45.8793717" lon="11.646105"><ele>802.4</ele><time>2026-05-01T14:53:04.185Z</time></trkpt><trkpt lat="45.8793183" lon="11.6462"><ele>799.8</ele><time>2026-05-01T14:53:05.184Z</time></trkpt><trkpt lat="45.8792267" lon="11.646265"><ele>797.2</ele><time>2026-05-01T14:53:06.183Z</time></trkpt><trkpt lat="45.8791" lon="11.6463"><ele>794.6</ele><time>2026-05-01T14:53:07.185Z</time></trkpt><trkpt lat="45.87897" lon="11.6463367"><ele>792.0</ele><time>2026-05-01T14:53:08.185Z</time></trkpt><trkpt lat="45.8788483" lon="11.646375"><ele>792.0</ele><time>2026-05-01T14:53:09.188Z</time></trkpt><trkpt lat="45.87873" lon="11.646435"><ele>792.0</ele><time>2026-05-01T14:53:10.185Z</time></trkpt><trkpt lat="45.8786217" lon="11.646535"><ele>792.0</ele><time>2026-05-01T14:53:11.186Z</time></trkpt><trkpt lat="45.878525" lon="11.6466583"><ele>792.0</ele><time>2026-05-01T14:53:12.184Z</time></trkpt><trkpt lat="45.878435" lon="11.6467683"><ele>784.2</ele><time>2026-05-01T14:53:13.185Z</time></trkpt><trkpt lat="45.8783483" lon="11.6468367"><ele>776.4000000000001</ele><time>2026-05-01T14:53:14.184Z</time></trkpt><trkpt lat="45.8782617" lon="11.6468767"><ele>768.5999999999999</ele><time>2026-05-01T14:53:15.187Z</time></trkpt><trkpt lat="45.878175" lon="11.6468767"><ele>760.8</ele><time>2026-05-01T14:53:16.185Z</time></trkpt><trkpt lat="45.878095" lon="11.6468333"><ele>753.0</ele><time>2026-05-01T14:53:17.182Z</time></trkpt><trkpt lat="45.878005" lon="11.6467717"><ele>753.0</ele><time>2026-05-01T14:53:18.186Z</time></trkpt><trkpt lat="45.877915" lon="11.646685"><ele>753.0</ele><time>2026-05-01T14:53:19.188Z</time></trkpt><trkpt lat="45.8778233" lon="11.6466167"><ele>753.0</ele><time>2026-05-01T14:53:20.185Z</time></trkpt><trkpt lat="45.87771" lon="11.6466133"><ele>753.0</ele><time>2026-05-01T14:53:21.187Z</time></trkpt><trkpt lat="45.8775817" lon="11.6466567"><ele>746.75</ele><time>2026-05-01T14:53:22.186Z</time></trkpt><trkpt lat="45.877445" lon="11.64671"><ele>740.5</ele><time>2026-05-01T14:53:23.184Z</time></trkpt><trkpt lat="45.8773233" lon="11.6467767"><ele>734.25</ele><time>2026-05-01T14:53:24.184Z</time></trkpt><trkpt lat="45.8772167" lon="11.6468417"><ele>728.0</ele><time>2026-05-01T14:53:25.184Z</time></trkpt><trkpt lat="45.8771317" lon="11.64691"><ele>735.0</ele><time>2026-05-01T14:53:26.188Z</time></trkpt><trkpt lat="45.87706" lon="11.6469767"><ele>742.0</ele><time>2026-05-01T14:53:27.186Z</time></trkpt><trkpt lat="45.8770133" lon="11.6470717"><ele>749.0</ele><time>2026-05-01T14:53:28.19Z</time></trkpt><trkpt lat="45.876995" lon="11.6472033"><ele>756.0</ele><time>2026-05-01T14:53:29.188Z</time></trkpt><trkpt lat="45.8769917" lon="11.647355"><ele>763.0</ele><time>2026-05-01T14:53:30.186Z</time></trkpt><trkpt lat="45.87697" lon="11.6475"><ele>763.0</ele><time>2026-05-01T14:53:31.183Z</time></trkpt><trkpt lat="45.87693" lon="11.6476383"><ele>763.0</ele><time>2026-05-01T14:53:32.263Z</time></trkpt><trkpt lat="45.8768867" lon="11.6477767"><ele>763.0</ele><time>2026-05-01T14:53:33.184Z</time></trkpt><trkpt lat="45.8768233" lon="11.6479033"><ele>763.0</ele><time>2026-05-01T14:53:34.184Z</time></trkpt><trkpt lat="45.8767367" lon="11.6479917"><ele>763.0</ele><time>2026-05-01T14:53:35.187Z</time></trkpt><trkpt lat="45.8766483" lon="11.648055"><ele>762.5999999999999</ele><time>2026-05-01T14:53:36.185Z</time></trkpt><trkpt lat="45.8765383" lon="11.6480617"><ele>762.1999999999999</ele><time>2026-05-01T14:53:37.186Z</time></trkpt><trkpt lat="45.87642" lon="11.648035"><ele>761.8</ele><time>2026-05-01T14:53:38.187Z</time></trkpt><trkpt lat="45.8763233" lon="11.6479683"><ele>761.4</ele><time>2026-05-01T14:53:39.184Z</time></trkpt><trkpt lat="45.8762383" lon="11.6479283"><ele>761.0</ele><time>2026-05-01T14:53:40.183Z</time></trkpt><trkpt lat="45.876155" lon="11.6479383"><ele>761.0</ele><time>2026-05-01T14:53:41.188Z</time></trkpt><trkpt lat="45.876075" lon="11.6479717"><ele>761.0</ele><time>2026-05-01T14:53:42.184Z</time></trkpt><trkpt lat="45.876005" lon="11.6480433"><ele>761.0</ele><time>2026-05-01T14:53:43.185Z</time></trkpt><trkpt lat="45.8759433" lon="11.6481433"><ele>761.0</ele><time>2026-05-01T14:53:44.186Z</time></trkpt><trkpt lat="45.8759" lon="11.648275"><ele>761.0</ele><time>2026-05-01T14:53:45.186Z</time></trkpt><trkpt lat="45.8758833" lon="11.6484333"><ele>759.5999999999999</ele><time>2026-05-01T14:53:46.186Z</time></trkpt><trkpt lat="45.87586" lon="11.6485567"><ele>758.2</ele><time>2026-05-01T14:53:47.184Z</time></trkpt><trkpt lat="45.87581" lon="11.6486533"><ele>756.8</ele><time>2026-05-01T14:53:48.185Z</time></trkpt><trkpt lat="45.875735" lon="11.64872"><ele>755.4000000000001</ele><time>2026-05-01T14:53:49.19Z</time></trkpt><trkpt lat="45.875615" lon="11.6487033"><ele>754.0</ele><time>2026-05-01T14:53:50.185Z</time></trkpt><trkpt lat="45.8755067" lon="11.64872"><ele>754.0</ele><time>2026-05-01T14:53:51.188Z</time></trkpt><trkpt lat="45.8754" lon="11.648785"><ele>754.0</ele><time>2026-05-01T14:53:52.187Z</time></trkpt><trkpt lat="45.875305" lon="11.6488483"><ele>754.0</ele><time>2026-05-01T14:53:53.185Z</time></trkpt><trkpt lat="45.8752183" lon="11.6488967"><ele>754.0</ele><time>2026-05-01T14:53:54.183Z</time></trkpt><trkpt lat="45.87514" lon="11.6489483"><ele>754.0</ele><time>2026-05-01T14:53:55.184Z</time></trkpt><trkpt lat="45.87509" lon="11.649035"><ele>752.8000000000001</ele><time>2026-05-01T14:53:56.184Z</time></trkpt><trkpt lat="45.87507" lon="11.649165"><ele>751.6</ele><time>2026-05-01T14:53:57.185Z</time></trkpt><trkpt lat="45.8750467" lon="11.6493067"><ele>750.4</ele><time>2026-05-01T14:53:58.186Z</time></trkpt><trkpt lat="45.8750133" lon="11.6494417"><ele>749.2</ele><time>2026-05-01T14:53:59.185Z</time></trkpt><trkpt lat="45.8749767" lon="11.649565"><ele>748.0</ele><time>2026-05-01T14:54:00.189Z</time></trkpt><trkpt lat="45.8749417" lon="11.6496633"><ele>748.0</ele><time>2026-05-01T14:54:01.183Z</time></trkpt><trkpt lat="45.87489" lon="11.649745"><ele>748.0</ele><time>2026-05-01T14:54:03.186Z</time></trkpt><trkpt lat="45.8748467" lon="11.649675"><ele>748.0</ele><time>2026-05-01T14:54:05.185Z</time></trkpt><trkpt lat="45.87488" lon="11.649595"><ele>748.0</ele><time>2026-05-01T14:54:06.184Z</time></trkpt><trkpt lat="45.8749183" lon="11.6495167"><ele>748.0</ele><time>2026-05-01T14:54:07.266Z</time></trkpt><trkpt lat="45.8749483" lon="11.6494017"><ele>748.0</ele><time>2026-05-01T14:54:08.183Z</time></trkpt><trkpt lat="45.8749633" lon="11.649265"><ele>749.2</ele><time>2026-05-01T14:54:09.185Z</time></trkpt><trkpt lat="45.8749667" lon="11.6491133"><ele>750.4</ele><time>2026-05-01T14:54:10.183Z</time></trkpt><trkpt lat="45.874985" lon="11.64898"><ele>751.6</ele><time>2026-05-01T14:54:11.186Z</time></trkpt><trkpt lat="45.87503" lon="11.64886"><ele>752.8000000000001</ele><time>2026-05-01T14:54:12.186Z</time></trkpt><trkpt lat="45.87511" lon="11.64875"><ele>754.0</ele><time>2026-05-01T14:54:13.185Z</time></trkpt><trkpt lat="45.8752117" lon="11.6486567"><ele>748.0</ele><time>2026-05-01T14:54:14.185Z</time></trkpt><trkpt lat="45.8753083" lon="11.6485583"><ele>742.0</ele><time>2026-05-01T14:54:15.184Z</time></trkpt><trkpt lat="45.8754017" lon="11.6484683"><ele>736.0</ele><time>2026-05-01T14:54:16.183Z</time></trkpt><trkpt lat="45.8754967" lon="11.6484083"><ele>730.0</ele><time>2026-05-01T14:54:17.184Z</time></trkpt><trkpt lat="45.87559" lon="11.64838"><ele>724.0</ele><time>2026-05-01T14:54:18.185Z</time></trkpt><trkpt lat="45.8756783" lon="11.6483317"><ele>724.0</ele><time>2026-05-01T14:54:19.267Z</time></trkpt><trkpt lat="45.8757483" lon="11.6482383"><ele>724.0</ele><time>2026-05-01T14:54:20.184Z</time></trkpt><trkpt lat="45.8758" lon="11.6481017"><ele>724.0</ele><time>2026-05-01T14:54:21.185Z</time></trkpt><trkpt lat="45.8758467" lon="11.6479767"><ele>724.0</ele><time>2026-05-01T14:54:22.185Z</time></trkpt><trkpt lat="45.87589" lon="11.6478767"><ele>724.0</ele><time>2026-05-01T14:54:23.184Z</time></trkpt><trkpt lat="45.8759217" lon="11.6477933"><ele>724.0</ele><time>2026-05-01T14:54:24.184Z</time></trkpt><trkpt lat="45.875895" lon="11.64769"><ele>724.0</ele><time>2026-05-01T14:54:26.187Z</time></trkpt><trkpt lat="45.8758" lon="11.647735"><ele>724.0</ele><time>2026-05-01T14:54:28.184Z</time></trkpt><trkpt lat="45.8757683" lon="11.6478617"><ele>724.0</ele><time>2026-05-01T14:54:29.184Z</time></trkpt><trkpt lat="45.8757383" lon="11.647995"><ele>724.0</ele><time>2026-05-01T14:54:30.187Z</time></trkpt><trkpt lat="45.8756833" lon="11.6481033"><ele>724.0</ele><time>2026-05-01T14:54:31.186Z</time></trkpt><trkpt lat="45.8756083" lon="11.6481783"><ele>724.0</ele><time>2026-05-01T14:54:32.184Z</time></trkpt><trkpt lat="45.8755033" lon="11.6481833"><ele>724.0</ele><time>2026-05-01T14:54:33.184Z</time></trkpt><trkpt lat="45.87539" lon="11.6481667"><ele>724.0</ele><time>2026-05-01T14:54:34.184Z</time></trkpt><trkpt lat="45.87529" lon="11.64824"><ele>724.0</ele><time>2026-05-01T14:54:35.185Z</time></trkpt><trkpt lat="45.8751833" lon="11.6483283"><ele>721.0</ele><time>2026-05-01T14:54:36.184Z</time></trkpt><trkpt lat="45.8750683" lon="11.648395"><ele>718.0</ele><time>2026-05-01T14:54:37.183Z</time></trkpt><trkpt lat="45.8749567" lon="11.6484517"><ele>715.0</ele><time>2026-05-01T14:54:38.184Z</time></trkpt><trkpt lat="45.87486" lon="11.64851"><ele>712.0</ele><time>2026-05-01T14:54:39.185Z</time></trkpt><trkpt lat="45.87478" lon="11.6485967"><ele>709.0</ele><time>2026-05-01T14:54:40.185Z</time></trkpt><trkpt lat="45.87472" lon="11.648725"><ele>709.0</ele><time>2026-05-01T14:54:41.182Z</time></trkpt><trkpt lat="45.8746883" lon="11.6488833"><ele>709.0</ele><time>2026-05-01T14:54:42.184Z</time></trkpt><trkpt lat="45.874665" lon="11.6490283"><ele>709.0</ele><time>2026-05-01T14:54:43.185Z</time></trkpt><trkpt lat="45.8746167" lon="11.6491417"><ele>709.0</ele><time>2026-05-01T14:54:44.184Z</time></trkpt><trkpt lat="45.8745417" lon="11.64922"><ele>709.0</ele><time>2026-05-01T14:54:45.184Z</time></trkpt><trkpt lat="45.874425" lon="11.6492467"><ele>709.0</ele><time>2026-05-01T14:54:46.186Z</time></trkpt><trkpt lat="45.8742917" lon="11.6492717"><ele>709.0</ele><time>2026-05-01T14:54:47.184Z</time></trkpt><trkpt lat="45.8741783" lon="11.6493583"><ele>709.0</ele><time>2026-05-01T14:54:48.187Z</time></trkpt><trkpt lat="45.8740583" lon="11.6494367"><ele>709.0</ele><time>2026-05-01T14:54:49.186Z</time></trkpt><trkpt lat="45.8739417" lon="11.64953"><ele>707.25</ele><time>2026-05-01T14:54:50.183Z</time></trkpt><trkpt lat="45.87384" lon="11.6496583"><ele>705.5</ele><time>2026-05-01T14:54:51.187Z</time></trkpt><trkpt lat="45.8737467" lon="11.6497933"><ele>703.75</ele><time>2026-05-01T14:54:52.185Z</time></trkpt><trkpt lat="45.8736367" lon="11.6498867"><ele>702.0</ele><time>2026-05-01T14:54:53.184Z</time></trkpt><trkpt lat="45.8735217" lon="11.64994"><ele>696.6</ele><time>2026-05-01T14:54:54.185Z</time></trkpt><trkpt lat="45.8734217" lon="11.6499967"><ele>691.2</ele><time>2026-05-01T14:54:55.188Z</time></trkpt><trkpt lat="45.873345" lon="11.650065"><ele>685.8</ele><time>2026-05-01T14:54:56.186Z</time></trkpt><trkpt lat="45.87328" lon="11.6501417"><ele>680.4</ele><time>2026-05-01T14:54:57.183Z</time></trkpt><trkpt lat="45.87323" lon="11.6502483"><ele>675.0</ele><time>2026-05-01T14:54:58.185Z</time></trkpt><trkpt lat="45.8732017" lon="11.6503817"><ele>675.0</ele><time>2026-05-01T14:54:59.184Z</time></trkpt><trkpt lat="45.8731983" lon="11.6505483"><ele>675.0</ele><time>2026-05-01T14:55:00.182Z</time></trkpt><trkpt lat="45.8732133" lon="11.6507133"><ele>675.0</ele><time>2026-05-01T14:55:01.185Z</time></trkpt><trkpt lat="45.873215" lon="11.650865"><ele>675.0</ele><time>2026-05-01T14:55:02.183Z</time></trkpt><trkpt lat="45.8731917" lon="11.650995"><ele>675.0</ele><time>2026-05-01T14:55:03.187Z</time></trkpt><trkpt lat="45.873145" lon="11.6510933"><ele>681.75</ele><time>2026-05-01T14:55:04.185Z</time></trkpt><trkpt lat="45.873065" lon="11.6511583"><ele>688.5</ele><time>2026-05-01T14:55:05.184Z</time></trkpt><trkpt lat="45.8729633" lon="11.6512067"><ele>695.25</ele><time>2026-05-01T14:55:06.185Z</time></trkpt><trkpt lat="45.8728383" lon="11.6512117"><ele>702.0</ele><time>2026-05-01T14:55:07.185Z</time></trkpt><trkpt lat="45.8727083" lon="11.651185"><ele>691.5</ele><time>2026-05-01T14:55:08.187Z</time></trkpt><trkpt lat="45.8726033" lon="11.651185"><ele>681.0</ele><time>2026-05-01T14:55:09.183Z</time></trkpt><trkpt lat="45.872505" lon="11.6512233"><ele>670.5</ele><time>2026-05-01T14:55:10.183Z</time></trkpt><trkpt lat="45.8724067" lon="11.6513183"><ele>660.0</ele><time>2026-05-01T14:55:11.188Z</time></trkpt><trkpt lat="45.8723067" lon="11.6514517"><ele>660.0</ele><time>2026-05-01T14:55:12.185Z</time></trkpt><trkpt lat="45.8721983" lon="11.6515933"><ele>660.0</ele><time>2026-05-01T14:55:13.186Z</time></trkpt><trkpt lat="45.87209" lon="11.65174"><ele>660.0</ele><time>2026-05-01T14:55:14.183Z</time></trkpt><trkpt lat="45.8719867" lon="11.65189"><ele>660.0</ele><time>2026-05-01T14:55:15.187Z</time></trkpt><trkpt lat="45.8718883" lon="11.6520283"><ele>661.4</ele><time>2026-05-01T14:55:16.184Z</time></trkpt><trkpt lat="45.8717933" lon="11.65216"><ele>662.8</ele><time>2026-05-01T14:55:17.185Z</time></trkpt><trkpt lat="45.871705" lon="11.6522667"><ele>664.2</ele><time>2026-05-01T14:55:18.184Z</time></trkpt><trkpt lat="45.8716317" lon="11.6523483"><ele>665.6</ele><time>2026-05-01T14:55:19.186Z</time></trkpt><trkpt lat="45.87157" lon="11.6524133"><ele>667.0</ele><time>2026-05-01T14:55:20.187Z</time></trkpt><trkpt lat="45.87152" lon="11.6524733"><ele>660.6</ele><time>2026-05-01T14:55:21.185Z</time></trkpt><trkpt lat="45.8714317" lon="11.6525583"><ele>654.2</ele><time>2026-05-01T14:55:23.186Z</time></trkpt><trkpt lat="45.871385" lon="11.6526283"><ele>647.8</ele><time>2026-05-01T14:55:25.186Z</time></trkpt><trkpt lat="45.8712667" lon="11.6527217"><ele>641.4</ele><time>2026-05-01T14:58:23.965Z</time></trkpt><trkpt lat="45.871325" lon="11.6526733"><ele>635.0</ele><time>2026-05-01T14:58:25.17Z</time></trkpt><trkpt lat="45.871415" lon="11.6525017"><ele>635.0</ele><time>2026-05-01T15:01:32.184Z</time></trkpt><trkpt lat="45.8714833" lon="11.65242"><ele>635.0</ele><time>2026-05-01T15:01:34.186Z</time></trkpt><trkpt lat="45.8715833" lon="11.652315"><ele>635.0</ele><time>2026-05-01T15:01:36.189Z</time></trkpt><trkpt lat="45.87164" lon="11.652235"><ele>635.0</ele><time>2026-05-01T15:01:37.189Z</time></trkpt><trkpt lat="45.8716917" lon="11.6521617"><ele>635.0</ele><time>2026-05-01T15:01:38.185Z</time></trkpt><trkpt lat="45.87174" lon="11.652065"><ele>635.0</ele><time>2026-05-01T15:01:39.184Z</time></trkpt><trkpt lat="45.8717833" lon="11.6519283"><ele>640.0</ele><time>2026-05-01T15:01:40.186Z</time></trkpt><trkpt lat="45.87183" lon="11.6518"><ele>645.0</ele><time>2026-05-01T15:01:41.185Z</time></trkpt><trkpt lat="45.8718883" lon="11.6516867"><ele>650.0</ele><time>2026-05-01T15:01:42.184Z</time></trkpt><trkpt lat="45.8719433" lon="11.6515717"><ele>655.0</ele><time>2026-05-01T15:01:43.185Z</time></trkpt><trkpt lat="45.8720033" lon="11.6514467"><ele>660.0</ele><time>2026-05-01T15:01:44.184Z</time></trkpt><trkpt lat="45.87205" lon="11.6513067"><ele>660.0</ele><time>2026-05-01T15:01:45.186Z</time></trkpt><trkpt lat="45.8721033" lon="11.6511583"><ele>660.0</ele><time>2026-05-01T15:01:46.186Z</time></trkpt><trkpt lat="45.87216" lon="11.65103"><ele>660.0</ele><time>2026-05-01T15:01:47.184Z</time></trkpt><trkpt lat="45.8722233" lon="11.6509133"><ele>660.0</ele><time>2026-05-01T15:01:48.186Z</time></trkpt><trkpt lat="45.87227" lon="11.6508283"><ele>660.0</ele><time>2026-05-01T15:01:49.186Z</time></trkpt><trkpt lat="45.8723283" lon="11.65077"><ele>662.5</ele><time>2026-05-01T15:01:50.188Z</time></trkpt><trkpt lat="45.8723967" lon="11.650735"><ele>665.0</ele><time>2026-05-01T15:01:51.187Z</time></trkpt><trkpt lat="45.8724733" lon="11.6507417"><ele>667.5</ele><time>2026-05-01T15:01:52.184Z</time></trkpt><trkpt lat="45.8725883" lon="11.65067"><ele>670.0</ele><time>2026-05-01T15:01:54.185Z</time></trkpt><trkpt lat="45.872645" lon="11.6505883"><ele>672.5</ele><time>2026-05-01T15:01:55.186Z</time></trkpt><trkpt lat="45.8726867" lon="11.6505067"><ele>675.0</ele><time>2026-05-01T15:01:56.184Z</time></trkpt><trkpt lat="45.8726883" lon="11.6503617"><ele>671.6</ele><time>2026-05-01T15:01:57.185Z</time></trkpt><trkpt lat="45.8726817" lon="11.6502233"><ele>668.2</ele><time>2026-05-01T15:01:58.184Z</time></trkpt><trkpt lat="45.8726617" lon="11.65007"><ele>664.8</ele><time>2026-05-01T15:01:59.185Z</time></trkpt><trkpt lat="45.8726433" lon="11.6499283"><ele>661.4</ele><time>2026-05-01T15:02:00.185Z</time></trkpt><trkpt lat="45.8726367" lon="11.649795"><ele>658.0</ele><time>2026-05-01T15:02:01.185Z</time></trkpt><trkpt lat="45.87265" lon="11.6496567"><ele>658.0</ele><time>2026-05-01T15:02:02.186Z</time></trkpt><trkpt lat="45.872705" lon="11.649525"><ele>658.0</ele><time>2026-05-01T15:02:03.185Z</time></trkpt><trkpt lat="45.8727633" lon="11.649405"><ele>658.0</ele><time>2026-05-01T15:02:04.184Z</time></trkpt><trkpt lat="45.8728333" lon="11.6493083"><ele>658.0</ele><time>2026-05-01T15:02:05.184Z</time></trkpt><trkpt lat="45.87292" lon="11.6492367"><ele>658.0</ele><time>2026-05-01T15:02:06.184Z</time></trkpt><trkpt lat="45.873035" lon="11.6491883"><ele>660.25</ele><time>2026-05-01T15:02:07.185Z</time></trkpt><trkpt lat="45.873155" lon="11.6491333"><ele>662.5</ele><time>2026-05-01T15:02:08.188Z</time></trkpt><trkpt lat="45.87326" lon="11.6490767"><ele>664.75</ele><time>2026-05-01T15:02:09.185Z</time></trkpt><trkpt lat="45.8733533" lon="11.6490117"><ele>667.0</ele><time>2026-05-01T15:02:10.188Z</time></trkpt><trkpt lat="45.8734467" lon="11.6489217"><ele>667.0</ele><time>2026-05-01T15:02:11.184Z</time></trkpt><trkpt lat="45.8735283" lon="11.6488133"><ele>667.0</ele><time>2026-05-01T15:02:12.185Z</time></trkpt><trkpt lat="45.8735967" lon="11.6486917"><ele>667.0</ele><time>2026-05-01T15:02:13.185Z</time></trkpt><trkpt lat="45.8736733" lon="11.648585"><ele>667.0</ele><time>2026-05-01T15:02:14.186Z</time></trkpt><trkpt lat="45.87376" lon="11.648515"><ele>667.0</ele><time>2026-05-01T15:02:15.184Z</time></trkpt><trkpt lat="45.873845" lon="11.64848"><ele>661.6666666666667</ele><time>2026-05-01T15:02:16.185Z</time></trkpt><trkpt lat="45.8739233" lon="11.6484333"><ele>656.3333333333334</ele><time>2026-05-01T15:02:17.184Z</time></trkpt><trkpt lat="45.8739883" lon="11.6483617"><ele>651.0</ele><time>2026-05-01T15:02:18.187Z</time></trkpt><trkpt lat="45.8740317" lon="11.6482667"><ele>645.6666666666666</ele><time>2026-05-01T15:02:19.187Z</time></trkpt><trkpt lat="45.874065" lon="11.64815"><ele>640.3333333333333</ele><time>2026-05-01T15:02:20.186Z</time></trkpt><trkpt lat="45.8740883" lon="11.6480483"><ele>635.0</ele><time>2026-05-01T15:02:21.185Z</time></trkpt><trkpt lat="45.8740617" lon="11.6478983"><ele>635.0</ele><time>2026-05-01T15:02:23.184Z</time></trkpt><trkpt lat="45.8739767" lon="11.64791"><ele>635.0</ele><time>2026-05-01T15:02:25.183Z</time></trkpt><trkpt lat="45.873935" lon="11.64798"><ele>635.0</ele><time>2026-05-01T15:02:26.19Z</time></trkpt><trkpt lat="45.8739183" lon="11.6480917"><ele>635.0</ele><time>2026-05-01T15:02:27.188Z</time></trkpt><trkpt lat="45.87389" lon="11.6482017"><ele>635.0</ele><time>2026-05-01T15:02:28.185Z</time></trkpt><trkpt lat="45.87383" lon="11.64827"><ele>635.0</ele><time>2026-05-01T15:02:29.186Z</time></trkpt><trkpt lat="45.87374" lon="11.6483067"><ele>635.0</ele><time>2026-05-01T15:02:30.187Z</time></trkpt><trkpt lat="45.8736467" lon="11.64834"><ele>635.0</ele><time>2026-05-01T15:02:31.183Z</time></trkpt><trkpt lat="45.8734433" lon="11.6483683"><ele>635.0</ele><time>2026-05-01T15:02:32.828Z</time></trkpt><trkpt lat="45.8733433" lon="11.64875"><ele>634.5</ele><time>2026-05-01T15:02:34.023Z</time></trkpt><trkpt lat="45.8731467" lon="11.6488317"><ele>634.0</ele><time>2026-05-01T15:02:36.188Z</time></trkpt><trkpt lat="45.8730233" lon="11.6488433"><ele>633.5</ele><time>2026-05-01T15:02:37.184Z</time></trkpt><trkpt lat="45.8729067" lon="11.6488617"><ele>633.0</ele><time>2026-05-01T15:02:38.188Z</time></trkpt><trkpt lat="45.8727867" lon="11.6488683"><ele>633.0</ele><time>2026-05-01T15:02:39.184Z</time></trkpt><trkpt lat="45.8726783" lon="11.64889"><ele>633.0</ele><time>2026-05-01T15:02:40.184Z</time></trkpt><trkpt lat="45.8725783" lon="11.6489117"><ele>633.0</ele><time>2026-05-01T15:02:41.184Z</time></trkpt><trkpt lat="45.8724833" lon="11.6489433"><ele>633.0</ele><time>2026-05-01T15:02:42.184Z</time></trkpt><trkpt lat="45.8723883" lon="11.64902"><ele>633.0</ele><time>2026-05-01T15:02:43.186Z</time></trkpt><trkpt lat="45.872305" lon="11.6491283"><ele>628.8</ele><time>2026-05-01T15:02:44.187Z</time></trkpt><trkpt lat="45.8722317" lon="11.6492433"><ele>624.5999999999999</ele><time>2026-05-01T15:02:45.188Z</time></trkpt><trkpt lat="45.8721683" lon="11.6493567"><ele>620.4000000000001</ele><time>2026-05-01T15:02:46.185Z</time></trkpt><trkpt lat="45.87212" lon="11.6494617"><ele>616.2</ele><time>2026-05-01T15:02:47.184Z</time></trkpt><trkpt lat="45.8720933" lon="11.64957"><ele>612.0</ele><time>2026-05-01T15:02:48.188Z</time></trkpt><trkpt lat="45.8720917" lon="11.6496833"><ele>612.0</ele><time>2026-05-01T15:02:49.185Z</time></trkpt><trkpt lat="45.8720833" lon="11.6497917"><ele>612.0</ele><time>2026-05-01T15:02:50.185Z</time></trkpt><trkpt lat="45.8720417" lon="11.6498833"><ele>612.0</ele><time>2026-05-01T15:02:51.186Z</time></trkpt><trkpt lat="45.8719633" lon="11.6499533"><ele>612.0</ele><time>2026-05-01T15:02:52.184Z</time></trkpt><trkpt lat="45.8718483" lon="11.6500167"><ele>612.0</ele><time>2026-05-01T15:02:53.19Z</time></trkpt><trkpt lat="45.87175" lon="11.650115"><ele>608.5</ele><time>2026-05-01T15:02:54.184Z</time></trkpt><trkpt lat="45.8716567" lon="11.6502583"><ele>605.0</ele><time>2026-05-01T15:02:55.186Z</time></trkpt><trkpt lat="45.8715667" lon="11.6504"><ele>601.5</ele><time>2026-05-01T15:02:56.189Z</time></trkpt><trkpt lat="45.8714767" lon="11.6505383"><ele>598.0</ele><time>2026-05-01T15:02:57.186Z</time></trkpt><trkpt lat="45.87139" lon="11.6506767"><ele>598.0</ele><time>2026-05-01T15:02:58.183Z</time></trkpt><trkpt lat="45.871295" lon="11.6507917"><ele>598.0</ele><time>2026-05-01T15:02:59.184Z</time></trkpt><trkpt lat="45.8711867" lon="11.6508867"><ele>598.0</ele><time>2026-05-01T15:03:00.184Z</time></trkpt><trkpt lat="45.8710683" lon="11.6509667"><ele>598.0</ele><time>2026-05-01T15:03:01.186Z</time></trkpt><trkpt lat="45.8709533" lon="11.6510483"><ele>598.0</ele><time>2026-05-01T15:03:02.189Z</time></trkpt><trkpt lat="45.8708417" lon="11.651125"><ele>598.0</ele><time>2026-05-01T15:03:03.185Z</time></trkpt><trkpt lat="45.8707317" lon="11.6511867"><ele>598.0</ele><time>2026-05-01T15:03:04.186Z</time></trkpt><trkpt lat="45.8706233" lon="11.6512367"><ele>598.0</ele><time>2026-05-01T15:03:05.184Z</time></trkpt><trkpt lat="45.8705167" lon="11.6512833"><ele>598.0</ele><time>2026-05-01T15:03:06.183Z</time></trkpt><trkpt lat="45.8704167" lon="11.6513267"><ele>598.0</ele><time>2026-05-01T15:03:07.185Z</time></trkpt><trkpt lat="45.870325" lon="11.6513517"><ele>598.0</ele><time>2026-05-01T15:03:08.186Z</time></trkpt><trkpt lat="45.87025" lon="11.6513733"><ele>598.0</ele><time>2026-05-01T15:03:09.187Z</time></trkpt><trkpt lat="45.8701483" lon="11.6513933"><ele>598.0</ele><time>2026-05-01T15:03:11.183Z</time></trkpt><trkpt lat="45.870165" lon="11.65127"><ele>598.0</ele><time>2026-05-01T15:03:14.184Z</time></trkpt><trkpt lat="45.8702367" lon="11.6512617"><ele>598.0</ele><time>2026-05-01T15:03:15.186Z</time></trkpt><trkpt lat="45.8703367" lon="11.65125"><ele>598.0</ele><time>2026-05-01T15:03:16.186Z</time></trkpt><trkpt lat="45.8704483" lon="11.6512183"><ele>598.0</ele><time>2026-05-01T15:03:17.185Z</time></trkpt><trkpt lat="45.87056" lon="11.651175"><ele>598.0</ele><time>2026-05-01T15:03:18.184Z</time></trkpt><trkpt lat="45.8706667" lon="11.6510967"><ele>598.0</ele><time>2026-05-01T15:03:19.188Z</time></trkpt><trkpt lat="45.870775" lon="11.65099"><ele>598.0</ele><time>2026-05-01T15:03:20.184Z</time></trkpt><trkpt lat="45.8708917" lon="11.6508583"><ele>598.0</ele><time>2026-05-01T15:03:21.189Z</time></trkpt><trkpt lat="45.8709967" lon="11.6507383"><ele>598.0</ele><time>2026-05-01T15:03:22.19Z</time></trkpt><trkpt lat="45.8710883" lon="11.6506083"><ele>598.0</ele><time>2026-05-01T15:03:23.185Z</time></trkpt><trkpt lat="45.871165" lon="11.6504533"><ele>598.0</ele><time>2026-05-01T15:03:24.185Z</time></trkpt><trkpt lat="45.87124" lon="11.65028"><ele>598.0</ele><time>2026-05-01T15:03:25.187Z</time></trkpt><trkpt lat="45.871315" lon="11.6501067"><ele>598.0</ele><time>2026-05-01T15:03:26.184Z</time></trkpt><trkpt lat="45.8713817" lon="11.649955"><ele>593.5</ele><time>2026-05-01T15:03:27.189Z</time></trkpt><trkpt lat="45.8714517" lon="11.6498317"><ele>589.0</ele><time>2026-05-01T15:03:28.188Z</time></trkpt><trkpt lat="45.8715233" lon="11.6497367"><ele>584.5</ele><time>2026-05-01T15:03:29.185Z</time></trkpt><trkpt lat="45.871585" lon="11.6496667"><ele>580.0</ele><time>2026-05-01T15:03:30.186Z</time></trkpt><trkpt lat="45.8716283" lon="11.6495867"><ele>575.5</ele><time>2026-05-01T15:03:31.188Z</time></trkpt><trkpt lat="45.8716367" lon="11.6494833"><ele>571.0</ele><time>2026-05-01T15:03:32.188Z</time></trkpt><trkpt lat="45.8716283" lon="11.6493717"><ele>567.2</ele><time>2026-05-01T15:03:33.186Z</time></trkpt><trkpt lat="45.8716167" lon="11.6492483"><ele>563.4000000000001</ele><time>2026-05-01T15:03:34.188Z</time></trkpt><trkpt lat="45.8716267" lon="11.6491067"><ele>559.6</ele><time>2026-05-01T15:03:35.188Z</time></trkpt><trkpt lat="45.8716567" lon="11.6489683"><ele>555.8000000000001</ele><time>2026-05-01T15:03:36.187Z</time></trkpt><trkpt lat="45.8717033" lon="11.6488517"><ele>552.0</ele><time>2026-05-01T15:03:37.187Z</time></trkpt><trkpt lat="45.8717517" lon="11.648755"><ele>552.0</ele><time>2026-05-01T15:03:38.187Z</time></trkpt><trkpt lat="45.87179" lon="11.6486783"><ele>552.0</ele><time>2026-05-01T15:03:39.187Z</time></trkpt><trkpt lat="45.8718" lon="11.648555"><ele>552.0</ele><time>2026-05-01T15:03:41.188Z</time></trkpt><trkpt lat="45.87173" lon="11.6485333"><ele>552.0</ele><time>2026-05-01T15:03:43.184Z</time></trkpt><trkpt lat="45.87168" lon="11.6485983"><ele>552.0</ele><time>2026-05-01T15:03:44.184Z</time></trkpt><trkpt lat="45.8716233" lon="11.6487133"><ele>552.0</ele><time>2026-05-01T15:03:45.187Z</time></trkpt><trkpt lat="45.8715783" lon="11.6489017"><ele>552.0</ele><time>2026-05-01T15:03:46.184Z</time></trkpt><trkpt lat="45.8715183" lon="11.6490533"><ele>552.0</ele><time>2026-05-01T15:03:47.184Z</time></trkpt><trkpt lat="45.8714817" lon="11.64921"><ele>552.0</ele><time>2026-05-01T15:03:48.271Z</time></trkpt><trkpt lat="45.8714733" lon="11.64936"><ele>552.0</ele><time>2026-05-01T15:03:49.185Z</time></trkpt><trkpt lat="45.8714567" lon="11.649495"><ele>552.0</ele><time>2026-05-01T15:03:50.184Z</time></trkpt><trkpt lat="45.8713983" lon="11.6496017"><ele>556.75</ele><time>2026-05-01T15:03:51.185Z</time></trkpt><trkpt lat="45.8712983" lon="11.6496617"><ele>561.5</ele><time>2026-05-01T15:03:52.185Z</time></trkpt><trkpt lat="45.8711633" lon="11.64971"><ele>566.25</ele><time>2026-05-01T15:03:53.186Z</time></trkpt><trkpt lat="45.8710533" lon="11.6498083"><ele>571.0</ele><time>2026-05-01T15:03:54.185Z</time></trkpt><trkpt lat="45.8709467" lon="11.649935"><ele>569.25</ele><time>2026-05-01T15:03:55.188Z</time></trkpt><trkpt lat="45.8708483" lon="11.6500617"><ele>567.5</ele><time>2026-05-01T15:03:56.188Z</time></trkpt><trkpt lat="45.8707517" lon="11.6501783"><ele>565.75</ele><time>2026-05-01T15:03:57.187Z</time></trkpt><trkpt lat="45.8706583" lon="11.6502883"><ele>564.0</ele><time>2026-05-01T15:03:58.187Z</time></trkpt><trkpt lat="45.8705783" lon="11.6503917"><ele>564.0</ele><time>2026-05-01T15:03:59.188Z</time></trkpt><trkpt lat="45.870515" lon="11.6504817"><ele>564.0</ele><time>2026-05-01T15:04:00.187Z</time></trkpt><trkpt lat="45.8704667" lon="11.650555"><ele>564.0</ele><time>2026-05-01T15:04:01.185Z</time></trkpt><trkpt lat="45.870395" lon="11.6505917"><ele>564.0</ele><time>2026-05-01T15:04:03.186Z</time></trkpt><trkpt lat="45.8703983" lon="11.650475"><ele>564.0</ele><time>2026-05-01T15:04:05.185Z</time></trkpt><trkpt lat="45.8704383" lon="11.650405"><ele>564.0</ele><time>2026-05-01T15:04:06.184Z</time></trkpt><trkpt lat="45.8705067" lon="11.65033"><ele>557.5</ele><time>2026-05-01T15:04:07.186Z</time></trkpt><trkpt lat="45.8705817" lon="11.6502283"><ele>551.0</ele><time>2026-05-01T15:04:08.186Z</time></trkpt><trkpt lat="45.870665" lon="11.650095"><ele>544.5</ele><time>2026-05-01T15:04:09.267Z</time></trkpt><trkpt lat="45.8707533" lon="11.6499567"><ele>538.0</ele><time>2026-05-01T15:04:10.186Z</time></trkpt><trkpt lat="45.870845" lon="11.64982"><ele>538.0</ele><time>2026-05-01T15:04:11.185Z</time></trkpt><trkpt lat="45.870935" lon="11.6497117"><ele>538.0</ele><time>2026-05-01T15:04:12.186Z</time></trkpt><trkpt lat="45.8710317" lon="11.64962"><ele>538.0</ele><time>2026-05-01T15:04:13.186Z</time></trkpt><trkpt lat="45.87112" lon="11.6495367"><ele>538.0</ele><time>2026-05-01T15:04:14.185Z</time></trkpt><trkpt lat="45.8712033" lon="11.649455"><ele>538.0</ele><time>2026-05-01T15:04:15.184Z</time></trkpt><trkpt lat="45.871255" lon="11.6493483"><ele>540.8</ele><time>2026-05-01T15:04:16.184Z</time></trkpt><trkpt lat="45.8712733" lon="11.6492"><ele>543.5999999999999</ele><time>2026-05-01T15:04:17.187Z</time></trkpt><trkpt lat="45.8712883" lon="11.649045"><ele>546.4000000000001</ele><time>2026-05-01T15:04:18.184Z</time></trkpt><trkpt lat="45.8713167" lon="11.6489033"><ele>549.2</ele><time>2026-05-01T15:04:19.185Z</time></trkpt><trkpt lat="45.8713567" lon="11.64878"><ele>552.0</ele><time>2026-05-01T15:04:20.185Z</time></trkpt><trkpt lat="45.8713967" lon="11.64869"><ele>552.0</ele><time>2026-05-01T15:04:21.187Z</time></trkpt><trkpt lat="45.8714233" lon="11.6485617"><ele>552.0</ele><time>2026-05-01T15:04:23.185Z</time></trkpt><trkpt lat="45.8713667" lon="11.648485"><ele>552.0</ele><time>2026-05-01T15:04:25.185Z</time></trkpt><trkpt lat="45.8712817" lon="11.6485633"><ele>552.0</ele><time>2026-05-01T15:04:27.185Z</time></trkpt><trkpt lat="45.87126" lon="11.6486883"><ele>552.0</ele><time>2026-05-01T15:04:28.187Z</time></trkpt><trkpt lat="45.871225" lon="11.64879"><ele>552.0</ele><time>2026-05-01T15:04:29.186Z</time></trkpt><trkpt lat="45.8711883" lon="11.648915"><ele>552.0</ele><time>2026-05-01T15:04:30.183Z</time></trkpt><trkpt lat="45.8711517" lon="11.6490333"><ele>552.0</ele><time>2026-05-01T15:04:31.184Z</time></trkpt><trkpt lat="45.87111" lon="11.649145"><ele>552.0</ele><time>2026-05-01T15:04:32.189Z</time></trkpt><trkpt lat="45.8710583" lon="11.6492333"><ele>552.0</ele><time>2026-05-01T15:04:33.19Z</time></trkpt><trkpt lat="45.8709817" lon="11.6493017"><ele>552.0</ele><time>2026-05-01T15:04:34.187Z</time></trkpt><trkpt lat="45.8708917" lon="11.6493633"><ele>552.0</ele><time>2026-05-01T15:04:35.187Z</time></trkpt><trkpt lat="45.87079" lon="11.6494267"><ele>549.2</ele><time>2026-05-01T15:04:36.186Z</time></trkpt><trkpt lat="45.8707017" lon="11.6494967"><ele>546.4000000000001</ele><time>2026-05-01T15:04:37.184Z</time></trkpt><trkpt lat="45.87062" lon="11.6495667"><ele>543.5999999999999</ele><time>2026-05-01T15:04:38.189Z</time></trkpt><trkpt lat="45.87054" lon="11.6496333"><ele>540.8</ele><time>2026-05-01T15:04:39.183Z</time></trkpt><trkpt lat="45.870455" lon="11.6497017"><ele>538.0</ele><time>2026-05-01T15:04:40.186Z</time></trkpt><trkpt lat="45.8703667" lon="11.6497717"><ele>538.0</ele><time>2026-05-01T15:04:41.185Z</time></trkpt><trkpt lat="45.8702783" lon="11.649855"><ele>538.0</ele><time>2026-05-01T15:04:42.187Z</time></trkpt><trkpt lat="45.8701717" lon="11.6499233"><ele>538.0</ele><time>2026-05-01T15:04:43.184Z</time></trkpt><trkpt lat="45.87005" lon="11.6499617"><ele>538.0</ele><time>2026-05-01T15:04:44.186Z</time></trkpt><trkpt lat="45.8699267" lon="11.6499817"><ele>531.5</ele><time>2026-05-01T15:04:45.187Z</time></trkpt><trkpt lat="45.8698" lon="11.65"><ele>525.0</ele><time>2026-05-01T15:04:46.186Z</time></trkpt><trkpt lat="45.86968" lon="11.65003"><ele>518.5</ele><time>2026-05-01T15:04:47.184Z</time></trkpt><trkpt lat="45.8695617" lon="11.6500533"><ele>512.0</ele><time>2026-05-01T15:04:48.185Z</time></trkpt><trkpt lat="45.8694533" lon="11.6500817"><ele>511.99999999999994</ele><time>2026-05-01T15:04:49.189Z</time></trkpt><trkpt lat="45.8693633" lon="11.6501117"><ele>512.0</ele><time>2026-05-01T15:04:50.185Z</time></trkpt><trkpt lat="45.8692883" lon="11.6501417"><ele>512.0</ele><time>2026-05-01T15:04:51.185Z</time></trkpt><trkpt lat="45.8692283" lon="11.6501867"><ele>512.0</ele><time>2026-05-01T15:04:52.187Z</time></trkpt><trkpt lat="45.8691583" lon="11.6502833"><ele>511.99999999999994</ele><time>2026-05-01T15:04:54.184Z</time></trkpt><trkpt lat="45.8690933" lon="11.6502517"><ele>512.0</ele><time>2026-05-01T15:04:56.185Z</time></trkpt><trkpt lat="45.8691333" lon="11.65014"><ele>512.0</ele><time>2026-05-01T15:04:58.187Z</time></trkpt><trkpt lat="45.8692133" lon="11.65011"><ele>512.0</ele><time>2026-05-01T15:04:59.185Z</time></trkpt><trkpt lat="45.869315" lon="11.65008"><ele>512.0</ele><time>2026-05-01T15:05:00.184Z</time></trkpt><trkpt lat="45.8694217" lon="11.65003"><ele>512.0</ele><time>2026-05-01T15:05:01.183Z</time></trkpt><trkpt lat="45.86954" lon="11.64998"><ele>512.0</ele><time>2026-05-01T15:05:02.184Z</time></trkpt><trkpt lat="45.8696567" lon="11.64991"><ele>512.0</ele><time>2026-05-01T15:05:03.191Z</time></trkpt><trkpt lat="45.869775" lon="11.64982"><ele>512.0</ele><time>2026-05-01T15:05:04.185Z</time></trkpt><trkpt lat="45.86989" lon="11.6497117"><ele>512.0</ele><time>2026-05-01T15:05:05.185Z</time></trkpt><trkpt lat="45.8699967" lon="11.6495983"><ele>512.0</ele><time>2026-05-01T15:05:06.186Z</time></trkpt><trkpt lat="45.8701" lon="11.6494917"><ele>512.0</ele><time>2026-05-01T15:05:07.187Z</time></trkpt><trkpt lat="45.8702067" lon="11.649385"><ele>512.0</ele><time>2026-05-01T15:05:08.191Z</time></trkpt><trkpt lat="45.870315" lon="11.649285"><ele>512.0</ele><time>2026-05-01T15:05:09.186Z</time></trkpt><trkpt lat="45.8704183" lon="11.64921"><ele>512.0</ele><time>2026-05-01T15:05:10.186Z</time></trkpt><trkpt lat="45.870525" lon="11.6491483"><ele>511.99999999999994</ele><time>2026-05-01T15:05:11.187Z</time></trkpt><trkpt lat="45.8706217" lon="11.6491017"><ele>512.0</ele><time>2026-05-01T15:05:12.188Z</time></trkpt><trkpt lat="45.8707017" lon="11.6490383"><ele>512.0</ele><time>2026-05-01T15:05:13.184Z</time></trkpt><trkpt lat="45.8707617" lon="11.6489667"><ele>512.0</ele><time>2026-05-01T15:05:14.184Z</time></trkpt><trkpt lat="45.8707933" lon="11.648865"><ele>511.99999999999994</ele><time>2026-05-01T15:05:15.187Z</time></trkpt><trkpt lat="45.8707933" lon="11.6487317"><ele>512.0</ele><time>2026-05-01T15:05:16.187Z</time></trkpt><trkpt lat="45.87076" lon="11.6485767"><ele>508.16666666666663</ele><time>2026-05-01T15:05:17.186Z</time></trkpt><trkpt lat="45.8707367" lon="11.6484333"><ele>504.3333333333333</ele><time>2026-05-01T15:05:18.184Z</time></trkpt><trkpt lat="45.8707567" lon="11.6482983"><ele>500.5</ele><time>2026-05-01T15:05:19.187Z</time></trkpt><trkpt lat="45.870785" lon="11.6481733"><ele>496.66666666666663</ele><time>2026-05-01T15:05:20.189Z</time></trkpt><trkpt lat="45.8708233" lon="11.6480783"><ele>492.8333333333333</ele><time>2026-05-01T15:05:21.184Z</time></trkpt><trkpt lat="45.870885" lon="11.6480033"><ele>489.0</ele><time>2026-05-01T15:05:22.186Z</time></trkpt><trkpt lat="45.8709767" lon="11.64795"><ele>491.0</ele><time>2026-05-01T15:05:23.186Z</time></trkpt><trkpt lat="45.871085" lon="11.6479217"><ele>493.0</ele><time>2026-05-01T15:05:24.187Z</time></trkpt><trkpt lat="45.8711817" lon="11.6478583"><ele>495.0</ele><time>2026-05-01T15:05:25.185Z</time></trkpt><trkpt lat="45.871275" lon="11.6477283"><ele>497.0</ele><time>2026-05-01T15:05:26.187Z</time></trkpt><trkpt lat="45.87136" lon="11.6476017"><ele>497.0</ele><time>2026-05-01T15:05:27.184Z</time></trkpt><trkpt lat="45.8714333" lon="11.6474817"><ele>497.00000000000006</ele><time>2026-05-01T15:05:28.184Z</time></trkpt><trkpt lat="45.8714917" lon="11.647355"><ele>497.00000000000006</ele><time>2026-05-01T15:05:29.183Z</time></trkpt><trkpt lat="45.8715383" lon="11.6472317"><ele>497.0</ele><time>2026-05-01T15:05:30.185Z</time></trkpt><trkpt lat="45.871575" lon="11.6471117"><ele>497.0</ele><time>2026-05-01T15:05:31.186Z</time></trkpt><trkpt lat="45.8716217" lon="11.6470183"><ele>492.8</ele><time>2026-05-01T15:05:32.187Z</time></trkpt><trkpt lat="45.8716883" lon="11.6469517"><ele>488.6</ele><time>2026-05-01T15:05:33.188Z</time></trkpt><trkpt lat="45.8717833" lon="11.6469117"><ele>484.40000000000003</ele><time>2026-05-01T15:05:34.183Z</time></trkpt><trkpt lat="45.8719017" lon="11.6469"><ele>480.20000000000005</ele><time>2026-05-01T15:05:35.184Z</time></trkpt><trkpt lat="45.8720183" lon="11.646905"><ele>476.0</ele><time>2026-05-01T15:05:36.184Z</time></trkpt><trkpt lat="45.8721183" lon="11.6469233"><ele>475.99999999999994</ele><time>2026-05-01T15:05:37.184Z</time></trkpt><trkpt lat="45.8722133" lon="11.6469417"><ele>476.0</ele><time>2026-05-01T15:05:38.185Z</time></trkpt><trkpt lat="45.8723" lon="11.6469683"><ele>476.0</ele><time>2026-05-01T15:05:39.188Z</time></trkpt><trkpt lat="45.8723683" lon="11.646995"><ele>476.0</ele><time>2026-05-01T15:05:40.186Z</time></trkpt><trkpt lat="45.87245" lon="11.6469867"><ele>475.99999999999994</ele><time>2026-05-01T15:05:42.184Z</time></trkpt><trkpt lat="45.8724383" lon="11.6468883"><ele>476.0</ele><time>2026-05-01T15:05:44.185Z</time></trkpt><trkpt lat="45.8723667" lon="11.6468517"><ele>476.0</ele><time>2026-05-01T15:05:45.185Z</time></trkpt><trkpt lat="45.87226" lon="11.6468333"><ele>476.0</ele><time>2026-05-01T15:05:46.185Z</time></trkpt><trkpt lat="45.87212" lon="11.6468433"><ele>476.0</ele><time>2026-05-01T15:05:47.185Z</time></trkpt><trkpt lat="45.8719783" lon="11.6468333"><ele>476.0</ele><time>2026-05-01T15:05:48.187Z</time></trkpt><trkpt lat="45.8718567" lon="11.6468133"><ele>470.6</ele><time>2026-05-01T15:05:49.186Z</time></trkpt><trkpt lat="45.87174" lon="11.646835"><ele>465.20000000000005</ele><time>2026-05-01T15:05:50.185Z</time></trkpt><trkpt lat="45.8716483" lon="11.6468367"><ele>459.79999999999995</ele><time>2026-05-01T15:05:51.185Z</time></trkpt><trkpt lat="45.87156" lon="11.6468517"><ele>454.4</ele><time>2026-05-01T15:05:52.183Z</time></trkpt><trkpt lat="45.8714833" lon="11.6468717"><ele>449.0</ele><time>2026-05-01T15:05:53.184Z</time></trkpt><trkpt lat="45.8714133" lon="11.646905"><ele>458.6</ele><time>2026-05-01T15:05:54.184Z</time></trkpt><trkpt lat="45.87137" lon="11.6470083"><ele>468.2</ele><time>2026-05-01T15:05:55.187Z</time></trkpt><trkpt lat="45.8713317" lon="11.64712"><ele>477.80000000000007</ele><time>2026-05-01T15:05:56.185Z</time></trkpt><trkpt lat="45.8712633" lon="11.647235"><ele>487.40000000000003</ele><time>2026-05-01T15:05:57.185Z</time></trkpt><trkpt lat="45.8711867" lon="11.6473417"><ele>497.0</ele><time>2026-05-01T15:05:58.186Z</time></trkpt><trkpt lat="45.8711117" lon="11.6474383"><ele>497.0</ele><time>2026-05-01T15:05:59.185Z</time></trkpt><trkpt lat="45.8710383" lon="11.64752"><ele>497.00000000000006</ele><time>2026-05-01T15:06:00.184Z</time></trkpt><trkpt lat="45.870965" lon="11.64759"><ele>497.00000000000006</ele><time>2026-05-01T15:06:01.191Z</time></trkpt><trkpt lat="45.870875" lon="11.647625"><ele>497.0</ele><time>2026-05-01T15:06:02.185Z</time></trkpt><trkpt lat="45.8707683" lon="11.647625"><ele>497.0</ele><time>2026-05-01T15:06:03.185Z</time></trkpt><trkpt lat="45.8706667" lon="11.647615"><ele>495.66666666666663</ele><time>2026-05-01T15:06:04.186Z</time></trkpt><trkpt lat="45.8705767" lon="11.6476333"><ele>494.3333333333333</ele><time>2026-05-01T15:06:05.187Z</time></trkpt><trkpt lat="45.87051" lon="11.6476933"><ele>493.0</ele><time>2026-05-01T15:06:06.185Z</time></trkpt><trkpt lat="45.87046" lon="11.647785"><ele>491.66666666666663</ele><time>2026-05-01T15:06:07.185Z</time></trkpt><trkpt lat="45.87042" lon="11.6478983"><ele>490.3333333333333</ele><time>2026-05-01T15:06:08.184Z</time></trkpt><trkpt lat="45.8703917" lon="11.6480283"><ele>489.0</ele><time>2026-05-01T15:06:09.19Z</time></trkpt><trkpt lat="45.87037" lon="11.6481533"><ele>489.0</ele><time>2026-05-01T15:06:10.185Z</time></trkpt><trkpt lat="45.87034" lon="11.6482617"><ele>489.0</ele><time>2026-05-01T15:06:11.185Z</time></trkpt><trkpt lat="45.8703083" lon="11.64836"><ele>489.0</ele><time>2026-05-01T15:06:12.185Z</time></trkpt><trkpt lat="45.8702683" lon="11.64847"><ele>489.0</ele><time>2026-05-01T15:06:13.184Z</time></trkpt><trkpt lat="45.87021" lon="11.6485633"><ele>489.0</ele><time>2026-05-01T15:06:14.185Z</time></trkpt><trkpt lat="45.8701133" lon="11.6486233"><ele>489.0</ele><time>2026-05-01T15:06:15.189Z</time></trkpt><trkpt lat="45.8700233" lon="11.6486717"><ele>488.0</ele><time>2026-05-01T15:06:16.185Z</time></trkpt><trkpt lat="45.8699133" lon="11.6486817"><ele>487.0</ele><time>2026-05-01T15:06:17.187Z</time></trkpt><trkpt lat="45.86981" lon="11.6486783"><ele>486.0</ele><time>2026-05-01T15:06:18.185Z</time></trkpt><trkpt lat="45.8697117" lon="11.648675"><ele>485.0</ele><time>2026-05-01T15:06:19.187Z</time></trkpt><trkpt lat="45.8696233" lon="11.6486967"><ele>484.0</ele><time>2026-05-01T15:06:20.185Z</time></trkpt><trkpt lat="45.869535" lon="11.6487083"><ele>484.0</ele><time>2026-05-01T15:06:21.187Z</time></trkpt><trkpt lat="45.8694467" lon="11.6487117"><ele>484.0</ele><time>2026-05-01T15:06:22.184Z</time></trkpt><trkpt lat="45.8693483" lon="11.6487267"><ele>484.0</ele><time>2026-05-01T15:06:23.185Z</time></trkpt><trkpt lat="45.8692517" lon="11.6487883"><ele>484.0</ele><time>2026-05-01T15:06:24.187Z</time></trkpt><trkpt lat="45.86916" lon="11.6488483"><ele>484.0</ele><time>2026-05-01T15:06:25.186Z</time></trkpt><trkpt lat="45.8690767" lon="11.6489117"><ele>480.33333333333337</ele><time>2026-05-01T15:06:26.185Z</time></trkpt><trkpt lat="45.8690017" lon="11.6489833"><ele>476.6666666666667</ele><time>2026-05-01T15:06:27.184Z</time></trkpt><trkpt lat="45.8689433" lon="11.64906"><ele>473.0</ele><time>2026-05-01T15:06:28.188Z</time></trkpt><trkpt lat="45.8688817" lon="11.6491267"><ele>469.33333333333337</ele><time>2026-05-01T15:06:29.186Z</time></trkpt><trkpt lat="45.86881" lon="11.6491833"><ele>465.6666666666667</ele><time>2026-05-01T15:06:30.185Z</time></trkpt><trkpt lat="45.868725" lon="11.6492167"><ele>462.0</ele><time>2026-05-01T15:06:31.183Z</time></trkpt><trkpt lat="45.8686433" lon="11.64924"><ele>462.0</ele><time>2026-05-01T15:06:32.183Z</time></trkpt><trkpt lat="45.868605" lon="11.6494067"><ele>462.00000000000006</ele><time>2026-05-01T15:06:35.185Z</time></trkpt><trkpt lat="45.8685167" lon="11.6495033"><ele>462.00000000000006</ele><time>2026-05-01T15:06:36.186Z</time></trkpt><trkpt lat="45.8684467" lon="11.6496033"><ele>462.0</ele><time>2026-05-01T15:06:37.185Z</time></trkpt><trkpt lat="45.8683967" lon="11.6496817"><ele>462.0</ele><time>2026-05-01T15:06:38.189Z</time></trkpt><trkpt lat="45.8683733" lon="11.6497767"><ele>458.8333333333333</ele><time>2026-05-01T15:06:39.187Z</time></trkpt><trkpt lat="45.868355" lon="11.6499233"><ele>455.66666666666663</ele><time>2026-05-01T15:06:41.183Z</time></trkpt><trkpt lat="45.8683583" lon="11.6500483"><ele>452.5</ele><time>2026-05-01T15:06:43.184Z</time></trkpt><trkpt lat="45.8682883" lon="11.6500817"><ele>449.3333333333333</ele><time>2026-05-01T15:06:46.186Z</time></trkpt><trkpt lat="45.8682983" lon="11.64994"><ele>446.16666666666663</ele><time>2026-05-01T15:06:48.184Z</time></trkpt><trkpt lat="45.8683183" lon="11.6498367"><ele>443.0</ele><time>2026-05-01T15:06:49.184Z</time></trkpt><trkpt lat="45.86835" lon="11.649715"><ele>442.99999999999994</ele><time>2026-05-01T15:06:50.186Z</time></trkpt><trkpt lat="45.868405" lon="11.649595"><ele>443.0</ele><time>2026-05-01T15:06:51.187Z</time></trkpt><trkpt lat="45.86846" lon="11.6494733"><ele>443.0</ele><time>2026-05-01T15:06:52.185Z</time></trkpt><trkpt lat="45.8684983" lon="11.649355"><ele>443.0</ele><time>2026-05-01T15:06:53.19Z</time></trkpt><trkpt lat="45.8685283" lon="11.6492517"><ele>442.99999999999994</ele><time>2026-05-01T15:06:54.185Z</time></trkpt><trkpt lat="45.868565" lon="11.6491583"><ele>443.0</ele><time>2026-05-01T15:06:55.184Z</time></trkpt><trkpt lat="45.8686267" lon="11.649085"><ele>446.16666666666663</ele><time>2026-05-01T15:06:56.186Z</time></trkpt><trkpt lat="45.8687" lon="11.64902"><ele>449.3333333333333</ele><time>2026-05-01T15:06:57.183Z</time></trkpt><trkpt lat="45.8687733" lon="11.6489483"><ele>452.5</ele><time>2026-05-01T15:06:58.184Z</time></trkpt><trkpt lat="45.868825" lon="11.6488433"><ele>455.66666666666663</ele><time>2026-05-01T15:06:59.186Z</time></trkpt><trkpt lat="45.86887" lon="11.6487283"><ele>458.8333333333333</ele><time>2026-05-01T15:07:00.188Z</time></trkpt><trkpt lat="45.8689333" lon="11.6486433"><ele>462.0</ele><time>2026-05-01T15:07:01.186Z</time></trkpt><trkpt lat="45.8690017" lon="11.6485517"><ele>458.8</ele><time>2026-05-01T15:07:02.187Z</time></trkpt><trkpt lat="45.869075" lon="11.6484633"><ele>455.6</ele><time>2026-05-01T15:07:03.183Z</time></trkpt><trkpt lat="45.8691467" lon="11.6483783"><ele>452.40000000000003</ele><time>2026-05-01T15:07:04.183Z</time></trkpt><trkpt lat="45.86922" lon="11.648305"><ele>449.20000000000005</ele><time>2026-05-01T15:07:05.187Z</time></trkpt><trkpt lat="45.8693" lon="11.6482517"><ele>446.0</ele><time>2026-05-01T15:07:06.188Z</time></trkpt><trkpt lat="45.8693883" lon="11.6482283"><ele>445.99999999999994</ele><time>2026-05-01T15:07:07.185Z</time></trkpt><trkpt lat="45.869475" lon="11.648245"><ele>446.0</ele><time>2026-05-01T15:07:08.186Z</time></trkpt><trkpt lat="45.8695533" lon="11.6482683"><ele>446.0</ele><time>2026-05-01T15:07:09.185Z</time></trkpt><trkpt lat="45.8696233" lon="11.6482933"><ele>446.0</ele><time>2026-05-01T15:07:10.183Z</time></trkpt><trkpt lat="45.869715" lon="11.648355"><ele>445.99999999999994</ele><time>2026-05-01T15:07:12.185Z</time></trkpt><trkpt lat="45.8697733" lon="11.648315"><ele>446.0</ele><time>2026-05-01T15:07:14.185Z</time></trkpt><trkpt lat="45.8697633" lon="11.6482217"><ele>446.0</ele><time>2026-05-01T15:07:16.185Z</time></trkpt><trkpt lat="45.8696983" lon="11.6481633"><ele>446.0</ele><time>2026-05-01T15:07:17.185Z</time></trkpt><trkpt lat="45.8695867" lon="11.6481583"><ele>446.0</ele><time>2026-05-01T15:07:18.184Z</time></trkpt><trkpt lat="45.8694833" lon="11.648145"><ele>446.0</ele><time>2026-05-01T15:07:19.185Z</time></trkpt><trkpt lat="45.8693817" lon="11.64814"><ele>446.0</ele><time>2026-05-01T15:07:20.184Z</time></trkpt><trkpt lat="45.8692783" lon="11.6481383"><ele>441.6</ele><time>2026-05-01T15:07:21.188Z</time></trkpt><trkpt lat="45.8691817" lon="11.64815"><ele>437.20000000000005</ele><time>2026-05-01T15:07:22.185Z</time></trkpt><trkpt lat="45.86909" lon="11.6481833"><ele>432.79999999999995</ele><time>2026-05-01T15:07:23.186Z</time></trkpt><trkpt lat="45.8689917" lon="11.648235"><ele>428.4</ele><time>2026-05-01T15:07:24.187Z</time></trkpt><trkpt lat="45.8688867" lon="11.648305"><ele>424.0</ele><time>2026-05-01T15:07:25.186Z</time></trkpt><trkpt lat="45.8687867" lon="11.6483917"><ele>424.0</ele><time>2026-05-01T15:07:26.184Z</time></trkpt><trkpt lat="45.8686917" lon="11.6484833"><ele>424.0</ele><time>2026-05-01T15:07:27.185Z</time></trkpt><trkpt lat="45.8686" lon="11.6485733"><ele>424.0</ele><time>2026-05-01T15:07:28.185Z</time></trkpt><trkpt lat="45.8685067" lon="11.6486517"><ele>424.0</ele><time>2026-05-01T15:07:29.188Z</time></trkpt><trkpt lat="45.868415" lon="11.648715"><ele>424.0</ele><time>2026-05-01T15:07:30.186Z</time></trkpt><trkpt lat="45.8683267" lon="11.6487917"><ele>422.4</ele><time>2026-05-01T15:07:31.184Z</time></trkpt><trkpt lat="45.8682433" lon="11.6488767"><ele>420.79999999999995</ele><time>2026-05-01T15:07:32.185Z</time></trkpt><trkpt lat="45.8681667" lon="11.6489667"><ele>419.20000000000005</ele><time>2026-05-01T15:07:33.186Z</time></trkpt><trkpt lat="45.868095" lon="11.6490633"><ele>417.6</ele><time>2026-05-01T15:07:34.184Z</time></trkpt><trkpt lat="45.8680233" lon="11.6491583"><ele>416.0</ele><time>2026-05-01T15:07:35.186Z</time></trkpt><trkpt lat="45.86795" lon="11.6492483"><ele>415.99999999999994</ele><time>2026-05-01T15:07:36.185Z</time></trkpt><trkpt lat="45.867885" lon="11.64934"><ele>416.0</ele><time>2026-05-01T15:07:37.185Z</time></trkpt><trkpt lat="45.8678433" lon="11.6494517"><ele>416.0</ele><time>2026-05-01T15:07:38.188Z</time></trkpt><trkpt lat="45.8678217" lon="11.649575"><ele>416.0</ele><time>2026-05-01T15:07:39.189Z</time></trkpt><trkpt lat="45.8678117" lon="11.6497033"><ele>415.99999999999994</ele><time>2026-05-01T15:07:40.185Z</time></trkpt><trkpt lat="45.8678017" lon="11.649815"><ele>416.0</ele><time>2026-05-01T15:07:41.185Z</time></trkpt><trkpt lat="45.8677767" lon="11.6499"><ele>420.49999999999994</ele><time>2026-05-01T15:07:42.183Z</time></trkpt><trkpt lat="45.8677183" lon="11.6499917"><ele>425.0</ele><time>2026-05-01T15:07:44.184Z</time></trkpt><trkpt lat="45.8676517" lon="11.6500483"><ele>429.5</ele><time>2026-05-01T15:07:47.184Z</time></trkpt><trkpt lat="45.8676417" lon="11.649955"><ele>434.0</ele><time>2026-05-01T15:07:51.187Z</time></trkpt><trkpt lat="45.8677283" lon="11.649865"><ele>438.49999999999994</ele><time>2026-05-01T15:07:53.187Z</time></trkpt><trkpt lat="45.8677717" lon="11.649785"><ele>443.0</ele><time>2026-05-01T15:07:54.184Z</time></trkpt><trkpt lat="45.8677883" lon="11.6496717"><ele>443.0</ele><time>2026-05-01T15:07:55.187Z</time></trkpt><trkpt lat="45.8677917" lon="11.6495433"><ele>442.99999999999994</ele><time>2026-05-01T15:07:56.183Z</time></trkpt><trkpt lat="45.8678083" lon="11.6494233"><ele>442.99999999999994</ele><time>2026-05-01T15:07:57.185Z</time></trkpt><trkpt lat="45.8678367" lon="11.6493017"><ele>443.0</ele><time>2026-05-01T15:07:58.187Z</time></trkpt><trkpt lat="45.8678833" lon="11.6491883"><ele>443.0</ele><time>2026-05-01T15:07:59.185Z</time></trkpt><trkpt lat="45.8679433" lon="11.64908"><ele>437.59999999999997</ele><time>2026-05-01T15:08:00.184Z</time></trkpt><trkpt lat="45.8680083" lon="11.6489783"><ele>432.19999999999993</ele><time>2026-05-01T15:08:01.187Z</time></trkpt><trkpt lat="45.8680733" lon="11.64888"><ele>426.8</ele><time>2026-05-01T15:08:02.185Z</time></trkpt><trkpt lat="45.86813" lon="11.6487833"><ele>421.4</ele><time>2026-05-01T15:08:03.187Z</time></trkpt><trkpt lat="45.868185" lon="11.6486833"><ele>416.0</ele><time>2026-05-01T15:08:04.183Z</time></trkpt><trkpt lat="45.8682417" lon="11.6485767"><ele>417.6</ele><time>2026-05-01T15:08:05.186Z</time></trkpt><trkpt lat="45.8683033" lon="11.6484717"><ele>419.20000000000005</ele><time>2026-05-01T15:08:06.186Z</time></trkpt><trkpt lat="45.8683667" lon="11.6483667"><ele>420.79999999999995</ele><time>2026-05-01T15:08:07.188Z</time></trkpt><trkpt lat="45.8684233" lon="11.6482583"><ele>422.4</ele><time>2026-05-01T15:08:08.185Z</time></trkpt><trkpt lat="45.86847" lon="11.6481467"><ele>424.0</ele><time>2026-05-01T15:08:09.184Z</time></trkpt><trkpt lat="45.8685133" lon="11.6480233"><ele>424.00000000000006</ele><time>2026-05-01T15:08:10.184Z</time></trkpt><trkpt lat="45.8685583" lon="11.6479033"><ele>424.0</ele><time>2026-05-01T15:08:11.185Z</time></trkpt><trkpt lat="45.8686" lon="11.6477917"><ele>424.0</ele><time>2026-05-01T15:08:12.186Z</time></trkpt><trkpt lat="45.868635" lon="11.64768"><ele>424.0</ele><time>2026-05-01T15:08:13.188Z</time></trkpt><trkpt lat="45.8686833" lon="11.6475833"><ele>424.00000000000006</ele><time>2026-05-01T15:08:14.187Z</time></trkpt><trkpt lat="45.8687583" lon="11.6475183"><ele>424.0</ele><time>2026-05-01T15:08:15.187Z</time></trkpt><trkpt lat="45.86886" lon="11.647485"><ele>420.2</ele><time>2026-05-01T15:08:16.184Z</time></trkpt><trkpt lat="45.868965" lon="11.647475"><ele>416.4</ele><time>2026-05-01T15:08:17.185Z</time></trkpt><trkpt lat="45.8690617" lon="11.64746"><ele>412.6</ele><time>2026-05-01T15:08:18.185Z</time></trkpt><trkpt lat="45.8691517" lon="11.647445"><ele>408.8</ele><time>2026-05-01T15:08:19.185Z</time></trkpt><trkpt lat="45.86924" lon="11.6474367"><ele>405.0</ele><time>2026-05-01T15:08:20.187Z</time></trkpt><trkpt lat="45.8693217" lon="11.6474433"><ele>405.0</ele><time>2026-05-01T15:08:21.19Z</time></trkpt><trkpt lat="45.8693917" lon="11.6474533"><ele>405.0</ele><time>2026-05-01T15:08:22.186Z</time></trkpt><trkpt lat="45.869495" lon="11.6474817"><ele>405.0</ele><time>2026-05-01T15:08:24.185Z</time></trkpt><trkpt lat="45.8695483" lon="11.6474283"><ele>405.0</ele><time>2026-05-01T15:08:26.187Z</time></trkpt><trkpt lat="45.8695067" lon="11.64734"><ele>405.0</ele><time>2026-05-01T15:08:28.185Z</time></trkpt><trkpt lat="45.86941" lon="11.6473283"><ele>405.0</ele><time>2026-05-01T15:08:29.186Z</time></trkpt><trkpt lat="45.8692933" lon="11.6473267"><ele>399.25</ele><time>2026-05-01T15:08:30.186Z</time></trkpt><trkpt lat="45.8691967" lon="11.6473017"><ele>393.5</ele><time>2026-05-01T15:08:31.185Z</time></trkpt><trkpt lat="45.869065" lon="11.647315"><ele>387.75</ele><time>2026-05-01T15:08:32.186Z</time></trkpt><trkpt lat="45.8689483" lon="11.6473233"><ele>382.0</ele><time>2026-05-01T15:08:33.186Z</time></trkpt><trkpt lat="45.8688417" lon="11.647325"><ele>382.0</ele><time>2026-05-01T15:08:34.185Z</time></trkpt><trkpt lat="45.8687533" lon="11.6473217"><ele>382.0</ele><time>2026-05-01T15:08:35.189Z</time></trkpt><trkpt lat="45.86867" lon="11.6473233"><ele>382.0</ele><time>2026-05-01T15:08:36.183Z</time></trkpt><trkpt lat="45.8685967" lon="11.6473183"><ele>382.0</ele><time>2026-05-01T15:08:37.187Z</time></trkpt><trkpt lat="45.8685333" lon="11.64733"><ele>382.0</ele><time>2026-05-01T15:08:38.188Z</time></trkpt><trkpt lat="45.8684267" lon="11.6474433"><ele>382.0</ele><time>2026-05-01T15:08:40.185Z</time></trkpt><trkpt lat="45.8683833" lon="11.6475517"><ele>381.0</ele><time>2026-05-01T15:08:41.186Z</time></trkpt><trkpt lat="45.86833" lon="11.6476517"><ele>380.0</ele><time>2026-05-01T15:08:42.185Z</time></trkpt><trkpt lat="45.8682667" lon="11.6477583"><ele>379.0</ele><time>2026-05-01T15:08:43.188Z</time></trkpt><trkpt lat="45.868195" lon="11.6478733"><ele>378.0</ele><time>2026-05-01T15:08:44.185Z</time></trkpt><trkpt lat="45.8681167" lon="11.6479833"><ele>377.0</ele><time>2026-05-01T15:08:45.184Z</time></trkpt><trkpt lat="45.868045" lon="11.6480967"><ele>377.0</ele><time>2026-05-01T15:08:46.186Z</time></trkpt><trkpt lat="45.86797" lon="11.6482017"><ele>377.0</ele><time>2026-05-01T15:08:47.185Z</time></trkpt><trkpt lat="45.8678967" lon="11.6483017"><ele>377.0</ele><time>2026-05-01T15:08:48.188Z</time></trkpt><trkpt lat="45.8678283" lon="11.648405"><ele>377.0</ele><time>2026-05-01T15:08:49.187Z</time></trkpt><trkpt lat="45.8677667" lon="11.6485033"><ele>377.0</ele><time>2026-05-01T15:08:50.185Z</time></trkpt><trkpt lat="45.867705" lon="11.6485967"><ele>371.83333333333337</ele><time>2026-05-01T15:08:51.187Z</time></trkpt><trkpt lat="45.8676433" lon="11.6486867"><ele>366.6666666666667</ele><time>2026-05-01T15:08:52.185Z</time></trkpt><trkpt lat="45.8675867" lon="11.648775"><ele>361.5</ele><time>2026-05-01T15:08:53.185Z</time></trkpt><trkpt lat="45.8675333" lon="11.648865"><ele>356.3333333333333</ele><time>2026-05-01T15:08:54.186Z</time></trkpt><trkpt lat="45.8674867" lon="11.648965"><ele>351.16666666666663</ele><time>2026-05-01T15:08:55.185Z</time></trkpt><trkpt lat="45.8674533" lon="11.649075"><ele>346.0</ele><time>2026-05-01T15:08:56.184Z</time></trkpt><trkpt lat="45.8674317" lon="11.64918"><ele>346.0</ele><time>2026-05-01T15:08:57.186Z</time></trkpt><trkpt lat="45.8674067" lon="11.6492783"><ele>346.0</ele><time>2026-05-01T15:08:58.187Z</time></trkpt><trkpt lat="45.8673583" lon="11.649345"><ele>346.0</ele><time>2026-05-01T15:08:59.186Z</time></trkpt><trkpt lat="45.8672517" lon="11.6494083"><ele>346.0</ele><time>2026-05-01T15:09:01.185Z</time></trkpt><trkpt lat="45.86715" lon="11.64946"><ele>346.0</ele><time>2026-05-01T15:09:03.186Z</time></trkpt><trkpt lat="45.86712" lon="11.6495433"><ele>346.0</ele><time>2026-05-01T15:09:04.188Z</time></trkpt><trkpt lat="45.8671033" lon="11.6496617"><ele>351.66666666666663</ele><time>2026-05-01T15:09:05.183Z</time></trkpt><trkpt lat="45.86709" lon="11.6497883"><ele>357.3333333333333</ele><time>2026-05-01T15:09:06.187Z</time></trkpt><trkpt lat="45.8670767" lon="11.6499033"><ele>363.0</ele><time>2026-05-01T15:09:07.189Z</time></trkpt><trkpt lat="45.8670717" lon="11.650015"><ele>368.6666666666667</ele><time>2026-05-01T15:09:08.184Z</time></trkpt><trkpt lat="45.86707" lon="11.6501167"><ele>374.33333333333337</ele><time>2026-05-01T15:09:09.185Z</time></trkpt><trkpt lat="45.8670083" lon="11.6502533"><ele>380.0</ele><time>2026-05-01T15:09:11.185Z</time></trkpt><trkpt lat="45.8669467" lon="11.6502817"><ele>380.0</ele><time>2026-05-01T15:09:12.183Z</time></trkpt><trkpt lat="45.8668617" lon="11.6502867"><ele>380.0</ele><time>2026-05-01T15:09:13.187Z</time></trkpt><trkpt lat="45.8667867" lon="11.6503017"><ele>380.0</ele><time>2026-05-01T15:09:14.187Z</time></trkpt><trkpt lat="45.8666983" lon="11.650295"><ele>380.0</ele><time>2026-05-01T15:09:15.186Z</time></trkpt><trkpt lat="45.866615" lon="11.6502833"><ele>380.0</ele><time>2026-05-01T15:09:16.188Z</time></trkpt><trkpt lat="45.8665417" lon="11.6502983"><ele>380.0</ele><time>2026-05-01T15:09:17.186Z</time></trkpt><trkpt lat="45.8664767" lon="11.6503767"><ele>377.0</ele><time>2026-05-01T15:09:18.194Z</time></trkpt><trkpt lat="45.866405" lon="11.6504767"><ele>374.0</ele><time>2026-05-01T15:09:19.185Z</time></trkpt><trkpt lat="45.8663317" lon="11.65058"><ele>371.0</ele><time>2026-05-01T15:09:20.186Z</time></trkpt><trkpt lat="45.866265" lon="11.6506717"><ele>368.0</ele><time>2026-05-01T15:09:21.186Z</time></trkpt><trkpt lat="45.8662083" lon="11.6507633"><ele>365.0</ele><time>2026-05-01T15:09:22.186Z</time></trkpt><trkpt lat="45.866145" lon="11.6508267"><ele>365.0</ele><time>2026-05-01T15:09:23.183Z</time></trkpt><trkpt lat="45.8660667" lon="11.6508483"><ele>365.0</ele><time>2026-05-01T15:09:24.185Z</time></trkpt><trkpt lat="45.8659683" lon="11.6508483"><ele>365.0</ele><time>2026-05-01T15:09:25.187Z</time></trkpt><trkpt lat="45.86588" lon="11.6509017"><ele>365.0</ele><time>2026-05-01T15:09:26.185Z</time></trkpt><trkpt lat="45.8657883" lon="11.6509567"><ele>365.0</ele><time>2026-05-01T15:09:27.192Z</time></trkpt><trkpt lat="45.8656967" lon="11.6510017"><ele>365.0</ele><time>2026-05-01T15:09:28.185Z</time></trkpt><trkpt lat="45.865605" lon="11.6510367"><ele>365.0</ele><time>2026-05-01T15:09:29.188Z</time></trkpt><trkpt lat="45.8655233" lon="11.65107"><ele>365.0</ele><time>2026-05-01T15:09:30.184Z</time></trkpt><trkpt lat="45.865455" lon="11.651105"><ele>365.0</ele><time>2026-05-01T15:09:31.184Z</time></trkpt><trkpt lat="45.865395" lon="11.651135"><ele>365.0</ele><time>2026-05-01T15:09:32.187Z</time></trkpt><trkpt lat="45.8653383" lon="11.6512683"><ele>365.0</ele><time>2026-05-01T15:09:34.186Z</time></trkpt><trkpt lat="45.86534" lon="11.6513667"><ele>365.0</ele><time>2026-05-01T15:09:35.187Z</time></trkpt><trkpt lat="45.86534" lon="11.65146"><ele>365.0</ele><time>2026-05-01T15:09:36.187Z</time></trkpt><trkpt lat="45.8652633" lon="11.651545"><ele>365.0</ele><time>2026-05-01T15:09:38.185Z</time></trkpt><trkpt lat="45.865145" lon="11.65153"><ele>365.0</ele><time>2026-05-01T15:09:40.188Z</time></trkpt><trkpt lat="45.8650767" lon="11.6515233"><ele>365.0</ele><time>2026-05-01T15:09:41.184Z</time></trkpt><trkpt lat="45.8650083" lon="11.651535"><ele>365.0</ele><time>2026-05-01T15:09:42.185Z</time></trkpt><trkpt lat="45.8649433" lon="11.6515717"><ele>359.83333333333337</ele><time>2026-05-01T15:09:43.187Z</time></trkpt><trkpt lat="45.8648867" lon="11.65163"><ele>354.6666666666667</ele><time>2026-05-01T15:09:44.186Z</time></trkpt><trkpt lat="45.864825" lon="11.6516733"><ele>349.5</ele><time>2026-05-01T15:09:45.189Z</time></trkpt><trkpt lat="45.8647083" lon="11.6516983"><ele>344.3333333333333</ele><time>2026-05-01T15:09:47.186Z</time></trkpt><trkpt lat="45.864595" lon="11.651695"><ele>339.16666666666663</ele><time>2026-05-01T15:09:49.185Z</time></trkpt><trkpt lat="45.864535" lon="11.6517333"><ele>334.0</ele><time>2026-05-01T15:09:50.185Z</time></trkpt><trkpt lat="45.86448" lon="11.65179"><ele>334.0</ele><time>2026-05-01T15:09:51.185Z</time></trkpt><trkpt lat="45.8644417" lon="11.6518767"><ele>334.0</ele><time>2026-05-01T15:09:52.185Z</time></trkpt><trkpt lat="45.8644117" lon="11.65196"><ele>334.0</ele><time>2026-05-01T15:09:53.184Z</time></trkpt><trkpt lat="45.8643617" lon="11.6521067"><ele>334.0</ele><time>2026-05-01T15:09:55.184Z</time></trkpt><trkpt lat="45.8642633" lon="11.6521483"><ele>334.0</ele><time>2026-05-01T15:09:57.186Z</time></trkpt><trkpt lat="45.8641517" lon="11.65217"><ele>332.66666666666663</ele><time>2026-05-01T15:09:59.186Z</time></trkpt><trkpt lat="45.8640733" lon="11.6522583"><ele>331.3333333333333</ele><time>2026-05-01T15:10:01.187Z</time></trkpt><trkpt lat="45.8640283" lon="11.652355"><ele>330.0</ele><time>2026-05-01T15:10:03.184Z</time></trkpt><trkpt lat="45.863965" lon="11.65231"><ele>328.6666666666667</ele><time>2026-05-01T15:10:06.186Z</time></trkpt><trkpt lat="45.8640433" lon="11.6521917"><ele>327.33333333333337</ele><time>2026-05-01T15:10:08.185Z</time></trkpt><trkpt lat="45.8641" lon="11.65213"><ele>326.0</ele><time>2026-05-01T15:10:09.185Z</time></trkpt><trkpt lat="45.86417" lon="11.6520833"><ele>326.0</ele><time>2026-05-01T15:10:10.188Z</time></trkpt><trkpt lat="45.8642417" lon="11.6520467"><ele>326.0</ele><time>2026-05-01T15:10:11.186Z</time></trkpt><trkpt lat="45.864305" lon="11.6520083"><ele>326.0</ele><time>2026-05-01T15:10:12.187Z</time></trkpt><trkpt lat="45.8643467" lon="11.65194"><ele>326.0</ele><time>2026-05-01T15:10:13.186Z</time></trkpt><trkpt lat="45.8643783" lon="11.6518383"><ele>326.0</ele><time>2026-05-01T15:10:14.184Z</time></trkpt><trkpt lat="45.8644033" lon="11.65173"><ele>326.0</ele><time>2026-05-01T15:10:15.185Z</time></trkpt><trkpt lat="45.8644317" lon="11.65163"><ele>326.0</ele><time>2026-05-01T15:10:16.184Z</time></trkpt><trkpt lat="45.8644833" lon="11.651555"><ele>327.33333333333337</ele><time>2026-05-01T15:10:17.185Z</time></trkpt><trkpt lat="45.8645583" lon="11.6515067"><ele>328.6666666666667</ele><time>2026-05-01T15:10:18.186Z</time></trkpt><trkpt lat="45.864645" lon="11.6514517"><ele>330.0</ele><time>2026-05-01T15:10:19.188Z</time></trkpt><trkpt lat="45.864735" lon="11.6514133"><ele>331.3333333333333</ele><time>2026-05-01T15:10:20.183Z</time></trkpt><trkpt lat="45.86482" lon="11.651375"><ele>332.66666666666663</ele><time>2026-05-01T15:10:21.184Z</time></trkpt><trkpt lat="45.864895" lon="11.6513383"><ele>334.0</ele><time>2026-05-01T15:10:22.186Z</time></trkpt><trkpt lat="45.8649683" lon="11.65132"><ele>334.0</ele><time>2026-05-01T15:10:23.186Z</time></trkpt><trkpt lat="45.865035" lon="11.6513183"><ele>334.0</ele><time>2026-05-01T15:10:24.188Z</time></trkpt><trkpt lat="45.86513" lon="11.65126"><ele>334.0</ele><time>2026-05-01T15:10:26.185Z</time></trkpt><trkpt lat="45.8651667" lon="11.65117"><ele>334.0</ele><time>2026-05-01T15:10:27.185Z</time></trkpt><trkpt lat="45.8651917" lon="11.6510767"><ele>334.0</ele><time>2026-05-01T15:10:28.185Z</time></trkpt><trkpt lat="45.8652667" lon="11.6509267"><ele>334.0</ele><time>2026-05-01T15:10:30.184Z</time></trkpt><trkpt lat="45.8653317" lon="11.6508917"><ele>331.5</ele><time>2026-05-01T15:10:31.186Z</time></trkpt><trkpt lat="45.865415" lon="11.6508883"><ele>329.0</ele><time>2026-05-01T15:10:32.186Z</time></trkpt><trkpt lat="45.8655" lon="11.6508717"><ele>326.5</ele><time>2026-05-01T15:10:33.187Z</time></trkpt><trkpt lat="45.8655783" lon="11.6508267"><ele>324.0</ele><time>2026-05-01T15:10:34.185Z</time></trkpt><trkpt lat="45.8656517" lon="11.65077"><ele>321.5</ele><time>2026-05-01T15:10:35.184Z</time></trkpt><trkpt lat="45.8657233" lon="11.6507283"><ele>319.0</ele><time>2026-05-01T15:10:36.188Z</time></trkpt><trkpt lat="45.8658033" lon="11.6506967"><ele>319.0</ele><time>2026-05-01T15:10:37.183Z</time></trkpt><trkpt lat="45.8658717" lon="11.6506217"><ele>319.0</ele><time>2026-05-01T15:10:38.186Z</time></trkpt><trkpt lat="45.865935" lon="11.6505367"><ele>319.0</ele><time>2026-05-01T15:10:39.185Z</time></trkpt><trkpt lat="45.8660017" lon="11.650445"><ele>319.0</ele><time>2026-05-01T15:10:40.187Z</time></trkpt><trkpt lat="45.866065" lon="11.6503483"><ele>319.0</ele><time>2026-05-01T15:10:41.185Z</time></trkpt><trkpt lat="45.866145" lon="11.65026"><ele>319.16666666666663</ele><time>2026-05-01T15:10:42.185Z</time></trkpt><trkpt lat="45.866205" lon="11.650145"><ele>319.3333333333333</ele><time>2026-05-01T15:10:43.183Z</time></trkpt><trkpt lat="45.8662467" lon="11.650035"><ele>319.5</ele><time>2026-05-01T15:10:44.183Z</time></trkpt><trkpt lat="45.8662933" lon="11.6499433"><ele>319.6666666666667</ele><time>2026-05-01T15:10:45.184Z</time></trkpt><trkpt lat="45.8663583" lon="11.64988"><ele>319.83333333333337</ele><time>2026-05-01T15:10:46.186Z</time></trkpt><trkpt lat="45.86644" lon="11.6498567"><ele>320.0</ele><time>2026-05-01T15:10:47.185Z</time></trkpt><trkpt lat="45.8665117" lon="11.6498233"><ele>320.0</ele><time>2026-05-01T15:10:48.184Z</time></trkpt><trkpt lat="45.8666017" lon="11.6497233"><ele>320.0</ele><time>2026-05-01T15:10:50.183Z</time></trkpt><trkpt lat="45.8665883" lon="11.6495333"><ele>320.0</ele><time>2026-05-01T15:10:52.186Z</time></trkpt><trkpt lat="45.8665783" lon="11.6494283"><ele>320.0</ele><time>2026-05-01T15:10:53.185Z</time></trkpt><trkpt lat="45.8665783" lon="11.649335"><ele>320.0</ele><time>2026-05-01T15:10:54.186Z</time></trkpt><trkpt lat="45.8665883" lon="11.6492417"><ele>324.33333333333337</ele><time>2026-05-01T15:10:55.183Z</time></trkpt><trkpt lat="45.866615" lon="11.6491583"><ele>328.6666666666667</ele><time>2026-05-01T15:10:56.186Z</time></trkpt><trkpt lat="45.866665" lon="11.6490833"><ele>333.0</ele><time>2026-05-01T15:10:57.187Z</time></trkpt><trkpt lat="45.8667317" lon="11.6490233"><ele>337.3333333333333</ele><time>2026-05-01T15:10:58.184Z</time></trkpt><trkpt lat="45.866805" lon="11.6489567"><ele>341.66666666666663</ele><time>2026-05-01T15:10:59.186Z</time></trkpt><trkpt lat="45.866885" lon="11.6489"><ele>346.0</ele><time>2026-05-01T15:11:00.185Z</time></trkpt><trkpt lat="45.86696" lon="11.6488667"><ele>346.0</ele><time>2026-05-01T15:11:01.189Z</time></trkpt><trkpt lat="45.8670233" lon="11.6488233"><ele>346.0</ele><time>2026-05-01T15:11:02.186Z</time></trkpt><trkpt lat="45.867085" lon="11.6486783"><ele>346.0</ele><time>2026-05-01T15:11:04.185Z</time></trkpt><trkpt lat="45.8670933" lon="11.64857"><ele>346.0</ele><time>2026-05-01T15:11:05.183Z</time></trkpt><trkpt lat="45.8671017" lon="11.6484717"><ele>346.0</ele><time>2026-05-01T15:11:06.189Z</time></trkpt><trkpt lat="45.867115" lon="11.6483633"><ele>346.0</ele><time>2026-05-01T15:11:07.185Z</time></trkpt><trkpt lat="45.86716" lon="11.6482733"><ele>340.3333333333333</ele><time>2026-05-01T15:11:08.185Z</time></trkpt><trkpt lat="45.86723" lon="11.648205"><ele>334.66666666666663</ele><time>2026-05-01T15:11:09.187Z</time></trkpt><trkpt lat="45.8672817" lon="11.648135"><ele>329.0</ele><time>2026-05-01T15:11:10.187Z</time></trkpt><trkpt lat="45.8673133" lon="11.6480517"><ele>323.3333333333333</ele><time>2026-05-01T15:11:11.185Z</time></trkpt><trkpt lat="45.86732" lon="11.6479383"><ele>317.6666666666667</ele><time>2026-05-01T15:11:12.184Z</time></trkpt><trkpt lat="45.8673267" lon="11.647805"><ele>312.0</ele><time>2026-05-01T15:11:13.186Z</time></trkpt><trkpt lat="45.867355" lon="11.6476883"><ele>306.5</ele><time>2026-05-01T15:11:14.186Z</time></trkpt><trkpt lat="45.8673833" lon="11.6475783"><ele>301.0</ele><time>2026-05-01T15:11:15.187Z</time></trkpt><trkpt lat="45.8673883" lon="11.647475"><ele>295.5</ele><time>2026-05-01T15:11:16.185Z</time></trkpt><trkpt lat="45.8673767" lon="11.64737"><ele>290.0</ele><time>2026-05-01T15:11:17.187Z</time></trkpt><trkpt lat="45.867375" lon="11.6472683"><ele>284.5</ele><time>2026-05-01T15:11:18.186Z</time></trkpt><trkpt lat="45.8674" lon="11.6471033"><ele>279.0</ele><time>2026-05-01T15:11:20.185Z</time></trkpt><trkpt lat="45.86743" lon="11.647005"><ele>279.0</ele><time>2026-05-01T15:11:22.185Z</time></trkpt><trkpt lat="45.867385" lon="11.6469383"><ele>279.0</ele><time>2026-05-01T15:11:24.185Z</time></trkpt><trkpt lat="45.86728" lon="11.6470233"><ele>279.0</ele><time>2026-05-01T15:11:26.188Z</time></trkpt><trkpt lat="45.86725" lon="11.6471167"><ele>279.0</ele><time>2026-05-01T15:11:27.19Z</time></trkpt><trkpt lat="45.8672383" lon="11.6472217"><ele>279.0</ele><time>2026-05-01T15:11:28.187Z</time></trkpt><trkpt lat="45.8672633" lon="11.6473517"><ele>279.0</ele><time>2026-05-01T15:11:29.185Z</time></trkpt><trkpt lat="45.867285" lon="11.6474667"><ele>278.99999999999994</ele><time>2026-05-01T15:11:30.188Z</time></trkpt><trkpt lat="45.86727" lon="11.6475683"><ele>279.0</ele><time>2026-05-01T15:11:31.186Z</time></trkpt><trkpt lat="45.8672283" lon="11.6476667"><ele>279.0</ele><time>2026-05-01T15:11:32.187Z</time></trkpt><trkpt lat="45.86719" lon="11.6477583"><ele>279.0</ele><time>2026-05-01T15:11:33.186Z</time></trkpt><trkpt lat="45.8671767" lon="11.6478667"><ele>279.0</ele><time>2026-05-01T15:11:34.184Z</time></trkpt><trkpt lat="45.8671733" lon="11.647975"><ele>278.99999999999994</ele><time>2026-05-01T15:11:35.186Z</time></trkpt><trkpt lat="45.8671633" lon="11.6480733"><ele>279.0</ele><time>2026-05-01T15:11:36.186Z</time></trkpt><trkpt lat="45.8671217" lon="11.6481667"><ele>284.5</ele><time>2026-05-01T15:11:37.188Z</time></trkpt><trkpt lat="45.8670517" lon="11.6482533"><ele>290.0</ele><time>2026-05-01T15:11:38.186Z</time></trkpt><trkpt lat="45.867" lon="11.6483483"><ele>295.5</ele><time>2026-05-01T15:11:39.188Z</time></trkpt><trkpt lat="45.8669667" lon="11.64845"><ele>301.0</ele><time>2026-05-01T15:11:40.187Z</time></trkpt><trkpt lat="45.8669367" lon="11.64855"><ele>306.5</ele><time>2026-05-01T15:11:41.185Z</time></trkpt><trkpt lat="45.86689" lon="11.64865"><ele>312.0</ele><time>2026-05-01T15:11:42.187Z</time></trkpt><trkpt lat="45.8668233" lon="11.64873"><ele>305.5</ele><time>2026-05-01T15:11:43.186Z</time></trkpt><trkpt lat="45.86675" lon="11.6487933"><ele>299.0</ele><time>2026-05-01T15:11:44.187Z</time></trkpt><trkpt lat="45.86667" lon="11.648835"><ele>292.5</ele><time>2026-05-01T15:11:45.186Z</time></trkpt><trkpt lat="45.8665917" lon="11.6488617"><ele>286.0</ele><time>2026-05-01T15:11:46.187Z</time></trkpt><trkpt lat="45.8665217" lon="11.6488867"><ele>279.5</ele><time>2026-05-01T15:11:47.186Z</time></trkpt><trkpt lat="45.8664617" lon="11.6489183"><ele>273.0</ele><time>2026-05-01T15:11:48.185Z</time></trkpt><trkpt lat="45.866405" lon="11.6489683"><ele>273.0</ele><time>2026-05-01T15:11:49.184Z</time></trkpt><trkpt lat="45.866365" lon="11.6490467"><ele>273.0</ele><time>2026-05-01T15:11:50.185Z</time></trkpt><trkpt lat="45.8663283" lon="11.649135"><ele>273.0</ele><time>2026-05-01T15:11:51.187Z</time></trkpt><trkpt lat="45.8663317" lon="11.64926"><ele>273.0</ele><time>2026-05-01T15:11:52.186Z</time></trkpt><trkpt lat="45.866305" lon="11.6493717"><ele>273.0</ele><time>2026-05-01T15:11:53.185Z</time></trkpt><trkpt lat="45.8662533" lon="11.649445"><ele>273.0</ele><time>2026-05-01T15:11:54.187Z</time></trkpt><trkpt lat="45.866185" lon="11.6494717"><ele>270.8333333333333</ele><time>2026-05-01T15:11:55.185Z</time></trkpt><trkpt lat="45.8661133" lon="11.6494967"><ele>268.6666666666667</ele><time>2026-05-01T15:11:56.184Z</time></trkpt><trkpt lat="45.866055" lon="11.6495667"><ele>266.5</ele><time>2026-05-01T15:11:57.187Z</time></trkpt><trkpt lat="45.8660067" lon="11.6496483"><ele>264.33333333333337</ele><time>2026-05-01T15:11:58.186Z</time></trkpt><trkpt lat="45.86596" lon="11.649735"><ele>262.1666666666667</ele><time>2026-05-01T15:11:59.187Z</time></trkpt><trkpt lat="45.86593" lon="11.6498317"><ele>260.0</ele><time>2026-05-01T15:12:00.184Z</time></trkpt><trkpt lat="45.8658933" lon="11.6499283"><ele>260.0</ele><time>2026-05-01T15:12:01.187Z</time></trkpt><trkpt lat="45.8658533" lon="11.65"><ele>260.0</ele><time>2026-05-01T15:12:03.188Z</time></trkpt><trkpt lat="45.8657783" lon="11.64996"><ele>260.0</ele><time>2026-05-01T15:12:06.185Z</time></trkpt><trkpt lat="45.86584" lon="11.6498017"><ele>260.0</ele><time>2026-05-01T15:12:08.185Z</time></trkpt><trkpt lat="45.865885" lon="11.649685"><ele>260.0</ele><time>2026-05-01T15:12:09.187Z</time></trkpt><trkpt lat="45.865945" lon="11.6495617"><ele>262.6</ele><time>2026-05-01T15:12:10.188Z</time></trkpt><trkpt lat="45.866015" lon="11.64942"><ele>265.2</ele><time>2026-05-01T15:12:11.186Z</time></trkpt><trkpt lat="45.8660933" lon="11.6492933"><ele>267.8</ele><time>2026-05-01T15:12:12.185Z</time></trkpt><trkpt lat="45.8661667" lon="11.6491733"><ele>270.4</ele><time>2026-05-01T15:12:13.183Z</time></trkpt><trkpt lat="45.8662117" lon="11.649055"><ele>273.0</ele><time>2026-05-01T15:12:14.188Z</time></trkpt><trkpt lat="45.8662417" lon="11.6489217"><ele>273.0</ele><time>2026-05-01T15:12:15.184Z</time></trkpt><trkpt lat="45.8662883" lon="11.6488"><ele>273.0</ele><time>2026-05-01T15:12:16.186Z</time></trkpt><trkpt lat="45.8663583" lon="11.648695"><ele>273.0</ele><time>2026-05-01T15:12:17.189Z</time></trkpt><trkpt lat="45.8664467" lon="11.648595"><ele>273.0</ele><time>2026-05-01T15:12:18.186Z</time></trkpt><trkpt lat="45.8665367" lon="11.6485017"><ele>273.0</ele><time>2026-05-01T15:12:19.19Z</time></trkpt><trkpt lat="45.86661" lon="11.648385"><ele>274.5</ele><time>2026-05-01T15:12:20.184Z</time></trkpt><trkpt lat="45.86667" lon="11.6482567"><ele>276.0</ele><time>2026-05-01T15:12:21.186Z</time></trkpt><trkpt lat="45.8667233" lon="11.64812"><ele>277.5</ele><time>2026-05-01T15:12:22.185Z</time></trkpt><trkpt lat="45.86677" lon="11.6479633"><ele>279.0</ele><time>2026-05-01T15:12:23.184Z</time></trkpt><trkpt lat="45.8668117" lon="11.6477933"><ele>279.0</ele><time>2026-05-01T15:12:24.185Z</time></trkpt><trkpt lat="45.86685" lon="11.6476233"><ele>279.0</ele><time>2026-05-01T15:12:25.185Z</time></trkpt><trkpt lat="45.8668767" lon="11.6474533"><ele>279.0</ele><time>2026-05-01T15:12:26.185Z</time></trkpt><trkpt lat="45.8668883" lon="11.647285"><ele>279.0</ele><time>2026-05-01T15:12:27.186Z</time></trkpt><trkpt lat="45.866895" lon="11.6471233"><ele>279.0</ele><time>2026-05-01T15:12:28.185Z</time></trkpt><trkpt lat="45.8669" lon="11.64698"><ele>279.0</ele><time>2026-05-01T15:12:29.185Z</time></trkpt><trkpt lat="45.8669033" lon="11.6468533"><ele>279.0</ele><time>2026-05-01T15:12:30.187Z</time></trkpt><trkpt lat="45.8669133" lon="11.6467583"><ele>279.0</ele><time>2026-05-01T15:12:31.186Z</time></trkpt><trkpt lat="45.8669167" lon="11.6465967"><ele>279.0</ele><time>2026-05-01T15:12:33.186Z</time></trkpt><trkpt lat="45.8668817" lon="11.6464867"><ele>272.59999999999997</ele><time>2026-05-01T15:12:35.184Z</time></trkpt><trkpt lat="45.8667933" lon="11.6465283"><ele>266.2</ele><time>2026-05-01T15:12:37.185Z</time></trkpt><trkpt lat="45.8667217" lon="11.6466767"><ele>259.79999999999995</ele><time>2026-05-01T15:12:39.188Z</time></trkpt><trkpt lat="45.8666783" lon="11.6467783"><ele>253.39999999999998</ele><time>2026-05-01T15:12:40.184Z</time></trkpt><trkpt lat="45.866625" lon="11.646875"><ele>247.0</ele><time>2026-05-01T15:12:41.187Z</time></trkpt><trkpt lat="45.8665633" lon="11.6469717"><ele>244.33333333333331</ele><time>2026-05-01T15:12:42.186Z</time></trkpt><trkpt lat="45.8665033" lon="11.6470633"><ele>241.66666666666666</ele><time>2026-05-01T15:12:43.185Z</time></trkpt><trkpt lat="45.8664367" lon="11.6471483"><ele>239.0</ele><time>2026-05-01T15:12:44.186Z</time></trkpt><trkpt lat="45.8663833" lon="11.6472533"><ele>236.33333333333331</ele><time>2026-05-01T15:12:45.184Z</time></trkpt><trkpt lat="45.8663417" lon="11.6473683"><ele>233.66666666666666</ele><time>2026-05-01T15:12:46.186Z</time></trkpt><trkpt lat="45.8663017" lon="11.6474867"><ele>231.0</ele><time>2026-05-01T15:12:47.187Z</time></trkpt><trkpt lat="45.8662667" lon="11.6475983"><ele>231.0</ele><time>2026-05-01T15:12:48.184Z</time></trkpt><trkpt lat="45.8662367" lon="11.6477"><ele>231.0</ele><time>2026-05-01T15:12:49.184Z</time></trkpt><trkpt lat="45.8662083" lon="11.6478033"><ele>231.0</ele><time>2026-05-01T15:12:50.185Z</time></trkpt><trkpt lat="45.8661633" lon="11.6478983"><ele>231.0</ele><time>2026-05-01T15:12:51.186Z</time></trkpt><trkpt lat="45.866095" lon="11.6479867"><ele>231.0</ele><time>2026-05-01T15:12:52.185Z</time></trkpt><trkpt lat="45.8660317" lon="11.64808"><ele>231.0</ele><time>2026-05-01T15:12:53.186Z</time></trkpt><trkpt lat="45.8659667" lon="11.6481667"><ele>232.20000000000002</ele><time>2026-05-01T15:12:54.184Z</time></trkpt><trkpt lat="45.8659183" lon="11.6482583"><ele>233.40000000000003</ele><time>2026-05-01T15:12:55.185Z</time></trkpt><trkpt lat="45.865875" lon="11.64837"><ele>234.6</ele><time>2026-05-01T15:12:56.188Z</time></trkpt><trkpt lat="45.865835" lon="11.6484833"><ele>235.8</ele><time>2026-05-01T15:12:57.185Z</time></trkpt><trkpt lat="45.8657817" lon="11.6485983"><ele>237.0</ele><time>2026-05-01T15:12:58.185Z</time></trkpt><trkpt lat="45.86572" lon="11.64871"><ele>235.0</ele><time>2026-05-01T15:12:59.187Z</time></trkpt><trkpt lat="45.8656633" lon="11.6488183"><ele>233.0</ele><time>2026-05-01T15:13:00.185Z</time></trkpt><trkpt lat="45.8656017" lon="11.6489183"><ele>231.0</ele><time>2026-05-01T15:13:01.185Z</time></trkpt><trkpt lat="45.8655383" lon="11.64901"><ele>229.0</ele><time>2026-05-01T15:13:02.186Z</time></trkpt><trkpt lat="45.8654667" lon="11.6490817"><ele>227.0</ele><time>2026-05-01T15:13:03.188Z</time></trkpt><trkpt lat="45.8654167" lon="11.6491667"><ele>225.0</ele><time>2026-05-01T15:13:04.185Z</time></trkpt><trkpt lat="45.8653783" lon="11.6492417"><ele>225.0</ele><time>2026-05-01T15:13:05.185Z</time></trkpt><trkpt lat="45.86531" lon="11.649275"><ele>225.0</ele><time>2026-05-01T15:13:06.187Z</time></trkpt><trkpt lat="45.8652383" lon="11.64931"><ele>225.0</ele><time>2026-05-01T15:13:07.185Z</time></trkpt><trkpt lat="45.8651367" lon="11.6493217"><ele>225.0</ele><time>2026-05-01T15:13:08.187Z</time></trkpt><trkpt lat="45.8650467" lon="11.6493217"><ele>225.0</ele><time>2026-05-01T15:13:09.184Z</time></trkpt><trkpt lat="45.8649433" lon="11.6493317"><ele>225.0</ele><time>2026-05-01T15:13:10.186Z</time></trkpt><trkpt lat="45.86482" lon="11.6493183"><ele>228.4</ele><time>2026-05-01T15:13:11.186Z</time></trkpt><trkpt lat="45.8647117" lon="11.6493383"><ele>231.8</ele><time>2026-05-01T15:13:12.185Z</time></trkpt><trkpt lat="45.8646017" lon="11.6493717"><ele>235.2</ele><time>2026-05-01T15:13:13.184Z</time></trkpt><trkpt lat="45.8644983" lon="11.6494017"><ele>238.6</ele><time>2026-05-01T15:13:14.192Z</time></trkpt><trkpt lat="45.864405" lon="11.6494317"><ele>242.0</ele><time>2026-05-01T15:13:15.185Z</time></trkpt><trkpt lat="45.86431" lon="11.649455"><ele>239.0</ele><time>2026-05-01T15:13:16.187Z</time></trkpt><trkpt lat="45.864215" lon="11.6495033"><ele>236.0</ele><time>2026-05-01T15:13:17.184Z</time></trkpt><trkpt lat="45.8641267" lon="11.64957"><ele>233.0</ele><time>2026-05-01T15:13:18.185Z</time></trkpt><trkpt lat="45.8640417" lon="11.6496383"><ele>230.0</ele><time>2026-05-01T15:13:19.186Z</time></trkpt><trkpt lat="45.8639567" lon="11.64972"><ele>227.0</ele><time>2026-05-01T15:13:20.186Z</time></trkpt><trkpt lat="45.8638783" lon="11.6498133"><ele>227.0</ele><time>2026-05-01T15:13:21.193Z</time></trkpt><trkpt lat="45.8638217" lon="11.64991"><ele>227.0</ele><time>2026-05-01T15:13:22.186Z</time></trkpt><trkpt lat="45.8637633" lon="11.65003"><ele>227.0</ele><time>2026-05-01T15:13:23.189Z</time></trkpt><trkpt lat="45.8636983" lon="11.6501317"><ele>227.0</ele><time>2026-05-01T15:13:24.186Z</time></trkpt><trkpt lat="45.8636183" lon="11.650235"><ele>227.0</ele><time>2026-05-01T15:13:25.187Z</time></trkpt><trkpt lat="45.8635317" lon="11.65034"><ele>224.5</ele><time>2026-05-01T15:13:26.186Z</time></trkpt><trkpt lat="45.863445" lon="11.65045"><ele>222.0</ele><time>2026-05-01T15:13:27.189Z</time></trkpt><trkpt lat="45.8633567" lon="11.6505517"><ele>219.5</ele><time>2026-05-01T15:13:28.19Z</time></trkpt><trkpt lat="45.86327" lon="11.6506617"><ele>217.0</ele><time>2026-05-01T15:13:29.188Z</time></trkpt><trkpt lat="45.8631767" lon="11.6507367"><ele>217.0</ele><time>2026-05-01T15:13:30.187Z</time></trkpt><trkpt lat="45.86309" lon="11.6508217"><ele>217.0</ele><time>2026-05-01T15:13:31.184Z</time></trkpt><trkpt lat="45.8629983" lon="11.6509067"><ele>217.0</ele><time>2026-05-01T15:13:32.186Z</time></trkpt><trkpt lat="45.8629133" lon="11.651"><ele>217.0</ele><time>2026-05-01T15:13:33.187Z</time></trkpt><trkpt lat="45.8628217" lon="11.6510967"><ele>217.0</ele><time>2026-05-01T15:13:34.186Z</time></trkpt><trkpt lat="45.8627317" lon="11.6512"><ele>216.5</ele><time>2026-05-01T15:13:35.184Z</time></trkpt><trkpt lat="45.8626367" lon="11.6513033"><ele>216.0</ele><time>2026-05-01T15:13:36.185Z</time></trkpt><trkpt lat="45.862555" lon="11.651435"><ele>215.5</ele><time>2026-05-01T15:13:37.183Z</time></trkpt><trkpt lat="45.86247" lon="11.6515633"><ele>215.0</ele><time>2026-05-01T15:13:38.186Z</time></trkpt><trkpt lat="45.86238" lon="11.6516867"><ele>215.0</ele><time>2026-05-01T15:13:39.186Z</time></trkpt><trkpt lat="45.86228" lon="11.6518"><ele>215.0</ele><time>2026-05-01T15:13:40.188Z</time></trkpt><trkpt lat="45.8621817" lon="11.65191"><ele>215.0</ele><time>2026-05-01T15:13:41.186Z</time></trkpt><trkpt lat="45.8620967" lon="11.652025"><ele>215.0</ele><time>2026-05-01T15:13:42.186Z</time></trkpt><trkpt lat="45.8620083" lon="11.6521317"><ele>214.0</ele><time>2026-05-01T15:13:43.187Z</time></trkpt><trkpt lat="45.8619267" lon="11.6522517"><ele>213.0</ele><time>2026-05-01T15:13:44.187Z</time></trkpt><trkpt lat="45.8618617" lon="11.6523933"><ele>212.0</ele><time>2026-05-01T15:13:45.187Z</time></trkpt><trkpt lat="45.86181" lon="11.6525667"><ele>211.0</ele><time>2026-05-01T15:13:46.189Z</time></trkpt><trkpt lat="45.8617667" lon="11.65276"><ele>206.75</ele><time>2026-05-01T15:13:47.191Z</time></trkpt><trkpt lat="45.8617183" lon="11.65294"><ele>202.5</ele><time>2026-05-01T15:13:48.186Z</time></trkpt><trkpt lat="45.86167" lon="11.6531117"><ele>198.25</ele><time>2026-05-01T15:13:49.185Z</time></trkpt><trkpt lat="45.861645" lon="11.6532917"><ele>194.0</ele><time>2026-05-01T15:13:50.185Z</time></trkpt><trkpt lat="45.8616117" lon="11.6534567"><ele>194.0</ele><time>2026-05-01T15:13:51.185Z</time></trkpt><trkpt lat="45.861585" lon="11.6536183"><ele>194.0</ele><time>2026-05-01T15:13:52.188Z</time></trkpt><trkpt lat="45.8615633" lon="11.653765"><ele>194.0</ele><time>2026-05-01T15:13:53.184Z</time></trkpt><trkpt lat="45.8615417" lon="11.6539033"><ele>194.0</ele><time>2026-05-01T15:13:54.186Z</time></trkpt><trkpt lat="45.8615233" lon="11.6540283"><ele>194.0</ele><time>2026-05-01T15:13:55.187Z</time></trkpt><trkpt lat="45.8615083" lon="11.65414"><ele>194.0</ele><time>2026-05-01T15:13:56.184Z</time></trkpt><trkpt lat="45.8615067" lon="11.65424"><ele>194.0</ele><time>2026-05-01T15:13:57.184Z</time></trkpt><trkpt lat="45.8614833" lon="11.6544033"><ele>194.0</ele><time>2026-05-01T15:13:59.184Z</time></trkpt><trkpt lat="45.861435" lon="11.65457"><ele>194.0</ele><time>2026-05-01T15:14:01.186Z</time></trkpt><trkpt lat="45.86139" lon="11.6546433"><ele>194.0</ele><time>2026-05-01T15:14:02.188Z</time></trkpt><trkpt lat="45.8613317" lon="11.654705"><ele>193.83333333333334</ele><time>2026-05-01T15:14:03.185Z</time></trkpt><trkpt lat="45.86128" lon="11.6547767"><ele>193.66666666666669</ele><time>2026-05-01T15:14:04.187Z</time></trkpt><trkpt lat="45.8612333" lon="11.65486"><ele>193.5</ele><time>2026-05-01T15:14:05.184Z</time></trkpt><trkpt lat="45.8611967" lon="11.65495"><ele>193.33333333333331</ele><time>2026-05-01T15:14:06.186Z</time></trkpt><trkpt lat="45.86117" lon="11.655055"><ele>193.16666666666666</ele><time>2026-05-01T15:14:07.188Z</time></trkpt><trkpt lat="45.8611533" lon="11.6551733"><ele>193.0</ele><time>2026-05-01T15:14:08.185Z</time></trkpt><trkpt lat="45.8611333" lon="11.6552917"><ele>192.99999999999997</ele><time>2026-05-01T15:14:09.185Z</time></trkpt><trkpt lat="45.8611133" lon="11.6554083"><ele>193.0</ele><time>2026-05-01T15:14:10.186Z</time></trkpt><trkpt lat="45.861095" lon="11.655515"><ele>193.0</ele><time>2026-05-01T15:14:11.184Z</time></trkpt><trkpt lat="45.8610683" lon="11.6556117"><ele>193.0</ele><time>2026-05-01T15:14:12.19Z</time></trkpt><trkpt lat="45.8610267" lon="11.6557"><ele>192.99999999999997</ele><time>2026-05-01T15:14:13.185Z</time></trkpt><trkpt lat="45.8609683" lon="11.655785"><ele>193.0</ele><time>2026-05-01T15:14:14.184Z</time></trkpt><trkpt lat="45.8609" lon="11.655865"><ele>191.2</ele><time>2026-05-01T15:14:15.185Z</time></trkpt><trkpt lat="45.8608217" lon="11.6559467"><ele>189.4</ele><time>2026-05-01T15:14:16.184Z</time></trkpt><trkpt lat="45.8607267" lon="11.6560183"><ele>187.6</ele><time>2026-05-01T15:14:17.184Z</time></trkpt><trkpt lat="45.8606317" lon="11.6560933"><ele>185.79999999999998</ele><time>2026-05-01T15:14:18.186Z</time></trkpt><trkpt lat="45.860545" lon="11.6561717"><ele>184.0</ele><time>2026-05-01T15:14:19.186Z</time></trkpt><trkpt lat="45.8604567" lon="11.6562483"><ele>181.6</ele><time>2026-05-01T15:14:20.185Z</time></trkpt><trkpt lat="45.8603683" lon="11.6563217"><ele>179.2</ele><time>2026-05-01T15:14:21.184Z</time></trkpt><trkpt lat="45.8602767" lon="11.65639"><ele>176.79999999999998</ele><time>2026-05-01T15:14:22.184Z</time></trkpt><trkpt lat="45.8601917" lon="11.6564583"><ele>174.39999999999998</ele><time>2026-05-01T15:14:23.183Z</time></trkpt><trkpt lat="45.860105" lon="11.6565067"><ele>172.0</ele><time>2026-05-01T15:14:24.186Z</time></trkpt><trkpt lat="45.8600183" lon="11.6565417"><ele>171.83333333333334</ele><time>2026-05-01T15:14:25.185Z</time></trkpt><trkpt lat="45.8599333" lon="11.6565717"><ele>171.66666666666669</ele><time>2026-05-01T15:14:26.185Z</time></trkpt><trkpt lat="45.8598533" lon="11.6566067"><ele>171.5</ele><time>2026-05-01T15:14:27.184Z</time></trkpt><trkpt lat="45.8597783" lon="11.65664"><ele>171.33333333333334</ele><time>2026-05-01T15:14:28.186Z</time></trkpt><trkpt lat="45.8597067" lon="11.6566817"><ele>171.16666666666666</ele><time>2026-05-01T15:14:29.184Z</time></trkpt><trkpt lat="45.8596317" lon="11.6567433"><ele>171.0</ele><time>2026-05-01T15:14:30.184Z</time></trkpt><trkpt lat="45.8595633" lon="11.6568383"><ele>172.0</ele><time>2026-05-01T15:14:31.184Z</time></trkpt><trkpt lat="45.8595017" lon="11.6569617"><ele>173.0</ele><time>2026-05-01T15:14:32.185Z</time></trkpt><trkpt lat="45.8594483" lon="11.65709"><ele>174.0</ele><time>2026-05-01T15:14:33.187Z</time></trkpt><trkpt lat="45.8593883" lon="11.65721"><ele>175.0</ele><time>2026-05-01T15:14:34.187Z</time></trkpt><trkpt lat="45.859325" lon="11.65733"><ele>176.0</ele><time>2026-05-01T15:14:35.186Z</time></trkpt><trkpt lat="45.8592683" lon="11.6574483"><ele>176.0</ele><time>2026-05-01T15:14:36.184Z</time></trkpt><trkpt lat="45.8592117" lon="11.6575667"><ele>176.0</ele><time>2026-05-01T15:14:37.186Z</time></trkpt><trkpt lat="45.8591317" lon="11.6576683"><ele>176.0</ele><time>2026-05-01T15:14:38.185Z</time></trkpt><trkpt lat="45.8590417" lon="11.6577467"><ele>176.0</ele><time>2026-05-01T15:14:39.187Z</time></trkpt><trkpt lat="45.8589517" lon="11.6577917"><ele>176.0</ele><time>2026-05-01T15:14:40.187Z</time></trkpt><trkpt lat="45.8588667" lon="11.6578167"><ele>173.20000000000002</ele><time>2026-05-01T15:14:41.184Z</time></trkpt><trkpt lat="45.8587917" lon="11.6578317"><ele>170.4</ele><time>2026-05-01T15:14:42.185Z</time></trkpt><trkpt lat="45.858725" lon="11.6578367"><ele>167.6</ele><time>2026-05-01T15:14:43.183Z</time></trkpt><trkpt lat="45.858605" lon="11.6578533"><ele>164.8</ele><time>2026-05-01T15:14:45.185Z</time></trkpt><trkpt lat="45.858495" lon="11.6578817"><ele>162.0</ele><time>2026-05-01T15:14:47.183Z</time></trkpt><trkpt lat="45.85838" lon="11.6579617"><ele>162.0</ele><time>2026-05-01T15:14:49.186Z</time></trkpt><trkpt lat="45.8583083" lon="11.6579817"><ele>162.0</ele><time>2026-05-01T15:14:50.187Z</time></trkpt><trkpt lat="45.858225" lon="11.6579883"><ele>162.0</ele><time>2026-05-01T15:14:51.184Z</time></trkpt><trkpt lat="45.85813" lon="11.6580117"><ele>162.0</ele><time>2026-05-01T15:14:52.184Z</time></trkpt><trkpt lat="45.8580267" lon="11.6580517"><ele>162.0</ele><time>2026-05-01T15:14:53.184Z</time></trkpt><trkpt lat="45.8579233" lon="11.6580917"><ele>162.0</ele><time>2026-05-01T15:14:54.185Z</time></trkpt><trkpt lat="45.8578267" lon="11.6581333"><ele>162.0</ele><time>2026-05-01T15:14:55.187Z</time></trkpt><trkpt lat="45.8577367" lon="11.6581783"><ele>162.0</ele><time>2026-05-01T15:14:56.188Z</time></trkpt><trkpt lat="45.85765" lon="11.6582383"><ele>162.0</ele><time>2026-05-01T15:14:57.183Z</time></trkpt><trkpt lat="45.8575667" lon="11.6583033"><ele>162.0</ele><time>2026-05-01T15:14:58.185Z</time></trkpt><trkpt lat="45.8574883" lon="11.6583567"><ele>164.16666666666666</ele><time>2026-05-01T15:14:59.183Z</time></trkpt><trkpt lat="45.8574117" lon="11.6584083"><ele>166.33333333333334</ele><time>2026-05-01T15:15:00.186Z</time></trkpt><trkpt lat="45.8573317" lon="11.6584567"><ele>168.5</ele><time>2026-05-01T15:15:01.183Z</time></trkpt><trkpt lat="45.8572567" lon="11.6584917"><ele>170.66666666666669</ele><time>2026-05-01T15:15:02.184Z</time></trkpt><trkpt lat="45.8571883" lon="11.6585267"><ele>172.83333333333334</ele><time>2026-05-01T15:15:03.185Z</time></trkpt><trkpt lat="45.8571183" lon="11.6585533"><ele>175.0</ele><time>2026-05-01T15:15:04.185Z</time></trkpt><trkpt lat="45.8570433" lon="11.6585783"><ele>174.83333333333334</ele><time>2026-05-01T15:15:05.19Z</time></trkpt><trkpt lat="45.8569683" lon="11.6586183"><ele>174.66666666666669</ele><time>2026-05-01T15:15:06.188Z</time></trkpt><trkpt lat="45.8568983" lon="11.6586717"><ele>174.5</ele><time>2026-05-01T15:15:07.186Z</time></trkpt><trkpt lat="45.856835" lon="11.6587483"><ele>174.33333333333334</ele><time>2026-05-01T15:15:08.185Z</time></trkpt><trkpt lat="45.8567733" lon="11.65884"><ele>174.16666666666666</ele><time>2026-05-01T15:15:09.183Z</time></trkpt><trkpt lat="45.85671" lon="11.6589383"><ele>174.0</ele><time>2026-05-01T15:15:10.184Z</time></trkpt><trkpt lat="45.8566517" lon="11.6590533"><ele>174.0</ele><time>2026-05-01T15:15:11.188Z</time></trkpt><trkpt lat="45.856595" lon="11.659165"><ele>174.0</ele><time>2026-05-01T15:15:12.187Z</time></trkpt><trkpt lat="45.856535" lon="11.6592683"><ele>174.0</ele><time>2026-05-01T15:15:13.185Z</time></trkpt><trkpt lat="45.8564867" lon="11.6593767"><ele>174.0</ele><time>2026-05-01T15:15:14.187Z</time></trkpt><trkpt lat="45.8564567" lon="11.6594917"><ele>174.0</ele><time>2026-05-01T15:15:15.186Z</time></trkpt><trkpt lat="45.8564383" lon="11.6596117"><ele>170.83333333333334</ele><time>2026-05-01T15:15:16.184Z</time></trkpt><trkpt lat="45.856425" lon="11.6597267"><ele>167.66666666666666</ele><time>2026-05-01T15:15:17.186Z</time></trkpt><trkpt lat="45.8564083" lon="11.659835"><ele>164.5</ele><time>2026-05-01T15:15:18.184Z</time></trkpt><trkpt lat="45.8563917" lon="11.6599367"><ele>161.33333333333331</ele><time>2026-05-01T15:15:19.185Z</time></trkpt><trkpt lat="45.8563767" lon="11.6600417"><ele>158.16666666666666</ele><time>2026-05-01T15:15:20.185Z</time></trkpt><trkpt lat="45.8563417" lon="11.6601467"><ele>155.0</ele><time>2026-05-01T15:15:21.187Z</time></trkpt><trkpt lat="45.8563" lon="11.6602533"><ele>153.66666666666666</ele><time>2026-05-01T15:15:22.189Z</time></trkpt><trkpt lat="45.8562583" lon="11.6603533"><ele>152.33333333333331</ele><time>2026-05-01T15:15:23.186Z</time></trkpt><trkpt lat="45.8562117" lon="11.6604483"><ele>151.0</ele><time>2026-05-01T15:15:24.187Z</time></trkpt><trkpt lat="45.8561633" lon="11.6605433"><ele>149.66666666666666</ele><time>2026-05-01T15:15:25.183Z</time></trkpt><trkpt lat="45.85611" lon="11.66063"><ele>148.33333333333334</ele><time>2026-05-01T15:15:26.186Z</time></trkpt><trkpt lat="45.8560583" lon="11.66072"><ele>147.0</ele><time>2026-05-01T15:15:27.186Z</time></trkpt><trkpt lat="45.856005" lon="11.660805"><ele>147.0</ele><time>2026-05-01T15:15:28.185Z</time></trkpt><trkpt lat="45.855955" lon="11.6608917"><ele>147.0</ele><time>2026-05-01T15:15:29.184Z</time></trkpt><trkpt lat="45.8559083" lon="11.6609717"><ele>147.0</ele><time>2026-05-01T15:15:30.186Z</time></trkpt><trkpt lat="45.8558617" lon="11.6610383"><ele>147.0</ele><time>2026-05-01T15:15:31.187Z</time></trkpt><trkpt lat="45.8558" lon="11.661085"><ele>147.0</ele><time>2026-05-01T15:15:32.188Z</time></trkpt><trkpt lat="45.85573" lon="11.6611217"><ele>147.0</ele><time>2026-05-01T15:15:33.186Z</time></trkpt><trkpt lat="45.8556483" lon="11.6611467"><ele>147.0</ele><time>2026-05-01T15:15:34.187Z</time></trkpt><trkpt lat="45.8555583" lon="11.6611733"><ele>147.83333333333334</ele><time>2026-05-01T15:15:35.185Z</time></trkpt><trkpt lat="45.8554683" lon="11.6612083"><ele>148.66666666666666</ele><time>2026-05-01T15:15:36.184Z</time></trkpt><trkpt lat="45.8553833" lon="11.661235"><ele>149.5</ele><time>2026-05-01T15:15:37.184Z</time></trkpt><trkpt lat="45.8553033" lon="11.661265"><ele>150.33333333333331</ele><time>2026-05-01T15:15:38.184Z</time></trkpt><trkpt lat="45.85522" lon="11.6613033"><ele>151.16666666666666</ele><time>2026-05-01T15:15:39.183Z</time></trkpt><trkpt lat="45.8551367" lon="11.661365"><ele>152.0</ele><time>2026-05-01T15:15:40.186Z</time></trkpt><trkpt lat="45.8550567" lon="11.661425"><ele>153.5</ele><time>2026-05-01T15:15:41.185Z</time></trkpt><trkpt lat="45.8549833" lon="11.6614883"><ele>155.0</ele><time>2026-05-01T15:15:42.186Z</time></trkpt><trkpt lat="45.8549117" lon="11.66155"><ele>156.5</ele><time>2026-05-01T15:15:43.185Z</time></trkpt><trkpt lat="45.8548433" lon="11.6616117"><ele>158.0</ele><time>2026-05-01T15:15:44.184Z</time></trkpt><trkpt lat="45.8547817" lon="11.6616683"><ele>159.5</ele><time>2026-05-01T15:15:45.184Z</time></trkpt><trkpt lat="45.8547267" lon="11.6617183"><ele>161.0</ele><time>2026-05-01T15:15:46.183Z</time></trkpt><trkpt lat="45.854635" lon="11.661805"><ele>159.0</ele><time>2026-05-01T15:15:48.188Z</time></trkpt><trkpt lat="45.854575" lon="11.6619533"><ele>157.0</ele><time>2026-05-01T15:15:50.186Z</time></trkpt><trkpt lat="45.8545867" lon="11.6620517"><ele>155.0</ele><time>2026-05-01T15:15:51.186Z</time></trkpt><trkpt lat="45.854615" lon="11.6621467"><ele>153.0</ele><time>2026-05-01T15:15:52.185Z</time></trkpt><trkpt lat="45.8546433" lon="11.662235"><ele>151.0</ele><time>2026-05-01T15:15:53.185Z</time></trkpt><trkpt lat="45.8547033" lon="11.6622917"><ele>149.0</ele><time>2026-05-01T15:15:54.183Z</time></trkpt><trkpt lat="45.8547733" lon="11.66232"><ele>149.0</ele><time>2026-05-01T15:15:55.186Z</time></trkpt><trkpt lat="45.8548417" lon="11.6623433"><ele>149.0</ele><time>2026-05-01T15:15:56.184Z</time></trkpt><trkpt lat="45.8549167" lon="11.6623433"><ele>149.0</ele><time>2026-05-01T15:15:57.185Z</time></trkpt><trkpt lat="45.8549817" lon="11.6623333"><ele>149.0</ele><time>2026-05-01T15:15:58.187Z</time></trkpt><trkpt lat="45.8551017" lon="11.6623217"><ele>149.0</ele><time>2026-05-01T15:16:00.189Z</time></trkpt><trkpt lat="45.8551967" lon="11.6623083"><ele>149.0</ele><time>2026-05-01T15:16:02.186Z</time></trkpt><trkpt lat="45.8552867" lon="11.66231"><ele>148.5</ele><time>2026-05-01T15:16:12.184Z</time></trkpt><trkpt lat="45.85537" lon="11.6623483"><ele>148.0</ele><time>2026-05-01T15:16:28.185Z</time></trkpt><trkpt lat="45.855475" lon="11.6623217"><ele>147.5</ele><time>2026-05-01T15:16:30.186Z</time></trkpt><trkpt lat="45.8555467" lon="11.66228"><ele>147.0</ele><time>2026-05-01T15:16:31.186Z</time></trkpt><trkpt lat="45.8556233" lon="11.6622233"><ele>146.5</ele><time>2026-05-01T15:16:32.19Z</time></trkpt><trkpt lat="45.8557017" lon="11.6621583"><ele>146.0</ele><time>2026-05-01T15:16:33.184Z</time></trkpt><trkpt lat="45.85579" lon="11.662085"><ele>146.0</ele><time>2026-05-01T15:16:34.185Z</time></trkpt><trkpt lat="45.8558817" lon="11.6620133"><ele>146.0</ele><time>2026-05-01T15:16:35.186Z</time></trkpt><trkpt lat="45.855985" lon="11.6619467"><ele>146.0</ele><time>2026-05-01T15:16:36.184Z</time></trkpt><trkpt lat="45.85608" lon="11.6618733"><ele>146.0</ele><time>2026-05-01T15:16:37.187Z</time></trkpt><trkpt lat="45.85616" lon="11.6617633"><ele>146.0</ele><time>2026-05-01T15:16:38.186Z</time></trkpt><trkpt lat="45.85622" lon="11.6616167"><ele>146.25</ele><time>2026-05-01T15:16:39.184Z</time></trkpt><trkpt lat="45.85627" lon="11.66144"><ele>146.5</ele><time>2026-05-01T15:16:40.184Z</time></trkpt><trkpt lat="45.85633" lon="11.6612583"><ele>146.75</ele><time>2026-05-01T15:16:41.186Z</time></trkpt><trkpt lat="45.8563817" lon="11.6610867"><ele>147.0</ele><time>2026-05-01T15:16:42.183Z</time></trkpt><trkpt lat="45.8564233" lon="11.6609233"><ele>147.0</ele><time>2026-05-01T15:16:43.186Z</time></trkpt><trkpt lat="45.85647" lon="11.660765"><ele>147.0</ele><time>2026-05-01T15:16:44.184Z</time></trkpt><trkpt lat="45.856525" lon="11.6606033"><ele>147.0</ele><time>2026-05-01T15:16:45.186Z</time></trkpt><trkpt lat="45.8565817" lon="11.6604433"><ele>147.0</ele><time>2026-05-01T15:16:46.186Z</time></trkpt><trkpt lat="45.8566317" lon="11.6602783"><ele>147.4</ele><time>2026-05-01T15:16:47.186Z</time></trkpt><trkpt lat="45.8566833" lon="11.6601267"><ele>147.79999999999998</ele><time>2026-05-01T15:16:48.187Z</time></trkpt><trkpt lat="45.856725" lon="11.6599833"><ele>148.2</ele><time>2026-05-01T15:16:49.186Z</time></trkpt><trkpt lat="45.856765" lon="11.659845"><ele>148.6</ele><time>2026-05-01T15:16:50.184Z</time></trkpt><trkpt lat="45.8568017" lon="11.6597017"><ele>149.0</ele><time>2026-05-01T15:16:51.183Z</time></trkpt><trkpt lat="45.85685" lon="11.6595617"><ele>149.5</ele><time>2026-05-01T15:16:52.183Z</time></trkpt><trkpt lat="45.8569" lon="11.65943"><ele>150.0</ele><time>2026-05-01T15:16:53.184Z</time></trkpt><trkpt lat="45.85696" lon="11.6593217"><ele>150.5</ele><time>2026-05-01T15:16:54.187Z</time></trkpt><trkpt lat="45.857025" lon="11.6592467"><ele>151.0</ele><time>2026-05-01T15:16:55.187Z</time></trkpt><trkpt lat="45.8570917" lon="11.6591883"><ele>151.5</ele><time>2026-05-01T15:16:56.186Z</time></trkpt><trkpt lat="45.857155" lon="11.6591333"><ele>152.0</ele><time>2026-05-01T15:16:57.186Z</time></trkpt><trkpt lat="45.85726" lon="11.65908"><ele>152.0</ele><time>2026-05-01T15:16:59.186Z</time></trkpt><trkpt lat="45.8573267" lon="11.6591783"><ele>152.0</ele><time>2026-05-01T15:17:01.186Z</time></trkpt><trkpt lat="45.8573417" lon="11.6592817"><ele>152.0</ele><time>2026-05-01T15:17:02.188Z</time></trkpt><trkpt lat="45.8573667" lon="11.6594"><ele>152.0</ele><time>2026-05-01T15:17:03.187Z</time></trkpt><trkpt lat="45.8573983" lon="11.6595267"><ele>152.0</ele><time>2026-05-01T15:17:04.186Z</time></trkpt><trkpt lat="45.8574267" lon="11.6596533"><ele>152.0</ele><time>2026-05-01T15:17:05.184Z</time></trkpt><trkpt lat="45.8574517" lon="11.6597817"><ele>152.16666666666666</ele><time>2026-05-01T15:17:06.183Z</time></trkpt><trkpt lat="45.8574833" lon="11.6599"><ele>152.33333333333331</ele><time>2026-05-01T15:17:07.185Z</time></trkpt><trkpt lat="45.8575233" lon="11.66"><ele>152.5</ele><time>2026-05-01T15:17:08.186Z</time></trkpt><trkpt lat="45.8575733" lon="11.6600817"><ele>152.66666666666666</ele><time>2026-05-01T15:17:09.185Z</time></trkpt><trkpt lat="45.8576417" lon="11.6601433"><ele>152.83333333333334</ele><time>2026-05-01T15:17:10.185Z</time></trkpt><trkpt lat="45.8577217" lon="11.6601967"><ele>153.0</ele><time>2026-05-01T15:17:11.188Z</time></trkpt><trkpt lat="45.8577967" lon="11.66026"><ele>153.20000000000002</ele><time>2026-05-01T15:17:12.185Z</time></trkpt><trkpt lat="45.8578717" lon="11.6603383"><ele>153.4</ele><time>2026-05-01T15:17:13.185Z</time></trkpt><trkpt lat="45.8579383" lon="11.6604383"><ele>153.60000000000002</ele><time>2026-05-01T15:17:14.187Z</time></trkpt><trkpt lat="45.857995" lon="11.6605617"><ele>153.8</ele><time>2026-05-01T15:17:15.188Z</time></trkpt><trkpt lat="45.8580467" lon="11.6606867"><ele>154.0</ele><time>2026-05-01T15:17:16.184Z</time></trkpt><trkpt lat="45.8580883" lon="11.6607967"><ele>154.0</ele><time>2026-05-01T15:17:17.184Z</time></trkpt><trkpt lat="45.8581267" lon="11.6608867"><ele>154.0</ele><time>2026-05-01T15:17:18.183Z</time></trkpt><trkpt lat="45.8581467" lon="11.6609833"><ele>154.0</ele><time>2026-05-01T15:17:20.192Z</time></trkpt><trkpt lat="45.8581117" lon="11.66108"><ele>154.0</ele><time>2026-05-01T15:19:00.186Z</time></trkpt><trkpt lat="45.85815" lon="11.6611683"><ele>154.0</ele><time>2026-05-01T15:19:02.188Z</time></trkpt><trkpt lat="45.85806" lon="11.6612767"><ele>154.0</ele><time>2026-05-01T15:19:05.186Z</time></trkpt><trkpt lat="45.8579817" lon="11.6613433"><ele>154.4</ele><time>2026-05-01T15:19:06.183Z</time></trkpt><trkpt lat="45.8578983" lon="11.661415"><ele>154.8</ele><time>2026-05-01T15:19:07.184Z</time></trkpt><trkpt lat="45.857805" lon="11.661495"><ele>155.2</ele><time>2026-05-01T15:19:08.186Z</time></trkpt><trkpt lat="45.8577067" lon="11.6615867"><ele>155.6</ele><time>2026-05-01T15:19:09.188Z</time></trkpt><trkpt lat="45.8576083" lon="11.6616733"><ele>156.0</ele><time>2026-05-01T15:19:10.185Z</time></trkpt><trkpt lat="45.85751" lon="11.6617633"><ele>156.0</ele><time>2026-05-01T15:19:11.184Z</time></trkpt><trkpt lat="45.8574183" lon="11.66185"><ele>156.0</ele><time>2026-05-01T15:19:12.188Z</time></trkpt><trkpt lat="45.8573233" lon="11.6619533"><ele>156.0</ele><time>2026-05-01T15:19:13.184Z</time></trkpt><trkpt lat="45.85722" lon="11.662075"><ele>156.0</ele><time>2026-05-01T15:19:14.186Z</time></trkpt><trkpt lat="45.8571167" lon="11.6622133"><ele>158.66666666666666</ele><time>2026-05-01T15:19:15.187Z</time></trkpt><trkpt lat="45.8570033" lon="11.66236"><ele>161.33333333333331</ele><time>2026-05-01T15:19:16.185Z</time></trkpt><trkpt lat="45.8568967" lon="11.6625117"><ele>164.0</ele><time>2026-05-01T15:19:17.184Z</time></trkpt><trkpt lat="45.8567933" lon="11.6626683"><ele>163.0</ele><time>2026-05-01T15:19:18.184Z</time></trkpt><trkpt lat="45.8566833" lon="11.66283"><ele>162.0</ele><time>2026-05-01T15:19:19.183Z</time></trkpt><trkpt lat="45.8565667" lon="11.663"><ele>161.0</ele><time>2026-05-01T15:19:20.183Z</time></trkpt><trkpt lat="45.8564483" lon="11.6631683"><ele>161.0</ele><time>2026-05-01T15:19:21.187Z</time></trkpt><trkpt lat="45.856335" lon="11.6633333"><ele>161.0</ele><time>2026-05-01T15:19:22.186Z</time></trkpt><trkpt lat="45.8562233" lon="11.6634967"><ele>161.0</ele><time>2026-05-01T15:19:23.185Z</time></trkpt><trkpt lat="45.8561183" lon="11.6636633"><ele>158.66666666666666</ele><time>2026-05-01T15:19:24.187Z</time></trkpt><trkpt lat="45.8560017" lon="11.6638217"><ele>156.33333333333334</ele><time>2026-05-01T15:19:25.185Z</time></trkpt><trkpt lat="45.8558683" lon="11.6639633"><ele>154.0</ele><time>2026-05-01T15:19:26.185Z</time></trkpt><trkpt lat="45.8557183" lon="11.6640967"><ele>154.0</ele><time>2026-05-01T15:19:27.188Z</time></trkpt><trkpt lat="45.8555583" lon="11.6642233"><ele>154.0</ele><time>2026-05-01T15:19:28.185Z</time></trkpt><trkpt lat="45.8553933" lon="11.664345"><ele>154.0</ele><time>2026-05-01T15:19:29.188Z</time></trkpt><trkpt lat="45.8552233" lon="11.66446"><ele>156.33333333333334</ele><time>2026-05-01T15:19:30.187Z</time></trkpt><trkpt lat="45.85506" lon="11.6645733"><ele>158.66666666666666</ele><time>2026-05-01T15:19:31.188Z</time></trkpt><trkpt lat="45.8548983" lon="11.664685"><ele>161.0</ele><time>2026-05-01T15:19:32.184Z</time></trkpt><trkpt lat="45.8547433" lon="11.6648017"><ele>161.0</ele><time>2026-05-01T15:19:33.187Z</time></trkpt><trkpt lat="45.8545867" lon="11.664925"><ele>161.0</ele><time>2026-05-01T15:19:34.184Z</time></trkpt><trkpt lat="45.8544333" lon="11.6650583"><ele>161.0</ele><time>2026-05-01T15:19:35.184Z</time></trkpt><trkpt lat="45.85427" lon="11.665195"><ele>157.33333333333331</ele><time>2026-05-01T15:19:36.185Z</time></trkpt><trkpt lat="45.8541083" lon="11.6653367"><ele>153.66666666666666</ele><time>2026-05-01T15:19:37.186Z</time></trkpt><trkpt lat="45.8539517" lon="11.6654767"><ele>150.0</ele><time>2026-05-01T15:19:38.187Z</time></trkpt><trkpt lat="45.853805" lon="11.665625"><ele>150.0</ele><time>2026-05-01T15:19:39.185Z</time></trkpt><trkpt lat="45.8536667" lon="11.6657867"><ele>150.0</ele><time>2026-05-01T15:19:40.185Z</time></trkpt><trkpt lat="45.8535333" lon="11.665965"><ele>150.0</ele><time>2026-05-01T15:19:41.183Z</time></trkpt><trkpt lat="45.853405" lon="11.6661533"><ele>149.0</ele><time>2026-05-01T15:19:42.185Z</time></trkpt><trkpt lat="45.85328" lon="11.6663483"><ele>148.0</ele><time>2026-05-01T15:19:43.191Z</time></trkpt><trkpt lat="45.853155" lon="11.66654"><ele>147.0</ele><time>2026-05-01T15:19:44.183Z</time></trkpt><trkpt lat="45.853035" lon="11.6667233"><ele>147.0</ele><time>2026-05-01T15:19:45.185Z</time></trkpt><trkpt lat="45.8529167" lon="11.6669033"><ele>147.0</ele><time>2026-05-01T15:19:46.184Z</time></trkpt><trkpt lat="45.8527933" lon="11.667075"><ele>147.0</ele><time>2026-05-01T15:19:47.186Z</time></trkpt><trkpt lat="45.852665" lon="11.667245"><ele>147.0</ele><time>2026-05-01T15:19:48.185Z</time></trkpt><trkpt lat="45.8525283" lon="11.6674067"><ele>147.0</ele><time>2026-05-01T15:19:49.186Z</time></trkpt><trkpt lat="45.8523833" lon="11.6675633"><ele>147.0</ele><time>2026-05-01T15:19:50.185Z</time></trkpt><trkpt lat="45.8522383" lon="11.6677133"><ele>153.66666666666666</ele><time>2026-05-01T15:19:51.189Z</time></trkpt><trkpt lat="45.8521033" lon="11.66786"><ele>160.33333333333331</ele><time>2026-05-01T15:19:52.183Z</time></trkpt><trkpt lat="45.8519667" lon="11.6680017"><ele>167.0</ele><time>2026-05-01T15:19:53.185Z</time></trkpt><trkpt lat="45.85183" lon="11.6681367"><ele>161.0</ele><time>2026-05-01T15:19:54.186Z</time></trkpt><trkpt lat="45.8516883" lon="11.6682567"><ele>155.0</ele><time>2026-05-01T15:19:55.183Z</time></trkpt><trkpt lat="45.8515467" lon="11.6683583"><ele>149.0</ele><time>2026-05-01T15:19:56.184Z</time></trkpt><trkpt lat="45.8514117" lon="11.6684467"><ele>149.0</ele><time>2026-05-01T15:19:57.186Z</time></trkpt><trkpt lat="45.8512883" lon="11.6685267"><ele>149.0</ele><time>2026-05-01T15:19:58.188Z</time></trkpt><trkpt lat="45.8511633" lon="11.6686117"><ele>149.0</ele><time>2026-05-01T15:19:59.184Z</time></trkpt><trkpt lat="45.8510367" lon="11.668695"><ele>149.0</ele><time>2026-05-01T15:20:00.184Z</time></trkpt><trkpt lat="45.8509033" lon="11.6687783"><ele>151.0</ele><time>2026-05-01T15:20:01.186Z</time></trkpt><trkpt lat="45.8507683" lon="11.6688617"><ele>153.0</ele><time>2026-05-01T15:20:02.184Z</time></trkpt><trkpt lat="45.850635" lon="11.6689483"><ele>155.0</ele><time>2026-05-01T15:20:03.186Z</time></trkpt><trkpt lat="45.8505083" lon="11.6690333"><ele>157.0</ele><time>2026-05-01T15:20:04.186Z</time></trkpt><trkpt lat="45.850385" lon="11.669115"><ele>157.0</ele><time>2026-05-01T15:20:05.187Z</time></trkpt><trkpt lat="45.85027" lon="11.6691917"><ele>157.0</ele><time>2026-05-01T15:20:06.185Z</time></trkpt><trkpt lat="45.85015" lon="11.6692667"><ele>157.0</ele><time>2026-05-01T15:20:07.19Z</time></trkpt><trkpt lat="45.8500267" lon="11.6693433"><ele>157.0</ele><time>2026-05-01T15:20:08.186Z</time></trkpt><trkpt lat="45.8499067" lon="11.6694267"><ele>159.75</ele><time>2026-05-01T15:20:09.184Z</time></trkpt><trkpt lat="45.84978" lon="11.6695133"><ele>162.5</ele><time>2026-05-01T15:20:10.184Z</time></trkpt><trkpt lat="45.8496467" lon="11.6695967"><ele>165.25</ele><time>2026-05-01T15:20:11.184Z</time></trkpt><trkpt lat="45.8495217" lon="11.6696817"><ele>168.0</ele><time>2026-05-01T15:20:12.188Z</time></trkpt><trkpt lat="45.8494" lon="11.6697617"><ele>163.25</ele><time>2026-05-01T15:20:13.184Z</time></trkpt><trkpt lat="45.849285" lon="11.6698367"><ele>158.5</ele><time>2026-05-01T15:20:14.189Z</time></trkpt><trkpt lat="45.8491683" lon="11.6699167"><ele>153.75</ele><time>2026-05-01T15:20:15.184Z</time></trkpt><trkpt lat="45.8490533" lon="11.6700067"><ele>149.0</ele><time>2026-05-01T15:20:16.184Z</time></trkpt><trkpt lat="45.8489383" lon="11.6701"><ele>149.0</ele><time>2026-05-01T15:20:17.188Z</time></trkpt><trkpt lat="45.8488233" lon="11.6701983"><ele>149.0</ele><time>2026-05-01T15:20:18.183Z</time></trkpt><trkpt lat="45.8487117" lon="11.6703033"><ele>149.0</ele><time>2026-05-01T15:20:19.187Z</time></trkpt><trkpt lat="45.8486083" lon="11.6704083"><ele>149.0</ele><time>2026-05-01T15:20:20.189Z</time></trkpt><trkpt lat="45.8485083" lon="11.67051"><ele>149.0</ele><time>2026-05-01T15:20:21.184Z</time></trkpt><trkpt lat="45.8484067" lon="11.67061"><ele>149.0</ele><time>2026-05-01T15:20:22.185Z</time></trkpt><trkpt lat="45.8483067" lon="11.6707133"><ele>149.0</ele><time>2026-05-01T15:20:23.184Z</time></trkpt><trkpt lat="45.848205" lon="11.6708217"><ele>149.0</ele><time>2026-05-01T15:20:24.184Z</time></trkpt><trkpt lat="45.8481017" lon="11.670935"><ele>149.0</ele><time>2026-05-01T15:20:25.191Z</time></trkpt><trkpt lat="45.8479967" lon="11.6710483"><ele>149.0</ele><time>2026-05-01T15:20:26.183Z</time></trkpt><trkpt lat="45.8478867" lon="11.6711583"><ele>149.0</ele><time>2026-05-01T15:20:27.187Z</time></trkpt><trkpt lat="45.8477817" lon="11.6712683"><ele>149.0</ele><time>2026-05-01T15:20:28.183Z</time></trkpt><trkpt lat="45.8476683" lon="11.6713783"><ele>148.5</ele><time>2026-05-01T15:20:29.183Z</time></trkpt><trkpt lat="45.8475467" lon="11.6714917"><ele>148.0</ele><time>2026-05-01T15:20:30.185Z</time></trkpt><trkpt lat="45.8474183" lon="11.671605"><ele>147.5</ele><time>2026-05-01T15:20:31.184Z</time></trkpt><trkpt lat="45.84729" lon="11.6717217"><ele>147.0</ele><time>2026-05-01T15:20:32.185Z</time></trkpt><trkpt lat="45.8471583" lon="11.6718333"><ele>145.5</ele><time>2026-05-01T15:20:33.185Z</time></trkpt><trkpt lat="45.84703" lon="11.6719467"><ele>144.0</ele><time>2026-05-01T15:20:34.187Z</time></trkpt><trkpt lat="45.846915" lon="11.67207"><ele>142.5</ele><time>2026-05-01T15:20:35.186Z</time></trkpt><trkpt lat="45.8468117" lon="11.6722033"><ele>141.0</ele><time>2026-05-01T15:20:36.187Z</time></trkpt><trkpt lat="45.8467083" lon="11.67235"><ele>141.0</ele><time>2026-05-01T15:20:37.184Z</time></trkpt><trkpt lat="45.8466067" lon="11.6725017"><ele>141.0</ele><time>2026-05-01T15:20:38.188Z</time></trkpt><trkpt lat="45.8465083" lon="11.6726583"><ele>141.0</ele><time>2026-05-01T15:20:39.188Z</time></trkpt><trkpt lat="45.8464233" lon="11.6728117"><ele>141.0</ele><time>2026-05-01T15:20:40.183Z</time></trkpt><trkpt lat="45.8463583" lon="11.672985"><ele>143.75</ele><time>2026-05-01T15:20:41.187Z</time></trkpt><trkpt lat="45.846305" lon="11.6731583"><ele>146.5</ele><time>2026-05-01T15:20:42.184Z</time></trkpt><trkpt lat="45.8462617" lon="11.6733317"><ele>149.25</ele><time>2026-05-01T15:20:43.192Z</time></trkpt><trkpt lat="45.8462183" lon="11.6734917"><ele>152.0</ele><time>2026-05-01T15:20:44.188Z</time></trkpt><trkpt lat="45.8461667" lon="11.673635"><ele>152.75</ele><time>2026-05-01T15:20:45.188Z</time></trkpt><trkpt lat="45.8461017" lon="11.6737733"><ele>153.5</ele><time>2026-05-01T15:20:46.184Z</time></trkpt><trkpt lat="45.84601" lon="11.673895"><ele>154.25</ele><time>2026-05-01T15:20:47.183Z</time></trkpt><trkpt lat="45.8459033" lon="11.6740067"><ele>155.0</ele><time>2026-05-01T15:20:48.184Z</time></trkpt><trkpt lat="45.8457917" lon="11.6741217"><ele>154.0</ele><time>2026-05-01T15:20:49.184Z</time></trkpt><trkpt lat="45.8456883" lon="11.6742517"><ele>153.0</ele><time>2026-05-01T15:20:50.183Z</time></trkpt><trkpt lat="45.8455867" lon="11.67438"><ele>152.0</ele><time>2026-05-01T15:20:51.183Z</time></trkpt><trkpt lat="45.8454883" lon="11.6745067"><ele>151.0</ele><time>2026-05-01T15:20:52.187Z</time></trkpt><trkpt lat="45.8453917" lon="11.6746267"><ele>151.0</ele><time>2026-05-01T15:20:53.183Z</time></trkpt><trkpt lat="45.84529" lon="11.6747483"><ele>151.0</ele><time>2026-05-01T15:20:54.184Z</time></trkpt><trkpt lat="45.845185" lon="11.6748733"><ele>151.0</ele><time>2026-05-01T15:20:55.183Z</time></trkpt><trkpt lat="45.8450783" lon="11.6750083"><ele>151.0</ele><time>2026-05-01T15:20:56.187Z</time></trkpt><trkpt lat="45.8449633" lon="11.6751483"><ele>151.0</ele><time>2026-05-01T15:20:57.184Z</time></trkpt><trkpt lat="45.8448517" lon="11.6752917"><ele>151.0</ele><time>2026-05-01T15:20:58.186Z</time></trkpt><trkpt lat="45.8447433" lon="11.6754383"><ele>151.0</ele><time>2026-05-01T15:20:59.185Z</time></trkpt><trkpt lat="45.8446467" lon="11.6756"><ele>151.0</ele><time>2026-05-01T15:21:00.184Z</time></trkpt><trkpt lat="45.8445633" lon="11.6757833"><ele>151.0</ele><time>2026-05-01T15:21:01.188Z</time></trkpt><trkpt lat="45.844485" lon="11.6759717"><ele>151.0</ele><time>2026-05-01T15:21:02.186Z</time></trkpt><trkpt lat="45.844405" lon="11.67616"><ele>151.0</ele><time>2026-05-01T15:21:03.186Z</time></trkpt><trkpt lat="45.8443317" lon="11.67635"><ele>149.25</ele><time>2026-05-01T15:21:04.266Z</time></trkpt><trkpt lat="45.8442567" lon="11.6765267"><ele>147.5</ele><time>2026-05-01T15:21:05.184Z</time></trkpt><trkpt lat="45.8441833" lon="11.6767017"><ele>145.75</ele><time>2026-05-01T15:21:06.186Z</time></trkpt><trkpt lat="45.8441083" lon="11.6768817"><ele>144.0</ele><time>2026-05-01T15:21:07.184Z</time></trkpt><trkpt lat="45.8440317" lon="11.67706"><ele>144.0</ele><time>2026-05-01T15:21:08.185Z</time></trkpt><trkpt lat="45.84395" lon="11.67724"><ele>144.0</ele><time>2026-05-01T15:21:09.188Z</time></trkpt><trkpt lat="45.84387" lon="11.6774183"><ele>144.0</ele><time>2026-05-01T15:21:10.183Z</time></trkpt><trkpt lat="45.8437867" lon="11.6776"><ele>144.0</ele><time>2026-05-01T15:21:11.184Z</time></trkpt><trkpt lat="45.8437033" lon="11.67778"><ele>143.75</ele><time>2026-05-01T15:21:12.185Z</time></trkpt><trkpt lat="45.84362" lon="11.6779617"><ele>143.5</ele><time>2026-05-01T15:21:13.184Z</time></trkpt><trkpt lat="45.8435367" lon="11.67814"><ele>143.25</ele><time>2026-05-01T15:21:14.188Z</time></trkpt><trkpt lat="45.8434567" lon="11.6783183"><ele>143.0</ele><time>2026-05-01T15:21:15.184Z</time></trkpt><trkpt lat="45.8433733" lon="11.6785017"><ele>143.33333333333331</ele><time>2026-05-01T15:21:16.185Z</time></trkpt><trkpt lat="45.8432833" lon="11.6786917"><ele>143.66666666666666</ele><time>2026-05-01T15:21:17.184Z</time></trkpt><trkpt lat="45.8431917" lon="11.6788867"><ele>144.0</ele><time>2026-05-01T15:21:18.187Z</time></trkpt><trkpt lat="45.843095" lon="11.6790917"><ele>144.0</ele><time>2026-05-01T15:21:19.186Z</time></trkpt><trkpt lat="45.842995" lon="11.6793067"><ele>144.0</ele><time>2026-05-01T15:21:20.185Z</time></trkpt><trkpt lat="45.8428917" lon="11.67953"><ele>144.0</ele><time>2026-05-01T15:21:21.187Z</time></trkpt><trkpt lat="45.842785" lon="11.67977"><ele>144.33333333333334</ele><time>2026-05-01T15:21:22.184Z</time></trkpt><trkpt lat="45.84268" lon="11.6800133"><ele>144.66666666666669</ele><time>2026-05-01T15:21:23.186Z</time></trkpt><trkpt lat="45.842585" lon="11.6802633"><ele>145.0</ele><time>2026-05-01T15:21:24.185Z</time></trkpt><trkpt lat="45.8424933" lon="11.6805083"><ele>145.66666666666669</ele><time>2026-05-01T15:21:25.186Z</time></trkpt><trkpt lat="45.8424083" lon="11.680755"><ele>146.33333333333334</ele><time>2026-05-01T15:21:26.185Z</time></trkpt><trkpt lat="45.84233" lon="11.6810033"><ele>147.0</ele><time>2026-05-01T15:21:27.185Z</time></trkpt><trkpt lat="45.8422583" lon="11.68126"><ele>147.0</ele><time>2026-05-01T15:21:28.184Z</time></trkpt><trkpt lat="45.8421933" lon="11.6815133"><ele>147.0</ele><time>2026-05-01T15:21:29.183Z</time></trkpt><trkpt lat="45.84213" lon="11.68175"><ele>147.0</ele><time>2026-05-01T15:21:30.183Z</time></trkpt><trkpt lat="45.8420717" lon="11.6819817"><ele>148.66666666666666</ele><time>2026-05-01T15:21:31.186Z</time></trkpt><trkpt lat="45.84201" lon="11.6822117"><ele>150.33333333333331</ele><time>2026-05-01T15:21:32.183Z</time></trkpt><trkpt lat="45.8419417" lon="11.6824433"><ele>152.0</ele><time>2026-05-01T15:21:33.184Z</time></trkpt><trkpt lat="45.841875" lon="11.682675"><ele>153.66666666666666</ele><time>2026-05-01T15:21:34.185Z</time></trkpt><trkpt lat="45.8418117" lon="11.6829133"><ele>155.33333333333334</ele><time>2026-05-01T15:21:35.183Z</time></trkpt><trkpt lat="45.8417517" lon="11.6831517"><ele>157.0</ele><time>2026-05-01T15:21:36.183Z</time></trkpt><trkpt lat="45.8416883" lon="11.6833867"><ele>153.66666666666669</ele><time>2026-05-01T15:21:37.185Z</time></trkpt><trkpt lat="45.8416267" lon="11.6836183"><ele>150.33333333333334</ele><time>2026-05-01T15:21:38.185Z</time></trkpt><trkpt lat="45.841565" lon="11.6838433"><ele>147.0</ele><time>2026-05-01T15:21:39.189Z</time></trkpt><trkpt lat="45.8415067" lon="11.6840567"><ele>147.0</ele><time>2026-05-01T15:21:40.184Z</time></trkpt><trkpt lat="45.84145" lon="11.68426"><ele>147.0</ele><time>2026-05-01T15:21:41.183Z</time></trkpt><trkpt lat="45.8413933" lon="11.68445"><ele>147.0</ele><time>2026-05-01T15:21:42.186Z</time></trkpt><trkpt lat="45.8413367" lon="11.6846283"><ele>147.0</ele><time>2026-05-01T15:21:43.184Z</time></trkpt><trkpt lat="45.8412733" lon="11.6848"><ele>147.25</ele><time>2026-05-01T15:21:44.187Z</time></trkpt><trkpt lat="45.84121" lon="11.68497"><ele>147.5</ele><time>2026-05-01T15:21:45.185Z</time></trkpt><trkpt lat="45.8411467" lon="11.685135"><ele>147.75</ele><time>2026-05-01T15:21:46.182Z</time></trkpt><trkpt lat="45.8410867" lon="11.6852917"><ele>148.0</ele><time>2026-05-01T15:21:47.183Z</time></trkpt><trkpt lat="45.8410217" lon="11.6854367"><ele>146.5</ele><time>2026-05-01T15:21:48.183Z</time></trkpt><trkpt lat="45.8409517" lon="11.6855783"><ele>145.0</ele><time>2026-05-01T15:21:49.184Z</time></trkpt><trkpt lat="45.84088" lon="11.6857183"><ele>143.5</ele><time>2026-05-01T15:21:50.188Z</time></trkpt><trkpt lat="45.8408083" lon="11.685865"><ele>142.0</ele><time>2026-05-01T15:21:51.186Z</time></trkpt><trkpt lat="45.8407333" lon="11.6860133"><ele>143.0</ele><time>2026-05-01T15:21:52.188Z</time></trkpt><trkpt lat="45.840655" lon="11.6861633"><ele>144.0</ele><time>2026-05-01T15:21:53.184Z</time></trkpt><trkpt lat="45.8405767" lon="11.6863117"><ele>145.0</ele><time>2026-05-01T15:21:54.188Z</time></trkpt><trkpt lat="45.8404983" lon="11.6864633"><ele>146.0</ele><time>2026-05-01T15:21:55.185Z</time></trkpt><trkpt lat="45.8404217" lon="11.686615"><ele>146.0</ele><time>2026-05-01T15:21:56.183Z</time></trkpt><trkpt lat="45.8403417" lon="11.686765"><ele>146.0</ele><time>2026-05-01T15:21:57.184Z</time></trkpt><trkpt lat="45.8402617" lon="11.6869167"><ele>146.0</ele><time>2026-05-01T15:21:58.183Z</time></trkpt><trkpt lat="45.8401783" lon="11.6870717"><ele>146.0</ele><time>2026-05-01T15:21:59.184Z</time></trkpt><trkpt lat="45.840095" lon="11.6872267"><ele>146.25</ele><time>2026-05-01T15:22:00.184Z</time></trkpt><trkpt lat="45.8400167" lon="11.687375"><ele>146.5</ele><time>2026-05-01T15:22:01.189Z</time></trkpt><trkpt lat="45.83994" lon="11.6875167"><ele>146.75</ele><time>2026-05-01T15:22:02.183Z</time></trkpt><trkpt lat="45.8398633" lon="11.68766"><ele>147.0</ele><time>2026-05-01T15:22:03.185Z</time></trkpt><trkpt lat="45.8397817" lon="11.6878033"><ele>147.75</ele><time>2026-05-01T15:22:04.185Z</time></trkpt><trkpt lat="45.8397067" lon="11.6879517"><ele>148.5</ele><time>2026-05-01T15:22:05.186Z</time></trkpt><trkpt lat="45.83963" lon="11.688105"><ele>149.25</ele><time>2026-05-01T15:22:06.184Z</time></trkpt><trkpt lat="45.8395517" lon="11.6882583"><ele>150.0</ele><time>2026-05-01T15:22:07.19Z</time></trkpt><trkpt lat="45.8394683" lon="11.688405"><ele>150.0</ele><time>2026-05-01T15:22:08.184Z</time></trkpt><trkpt lat="45.8393867" lon="11.6885617"><ele>150.0</ele><time>2026-05-01T15:22:09.186Z</time></trkpt><trkpt lat="45.839305" lon="11.6887217"><ele>150.0</ele><time>2026-05-01T15:22:10.265Z</time></trkpt><trkpt lat="45.8392233" lon="11.6888817"><ele>150.0</ele><time>2026-05-01T15:22:11.185Z</time></trkpt><trkpt lat="45.83914" lon="11.6890467"><ele>149.5</ele><time>2026-05-01T15:22:12.185Z</time></trkpt><trkpt lat="45.839055" lon="11.6892133"><ele>149.0</ele><time>2026-05-01T15:22:13.187Z</time></trkpt><trkpt lat="45.8389683" lon="11.6893783"><ele>148.5</ele><time>2026-05-01T15:22:14.184Z</time></trkpt><trkpt lat="45.8388817" lon="11.6895433"><ele>148.0</ele><time>2026-05-01T15:22:15.189Z</time></trkpt><trkpt lat="45.8387917" lon="11.6897167"><ele>147.33333333333334</ele><time>2026-05-01T15:22:16.184Z</time></trkpt><trkpt lat="45.8386983" lon="11.6898967"><ele>146.66666666666666</ele><time>2026-05-01T15:22:17.186Z</time></trkpt><trkpt lat="45.8386017" lon="11.6900817"><ele>146.0</ele><time>2026-05-01T15:22:18.184Z</time></trkpt><trkpt lat="45.83851" lon="11.6902683"><ele>144.33333333333331</ele><time>2026-05-01T15:22:19.184Z</time></trkpt><trkpt lat="45.838415" lon="11.6904467"><ele>142.66666666666666</ele><time>2026-05-01T15:22:20.187Z</time></trkpt><trkpt lat="45.8383217" lon="11.6906233"><ele>141.0</ele><time>2026-05-01T15:22:21.184Z</time></trkpt><trkpt lat="45.8382283" lon="11.6908033"><ele>141.0</ele><time>2026-05-01T15:22:22.183Z</time></trkpt><trkpt lat="45.8381333" lon="11.6909833"><ele>141.0</ele><time>2026-05-01T15:22:23.184Z</time></trkpt><trkpt lat="45.8380367" lon="11.69116"><ele>141.0</ele><time>2026-05-01T15:22:24.184Z</time></trkpt><trkpt lat="45.83793" lon="11.69133"><ele>141.33333333333334</ele><time>2026-05-01T15:22:25.184Z</time></trkpt><trkpt lat="45.8378283" lon="11.6915"><ele>141.66666666666669</ele><time>2026-05-01T15:22:26.185Z</time></trkpt><trkpt lat="45.8377233" lon="11.6916567"><ele>142.0</ele><time>2026-05-01T15:22:27.185Z</time></trkpt><trkpt lat="45.8376117" lon="11.6918117"><ele>142.33333333333334</ele><time>2026-05-01T15:22:28.187Z</time></trkpt><trkpt lat="45.837495" lon="11.69197"><ele>142.66666666666666</ele><time>2026-05-01T15:22:29.188Z</time></trkpt><trkpt lat="45.8373733" lon="11.6921267"><ele>143.0</ele><time>2026-05-01T15:22:30.186Z</time></trkpt><trkpt lat="45.8372467" lon="11.69228"><ele>143.0</ele><time>2026-05-01T15:22:31.188Z</time></trkpt><trkpt lat="45.8371183" lon="11.6924267"><ele>143.0</ele><time>2026-05-01T15:22:32.186Z</time></trkpt><trkpt lat="45.8369933" lon="11.6925683"><ele>143.0</ele><time>2026-05-01T15:22:33.183Z</time></trkpt><trkpt lat="45.83688" lon="11.692715"><ele>141.66666666666666</ele><time>2026-05-01T15:22:34.183Z</time></trkpt><trkpt lat="45.8367717" lon="11.6928583"><ele>140.33333333333334</ele><time>2026-05-01T15:22:35.185Z</time></trkpt><trkpt lat="45.8366567" lon="11.693005"><ele>139.0</ele><time>2026-05-01T15:22:36.186Z</time></trkpt><trkpt lat="45.836535" lon="11.6931533"><ele>139.0</ele><time>2026-05-01T15:22:37.186Z</time></trkpt><trkpt lat="45.8364083" lon="11.6933033"><ele>139.0</ele><time>2026-05-01T15:22:38.187Z</time></trkpt><trkpt lat="45.836285" lon="11.6934533"><ele>139.0</ele><time>2026-05-01T15:22:39.184Z</time></trkpt><trkpt lat="45.8361583" lon="11.6936067"><ele>139.66666666666669</ele><time>2026-05-01T15:22:40.184Z</time></trkpt><trkpt lat="45.8360267" lon="11.6937617"><ele>140.33333333333334</ele><time>2026-05-01T15:22:41.183Z</time></trkpt><trkpt lat="45.8358967" lon="11.6939217"><ele>141.0</ele><time>2026-05-01T15:22:42.188Z</time></trkpt><trkpt lat="45.835765" lon="11.69408"><ele>140.66666666666666</ele><time>2026-05-01T15:22:43.185Z</time></trkpt><trkpt lat="45.8356317" lon="11.69424"><ele>140.33333333333331</ele><time>2026-05-01T15:22:44.189Z</time></trkpt><trkpt lat="45.8354967" lon="11.6944033"><ele>140.0</ele><time>2026-05-01T15:22:45.185Z</time></trkpt><trkpt lat="45.8353617" lon="11.6945667"><ele>140.0</ele><time>2026-05-01T15:22:46.183Z</time></trkpt><trkpt lat="45.8352267" lon="11.69473"><ele>140.0</ele><time>2026-05-01T15:22:47.183Z</time></trkpt><trkpt lat="45.83509" lon="11.6948983"><ele>140.0</ele><time>2026-05-01T15:22:48.185Z</time></trkpt><trkpt lat="45.8349517" lon="11.6950683"><ele>138.66666666666666</ele><time>2026-05-01T15:22:49.184Z</time></trkpt><trkpt lat="45.834815" lon="11.6952383"><ele>137.33333333333334</ele><time>2026-05-01T15:22:50.188Z</time></trkpt><trkpt lat="45.834675" lon="11.695405"><ele>136.0</ele><time>2026-05-01T15:22:51.185Z</time></trkpt><trkpt lat="45.8345367" lon="11.69558"><ele>136.0</ele><time>2026-05-01T15:22:52.184Z</time></trkpt><trkpt lat="45.8343983" lon="11.6957533"><ele>136.0</ele><time>2026-05-01T15:22:53.183Z</time></trkpt><trkpt lat="45.834265" lon="11.6959217"><ele>136.0</ele><time>2026-05-01T15:22:54.187Z</time></trkpt><trkpt lat="45.834135" lon="11.6960833"><ele>136.33333333333334</ele><time>2026-05-01T15:22:55.186Z</time></trkpt><trkpt lat="45.8340067" lon="11.69624"><ele>136.66666666666666</ele><time>2026-05-01T15:22:56.186Z</time></trkpt><trkpt lat="45.8338767" lon="11.6963967"><ele>137.0</ele><time>2026-05-01T15:22:57.184Z</time></trkpt><trkpt lat="45.8337467" lon="11.696555"><ele>137.0</ele><time>2026-05-01T15:22:58.185Z</time></trkpt><trkpt lat="45.8336117" lon="11.6967117"><ele>137.0</ele><time>2026-05-01T15:22:59.184Z</time></trkpt><trkpt lat="45.8334783" lon="11.6968717"><ele>137.0</ele><time>2026-05-01T15:23:00.183Z</time></trkpt><trkpt lat="45.8333467" lon="11.697035"><ele>137.66666666666666</ele><time>2026-05-01T15:23:01.187Z</time></trkpt><trkpt lat="45.833215" lon="11.6972017"><ele>138.33333333333334</ele><time>2026-05-01T15:23:02.186Z</time></trkpt><trkpt lat="45.8330933" lon="11.69738"><ele>139.0</ele><time>2026-05-01T15:23:03.184Z</time></trkpt><trkpt lat="45.8329783" lon="11.69758"><ele>142.66666666666669</ele><time>2026-05-01T15:23:04.183Z</time></trkpt><trkpt lat="45.8328633" lon="11.69779"><ele>146.33333333333334</ele><time>2026-05-01T15:23:05.182Z</time></trkpt><trkpt lat="45.832755" lon="11.698025"><ele>150.0</ele><time>2026-05-01T15:23:06.185Z</time></trkpt><trkpt lat="45.8326533" lon="11.698265"><ele>146.66666666666666</ele><time>2026-05-01T15:23:07.185Z</time></trkpt><trkpt lat="45.8325583" lon="11.6985117"><ele>143.33333333333331</ele><time>2026-05-01T15:23:08.188Z</time></trkpt><trkpt lat="45.832475" lon="11.698765"><ele>140.0</ele><time>2026-05-01T15:23:09.185Z</time></trkpt><trkpt lat="45.8323983" lon="11.69901"><ele>140.0</ele><time>2026-05-01T15:23:10.184Z</time></trkpt><trkpt lat="45.8323233" lon="11.6992467"><ele>140.0</ele><time>2026-05-01T15:23:11.184Z</time></trkpt><trkpt lat="45.8322483" lon="11.6994817"><ele>140.0</ele><time>2026-05-01T15:23:12.184Z</time></trkpt><trkpt lat="45.83217" lon="11.6997133"><ele>140.33333333333331</ele><time>2026-05-01T15:23:13.183Z</time></trkpt><trkpt lat="45.8320933" lon="11.6999517"><ele>140.66666666666666</ele><time>2026-05-01T15:23:14.189Z</time></trkpt><trkpt lat="45.8320083" lon="11.700185"><ele>141.0</ele><time>2026-05-01T15:23:15.185Z</time></trkpt><trkpt lat="45.8319183" lon="11.7004133"><ele>139.66666666666666</ele><time>2026-05-01T15:23:16.183Z</time></trkpt><trkpt lat="45.8318183" lon="11.7006467"><ele>138.33333333333331</ele><time>2026-05-01T15:23:17.186Z</time></trkpt><trkpt lat="45.83171" lon="11.70088"><ele>137.0</ele><time>2026-05-01T15:23:18.185Z</time></trkpt><trkpt lat="45.8316" lon="11.701115"><ele>140.0</ele><time>2026-05-01T15:23:19.183Z</time></trkpt><trkpt lat="45.831475" lon="11.7013383"><ele>143.0</ele><time>2026-05-01T15:23:20.185Z</time></trkpt><trkpt lat="45.83135" lon="11.7015433"><ele>146.0</ele><time>2026-05-01T15:23:21.188Z</time></trkpt><trkpt lat="45.8312217" lon="11.70173"><ele>146.0</ele><time>2026-05-01T15:23:22.185Z</time></trkpt><trkpt lat="45.831085" lon="11.7019017"><ele>146.0</ele><time>2026-05-01T15:23:23.184Z</time></trkpt><trkpt lat="45.83094" lon="11.7020667"><ele>146.0</ele><time>2026-05-01T15:23:24.184Z</time></trkpt><trkpt lat="45.8307867" lon="11.7022183"><ele>142.66666666666666</ele><time>2026-05-01T15:23:25.185Z</time></trkpt><trkpt lat="45.83063" lon="11.7023667"><ele>139.33333333333334</ele><time>2026-05-01T15:23:26.184Z</time></trkpt><trkpt lat="45.8304667" lon="11.7025117"><ele>136.0</ele><time>2026-05-01T15:23:27.184Z</time></trkpt><trkpt lat="45.830305" lon="11.70265"><ele>138.0</ele><time>2026-05-01T15:23:28.183Z</time></trkpt><trkpt lat="45.830145" lon="11.7027833"><ele>140.0</ele><time>2026-05-01T15:23:29.187Z</time></trkpt><trkpt lat="45.8299867" lon="11.7029083"><ele>142.0</ele><time>2026-05-01T15:23:30.19Z</time></trkpt><trkpt lat="45.8298367" lon="11.70303"><ele>142.0</ele><time>2026-05-01T15:23:31.184Z</time></trkpt><trkpt lat="45.8296883" lon="11.7031417"><ele>142.0</ele><time>2026-05-01T15:23:32.183Z</time></trkpt><trkpt lat="45.8295433" lon="11.7032567"><ele>142.0</ele><time>2026-05-01T15:23:33.186Z</time></trkpt><trkpt lat="45.8293983" lon="11.7033733"><ele>141.0</ele><time>2026-05-01T15:23:34.187Z</time></trkpt><trkpt lat="45.8292517" lon="11.7034867"><ele>140.0</ele><time>2026-05-01T15:23:35.186Z</time></trkpt><trkpt lat="45.8291017" lon="11.7036017"><ele>139.0</ele><time>2026-05-01T15:23:36.188Z</time></trkpt><trkpt lat="45.8289483" lon="11.703715"><ele>139.0</ele><time>2026-05-01T15:23:37.185Z</time></trkpt><trkpt lat="45.8287967" lon="11.7038317"><ele>139.0</ele><time>2026-05-01T15:23:38.185Z</time></trkpt><trkpt lat="45.8286483" lon="11.7039433"><ele>139.0</ele><time>2026-05-01T15:23:39.185Z</time></trkpt><trkpt lat="45.828505" lon="11.70405"><ele>139.0</ele><time>2026-05-01T15:23:40.187Z</time></trkpt><trkpt lat="45.8283717" lon="11.70415"><ele>139.0</ele><time>2026-05-01T15:23:41.187Z</time></trkpt><trkpt lat="45.8282483" lon="11.7042383"><ele>139.0</ele><time>2026-05-01T15:23:42.184Z</time></trkpt><trkpt lat="45.8281317" lon="11.704325"><ele>139.0</ele><time>2026-05-01T15:23:43.183Z</time></trkpt><trkpt lat="45.8280167" lon="11.7044183"><ele>139.0</ele><time>2026-05-01T15:23:44.186Z</time></trkpt><trkpt lat="45.8278983" lon="11.7045033"><ele>139.0</ele><time>2026-05-01T15:23:45.185Z</time></trkpt><trkpt lat="45.8277783" lon="11.7045833"><ele>139.0</ele><time>2026-05-01T15:23:46.184Z</time></trkpt><trkpt lat="45.8276583" lon="11.70467"><ele>139.0</ele><time>2026-05-01T15:23:47.189Z</time></trkpt><trkpt lat="45.82754" lon="11.7047617"><ele>137.75</ele><time>2026-05-01T15:23:48.187Z</time></trkpt><trkpt lat="45.8274233" lon="11.7048517"><ele>136.5</ele><time>2026-05-01T15:23:49.185Z</time></trkpt><trkpt lat="45.827315" lon="11.704935"><ele>135.25</ele><time>2026-05-01T15:23:50.184Z</time></trkpt><trkpt lat="45.827215" lon="11.7050083"><ele>134.0</ele><time>2026-05-01T15:23:51.185Z</time></trkpt><trkpt lat="45.82713" lon="11.7050667"><ele>134.0</ele><time>2026-05-01T15:23:52.187Z</time></trkpt><trkpt lat="45.8270533" lon="11.7051217"><ele>134.0</ele><time>2026-05-01T15:23:53.186Z</time></trkpt><trkpt lat="45.8269817" lon="11.7051733"><ele>134.0</ele><time>2026-05-01T15:23:54.185Z</time></trkpt><trkpt lat="45.82692" lon="11.70522"><ele>134.0</ele><time>2026-05-01T15:23:55.186Z</time></trkpt><trkpt lat="45.8268383" lon="11.70529"><ele>134.0</ele><time>2026-05-01T15:23:57.184Z</time></trkpt><trkpt lat="45.82677" lon="11.7053417"><ele>134.0</ele><time>2026-05-01T15:23:59.182Z</time></trkpt><trkpt lat="45.8266917" lon="11.70541"><ele>133.8</ele><time>2026-05-01T15:24:02.185Z</time></trkpt><trkpt lat="45.8266217" lon="11.705465"><ele>133.60000000000002</ele><time>2026-05-01T15:24:04.184Z</time></trkpt><trkpt lat="45.8265317" lon="11.70555"><ele>133.4</ele><time>2026-05-01T15:24:06.184Z</time></trkpt><trkpt lat="45.826425" lon="11.705625"><ele>133.20000000000002</ele><time>2026-05-01T15:24:08.185Z</time></trkpt><trkpt lat="45.8263617" lon="11.7056683"><ele>133.0</ele><time>2026-05-01T15:24:09.184Z</time></trkpt><trkpt lat="45.8262967" lon="11.70572"><ele>133.0</ele><time>2026-05-01T15:24:10.184Z</time></trkpt><trkpt lat="45.8262333" lon="11.7057717"><ele>133.0</ele><time>2026-05-01T15:24:11.184Z</time></trkpt><trkpt lat="45.8261683" lon="11.7058283"><ele>133.0</ele><time>2026-05-01T15:24:12.188Z</time></trkpt><trkpt lat="45.8261067" lon="11.705895"><ele>133.0</ele><time>2026-05-01T15:24:13.186Z</time></trkpt><trkpt lat="45.826045" lon="11.705965"><ele>133.0</ele><time>2026-05-01T15:24:14.185Z</time></trkpt><trkpt lat="45.8259867" lon="11.7060383"><ele>133.0</ele><time>2026-05-01T15:24:15.188Z</time></trkpt><trkpt lat="45.8259217" lon="11.706115"><ele>134.20000000000002</ele><time>2026-05-01T15:24:16.185Z</time></trkpt><trkpt lat="45.825855" lon="11.7061967"><ele>135.4</ele><time>2026-05-01T15:24:17.184Z</time></trkpt><trkpt lat="45.8257867" lon="11.7062783"><ele>136.60000000000002</ele><time>2026-05-01T15:24:18.184Z</time></trkpt><trkpt lat="45.8257233" lon="11.7063767"><ele>137.8</ele><time>2026-05-01T15:24:19.185Z</time></trkpt><trkpt lat="45.8256567" lon="11.7064833"><ele>139.0</ele><time>2026-05-01T15:24:20.185Z</time></trkpt><trkpt lat="45.8255933" lon="11.706585"><ele>139.0</ele><time>2026-05-01T15:24:21.186Z</time></trkpt><trkpt lat="45.825535" lon="11.7066817"><ele>139.0</ele><time>2026-05-01T15:24:22.188Z</time></trkpt><trkpt lat="45.8254817" lon="11.7067733"><ele>139.0</ele><time>2026-05-01T15:24:23.183Z</time></trkpt><trkpt lat="45.8254333" lon="11.7068717"><ele>139.0</ele><time>2026-05-01T15:24:24.184Z</time></trkpt><trkpt lat="45.82538" lon="11.70697"><ele>139.0</ele><time>2026-05-01T15:24:25.184Z</time></trkpt><trkpt lat="45.825325" lon="11.7070667"><ele>139.0</ele><time>2026-05-01T15:24:26.19Z</time></trkpt><trkpt lat="45.8252683" lon="11.7071667"><ele>139.8</ele><time>2026-05-01T15:24:27.184Z</time></trkpt><trkpt lat="45.82521" lon="11.70727"><ele>140.60000000000002</ele><time>2026-05-01T15:24:28.186Z</time></trkpt><trkpt lat="45.82514" lon="11.7073817"><ele>141.4</ele><time>2026-05-01T15:24:29.185Z</time></trkpt><trkpt lat="45.8250667" lon="11.707515"><ele>142.20000000000002</ele><time>2026-05-01T15:24:30.184Z</time></trkpt><trkpt lat="45.8249867" lon="11.7076617"><ele>143.0</ele><time>2026-05-01T15:24:31.185Z</time></trkpt><trkpt lat="45.824905" lon="11.7078117"><ele>140.75</ele><time>2026-05-01T15:24:32.184Z</time></trkpt><trkpt lat="45.824825" lon="11.70796"><ele>138.5</ele><time>2026-05-01T15:24:33.184Z</time></trkpt><trkpt lat="45.8247433" lon="11.7081083"><ele>136.25</ele><time>2026-05-01T15:24:34.183Z</time></trkpt><trkpt lat="45.8246617" lon="11.7082467"><ele>134.0</ele><time>2026-05-01T15:24:35.185Z</time></trkpt><trkpt lat="45.8245867" lon="11.7083817"><ele>134.0</ele><time>2026-05-01T15:24:36.186Z</time></trkpt><trkpt lat="45.8245117" lon="11.7085217"><ele>134.0</ele><time>2026-05-01T15:24:37.184Z</time></trkpt><trkpt lat="45.8244333" lon="11.70866"><ele>134.0</ele><time>2026-05-01T15:24:38.183Z</time></trkpt><trkpt lat="45.8243517" lon="11.708805"><ele>134.0</ele><time>2026-05-01T15:24:39.188Z</time></trkpt><trkpt lat="45.8242683" lon="11.7089533"><ele>134.5</ele><time>2026-05-01T15:24:40.185Z</time></trkpt><trkpt lat="45.8241833" lon="11.709105"><ele>135.0</ele><time>2026-05-01T15:24:41.183Z</time></trkpt><trkpt lat="45.8241" lon="11.709255"><ele>135.5</ele><time>2026-05-01T15:24:42.185Z</time></trkpt><trkpt lat="45.8240167" lon="11.7093967"><ele>136.0</ele><time>2026-05-01T15:24:43.19Z</time></trkpt><trkpt lat="45.823935" lon="11.7095267"><ele>136.0</ele><time>2026-05-01T15:24:44.185Z</time></trkpt><trkpt lat="45.823855" lon="11.7096483"><ele>136.0</ele><time>2026-05-01T15:24:45.186Z</time></trkpt><trkpt lat="45.8237717" lon="11.7097683"><ele>136.0</ele><time>2026-05-01T15:24:46.184Z</time></trkpt><trkpt lat="45.8236783" lon="11.7098833"><ele>136.0</ele><time>2026-05-01T15:24:47.183Z</time></trkpt><trkpt lat="45.823585" lon="11.7099983"><ele>136.0</ele><time>2026-05-01T15:24:48.187Z</time></trkpt><trkpt lat="45.8234883" lon="11.7101117"><ele>136.0</ele><time>2026-05-01T15:24:49.185Z</time></trkpt><trkpt lat="45.8233883" lon="11.7102233"><ele>136.0</ele><time>2026-05-01T15:24:50.187Z</time></trkpt><trkpt lat="45.823285" lon="11.7103267"><ele>136.0</ele><time>2026-05-01T15:24:51.185Z</time></trkpt><trkpt lat="45.8231767" lon="11.710425"><ele>135.8</ele><time>2026-05-01T15:24:52.19Z</time></trkpt><trkpt lat="45.8230767" lon="11.7105183"><ele>135.6</ele><time>2026-05-01T15:24:53.189Z</time></trkpt><trkpt lat="45.8229883" lon="11.7106083"><ele>135.4</ele><time>2026-05-01T15:24:54.189Z</time></trkpt><trkpt lat="45.8229167" lon="11.710685"><ele>135.2</ele><time>2026-05-01T15:24:55.192Z</time></trkpt><trkpt lat="45.82285" lon="11.71075"><ele>135.0</ele><time>2026-05-01T15:24:56.186Z</time></trkpt><trkpt lat="45.8227867" lon="11.7108"><ele>135.0</ele><time>2026-05-01T15:24:57.188Z</time></trkpt><trkpt lat="45.8227283" lon="11.7108533"><ele>135.0</ele><time>2026-05-01T15:24:58.185Z</time></trkpt><trkpt lat="45.8226717" lon="11.710905"><ele>135.0</ele><time>2026-05-01T15:24:59.186Z</time></trkpt><trkpt lat="45.82261" lon="11.7109667"><ele>135.0</ele><time>2026-05-01T15:25:00.186Z</time></trkpt><trkpt lat="45.82255" lon="11.7110267"><ele>135.0</ele><time>2026-05-01T15:25:01.185Z</time></trkpt><trkpt lat="45.82249" lon="11.7110833"><ele>135.0</ele><time>2026-05-01T15:25:02.185Z</time></trkpt><trkpt lat="45.8224383" lon="11.7111367"><ele>135.0</ele><time>2026-05-01T15:25:03.183Z</time></trkpt><trkpt lat="45.8223833" lon="11.7111883"><ele>134.83333333333334</ele><time>2026-05-01T15:25:04.183Z</time></trkpt><trkpt lat="45.8223233" lon="11.7112417"><ele>134.66666666666666</ele><time>2026-05-01T15:25:05.186Z</time></trkpt><trkpt lat="45.8222633" lon="11.7113017"><ele>134.5</ele><time>2026-05-01T15:25:06.187Z</time></trkpt><trkpt lat="45.8222017" lon="11.7113583"><ele>134.33333333333331</ele><time>2026-05-01T15:25:07.188Z</time></trkpt><trkpt lat="45.82214" lon="11.7114183"><ele>134.16666666666666</ele><time>2026-05-01T15:25:08.185Z</time></trkpt><trkpt lat="45.82208" lon="11.7114833"><ele>134.0</ele><time>2026-05-01T15:25:09.187Z</time></trkpt><trkpt lat="45.8220083" lon="11.71155"><ele>134.0</ele><time>2026-05-01T15:25:10.184Z</time></trkpt><trkpt lat="45.8219317" lon="11.7116233"><ele>134.0</ele><time>2026-05-01T15:25:11.186Z</time></trkpt><trkpt lat="45.8218517" lon="11.7117"><ele>134.0</ele><time>2026-05-01T15:25:12.185Z</time></trkpt><trkpt lat="45.821765" lon="11.711775"><ele>134.0</ele><time>2026-05-01T15:25:13.187Z</time></trkpt><trkpt lat="45.8216767" lon="11.7118483"><ele>134.0</ele><time>2026-05-01T15:25:14.185Z</time></trkpt><trkpt lat="45.8215883" lon="11.711935"><ele>134.5</ele><time>2026-05-01T15:25:15.188Z</time></trkpt><trkpt lat="45.8214967" lon="11.7120283"><ele>135.0</ele><time>2026-05-01T15:25:16.188Z</time></trkpt><trkpt lat="45.8214017" lon="11.7121267"><ele>135.5</ele><time>2026-05-01T15:25:17.186Z</time></trkpt><trkpt lat="45.821305" lon="11.7122183"><ele>136.0</ele><time>2026-05-01T15:25:18.186Z</time></trkpt><trkpt lat="45.8212117" lon="11.7123083"><ele>136.0</ele><time>2026-05-01T15:25:19.185Z</time></trkpt><trkpt lat="45.8211167" lon="11.7124"><ele>136.0</ele><time>2026-05-01T15:25:20.189Z</time></trkpt><trkpt lat="45.8210167" lon="11.71249"><ele>136.0</ele><time>2026-05-01T15:25:21.186Z</time></trkpt><trkpt lat="45.8209133" lon="11.71258"><ele>136.0</ele><time>2026-05-01T15:25:22.186Z</time></trkpt><trkpt lat="45.8208117" lon="11.712675"><ele>136.0</ele><time>2026-05-01T15:25:23.186Z</time></trkpt><trkpt lat="45.8207117" lon="11.7127667"><ele>136.0</ele><time>2026-05-01T15:25:24.187Z</time></trkpt><trkpt lat="45.8206117" lon="11.7128617"><ele>136.0</ele><time>2026-05-01T15:25:25.188Z</time></trkpt><trkpt lat="45.820505" lon="11.7129583"><ele>136.0</ele><time>2026-05-01T15:25:26.188Z</time></trkpt><trkpt lat="45.8203967" lon="11.7130583"><ele>136.0</ele><time>2026-05-01T15:25:27.187Z</time></trkpt><trkpt lat="45.8202883" lon="11.7131567"><ele>136.0</ele><time>2026-05-01T15:25:28.186Z</time></trkpt><trkpt lat="45.82018" lon="11.7132633"><ele>136.0</ele><time>2026-05-01T15:25:29.187Z</time></trkpt><trkpt lat="45.8200683" lon="11.7133717"><ele>136.0</ele><time>2026-05-01T15:25:30.185Z</time></trkpt><trkpt lat="45.8199483" lon="11.7134833"><ele>135.75</ele><time>2026-05-01T15:25:31.19Z</time></trkpt><trkpt lat="45.8198283" lon="11.7136017"><ele>135.5</ele><time>2026-05-01T15:25:32.184Z</time></trkpt><trkpt lat="45.8197117" lon="11.7137167"><ele>135.25</ele><time>2026-05-01T15:25:33.189Z</time></trkpt><trkpt lat="45.8196033" lon="11.7138283"><ele>135.0</ele><time>2026-05-01T15:25:34.187Z</time></trkpt><trkpt lat="45.8194983" lon="11.7139483"><ele>135.0</ele><time>2026-05-01T15:25:35.187Z</time></trkpt><trkpt lat="45.8193867" lon="11.71407"><ele>135.0</ele><time>2026-05-01T15:25:36.19Z</time></trkpt><trkpt lat="45.819265" lon="11.7141917"><ele>135.0</ele><time>2026-05-01T15:25:37.186Z</time></trkpt><trkpt lat="45.819145" lon="11.7143167"><ele>135.0</ele><time>2026-05-01T15:25:38.185Z</time></trkpt><trkpt lat="45.8190267" lon="11.7144417"><ele>134.0</ele><time>2026-05-01T15:25:39.185Z</time></trkpt><trkpt lat="45.8189117" lon="11.7145617"><ele>133.0</ele><time>2026-05-01T15:25:40.185Z</time></trkpt><trkpt lat="45.81879" lon="11.7146833"><ele>132.0</ele><time>2026-05-01T15:25:41.19Z</time></trkpt><trkpt lat="45.818665" lon="11.7148017"><ele>131.0</ele><time>2026-05-01T15:25:42.186Z</time></trkpt><trkpt lat="45.8185433" lon="11.7149267"><ele>130.75</ele><time>2026-05-01T15:25:43.188Z</time></trkpt><trkpt lat="45.8184217" lon="11.7150483"><ele>130.5</ele><time>2026-05-01T15:25:44.183Z</time></trkpt><trkpt lat="45.8183" lon="11.715165"><ele>130.25</ele><time>2026-05-01T15:25:45.185Z</time></trkpt><trkpt lat="45.8181817" lon="11.7152667"><ele>130.0</ele><time>2026-05-01T15:25:46.186Z</time></trkpt><trkpt lat="45.8180667" lon="11.715355"><ele>130.0</ele><time>2026-05-01T15:25:47.187Z</time></trkpt><trkpt lat="45.817955" lon="11.7154333"><ele>130.0</ele><time>2026-05-01T15:25:48.187Z</time></trkpt><trkpt lat="45.8178517" lon="11.7155033"><ele>130.0</ele><time>2026-05-01T15:25:49.188Z</time></trkpt><trkpt lat="45.81775" lon="11.7155683"><ele>130.0</ele><time>2026-05-01T15:25:50.187Z</time></trkpt><trkpt lat="45.8176483" lon="11.7156283"><ele>129.2</ele><time>2026-05-01T15:25:51.186Z</time></trkpt><trkpt lat="45.8175517" lon="11.7156883"><ele>128.4</ele><time>2026-05-01T15:25:52.187Z</time></trkpt><trkpt lat="45.817455" lon="11.7157467"><ele>127.6</ele><time>2026-05-01T15:25:53.185Z</time></trkpt><trkpt lat="45.817365" lon="11.715805"><ele>126.8</ele><time>2026-05-01T15:25:54.185Z</time></trkpt><trkpt lat="45.8172783" lon="11.71587"><ele>126.0</ele><time>2026-05-01T15:25:55.185Z</time></trkpt><trkpt lat="45.8171983" lon="11.7159367"><ele>126.0</ele><time>2026-05-01T15:25:56.186Z</time></trkpt><trkpt lat="45.81712" lon="11.7160183"><ele>126.0</ele><time>2026-05-01T15:25:57.187Z</time></trkpt><trkpt lat="45.817055" lon="11.7161233"><ele>126.0</ele><time>2026-05-01T15:25:58.185Z</time></trkpt><trkpt lat="45.817005" lon="11.7162467"><ele>126.0</ele><time>2026-05-01T15:25:59.183Z</time></trkpt><trkpt lat="45.816955" lon="11.7163967"><ele>126.0</ele><time>2026-05-01T15:26:00.184Z</time></trkpt><trkpt lat="45.8169" lon="11.716525"><ele>125.66666666666667</ele><time>2026-05-01T15:26:01.184Z</time></trkpt><trkpt lat="45.816855" lon="11.7166467"><ele>125.33333333333334</ele><time>2026-05-01T15:26:02.189Z</time></trkpt><trkpt lat="45.816815" lon="11.7167517"><ele>125.0</ele><time>2026-05-01T15:26:03.189Z</time></trkpt><trkpt lat="45.816775" lon="11.7168217"><ele>124.66666666666667</ele><time>2026-05-01T15:26:04.188Z</time></trkpt><trkpt lat="45.8167067" lon="11.7169233"><ele>124.33333333333334</ele><time>2026-05-01T15:26:06.185Z</time></trkpt><trkpt lat="45.8166517" lon="11.717045"><ele>124.0</ele><time>2026-05-01T15:26:12.184Z</time></trkpt><trkpt lat="45.8165883" lon="11.7171717"><ele>125.2</ele><time>2026-05-01T15:26:14.186Z</time></trkpt><trkpt lat="45.816525" lon="11.7172383"><ele>126.4</ele><time>2026-05-01T15:26:15.186Z</time></trkpt><trkpt lat="45.81646" lon="11.7173133"><ele>127.6</ele><time>2026-05-01T15:26:16.187Z</time></trkpt><trkpt lat="45.81639" lon="11.7173983"><ele>128.8</ele><time>2026-05-01T15:26:17.183Z</time></trkpt><trkpt lat="45.8163083" lon="11.717485"><ele>130.0</ele><time>2026-05-01T15:26:18.185Z</time></trkpt><trkpt lat="45.8162133" lon="11.7175683"><ele>130.0</ele><time>2026-05-01T15:26:19.187Z</time></trkpt><trkpt lat="45.8161067" lon="11.7176467"><ele>130.0</ele><time>2026-05-01T15:26:20.187Z</time></trkpt><trkpt lat="45.8160017" lon="11.7177283"><ele>130.0</ele><time>2026-05-01T15:26:21.185Z</time></trkpt><trkpt lat="45.815895" lon="11.7178117"><ele>130.0</ele><time>2026-05-01T15:26:22.187Z</time></trkpt><trkpt lat="45.8157817" lon="11.7178917"><ele>129.5</ele><time>2026-05-01T15:26:23.186Z</time></trkpt><trkpt lat="45.8156617" lon="11.7179733"><ele>129.0</ele><time>2026-05-01T15:26:24.189Z</time></trkpt><trkpt lat="45.8155383" lon="11.7180567"><ele>128.5</ele><time>2026-05-01T15:26:25.189Z</time></trkpt><trkpt lat="45.81541" lon="11.71814"><ele>128.0</ele><time>2026-05-01T15:26:26.186Z</time></trkpt><trkpt lat="45.81528" lon="11.7182183"><ele>127.25</ele><time>2026-05-01T15:26:27.188Z</time></trkpt><trkpt lat="45.81515" lon="11.71829"><ele>126.5</ele><time>2026-05-01T15:26:28.185Z</time></trkpt><trkpt lat="45.8150183" lon="11.7183667"><ele>125.75</ele><time>2026-05-01T15:26:29.187Z</time></trkpt><trkpt lat="45.8148867" lon="11.71845"><ele>125.0</ele><time>2026-05-01T15:26:30.188Z</time></trkpt><trkpt lat="45.814755" lon="11.7185217"><ele>126.0</ele><time>2026-05-01T15:26:31.188Z</time></trkpt><trkpt lat="45.8146283" lon="11.7185767"><ele>127.0</ele><time>2026-05-01T15:26:32.184Z</time></trkpt><trkpt lat="45.814505" lon="11.7186417"><ele>128.0</ele><time>2026-05-01T15:26:33.185Z</time></trkpt><trkpt lat="45.8143883" lon="11.7187133"><ele>129.0</ele><time>2026-05-01T15:26:34.186Z</time></trkpt><trkpt lat="45.814275" lon="11.71878"><ele>129.0</ele><time>2026-05-01T15:26:35.183Z</time></trkpt><trkpt lat="45.81417" lon="11.7188483"><ele>129.0</ele><time>2026-05-01T15:26:36.185Z</time></trkpt><trkpt lat="45.8140767" lon="11.7189067"><ele>129.0</ele><time>2026-05-01T15:26:37.189Z</time></trkpt><trkpt lat="45.8139867" lon="11.7189567"><ele>129.0</ele><time>2026-05-01T15:26:38.187Z</time></trkpt><trkpt lat="45.8139" lon="11.7189967"><ele>129.0</ele><time>2026-05-01T15:26:39.186Z</time></trkpt><trkpt lat="45.813815" lon="11.71904"><ele>129.0</ele><time>2026-05-01T15:26:40.185Z</time></trkpt><trkpt lat="45.8137217" lon="11.7190767"><ele>129.0</ele><time>2026-05-01T15:26:41.186Z</time></trkpt><trkpt lat="45.8136167" lon="11.7190983"><ele>129.0</ele><time>2026-05-01T15:26:42.188Z</time></trkpt><trkpt lat="45.8135083" lon="11.7191167"><ele>129.0</ele><time>2026-05-01T15:26:43.187Z</time></trkpt><trkpt lat="45.8133933" lon="11.7191433"><ele>129.0</ele><time>2026-05-01T15:26:44.191Z</time></trkpt><trkpt lat="45.8132817" lon="11.71918"><ele>128.75</ele><time>2026-05-01T15:26:45.186Z</time></trkpt><trkpt lat="45.81317" lon="11.7192233"><ele>128.5</ele><time>2026-05-01T15:26:46.19Z</time></trkpt><trkpt lat="45.8130617" lon="11.719285"><ele>128.25</ele><time>2026-05-01T15:26:47.184Z</time></trkpt><trkpt lat="45.8129483" lon="11.7193367"><ele>128.0</ele><time>2026-05-01T15:26:48.189Z</time></trkpt><trkpt lat="45.8128333" lon="11.7194"><ele>128.0</ele><time>2026-05-01T15:26:49.186Z</time></trkpt><trkpt lat="45.81272" lon="11.7194433"><ele>128.0</ele><time>2026-05-01T15:26:50.186Z</time></trkpt><trkpt lat="45.8126017" lon="11.719485"><ele>128.0</ele><time>2026-05-01T15:26:51.186Z</time></trkpt><trkpt lat="45.8124833" lon="11.71952"><ele>128.0</ele><time>2026-05-01T15:26:52.189Z</time></trkpt><trkpt lat="45.8123617" lon="11.719545"><ele>128.0</ele><time>2026-05-01T15:26:53.186Z</time></trkpt><trkpt lat="45.8122383" lon="11.71957"><ele>128.0</ele><time>2026-05-01T15:26:54.186Z</time></trkpt><trkpt lat="45.81212" lon="11.7195983"><ele>128.0</ele><time>2026-05-01T15:26:55.187Z</time></trkpt><trkpt lat="45.812" lon="11.7196283"><ele>128.0</ele><time>2026-05-01T15:26:56.185Z</time></trkpt><trkpt lat="45.8118767" lon="11.7196517"><ele>128.75</ele><time>2026-05-01T15:26:57.186Z</time></trkpt><trkpt lat="45.8117567" lon="11.7196767"><ele>129.5</ele><time>2026-05-01T15:26:58.185Z</time></trkpt><trkpt lat="45.8116317" lon="11.7196933"><ele>130.25</ele><time>2026-05-01T15:26:59.186Z</time></trkpt><trkpt lat="45.81151" lon="11.719695"><ele>131.0</ele><time>2026-05-01T15:27:00.188Z</time></trkpt><trkpt lat="45.8114" lon="11.7196883"><ele>131.0</ele><time>2026-05-01T15:27:01.186Z</time></trkpt><trkpt lat="45.8113017" lon="11.7196667"><ele>131.0</ele><time>2026-05-01T15:27:02.186Z</time></trkpt><trkpt lat="45.8112033" lon="11.71966"><ele>131.0</ele><time>2026-05-01T15:27:03.186Z</time></trkpt><trkpt lat="45.8110983" lon="11.7196433"><ele>131.0</ele><time>2026-05-01T15:27:04.186Z</time></trkpt><trkpt lat="45.810985" lon="11.71962"><ele>131.0</ele><time>2026-05-01T15:27:05.184Z</time></trkpt><trkpt lat="45.8108633" lon="11.7195867"><ele>128.5</ele><time>2026-05-01T15:27:06.187Z</time></trkpt><trkpt lat="45.8107383" lon="11.7195433"><ele>126.0</ele><time>2026-05-01T15:27:07.186Z</time></trkpt><trkpt lat="45.81061" lon="11.7194933"><ele>123.5</ele><time>2026-05-01T15:27:08.189Z</time></trkpt><trkpt lat="45.8104783" lon="11.719445"><ele>121.0</ele><time>2026-05-01T15:27:09.188Z</time></trkpt><trkpt lat="45.8103417" lon="11.7193983"><ele>121.0</ele><time>2026-05-01T15:27:10.187Z</time></trkpt><trkpt lat="45.8102033" lon="11.7193367"><ele>121.0</ele><time>2026-05-01T15:27:11.185Z</time></trkpt><trkpt lat="45.8100717" lon="11.7192683"><ele>121.0</ele><time>2026-05-01T15:27:12.186Z</time></trkpt><trkpt lat="45.8099517" lon="11.719205"><ele>121.0</ele><time>2026-05-01T15:27:13.187Z</time></trkpt><trkpt lat="45.8098383" lon="11.7191433"><ele>122.5</ele><time>2026-05-01T15:27:14.186Z</time></trkpt><trkpt lat="45.8097267" lon="11.7190833"><ele>124.0</ele><time>2026-05-01T15:27:15.185Z</time></trkpt><trkpt lat="45.8096117" lon="11.7190233"><ele>125.5</ele><time>2026-05-01T15:27:16.19Z</time></trkpt><trkpt lat="45.8094933" lon="11.71896"><ele>127.0</ele><time>2026-05-01T15:27:17.185Z</time></trkpt><trkpt lat="45.80938" lon="11.7188783"><ele>125.5</ele><time>2026-05-01T15:27:18.186Z</time></trkpt><trkpt lat="45.80927" lon="11.7187883"><ele>124.0</ele><time>2026-05-01T15:27:19.185Z</time></trkpt><trkpt lat="45.8091667" lon="11.71869"><ele>122.5</ele><time>2026-05-01T15:27:20.191Z</time></trkpt><trkpt lat="45.8090633" lon="11.7185883"><ele>121.0</ele><time>2026-05-01T15:27:21.187Z</time></trkpt><trkpt lat="45.8089583" lon="11.7185017"><ele>121.0</ele><time>2026-05-01T15:27:22.187Z</time></trkpt><trkpt lat="45.8088533" lon="11.7184233"><ele>121.0</ele><time>2026-05-01T15:27:23.188Z</time></trkpt><trkpt lat="45.8087517" lon="11.7183383"><ele>121.0</ele><time>2026-05-01T15:27:24.187Z</time></trkpt><trkpt lat="45.8086517" lon="11.7182567"><ele>121.0</ele><time>2026-05-01T15:27:25.185Z</time></trkpt><trkpt lat="45.8085567" lon="11.7181933"><ele>122.00000000000001</ele><time>2026-05-01T15:27:26.185Z</time></trkpt><trkpt lat="45.8084633" lon="11.7181517"><ele>123.0</ele><time>2026-05-01T15:27:27.188Z</time></trkpt><trkpt lat="45.8083733" lon="11.71812"><ele>124.0</ele><time>2026-05-01T15:27:28.186Z</time></trkpt><trkpt lat="45.8082917" lon="11.718095"><ele>125.0</ele><time>2026-05-01T15:27:29.186Z</time></trkpt><trkpt lat="45.8082183" lon="11.71806"><ele>126.00000000000001</ele><time>2026-05-01T15:27:30.19Z</time></trkpt><trkpt lat="45.8081483" lon="11.7180067"><ele>127.0</ele><time>2026-05-01T15:27:31.188Z</time></trkpt><trkpt lat="45.8080683" lon="11.7179483"><ele>127.0</ele><time>2026-05-01T15:27:32.186Z</time></trkpt><trkpt lat="45.8079817" lon="11.7179117"><ele>126.99999999999999</ele><time>2026-05-01T15:27:33.186Z</time></trkpt><trkpt lat="45.80791" lon="11.717835"><ele>126.99999999999999</ele><time>2026-05-01T15:27:34.187Z</time></trkpt><trkpt lat="45.8078267" lon="11.71778"><ele>127.0</ele><time>2026-05-01T15:27:35.185Z</time></trkpt><trkpt lat="45.8077217" lon="11.7177783"><ele>127.0</ele><time>2026-05-01T15:27:36.187Z</time></trkpt><trkpt lat="45.8075933" lon="11.7178"><ele>126.25</ele><time>2026-05-01T15:27:37.185Z</time></trkpt><trkpt lat="45.8074583" lon="11.7178133"><ele>125.5</ele><time>2026-05-01T15:27:38.185Z</time></trkpt><trkpt lat="45.8073183" lon="11.7178283"><ele>124.75</ele><time>2026-05-01T15:27:39.191Z</time></trkpt><trkpt lat="45.8071733" lon="11.71784"><ele>124.0</ele><time>2026-05-01T15:27:40.188Z</time></trkpt><trkpt lat="45.80703" lon="11.717855"><ele>124.0</ele><time>2026-05-01T15:27:41.188Z</time></trkpt><trkpt lat="45.8068983" lon="11.71787"><ele>124.0</ele><time>2026-05-01T15:27:42.186Z</time></trkpt><trkpt lat="45.8067817" lon="11.71789"><ele>124.0</ele><time>2026-05-01T15:27:43.185Z</time></trkpt><trkpt lat="45.8066733" lon="11.7179167"><ele>124.0</ele><time>2026-05-01T15:27:44.186Z</time></trkpt><trkpt lat="45.806565" lon="11.71795"><ele>125.00000000000001</ele><time>2026-05-01T15:27:45.186Z</time></trkpt><trkpt lat="45.80646" lon="11.7179833"><ele>126.0</ele><time>2026-05-01T15:27:46.184Z</time></trkpt><trkpt lat="45.8063583" lon="11.7180117"><ele>127.0</ele><time>2026-05-01T15:27:47.184Z</time></trkpt><trkpt lat="45.8062667" lon="11.71803"><ele>128.0</ele><time>2026-05-01T15:27:48.188Z</time></trkpt><trkpt lat="45.80619" lon="11.7180417"><ele>129.0</ele><time>2026-05-01T15:27:49.187Z</time></trkpt><trkpt lat="45.806125" lon="11.7180567"><ele>130.0</ele><time>2026-05-01T15:27:50.186Z</time></trkpt><trkpt lat="45.8060267" lon="11.7180733"><ele>130.6</ele><time>2026-05-01T15:27:52.188Z</time></trkpt><trkpt lat="45.805955" lon="11.71809"><ele>131.2</ele><time>2026-05-01T15:27:54.19Z</time></trkpt><trkpt lat="45.80583" lon="11.7181217"><ele>131.8</ele><time>2026-05-01T15:27:56.185Z</time></trkpt><trkpt lat="45.8057333" lon="11.7181433"><ele>132.4</ele><time>2026-05-01T15:27:57.19Z</time></trkpt><trkpt lat="45.8056283" lon="11.7181567"><ele>133.0</ele><time>2026-05-01T15:27:58.187Z</time></trkpt><trkpt lat="45.80552" lon="11.7181633"><ele>133.0</ele><time>2026-05-01T15:27:59.184Z</time></trkpt><trkpt lat="45.8054083" lon="11.7181717"><ele>133.0</ele><time>2026-05-01T15:28:00.187Z</time></trkpt><trkpt lat="45.8052983" lon="11.7181867"><ele>133.0</ele><time>2026-05-01T15:28:01.189Z</time></trkpt><trkpt lat="45.8051933" lon="11.718195"><ele>133.0</ele><time>2026-05-01T15:28:02.186Z</time></trkpt><trkpt lat="45.805095" lon="11.7182"><ele>133.0</ele><time>2026-05-01T15:28:03.187Z</time></trkpt><trkpt lat="45.8050017" lon="11.7182067"><ele>132.0</ele><time>2026-05-01T15:28:04.185Z</time></trkpt><trkpt lat="45.8049117" lon="11.7182167"><ele>131.0</ele><time>2026-05-01T15:28:05.188Z</time></trkpt><trkpt lat="45.804825" lon="11.718255"><ele>130.0</ele><time>2026-05-01T15:28:06.184Z</time></trkpt><trkpt lat="45.8047467" lon="11.7183333"><ele>129.0</ele><time>2026-05-01T15:28:07.188Z</time></trkpt><trkpt lat="45.8046733" lon="11.71843"><ele>128.0</ele><time>2026-05-01T15:28:08.183Z</time></trkpt><trkpt lat="45.804605" lon="11.7185483"><ele>129.8</ele><time>2026-05-01T15:28:09.187Z</time></trkpt><trkpt lat="45.804525" lon="11.7186367"><ele>131.60000000000002</ele><time>2026-05-01T15:28:10.186Z</time></trkpt><trkpt lat="45.804435" lon="11.7186933"><ele>133.39999999999998</ele><time>2026-05-01T15:28:11.184Z</time></trkpt><trkpt lat="45.8043433" lon="11.7187517"><ele>135.2</ele><time>2026-05-01T15:28:12.183Z</time></trkpt><trkpt lat="45.8042583" lon="11.7188283"><ele>137.0</ele><time>2026-05-01T15:28:13.184Z</time></trkpt><trkpt lat="45.8041817" lon="11.718915"><ele>137.0</ele><time>2026-05-01T15:28:14.186Z</time></trkpt><trkpt lat="45.80411" lon="11.718995"><ele>137.0</ele><time>2026-05-01T15:28:15.187Z</time></trkpt><trkpt lat="45.80404" lon="11.71907"><ele>137.0</ele><time>2026-05-01T15:28:16.187Z</time></trkpt><trkpt lat="45.803965" lon="11.719145"><ele>137.0</ele><time>2026-05-01T15:28:17.187Z</time></trkpt><trkpt lat="45.80389" lon="11.719235"><ele>137.0</ele><time>2026-05-01T15:28:18.186Z</time></trkpt><trkpt lat="45.8038083" lon="11.7193167"><ele>137.0</ele><time>2026-05-01T15:28:19.184Z</time></trkpt><trkpt lat="45.8037317" lon="11.7193867"><ele>137.0</ele><time>2026-05-01T15:28:20.185Z</time></trkpt><trkpt lat="45.80365" lon="11.7194367"><ele>137.0</ele><time>2026-05-01T15:28:21.187Z</time></trkpt><trkpt lat="45.8035733" lon="11.7194733"><ele>137.0</ele><time>2026-05-01T15:28:22.187Z</time></trkpt><trkpt lat="45.8035033" lon="11.7195133"><ele>137.0</ele><time>2026-05-01T15:28:23.185Z</time></trkpt><trkpt lat="45.8033917" lon="11.7195767"><ele>136.79999999999998</ele><time>2026-05-01T15:28:25.185Z</time></trkpt><trkpt lat="45.8032683" lon="11.7196317"><ele>136.6</ele><time>2026-05-01T15:28:27.186Z</time></trkpt><trkpt lat="45.8031883" lon="11.7196767"><ele>136.39999999999998</ele><time>2026-05-01T15:28:28.19Z</time></trkpt><trkpt lat="45.8031033" lon="11.719735"><ele>136.2</ele><time>2026-05-01T15:28:29.188Z</time></trkpt><trkpt lat="45.8030167" lon="11.719795"><ele>136.0</ele><time>2026-05-01T15:28:30.188Z</time></trkpt><trkpt lat="45.8029283" lon="11.7198633"><ele>136.0</ele><time>2026-05-01T15:28:31.187Z</time></trkpt><trkpt lat="45.8028367" lon="11.7199333"><ele>136.0</ele><time>2026-05-01T15:28:32.184Z</time></trkpt><trkpt lat="45.8027433" lon="11.720015"><ele>136.0</ele><time>2026-05-01T15:28:33.188Z</time></trkpt><trkpt lat="45.8026467" lon="11.7201033"><ele>136.0</ele><time>2026-05-01T15:28:34.184Z</time></trkpt><trkpt lat="45.8025517" lon="11.7201933"><ele>136.0</ele><time>2026-05-01T15:28:35.188Z</time></trkpt><trkpt lat="45.802465" lon="11.720275"><ele>136.66666666666669</ele><time>2026-05-01T15:28:36.187Z</time></trkpt><trkpt lat="45.8023817" lon="11.7203517"><ele>137.33333333333334</ele><time>2026-05-01T15:28:37.184Z</time></trkpt><trkpt lat="45.8023083" lon="11.7204233"><ele>138.0</ele><time>2026-05-01T15:28:38.189Z</time></trkpt><trkpt lat="45.8022383" lon="11.720495"><ele>138.66666666666666</ele><time>2026-05-01T15:28:39.185Z</time></trkpt><trkpt lat="45.80217" lon="11.720565"><ele>139.33333333333331</ele><time>2026-05-01T15:28:40.264Z</time></trkpt><trkpt lat="45.80211" lon="11.7206533"><ele>140.0</ele><time>2026-05-01T15:28:41.185Z</time></trkpt><trkpt lat="45.8020617" lon="11.7207483"><ele>140.0</ele><time>2026-05-01T15:28:42.184Z</time></trkpt><trkpt lat="45.8020333" lon="11.720865"><ele>140.0</ele><time>2026-05-01T15:28:43.185Z</time></trkpt><trkpt lat="45.8020133" lon="11.72099"><ele>140.0</ele><time>2026-05-01T15:28:44.186Z</time></trkpt><trkpt lat="45.802" lon="11.7211233"><ele>140.0</ele><time>2026-05-01T15:28:45.186Z</time></trkpt><trkpt lat="45.8019883" lon="11.7212617"><ele>140.0</ele><time>2026-05-01T15:28:46.184Z</time></trkpt><trkpt lat="45.8019667" lon="11.7213883"><ele>140.0</ele><time>2026-05-01T15:28:47.187Z</time></trkpt><trkpt lat="45.8019367" lon="11.7215"><ele>140.0</ele><time>2026-05-01T15:28:48.186Z</time></trkpt><trkpt lat="45.8018883" lon="11.7216"><ele>140.0</ele><time>2026-05-01T15:28:49.184Z</time></trkpt><trkpt lat="45.80183" lon="11.7216933"><ele>140.0</ele><time>2026-05-01T15:28:50.183Z</time></trkpt><trkpt lat="45.80175" lon="11.7217817"><ele>140.0</ele><time>2026-05-01T15:28:51.186Z</time></trkpt><trkpt lat="45.801665" lon="11.7218733"><ele>142.5</ele><time>2026-05-01T15:28:52.185Z</time></trkpt><trkpt lat="45.80158" lon="11.7219783"><ele>145.0</ele><time>2026-05-01T15:28:53.187Z</time></trkpt><trkpt lat="45.8014983" lon="11.7220917"><ele>147.5</ele><time>2026-05-01T15:28:54.185Z</time></trkpt><trkpt lat="45.8014117" lon="11.7221967"><ele>150.0</ele><time>2026-05-01T15:28:55.187Z</time></trkpt><trkpt lat="45.80132" lon="11.7223017"><ele>150.0</ele><time>2026-05-01T15:28:56.184Z</time></trkpt><trkpt lat="45.8012267" lon="11.7224083"><ele>150.0</ele><time>2026-05-01T15:28:57.186Z</time></trkpt><trkpt lat="45.80114" lon="11.72252"><ele>150.0</ele><time>2026-05-01T15:28:58.188Z</time></trkpt><trkpt lat="45.80105" lon="11.7226183"><ele>150.0</ele><time>2026-05-01T15:28:59.186Z</time></trkpt><trkpt lat="45.8009633" lon="11.722715"><ele>150.2</ele><time>2026-05-01T15:29:00.186Z</time></trkpt><trkpt lat="45.8008817" lon="11.7228183"><ele>150.4</ele><time>2026-05-01T15:29:01.186Z</time></trkpt><trkpt lat="45.8007967" lon="11.72292"><ele>150.6</ele><time>2026-05-01T15:29:02.185Z</time></trkpt><trkpt lat="45.8007117" lon="11.7230167"><ele>150.8</ele><time>2026-05-01T15:29:03.184Z</time></trkpt><trkpt lat="45.80063" lon="11.7231133"><ele>151.0</ele><time>2026-05-01T15:29:04.183Z</time></trkpt><trkpt lat="45.8005433" lon="11.72321"><ele>151.0</ele><time>2026-05-01T15:29:05.185Z</time></trkpt><trkpt lat="45.8004467" lon="11.7233033"><ele>151.0</ele><time>2026-05-01T15:29:06.185Z</time></trkpt><trkpt lat="45.80034" lon="11.7234017"><ele>151.0</ele><time>2026-05-01T15:29:07.188Z</time></trkpt><trkpt lat="45.8002233" lon="11.7235117"><ele>151.0</ele><time>2026-05-01T15:29:08.184Z</time></trkpt><trkpt lat="45.8001033" lon="11.723635"><ele>153.0</ele><time>2026-05-01T15:29:09.186Z</time></trkpt><trkpt lat="45.7999733" lon="11.723765"><ele>155.0</ele><time>2026-05-01T15:29:10.186Z</time></trkpt><trkpt lat="45.7998433" lon="11.72389"><ele>157.0</ele><time>2026-05-01T15:29:11.191Z</time></trkpt><trkpt lat="45.79971" lon="11.7240017"><ele>157.0</ele><time>2026-05-01T15:29:12.184Z</time></trkpt><trkpt lat="45.79957" lon="11.7241083"><ele>157.0</ele><time>2026-05-01T15:29:13.186Z</time></trkpt><trkpt lat="45.799435" lon="11.7242233"><ele>157.0</ele><time>2026-05-01T15:29:14.185Z</time></trkpt><trkpt lat="45.7993017" lon="11.724335"><ele>157.25</ele><time>2026-05-01T15:29:15.184Z</time></trkpt><trkpt lat="45.7991817" lon="11.7244317"><ele>157.5</ele><time>2026-05-01T15:29:16.186Z</time></trkpt><trkpt lat="45.7990733" lon="11.7245233"><ele>157.75</ele><time>2026-05-01T15:29:17.186Z</time></trkpt><trkpt lat="45.7989733" lon="11.724605"><ele>158.0</ele><time>2026-05-01T15:29:18.185Z</time></trkpt><trkpt lat="45.7988767" lon="11.7246883"><ele>158.0</ele><time>2026-05-01T15:29:19.187Z</time></trkpt><trkpt lat="45.7987833" lon="11.724785"><ele>158.0</ele><time>2026-05-01T15:29:20.186Z</time></trkpt><trkpt lat="45.7987117" lon="11.72492"><ele>158.0</ele><time>2026-05-01T15:29:21.184Z</time></trkpt><trkpt lat="45.79866" lon="11.7250817"><ele>158.0</ele><time>2026-05-01T15:29:22.184Z</time></trkpt><trkpt lat="45.798615" lon="11.725245"><ele>158.4</ele><time>2026-05-01T15:29:23.184Z</time></trkpt><trkpt lat="45.798575" lon="11.7253983"><ele>158.8</ele><time>2026-05-01T15:29:24.186Z</time></trkpt><trkpt lat="45.798535" lon="11.7255483"><ele>159.2</ele><time>2026-05-01T15:29:25.186Z</time></trkpt><trkpt lat="45.7984983" lon="11.725695"><ele>159.6</ele><time>2026-05-01T15:29:26.186Z</time></trkpt><trkpt lat="45.798465" lon="11.7258317"><ele>160.0</ele><time>2026-05-01T15:29:27.187Z</time></trkpt><trkpt lat="45.7984367" lon="11.7259467"><ele>160.0</ele><time>2026-05-01T15:29:28.187Z</time></trkpt><trkpt lat="45.798415" lon="11.7260483"><ele>160.0</ele><time>2026-05-01T15:29:29.184Z</time></trkpt><trkpt lat="45.798395" lon="11.72614"><ele>160.0</ele><time>2026-05-01T15:29:30.19Z</time></trkpt><trkpt lat="45.7983833" lon="11.726235"><ele>160.0</ele><time>2026-05-01T15:29:31.186Z</time></trkpt><trkpt lat="45.7983783" lon="11.726335"><ele>160.0</ele><time>2026-05-01T15:29:32.183Z</time></trkpt><trkpt lat="45.7984017" lon="11.7264983"><ele>160.0</ele><time>2026-05-01T15:29:34.186Z</time></trkpt><trkpt lat="45.7984167" lon="11.7266267"><ele>160.16666666666669</ele><time>2026-05-01T15:29:36.185Z</time></trkpt><trkpt lat="45.7984133" lon="11.72673"><ele>160.33333333333334</ele><time>2026-05-01T15:29:38.187Z</time></trkpt><trkpt lat="45.7983983" lon="11.726885"><ele>160.5</ele><time>2026-05-01T15:29:40.188Z</time></trkpt><trkpt lat="45.7984017" lon="11.72698"><ele>160.66666666666666</ele><time>2026-05-01T15:29:41.187Z</time></trkpt><trkpt lat="45.7984267" lon="11.7270683"><ele>160.83333333333331</ele><time>2026-05-01T15:29:42.188Z</time></trkpt><trkpt lat="45.7984683" lon="11.7271433"><ele>161.0</ele><time>2026-05-01T15:29:43.186Z</time></trkpt><trkpt lat="45.7985167" lon="11.7272233"><ele>161.33333333333331</ele><time>2026-05-01T15:29:44.19Z</time></trkpt><trkpt lat="45.798555" lon="11.7273233"><ele>161.66666666666666</ele><time>2026-05-01T15:29:45.189Z</time></trkpt><trkpt lat="45.798595" lon="11.7274283"><ele>162.0</ele><time>2026-05-01T15:29:46.186Z</time></trkpt><trkpt lat="45.79863" lon="11.7275333"><ele>162.33333333333334</ele><time>2026-05-01T15:29:47.184Z</time></trkpt><trkpt lat="45.7986683" lon="11.7276467"><ele>162.66666666666669</ele><time>2026-05-01T15:29:48.186Z</time></trkpt><trkpt lat="45.79871" lon="11.727765"><ele>163.0</ele><time>2026-05-01T15:29:49.187Z</time></trkpt><trkpt lat="45.7987533" lon="11.7278883"><ele>163.25</ele><time>2026-05-01T15:29:50.187Z</time></trkpt><trkpt lat="45.7988" lon="11.7280233"><ele>163.5</ele><time>2026-05-01T15:29:51.186Z</time></trkpt><trkpt lat="45.79885" lon="11.7281683"><ele>163.75</ele><time>2026-05-01T15:29:52.189Z</time></trkpt><trkpt lat="45.7989067" lon="11.7283317"><ele>164.0</ele><time>2026-05-01T15:29:53.187Z</time></trkpt><trkpt lat="45.7989767" lon="11.7285117"><ele>163.33333333333331</ele><time>2026-05-01T15:29:54.184Z</time></trkpt><trkpt lat="45.79905" lon="11.72871"><ele>162.66666666666666</ele><time>2026-05-01T15:29:55.187Z</time></trkpt><trkpt lat="45.7991183" lon="11.728925"><ele>162.0</ele><time>2026-05-01T15:29:56.187Z</time></trkpt><trkpt lat="45.7991867" lon="11.7291283"><ele>162.0</ele><time>2026-05-01T15:29:57.185Z</time></trkpt><trkpt lat="45.7992467" lon="11.7293183"><ele>162.0</ele><time>2026-05-01T15:29:58.185Z</time></trkpt><trkpt lat="45.7993067" lon="11.7295017"><ele>162.0</ele><time>2026-05-01T15:29:59.185Z</time></trkpt><trkpt lat="45.7993717" lon="11.7296817"><ele>162.0</ele><time>2026-05-01T15:30:00.186Z</time></trkpt><trkpt lat="45.799435" lon="11.7298617"><ele>162.25</ele><time>2026-05-01T15:30:01.19Z</time></trkpt><trkpt lat="45.7994967" lon="11.730045"><ele>162.5</ele><time>2026-05-01T15:30:02.185Z</time></trkpt><trkpt lat="45.79957" lon="11.7302183"><ele>162.75</ele><time>2026-05-01T15:30:03.184Z</time></trkpt><trkpt lat="45.799655" lon="11.7303883"><ele>163.0</ele><time>2026-05-01T15:30:04.188Z</time></trkpt><trkpt lat="45.799745" lon="11.73055"><ele>163.0</ele><time>2026-05-01T15:30:05.186Z</time></trkpt><trkpt lat="45.7998283" lon="11.730695"><ele>163.0</ele><time>2026-05-01T15:30:06.187Z</time></trkpt><trkpt lat="45.79991" lon="11.7308217"><ele>163.0</ele><time>2026-05-01T15:30:07.186Z</time></trkpt><trkpt lat="45.799995" lon="11.73094"><ele>163.0</ele><time>2026-05-01T15:30:08.186Z</time></trkpt><trkpt lat="45.80007" lon="11.73105"><ele>163.0</ele><time>2026-05-01T15:30:09.188Z</time></trkpt><trkpt lat="45.8001333" lon="11.7311333"><ele>163.0</ele><time>2026-05-01T15:30:10.188Z</time></trkpt><trkpt lat="45.8001867" lon="11.73119"><ele>163.0</ele><time>2026-05-01T15:30:11.187Z</time></trkpt><trkpt lat="45.800205" lon="11.7313367"><ele>163.0</ele><time>2026-05-01T15:30:13.265Z</time></trkpt><trkpt lat="45.800145" lon="11.731405"><ele>163.0</ele><time>2026-05-01T15:30:14.184Z</time></trkpt><trkpt lat="45.800055" lon="11.7314833"><ele>163.0</ele><time>2026-05-01T15:30:15.187Z</time></trkpt><trkpt lat="45.7999683" lon="11.7315783"><ele>163.0</ele><time>2026-05-01T15:30:16.267Z</time></trkpt><trkpt lat="45.79988" lon="11.7316917"><ele>163.0</ele><time>2026-05-01T15:30:17.186Z</time></trkpt><trkpt lat="45.7997867" lon="11.73181"><ele>163.0</ele><time>2026-05-01T15:30:18.189Z</time></trkpt><trkpt lat="45.79969" lon="11.7319267"><ele>163.0</ele><time>2026-05-01T15:30:19.184Z</time></trkpt><trkpt lat="45.799595" lon="11.7320583"><ele>162.0</ele><time>2026-05-01T15:30:20.185Z</time></trkpt><trkpt lat="45.7994967" lon="11.732205"><ele>161.0</ele><time>2026-05-01T15:30:21.187Z</time></trkpt><trkpt lat="45.7993983" lon="11.732375"><ele>160.0</ele><time>2026-05-01T15:30:22.185Z</time></trkpt><trkpt lat="45.7992967" lon="11.7325567"><ele>161.33333333333334</ele><time>2026-05-01T15:30:23.184Z</time></trkpt><trkpt lat="45.7992" lon="11.7327367"><ele>162.66666666666666</ele><time>2026-05-01T15:30:24.187Z</time></trkpt><trkpt lat="45.7991017" lon="11.7329167"><ele>164.0</ele><time>2026-05-01T15:30:25.186Z</time></trkpt><trkpt lat="45.7989933" lon="11.7330917"><ele>164.0</ele><time>2026-05-01T15:30:26.185Z</time></trkpt><trkpt lat="45.7988717" lon="11.7332533"><ele>164.0</ele><time>2026-05-01T15:30:27.187Z</time></trkpt><trkpt lat="45.7987367" lon="11.733395"><ele>164.0</ele><time>2026-05-01T15:30:28.185Z</time></trkpt><trkpt lat="45.7985983" lon="11.73352"><ele>163.75</ele><time>2026-05-01T15:30:29.188Z</time></trkpt><trkpt lat="45.7984683" lon="11.7336333"><ele>163.5</ele><time>2026-05-01T15:30:30.188Z</time></trkpt><trkpt lat="45.7983483" lon="11.733745"><ele>163.25</ele><time>2026-05-01T15:30:31.189Z</time></trkpt><trkpt lat="45.7982433" lon="11.7338867"><ele>163.0</ele><time>2026-05-01T15:30:32.187Z</time></trkpt><trkpt lat="45.7981367" lon="11.7340467"><ele>163.0</ele><time>2026-05-01T15:30:33.188Z</time></trkpt><trkpt lat="45.7980417" lon="11.7342183"><ele>163.0</ele><time>2026-05-01T15:30:34.186Z</time></trkpt><trkpt lat="45.7979583" lon="11.7344017"><ele>163.0</ele><time>2026-05-01T15:30:35.187Z</time></trkpt><trkpt lat="45.797885" lon="11.734575"><ele>163.0</ele><time>2026-05-01T15:30:36.189Z</time></trkpt><trkpt lat="45.7978033" lon="11.7347367"><ele>163.0</ele><time>2026-05-01T15:30:37.185Z</time></trkpt><trkpt lat="45.7977067" lon="11.734885"><ele>163.0</ele><time>2026-05-01T15:30:38.184Z</time></trkpt><trkpt lat="45.7975883" lon="11.7350167"><ele>163.0</ele><time>2026-05-01T15:30:39.187Z</time></trkpt><trkpt lat="45.7974567" lon="11.7351367"><ele>163.0</ele><time>2026-05-01T15:30:40.188Z</time></trkpt><trkpt lat="45.7973167" lon="11.735255"><ele>166.33333333333334</ele><time>2026-05-01T15:30:41.188Z</time></trkpt><trkpt lat="45.79718" lon="11.73537"><ele>169.66666666666666</ele><time>2026-05-01T15:30:42.186Z</time></trkpt><trkpt lat="45.79704" lon="11.7354633"><ele>173.0</ele><time>2026-05-01T15:30:43.189Z</time></trkpt><trkpt lat="45.7969" lon="11.7355517"><ele>170.33333333333331</ele><time>2026-05-01T15:30:44.187Z</time></trkpt><trkpt lat="45.7967617" lon="11.73565"><ele>167.66666666666666</ele><time>2026-05-01T15:30:45.186Z</time></trkpt><trkpt lat="45.7966333" lon="11.7357733"><ele>165.0</ele><time>2026-05-01T15:30:46.186Z</time></trkpt><trkpt lat="45.7965167" lon="11.7359017"><ele>165.0</ele><time>2026-05-01T15:30:47.186Z</time></trkpt><trkpt lat="45.7964017" lon="11.73601"><ele>165.0</ele><time>2026-05-01T15:30:48.185Z</time></trkpt><trkpt lat="45.7962867" lon="11.73609"><ele>165.0</ele><time>2026-05-01T15:30:49.185Z</time></trkpt><trkpt lat="45.7961733" lon="11.7361533"><ele>165.0</ele><time>2026-05-01T15:30:50.189Z</time></trkpt><trkpt lat="45.7960683" lon="11.7362133"><ele>164.75</ele><time>2026-05-01T15:30:51.186Z</time></trkpt><trkpt lat="45.7959817" lon="11.7363017"><ele>164.5</ele><time>2026-05-01T15:30:52.188Z</time></trkpt><trkpt lat="45.7959067" lon="11.7364333"><ele>164.25</ele><time>2026-05-01T15:30:53.187Z</time></trkpt><trkpt lat="45.795835" lon="11.736595"><ele>164.0</ele><time>2026-05-01T15:30:54.183Z</time></trkpt><trkpt lat="45.79576" lon="11.736765"><ele>166.0</ele><time>2026-05-01T15:30:55.186Z</time></trkpt><trkpt lat="45.7956867" lon="11.736955"><ele>168.0</ele><time>2026-05-01T15:30:56.187Z</time></trkpt><trkpt lat="45.7956217" lon="11.7371767"><ele>170.0</ele><time>2026-05-01T15:30:57.186Z</time></trkpt><trkpt lat="45.7955683" lon="11.73741"><ele>170.0</ele><time>2026-05-01T15:30:58.187Z</time></trkpt><trkpt lat="45.7955217" lon="11.7376483"><ele>170.0</ele><time>2026-05-01T15:30:59.185Z</time></trkpt><trkpt lat="45.7954683" lon="11.7378933"><ele>170.0</ele><time>2026-05-01T15:31:00.185Z</time></trkpt><trkpt lat="45.79541" lon="11.7381433"><ele>172.0</ele><time>2026-05-01T15:31:01.184Z</time></trkpt><trkpt lat="45.7953617" lon="11.73841"><ele>174.0</ele><time>2026-05-01T15:31:02.185Z</time></trkpt><trkpt lat="45.7953117" lon="11.7386683"><ele>176.0</ele><time>2026-05-01T15:31:03.184Z</time></trkpt><trkpt lat="45.795265" lon="11.738915"><ele>178.0</ele><time>2026-05-01T15:31:04.188Z</time></trkpt><trkpt lat="45.7952283" lon="11.7391517"><ele>180.0</ele><time>2026-05-01T15:31:05.191Z</time></trkpt><trkpt lat="45.7951917" lon="11.73939"><ele>182.0</ele><time>2026-05-01T15:31:06.184Z</time></trkpt><trkpt lat="45.7951567" lon="11.7396333"><ele>177.33333333333331</ele><time>2026-05-01T15:31:07.184Z</time></trkpt><trkpt lat="45.7951267" lon="11.7398667"><ele>172.66666666666666</ele><time>2026-05-01T15:31:08.185Z</time></trkpt><trkpt lat="45.7950967" lon="11.740095"><ele>168.0</ele><time>2026-05-01T15:31:09.185Z</time></trkpt><trkpt lat="45.79505" lon="11.7403183"><ele>168.0</ele><time>2026-05-01T15:31:10.184Z</time></trkpt><trkpt lat="45.7950033" lon="11.7405317"><ele>168.0</ele><time>2026-05-01T15:31:11.186Z</time></trkpt><trkpt lat="45.7949567" lon="11.7407283"><ele>168.0</ele><time>2026-05-01T15:31:12.186Z</time></trkpt><trkpt lat="45.7949" lon="11.7409017"><ele>168.0</ele><time>2026-05-01T15:31:13.185Z</time></trkpt><trkpt lat="45.7948367" lon="11.7410617"><ele>168.25</ele><time>2026-05-01T15:31:14.188Z</time></trkpt><trkpt lat="45.7947567" lon="11.74122"><ele>168.5</ele><time>2026-05-01T15:31:15.186Z</time></trkpt><trkpt lat="45.7946667" lon="11.7413717"><ele>168.75</ele><time>2026-05-01T15:31:16.185Z</time></trkpt><trkpt lat="45.7945733" lon="11.74152"><ele>169.0</ele><time>2026-05-01T15:31:17.184Z</time></trkpt><trkpt lat="45.7944917" lon="11.7416667"><ele>169.0</ele><time>2026-05-01T15:31:18.185Z</time></trkpt><trkpt lat="45.794415" lon="11.7418133"><ele>169.0</ele><time>2026-05-01T15:31:19.187Z</time></trkpt><trkpt lat="45.79434" lon="11.7419667"><ele>169.0</ele><time>2026-05-01T15:31:20.186Z</time></trkpt><trkpt lat="45.794285" lon="11.74215"><ele>169.0</ele><time>2026-05-01T15:31:21.187Z</time></trkpt><trkpt lat="45.7942383" lon="11.7423383"><ele>168.75</ele><time>2026-05-01T15:31:22.187Z</time></trkpt><trkpt lat="45.7942017" lon="11.7425283"><ele>168.5</ele><time>2026-05-01T15:31:23.185Z</time></trkpt><trkpt lat="45.79417" lon="11.7427217"><ele>168.25</ele><time>2026-05-01T15:31:24.186Z</time></trkpt><trkpt lat="45.7941633" lon="11.7429467"><ele>168.0</ele><time>2026-05-01T15:31:25.265Z</time></trkpt><trkpt lat="45.794165" lon="11.7431983"><ele>167.66666666666666</ele><time>2026-05-01T15:31:26.186Z</time></trkpt><trkpt lat="45.7941783" lon="11.7434567"><ele>167.33333333333331</ele><time>2026-05-01T15:31:27.189Z</time></trkpt><trkpt lat="45.79419" lon="11.74372"><ele>167.0</ele><time>2026-05-01T15:31:28.187Z</time></trkpt><trkpt lat="45.7942" lon="11.7439883"><ele>166.33333333333331</ele><time>2026-05-01T15:31:29.184Z</time></trkpt><trkpt lat="45.7942083" lon="11.744265"><ele>165.66666666666666</ele><time>2026-05-01T15:31:30.185Z</time></trkpt><trkpt lat="45.7942217" lon="11.7445467"><ele>165.0</ele><time>2026-05-01T15:31:31.187Z</time></trkpt><trkpt lat="45.7942367" lon="11.7448267"><ele>165.0</ele><time>2026-05-01T15:31:32.186Z</time></trkpt><trkpt lat="45.7942517" lon="11.7451067"><ele>165.0</ele><time>2026-05-01T15:31:33.186Z</time></trkpt><trkpt lat="45.7942633" lon="11.7453917"><ele>165.0</ele><time>2026-05-01T15:31:34.186Z</time></trkpt><trkpt lat="45.7942783" lon="11.7456783"><ele>164.0</ele><time>2026-05-01T15:31:35.187Z</time></trkpt><trkpt lat="45.7942933" lon="11.7459683"><ele>163.0</ele><time>2026-05-01T15:31:36.187Z</time></trkpt><trkpt lat="45.79431" lon="11.74626"><ele>162.0</ele><time>2026-05-01T15:31:37.191Z</time></trkpt><trkpt lat="45.7943267" lon="11.746555"><ele>161.66666666666666</ele><time>2026-05-01T15:31:38.188Z</time></trkpt><trkpt lat="45.7943433" lon="11.7468483"><ele>161.33333333333331</ele><time>2026-05-01T15:31:39.186Z</time></trkpt><trkpt lat="45.7943567" lon="11.7471467"><ele>161.0</ele><time>2026-05-01T15:31:40.188Z</time></trkpt><trkpt lat="45.7943717" lon="11.7474433"><ele>160.33333333333331</ele><time>2026-05-01T15:31:41.184Z</time></trkpt><trkpt lat="45.794385" lon="11.7477317"><ele>159.66666666666666</ele><time>2026-05-01T15:31:42.184Z</time></trkpt><trkpt lat="45.7943933" lon="11.748005"><ele>159.0</ele><time>2026-05-01T15:31:43.186Z</time></trkpt><trkpt lat="45.794405" lon="11.748275"><ele>160.0</ele><time>2026-05-01T15:31:44.186Z</time></trkpt><trkpt lat="45.79442" lon="11.7485433"><ele>161.0</ele><time>2026-05-01T15:31:45.189Z</time></trkpt><trkpt lat="45.7944417" lon="11.74881"><ele>162.0</ele><time>2026-05-01T15:31:46.187Z</time></trkpt><trkpt lat="45.7944683" lon="11.7490733"><ele>162.0</ele><time>2026-05-01T15:31:47.184Z</time></trkpt><trkpt lat="45.79451" lon="11.7493367"><ele>162.0</ele><time>2026-05-01T15:31:48.186Z</time></trkpt><trkpt lat="45.7945633" lon="11.7495983"><ele>162.0</ele><time>2026-05-01T15:31:49.186Z</time></trkpt><trkpt lat="45.79462" lon="11.7498617"><ele>162.0</ele><time>2026-05-01T15:31:50.186Z</time></trkpt><trkpt lat="45.7946767" lon="11.75012"><ele>162.0</ele><time>2026-05-01T15:31:51.187Z</time></trkpt><trkpt lat="45.79473" lon="11.7503617"><ele>162.0</ele><time>2026-05-01T15:31:52.187Z</time></trkpt><trkpt lat="45.7947883" lon="11.7505833"><ele>162.0</ele><time>2026-05-01T15:31:53.183Z</time></trkpt><trkpt lat="45.7948433" lon="11.7507933"><ele>162.0</ele><time>2026-05-01T15:31:54.184Z</time></trkpt><trkpt lat="45.7949083" lon="11.751"><ele>162.0</ele><time>2026-05-01T15:31:55.19Z</time></trkpt><trkpt lat="45.7949867" lon="11.7511967"><ele>162.0</ele><time>2026-05-01T15:31:56.185Z</time></trkpt><trkpt lat="45.795065" lon="11.75139"><ele>162.0</ele><time>2026-05-01T15:31:57.185Z</time></trkpt><trkpt lat="45.795135" lon="11.7515933"><ele>162.0</ele><time>2026-05-01T15:31:58.186Z</time></trkpt><trkpt lat="45.795205" lon="11.7518"><ele>163.0</ele><time>2026-05-01T15:31:59.185Z</time></trkpt><trkpt lat="45.79526" lon="11.7520217"><ele>164.0</ele><time>2026-05-01T15:32:00.186Z</time></trkpt><trkpt lat="45.7953117" lon="11.7522517"><ele>165.0</ele><time>2026-05-01T15:32:01.185Z</time></trkpt><trkpt lat="45.7953667" lon="11.7524817"><ele>165.66666666666666</ele><time>2026-05-01T15:32:02.186Z</time></trkpt><trkpt lat="45.7954217" lon="11.7527167"><ele>166.33333333333331</ele><time>2026-05-01T15:32:03.186Z</time></trkpt><trkpt lat="45.7954733" lon="11.752955"><ele>167.0</ele><time>2026-05-01T15:32:04.184Z</time></trkpt><trkpt lat="45.79553" lon="11.7531933"><ele>167.0</ele><time>2026-05-01T15:32:05.187Z</time></trkpt><trkpt lat="45.7955883" lon="11.7534367"><ele>167.0</ele><time>2026-05-01T15:32:06.186Z</time></trkpt><trkpt lat="45.79565" lon="11.753675"><ele>167.0</ele><time>2026-05-01T15:32:07.185Z</time></trkpt><trkpt lat="45.7957017" lon="11.7539017"><ele>167.66666666666666</ele><time>2026-05-01T15:32:08.184Z</time></trkpt><trkpt lat="45.7957483" lon="11.7541183"><ele>168.33333333333334</ele><time>2026-05-01T15:32:09.188Z</time></trkpt><trkpt lat="45.7957967" lon="11.7543383"><ele>169.0</ele><time>2026-05-01T15:32:10.185Z</time></trkpt><trkpt lat="45.7958567" lon="11.7545567"><ele>169.33333333333334</ele><time>2026-05-01T15:32:11.187Z</time></trkpt><trkpt lat="45.7959317" lon="11.7547683"><ele>169.66666666666666</ele><time>2026-05-01T15:32:12.185Z</time></trkpt><trkpt lat="45.796015" lon="11.7549833"><ele>170.0</ele><time>2026-05-01T15:32:13.186Z</time></trkpt><trkpt lat="45.7961033" lon="11.7551883"><ele>170.75</ele><time>2026-05-01T15:32:14.186Z</time></trkpt><trkpt lat="45.796185" lon="11.755375"><ele>171.5</ele><time>2026-05-01T15:32:15.186Z</time></trkpt><trkpt lat="45.796265" lon="11.7555517"><ele>172.25</ele><time>2026-05-01T15:32:16.184Z</time></trkpt><trkpt lat="45.79634" lon="11.7557283"><ele>173.0</ele><time>2026-05-01T15:32:17.184Z</time></trkpt><trkpt lat="45.7964067" lon="11.7559"><ele>172.75</ele><time>2026-05-01T15:32:18.264Z</time></trkpt><trkpt lat="45.7964683" lon="11.75606"><ele>172.5</ele><time>2026-05-01T15:32:19.186Z</time></trkpt><trkpt lat="45.796525" lon="11.7562117"><ele>172.25</ele><time>2026-05-01T15:32:20.184Z</time></trkpt><trkpt lat="45.79657" lon="11.75638"><ele>172.0</ele><time>2026-05-01T15:32:21.184Z</time></trkpt><trkpt lat="45.7966167" lon="11.756555"><ele>172.0</ele><time>2026-05-01T15:32:22.187Z</time></trkpt><trkpt lat="45.7966733" lon="11.75673"><ele>172.0</ele><time>2026-05-01T15:32:23.186Z</time></trkpt><trkpt lat="45.7967417" lon="11.7568833"><ele>172.0</ele><time>2026-05-01T15:32:24.185Z</time></trkpt><trkpt lat="45.7968083" lon="11.7570167"><ele>172.0</ele><time>2026-05-01T15:32:25.186Z</time></trkpt><trkpt lat="45.7968483" lon="11.7571267"><ele>172.2</ele><time>2026-05-01T15:32:26.187Z</time></trkpt><trkpt lat="45.7968817" lon="11.7572067"><ele>172.39999999999998</ele><time>2026-05-01T15:32:27.184Z</time></trkpt><trkpt lat="45.7968617" lon="11.7573983"><ele>172.60000000000002</ele><time>2026-05-01T15:33:07.186Z</time></trkpt><trkpt lat="45.7967367" lon="11.7575517"><ele>172.8</ele><time>2026-05-01T15:33:30.187Z</time></trkpt><trkpt lat="45.796685" lon="11.7576133"><ele>173.0</ele><time>2026-05-01T15:33:33.185Z</time></trkpt><trkpt lat="45.79662" lon="11.7576583"><ele>172.33333333333331</ele><time>2026-05-01T15:33:38.189Z</time></trkpt><trkpt lat="45.7965683" lon="11.7577133"><ele>171.66666666666666</ele><time>2026-05-01T15:33:41.183Z</time></trkpt><trkpt lat="45.7965067" lon="11.757785"><ele>171.0</ele><time>2026-05-01T15:33:44.186Z</time></trkpt><trkpt lat="45.7964333" lon="11.757855"><ele>170.33333333333334</ele><time>2026-05-01T15:33:47.185Z</time></trkpt><trkpt lat="45.7963817" lon="11.75793"><ele>169.66666666666669</ele><time>2026-05-01T15:33:50.185Z</time></trkpt><trkpt lat="45.7963267" lon="11.7580083"><ele>169.0</ele><time>2026-05-01T15:33:56.185Z</time></trkpt><trkpt lat="45.7962983" lon="11.7580983"><ele>169.0</ele><time>2026-05-01T15:33:59.185Z</time></trkpt><trkpt lat="45.796275" lon="11.7581833"><ele>169.0</ele><time>2026-05-01T15:34:02.187Z</time></trkpt><trkpt lat="45.79623" lon="11.758255"><ele>169.0</ele><time>2026-05-01T15:34:04.186Z</time></trkpt><trkpt lat="45.7961683" lon="11.7583533"><ele>169.0</ele><time>2026-05-01T15:34:06.184Z</time></trkpt><trkpt lat="45.796155" lon="11.75848"><ele>169.0</ele><time>2026-05-01T15:34:08.186Z</time></trkpt><trkpt lat="45.79623" lon="11.7585867"><ele>169.0</ele><time>2026-05-01T15:34:10.185Z</time></trkpt><trkpt lat="45.7962867" lon="11.7586383"><ele>169.33333333333334</ele><time>2026-05-01T15:34:11.186Z</time></trkpt><trkpt lat="45.7963617" lon="11.758685"><ele>169.66666666666669</ele><time>2026-05-01T15:34:12.185Z</time></trkpt><trkpt lat="45.796425" lon="11.758765"><ele>170.0</ele><time>2026-05-01T15:34:13.185Z</time></trkpt><trkpt lat="45.79648" lon="11.7588533"><ele>170.33333333333334</ele><time>2026-05-01T15:34:14.185Z</time></trkpt><trkpt lat="45.7965417" lon="11.7589433"><ele>170.66666666666666</ele><time>2026-05-01T15:34:15.185Z</time></trkpt><trkpt lat="45.7966083" lon="11.759045"><ele>171.0</ele><time>2026-05-01T15:34:16.184Z</time></trkpt><trkpt lat="45.796675" lon="11.7591617"><ele>171.0</ele><time>2026-05-01T15:34:17.187Z</time></trkpt><trkpt lat="45.79675" lon="11.75929"><ele>171.0</ele><time>2026-05-01T15:34:18.185Z</time></trkpt><trkpt lat="45.7968533" lon="11.7594417"><ele>171.0</ele><time>2026-05-01T15:34:19.186Z</time></trkpt><trkpt lat="45.7969817" lon="11.7596033"><ele>171.0</ele><time>2026-05-01T15:34:20.188Z</time></trkpt><trkpt lat="45.7971167" lon="11.75979"><ele>171.33333333333334</ele><time>2026-05-01T15:34:21.185Z</time></trkpt><trkpt lat="45.7972467" lon="11.7599733"><ele>171.66666666666669</ele><time>2026-05-01T15:34:22.186Z</time></trkpt><trkpt lat="45.7973733" lon="11.76015"><ele>172.0</ele><time>2026-05-01T15:34:23.185Z</time></trkpt><trkpt lat="45.7975" lon="11.7603267"><ele>173.33333333333334</ele><time>2026-05-01T15:34:24.186Z</time></trkpt><trkpt lat="45.7976233" lon="11.7605117"><ele>174.66666666666666</ele><time>2026-05-01T15:34:25.188Z</time></trkpt><trkpt lat="45.7977467" lon="11.7607"><ele>176.0</ele><time>2026-05-01T15:34:26.189Z</time></trkpt><trkpt lat="45.7978717" lon="11.7608967"><ele>177.33333333333331</ele><time>2026-05-01T15:34:27.187Z</time></trkpt><trkpt lat="45.7979983" lon="11.7611033"><ele>178.66666666666666</ele><time>2026-05-01T15:34:28.184Z</time></trkpt><trkpt lat="45.7981367" lon="11.7613117"><ele>180.0</ele><time>2026-05-01T15:34:29.185Z</time></trkpt><trkpt lat="45.79827" lon="11.761505"><ele>180.0</ele><time>2026-05-01T15:34:30.187Z</time></trkpt><trkpt lat="45.7984017" lon="11.7616933"><ele>180.0</ele><time>2026-05-01T15:34:31.189Z</time></trkpt><trkpt lat="45.798535" lon="11.76189"><ele>180.0</ele><time>2026-05-01T15:34:32.185Z</time></trkpt><trkpt lat="45.7986717" lon="11.7620883"><ele>181.33333333333334</ele><time>2026-05-01T15:34:33.187Z</time></trkpt><trkpt lat="45.7988" lon="11.7622783"><ele>182.66666666666669</ele><time>2026-05-01T15:34:34.185Z</time></trkpt><trkpt lat="45.798915" lon="11.7624483"><ele>184.0</ele><time>2026-05-01T15:34:35.184Z</time></trkpt><trkpt lat="45.7990133" lon="11.7626017"><ele>185.5</ele><time>2026-05-01T15:34:36.188Z</time></trkpt><trkpt lat="45.7991067" lon="11.7627217"><ele>187.0</ele><time>2026-05-01T15:34:37.186Z</time></trkpt><trkpt lat="45.7992233" lon="11.7628183"><ele>188.5</ele><time>2026-05-01T15:34:38.185Z</time></trkpt><trkpt lat="45.7993633" lon="11.762905"><ele>190.0</ele><time>2026-05-01T15:34:39.186Z</time></trkpt><trkpt lat="45.799525" lon="11.762985"><ele>190.0</ele><time>2026-05-01T15:34:40.183Z</time></trkpt><trkpt lat="45.7996933" lon="11.7630667"><ele>190.0</ele><time>2026-05-01T15:34:41.185Z</time></trkpt><trkpt lat="45.7998533" lon="11.7631417"><ele>190.0</ele><time>2026-05-01T15:34:42.186Z</time></trkpt><trkpt lat="45.8000117" lon="11.7632183"><ele>189.33333333333334</ele><time>2026-05-01T15:34:43.187Z</time></trkpt><trkpt lat="45.8001667" lon="11.7632967"><ele>188.66666666666666</ele><time>2026-05-01T15:34:44.189Z</time></trkpt><trkpt lat="45.800315" lon="11.7633683"><ele>188.0</ele><time>2026-05-01T15:34:45.187Z</time></trkpt><trkpt lat="45.8004633" lon="11.7634383"><ele>188.0</ele><time>2026-05-01T15:34:46.188Z</time></trkpt><trkpt lat="45.8006133" lon="11.7635117"><ele>188.0</ele><time>2026-05-01T15:34:47.184Z</time></trkpt><trkpt lat="45.8007667" lon="11.7635867"><ele>188.0</ele><time>2026-05-01T15:34:48.185Z</time></trkpt><trkpt lat="45.8009217" lon="11.7636617"><ele>190.25</ele><time>2026-05-01T15:34:49.186Z</time></trkpt><trkpt lat="45.801065" lon="11.7637333"><ele>192.5</ele><time>2026-05-01T15:34:50.189Z</time></trkpt><trkpt lat="45.8012017" lon="11.7638"><ele>194.75</ele><time>2026-05-01T15:34:51.188Z</time></trkpt><trkpt lat="45.8013383" lon="11.7638683"><ele>197.0</ele><time>2026-05-01T15:34:52.188Z</time></trkpt><trkpt lat="45.8014767" lon="11.7639383"><ele>197.0</ele><time>2026-05-01T15:34:53.186Z</time></trkpt><trkpt lat="45.8016133" lon="11.7640117"><ele>197.0</ele><time>2026-05-01T15:34:54.186Z</time></trkpt><trkpt lat="45.8017433" lon="11.76411"><ele>197.0</ele><time>2026-05-01T15:34:55.186Z</time></trkpt><trkpt lat="45.8018667" lon="11.7642417"><ele>197.0</ele><time>2026-05-01T15:34:56.188Z</time></trkpt><trkpt lat="45.8019833" lon="11.7644067"><ele>198.0</ele><time>2026-05-01T15:34:57.188Z</time></trkpt><trkpt lat="45.8020917" lon="11.7645817"><ele>199.0</ele><time>2026-05-01T15:34:58.19Z</time></trkpt><trkpt lat="45.80219" lon="11.7647383"><ele>200.0</ele><time>2026-05-01T15:34:59.19Z</time></trkpt><trkpt lat="45.80228" lon="11.764885"><ele>201.0</ele><time>2026-05-01T15:35:00.185Z</time></trkpt><trkpt lat="45.8023667" lon="11.76502"><ele>201.0</ele><time>2026-05-01T15:35:01.19Z</time></trkpt><trkpt lat="45.80245" lon="11.7651517"><ele>201.0</ele><time>2026-05-01T15:35:02.189Z</time></trkpt><trkpt lat="45.8025367" lon="11.7652867"><ele>201.0</ele><time>2026-05-01T15:35:03.186Z</time></trkpt><trkpt lat="45.8026267" lon="11.7654317"><ele>201.0</ele><time>2026-05-01T15:35:04.186Z</time></trkpt><trkpt lat="45.80271" lon="11.7655917"><ele>199.0</ele><time>2026-05-01T15:35:05.183Z</time></trkpt><trkpt lat="45.802775" lon="11.7657633"><ele>197.0</ele><time>2026-05-01T15:35:06.184Z</time></trkpt><trkpt lat="45.80283" lon="11.76594"><ele>195.0</ele><time>2026-05-01T15:35:07.185Z</time></trkpt><trkpt lat="45.802875" lon="11.7661317"><ele>193.0</ele><time>2026-05-01T15:35:08.186Z</time></trkpt><trkpt lat="45.8029067" lon="11.7663283"><ele>192.5</ele><time>2026-05-01T15:35:09.186Z</time></trkpt><trkpt lat="45.8029267" lon="11.7665167"><ele>192.0</ele><time>2026-05-01T15:35:10.184Z</time></trkpt><trkpt lat="45.80295" lon="11.7667033"><ele>191.5</ele><time>2026-05-01T15:35:11.19Z</time></trkpt><trkpt lat="45.8029867" lon="11.7668983"><ele>191.0</ele><time>2026-05-01T15:35:12.185Z</time></trkpt><trkpt lat="45.8030383" lon="11.7671"><ele>190.66666666666666</ele><time>2026-05-01T15:35:13.186Z</time></trkpt><trkpt lat="45.80311" lon="11.7673117"><ele>190.33333333333334</ele><time>2026-05-01T15:35:14.187Z</time></trkpt><trkpt lat="45.8032067" lon="11.7675417"><ele>190.0</ele><time>2026-05-01T15:35:15.185Z</time></trkpt><trkpt lat="45.803315" lon="11.7677833"><ele>189.0</ele><time>2026-05-01T15:35:16.186Z</time></trkpt><trkpt lat="45.8034233" lon="11.7680333"><ele>188.0</ele><time>2026-05-01T15:35:17.185Z</time></trkpt><trkpt lat="45.8035317" lon="11.768285"><ele>187.0</ele><time>2026-05-01T15:35:18.185Z</time></trkpt><trkpt lat="45.8036433" lon="11.7685383"><ele>186.66666666666669</ele><time>2026-05-01T15:35:19.183Z</time></trkpt><trkpt lat="45.8037583" lon="11.7687933"><ele>186.33333333333334</ele><time>2026-05-01T15:35:20.188Z</time></trkpt><trkpt lat="45.8038683" lon="11.7690533"><ele>186.0</ele><time>2026-05-01T15:35:21.189Z</time></trkpt><trkpt lat="45.80398" lon="11.769315"><ele>185.33333333333334</ele><time>2026-05-01T15:35:22.187Z</time></trkpt><trkpt lat="45.8040883" lon="11.7695833"><ele>184.66666666666669</ele><time>2026-05-01T15:35:23.185Z</time></trkpt><trkpt lat="45.804195" lon="11.7698483"><ele>184.0</ele><time>2026-05-01T15:35:24.186Z</time></trkpt><trkpt lat="45.8043033" lon="11.770115"><ele>183.66666666666669</ele><time>2026-05-01T15:35:25.184Z</time></trkpt><trkpt lat="45.8044067" lon="11.7703883"><ele>183.33333333333334</ele><time>2026-05-01T15:35:26.188Z</time></trkpt><trkpt lat="45.8045067" lon="11.7706633"><ele>183.0</ele><time>2026-05-01T15:35:27.184Z</time></trkpt><trkpt lat="45.8046033" lon="11.7709333"><ele>182.33333333333334</ele><time>2026-05-01T15:35:28.187Z</time></trkpt><trkpt lat="45.8047" lon="11.7712"><ele>181.66666666666669</ele><time>2026-05-01T15:35:29.187Z</time></trkpt><trkpt lat="45.8047983" lon="11.7714633"><ele>181.0</ele><time>2026-05-01T15:35:30.185Z</time></trkpt><trkpt lat="45.8048967" lon="11.7717283"><ele>180.0</ele><time>2026-05-01T15:35:31.187Z</time></trkpt><trkpt lat="45.80499" lon="11.7719883"><ele>179.0</ele><time>2026-05-01T15:35:32.184Z</time></trkpt><trkpt lat="45.8050833" lon="11.7722367"><ele>178.0</ele><time>2026-05-01T15:35:33.186Z</time></trkpt><trkpt lat="45.80517" lon="11.7724767"><ele>177.33333333333334</ele><time>2026-05-01T15:35:34.184Z</time></trkpt><trkpt lat="45.8052567" lon="11.7727183"><ele>176.66666666666666</ele><time>2026-05-01T15:35:35.184Z</time></trkpt><trkpt lat="45.8053433" lon="11.77296"><ele>176.0</ele><time>2026-05-01T15:35:36.187Z</time></trkpt><trkpt lat="45.8054283" lon="11.7732017"><ele>176.0</ele><time>2026-05-01T15:35:37.187Z</time></trkpt><trkpt lat="45.8055117" lon="11.77344"><ele>176.0</ele><time>2026-05-01T15:35:38.192Z</time></trkpt><trkpt lat="45.805595" lon="11.7736783"><ele>176.0</ele><time>2026-05-01T15:35:39.188Z</time></trkpt><trkpt lat="45.805675" lon="11.7739083"><ele>176.0</ele><time>2026-05-01T15:35:40.186Z</time></trkpt><trkpt lat="45.8057517" lon="11.77413"><ele>176.0</ele><time>2026-05-01T15:35:41.19Z</time></trkpt><trkpt lat="45.8058283" lon="11.7743417"><ele>176.0</ele><time>2026-05-01T15:35:42.186Z</time></trkpt><trkpt lat="45.8059083" lon="11.7745567"><ele>176.0</ele><time>2026-05-01T15:35:43.185Z</time></trkpt><trkpt lat="45.8059833" lon="11.7747783"><ele>176.0</ele><time>2026-05-01T15:35:44.188Z</time></trkpt><trkpt lat="45.8060567" lon="11.775"><ele>176.0</ele><time>2026-05-01T15:35:45.186Z</time></trkpt><trkpt lat="45.80613" lon="11.775215"><ele>175.66666666666666</ele><time>2026-05-01T15:35:46.186Z</time></trkpt><trkpt lat="45.8061967" lon="11.7754267"><ele>175.33333333333334</ele><time>2026-05-01T15:35:47.185Z</time></trkpt><trkpt lat="45.8062667" lon="11.7756433"><ele>175.0</ele><time>2026-05-01T15:35:48.184Z</time></trkpt><trkpt lat="45.806335" lon="11.775865"><ele>174.66666666666669</ele><time>2026-05-01T15:35:49.186Z</time></trkpt><trkpt lat="45.8064083" lon="11.7760867"><ele>174.33333333333334</ele><time>2026-05-01T15:35:50.185Z</time></trkpt><trkpt lat="45.80648" lon="11.776305"><ele>174.0</ele><time>2026-05-01T15:35:51.19Z</time></trkpt><trkpt lat="45.8065533" lon="11.7765267"><ele>174.0</ele><time>2026-05-01T15:35:52.186Z</time></trkpt><trkpt lat="45.8066267" lon="11.7767467"><ele>174.0</ele><time>2026-05-01T15:35:53.188Z</time></trkpt><trkpt lat="45.8066983" lon="11.77697"><ele>174.0</ele><time>2026-05-01T15:35:54.185Z</time></trkpt><trkpt lat="45.8067683" lon="11.7771917"><ele>173.66666666666666</ele><time>2026-05-01T15:35:55.187Z</time></trkpt><trkpt lat="45.8068383" lon="11.777415"><ele>173.33333333333331</ele><time>2026-05-01T15:35:56.185Z</time></trkpt><trkpt lat="45.8069083" lon="11.7776367"><ele>173.0</ele><time>2026-05-01T15:35:57.184Z</time></trkpt><trkpt lat="45.80698" lon="11.7778633"><ele>173.0</ele><time>2026-05-01T15:35:58.185Z</time></trkpt><trkpt lat="45.807055" lon="11.77809"><ele>173.0</ele><time>2026-05-01T15:35:59.184Z</time></trkpt><trkpt lat="45.8071267" lon="11.778305"><ele>173.0</ele><time>2026-05-01T15:36:00.186Z</time></trkpt><trkpt lat="45.807195" lon="11.77851"><ele>172.33333333333331</ele><time>2026-05-01T15:36:01.187Z</time></trkpt><trkpt lat="45.80726" lon="11.7787017"><ele>171.66666666666666</ele><time>2026-05-01T15:36:02.186Z</time></trkpt><trkpt lat="45.8073233" lon="11.7788983"><ele>171.0</ele><time>2026-05-01T15:36:03.186Z</time></trkpt><trkpt lat="45.8073883" lon="11.7791"><ele>171.0</ele><time>2026-05-01T15:36:04.186Z</time></trkpt><trkpt lat="45.8074517" lon="11.7793017"><ele>171.0</ele><time>2026-05-01T15:36:05.184Z</time></trkpt><trkpt lat="45.80751" lon="11.7794867"><ele>171.0</ele><time>2026-05-01T15:36:06.187Z</time></trkpt><trkpt lat="45.807565" lon="11.7796633"><ele>171.0</ele><time>2026-05-01T15:36:07.185Z</time></trkpt><trkpt lat="45.8076283" lon="11.7798433"><ele>172.25</ele><time>2026-05-01T15:36:08.185Z</time></trkpt><trkpt lat="45.8076917" lon="11.7800233"><ele>173.5</ele><time>2026-05-01T15:36:09.184Z</time></trkpt><trkpt lat="45.807755" lon="11.7802017"><ele>174.75</ele><time>2026-05-01T15:36:10.264Z</time></trkpt><trkpt lat="45.807815" lon="11.78038"><ele>176.0</ele><time>2026-05-01T15:36:11.185Z</time></trkpt><trkpt lat="45.8078733" lon="11.7805617"><ele>176.25</ele><time>2026-05-01T15:36:12.187Z</time></trkpt><trkpt lat="45.8079283" lon="11.7807417"><ele>176.5</ele><time>2026-05-01T15:36:13.188Z</time></trkpt><trkpt lat="45.80799" lon="11.7809217"><ele>176.75</ele><time>2026-05-01T15:36:14.185Z</time></trkpt><trkpt lat="45.8080533" lon="11.78111"><ele>177.0</ele><time>2026-05-01T15:36:15.185Z</time></trkpt><trkpt lat="45.80812" lon="11.7812967"><ele>177.0</ele><time>2026-05-01T15:36:16.186Z</time></trkpt><trkpt lat="45.808185" lon="11.7814883"><ele>177.0</ele><time>2026-05-01T15:36:17.186Z</time></trkpt><trkpt lat="45.808245" lon="11.78168"><ele>177.0</ele><time>2026-05-01T15:36:18.188Z</time></trkpt><trkpt lat="45.808305" lon="11.7818733"><ele>177.0</ele><time>2026-05-01T15:36:19.184Z</time></trkpt><trkpt lat="45.808365" lon="11.782065"><ele>176.75</ele><time>2026-05-01T15:36:20.186Z</time></trkpt><trkpt lat="45.8084233" lon="11.7822533"><ele>176.5</ele><time>2026-05-01T15:36:21.187Z</time></trkpt><trkpt lat="45.8084883" lon="11.7824367"><ele>176.25</ele><time>2026-05-01T15:36:22.186Z</time></trkpt><trkpt lat="45.808545" lon="11.7826083"><ele>176.0</ele><time>2026-05-01T15:36:23.186Z</time></trkpt><trkpt lat="45.8086017" lon="11.7827817"><ele>178.0</ele><time>2026-05-01T15:36:24.185Z</time></trkpt><trkpt lat="45.8086583" lon="11.7829583"><ele>180.0</ele><time>2026-05-01T15:36:25.188Z</time></trkpt><trkpt lat="45.808715" lon="11.7831333"><ele>182.0</ele><time>2026-05-01T15:36:26.187Z</time></trkpt><trkpt lat="45.8087717" lon="11.783315"><ele>184.0</ele><time>2026-05-01T15:36:27.186Z</time></trkpt><trkpt lat="45.80883" lon="11.7835"><ele>183.0</ele><time>2026-05-01T15:36:28.185Z</time></trkpt><trkpt lat="45.8088867" lon="11.783685"><ele>182.0</ele><time>2026-05-01T15:36:29.186Z</time></trkpt><trkpt lat="45.8089417" lon="11.7838617"><ele>181.0</ele><time>2026-05-01T15:36:30.188Z</time></trkpt><trkpt lat="45.8089917" lon="11.7840333"><ele>180.0</ele><time>2026-05-01T15:36:31.185Z</time></trkpt><trkpt lat="45.8090433" lon="11.784205"><ele>179.5</ele><time>2026-05-01T15:36:32.186Z</time></trkpt><trkpt lat="45.8090983" lon="11.7843783"><ele>179.0</ele><time>2026-05-01T15:36:33.265Z</time></trkpt><trkpt lat="45.8091517" lon="11.78456"><ele>178.5</ele><time>2026-05-01T15:36:34.184Z</time></trkpt><trkpt lat="45.8092067" lon="11.7847467"><ele>178.0</ele><time>2026-05-01T15:36:35.187Z</time></trkpt><trkpt lat="45.8092567" lon="11.78494"><ele>178.0</ele><time>2026-05-01T15:36:36.186Z</time></trkpt><trkpt lat="45.8093133" lon="11.78513"><ele>178.0</ele><time>2026-05-01T15:36:37.189Z</time></trkpt><trkpt lat="45.809375" lon="11.7853217"><ele>178.0</ele><time>2026-05-01T15:36:38.189Z</time></trkpt><trkpt lat="45.8094367" lon="11.785515"><ele>178.0</ele><time>2026-05-01T15:36:39.185Z</time></trkpt><trkpt lat="45.8094933" lon="11.7857067"><ele>178.75</ele><time>2026-05-01T15:36:40.187Z</time></trkpt><trkpt lat="45.8095533" lon="11.7858983"><ele>179.5</ele><time>2026-05-01T15:36:41.188Z</time></trkpt><trkpt lat="45.8096133" lon="11.7860917"><ele>180.25</ele><time>2026-05-01T15:36:42.186Z</time></trkpt><trkpt lat="45.8096717" lon="11.786285"><ele>181.0</ele><time>2026-05-01T15:36:43.185Z</time></trkpt><trkpt lat="45.809735" lon="11.78648"><ele>181.0</ele><time>2026-05-01T15:36:44.185Z</time></trkpt><trkpt lat="45.8098067" lon="11.7866683"><ele>181.0</ele><time>2026-05-01T15:36:45.185Z</time></trkpt><trkpt lat="45.80989" lon="11.7868533"><ele>181.0</ele><time>2026-05-01T15:36:46.184Z</time></trkpt><trkpt lat="45.80998" lon="11.7870367"><ele>181.25</ele><time>2026-05-01T15:36:47.183Z</time></trkpt><trkpt lat="45.8100817" lon="11.7871983"><ele>181.5</ele><time>2026-05-01T15:36:48.185Z</time></trkpt><trkpt lat="45.81018" lon="11.78734"><ele>181.75</ele><time>2026-05-01T15:36:49.188Z</time></trkpt><trkpt lat="45.81028" lon="11.7874667"><ele>182.0</ele><time>2026-05-01T15:36:50.188Z</time></trkpt><trkpt lat="45.8103767" lon="11.7875817"><ele>181.8</ele><time>2026-05-01T15:36:51.187Z</time></trkpt><trkpt lat="45.8104667" lon="11.787685"><ele>181.6</ele><time>2026-05-01T15:36:52.185Z</time></trkpt><trkpt lat="45.8105517" lon="11.787775"><ele>181.4</ele><time>2026-05-01T15:36:53.19Z</time></trkpt><trkpt lat="45.8106367" lon="11.7878683"><ele>181.20000000000002</ele><time>2026-05-01T15:36:54.187Z</time></trkpt><trkpt lat="45.810705" lon="11.787955"><ele>181.0</ele><time>2026-05-01T15:36:55.185Z</time></trkpt><trkpt lat="45.810765" lon="11.788035"><ele>181.0</ele><time>2026-05-01T15:36:56.188Z</time></trkpt><trkpt lat="45.8108317" lon="11.788125"><ele>181.0</ele><time>2026-05-01T15:36:57.187Z</time></trkpt><trkpt lat="45.8109117" lon="11.7882267"><ele>181.0</ele><time>2026-05-01T15:36:58.186Z</time></trkpt><trkpt lat="45.811" lon="11.788335"><ele>181.0</ele><time>2026-05-01T15:36:59.184Z</time></trkpt><trkpt lat="45.8110983" lon="11.78845"><ele>181.0</ele><time>2026-05-01T15:37:00.187Z</time></trkpt><trkpt lat="45.811195" lon="11.7885683"><ele>181.75</ele><time>2026-05-01T15:37:01.184Z</time></trkpt><trkpt lat="45.8112933" lon="11.7886833"><ele>182.5</ele><time>2026-05-01T15:37:02.189Z</time></trkpt><trkpt lat="45.8113917" lon="11.7888"><ele>183.25</ele><time>2026-05-01T15:37:03.188Z</time></trkpt><trkpt lat="45.8115017" lon="11.7889233"><ele>184.0</ele><time>2026-05-01T15:37:04.188Z</time></trkpt><trkpt lat="45.8116167" lon="11.7890617"><ele>184.0</ele><time>2026-05-01T15:37:05.187Z</time></trkpt><trkpt lat="45.8117267" lon="11.7891967"><ele>184.0</ele><time>2026-05-01T15:37:06.187Z</time></trkpt><trkpt lat="45.811825" lon="11.78932"><ele>184.0</ele><time>2026-05-01T15:37:07.186Z</time></trkpt><trkpt lat="45.81192" lon="11.789435"><ele>184.0</ele><time>2026-05-01T15:37:08.185Z</time></trkpt><trkpt lat="45.8120117" lon="11.7895383"><ele>185.25</ele><time>2026-05-01T15:37:09.188Z</time></trkpt><trkpt lat="45.812105" lon="11.789645"><ele>186.5</ele><time>2026-05-01T15:37:10.184Z</time></trkpt><trkpt lat="45.8122" lon="11.7897567"><ele>187.75</ele><time>2026-05-01T15:37:11.185Z</time></trkpt><trkpt lat="45.8122967" lon="11.7898717"><ele>189.0</ele><time>2026-05-01T15:37:12.19Z</time></trkpt><trkpt lat="45.8123983" lon="11.7899867"><ele>189.0</ele><time>2026-05-01T15:37:13.186Z</time></trkpt><trkpt lat="45.81249" lon="11.790095"><ele>189.0</ele><time>2026-05-01T15:37:14.191Z</time></trkpt><trkpt lat="45.8125783" lon="11.7902"><ele>189.0</ele><time>2026-05-01T15:37:15.188Z</time></trkpt><trkpt lat="45.812665" lon="11.7902967"><ele>189.0</ele><time>2026-05-01T15:37:16.189Z</time></trkpt><trkpt lat="45.812755" lon="11.7904033"><ele>189.25</ele><time>2026-05-01T15:37:17.185Z</time></trkpt><trkpt lat="45.8128583" lon="11.7905167"><ele>189.5</ele><time>2026-05-01T15:37:18.186Z</time></trkpt><trkpt lat="45.8129667" lon="11.7906467"><ele>189.75</ele><time>2026-05-01T15:37:19.188Z</time></trkpt><trkpt lat="45.8130833" lon="11.7907883"><ele>190.0</ele><time>2026-05-01T15:37:20.188Z</time></trkpt><trkpt lat="45.8132033" lon="11.79093"><ele>190.33333333333334</ele><time>2026-05-01T15:37:21.188Z</time></trkpt><trkpt lat="45.8133217" lon="11.7910667"><ele>190.66666666666666</ele><time>2026-05-01T15:37:22.187Z</time></trkpt><trkpt lat="45.813445" lon="11.7912167"><ele>191.0</ele><time>2026-05-01T15:37:23.186Z</time></trkpt><trkpt lat="45.8135767" lon="11.7913717"><ele>191.0</ele><time>2026-05-01T15:37:24.186Z</time></trkpt><trkpt lat="45.8137117" lon="11.791525"><ele>191.0</ele><time>2026-05-01T15:37:25.186Z</time></trkpt><trkpt lat="45.813835" lon="11.7916717"><ele>191.0</ele><time>2026-05-01T15:37:26.186Z</time></trkpt><trkpt lat="45.813955" lon="11.79181"><ele>191.25</ele><time>2026-05-01T15:37:27.19Z</time></trkpt><trkpt lat="45.81407" lon="11.7919367"><ele>191.5</ele><time>2026-05-01T15:37:28.186Z</time></trkpt><trkpt lat="45.8141867" lon="11.7920483"><ele>191.75</ele><time>2026-05-01T15:37:29.186Z</time></trkpt><trkpt lat="45.8143017" lon="11.7921467"><ele>192.0</ele><time>2026-05-01T15:37:30.19Z</time></trkpt><trkpt lat="45.814425" lon="11.7922417"><ele>192.0</ele><time>2026-05-01T15:37:31.184Z</time></trkpt><trkpt lat="45.81455" lon="11.7923333"><ele>192.0</ele><time>2026-05-01T15:37:32.184Z</time></trkpt><trkpt lat="45.814665" lon="11.792425"><ele>192.0</ele><time>2026-05-01T15:37:33.185Z</time></trkpt><trkpt lat="45.814775" lon="11.7925167"><ele>192.0</ele><time>2026-05-01T15:37:34.185Z</time></trkpt><trkpt lat="45.814885" lon="11.7926233"><ele>191.5</ele><time>2026-05-01T15:37:35.186Z</time></trkpt><trkpt lat="45.8149933" lon="11.7927583"><ele>191.0</ele><time>2026-05-01T15:37:36.188Z</time></trkpt><trkpt lat="45.8150917" lon="11.7929167"><ele>190.5</ele><time>2026-05-01T15:37:37.188Z</time></trkpt><trkpt lat="45.8151817" lon="11.793095"><ele>190.0</ele><time>2026-05-01T15:37:38.184Z</time></trkpt><trkpt lat="45.8152583" lon="11.79329"><ele>190.0</ele><time>2026-05-01T15:37:39.186Z</time></trkpt><trkpt lat="45.8153233" lon="11.7934967"><ele>190.0</ele><time>2026-05-01T15:37:40.185Z</time></trkpt><trkpt lat="45.8153683" lon="11.793715"><ele>190.0</ele><time>2026-05-01T15:37:41.186Z</time></trkpt><trkpt lat="45.8154017" lon="11.7939383"><ele>188.66666666666669</ele><time>2026-05-01T15:37:42.185Z</time></trkpt><trkpt lat="45.8154217" lon="11.7941517"><ele>187.33333333333334</ele><time>2026-05-01T15:37:43.185Z</time></trkpt><trkpt lat="45.81543" lon="11.7943633"><ele>186.0</ele><time>2026-05-01T15:37:44.188Z</time></trkpt><trkpt lat="45.81544" lon="11.794585"><ele>186.0</ele><time>2026-05-01T15:37:45.188Z</time></trkpt><trkpt lat="45.8154483" lon="11.7948217"><ele>186.0</ele><time>2026-05-01T15:37:46.187Z</time></trkpt><trkpt lat="45.8154517" lon="11.7950817"><ele>186.0</ele><time>2026-05-01T15:37:47.184Z</time></trkpt><trkpt lat="45.8154517" lon="11.7953817"><ele>185.0</ele><time>2026-05-01T15:37:48.183Z</time></trkpt><trkpt lat="45.8154567" lon="11.7957067"><ele>184.0</ele><time>2026-05-01T15:37:49.184Z</time></trkpt><trkpt lat="45.815455" lon="11.7960317"><ele>183.33333333333334</ele><time>2026-05-01T15:37:50.184Z</time></trkpt><trkpt lat="45.81545" lon="11.7963433"><ele>182.66666666666666</ele><time>2026-05-01T15:37:51.187Z</time></trkpt><trkpt lat="45.81544" lon="11.7966333"><ele>182.0</ele><time>2026-05-01T15:37:52.186Z</time></trkpt><trkpt lat="45.8154367" lon="11.79691"><ele>183.33333333333331</ele><time>2026-05-01T15:37:53.185Z</time></trkpt><trkpt lat="45.81544" lon="11.7971917"><ele>184.66666666666666</ele><time>2026-05-01T15:37:54.187Z</time></trkpt><trkpt lat="45.8154467" lon="11.7974983"><ele>186.0</ele><time>2026-05-01T15:37:55.187Z</time></trkpt><trkpt lat="45.81545" lon="11.79781"><ele>187.33333333333334</ele><time>2026-05-01T15:37:56.185Z</time></trkpt><trkpt lat="45.8154433" lon="11.7981083"><ele>188.66666666666669</ele><time>2026-05-01T15:37:57.186Z</time></trkpt><trkpt lat="45.8154383" lon="11.7983783"><ele>190.0</ele><time>2026-05-01T15:37:58.186Z</time></trkpt><trkpt lat="45.8154333" lon="11.7986217"><ele>190.75</ele><time>2026-05-01T15:37:59.186Z</time></trkpt><trkpt lat="45.81543" lon="11.7988433"><ele>191.5</ele><time>2026-05-01T15:38:00.187Z</time></trkpt><trkpt lat="45.8154283" lon="11.7990533"><ele>192.25</ele><time>2026-05-01T15:38:01.187Z</time></trkpt><trkpt lat="45.8154233" lon="11.7992567"><ele>193.0</ele><time>2026-05-01T15:38:02.184Z</time></trkpt><trkpt lat="45.8154233" lon="11.79945"><ele>193.25</ele><time>2026-05-01T15:38:03.186Z</time></trkpt><trkpt lat="45.8154217" lon="11.7996267"><ele>193.5</ele><time>2026-05-01T15:38:04.185Z</time></trkpt><trkpt lat="45.8154183" lon="11.79979"><ele>193.75</ele><time>2026-05-01T15:38:05.185Z</time></trkpt><trkpt lat="45.8154167" lon="11.7999617"><ele>194.0</ele><time>2026-05-01T15:38:06.187Z</time></trkpt><trkpt lat="45.815425" lon="11.8001483"><ele>195.0</ele><time>2026-05-01T15:38:07.185Z</time></trkpt><trkpt lat="45.8154417" lon="11.8003583"><ele>196.0</ele><time>2026-05-01T15:38:08.185Z</time></trkpt><trkpt lat="45.815465" lon="11.8005933"><ele>197.0</ele><time>2026-05-01T15:38:09.186Z</time></trkpt><trkpt lat="45.8154833" lon="11.8008467"><ele>197.33333333333334</ele><time>2026-05-01T15:38:10.183Z</time></trkpt><trkpt lat="45.8155033" lon="11.8011033"><ele>197.66666666666669</ele><time>2026-05-01T15:38:11.183Z</time></trkpt><trkpt lat="45.8155267" lon="11.8013533"><ele>198.0</ele><time>2026-05-01T15:38:12.185Z</time></trkpt><trkpt lat="45.81555" lon="11.80159"><ele>198.0</ele><time>2026-05-01T15:38:13.185Z</time></trkpt><trkpt lat="45.81557" lon="11.80181"><ele>198.0</ele><time>2026-05-01T15:38:14.188Z</time></trkpt><trkpt lat="45.81559" lon="11.8020133"><ele>198.0</ele><time>2026-05-01T15:38:15.187Z</time></trkpt><trkpt lat="45.81561" lon="11.8022017"><ele>198.0</ele><time>2026-05-01T15:38:16.185Z</time></trkpt><trkpt lat="45.8156283" lon="11.8023817"><ele>198.5</ele><time>2026-05-01T15:38:17.184Z</time></trkpt><trkpt lat="45.815645" lon="11.80256"><ele>199.0</ele><time>2026-05-01T15:38:18.185Z</time></trkpt><trkpt lat="45.81566" lon="11.8027317"><ele>199.5</ele><time>2026-05-01T15:38:19.188Z</time></trkpt><trkpt lat="45.815675" lon="11.8028983"><ele>200.0</ele><time>2026-05-01T15:38:20.186Z</time></trkpt><trkpt lat="45.8156917" lon="11.8030633"><ele>200.25</ele><time>2026-05-01T15:38:21.183Z</time></trkpt><trkpt lat="45.8157083" lon="11.803235"><ele>200.5</ele><time>2026-05-01T15:38:22.186Z</time></trkpt><trkpt lat="45.8157267" lon="11.8034133"><ele>200.75</ele><time>2026-05-01T15:38:23.186Z</time></trkpt><trkpt lat="45.8157433" lon="11.8036"><ele>201.0</ele><time>2026-05-01T15:38:24.187Z</time></trkpt><trkpt lat="45.8157617" lon="11.8037933"><ele>200.25</ele><time>2026-05-01T15:38:25.187Z</time></trkpt><trkpt lat="45.81578" lon="11.803995"><ele>199.5</ele><time>2026-05-01T15:38:26.185Z</time></trkpt><trkpt lat="45.8158" lon="11.8042"><ele>198.75</ele><time>2026-05-01T15:38:27.185Z</time></trkpt><trkpt lat="45.8158183" lon="11.8043967"><ele>198.0</ele><time>2026-05-01T15:38:28.186Z</time></trkpt><trkpt lat="45.815835" lon="11.80458"><ele>198.0</ele><time>2026-05-01T15:38:29.185Z</time></trkpt><trkpt lat="45.8158533" lon="11.804745"><ele>198.0</ele><time>2026-05-01T15:38:30.184Z</time></trkpt><trkpt lat="45.81587" lon="11.8049017"><ele>198.0</ele><time>2026-05-01T15:38:31.186Z</time></trkpt><trkpt lat="45.8158867" lon="11.8050633"><ele>198.0</ele><time>2026-05-01T15:38:32.184Z</time></trkpt><trkpt lat="45.8159" lon="11.805225"><ele>198.4</ele><time>2026-05-01T15:38:33.186Z</time></trkpt><trkpt lat="45.8159167" lon="11.8053667"><ele>198.8</ele><time>2026-05-01T15:38:34.19Z</time></trkpt><trkpt lat="45.8159317" lon="11.8055083"><ele>199.2</ele><time>2026-05-01T15:38:35.185Z</time></trkpt><trkpt lat="45.8159467" lon="11.8056533"><ele>199.6</ele><time>2026-05-01T15:38:36.184Z</time></trkpt><trkpt lat="45.81596" lon="11.8057833"><ele>200.0</ele><time>2026-05-01T15:38:37.186Z</time></trkpt><trkpt lat="45.8159683" lon="11.80589"><ele>200.00000000000003</ele><time>2026-05-01T15:38:38.184Z</time></trkpt><trkpt lat="45.815975" lon="11.805985"><ele>200.0</ele><time>2026-05-01T15:38:39.187Z</time></trkpt><trkpt lat="45.8159783" lon="11.80609"><ele>200.0</ele><time>2026-05-01T15:38:40.185Z</time></trkpt><trkpt lat="45.815975" lon="11.8061933"><ele>200.0</ele><time>2026-05-01T15:38:41.184Z</time></trkpt><trkpt lat="45.81596" lon="11.806285"><ele>200.00000000000003</ele><time>2026-05-01T15:38:42.185Z</time></trkpt><trkpt lat="45.8159383" lon="11.8063733"><ele>200.0</ele><time>2026-05-01T15:38:43.271Z</time></trkpt><trkpt lat="45.81593" lon="11.80654"><ele>200.57142857142858</ele><time>2026-05-01T15:38:45.185Z</time></trkpt><trkpt lat="45.8159617" lon="11.8066183"><ele>201.14285714285714</ele><time>2026-05-01T15:38:46.185Z</time></trkpt><trkpt lat="45.816" lon="11.806695"><ele>201.71428571428572</ele><time>2026-05-01T15:38:47.183Z</time></trkpt><trkpt lat="45.81605" lon="11.8067667"><ele>202.28571428571428</ele><time>2026-05-01T15:38:48.186Z</time></trkpt><trkpt lat="45.8160967" lon="11.8068517"><ele>202.85714285714286</ele><time>2026-05-01T15:38:49.185Z</time></trkpt><trkpt lat="45.8161383" lon="11.806945"><ele>203.42857142857144</ele><time>2026-05-01T15:38:50.186Z</time></trkpt><trkpt lat="45.8161767" lon="11.807055"><ele>204.0</ele><time>2026-05-01T15:38:51.185Z</time></trkpt><trkpt lat="45.81621" lon="11.8071817"><ele>204.79999999999998</ele><time>2026-05-01T15:38:52.184Z</time></trkpt><trkpt lat="45.8162417" lon="11.807325"><ele>205.6</ele><time>2026-05-01T15:38:53.186Z</time></trkpt><trkpt lat="45.8162767" lon="11.80748"><ele>206.4</ele><time>2026-05-01T15:38:54.187Z</time></trkpt><trkpt lat="45.81631" lon="11.8076367"><ele>207.2</ele><time>2026-05-01T15:38:55.187Z</time></trkpt><trkpt lat="45.8163383" lon="11.8077833"><ele>208.0</ele><time>2026-05-01T15:38:56.188Z</time></trkpt><trkpt lat="45.8163683" lon="11.8079183"><ele>208.0</ele><time>2026-05-01T15:38:57.188Z</time></trkpt><trkpt lat="45.8163983" lon="11.8080567"><ele>208.0</ele><time>2026-05-01T15:38:58.187Z</time></trkpt><trkpt lat="45.816435" lon="11.808205"><ele>208.0</ele><time>2026-05-01T15:38:59.187Z</time></trkpt><trkpt lat="45.816475" lon="11.8083717"><ele>208.0</ele><time>2026-05-01T15:39:00.184Z</time></trkpt><trkpt lat="45.8165167" lon="11.8085467"><ele>208.5</ele><time>2026-05-01T15:39:01.186Z</time></trkpt><trkpt lat="45.816555" lon="11.8087183"><ele>209.0</ele><time>2026-05-01T15:39:02.186Z</time></trkpt><trkpt lat="45.816595" lon="11.80889"><ele>209.5</ele><time>2026-05-01T15:39:03.188Z</time></trkpt><trkpt lat="45.816635" lon="11.8090617"><ele>210.0</ele><time>2026-05-01T15:39:04.183Z</time></trkpt><trkpt lat="45.8166767" lon="11.8092367"><ele>209.66666666666669</ele><time>2026-05-01T15:39:05.185Z</time></trkpt><trkpt lat="45.8167183" lon="11.8094267"><ele>209.33333333333334</ele><time>2026-05-01T15:39:06.185Z</time></trkpt><trkpt lat="45.8167667" lon="11.809635"><ele>209.0</ele><time>2026-05-01T15:39:07.186Z</time></trkpt><trkpt lat="45.8168183" lon="11.8098667"><ele>211.0</ele><time>2026-05-01T15:39:08.185Z</time></trkpt><trkpt lat="45.8168717" lon="11.81012"><ele>213.0</ele><time>2026-05-01T15:39:09.188Z</time></trkpt><trkpt lat="45.8169467" lon="11.8104133"><ele>215.0</ele><time>2026-05-01T15:39:10.183Z</time></trkpt><trkpt lat="45.8170333" lon="11.8107367"><ele>215.0</ele><time>2026-05-01T15:39:11.185Z</time></trkpt><trkpt lat="45.81711" lon="11.8110683"><ele>215.0</ele><time>2026-05-01T15:39:12.185Z</time></trkpt><trkpt lat="45.8171817" lon="11.81138"><ele>215.0</ele><time>2026-05-01T15:39:13.187Z</time></trkpt><trkpt lat="45.8172417" lon="11.8116667"><ele>215.0</ele><time>2026-05-01T15:39:14.186Z</time></trkpt><trkpt lat="45.8173" lon="11.81193"><ele>215.0</ele><time>2026-05-01T15:39:15.186Z</time></trkpt><trkpt lat="45.8173533" lon="11.8121833"><ele>214.66666666666669</ele><time>2026-05-01T15:39:16.188Z</time></trkpt><trkpt lat="45.8174133" lon="11.812435"><ele>214.33333333333331</ele><time>2026-05-01T15:39:17.189Z</time></trkpt><trkpt lat="45.817475" lon="11.81269"><ele>214.0</ele><time>2026-05-01T15:39:18.186Z</time></trkpt><trkpt lat="45.8175383" lon="11.8129383"><ele>214.0</ele><time>2026-05-01T15:39:19.185Z</time></trkpt><trkpt lat="45.8175933" lon="11.8131767"><ele>214.0</ele><time>2026-05-01T15:39:20.187Z</time></trkpt><trkpt lat="45.8176483" lon="11.8134067"><ele>214.0</ele><time>2026-05-01T15:39:21.185Z</time></trkpt><trkpt lat="45.8177017" lon="11.8136283"><ele>215.75</ele><time>2026-05-01T15:39:22.183Z</time></trkpt><trkpt lat="45.8177483" lon="11.8138417"><ele>217.5</ele><time>2026-05-01T15:39:23.188Z</time></trkpt><trkpt lat="45.81779" lon="11.8140417"><ele>219.25</ele><time>2026-05-01T15:39:24.185Z</time></trkpt><trkpt lat="45.8178333" lon="11.81424"><ele>221.0</ele><time>2026-05-01T15:39:25.185Z</time></trkpt><trkpt lat="45.8178783" lon="11.8144417"><ele>221.0</ele><time>2026-05-01T15:39:26.186Z</time></trkpt><trkpt lat="45.817925" lon="11.8146483"><ele>221.0</ele><time>2026-05-01T15:39:27.188Z</time></trkpt><trkpt lat="45.8179733" lon="11.8148583"><ele>221.0</ele><time>2026-05-01T15:39:28.187Z</time></trkpt><trkpt lat="45.81802" lon="11.8150733"><ele>221.0</ele><time>2026-05-01T15:39:29.188Z</time></trkpt><trkpt lat="45.81807" lon="11.8152883"><ele>221.0</ele><time>2026-05-01T15:39:30.188Z</time></trkpt><trkpt lat="45.8181183" lon="11.8154883"><ele>221.0</ele><time>2026-05-01T15:39:31.263Z</time></trkpt><trkpt lat="45.818165" lon="11.81568"><ele>221.0</ele><time>2026-05-01T15:39:32.184Z</time></trkpt><trkpt lat="45.8182217" lon="11.8158667"><ele>221.5</ele><time>2026-05-01T15:39:33.184Z</time></trkpt><trkpt lat="45.81829" lon="11.8160567"><ele>222.0</ele><time>2026-05-01T15:39:34.186Z</time></trkpt><trkpt lat="45.8183617" lon="11.8162433"><ele>222.5</ele><time>2026-05-01T15:39:35.186Z</time></trkpt><trkpt lat="45.818435" lon="11.8164267"><ele>223.0</ele><time>2026-05-01T15:39:36.187Z</time></trkpt><trkpt lat="45.8185133" lon="11.81661"><ele>224.0</ele><time>2026-05-01T15:39:37.265Z</time></trkpt><trkpt lat="45.81859" lon="11.8167833"><ele>225.0</ele><time>2026-05-01T15:39:38.187Z</time></trkpt><trkpt lat="45.8186517" lon="11.8169417"><ele>226.0</ele><time>2026-05-01T15:39:39.187Z</time></trkpt><trkpt lat="45.8187083" lon="11.8170883"><ele>227.0</ele><time>2026-05-01T15:39:40.183Z</time></trkpt><trkpt lat="45.8187683" lon="11.81724"><ele>227.75</ele><time>2026-05-01T15:39:41.185Z</time></trkpt><trkpt lat="45.8188283" lon="11.8173983"><ele>228.5</ele><time>2026-05-01T15:39:42.186Z</time></trkpt><trkpt lat="45.8188867" lon="11.8175567"><ele>229.25</ele><time>2026-05-01T15:39:43.189Z</time></trkpt><trkpt lat="45.81895" lon="11.8177183"><ele>230.0</ele><time>2026-05-01T15:39:44.188Z</time></trkpt><trkpt lat="45.8190183" lon="11.8178783"><ele>230.5</ele><time>2026-05-01T15:39:45.186Z</time></trkpt><trkpt lat="45.819085" lon="11.818045"><ele>231.0</ele><time>2026-05-01T15:39:46.185Z</time></trkpt><trkpt lat="45.819155" lon="11.818215"><ele>231.5</ele><time>2026-05-01T15:39:47.185Z</time></trkpt><trkpt lat="45.8192267" lon="11.81839"><ele>232.0</ele><time>2026-05-01T15:39:48.186Z</time></trkpt><trkpt lat="45.8192983" lon="11.8185717"><ele>233.25</ele><time>2026-05-01T15:39:49.187Z</time></trkpt><trkpt lat="45.8193733" lon="11.81875"><ele>234.5</ele><time>2026-05-01T15:39:50.186Z</time></trkpt><trkpt lat="45.8194467" lon="11.8189183"><ele>235.75</ele><time>2026-05-01T15:39:51.186Z</time></trkpt><trkpt lat="45.8195217" lon="11.8190817"><ele>237.0</ele><time>2026-05-01T15:39:52.188Z</time></trkpt><trkpt lat="45.819595" lon="11.81925"><ele>238.0</ele><time>2026-05-01T15:39:53.187Z</time></trkpt><trkpt lat="45.8196617" lon="11.8194317"><ele>239.0</ele><time>2026-05-01T15:39:54.185Z</time></trkpt><trkpt lat="45.81972" lon="11.8196283"><ele>240.0</ele><time>2026-05-01T15:39:55.186Z</time></trkpt><trkpt lat="45.81977" lon="11.8198567"><ele>240.0</ele><time>2026-05-01T15:39:56.188Z</time></trkpt><trkpt lat="45.81981" lon="11.8201"><ele>240.0</ele><time>2026-05-01T15:39:57.186Z</time></trkpt><trkpt lat="45.8198417" lon="11.8203367"><ele>240.0</ele><time>2026-05-01T15:39:58.186Z</time></trkpt><trkpt lat="45.81988" lon="11.8205833"><ele>241.0</ele><time>2026-05-01T15:39:59.187Z</time></trkpt><trkpt lat="45.8199233" lon="11.82081"><ele>242.0</ele><time>2026-05-01T15:40:00.186Z</time></trkpt><trkpt lat="45.81996" lon="11.821015"><ele>243.0</ele><time>2026-05-01T15:40:01.184Z</time></trkpt><trkpt lat="45.819995" lon="11.82122"><ele>243.0</ele><time>2026-05-01T15:40:02.184Z</time></trkpt><trkpt lat="45.820035" lon="11.8214383"><ele>243.0</ele><time>2026-05-01T15:40:03.185Z</time></trkpt><trkpt lat="45.8200817" lon="11.8216567"><ele>243.0</ele><time>2026-05-01T15:40:04.187Z</time></trkpt><trkpt lat="45.820125" lon="11.8218583"><ele>244.5</ele><time>2026-05-01T15:40:05.185Z</time></trkpt><trkpt lat="45.8201633" lon="11.8220517"><ele>246.0</ele><time>2026-05-01T15:40:06.188Z</time></trkpt><trkpt lat="45.820205" lon="11.8222483"><ele>247.5</ele><time>2026-05-01T15:40:07.185Z</time></trkpt><trkpt lat="45.8202483" lon="11.8224467"><ele>249.0</ele><time>2026-05-01T15:40:08.184Z</time></trkpt><trkpt lat="45.82029" lon="11.82265"><ele>249.25</ele><time>2026-05-01T15:40:09.188Z</time></trkpt><trkpt lat="45.820335" lon="11.822855"><ele>249.5</ele><time>2026-05-01T15:40:10.185Z</time></trkpt><trkpt lat="45.8203767" lon="11.823055"><ele>249.75</ele><time>2026-05-01T15:40:11.187Z</time></trkpt><trkpt lat="45.820415" lon="11.8232417"><ele>250.0</ele><time>2026-05-01T15:40:12.188Z</time></trkpt><trkpt lat="45.82046" lon="11.8234333"><ele>250.0</ele><time>2026-05-01T15:40:13.185Z</time></trkpt><trkpt lat="45.82051" lon="11.8236283"><ele>250.0</ele><time>2026-05-01T15:40:14.186Z</time></trkpt><trkpt lat="45.8205583" lon="11.8238383"><ele>250.0</ele><time>2026-05-01T15:40:15.184Z</time></trkpt><trkpt lat="45.8206033" lon="11.824055"><ele>250.0</ele><time>2026-05-01T15:40:16.186Z</time></trkpt><trkpt lat="45.8206517" lon="11.8242767"><ele>250.0</ele><time>2026-05-01T15:40:17.189Z</time></trkpt><trkpt lat="45.8206983" lon="11.8245033"><ele>250.0</ele><time>2026-05-01T15:40:18.183Z</time></trkpt><trkpt lat="45.82074" lon="11.8247133"><ele>249.75</ele><time>2026-05-01T15:40:19.188Z</time></trkpt><trkpt lat="45.8207833" lon="11.82491"><ele>249.5</ele><time>2026-05-01T15:40:20.186Z</time></trkpt><trkpt lat="45.8208217" lon="11.8250867"><ele>249.25</ele><time>2026-05-01T15:40:21.185Z</time></trkpt><trkpt lat="45.8208617" lon="11.82526"><ele>249.0</ele><time>2026-05-01T15:40:22.185Z</time></trkpt><trkpt lat="45.8209033" lon="11.8254383"><ele>249.75</ele><time>2026-05-01T15:40:23.187Z</time></trkpt><trkpt lat="45.8209417" lon="11.8256267"><ele>250.5</ele><time>2026-05-01T15:40:24.186Z</time></trkpt><trkpt lat="45.820985" lon="11.82582"><ele>251.25</ele><time>2026-05-01T15:40:25.186Z</time></trkpt><trkpt lat="45.82103" lon="11.82602"><ele>252.0</ele><time>2026-05-01T15:40:26.186Z</time></trkpt><trkpt lat="45.8210817" lon="11.8262217"><ele>253.66666666666669</ele><time>2026-05-01T15:40:27.184Z</time></trkpt><trkpt lat="45.821135" lon="11.8264283"><ele>255.33333333333334</ele><time>2026-05-01T15:40:28.185Z</time></trkpt><trkpt lat="45.82119" lon="11.8266367"><ele>257.0</ele><time>2026-05-01T15:40:29.187Z</time></trkpt><trkpt lat="45.8212417" lon="11.82684"><ele>257.6666666666667</ele><time>2026-05-01T15:40:30.185Z</time></trkpt><trkpt lat="45.8212967" lon="11.8270533"><ele>258.3333333333333</ele><time>2026-05-01T15:40:31.186Z</time></trkpt><trkpt lat="45.82135" lon="11.8272717"><ele>259.0</ele><time>2026-05-01T15:40:32.187Z</time></trkpt><trkpt lat="45.821405" lon="11.8274933"><ele>259.3333333333333</ele><time>2026-05-01T15:40:33.185Z</time></trkpt><trkpt lat="45.82146" lon="11.8277133"><ele>259.6666666666667</ele><time>2026-05-01T15:40:34.184Z</time></trkpt><trkpt lat="45.821515" lon="11.82792"><ele>260.0</ele><time>2026-05-01T15:40:35.185Z</time></trkpt><trkpt lat="45.82156" lon="11.828105"><ele>260.0</ele><time>2026-05-01T15:40:36.186Z</time></trkpt><trkpt lat="45.8216033" lon="11.8282767"><ele>260.0</ele><time>2026-05-01T15:40:37.187Z</time></trkpt><trkpt lat="45.8216433" lon="11.8284383"><ele>260.0</ele><time>2026-05-01T15:40:38.184Z</time></trkpt><trkpt lat="45.8216767" lon="11.8285783"><ele>260.0</ele><time>2026-05-01T15:40:39.186Z</time></trkpt><trkpt lat="45.8217067" lon="11.8287083"><ele>260.0</ele><time>2026-05-01T15:40:40.184Z</time></trkpt><trkpt lat="45.8217317" lon="11.8288317"><ele>260.0</ele><time>2026-05-01T15:40:41.184Z</time></trkpt><trkpt lat="45.8217467" lon="11.8289467"><ele>260.0</ele><time>2026-05-01T15:40:42.187Z</time></trkpt><trkpt lat="45.8217433" lon="11.82906"><ele>260.0</ele><time>2026-05-01T15:40:43.188Z</time></trkpt><trkpt lat="45.821715" lon="11.8291617"><ele>260.0</ele><time>2026-05-01T15:40:44.185Z</time></trkpt><trkpt lat="45.8216667" lon="11.8292517"><ele>260.0</ele><time>2026-05-01T15:40:45.185Z</time></trkpt><trkpt lat="45.821625" lon="11.8293433"><ele>260.0</ele><time>2026-05-01T15:40:46.186Z</time></trkpt><trkpt lat="45.821595" lon="11.8294383"><ele>260.14285714285717</ele><time>2026-05-01T15:40:47.183Z</time></trkpt><trkpt lat="45.8216033" lon="11.8295367"><ele>260.2857142857143</ele><time>2026-05-01T15:40:48.184Z</time></trkpt><trkpt lat="45.821645" lon="11.8296233"><ele>260.42857142857144</ele><time>2026-05-01T15:40:49.186Z</time></trkpt><trkpt lat="45.8217033" lon="11.8296883"><ele>260.57142857142856</ele><time>2026-05-01T15:40:50.186Z</time></trkpt><trkpt lat="45.8217783" lon="11.829725"><ele>260.7142857142857</ele><time>2026-05-01T15:40:51.187Z</time></trkpt><trkpt lat="45.8218583" lon="11.829755"><ele>260.8571428571429</ele><time>2026-05-01T15:40:52.184Z</time></trkpt><trkpt lat="45.8219217" lon="11.829785"><ele>261.0</ele><time>2026-05-01T15:40:53.189Z</time></trkpt><trkpt lat="45.822025" lon="11.82986"><ele>261.6</ele><time>2026-05-01T15:40:55.185Z</time></trkpt><trkpt lat="45.8220783" lon="11.8299167"><ele>262.20000000000005</ele><time>2026-05-01T15:40:56.188Z</time></trkpt><trkpt lat="45.8221383" lon="11.829995"><ele>262.79999999999995</ele><time>2026-05-01T15:40:57.186Z</time></trkpt><trkpt lat="45.8221967" lon="11.8300933"><ele>263.4</ele><time>2026-05-01T15:40:58.187Z</time></trkpt><trkpt lat="45.8222667" lon="11.8302083"><ele>264.0</ele><time>2026-05-01T15:40:59.189Z</time></trkpt><trkpt lat="45.8223367" lon="11.8303433"><ele>264.25</ele><time>2026-05-01T15:41:00.185Z</time></trkpt><trkpt lat="45.8224133" lon="11.83048"><ele>264.5</ele><time>2026-05-01T15:41:01.185Z</time></trkpt><trkpt lat="45.822485" lon="11.8306133"><ele>264.75</ele><time>2026-05-01T15:41:02.187Z</time></trkpt><trkpt lat="45.8225583" lon="11.83075"><ele>265.0</ele><time>2026-05-01T15:41:03.188Z</time></trkpt><trkpt lat="45.8226317" lon="11.83089"><ele>266.25</ele><time>2026-05-01T15:41:04.185Z</time></trkpt><trkpt lat="45.822705" lon="11.831035"><ele>267.5</ele><time>2026-05-01T15:41:05.186Z</time></trkpt><trkpt lat="45.8227833" lon="11.8311833"><ele>268.75</ele><time>2026-05-01T15:41:06.183Z</time></trkpt><trkpt lat="45.8228567" lon="11.831335"><ele>270.0</ele><time>2026-05-01T15:41:07.186Z</time></trkpt><trkpt lat="45.8229333" lon="11.8314783"><ele>270.0</ele><time>2026-05-01T15:41:08.186Z</time></trkpt><trkpt lat="45.8230133" lon="11.831615"><ele>270.0</ele><time>2026-05-01T15:41:09.186Z</time></trkpt><trkpt lat="45.8230867" lon="11.8317483"><ele>270.0</ele><time>2026-05-01T15:41:10.185Z</time></trkpt><trkpt lat="45.8231633" lon="11.831885"><ele>270.0</ele><time>2026-05-01T15:41:11.187Z</time></trkpt><trkpt lat="45.823235" lon="11.83202"><ele>270.0</ele><time>2026-05-01T15:41:12.184Z</time></trkpt><trkpt lat="45.82331" lon="11.8321533"><ele>270.0</ele><time>2026-05-01T15:41:13.186Z</time></trkpt><trkpt lat="45.8233867" lon="11.83229"><ele>270.0</ele><time>2026-05-01T15:41:14.183Z</time></trkpt><trkpt lat="45.8234633" lon="11.8324317"><ele>270.0</ele><time>2026-05-01T15:41:15.187Z</time></trkpt><trkpt lat="45.8235417" lon="11.83257"><ele>270.75</ele><time>2026-05-01T15:41:16.186Z</time></trkpt><trkpt lat="45.8236333" lon="11.832705"><ele>271.5</ele><time>2026-05-01T15:41:17.185Z</time></trkpt><trkpt lat="45.8237317" lon="11.8328367"><ele>272.25</ele><time>2026-05-01T15:41:18.185Z</time></trkpt><trkpt lat="45.8238367" lon="11.832965"><ele>273.0</ele><time>2026-05-01T15:41:19.185Z</time></trkpt><trkpt lat="45.8239467" lon="11.8330917"><ele>273.0</ele><time>2026-05-01T15:41:20.186Z</time></trkpt><trkpt lat="45.8240633" lon="11.83321"><ele>273.0</ele><time>2026-05-01T15:41:21.186Z</time></trkpt><trkpt lat="45.8241733" lon="11.8333167"><ele>273.0</ele><time>2026-05-01T15:41:22.186Z</time></trkpt><trkpt lat="45.824275" lon="11.833425"><ele>273.0</ele><time>2026-05-01T15:41:23.185Z</time></trkpt><trkpt lat="45.8243817" lon="11.8335317"><ele>274.25</ele><time>2026-05-01T15:41:24.185Z</time></trkpt><trkpt lat="45.82449" lon="11.833645"><ele>275.5</ele><time>2026-05-01T15:41:25.186Z</time></trkpt><trkpt lat="45.8246017" lon="11.8337567"><ele>276.75</ele><time>2026-05-01T15:41:26.185Z</time></trkpt><trkpt lat="45.82471" lon="11.8338733"><ele>278.0</ele><time>2026-05-01T15:41:27.185Z</time></trkpt><trkpt lat="45.82482" lon="11.8339933"><ele>278.0</ele><time>2026-05-01T15:41:28.187Z</time></trkpt><trkpt lat="45.8249367" lon="11.8341083"><ele>278.0</ele><time>2026-05-01T15:41:29.185Z</time></trkpt><trkpt lat="45.82505" lon="11.8342333"><ele>278.0</ele><time>2026-05-01T15:41:30.184Z</time></trkpt><trkpt lat="45.8251667" lon="11.8343583"><ele>278.0</ele><time>2026-05-01T15:41:31.184Z</time></trkpt><trkpt lat="45.8252867" lon="11.8344817"><ele>279.25</ele><time>2026-05-01T15:41:32.187Z</time></trkpt><trkpt lat="45.8254" lon="11.834605"><ele>280.5</ele><time>2026-05-01T15:41:33.188Z</time></trkpt><trkpt lat="45.8255033" lon="11.83472"><ele>281.75</ele><time>2026-05-01T15:41:34.267Z</time></trkpt><trkpt lat="45.8256083" lon="11.8348317"><ele>283.0</ele><time>2026-05-01T15:41:35.186Z</time></trkpt><trkpt lat="45.825715" lon="11.8349433"><ele>283.0</ele><time>2026-05-01T15:41:36.184Z</time></trkpt><trkpt lat="45.825815" lon="11.83505"><ele>283.0</ele><time>2026-05-01T15:41:37.186Z</time></trkpt><trkpt lat="45.8259067" lon="11.8351533"><ele>283.0</ele><time>2026-05-01T15:41:38.186Z</time></trkpt><trkpt lat="45.826" lon="11.835255"><ele>283.0</ele><time>2026-05-01T15:41:39.185Z</time></trkpt><trkpt lat="45.826095" lon="11.83536"><ele>283.75</ele><time>2026-05-01T15:41:40.186Z</time></trkpt><trkpt lat="45.8261867" lon="11.8354583"><ele>284.5</ele><time>2026-05-01T15:41:41.185Z</time></trkpt><trkpt lat="45.8262733" lon="11.8355583"><ele>285.25</ele><time>2026-05-01T15:41:42.187Z</time></trkpt><trkpt lat="45.8263533" lon="11.835675"><ele>286.0</ele><time>2026-05-01T15:41:43.187Z</time></trkpt><trkpt lat="45.8264183" lon="11.8358233"><ele>285.75</ele><time>2026-05-01T15:41:44.185Z</time></trkpt><trkpt lat="45.826475" lon="11.8359817"><ele>285.5</ele><time>2026-05-01T15:41:45.185Z</time></trkpt><trkpt lat="45.8265267" lon="11.8361333"><ele>285.25</ele><time>2026-05-01T15:41:46.184Z</time></trkpt><trkpt lat="45.8265633" lon="11.8362833"><ele>285.0</ele><time>2026-05-01T15:41:47.184Z</time></trkpt><trkpt lat="45.8266033" lon="11.8364317"><ele>285.0</ele><time>2026-05-01T15:41:48.187Z</time></trkpt><trkpt lat="45.82664" lon="11.8365783"><ele>285.0</ele><time>2026-05-01T15:41:49.187Z</time></trkpt><trkpt lat="45.8266683" lon="11.8367167"><ele>285.0</ele><time>2026-05-01T15:41:50.186Z</time></trkpt><trkpt lat="45.8266917" lon="11.8368517"><ele>285.0</ele><time>2026-05-01T15:41:51.187Z</time></trkpt><trkpt lat="45.8267133" lon="11.8369633"><ele>285.0</ele><time>2026-05-01T15:41:52.186Z</time></trkpt><trkpt lat="45.8267383" lon="11.8370483"><ele>285.0</ele><time>2026-05-01T15:41:53.185Z</time></trkpt><trkpt lat="45.8267633" lon="11.837175"><ele>285.0</ele><time>2026-05-01T15:41:55.187Z</time></trkpt><trkpt lat="45.826775" lon="11.83728"><ele>285.0</ele><time>2026-05-01T15:41:58.186Z</time></trkpt><trkpt lat="45.826805" lon="11.8373917"><ele>285.0</ele><time>2026-05-01T15:42:01.185Z</time></trkpt><trkpt lat="45.8268433" lon="11.8375283"><ele>285.0</ele><time>2026-05-01T15:42:03.187Z</time></trkpt><trkpt lat="45.826875" lon="11.8377033"><ele>286.6666666666667</ele><time>2026-05-01T15:42:05.184Z</time></trkpt><trkpt lat="45.82689" lon="11.8378"><ele>288.3333333333333</ele><time>2026-05-01T15:42:06.185Z</time></trkpt><trkpt lat="45.8269033" lon="11.8379083"><ele>290.0</ele><time>2026-05-01T15:42:07.184Z</time></trkpt><trkpt lat="45.8269217" lon="11.8380167"><ele>291.66666666666663</ele><time>2026-05-01T15:42:08.186Z</time></trkpt><trkpt lat="45.8269417" lon="11.83813"><ele>293.3333333333333</ele><time>2026-05-01T15:42:09.187Z</time></trkpt><trkpt lat="45.8269733" lon="11.8382517"><ele>295.0</ele><time>2026-05-01T15:42:10.183Z</time></trkpt><trkpt lat="45.8270033" lon="11.8383733"><ele>294.6</ele><time>2026-05-01T15:42:11.265Z</time></trkpt><trkpt lat="45.827035" lon="11.8384967"><ele>294.2</ele><time>2026-05-01T15:42:12.186Z</time></trkpt><trkpt lat="45.8270633" lon="11.838625"><ele>293.8</ele><time>2026-05-01T15:42:13.185Z</time></trkpt><trkpt lat="45.82709" lon="11.8387583"><ele>293.4</ele><time>2026-05-01T15:42:14.186Z</time></trkpt><trkpt lat="45.8271167" lon="11.838895"><ele>293.0</ele><time>2026-05-01T15:42:15.192Z</time></trkpt><trkpt lat="45.8271483" lon="11.8390383"><ele>293.0</ele><time>2026-05-01T15:42:16.184Z</time></trkpt><trkpt lat="45.8271833" lon="11.8391917"><ele>293.0</ele><time>2026-05-01T15:42:17.187Z</time></trkpt><trkpt lat="45.8272133" lon="11.83934"><ele>293.0</ele><time>2026-05-01T15:42:18.187Z</time></trkpt><trkpt lat="45.8272417" lon="11.839475"><ele>293.0</ele><time>2026-05-01T15:42:19.188Z</time></trkpt><trkpt lat="45.827265" lon="11.8396033"><ele>293.0</ele><time>2026-05-01T15:42:20.185Z</time></trkpt><trkpt lat="45.8272867" lon="11.8397317"><ele>293.0</ele><time>2026-05-01T15:42:21.186Z</time></trkpt><trkpt lat="45.8273117" lon="11.83985"><ele>293.0</ele><time>2026-05-01T15:42:22.184Z</time></trkpt><trkpt lat="45.8273383" lon="11.8399617"><ele>293.0</ele><time>2026-05-01T15:42:23.192Z</time></trkpt><trkpt lat="45.8273917" lon="11.8400517"><ele>293.0</ele><time>2026-05-01T15:42:24.183Z</time></trkpt><trkpt lat="45.8274667" lon="11.8401117"><ele>293.0</ele><time>2026-05-01T15:42:25.184Z</time></trkpt><trkpt lat="45.8275533" lon="11.8401483"><ele>293.0</ele><time>2026-05-01T15:42:26.185Z</time></trkpt><trkpt lat="45.8276367" lon="11.8401783"><ele>293.6</ele><time>2026-05-01T15:42:27.188Z</time></trkpt><trkpt lat="45.8277267" lon="11.840185"><ele>294.20000000000005</ele><time>2026-05-01T15:42:28.185Z</time></trkpt><trkpt lat="45.8278233" lon="11.84017"><ele>294.8</ele><time>2026-05-01T15:42:29.186Z</time></trkpt><trkpt lat="45.8279183" lon="11.8401433"><ele>295.40000000000003</ele><time>2026-05-01T15:42:30.186Z</time></trkpt><trkpt lat="45.8280117" lon="11.840125"><ele>296.0</ele><time>2026-05-01T15:42:31.183Z</time></trkpt><trkpt lat="45.8281033" lon="11.8401083"><ele>296.0</ele><time>2026-05-01T15:42:32.185Z</time></trkpt><trkpt lat="45.8281983" lon="11.8400917"><ele>296.0</ele><time>2026-05-01T15:42:33.184Z</time></trkpt><trkpt lat="45.828295" lon="11.8400717"><ele>296.0</ele><time>2026-05-01T15:42:34.185Z</time></trkpt><trkpt lat="45.8283833" lon="11.8400383"><ele>296.0</ele><time>2026-05-01T15:42:35.185Z</time></trkpt><trkpt lat="45.8284667" lon="11.8400167"><ele>296.0</ele><time>2026-05-01T15:42:36.186Z</time></trkpt><trkpt lat="45.8285367" lon="11.839995"><ele>296.0</ele><time>2026-05-01T15:42:37.187Z</time></trkpt><trkpt lat="45.82861" lon="11.8399833"><ele>296.5</ele><time>2026-05-01T15:42:38.191Z</time></trkpt><trkpt lat="45.8286883" lon="11.8400017"><ele>297.0</ele><time>2026-05-01T15:42:39.187Z</time></trkpt><trkpt lat="45.8287683" lon="11.8400383"><ele>297.5</ele><time>2026-05-01T15:42:40.184Z</time></trkpt><trkpt lat="45.828825" lon="11.8400883"><ele>298.0</ele><time>2026-05-01T15:42:41.186Z</time></trkpt><trkpt lat="45.8288717" lon="11.8401517"><ele>298.5</ele><time>2026-05-01T15:42:43.184Z</time></trkpt><trkpt lat="45.828895" lon="11.840315"><ele>299.0</ele><time>2026-05-01T15:42:50.184Z</time></trkpt><trkpt lat="45.828945" lon="11.8404733"><ele>299.2</ele><time>2026-05-01T15:42:52.188Z</time></trkpt><trkpt lat="45.8289833" lon="11.840645"><ele>299.4</ele><time>2026-05-01T15:42:54.187Z</time></trkpt><trkpt lat="45.8290167" lon="11.84082"><ele>299.6</ele><time>2026-05-01T15:42:56.184Z</time></trkpt><trkpt lat="45.829035" lon="11.840925"><ele>299.8</ele><time>2026-05-01T15:42:57.184Z</time></trkpt><trkpt lat="45.8290533" lon="11.8410383"><ele>300.0</ele><time>2026-05-01T15:42:58.186Z</time></trkpt><trkpt lat="45.8290733" lon="11.8411533"><ele>300.0</ele><time>2026-05-01T15:42:59.187Z</time></trkpt><trkpt lat="45.8290967" lon="11.8412617"><ele>300.0</ele><time>2026-05-01T15:43:00.184Z</time></trkpt><trkpt lat="45.8291217" lon="11.8413583"><ele>300.0</ele><time>2026-05-01T15:43:01.183Z</time></trkpt><trkpt lat="45.8291533" lon="11.8414483"><ele>300.0</ele><time>2026-05-01T15:43:02.183Z</time></trkpt><trkpt lat="45.8292033" lon="11.8415983"><ele>300.0</ele><time>2026-05-01T15:43:04.185Z</time></trkpt><trkpt lat="45.8293017" lon="11.84169"><ele>299.3333333333333</ele><time>2026-05-01T15:43:06.185Z</time></trkpt><trkpt lat="45.829375" lon="11.8417"><ele>298.6666666666667</ele><time>2026-05-01T15:43:07.184Z</time></trkpt><trkpt lat="45.82945" lon="11.8416967"><ele>298.0</ele><time>2026-05-01T15:43:08.183Z</time></trkpt><trkpt lat="45.82952" lon="11.8416733"><ele>297.33333333333337</ele><time>2026-05-01T15:43:09.186Z</time></trkpt><trkpt lat="45.82959" lon="11.8416183"><ele>296.6666666666667</ele><time>2026-05-01T15:43:10.185Z</time></trkpt><trkpt lat="45.8296467" lon="11.8415467"><ele>296.0</ele><time>2026-05-01T15:43:11.186Z</time></trkpt><trkpt lat="45.829685" lon="11.8414517"><ele>296.0</ele><time>2026-05-01T15:43:12.185Z</time></trkpt><trkpt lat="45.8297017" lon="11.8413133"><ele>296.0</ele><time>2026-05-01T15:43:13.187Z</time></trkpt><trkpt lat="45.829715" lon="11.8411717"><ele>296.0</ele><time>2026-05-01T15:43:14.186Z</time></trkpt><trkpt lat="45.8297333" lon="11.8410383"><ele>296.0</ele><time>2026-05-01T15:43:15.186Z</time></trkpt><trkpt lat="45.8297517" lon="11.840895"><ele>296.0</ele><time>2026-05-01T15:43:16.184Z</time></trkpt><trkpt lat="45.8297617" lon="11.840745"><ele>296.33333333333337</ele><time>2026-05-01T15:43:17.184Z</time></trkpt><trkpt lat="45.8297633" lon="11.840555"><ele>296.6666666666667</ele><time>2026-05-01T15:43:18.184Z</time></trkpt><trkpt lat="45.829765" lon="11.8403283"><ele>297.0</ele><time>2026-05-01T15:43:19.184Z</time></trkpt><trkpt lat="45.8297833" lon="11.8400733"><ele>297.0</ele><time>2026-05-01T15:43:20.27Z</time></trkpt><trkpt lat="45.829815" lon="11.8398183"><ele>297.0</ele><time>2026-05-01T15:43:21.185Z</time></trkpt><trkpt lat="45.8298633" lon="11.8395867"><ele>297.0</ele><time>2026-05-01T15:43:22.186Z</time></trkpt><trkpt lat="45.82991" lon="11.8393767"><ele>297.5</ele><time>2026-05-01T15:43:23.189Z</time></trkpt><trkpt lat="45.829955" lon="11.8391783"><ele>298.0</ele><time>2026-05-01T15:43:24.186Z</time></trkpt><trkpt lat="45.8299917" lon="11.838985"><ele>298.5</ele><time>2026-05-01T15:43:25.188Z</time></trkpt><trkpt lat="45.830025" lon="11.8388067"><ele>299.0</ele><time>2026-05-01T15:43:26.186Z</time></trkpt><trkpt lat="45.830055" lon="11.838645"><ele>299.0</ele><time>2026-05-01T15:43:27.185Z</time></trkpt><trkpt lat="45.8300883" lon="11.8385017"><ele>299.0</ele><time>2026-05-01T15:43:28.184Z</time></trkpt><trkpt lat="45.8301433" lon="11.838375"><ele>299.0</ele><time>2026-05-01T15:43:29.189Z</time></trkpt><trkpt lat="45.8302233" lon="11.838275"><ele>299.0</ele><time>2026-05-01T15:43:30.185Z</time></trkpt><trkpt lat="45.8303217" lon="11.8382217"><ele>299.0</ele><time>2026-05-01T15:43:31.184Z</time></trkpt><trkpt lat="45.83042" lon="11.8382133"><ele>300.25</ele><time>2026-05-01T15:43:32.185Z</time></trkpt><trkpt lat="45.830515" lon="11.8382567"><ele>301.5</ele><time>2026-05-01T15:43:33.188Z</time></trkpt><trkpt lat="45.83062" lon="11.8383533"><ele>302.75</ele><time>2026-05-01T15:43:34.184Z</time></trkpt><trkpt lat="45.83073" lon="11.8385083"><ele>304.0</ele><time>2026-05-01T15:43:35.185Z</time></trkpt><trkpt lat="45.8308433" lon="11.83871"><ele>304.0</ele><time>2026-05-01T15:43:36.184Z</time></trkpt><trkpt lat="45.83096" lon="11.838925"><ele>304.0</ele><time>2026-05-01T15:43:37.185Z</time></trkpt><trkpt lat="45.8310783" lon="11.839135"><ele>304.0</ele><time>2026-05-01T15:43:38.185Z</time></trkpt><trkpt lat="45.8312" lon="11.83934"><ele>305.66666666666663</ele><time>2026-05-01T15:43:39.186Z</time></trkpt><trkpt lat="45.8313417" lon="11.839515"><ele>307.3333333333333</ele><time>2026-05-01T15:43:40.186Z</time></trkpt><trkpt lat="45.8314633" lon="11.839705"><ele>309.0</ele><time>2026-05-01T15:43:41.185Z</time></trkpt><trkpt lat="45.8315717" lon="11.8399133"><ele>308.0</ele><time>2026-05-01T15:43:42.19Z</time></trkpt><trkpt lat="45.8316683" lon="11.840145"><ele>307.0</ele><time>2026-05-01T15:43:43.186Z</time></trkpt><trkpt lat="45.8317417" lon="11.8403933"><ele>306.0</ele><time>2026-05-01T15:43:44.189Z</time></trkpt><trkpt lat="45.8318133" lon="11.8406283"><ele>310.0</ele><time>2026-05-01T15:43:45.183Z</time></trkpt><trkpt lat="45.8318883" lon="11.8408667"><ele>314.0</ele><time>2026-05-01T15:43:46.186Z</time></trkpt><trkpt lat="45.8319767" lon="11.8410967"><ele>318.0</ele><time>2026-05-01T15:43:47.184Z</time></trkpt><trkpt lat="45.8320283" lon="11.84132"><ele>318.0</ele><time>2026-05-01T15:43:48.184Z</time></trkpt><trkpt lat="45.8320783" lon="11.8415217"><ele>318.0</ele><time>2026-05-01T15:43:49.184Z</time></trkpt><trkpt lat="45.8321233" lon="11.8416883"><ele>318.0</ele><time>2026-05-01T15:43:50.185Z</time></trkpt><trkpt lat="45.8321833" lon="11.8418267"><ele>318.0</ele><time>2026-05-01T15:43:51.185Z</time></trkpt><trkpt lat="45.8322917" lon="11.8419217"><ele>318.3333333333333</ele><time>2026-05-01T15:43:52.186Z</time></trkpt><trkpt lat="45.8324367" lon="11.84199"><ele>318.66666666666663</ele><time>2026-05-01T15:43:53.186Z</time></trkpt><trkpt lat="45.8326033" lon="11.8420567"><ele>319.0</ele><time>2026-05-01T15:43:54.188Z</time></trkpt><trkpt lat="45.8327767" lon="11.8421267"><ele>319.0</ele><time>2026-05-01T15:43:55.186Z</time></trkpt><trkpt lat="45.8329533" lon="11.8422083"><ele>319.0</ele><time>2026-05-01T15:43:56.183Z</time></trkpt><trkpt lat="45.83313" lon="11.8422833"><ele>319.0</ele><time>2026-05-01T15:43:57.189Z</time></trkpt><trkpt lat="45.8332917" lon="11.8423517"><ele>319.0</ele><time>2026-05-01T15:43:58.185Z</time></trkpt><trkpt lat="45.8334267" lon="11.8424167"><ele>319.0</ele><time>2026-05-01T15:43:59.187Z</time></trkpt><trkpt lat="45.8335383" lon="11.8424583"><ele>319.0</ele><time>2026-05-01T15:44:00.183Z</time></trkpt><trkpt lat="45.833625" lon="11.8425067"><ele>319.0</ele><time>2026-05-01T15:44:01.184Z</time></trkpt><trkpt lat="45.8336883" lon="11.8425833"><ele>319.0</ele><time>2026-05-01T15:44:02.185Z</time></trkpt><trkpt lat="45.8337233" lon="11.842685"><ele>320.0</ele><time>2026-05-01T15:44:03.186Z</time></trkpt><trkpt lat="45.8337317" lon="11.8427983"><ele>321.0</ele><time>2026-05-01T15:44:04.185Z</time></trkpt><trkpt lat="45.8336933" lon="11.8429167"><ele>322.0</ele><time>2026-05-01T15:44:05.188Z</time></trkpt><trkpt lat="45.8336267" lon="11.8430383"><ele>323.0</ele><time>2026-05-01T15:44:06.186Z</time></trkpt><trkpt lat="45.8335667" lon="11.8431783"><ele>324.0</ele><time>2026-05-01T15:44:07.185Z</time></trkpt><trkpt lat="45.833495" lon="11.8433367"><ele>322.3333333333333</ele><time>2026-05-01T15:44:08.265Z</time></trkpt><trkpt lat="45.8334183" lon="11.8435183"><ele>320.66666666666663</ele><time>2026-05-01T15:44:09.186Z</time></trkpt><trkpt lat="45.8333383" lon="11.8437183"><ele>319.0</ele><time>2026-05-01T15:44:10.186Z</time></trkpt><trkpt lat="45.8332533" lon="11.8439283"><ele>319.0</ele><time>2026-05-01T15:44:11.183Z</time></trkpt><trkpt lat="45.8331617" lon="11.8441367"><ele>319.0</ele><time>2026-05-01T15:44:12.183Z</time></trkpt><trkpt lat="45.83307" lon="11.8443483"><ele>319.0</ele><time>2026-05-01T15:44:13.184Z</time></trkpt><trkpt lat="45.83298" lon="11.8445583"><ele>319.3333333333333</ele><time>2026-05-01T15:44:14.184Z</time></trkpt><trkpt lat="45.8328883" lon="11.8447617"><ele>319.6666666666667</ele><time>2026-05-01T15:44:15.19Z</time></trkpt><trkpt lat="45.8328067" lon="11.8449533"><ele>320.0</ele><time>2026-05-01T15:44:16.185Z</time></trkpt><trkpt lat="45.8327333" lon="11.845135"><ele>320.5</ele><time>2026-05-01T15:44:17.189Z</time></trkpt><trkpt lat="45.8326817" lon="11.8453233"><ele>321.0</ele><time>2026-05-01T15:44:18.185Z</time></trkpt><trkpt lat="45.8326617" lon="11.8455233"><ele>321.5</ele><time>2026-05-01T15:44:19.187Z</time></trkpt><trkpt lat="45.8326733" lon="11.845715"><ele>322.0</ele><time>2026-05-01T15:44:20.186Z</time></trkpt><trkpt lat="45.8327083" lon="11.8458883"><ele>323.0</ele><time>2026-05-01T15:44:21.184Z</time></trkpt><trkpt lat="45.8327633" lon="11.8460567"><ele>324.0</ele><time>2026-05-01T15:44:22.184Z</time></trkpt><trkpt lat="45.83286" lon="11.8462233"><ele>325.0</ele><time>2026-05-01T15:44:23.184Z</time></trkpt><trkpt lat="45.8329917" lon="11.8464"><ele>325.0</ele><time>2026-05-01T15:44:24.184Z</time></trkpt><trkpt lat="45.83313" lon="11.8465883"><ele>325.0</ele><time>2026-05-01T15:44:25.184Z</time></trkpt><trkpt lat="45.8332667" lon="11.8467783"><ele>325.0</ele><time>2026-05-01T15:44:26.187Z</time></trkpt><trkpt lat="45.8333983" lon="11.8469683"><ele>327.3333333333333</ele><time>2026-05-01T15:44:27.187Z</time></trkpt><trkpt lat="45.8335317" lon="11.8471533"><ele>329.6666666666667</ele><time>2026-05-01T15:44:28.183Z</time></trkpt><trkpt lat="45.83367" lon="11.8473233"><ele>332.0</ele><time>2026-05-01T15:44:29.186Z</time></trkpt><trkpt lat="45.8338217" lon="11.84747"><ele>332.0</ele><time>2026-05-01T15:44:30.188Z</time></trkpt><trkpt lat="45.8339817" lon="11.8475967"><ele>332.0</ele><time>2026-05-01T15:44:31.188Z</time></trkpt><trkpt lat="45.834145" lon="11.847715"><ele>332.0</ele><time>2026-05-01T15:44:32.185Z</time></trkpt><trkpt lat="45.83431" lon="11.847835"><ele>332.6666666666667</ele><time>2026-05-01T15:44:33.185Z</time></trkpt><trkpt lat="45.8344783" lon="11.8479483"><ele>333.3333333333333</ele><time>2026-05-01T15:44:34.185Z</time></trkpt><trkpt lat="45.834645" lon="11.8480633"><ele>334.0</ele><time>2026-05-01T15:44:35.19Z</time></trkpt><trkpt lat="45.8347983" lon="11.8481883"><ele>334.0</ele><time>2026-05-01T15:44:36.19Z</time></trkpt><trkpt lat="45.8349467" lon="11.8483183"><ele>334.0</ele><time>2026-05-01T15:44:37.192Z</time></trkpt><trkpt lat="45.835075" lon="11.84848"><ele>334.0</ele><time>2026-05-01T15:44:38.183Z</time></trkpt><trkpt lat="45.835185" lon="11.8486817"><ele>335.66666666666663</ele><time>2026-05-01T15:44:39.191Z</time></trkpt><trkpt lat="45.83527" lon="11.8489217"><ele>337.3333333333333</ele><time>2026-05-01T15:44:40.186Z</time></trkpt><trkpt lat="45.8353433" lon="11.8491917"><ele>339.0</ele><time>2026-05-01T15:44:41.185Z</time></trkpt><trkpt lat="45.8354033" lon="11.849485"><ele>339.0</ele><time>2026-05-01T15:44:42.184Z</time></trkpt><trkpt lat="45.8354583" lon="11.84978"><ele>339.0</ele><time>2026-05-01T15:44:43.186Z</time></trkpt><trkpt lat="45.8355017" lon="11.8500767"><ele>339.0</ele><time>2026-05-01T15:44:44.186Z</time></trkpt><trkpt lat="45.8355567" lon="11.8503783"><ele>338.6666666666667</ele><time>2026-05-01T15:44:45.186Z</time></trkpt><trkpt lat="45.835615" lon="11.8506783"><ele>338.33333333333337</ele><time>2026-05-01T15:44:46.184Z</time></trkpt><trkpt lat="45.8356683" lon="11.8509667"><ele>338.0</ele><time>2026-05-01T15:44:47.184Z</time></trkpt><trkpt lat="45.8357133" lon="11.8512417"><ele>337.6666666666667</ele><time>2026-05-01T15:44:48.185Z</time></trkpt><trkpt lat="45.8357567" lon="11.8515017"><ele>337.3333333333333</ele><time>2026-05-01T15:44:49.185Z</time></trkpt><trkpt lat="45.8357983" lon="11.8517483"><ele>337.0</ele><time>2026-05-01T15:44:50.188Z</time></trkpt><trkpt lat="45.8358417" lon="11.8519817"><ele>337.0</ele><time>2026-05-01T15:44:51.189Z</time></trkpt><trkpt lat="45.8358917" lon="11.8522"><ele>337.0</ele><time>2026-05-01T15:44:52.188Z</time></trkpt><trkpt lat="45.8359467" lon="11.852405"><ele>337.0</ele><time>2026-05-01T15:44:53.189Z</time></trkpt><trkpt lat="45.83601" lon="11.8526"><ele>338.3333333333333</ele><time>2026-05-01T15:44:54.184Z</time></trkpt><trkpt lat="45.83608" lon="11.8528017"><ele>339.6666666666667</ele><time>2026-05-01T15:44:55.187Z</time></trkpt><trkpt lat="45.83615" lon="11.8530133"><ele>341.0</ele><time>2026-05-01T15:44:56.185Z</time></trkpt><trkpt lat="45.83622" lon="11.853235"><ele>340.6666666666667</ele><time>2026-05-01T15:44:57.185Z</time></trkpt><trkpt lat="45.8362917" lon="11.8534617"><ele>340.3333333333333</ele><time>2026-05-01T15:44:58.184Z</time></trkpt><trkpt lat="45.8363633" lon="11.8536933"><ele>340.0</ele><time>2026-05-01T15:44:59.184Z</time></trkpt><trkpt lat="45.836435" lon="11.85392"><ele>340.0</ele><time>2026-05-01T15:45:00.184Z</time></trkpt><trkpt lat="45.8365017" lon="11.8541417"><ele>340.0</ele><time>2026-05-01T15:45:01.185Z</time></trkpt><trkpt lat="45.8365717" lon="11.8543683"><ele>340.0</ele><time>2026-05-01T15:45:02.187Z</time></trkpt><trkpt lat="45.8366433" lon="11.8546"><ele>339.3333333333333</ele><time>2026-05-01T15:45:03.189Z</time></trkpt><trkpt lat="45.8367133" lon="11.8548317"><ele>338.6666666666667</ele><time>2026-05-01T15:45:04.186Z</time></trkpt><trkpt lat="45.8367867" lon="11.855065"><ele>338.0</ele><time>2026-05-01T15:45:05.186Z</time></trkpt><trkpt lat="45.8368617" lon="11.8553"><ele>338.0</ele><time>2026-05-01T15:45:06.187Z</time></trkpt><trkpt lat="45.8369367" lon="11.8555333"><ele>338.0</ele><time>2026-05-01T15:45:07.187Z</time></trkpt><trkpt lat="45.8370133" lon="11.8557617"><ele>338.0</ele><time>2026-05-01T15:45:08.19Z</time></trkpt><trkpt lat="45.8370867" lon="11.8559833"><ele>337.0</ele><time>2026-05-01T15:45:09.186Z</time></trkpt><trkpt lat="45.8371583" lon="11.8562067"><ele>336.0</ele><time>2026-05-01T15:45:10.185Z</time></trkpt><trkpt lat="45.837245" lon="11.8564217"><ele>335.0</ele><time>2026-05-01T15:45:11.184Z</time></trkpt><trkpt lat="45.83736" lon="11.8566117"><ele>335.0</ele><time>2026-05-01T15:45:12.186Z</time></trkpt><trkpt lat="45.8374867" lon="11.856795"><ele>335.0</ele><time>2026-05-01T15:45:13.185Z</time></trkpt><trkpt lat="45.8376183" lon="11.8569533"><ele>335.0</ele><time>2026-05-01T15:45:14.184Z</time></trkpt><trkpt lat="45.8377517" lon="11.857095"><ele>335.0</ele><time>2026-05-01T15:45:15.185Z</time></trkpt><trkpt lat="45.8379" lon="11.8572183"><ele>335.0</ele><time>2026-05-01T15:45:16.19Z</time></trkpt><trkpt lat="45.8380583" lon="11.8573233"><ele>335.0</ele><time>2026-05-01T15:45:17.188Z</time></trkpt><trkpt lat="45.8382267" lon="11.8574217"><ele>335.0</ele><time>2026-05-01T15:45:18.185Z</time></trkpt><trkpt lat="45.8384017" lon="11.8575233"><ele>335.0</ele><time>2026-05-01T15:45:19.186Z</time></trkpt><trkpt lat="45.8385783" lon="11.8576283"><ele>335.0</ele><time>2026-05-01T15:45:20.183Z</time></trkpt><trkpt lat="45.8387583" lon="11.857735"><ele>335.33333333333337</ele><time>2026-05-01T15:45:21.191Z</time></trkpt><trkpt lat="45.8389433" lon="11.8578433"><ele>335.6666666666667</ele><time>2026-05-01T15:45:22.184Z</time></trkpt><trkpt lat="45.8391317" lon="11.857955"><ele>336.0</ele><time>2026-05-01T15:45:23.187Z</time></trkpt><trkpt lat="45.8393217" lon="11.8580633"><ele>336.3333333333333</ele><time>2026-05-01T15:45:24.191Z</time></trkpt><trkpt lat="45.8394983" lon="11.8581617"><ele>336.66666666666663</ele><time>2026-05-01T15:45:25.188Z</time></trkpt><trkpt lat="45.8396667" lon="11.858255"><ele>337.0</ele><time>2026-05-01T15:45:26.189Z</time></trkpt><trkpt lat="45.839835" lon="11.858345"><ele>337.0</ele><time>2026-05-01T15:45:27.187Z</time></trkpt><trkpt lat="45.8400017" lon="11.858445"><ele>337.0</ele><time>2026-05-01T15:45:28.188Z</time></trkpt><trkpt lat="45.8401683" lon="11.8585467"><ele>337.0</ele><time>2026-05-01T15:45:29.184Z</time></trkpt><trkpt lat="45.8403333" lon="11.85865"><ele>337.0</ele><time>2026-05-01T15:45:30.186Z</time></trkpt><trkpt lat="45.8404983" lon="11.8587433"><ele>337.0</ele><time>2026-05-01T15:45:31.185Z</time></trkpt><trkpt lat="45.8406483" lon="11.858835"><ele>337.0</ele><time>2026-05-01T15:45:32.188Z</time></trkpt><trkpt lat="45.84079" lon="11.858925"><ele>337.0</ele><time>2026-05-01T15:45:33.19Z</time></trkpt><trkpt lat="45.8409267" lon="11.859005"><ele>337.0</ele><time>2026-05-01T15:45:34.183Z</time></trkpt><trkpt lat="45.841055" lon="11.8590783"><ele>337.0</ele><time>2026-05-01T15:45:35.186Z</time></trkpt><trkpt lat="45.8411867" lon="11.859135"><ele>337.0</ele><time>2026-05-01T15:45:36.188Z</time></trkpt><trkpt lat="45.84133" lon="11.8591617"><ele>337.0</ele><time>2026-05-01T15:45:37.188Z</time></trkpt><trkpt lat="45.8414783" lon="11.8591617"><ele>337.0</ele><time>2026-05-01T15:45:38.186Z</time></trkpt><trkpt lat="45.841625" lon="11.85913"><ele>337.0</ele><time>2026-05-01T15:45:39.186Z</time></trkpt><trkpt lat="45.8417533" lon="11.859075"><ele>337.0</ele><time>2026-05-01T15:45:40.185Z</time></trkpt><trkpt lat="45.8418683" lon="11.85902"><ele>336.20000000000005</ele><time>2026-05-01T15:45:41.186Z</time></trkpt><trkpt lat="45.8419783" lon="11.8589683"><ele>335.4</ele><time>2026-05-01T15:45:42.183Z</time></trkpt><trkpt lat="45.8420717" lon="11.8589233"><ele>334.6</ele><time>2026-05-01T15:45:43.185Z</time></trkpt><trkpt lat="45.8421567" lon="11.8588983"><ele>333.79999999999995</ele><time>2026-05-01T15:45:44.187Z</time></trkpt><trkpt lat="45.8422383" lon="11.8589117"><ele>333.0</ele><time>2026-05-01T15:45:45.187Z</time></trkpt><trkpt lat="45.8423217" lon="11.8589633"><ele>333.0</ele><time>2026-05-01T15:45:46.184Z</time></trkpt><trkpt lat="45.842395" lon="11.85907"><ele>333.0</ele><time>2026-05-01T15:45:47.184Z</time></trkpt><trkpt lat="45.84247" lon="11.8592267"><ele>333.0</ele><time>2026-05-01T15:45:48.188Z</time></trkpt><trkpt lat="45.8425483" lon="11.8594067"><ele>333.0</ele><time>2026-05-01T15:45:49.186Z</time></trkpt><trkpt lat="45.8426267" lon="11.8595833"><ele>334.0</ele><time>2026-05-01T15:45:50.186Z</time></trkpt><trkpt lat="45.84271" lon="11.8597733"><ele>335.0</ele><time>2026-05-01T15:45:51.187Z</time></trkpt><trkpt lat="45.842795" lon="11.85997"><ele>336.0</ele><time>2026-05-01T15:45:52.188Z</time></trkpt><trkpt lat="45.8428817" lon="11.8601683"><ele>333.3333333333333</ele><time>2026-05-01T15:45:53.184Z</time></trkpt><trkpt lat="45.842965" lon="11.8603667"><ele>330.66666666666663</ele><time>2026-05-01T15:45:54.185Z</time></trkpt><trkpt lat="45.84305" lon="11.8605517"><ele>328.0</ele><time>2026-05-01T15:45:55.188Z</time></trkpt><trkpt lat="45.8431267" lon="11.860725"><ele>328.0</ele><time>2026-05-01T15:45:56.185Z</time></trkpt><trkpt lat="45.8431933" lon="11.8608833"><ele>328.0</ele><time>2026-05-01T15:45:57.189Z</time></trkpt><trkpt lat="45.8432633" lon="11.86102"><ele>328.0</ele><time>2026-05-01T15:45:58.185Z</time></trkpt><trkpt lat="45.8433383" lon="11.8611317"><ele>328.0</ele><time>2026-05-01T15:45:59.185Z</time></trkpt><trkpt lat="45.8434233" lon="11.86123"><ele>324.5</ele><time>2026-05-01T15:46:00.185Z</time></trkpt><trkpt lat="45.8435267" lon="11.8612867"><ele>321.0</ele><time>2026-05-01T15:46:01.186Z</time></trkpt><trkpt lat="45.843645" lon="11.8613033"><ele>317.5</ele><time>2026-05-01T15:46:02.183Z</time></trkpt><trkpt lat="45.84377" lon="11.8612767"><ele>314.0</ele><time>2026-05-01T15:46:03.185Z</time></trkpt><trkpt lat="45.8438817" lon="11.8612067"><ele>314.0</ele><time>2026-05-01T15:46:04.186Z</time></trkpt><trkpt lat="45.8439783" lon="11.8611067"><ele>314.0</ele><time>2026-05-01T15:46:05.187Z</time></trkpt><trkpt lat="45.8440533" lon="11.860985"><ele>314.0</ele><time>2026-05-01T15:46:06.183Z</time></trkpt><trkpt lat="45.8440983" lon="11.860845"><ele>314.0</ele><time>2026-05-01T15:46:07.187Z</time></trkpt><trkpt lat="45.8441183" lon="11.860695"><ele>314.0</ele><time>2026-05-01T15:46:08.184Z</time></trkpt><trkpt lat="45.8441067" lon="11.860515"><ele>315.75</ele><time>2026-05-01T15:46:09.185Z</time></trkpt><trkpt lat="45.8440817" lon="11.8603283"><ele>317.5</ele><time>2026-05-01T15:46:10.186Z</time></trkpt><trkpt lat="45.8440517" lon="11.8601467"><ele>319.25</ele><time>2026-05-01T15:46:11.185Z</time></trkpt><trkpt lat="45.8440283" lon="11.8599833"><ele>321.0</ele><time>2026-05-01T15:46:12.185Z</time></trkpt><trkpt lat="45.8440283" lon="11.8598267"><ele>321.4</ele><time>2026-05-01T15:46:13.19Z</time></trkpt><trkpt lat="45.8440533" lon="11.8596833"><ele>321.8</ele><time>2026-05-01T15:46:14.186Z</time></trkpt><trkpt lat="45.8441033" lon="11.859535"><ele>322.2</ele><time>2026-05-01T15:46:15.186Z</time></trkpt><trkpt lat="45.8441633" lon="11.859395"><ele>322.59999999999997</ele><time>2026-05-01T15:46:16.189Z</time></trkpt><trkpt lat="45.8442333" lon="11.8592817"><ele>323.0</ele><time>2026-05-01T15:46:17.184Z</time></trkpt><trkpt lat="45.844315" lon="11.8591967"><ele>324.5</ele><time>2026-05-01T15:46:18.185Z</time></trkpt><trkpt lat="45.8444133" lon="11.8591533"><ele>326.0</ele><time>2026-05-01T15:46:19.185Z</time></trkpt><trkpt lat="45.8445233" lon="11.8591583"><ele>327.5</ele><time>2026-05-01T15:46:20.184Z</time></trkpt><trkpt lat="45.8446383" lon="11.8592317"><ele>329.0</ele><time>2026-05-01T15:46:21.186Z</time></trkpt><trkpt lat="45.8447683" lon="11.859345"><ele>329.5</ele><time>2026-05-01T15:46:22.185Z</time></trkpt><trkpt lat="45.8449083" lon="11.8594667"><ele>330.0</ele><time>2026-05-01T15:46:23.183Z</time></trkpt><trkpt lat="45.8450367" lon="11.85957"><ele>330.5</ele><time>2026-05-01T15:46:24.187Z</time></trkpt><trkpt lat="45.845155" lon="11.8596633"><ele>331.0</ele><time>2026-05-01T15:46:25.185Z</time></trkpt><trkpt lat="45.8452533" lon="11.859745"><ele>331.0</ele><time>2026-05-01T15:46:26.186Z</time></trkpt><trkpt lat="45.8453317" lon="11.8598233"><ele>331.0</ele><time>2026-05-01T15:46:27.186Z</time></trkpt><trkpt lat="45.84539" lon="11.859915"><ele>331.0</ele><time>2026-05-01T15:46:28.187Z</time></trkpt><trkpt lat="45.8454233" lon="11.86003"><ele>331.0</ele><time>2026-05-01T15:46:29.184Z</time></trkpt><trkpt lat="45.8454233" lon="11.8601833"><ele>331.0</ele><time>2026-05-01T15:46:30.185Z</time></trkpt><trkpt lat="45.8453783" lon="11.8603567"><ele>330.75</ele><time>2026-05-01T15:46:31.184Z</time></trkpt><trkpt lat="45.845305" lon="11.8605317"><ele>330.5</ele><time>2026-05-01T15:46:32.184Z</time></trkpt><trkpt lat="45.84522" lon="11.8607033"><ele>330.25</ele><time>2026-05-01T15:46:33.187Z</time></trkpt><trkpt lat="45.8451367" lon="11.8608633"><ele>330.0</ele><time>2026-05-01T15:46:34.187Z</time></trkpt><trkpt lat="45.84506" lon="11.86102"><ele>322.0</ele><time>2026-05-01T15:46:35.184Z</time></trkpt><trkpt lat="45.844995" lon="11.8611917"><ele>314.0</ele><time>2026-05-01T15:46:36.187Z</time></trkpt><trkpt lat="45.8449533" lon="11.861395"><ele>306.0</ele><time>2026-05-01T15:46:37.187Z</time></trkpt><trkpt lat="45.84493" lon="11.8616367"><ele>305.3333333333333</ele><time>2026-05-01T15:46:38.187Z</time></trkpt><trkpt lat="45.8449183" lon="11.8618967"><ele>304.66666666666663</ele><time>2026-05-01T15:46:39.185Z</time></trkpt><trkpt lat="45.8449117" lon="11.86216"><ele>304.0</ele><time>2026-05-01T15:46:40.184Z</time></trkpt><trkpt lat="45.844915" lon="11.8624333"><ele>300.3333333333333</ele><time>2026-05-01T15:46:41.185Z</time></trkpt><trkpt lat="45.8449383" lon="11.8627217"><ele>296.6666666666667</ele><time>2026-05-01T15:46:42.185Z</time></trkpt><trkpt lat="45.8449733" lon="11.8630267"><ele>293.0</ele><time>2026-05-01T15:46:43.186Z</time></trkpt><trkpt lat="45.8450083" lon="11.8633317"><ele>290.6666666666667</ele><time>2026-05-01T15:46:44.186Z</time></trkpt><trkpt lat="45.84504" lon="11.8636283"><ele>288.3333333333333</ele><time>2026-05-01T15:46:45.184Z</time></trkpt><trkpt lat="45.8450717" lon="11.8639217"><ele>286.0</ele><time>2026-05-01T15:46:46.188Z</time></trkpt><trkpt lat="45.8451" lon="11.864225"><ele>281.0</ele><time>2026-05-01T15:46:47.185Z</time></trkpt><trkpt lat="45.8451317" lon="11.8645183"><ele>276.0</ele><time>2026-05-01T15:46:48.187Z</time></trkpt><trkpt lat="45.8451583" lon="11.8648017"><ele>271.0</ele><time>2026-05-01T15:46:49.187Z</time></trkpt><trkpt lat="45.8451867" lon="11.8650733"><ele>270.3333333333333</ele><time>2026-05-01T15:46:50.187Z</time></trkpt><trkpt lat="45.8452183" lon="11.86534"><ele>269.6666666666667</ele><time>2026-05-01T15:46:51.188Z</time></trkpt><trkpt lat="45.8452417" lon="11.8656017"><ele>269.0</ele><time>2026-05-01T15:46:52.188Z</time></trkpt><trkpt lat="45.8452617" lon="11.8658667"><ele>269.33333333333337</ele><time>2026-05-01T15:46:53.187Z</time></trkpt><trkpt lat="45.8452833" lon="11.8661233"><ele>269.6666666666667</ele><time>2026-05-01T15:46:54.189Z</time></trkpt><trkpt lat="45.8453083" lon="11.8663733"><ele>270.0</ele><time>2026-05-01T15:46:55.189Z</time></trkpt><trkpt lat="45.84535" lon="11.8666117"><ele>268.6666666666667</ele><time>2026-05-01T15:46:56.188Z</time></trkpt><trkpt lat="45.8454067" lon="11.8668383"><ele>267.33333333333337</ele><time>2026-05-01T15:46:57.186Z</time></trkpt><trkpt lat="45.8454683" lon="11.8670433"><ele>266.0</ele><time>2026-05-01T15:46:58.185Z</time></trkpt><trkpt lat="45.8455483" lon="11.86724"><ele>266.0</ele><time>2026-05-01T15:46:59.186Z</time></trkpt><trkpt lat="45.8456383" lon="11.867425"><ele>266.0</ele><time>2026-05-01T15:47:00.186Z</time></trkpt><trkpt lat="45.8457467" lon="11.8676033"><ele>266.0</ele><time>2026-05-01T15:47:01.184Z</time></trkpt><trkpt lat="45.8458667" lon="11.867775"><ele>265.6666666666667</ele><time>2026-05-01T15:47:02.185Z</time></trkpt><trkpt lat="45.846" lon="11.8679333"><ele>265.3333333333333</ele><time>2026-05-01T15:47:03.189Z</time></trkpt><trkpt lat="45.8461467" lon="11.868075"><ele>265.0</ele><time>2026-05-01T15:47:04.184Z</time></trkpt><trkpt lat="45.8462983" lon="11.8682083"><ele>265.0</ele><time>2026-05-01T15:47:05.186Z</time></trkpt><trkpt lat="45.8464433" lon="11.86833"><ele>265.0</ele><time>2026-05-01T15:47:06.186Z</time></trkpt><trkpt lat="45.8465767" lon="11.8684533"><ele>265.0</ele><time>2026-05-01T15:47:07.187Z</time></trkpt><trkpt lat="45.8467067" lon="11.868555"><ele>264.5</ele><time>2026-05-01T15:47:08.184Z</time></trkpt><trkpt lat="45.8468267" lon="11.86866"><ele>264.0</ele><time>2026-05-01T15:47:09.268Z</time></trkpt><trkpt lat="45.8469433" lon="11.8687667"><ele>263.5</ele><time>2026-05-01T15:47:10.185Z</time></trkpt><trkpt lat="45.8470533" lon="11.86887"><ele>263.0</ele><time>2026-05-01T15:47:11.187Z</time></trkpt><trkpt lat="45.8471617" lon="11.8689717"><ele>263.0</ele><time>2026-05-01T15:47:12.185Z</time></trkpt><trkpt lat="45.8472783" lon="11.8690683"><ele>263.0</ele><time>2026-05-01T15:47:13.184Z</time></trkpt><trkpt lat="45.8473983" lon="11.869175"><ele>263.0</ele><time>2026-05-01T15:47:14.187Z</time></trkpt><trkpt lat="45.8475183" lon="11.86928"><ele>263.0</ele><time>2026-05-01T15:47:15.185Z</time></trkpt><trkpt lat="45.8476317" lon="11.8693817"><ele>261.75</ele><time>2026-05-01T15:47:16.184Z</time></trkpt><trkpt lat="45.84774" lon="11.8694733"><ele>260.5</ele><time>2026-05-01T15:47:17.185Z</time></trkpt><trkpt lat="45.8478433" lon="11.8695667"><ele>259.25</ele><time>2026-05-01T15:47:18.183Z</time></trkpt><trkpt lat="45.84794" lon="11.86965"><ele>258.0</ele><time>2026-05-01T15:47:19.185Z</time></trkpt><trkpt lat="45.8480333" lon="11.8697317"><ele>258.0</ele><time>2026-05-01T15:47:20.184Z</time></trkpt><trkpt lat="45.8481267" lon="11.8698133"><ele>258.0</ele><time>2026-05-01T15:47:21.185Z</time></trkpt><trkpt lat="45.8482233" lon="11.8698983"><ele>258.0</ele><time>2026-05-01T15:47:22.188Z</time></trkpt><trkpt lat="45.848325" lon="11.8699867"><ele>258.0</ele><time>2026-05-01T15:47:23.186Z</time></trkpt><trkpt lat="45.848435" lon="11.8700817"><ele>259.25</ele><time>2026-05-01T15:47:24.187Z</time></trkpt><trkpt lat="45.8485533" lon="11.8701817"><ele>260.5</ele><time>2026-05-01T15:47:25.187Z</time></trkpt><trkpt lat="45.8486817" lon="11.87029"><ele>261.75</ele><time>2026-05-01T15:47:26.185Z</time></trkpt><trkpt lat="45.8488117" lon="11.87041"><ele>263.0</ele><time>2026-05-01T15:47:27.185Z</time></trkpt><trkpt lat="45.8489417" lon="11.8705317"><ele>263.0</ele><time>2026-05-01T15:47:28.183Z</time></trkpt><trkpt lat="45.849075" lon="11.8706517"><ele>263.0</ele><time>2026-05-01T15:47:29.185Z</time></trkpt><trkpt lat="45.8492117" lon="11.8707717"><ele>263.0</ele><time>2026-05-01T15:47:30.184Z</time></trkpt><trkpt lat="45.8493483" lon="11.8708917"><ele>264.0</ele><time>2026-05-01T15:47:31.185Z</time></trkpt><trkpt lat="45.8494867" lon="11.8710167"><ele>265.0</ele><time>2026-05-01T15:47:32.185Z</time></trkpt><trkpt lat="45.8496283" lon="11.8711383"><ele>266.0</ele><time>2026-05-01T15:47:33.185Z</time></trkpt><trkpt lat="45.84977" lon="11.87126"><ele>266.0</ele><time>2026-05-01T15:47:34.184Z</time></trkpt><trkpt lat="45.84991" lon="11.8713817"><ele>266.0</ele><time>2026-05-01T15:47:35.187Z</time></trkpt><trkpt lat="45.8500367" lon="11.871495"><ele>266.0</ele><time>2026-05-01T15:47:36.186Z</time></trkpt><trkpt lat="45.850155" lon="11.8716067"><ele>266.0</ele><time>2026-05-01T15:47:37.184Z</time></trkpt><trkpt lat="45.850275" lon="11.8717183"><ele>266.0</ele><time>2026-05-01T15:47:38.183Z</time></trkpt><trkpt lat="45.8504" lon="11.87184"><ele>266.0</ele><time>2026-05-01T15:47:39.184Z</time></trkpt><trkpt lat="45.85052" lon="11.87198"><ele>266.0</ele><time>2026-05-01T15:47:40.185Z</time></trkpt><trkpt lat="45.85064" lon="11.8721417"><ele>266.0</ele><time>2026-05-01T15:47:41.183Z</time></trkpt><trkpt lat="45.8507483" lon="11.872325"><ele>266.0</ele><time>2026-05-01T15:47:42.187Z</time></trkpt><trkpt lat="45.850845" lon="11.87252"><ele>266.0</ele><time>2026-05-01T15:47:43.185Z</time></trkpt><trkpt lat="45.8509283" lon="11.8727083"><ele>267.0</ele><time>2026-05-01T15:47:44.192Z</time></trkpt><trkpt lat="45.851005" lon="11.8728833"><ele>268.0</ele><time>2026-05-01T15:47:45.184Z</time></trkpt><trkpt lat="45.8510733" lon="11.8730567"><ele>269.0</ele><time>2026-05-01T15:47:46.183Z</time></trkpt><trkpt lat="45.851145" lon="11.873225"><ele>270.0</ele><time>2026-05-01T15:47:47.186Z</time></trkpt><trkpt lat="45.851205" lon="11.8733883"><ele>270.0</ele><time>2026-05-01T15:47:48.183Z</time></trkpt><trkpt lat="45.8512467" lon="11.8735367"><ele>270.0</ele><time>2026-05-01T15:47:49.188Z</time></trkpt><trkpt lat="45.8512633" lon="11.8736767"><ele>270.0</ele><time>2026-05-01T15:47:50.189Z</time></trkpt><trkpt lat="45.8512433" lon="11.8738183"><ele>270.0</ele><time>2026-05-01T15:47:51.185Z</time></trkpt><trkpt lat="45.8512067" lon="11.8739667"><ele>270.0</ele><time>2026-05-01T15:47:52.185Z</time></trkpt><trkpt lat="45.851135" lon="11.8741233"><ele>270.3333333333333</ele><time>2026-05-01T15:47:53.187Z</time></trkpt><trkpt lat="45.851045" lon="11.874285"><ele>270.66666666666663</ele><time>2026-05-01T15:47:54.183Z</time></trkpt><trkpt lat="45.8509483" lon="11.8744617"><ele>271.0</ele><time>2026-05-01T15:47:55.185Z</time></trkpt><trkpt lat="45.8508533" lon="11.8746433"><ele>268.3333333333333</ele><time>2026-05-01T15:47:56.185Z</time></trkpt><trkpt lat="45.85075" lon="11.8748183"><ele>265.6666666666667</ele><time>2026-05-01T15:47:57.187Z</time></trkpt><trkpt lat="45.8506467" lon="11.874995"><ele>263.0</ele><time>2026-05-01T15:47:58.274Z</time></trkpt><trkpt lat="45.8505417" lon="11.87516"><ele>262.33333333333337</ele><time>2026-05-01T15:47:59.184Z</time></trkpt><trkpt lat="45.8504233" lon="11.8753017"><ele>261.6666666666667</ele><time>2026-05-01T15:48:00.185Z</time></trkpt><trkpt lat="45.8502867" lon="11.8754333"><ele>261.0</ele><time>2026-05-01T15:48:01.185Z</time></trkpt><trkpt lat="45.85014" lon="11.875565"><ele>260.0</ele><time>2026-05-01T15:48:02.184Z</time></trkpt><trkpt lat="45.849985" lon="11.8756933"><ele>259.0</ele><time>2026-05-01T15:48:03.185Z</time></trkpt><trkpt lat="45.84983" lon="11.87583"><ele>258.0</ele><time>2026-05-01T15:48:04.188Z</time></trkpt><trkpt lat="45.8496683" lon="11.8759533"><ele>257.3333333333333</ele><time>2026-05-01T15:48:05.186Z</time></trkpt><trkpt lat="45.8495183" lon="11.876075"><ele>256.66666666666663</ele><time>2026-05-01T15:48:06.274Z</time></trkpt><trkpt lat="45.84938" lon="11.8761867"><ele>256.0</ele><time>2026-05-01T15:48:07.186Z</time></trkpt><trkpt lat="45.8492467" lon="11.8762933"><ele>254.75</ele><time>2026-05-01T15:48:08.185Z</time></trkpt><trkpt lat="45.8491133" lon="11.8763967"><ele>253.5</ele><time>2026-05-01T15:48:09.185Z</time></trkpt><trkpt lat="45.848985" lon="11.8765"><ele>252.25</ele><time>2026-05-01T15:48:10.184Z</time></trkpt><trkpt lat="45.8488567" lon="11.8766"><ele>251.0</ele><time>2026-05-01T15:48:11.186Z</time></trkpt><trkpt lat="45.8487333" lon="11.8766983"><ele>251.0</ele><time>2026-05-01T15:48:12.186Z</time></trkpt><trkpt lat="45.8486167" lon="11.8767867"><ele>251.0</ele><time>2026-05-01T15:48:13.184Z</time></trkpt><trkpt lat="45.8485117" lon="11.8768733"><ele>251.0</ele><time>2026-05-01T15:48:14.186Z</time></trkpt><trkpt lat="45.8484183" lon="11.876955"><ele>251.0</ele><time>2026-05-01T15:48:15.185Z</time></trkpt><trkpt lat="45.8483383" lon="11.8770533"><ele>251.0</ele><time>2026-05-01T15:48:16.187Z</time></trkpt><trkpt lat="45.8482617" lon="11.8771767"><ele>251.0</ele><time>2026-05-01T15:48:17.183Z</time></trkpt><trkpt lat="45.8482" lon="11.87732"><ele>251.0</ele><time>2026-05-01T15:48:18.186Z</time></trkpt><trkpt lat="45.84815" lon="11.87748"><ele>251.0</ele><time>2026-05-01T15:48:19.19Z</time></trkpt><trkpt lat="45.84812" lon="11.87767"><ele>250.33333333333334</ele><time>2026-05-01T15:48:20.186Z</time></trkpt><trkpt lat="45.848125" lon="11.8778883"><ele>249.66666666666669</ele><time>2026-05-01T15:48:21.187Z</time></trkpt><trkpt lat="45.848155" lon="11.8781167"><ele>249.0</ele><time>2026-05-01T15:48:22.186Z</time></trkpt><trkpt lat="45.8481767" lon="11.8783483"><ele>248.0</ele><time>2026-05-01T15:48:23.19Z</time></trkpt><trkpt lat="45.8481983" lon="11.87858"><ele>247.0</ele><time>2026-05-01T15:48:24.186Z</time></trkpt><trkpt lat="45.8482133" lon="11.8788167"><ele>246.0</ele><time>2026-05-01T15:48:25.189Z</time></trkpt><trkpt lat="45.8482317" lon="11.879035"><ele>246.0</ele><time>2026-05-01T15:48:26.185Z</time></trkpt><trkpt lat="45.8482533" lon="11.8792383"><ele>246.0</ele><time>2026-05-01T15:48:27.186Z</time></trkpt><trkpt lat="45.8482733" lon="11.87943"><ele>246.0</ele><time>2026-05-01T15:48:28.185Z</time></trkpt><trkpt lat="45.8482917" lon="11.879615"><ele>246.0</ele><time>2026-05-01T15:48:29.185Z</time></trkpt><trkpt lat="45.848315" lon="11.8797883"><ele>245.60000000000002</ele><time>2026-05-01T15:48:30.183Z</time></trkpt><trkpt lat="45.848335" lon="11.8799517"><ele>245.20000000000002</ele><time>2026-05-01T15:48:31.186Z</time></trkpt><trkpt lat="45.84835" lon="11.880105"><ele>244.79999999999998</ele><time>2026-05-01T15:48:32.186Z</time></trkpt><trkpt lat="45.84837" lon="11.8802617"><ele>244.39999999999998</ele><time>2026-05-01T15:48:33.186Z</time></trkpt><trkpt lat="45.8483917" lon="11.8804217"><ele>244.0</ele><time>2026-05-01T15:48:34.186Z</time></trkpt><trkpt lat="45.8484133" lon="11.8805883"><ele>243.25</ele><time>2026-05-01T15:48:35.186Z</time></trkpt><trkpt lat="45.8484317" lon="11.88076"><ele>242.5</ele><time>2026-05-01T15:48:36.185Z</time></trkpt><trkpt lat="45.848445" lon="11.8809333"><ele>241.75</ele><time>2026-05-01T15:48:37.184Z</time></trkpt><trkpt lat="45.8484633" lon="11.8811083"><ele>241.0</ele><time>2026-05-01T15:48:38.184Z</time></trkpt><trkpt lat="45.8484833" lon="11.8812817"><ele>240.75</ele><time>2026-05-01T15:48:39.185Z</time></trkpt><trkpt lat="45.848505" lon="11.8814667"><ele>240.5</ele><time>2026-05-01T15:48:40.186Z</time></trkpt><trkpt lat="45.848525" lon="11.8816633"><ele>240.25</ele><time>2026-05-01T15:48:41.184Z</time></trkpt><trkpt lat="45.84855" lon="11.8818833"><ele>240.0</ele><time>2026-05-01T15:48:42.185Z</time></trkpt><trkpt lat="45.8485733" lon="11.882105"><ele>239.33333333333331</ele><time>2026-05-01T15:48:43.184Z</time></trkpt><trkpt lat="45.8485983" lon="11.88233"><ele>238.66666666666666</ele><time>2026-05-01T15:48:44.188Z</time></trkpt><trkpt lat="45.848625" lon="11.8825533"><ele>238.0</ele><time>2026-05-01T15:48:45.188Z</time></trkpt><trkpt lat="45.8486467" lon="11.88277"><ele>238.0</ele><time>2026-05-01T15:48:46.185Z</time></trkpt><trkpt lat="45.8486717" lon="11.8829733"><ele>238.0</ele><time>2026-05-01T15:48:47.185Z</time></trkpt><trkpt lat="45.8486933" lon="11.8831683"><ele>238.0</ele><time>2026-05-01T15:48:48.185Z</time></trkpt><trkpt lat="45.8487133" lon="11.8833683"><ele>238.0</ele><time>2026-05-01T15:48:49.186Z</time></trkpt><trkpt lat="45.848725" lon="11.8835783"><ele>237.0</ele><time>2026-05-01T15:48:50.186Z</time></trkpt><trkpt lat="45.8487333" lon="11.8838017"><ele>236.0</ele><time>2026-05-01T15:48:51.187Z</time></trkpt><trkpt lat="45.8487567" lon="11.884035"><ele>235.0</ele><time>2026-05-01T15:48:52.186Z</time></trkpt><trkpt lat="45.8487933" lon="11.8842733"><ele>234.66666666666666</ele><time>2026-05-01T15:48:53.186Z</time></trkpt><trkpt lat="45.84884" lon="11.8845183"><ele>234.33333333333331</ele><time>2026-05-01T15:48:54.184Z</time></trkpt><trkpt lat="45.8489017" lon="11.8847683"><ele>234.0</ele><time>2026-05-01T15:48:55.188Z</time></trkpt><trkpt lat="45.8489667" lon="11.8850267"><ele>234.0</ele><time>2026-05-01T15:48:56.187Z</time></trkpt><trkpt lat="45.8490283" lon="11.8852833"><ele>234.0</ele><time>2026-05-01T15:48:57.187Z</time></trkpt><trkpt lat="45.8490883" lon="11.8855267"><ele>234.0</ele><time>2026-05-01T15:48:58.185Z</time></trkpt><trkpt lat="45.8491483" lon="11.8857533"><ele>233.75</ele><time>2026-05-01T15:48:59.184Z</time></trkpt><trkpt lat="45.8492" lon="11.885965"><ele>233.5</ele><time>2026-05-01T15:49:00.184Z</time></trkpt><trkpt lat="45.84925" lon="11.88616"><ele>233.25</ele><time>2026-05-01T15:49:01.186Z</time></trkpt><trkpt lat="45.849295" lon="11.8863467"><ele>233.0</ele><time>2026-05-01T15:49:02.186Z</time></trkpt><trkpt lat="45.849335" lon="11.8865233"><ele>233.0</ele><time>2026-05-01T15:49:03.187Z</time></trkpt><trkpt lat="45.8493733" lon="11.8866917"><ele>233.0</ele><time>2026-05-01T15:49:04.186Z</time></trkpt><trkpt lat="45.8494133" lon="11.886865"><ele>233.0</ele><time>2026-05-01T15:49:05.185Z</time></trkpt><trkpt lat="45.8494417" lon="11.8870467"><ele>233.0</ele><time>2026-05-01T15:49:06.187Z</time></trkpt><trkpt lat="45.8494533" lon="11.8872283"><ele>232.4</ele><time>2026-05-01T15:49:07.185Z</time></trkpt><trkpt lat="45.8494533" lon="11.887395"><ele>231.8</ele><time>2026-05-01T15:49:08.184Z</time></trkpt><trkpt lat="45.8494517" lon="11.8875467"><ele>231.2</ele><time>2026-05-01T15:49:09.186Z</time></trkpt><trkpt lat="45.8494383" lon="11.8876933"><ele>230.6</ele><time>2026-05-01T15:49:10.186Z</time></trkpt><trkpt lat="45.8494183" lon="11.887825"><ele>230.0</ele><time>2026-05-01T15:49:11.19Z</time></trkpt><trkpt lat="45.8493967" lon="11.8879433"><ele>229.6</ele><time>2026-05-01T15:49:12.185Z</time></trkpt><trkpt lat="45.8493633" lon="11.8880583"><ele>229.2</ele><time>2026-05-01T15:49:13.188Z</time></trkpt><trkpt lat="45.8493517" lon="11.888175"><ele>228.8</ele><time>2026-05-01T15:49:14.183Z</time></trkpt><trkpt lat="45.8493867" lon="11.8882967"><ele>228.4</ele><time>2026-05-01T15:49:15.186Z</time></trkpt><trkpt lat="45.8494633" lon="11.8883867"><ele>228.0</ele><time>2026-05-01T15:49:16.187Z</time></trkpt><trkpt lat="45.8495867" lon="11.8884567"><ele>227.66666666666669</ele><time>2026-05-01T15:49:17.185Z</time></trkpt><trkpt lat="45.84972" lon="11.8885333"><ele>227.33333333333334</ele><time>2026-05-01T15:49:18.185Z</time></trkpt><trkpt lat="45.849865" lon="11.8886317"><ele>227.0</ele><time>2026-05-01T15:49:19.188Z</time></trkpt><trkpt lat="45.85001" lon="11.88878"><ele>227.33333333333334</ele><time>2026-05-01T15:49:20.189Z</time></trkpt><trkpt lat="45.8501483" lon="11.888985"><ele>227.66666666666669</ele><time>2026-05-01T15:49:21.186Z</time></trkpt><trkpt lat="45.850275" lon="11.8892217"><ele>228.0</ele><time>2026-05-01T15:49:22.186Z</time></trkpt><trkpt lat="45.8503933" lon="11.88946"><ele>227.0</ele><time>2026-05-01T15:49:23.185Z</time></trkpt><trkpt lat="45.850505" lon="11.8896883"><ele>226.0</ele><time>2026-05-01T15:49:24.186Z</time></trkpt><trkpt lat="45.8506183" lon="11.8898933"><ele>225.0</ele><time>2026-05-01T15:49:25.186Z</time></trkpt><trkpt lat="45.8507333" lon="11.8900933"><ele>224.66666666666669</ele><time>2026-05-01T15:49:26.188Z</time></trkpt><trkpt lat="45.8508517" lon="11.8903"><ele>224.33333333333334</ele><time>2026-05-01T15:49:27.186Z</time></trkpt><trkpt lat="45.85097" lon="11.8905117"><ele>224.0</ele><time>2026-05-01T15:49:28.188Z</time></trkpt><trkpt lat="45.8510917" lon="11.890725"><ele>222.66666666666669</ele><time>2026-05-01T15:49:29.185Z</time></trkpt><trkpt lat="45.8512117" lon="11.8909433"><ele>221.33333333333331</ele><time>2026-05-01T15:49:30.186Z</time></trkpt><trkpt lat="45.8513233" lon="11.8911567"><ele>220.0</ele><time>2026-05-01T15:49:31.187Z</time></trkpt><trkpt lat="45.85143" lon="11.8913583"><ele>220.0</ele><time>2026-05-01T15:49:32.185Z</time></trkpt><trkpt lat="45.8515317" lon="11.891555"><ele>220.0</ele><time>2026-05-01T15:49:33.187Z</time></trkpt><trkpt lat="45.8516283" lon="11.8917533"><ele>220.0</ele><time>2026-05-01T15:49:34.188Z</time></trkpt><trkpt lat="45.8517233" lon="11.89196"><ele>219.33333333333331</ele><time>2026-05-01T15:49:35.186Z</time></trkpt><trkpt lat="45.85182" lon="11.8921717"><ele>218.66666666666669</ele><time>2026-05-01T15:49:36.189Z</time></trkpt><trkpt lat="45.8519083" lon="11.8923917"><ele>218.0</ele><time>2026-05-01T15:49:37.185Z</time></trkpt><trkpt lat="45.8519883" lon="11.89262"><ele>218.0</ele><time>2026-05-01T15:49:38.184Z</time></trkpt><trkpt lat="45.8520583" lon="11.8928567"><ele>218.0</ele><time>2026-05-01T15:49:39.184Z</time></trkpt><trkpt lat="45.852125" lon="11.8930983"><ele>218.0</ele><time>2026-05-01T15:49:40.184Z</time></trkpt><trkpt lat="45.852185" lon="11.8933433"><ele>218.33333333333334</ele><time>2026-05-01T15:49:41.184Z</time></trkpt><trkpt lat="45.8522483" lon="11.8935933"><ele>218.66666666666669</ele><time>2026-05-01T15:49:42.184Z</time></trkpt><trkpt lat="45.85231" lon="11.8938467"><ele>219.0</ele><time>2026-05-01T15:49:43.189Z</time></trkpt><trkpt lat="45.8523767" lon="11.8941017"><ele>219.0</ele><time>2026-05-01T15:49:44.184Z</time></trkpt><trkpt lat="45.852445" lon="11.89436"><ele>219.0</ele><time>2026-05-01T15:49:45.189Z</time></trkpt><trkpt lat="45.8525033" lon="11.8946233"><ele>219.0</ele><time>2026-05-01T15:49:46.189Z</time></trkpt><trkpt lat="45.8525633" lon="11.8948933"><ele>219.0</ele><time>2026-05-01T15:49:47.183Z</time></trkpt><trkpt lat="45.8526167" lon="11.89517"><ele>219.0</ele><time>2026-05-01T15:49:48.189Z</time></trkpt><trkpt lat="45.8526767" lon="11.8954433"><ele>219.0</ele><time>2026-05-01T15:49:49.186Z</time></trkpt><trkpt lat="45.8527383" lon="11.8957167"><ele>218.66666666666669</ele><time>2026-05-01T15:49:50.185Z</time></trkpt><trkpt lat="45.852795" lon="11.8959917"><ele>218.33333333333334</ele><time>2026-05-01T15:49:51.183Z</time></trkpt><trkpt lat="45.85285" lon="11.8962533"><ele>218.0</ele><time>2026-05-01T15:49:52.185Z</time></trkpt><trkpt lat="45.8529033" lon="11.8965067"><ele>218.0</ele><time>2026-05-01T15:49:53.186Z</time></trkpt><trkpt lat="45.8529567" lon="11.8967583"><ele>218.0</ele><time>2026-05-01T15:49:54.189Z</time></trkpt><trkpt lat="45.85301" lon="11.8970133"><ele>218.0</ele><time>2026-05-01T15:49:55.187Z</time></trkpt><trkpt lat="45.8530633" lon="11.8972733"><ele>218.0</ele><time>2026-05-01T15:49:56.188Z</time></trkpt><trkpt lat="45.8531133" lon="11.897535"><ele>218.0</ele><time>2026-05-01T15:49:57.187Z</time></trkpt><trkpt lat="45.8531633" lon="11.8978017"><ele>218.0</ele><time>2026-05-01T15:49:58.186Z</time></trkpt><trkpt lat="45.853225" lon="11.898065"><ele>217.0</ele><time>2026-05-01T15:49:59.185Z</time></trkpt><trkpt lat="45.8532817" lon="11.8983317"><ele>216.0</ele><time>2026-05-01T15:50:00.187Z</time></trkpt><trkpt lat="45.8533367" lon="11.8985983"><ele>215.0</ele><time>2026-05-01T15:50:01.186Z</time></trkpt><trkpt lat="45.8533983" lon="11.8988667"><ele>215.0</ele><time>2026-05-01T15:50:02.184Z</time></trkpt><trkpt lat="45.8534567" lon="11.8991367"><ele>215.0</ele><time>2026-05-01T15:50:03.191Z</time></trkpt><trkpt lat="45.8535117" lon="11.8994117"><ele>215.0</ele><time>2026-05-01T15:50:04.184Z</time></trkpt><trkpt lat="45.85356" lon="11.89969"><ele>215.33333333333334</ele><time>2026-05-01T15:50:05.186Z</time></trkpt><trkpt lat="45.8536033" lon="11.899975"><ele>215.66666666666669</ele><time>2026-05-01T15:50:06.185Z</time></trkpt><trkpt lat="45.8536367" lon="11.900265"><ele>216.0</ele><time>2026-05-01T15:50:07.184Z</time></trkpt><trkpt lat="45.8536567" lon="11.9005567"><ele>216.0</ele><time>2026-05-01T15:50:08.189Z</time></trkpt><trkpt lat="45.85367" lon="11.9008433"><ele>216.0</ele><time>2026-05-01T15:50:09.186Z</time></trkpt><trkpt lat="45.853675" lon="11.9011267"><ele>216.0</ele><time>2026-05-01T15:50:10.186Z</time></trkpt><trkpt lat="45.8536667" lon="11.9014117"><ele>215.33333333333331</ele><time>2026-05-01T15:50:11.186Z</time></trkpt><trkpt lat="45.8536417" lon="11.9016967"><ele>214.66666666666666</ele><time>2026-05-01T15:50:12.187Z</time></trkpt><trkpt lat="45.8536117" lon="11.9019833"><ele>214.0</ele><time>2026-05-01T15:50:13.192Z</time></trkpt><trkpt lat="45.8535833" lon="11.9022667"><ele>213.66666666666666</ele><time>2026-05-01T15:50:14.186Z</time></trkpt><trkpt lat="45.8535567" lon="11.902535"><ele>213.33333333333331</ele><time>2026-05-01T15:50:15.189Z</time></trkpt><trkpt lat="45.853535" lon="11.9027933"><ele>213.0</ele><time>2026-05-01T15:50:16.19Z</time></trkpt><trkpt lat="45.8535117" lon="11.9030433"><ele>213.0</ele><time>2026-05-01T15:50:17.186Z</time></trkpt><trkpt lat="45.853485" lon="11.9032717"><ele>213.0</ele><time>2026-05-01T15:50:18.183Z</time></trkpt><trkpt lat="45.85347" lon="11.9034783"><ele>213.0</ele><time>2026-05-01T15:50:19.185Z</time></trkpt><trkpt lat="45.853465" lon="11.90366"><ele>213.0</ele><time>2026-05-01T15:50:20.185Z</time></trkpt><trkpt lat="45.8534633" lon="11.9038267"><ele>212.60000000000002</ele><time>2026-05-01T15:50:21.186Z</time></trkpt><trkpt lat="45.85346" lon="11.90399"><ele>212.20000000000002</ele><time>2026-05-01T15:50:22.267Z</time></trkpt><trkpt lat="45.85345" lon="11.9041483"><ele>211.8</ele><time>2026-05-01T15:50:23.184Z</time></trkpt><trkpt lat="45.8534267" lon="11.9043"><ele>211.4</ele><time>2026-05-01T15:50:24.183Z</time></trkpt><trkpt lat="45.8533783" lon="11.9044467"><ele>211.0</ele><time>2026-05-01T15:50:25.185Z</time></trkpt><trkpt lat="45.8533033" lon="11.9045917"><ele>210.75</ele><time>2026-05-01T15:50:26.186Z</time></trkpt><trkpt lat="45.8531967" lon="11.9047117"><ele>210.5</ele><time>2026-05-01T15:50:27.186Z</time></trkpt><trkpt lat="45.8530633" lon="11.9048083"><ele>210.25</ele><time>2026-05-01T15:50:28.188Z</time></trkpt><trkpt lat="45.8529117" lon="11.9048917"><ele>210.0</ele><time>2026-05-01T15:50:29.187Z</time></trkpt><trkpt lat="45.8527533" lon="11.9049833"><ele>209.33333333333331</ele><time>2026-05-01T15:50:30.187Z</time></trkpt><trkpt lat="45.8526017" lon="11.9050883"><ele>208.66666666666666</ele><time>2026-05-01T15:50:31.262Z</time></trkpt><trkpt lat="45.852445" lon="11.905205"><ele>208.0</ele><time>2026-05-01T15:50:32.184Z</time></trkpt><trkpt lat="45.8522783" lon="11.9053133"><ele>208.0</ele><time>2026-05-01T15:50:33.185Z</time></trkpt><trkpt lat="45.852115" lon="11.9054217"><ele>208.0</ele><time>2026-05-01T15:50:34.188Z</time></trkpt><trkpt lat="45.85196" lon="11.90551"><ele>208.0</ele><time>2026-05-01T15:50:35.185Z</time></trkpt><trkpt lat="45.851815" lon="11.9056"><ele>208.0</ele><time>2026-05-01T15:50:36.184Z</time></trkpt><trkpt lat="45.8516717" lon="11.9056783"><ele>208.0</ele><time>2026-05-01T15:50:37.184Z</time></trkpt><trkpt lat="45.8515233" lon="11.90576"><ele>208.0</ele><time>2026-05-01T15:50:38.185Z</time></trkpt><trkpt lat="45.8513783" lon="11.9058483"><ele>207.75</ele><time>2026-05-01T15:50:39.186Z</time></trkpt><trkpt lat="45.85124" lon="11.905935"><ele>207.5</ele><time>2026-05-01T15:50:40.185Z</time></trkpt><trkpt lat="45.8511183" lon="11.9060133"><ele>207.25</ele><time>2026-05-01T15:50:41.183Z</time></trkpt><trkpt lat="45.8510133" lon="11.906085"><ele>207.0</ele><time>2026-05-01T15:50:42.186Z</time></trkpt><trkpt lat="45.850925" lon="11.906155"><ele>207.0</ele><time>2026-05-01T15:50:43.191Z</time></trkpt><trkpt lat="45.8508517" lon="11.9062417"><ele>207.0</ele><time>2026-05-01T15:50:44.189Z</time></trkpt><trkpt lat="45.8507933" lon="11.9063683"><ele>207.0</ele><time>2026-05-01T15:50:45.187Z</time></trkpt><trkpt lat="45.850755" lon="11.9065383"><ele>207.0</ele><time>2026-05-01T15:50:46.186Z</time></trkpt><trkpt lat="45.8507383" lon="11.9067467"><ele>206.75</ele><time>2026-05-01T15:50:47.186Z</time></trkpt><trkpt lat="45.8507233" lon="11.9069567"><ele>206.5</ele><time>2026-05-01T15:50:48.185Z</time></trkpt><trkpt lat="45.850705" lon="11.9071633"><ele>206.25</ele><time>2026-05-01T15:50:49.184Z</time></trkpt><trkpt lat="45.8506833" lon="11.9073667"><ele>206.0</ele><time>2026-05-01T15:50:50.186Z</time></trkpt><trkpt lat="45.8506533" lon="11.9075633"><ele>205.66666666666669</ele><time>2026-05-01T15:50:51.185Z</time></trkpt><trkpt lat="45.85061" lon="11.907765"><ele>205.33333333333331</ele><time>2026-05-01T15:50:52.19Z</time></trkpt><trkpt lat="45.8505567" lon="11.9079767"><ele>205.0</ele><time>2026-05-01T15:50:53.185Z</time></trkpt><trkpt lat="45.85049" lon="11.9081967"><ele>204.33333333333331</ele><time>2026-05-01T15:50:54.188Z</time></trkpt><trkpt lat="45.85042" lon="11.90843"><ele>203.66666666666669</ele><time>2026-05-01T15:50:55.184Z</time></trkpt><trkpt lat="45.8503633" lon="11.9086967"><ele>203.0</ele><time>2026-05-01T15:50:56.184Z</time></trkpt><trkpt lat="45.8502967" lon="11.9089983"><ele>202.5</ele><time>2026-05-01T15:50:57.184Z</time></trkpt><trkpt lat="45.8502067" lon="11.9093067"><ele>202.0</ele><time>2026-05-01T15:50:58.184Z</time></trkpt><trkpt lat="45.8501133" lon="11.9095967"><ele>208.33333333333331</ele><time>2026-05-01T15:50:59.183Z</time></trkpt><trkpt lat="45.850035" lon="11.9098717"><ele>214.66666666666669</ele><time>2026-05-01T15:51:00.19Z</time></trkpt><trkpt lat="45.849965" lon="11.9101467"><ele>221.0</ele><time>2026-05-01T15:51:01.186Z</time></trkpt><trkpt lat="45.8499133" lon="11.9104367"><ele>221.0</ele><time>2026-05-01T15:51:02.188Z</time></trkpt><trkpt lat="45.84988" lon="11.9107417"><ele>221.0</ele><time>2026-05-01T15:51:03.191Z</time></trkpt><trkpt lat="45.8498467" lon="11.9110483"><ele>221.0</ele><time>2026-05-01T15:51:04.186Z</time></trkpt><trkpt lat="45.8498117" lon="11.9113583"><ele>220.0</ele><time>2026-05-01T15:51:05.187Z</time></trkpt><trkpt lat="45.84978" lon="11.9116517"><ele>219.0</ele><time>2026-05-01T15:51:06.186Z</time></trkpt><trkpt lat="45.8497467" lon="11.9119317"><ele>218.0</ele><time>2026-05-01T15:51:07.19Z</time></trkpt><trkpt lat="45.8497133" lon="11.9122083"><ele>217.66666666666669</ele><time>2026-05-01T15:51:08.187Z</time></trkpt><trkpt lat="45.8496683" lon="11.912485"><ele>217.33333333333331</ele><time>2026-05-01T15:51:09.188Z</time></trkpt><trkpt lat="45.8496183" lon="11.91276"><ele>217.0</ele><time>2026-05-01T15:51:10.19Z</time></trkpt><trkpt lat="45.8495683" lon="11.9130417"><ele>217.0</ele><time>2026-05-01T15:51:11.189Z</time></trkpt><trkpt lat="45.8495183" lon="11.9133233"><ele>217.0</ele><time>2026-05-01T15:51:12.188Z</time></trkpt><trkpt lat="45.849475" lon="11.91359"><ele>217.0</ele><time>2026-05-01T15:51:13.186Z</time></trkpt><trkpt lat="45.84943" lon="11.9138383"><ele>217.0</ele><time>2026-05-01T15:51:14.186Z</time></trkpt><trkpt lat="45.84939" lon="11.9140767"><ele>217.0</ele><time>2026-05-01T15:51:15.19Z</time></trkpt><trkpt lat="45.84936" lon="11.9143017"><ele>217.0</ele><time>2026-05-01T15:51:16.183Z</time></trkpt><trkpt lat="45.8493283" lon="11.9145"><ele>217.0</ele><time>2026-05-01T15:51:17.183Z</time></trkpt><trkpt lat="45.8493033" lon="11.914675"><ele>217.0</ele><time>2026-05-01T15:51:18.186Z</time></trkpt><trkpt lat="45.8492867" lon="11.914825"><ele>217.0</ele><time>2026-05-01T15:51:19.186Z</time></trkpt><trkpt lat="45.84928" lon="11.914955"><ele>217.0</ele><time>2026-05-01T15:51:20.187Z</time></trkpt><trkpt lat="45.849265" lon="11.915065"><ele>217.0</ele><time>2026-05-01T15:51:21.185Z</time></trkpt><trkpt lat="45.8492183" lon="11.9151517"><ele>223.66666666666666</ele><time>2026-05-01T15:51:22.183Z</time></trkpt><trkpt lat="45.8491333" lon="11.915205"><ele>230.33333333333331</ele><time>2026-05-01T15:51:23.182Z</time></trkpt><trkpt lat="45.8490317" lon="11.91523"><ele>237.0</ele><time>2026-05-01T15:51:24.184Z</time></trkpt><trkpt lat="45.84894" lon="11.9152467"><ele>243.66666666666669</ele><time>2026-05-01T15:51:25.185Z</time></trkpt><trkpt lat="45.8488617" lon="11.9152733"><ele>250.33333333333334</ele><time>2026-05-01T15:51:26.185Z</time></trkpt><trkpt lat="45.8487867" lon="11.9152883"><ele>257.0</ele><time>2026-05-01T15:51:27.186Z</time></trkpt><trkpt lat="45.8486883" lon="11.9153733"><ele>257.0</ele><time>2026-05-01T15:51:29.184Z</time></trkpt><trkpt lat="45.8487067" lon="11.9156067"><ele>257.0</ele><time>2026-05-01T15:51:31.186Z</time></trkpt><trkpt lat="45.848715" lon="11.9157817"><ele>257.0</ele><time>2026-05-01T15:51:32.186Z</time></trkpt><trkpt lat="45.848685" lon="11.9159467"><ele>257.0</ele><time>2026-05-01T15:51:33.186Z</time></trkpt><trkpt lat="45.848635" lon="11.91611"><ele>259.25</ele><time>2026-05-01T15:51:34.185Z</time></trkpt><trkpt lat="45.84855" lon="11.916255"><ele>261.5</ele><time>2026-05-01T15:51:35.185Z</time></trkpt><trkpt lat="45.848485" lon="11.9164017"><ele>263.75</ele><time>2026-05-01T15:51:36.184Z</time></trkpt><trkpt lat="45.848445" lon="11.9165533"><ele>266.0</ele><time>2026-05-01T15:51:37.186Z</time></trkpt><trkpt lat="45.8484283" lon="11.9167117"><ele>266.0</ele><time>2026-05-01T15:51:38.186Z</time></trkpt><trkpt lat="45.8484467" lon="11.91689"><ele>266.0</ele><time>2026-05-01T15:51:39.184Z</time></trkpt><trkpt lat="45.8485" lon="11.917085"><ele>266.0</ele><time>2026-05-01T15:51:40.183Z</time></trkpt><trkpt lat="45.84857" lon="11.9173067"><ele>266.0</ele><time>2026-05-01T15:51:41.184Z</time></trkpt><trkpt lat="45.848645" lon="11.91754"><ele>265.0</ele><time>2026-05-01T15:51:42.186Z</time></trkpt><trkpt lat="45.8487117" lon="11.917785"><ele>264.0</ele><time>2026-05-01T15:51:43.182Z</time></trkpt><trkpt lat="45.8487733" lon="11.91803"><ele>263.0</ele><time>2026-05-01T15:51:44.187Z</time></trkpt><trkpt lat="45.848835" lon="11.9182567"><ele>263.25</ele><time>2026-05-01T15:51:45.184Z</time></trkpt><trkpt lat="45.8489" lon="11.9184667"><ele>263.5</ele><time>2026-05-01T15:51:46.186Z</time></trkpt><trkpt lat="45.8489617" lon="11.918665"><ele>263.75</ele><time>2026-05-01T15:51:47.186Z</time></trkpt><trkpt lat="45.8490033" lon="11.9188517"><ele>264.0</ele><time>2026-05-01T15:51:48.273Z</time></trkpt><trkpt lat="45.8490267" lon="11.91903"><ele>264.0</ele><time>2026-05-01T15:51:49.184Z</time></trkpt><trkpt lat="45.849015" lon="11.919205"><ele>264.0</ele><time>2026-05-01T15:51:50.187Z</time></trkpt><trkpt lat="45.84899" lon="11.91938"><ele>264.0</ele><time>2026-05-01T15:51:51.185Z</time></trkpt><trkpt lat="45.84895" lon="11.9195383"><ele>264.0</ele><time>2026-05-01T15:51:52.186Z</time></trkpt><trkpt lat="45.8489033" lon="11.919675"><ele>264.3333333333333</ele><time>2026-05-01T15:51:53.188Z</time></trkpt><trkpt lat="45.8488617" lon="11.9197833"><ele>264.6666666666667</ele><time>2026-05-01T15:51:54.186Z</time></trkpt><trkpt lat="45.8488233" lon="11.9198683"><ele>265.0</ele><time>2026-05-01T15:51:55.187Z</time></trkpt><trkpt lat="45.8487683" lon="11.9199267"><ele>265.33333333333337</ele><time>2026-05-01T15:51:56.189Z</time></trkpt><trkpt lat="45.8486917" lon="11.9199483"><ele>265.6666666666667</ele><time>2026-05-01T15:51:57.188Z</time></trkpt><trkpt lat="45.8485917" lon="11.9199217"><ele>266.0</ele><time>2026-05-01T15:51:58.187Z</time></trkpt><trkpt lat="45.8484933" lon="11.9198667"><ele>264.83333333333337</ele><time>2026-05-01T15:51:59.187Z</time></trkpt><trkpt lat="45.8484033" lon="11.9198483"><ele>263.6666666666667</ele><time>2026-05-01T15:52:00.187Z</time></trkpt><trkpt lat="45.848325" lon="11.9198467"><ele>262.5</ele><time>2026-05-01T15:52:01.185Z</time></trkpt><trkpt lat="45.8482617" lon="11.9198817"><ele>261.3333333333333</ele><time>2026-05-01T15:52:02.184Z</time></trkpt><trkpt lat="45.8482267" lon="11.9199867"><ele>260.16666666666663</ele><time>2026-05-01T15:52:03.185Z</time></trkpt><trkpt lat="45.84821" lon="11.9201283"><ele>259.0</ele><time>2026-05-01T15:52:04.183Z</time></trkpt><trkpt lat="45.8482233" lon="11.9202833"><ele>258.16666666666663</ele><time>2026-05-01T15:52:05.187Z</time></trkpt><trkpt lat="45.848235" lon="11.9204267"><ele>257.3333333333333</ele><time>2026-05-01T15:52:06.185Z</time></trkpt><trkpt lat="45.8482167" lon="11.9205333"><ele>256.5</ele><time>2026-05-01T15:52:07.186Z</time></trkpt><trkpt lat="45.84816" lon="11.920605"><ele>255.66666666666669</ele><time>2026-05-01T15:52:08.183Z</time></trkpt><trkpt lat="45.8480867" lon="11.9206533"><ele>254.83333333333334</ele><time>2026-05-01T15:52:09.188Z</time></trkpt><trkpt lat="45.8479767" lon="11.9206883"><ele>254.0</ele><time>2026-05-01T15:52:10.183Z</time></trkpt><trkpt lat="45.8478517" lon="11.9207467"><ele>254.0</ele><time>2026-05-01T15:52:11.185Z</time></trkpt><trkpt lat="45.8477183" lon="11.9208133"><ele>254.0</ele><time>2026-05-01T15:52:12.184Z</time></trkpt><trkpt lat="45.8475983" lon="11.9208967"><ele>254.0</ele><time>2026-05-01T15:52:13.185Z</time></trkpt><trkpt lat="45.8475017" lon="11.9209733"><ele>254.0</ele><time>2026-05-01T15:52:14.186Z</time></trkpt><trkpt lat="45.8474167" lon="11.921045"><ele>255.16666666666669</ele><time>2026-05-01T15:52:15.185Z</time></trkpt><trkpt lat="45.8473483" lon="11.9211067"><ele>256.33333333333337</ele><time>2026-05-01T15:52:16.183Z</time></trkpt><trkpt lat="45.8472967" lon="11.921185"><ele>257.5</ele><time>2026-05-01T15:52:17.184Z</time></trkpt><trkpt lat="45.8472533" lon="11.9212767"><ele>258.6666666666667</ele><time>2026-05-01T15:52:18.186Z</time></trkpt><trkpt lat="45.8472183" lon="11.9213883"><ele>259.8333333333333</ele><time>2026-05-01T15:52:19.184Z</time></trkpt><trkpt lat="45.8471833" lon="11.9215117"><ele>261.0</ele><time>2026-05-01T15:52:20.183Z</time></trkpt><trkpt lat="45.847145" lon="11.9216467"><ele>258.8</ele><time>2026-05-01T15:52:21.183Z</time></trkpt><trkpt lat="45.84711" lon="11.921785"><ele>256.6</ele><time>2026-05-01T15:52:22.187Z</time></trkpt><trkpt lat="45.84707" lon="11.9219117"><ele>254.4</ele><time>2026-05-01T15:52:23.185Z</time></trkpt><trkpt lat="45.847025" lon="11.9220217"><ele>252.2</ele><time>2026-05-01T15:52:24.186Z</time></trkpt><trkpt lat="45.846975" lon="11.9221217"><ele>250.0</ele><time>2026-05-01T15:52:25.185Z</time></trkpt><trkpt lat="45.8469133" lon="11.9221883"><ele>249.99999999999997</ele><time>2026-05-01T15:52:26.188Z</time></trkpt><trkpt lat="45.8468317" lon="11.9223017"><ele>250.0</ele><time>2026-05-01T15:52:28.189Z</time></trkpt><trkpt lat="45.846795" lon="11.9223767"><ele>250.0</ele><time>2026-05-01T15:52:29.183Z</time></trkpt><trkpt lat="45.8467633" lon="11.92246"><ele>250.0</ele><time>2026-05-01T15:52:30.185Z</time></trkpt><trkpt lat="45.8467267" lon="11.9225483"><ele>249.99999999999997</ele><time>2026-05-01T15:52:31.186Z</time></trkpt><trkpt lat="45.8466833" lon="11.92265"><ele>250.0</ele><time>2026-05-01T15:52:32.184Z</time></trkpt><trkpt lat="45.84664" lon="11.9227583"><ele>249.99999999999997</ele><time>2026-05-01T15:52:33.192Z</time></trkpt><trkpt lat="45.8466033" lon="11.9228583"><ele>250.0</ele><time>2026-05-01T15:52:34.183Z</time></trkpt><trkpt lat="45.8465633" lon="11.9229517"><ele>250.0</ele><time>2026-05-01T15:52:35.185Z</time></trkpt><trkpt lat="45.8465083" lon="11.92303"><ele>250.0</ele><time>2026-05-01T15:52:36.185Z</time></trkpt><trkpt lat="45.84645" lon="11.9231117"><ele>249.99999999999997</ele><time>2026-05-01T15:52:37.184Z</time></trkpt><trkpt lat="45.8463833" lon="11.9231833"><ele>250.0</ele><time>2026-05-01T15:52:38.185Z</time></trkpt><trkpt lat="45.84634" lon="11.9232683"><ele>250.0</ele><time>2026-05-01T15:52:39.189Z</time></trkpt><trkpt lat="45.8463067" lon="11.92336"><ele>250.0</ele><time>2026-05-01T15:52:40.185Z</time></trkpt><trkpt lat="45.8462883" lon="11.92347"><ele>250.0</ele><time>2026-05-01T15:52:41.183Z</time></trkpt><trkpt lat="45.846285" lon="11.9236017"><ele>250.0</ele><time>2026-05-01T15:52:42.184Z</time></trkpt><trkpt lat="45.84627" lon="11.923755"><ele>250.0</ele><time>2026-05-01T15:52:43.185Z</time></trkpt><trkpt lat="45.8462433" lon="11.923915"><ele>248.8</ele><time>2026-05-01T15:52:44.186Z</time></trkpt><trkpt lat="45.8462183" lon="11.92407"><ele>247.6</ele><time>2026-05-01T15:52:45.188Z</time></trkpt><trkpt lat="45.8462133" lon="11.9242217"><ele>246.39999999999998</ele><time>2026-05-01T15:52:46.182Z</time></trkpt><trkpt lat="45.8462233" lon="11.924365"><ele>245.2</ele><time>2026-05-01T15:52:47.184Z</time></trkpt><trkpt lat="45.8462467" lon="11.9244983"><ele>244.0</ele><time>2026-05-01T15:52:48.185Z</time></trkpt><trkpt lat="45.8462967" lon="11.9246217"><ele>244.0</ele><time>2026-05-01T15:52:49.184Z</time></trkpt><trkpt lat="45.8463533" lon="11.9247467"><ele>243.99999999999997</ele><time>2026-05-01T15:52:50.183Z</time></trkpt><trkpt lat="45.8464217" lon="11.9248567"><ele>243.99999999999997</ele><time>2026-05-01T15:52:51.186Z</time></trkpt><trkpt lat="45.8464783" lon="11.9249617"><ele>244.0</ele><time>2026-05-01T15:52:52.184Z</time></trkpt><trkpt lat="45.8465117" lon="11.9250717"><ele>244.0</ele><time>2026-05-01T15:52:53.186Z</time></trkpt><trkpt lat="45.8465283" lon="11.9251817"><ele>243.33333333333331</ele><time>2026-05-01T15:52:54.183Z</time></trkpt><trkpt lat="45.846535" lon="11.925285"><ele>242.66666666666666</ele><time>2026-05-01T15:52:55.187Z</time></trkpt><trkpt lat="45.84653" lon="11.925395"><ele>242.0</ele><time>2026-05-01T15:52:56.187Z</time></trkpt><trkpt lat="45.8465183" lon="11.9255067"><ele>241.33333333333331</ele><time>2026-05-01T15:52:57.188Z</time></trkpt><trkpt lat="45.8465083" lon="11.9256183"><ele>240.66666666666666</ele><time>2026-05-01T15:52:58.184Z</time></trkpt><trkpt lat="45.8464867" lon="11.92573"><ele>240.0</ele><time>2026-05-01T15:52:59.186Z</time></trkpt><trkpt lat="45.84647" lon="11.9258433"><ele>239.2</ele><time>2026-05-01T15:53:00.185Z</time></trkpt><trkpt lat="45.8464433" lon="11.9259633"><ele>238.4</ele><time>2026-05-01T15:53:01.185Z</time></trkpt><trkpt lat="45.8464017" lon="11.9260933"><ele>237.60000000000002</ele><time>2026-05-01T15:53:02.184Z</time></trkpt><trkpt lat="45.8463467" lon="11.9262367"><ele>236.8</ele><time>2026-05-01T15:53:03.186Z</time></trkpt><trkpt lat="45.8462917" lon="11.9264033"><ele>236.0</ele><time>2026-05-01T15:53:04.185Z</time></trkpt><trkpt lat="45.8462467" lon="11.9265717"><ele>235.0</ele><time>2026-05-01T15:53:05.186Z</time></trkpt><trkpt lat="45.8462" lon="11.9267383"><ele>234.0</ele><time>2026-05-01T15:53:06.187Z</time></trkpt><trkpt lat="45.8461483" lon="11.9269167"><ele>233.0</ele><time>2026-05-01T15:53:07.184Z</time></trkpt><trkpt lat="45.8460983" lon="11.927105"><ele>232.0</ele><time>2026-05-01T15:53:08.183Z</time></trkpt><trkpt lat="45.8460633" lon="11.9273067"><ele>232.0</ele><time>2026-05-01T15:53:09.184Z</time></trkpt><trkpt lat="45.8460583" lon="11.927525"><ele>232.0</ele><time>2026-05-01T15:53:10.185Z</time></trkpt><trkpt lat="45.8460567" lon="11.927745"><ele>232.0</ele><time>2026-05-01T15:53:11.186Z</time></trkpt><trkpt lat="45.8460533" lon="11.92795"><ele>232.0</ele><time>2026-05-01T15:53:12.185Z</time></trkpt><trkpt lat="45.8460517" lon="11.9281267"><ele>231.75</ele><time>2026-05-01T15:53:13.191Z</time></trkpt><trkpt lat="45.8460533" lon="11.928295"><ele>231.5</ele><time>2026-05-01T15:53:14.184Z</time></trkpt><trkpt lat="45.84606" lon="11.9284717"><ele>231.25</ele><time>2026-05-01T15:53:15.185Z</time></trkpt><trkpt lat="45.8460483" lon="11.9286667"><ele>231.0</ele><time>2026-05-01T15:53:16.186Z</time></trkpt><trkpt lat="45.846035" lon="11.928865"><ele>230.5</ele><time>2026-05-01T15:53:17.186Z</time></trkpt><trkpt lat="45.8460267" lon="11.9290583"><ele>230.0</ele><time>2026-05-01T15:53:18.185Z</time></trkpt><trkpt lat="45.8460217" lon="11.9292333"><ele>229.5</ele><time>2026-05-01T15:53:19.188Z</time></trkpt><trkpt lat="45.8460133" lon="11.9293983"><ele>229.0</ele><time>2026-05-01T15:53:20.188Z</time></trkpt><trkpt lat="45.8460117" lon="11.92956"><ele>231.0</ele><time>2026-05-01T15:53:21.185Z</time></trkpt><trkpt lat="45.8460267" lon="11.9297217"><ele>233.0</ele><time>2026-05-01T15:53:22.186Z</time></trkpt><trkpt lat="45.8460533" lon="11.9298717"><ele>235.0</ele><time>2026-05-01T15:53:23.188Z</time></trkpt><trkpt lat="45.846105" lon="11.93001"><ele>237.0</ele><time>2026-05-01T15:53:24.187Z</time></trkpt><trkpt lat="45.8461883" lon="11.93014"><ele>241.25</ele><time>2026-05-01T15:53:25.184Z</time></trkpt><trkpt lat="45.8462867" lon="11.930265"><ele>245.5</ele><time>2026-05-01T15:53:26.187Z</time></trkpt><trkpt lat="45.8464" lon="11.93037"><ele>249.75</ele><time>2026-05-01T15:53:27.186Z</time></trkpt><trkpt lat="45.8465133" lon="11.93045"><ele>254.0</ele><time>2026-05-01T15:53:28.183Z</time></trkpt><trkpt lat="45.84661" lon="11.930515"><ele>254.0</ele><time>2026-05-01T15:53:29.185Z</time></trkpt><trkpt lat="45.8466933" lon="11.9306033"><ele>254.0</ele><time>2026-05-01T15:53:30.187Z</time></trkpt><trkpt lat="45.8467667" lon="11.9307283"><ele>254.0</ele><time>2026-05-01T15:53:31.186Z</time></trkpt><trkpt lat="45.846835" lon="11.9308717"><ele>254.0</ele><time>2026-05-01T15:53:32.187Z</time></trkpt><trkpt lat="45.846915" lon="11.9310117"><ele>254.25</ele><time>2026-05-01T15:53:33.187Z</time></trkpt><trkpt lat="45.8470033" lon="11.93115"><ele>254.5</ele><time>2026-05-01T15:53:34.186Z</time></trkpt><trkpt lat="45.847095" lon="11.93129"><ele>254.75</ele><time>2026-05-01T15:53:35.184Z</time></trkpt><trkpt lat="45.847185" lon="11.9314317"><ele>255.0</ele><time>2026-05-01T15:53:36.185Z</time></trkpt><trkpt lat="45.8472717" lon="11.931575"><ele>258.0</ele><time>2026-05-01T15:53:37.184Z</time></trkpt><trkpt lat="45.8473517" lon="11.931725"><ele>261.0</ele><time>2026-05-01T15:53:38.184Z</time></trkpt><trkpt lat="45.8474283" lon="11.9318883"><ele>264.0</ele><time>2026-05-01T15:53:39.185Z</time></trkpt><trkpt lat="45.8475" lon="11.932065"><ele>267.0</ele><time>2026-05-01T15:53:40.188Z</time></trkpt><trkpt lat="45.8475667" lon="11.9322517"><ele>263.0</ele><time>2026-05-01T15:53:41.186Z</time></trkpt><trkpt lat="45.8476367" lon="11.932435"><ele>259.0</ele><time>2026-05-01T15:53:42.191Z</time></trkpt><trkpt lat="45.8477067" lon="11.9326"><ele>255.0</ele><time>2026-05-01T15:53:43.187Z</time></trkpt><trkpt lat="45.84778" lon="11.93276"><ele>251.0</ele><time>2026-05-01T15:53:44.185Z</time></trkpt><trkpt lat="45.847855" lon="11.9329033"><ele>251.0</ele><time>2026-05-01T15:53:45.19Z</time></trkpt><trkpt lat="45.8479217" lon="11.933035"><ele>251.0</ele><time>2026-05-01T15:53:46.183Z</time></trkpt><trkpt lat="45.84798" lon="11.9331667"><ele>251.0</ele><time>2026-05-01T15:53:47.184Z</time></trkpt><trkpt lat="45.8480283" lon="11.9333167"><ele>251.0</ele><time>2026-05-01T15:53:48.185Z</time></trkpt><trkpt lat="45.8480633" lon="11.9334933"><ele>252.25</ele><time>2026-05-01T15:53:49.188Z</time></trkpt><trkpt lat="45.8480867" lon="11.9336967"><ele>253.5</ele><time>2026-05-01T15:53:50.186Z</time></trkpt><trkpt lat="45.84811" lon="11.9339083"><ele>254.75</ele><time>2026-05-01T15:53:51.185Z</time></trkpt><trkpt lat="45.8481383" lon="11.9341283"><ele>256.0</ele><time>2026-05-01T15:53:52.185Z</time></trkpt><trkpt lat="45.8481767" lon="11.9343383"><ele>257.25</ele><time>2026-05-01T15:53:53.183Z</time></trkpt><trkpt lat="45.8482133" lon="11.9345333"><ele>258.5</ele><time>2026-05-01T15:53:54.186Z</time></trkpt><trkpt lat="45.84824" lon="11.9347217"><ele>259.75</ele><time>2026-05-01T15:53:55.186Z</time></trkpt><trkpt lat="45.8482583" lon="11.9349183"><ele>261.0</ele><time>2026-05-01T15:53:56.187Z</time></trkpt><trkpt lat="45.8482817" lon="11.9351117"><ele>262.0</ele><time>2026-05-01T15:53:57.189Z</time></trkpt><trkpt lat="45.8483" lon="11.9353183"><ele>263.0</ele><time>2026-05-01T15:53:58.185Z</time></trkpt><trkpt lat="45.8483283" lon="11.93553"><ele>264.0</ele><time>2026-05-01T15:53:59.185Z</time></trkpt><trkpt lat="45.8483717" lon="11.93574"><ele>265.0</ele><time>2026-05-01T15:54:00.186Z</time></trkpt><trkpt lat="45.8484067" lon="11.935935"><ele>266.0</ele><time>2026-05-01T15:54:01.185Z</time></trkpt><trkpt lat="45.8484283" lon="11.936115"><ele>267.0</ele><time>2026-05-01T15:54:02.19Z</time></trkpt><trkpt lat="45.84844" lon="11.9362967"><ele>268.0</ele><time>2026-05-01T15:54:03.185Z</time></trkpt><trkpt lat="45.848435" lon="11.9364883"><ele>269.0</ele><time>2026-05-01T15:54:04.186Z</time></trkpt><trkpt lat="45.8484083" lon="11.9366833"><ele>267.5</ele><time>2026-05-01T15:54:05.183Z</time></trkpt><trkpt lat="45.84836" lon="11.9368717"><ele>266.0</ele><time>2026-05-01T15:54:06.185Z</time></trkpt><trkpt lat="45.848325" lon="11.9370533"><ele>264.5</ele><time>2026-05-01T15:54:07.186Z</time></trkpt><trkpt lat="45.8483133" lon="11.9372433"><ele>263.0</ele><time>2026-05-01T15:54:08.185Z</time></trkpt><trkpt lat="45.84833" lon="11.9374467"><ele>261.6666666666667</ele><time>2026-05-01T15:54:09.187Z</time></trkpt><trkpt lat="45.8483733" lon="11.9376633"><ele>260.3333333333333</ele><time>2026-05-01T15:54:10.184Z</time></trkpt><trkpt lat="45.8484233" lon="11.9378883"><ele>259.0</ele><time>2026-05-01T15:54:11.186Z</time></trkpt><trkpt lat="45.8484567" lon="11.938105"><ele>254.66666666666666</ele><time>2026-05-01T15:54:12.186Z</time></trkpt><trkpt lat="45.8484817" lon="11.93831"><ele>250.33333333333331</ele><time>2026-05-01T15:54:13.19Z</time></trkpt><trkpt lat="45.8485117" lon="11.9385217"><ele>246.0</ele><time>2026-05-01T15:54:14.184Z</time></trkpt><trkpt lat="45.8485683" lon="11.938735"><ele>246.0</ele><time>2026-05-01T15:54:15.189Z</time></trkpt><trkpt lat="45.84863" lon="11.9389367"><ele>246.0</ele><time>2026-05-01T15:54:16.187Z</time></trkpt><trkpt lat="45.84868" lon="11.939115"><ele>246.0</ele><time>2026-05-01T15:54:17.187Z</time></trkpt><trkpt lat="45.84873" lon="11.9392733"><ele>246.0</ele><time>2026-05-01T15:54:18.263Z</time></trkpt><trkpt lat="45.84877" lon="11.939435"><ele>246.20000000000002</ele><time>2026-05-01T15:54:19.189Z</time></trkpt><trkpt lat="45.848785" lon="11.9396033"><ele>246.40000000000003</ele><time>2026-05-01T15:54:20.186Z</time></trkpt><trkpt lat="45.8487917" lon="11.9397667"><ele>246.6</ele><time>2026-05-01T15:54:21.189Z</time></trkpt><trkpt lat="45.84879" lon="11.939915"><ele>246.8</ele><time>2026-05-01T15:54:22.187Z</time></trkpt><trkpt lat="45.8487783" lon="11.9400617"><ele>247.0</ele><time>2026-05-01T15:54:23.185Z</time></trkpt><trkpt lat="45.8487533" lon="11.94022"><ele>247.0</ele><time>2026-05-01T15:54:24.187Z</time></trkpt><trkpt lat="45.8487117" lon="11.9403933"><ele>247.0</ele><time>2026-05-01T15:54:25.187Z</time></trkpt><trkpt lat="45.848685" lon="11.94058"><ele>247.0</ele><time>2026-05-01T15:54:26.186Z</time></trkpt><trkpt lat="45.84867" lon="11.9407617"><ele>247.0</ele><time>2026-05-01T15:54:27.187Z</time></trkpt><trkpt lat="45.8486617" lon="11.9409333"><ele>247.5</ele><time>2026-05-01T15:54:28.188Z</time></trkpt><trkpt lat="45.8486517" lon="11.9410983"><ele>248.0</ele><time>2026-05-01T15:54:29.184Z</time></trkpt><trkpt lat="45.8486683" lon="11.9412683"><ele>248.5</ele><time>2026-05-01T15:54:30.186Z</time></trkpt><trkpt lat="45.8487233" lon="11.941445"><ele>249.0</ele><time>2026-05-01T15:54:31.184Z</time></trkpt><trkpt lat="45.848795" lon="11.9416267"><ele>252.33333333333331</ele><time>2026-05-01T15:54:32.192Z</time></trkpt><trkpt lat="45.8488717" lon="11.9418217"><ele>255.66666666666666</ele><time>2026-05-01T15:54:33.185Z</time></trkpt><trkpt lat="45.8489467" lon="11.9420133"><ele>259.0</ele><time>2026-05-01T15:54:34.189Z</time></trkpt><trkpt lat="45.849025" lon="11.9421833"><ele>259.0</ele><time>2026-05-01T15:54:35.185Z</time></trkpt><trkpt lat="45.8490933" lon="11.9423383"><ele>259.0</ele><time>2026-05-01T15:54:36.185Z</time></trkpt><trkpt lat="45.84915" lon="11.9424983"><ele>259.0</ele><time>2026-05-01T15:54:37.188Z</time></trkpt><trkpt lat="45.849205" lon="11.942665"><ele>259.0</ele><time>2026-05-01T15:54:38.185Z</time></trkpt><trkpt lat="45.8492483" lon="11.9428433"><ele>261.75</ele><time>2026-05-01T15:54:39.187Z</time></trkpt><trkpt lat="45.8492833" lon="11.9430367"><ele>264.5</ele><time>2026-05-01T15:54:40.186Z</time></trkpt><trkpt lat="45.849315" lon="11.9432317"><ele>267.25</ele><time>2026-05-01T15:54:41.185Z</time></trkpt><trkpt lat="45.84936" lon="11.9434"><ele>270.0</ele><time>2026-05-01T15:54:42.187Z</time></trkpt><trkpt lat="45.8494117" lon="11.943545"><ele>265.2</ele><time>2026-05-01T15:54:43.186Z</time></trkpt><trkpt lat="45.8494683" lon="11.9436683"><ele>260.4</ele><time>2026-05-01T15:54:44.186Z</time></trkpt><trkpt lat="45.8495117" lon="11.943785"><ele>255.60000000000002</ele><time>2026-05-01T15:54:45.19Z</time></trkpt><trkpt lat="45.8495517" lon="11.9439017"><ele>250.8</ele><time>2026-05-01T15:54:46.188Z</time></trkpt><trkpt lat="45.849565" lon="11.9440533"><ele>246.0</ele><time>2026-05-01T15:54:47.186Z</time></trkpt><trkpt lat="45.8495717" lon="11.9442233"><ele>246.0</ele><time>2026-05-01T15:54:48.187Z</time></trkpt><trkpt lat="45.8495667" lon="11.9444083"><ele>246.0</ele><time>2026-05-01T15:54:49.185Z</time></trkpt><trkpt lat="45.849565" lon="11.9445933"><ele>246.0</ele><time>2026-05-01T15:54:50.185Z</time></trkpt><trkpt lat="45.8495633" lon="11.9447717"><ele>246.0</ele><time>2026-05-01T15:54:51.185Z</time></trkpt><trkpt lat="45.8495567" lon="11.9449367"><ele>249.0</ele><time>2026-05-01T15:54:52.185Z</time></trkpt><trkpt lat="45.849565" lon="11.9451"><ele>252.0</ele><time>2026-05-01T15:54:53.183Z</time></trkpt><trkpt lat="45.8496" lon="11.9452667"><ele>255.0</ele><time>2026-05-01T15:54:54.186Z</time></trkpt><trkpt lat="45.8496633" lon="11.9454383"><ele>258.0</ele><time>2026-05-01T15:54:55.186Z</time></trkpt><trkpt lat="45.8497367" lon="11.9455983"><ele>258.0</ele><time>2026-05-01T15:54:56.184Z</time></trkpt><trkpt lat="45.8498" lon="11.94575"><ele>258.0</ele><time>2026-05-01T15:54:57.186Z</time></trkpt><trkpt lat="45.8498583" lon="11.945885"><ele>258.0</ele><time>2026-05-01T15:54:58.191Z</time></trkpt><trkpt lat="45.849915" lon="11.9460133"><ele>258.0</ele><time>2026-05-01T15:54:59.184Z</time></trkpt><trkpt lat="45.849955" lon="11.9461583"><ele>258.0</ele><time>2026-05-01T15:55:00.186Z</time></trkpt><trkpt lat="45.8499783" lon="11.9463133"><ele>257.5</ele><time>2026-05-01T15:55:01.184Z</time></trkpt><trkpt lat="45.8499883" lon="11.946475"><ele>257.0</ele><time>2026-05-01T15:55:02.185Z</time></trkpt><trkpt lat="45.8499767" lon="11.9466417"><ele>256.5</ele><time>2026-05-01T15:55:03.188Z</time></trkpt><trkpt lat="45.8499617" lon="11.9468017"><ele>256.0</ele><time>2026-05-01T15:55:04.184Z</time></trkpt><trkpt lat="45.8499367" lon="11.9469533"><ele>255.99999999999997</ele><time>2026-05-01T15:55:05.183Z</time></trkpt><trkpt lat="45.849905" lon="11.9471033"><ele>256.0</ele><time>2026-05-01T15:55:06.185Z</time></trkpt><trkpt lat="45.8498717" lon="11.9472233"><ele>256.0</ele><time>2026-05-01T15:55:07.185Z</time></trkpt><trkpt lat="45.8498283" lon="11.9473233"><ele>256.0</ele><time>2026-05-01T15:55:08.185Z</time></trkpt><trkpt lat="45.8498083" lon="11.9474283"><ele>255.99999999999997</ele><time>2026-05-01T15:55:09.267Z</time></trkpt><trkpt lat="45.84981" lon="11.9475533"><ele>256.0</ele><time>2026-05-01T15:55:10.186Z</time></trkpt><trkpt lat="45.84982" lon="11.947685"><ele>255.5</ele><time>2026-05-01T15:55:11.185Z</time></trkpt><trkpt lat="45.8498633" lon="11.9478233"><ele>255.0</ele><time>2026-05-01T15:55:12.186Z</time></trkpt><trkpt lat="45.8499483" lon="11.9479617"><ele>254.5</ele><time>2026-05-01T15:55:13.186Z</time></trkpt><trkpt lat="45.85004" lon="11.9481017"><ele>254.0</ele><time>2026-05-01T15:55:14.186Z</time></trkpt><trkpt lat="45.8501333" lon="11.9482217"><ele>254.00000000000003</ele><time>2026-05-01T15:55:15.187Z</time></trkpt><trkpt lat="45.8502067" lon="11.948335"><ele>254.0</ele><time>2026-05-01T15:55:16.186Z</time></trkpt><trkpt lat="45.8502683" lon="11.94843"><ele>254.0</ele><time>2026-05-01T15:55:17.185Z</time></trkpt><trkpt lat="45.85031" lon="11.948525"><ele>254.0</ele><time>2026-05-01T15:55:18.188Z</time></trkpt><trkpt lat="45.8503183" lon="11.9486383"><ele>254.00000000000003</ele><time>2026-05-01T15:55:19.184Z</time></trkpt><trkpt lat="45.850285" lon="11.9487617"><ele>254.0</ele><time>2026-05-01T15:55:20.185Z</time></trkpt><trkpt lat="45.8502" lon="11.9488667"><ele>252.25</ele><time>2026-05-01T15:55:21.185Z</time></trkpt><trkpt lat="45.8500917" lon="11.9489533"><ele>250.5</ele><time>2026-05-01T15:55:22.186Z</time></trkpt><trkpt lat="45.849985" lon="11.949025"><ele>248.75</ele><time>2026-05-01T15:55:23.188Z</time></trkpt><trkpt lat="45.8498817" lon="11.9490833"><ele>247.0</ele><time>2026-05-01T15:55:24.184Z</time></trkpt><trkpt lat="45.8497983" lon="11.9491683"><ele>248.8</ele><time>2026-05-01T15:55:25.184Z</time></trkpt><trkpt lat="45.849705" lon="11.94925"><ele>250.6</ele><time>2026-05-01T15:55:26.184Z</time></trkpt><trkpt lat="45.84962" lon="11.94934"><ele>252.40000000000003</ele><time>2026-05-01T15:55:27.186Z</time></trkpt><trkpt lat="45.8495417" lon="11.9494133"><ele>254.20000000000002</ele><time>2026-05-01T15:55:28.186Z</time></trkpt><trkpt lat="45.84947" lon="11.9495083"><ele>256.0</ele><time>2026-05-01T15:55:29.186Z</time></trkpt><trkpt lat="45.8494133" lon="11.9496233"><ele>256.0</ele><time>2026-05-01T15:55:30.184Z</time></trkpt><trkpt lat="45.849385" lon="11.9497683"><ele>256.0</ele><time>2026-05-01T15:55:31.184Z</time></trkpt><trkpt lat="45.8493833" lon="11.94994"><ele>256.0</ele><time>2026-05-01T15:55:32.186Z</time></trkpt><trkpt lat="45.8493883" lon="11.9501167"><ele>256.0</ele><time>2026-05-01T15:55:33.184Z</time></trkpt><trkpt lat="45.849385" lon="11.9502933"><ele>255.20000000000002</ele><time>2026-05-01T15:55:34.186Z</time></trkpt><trkpt lat="45.8494017" lon="11.9504533"><ele>254.40000000000003</ele><time>2026-05-01T15:55:35.186Z</time></trkpt><trkpt lat="45.8494133" lon="11.9506067"><ele>253.6</ele><time>2026-05-01T15:55:36.187Z</time></trkpt><trkpt lat="45.8494217" lon="11.95076"><ele>252.8</ele><time>2026-05-01T15:55:37.186Z</time></trkpt><trkpt lat="45.8494317" lon="11.9509117"><ele>252.0</ele><time>2026-05-01T15:55:38.188Z</time></trkpt><trkpt lat="45.84944" lon="11.9510583"><ele>249.39999999999998</ele><time>2026-05-01T15:55:39.188Z</time></trkpt><trkpt lat="45.84945" lon="11.9511933"><ele>246.79999999999998</ele><time>2026-05-01T15:55:40.185Z</time></trkpt><trkpt lat="45.849445" lon="11.9513267"><ele>244.2</ele><time>2026-05-01T15:55:41.185Z</time></trkpt><trkpt lat="45.849415" lon="11.9514517"><ele>241.6</ele><time>2026-05-01T15:55:42.185Z</time></trkpt><trkpt lat="45.849355" lon="11.95157"><ele>239.0</ele><time>2026-05-01T15:55:43.186Z</time></trkpt><trkpt lat="45.84926" lon="11.951685"><ele>233.25</ele><time>2026-05-01T15:55:44.19Z</time></trkpt><trkpt lat="45.8491533" lon="11.951805"><ele>227.5</ele><time>2026-05-01T15:55:45.186Z</time></trkpt><trkpt lat="45.84905" lon="11.9519583"><ele>221.75</ele><time>2026-05-01T15:55:46.186Z</time></trkpt><trkpt lat="45.8489683" lon="11.95213"><ele>216.0</ele><time>2026-05-01T15:55:47.185Z</time></trkpt><trkpt lat="45.8488983" lon="11.9523167"><ele>216.0</ele><time>2026-05-01T15:55:48.185Z</time></trkpt><trkpt lat="45.84883" lon="11.9524717"><ele>216.0</ele><time>2026-05-01T15:55:49.187Z</time></trkpt><trkpt lat="45.8487617" lon="11.952625"><ele>216.0</ele><time>2026-05-01T15:55:50.186Z</time></trkpt><trkpt lat="45.848705" lon="11.9527767"><ele>216.0</ele><time>2026-05-01T15:55:51.185Z</time></trkpt><trkpt lat="45.8486433" lon="11.9529033"><ele>215.4</ele><time>2026-05-01T15:55:52.185Z</time></trkpt><trkpt lat="45.8485733" lon="11.9529983"><ele>214.8</ele><time>2026-05-01T15:55:53.185Z</time></trkpt><trkpt lat="45.848495" lon="11.95307"><ele>214.20000000000002</ele><time>2026-05-01T15:55:54.184Z</time></trkpt><trkpt lat="45.848405" lon="11.9531117"><ele>213.60000000000002</ele><time>2026-05-01T15:55:55.187Z</time></trkpt><trkpt lat="45.848305" lon="11.953125"><ele>213.0</ele><time>2026-05-01T15:55:56.184Z</time></trkpt><trkpt lat="45.8481933" lon="11.953125"><ele>212.75</ele><time>2026-05-01T15:55:57.186Z</time></trkpt><trkpt lat="45.8480767" lon="11.9531133"><ele>212.5</ele><time>2026-05-01T15:55:58.185Z</time></trkpt><trkpt lat="45.84796" lon="11.9531083"><ele>212.25</ele><time>2026-05-01T15:55:59.185Z</time></trkpt><trkpt lat="45.8478383" lon="11.95311"><ele>212.0</ele><time>2026-05-01T15:56:00.264Z</time></trkpt><trkpt lat="45.8477117" lon="11.95312"><ele>213.39999999999998</ele><time>2026-05-01T15:56:01.186Z</time></trkpt><trkpt lat="45.84759" lon="11.9531333"><ele>214.79999999999998</ele><time>2026-05-01T15:56:02.187Z</time></trkpt><trkpt lat="45.8474733" lon="11.9531417"><ele>216.2</ele><time>2026-05-01T15:56:03.185Z</time></trkpt><trkpt lat="45.84737" lon="11.9531617"><ele>217.6</ele><time>2026-05-01T15:56:04.184Z</time></trkpt><trkpt lat="45.8472783" lon="11.95317"><ele>219.0</ele><time>2026-05-01T15:56:05.185Z</time></trkpt><trkpt lat="45.847205" lon="11.9531733"><ele>219.0</ele><time>2026-05-01T15:56:06.187Z</time></trkpt><trkpt lat="45.847115" lon="11.9531917"><ele>219.0</ele><time>2026-05-01T15:56:08.185Z</time></trkpt><trkpt lat="45.8470917" lon="11.95329"><ele>219.0</ele><time>2026-05-01T15:56:11.185Z</time></trkpt><trkpt lat="45.8470217" lon="11.9533783"><ele>219.0</ele><time>2026-05-01T15:56:14.191Z</time></trkpt><trkpt lat="45.846935" lon="11.9533467"><ele>219.0</ele><time>2026-05-01T15:56:15.187Z</time></trkpt><trkpt lat="45.846845" lon="11.9533117"><ele>219.0</ele><time>2026-05-01T15:56:16.185Z</time></trkpt><trkpt lat="45.8467567" lon="11.953315"><ele>218.6</ele><time>2026-05-01T15:56:17.185Z</time></trkpt><trkpt lat="45.846665" lon="11.9533533"><ele>218.2</ele><time>2026-05-01T15:56:18.186Z</time></trkpt><trkpt lat="45.8465883" lon="11.953425"><ele>217.79999999999998</ele><time>2026-05-01T15:56:19.189Z</time></trkpt><trkpt lat="45.8465233" lon="11.9535517"><ele>217.39999999999998</ele><time>2026-05-01T15:56:20.184Z</time></trkpt><trkpt lat="45.8464733" lon="11.9536967"><ele>217.0</ele><time>2026-05-01T15:56:21.19Z</time></trkpt><trkpt lat="45.8464267" lon="11.9538383"><ele>215.39999999999998</ele><time>2026-05-01T15:56:22.188Z</time></trkpt><trkpt lat="45.846375" lon="11.9539617"><ele>213.79999999999998</ele><time>2026-05-01T15:56:23.187Z</time></trkpt><trkpt lat="45.8463033" lon="11.9540517"><ele>212.2</ele><time>2026-05-01T15:56:24.184Z</time></trkpt><trkpt lat="45.8462117" lon="11.9541167"><ele>210.6</ele><time>2026-05-01T15:56:25.184Z</time></trkpt><trkpt lat="45.8461017" lon="11.954175"><ele>209.0</ele><time>2026-05-01T15:56:26.188Z</time></trkpt><trkpt lat="45.8459883" lon="11.9542367"><ele>207.25</ele><time>2026-05-01T15:56:27.186Z</time></trkpt><trkpt lat="45.8458783" lon="11.954305"><ele>205.5</ele><time>2026-05-01T15:56:28.187Z</time></trkpt><trkpt lat="45.8457767" lon="11.9543783"><ele>203.75</ele><time>2026-05-01T15:56:29.186Z</time></trkpt><trkpt lat="45.84568" lon="11.9544517"><ele>202.0</ele><time>2026-05-01T15:56:30.186Z</time></trkpt><trkpt lat="45.8455933" lon="11.9545417"><ele>202.0</ele><time>2026-05-01T15:56:31.184Z</time></trkpt><trkpt lat="45.8455217" lon="11.954655"><ele>202.0</ele><time>2026-05-01T15:56:32.185Z</time></trkpt><trkpt lat="45.8454633" lon="11.9547733"><ele>202.0</ele><time>2026-05-01T15:56:33.263Z</time></trkpt><trkpt lat="45.8453883" lon="11.9548717"><ele>202.0</ele><time>2026-05-01T15:56:34.184Z</time></trkpt><trkpt lat="45.8452867" lon="11.9549417"><ele>202.0</ele><time>2026-05-01T15:56:35.185Z</time></trkpt><trkpt lat="45.845185" lon="11.9550583"><ele>201.75</ele><time>2026-05-01T15:56:36.183Z</time></trkpt><trkpt lat="45.8451" lon="11.9552233"><ele>201.5</ele><time>2026-05-01T15:56:37.184Z</time></trkpt><trkpt lat="45.8450117" lon="11.9554"><ele>201.25</ele><time>2026-05-01T15:56:38.187Z</time></trkpt><trkpt lat="45.8449017" lon="11.955555"><ele>201.0</ele><time>2026-05-01T15:56:39.188Z</time></trkpt><trkpt lat="45.8447917" lon="11.9557117"><ele>201.0</ele><time>2026-05-01T15:56:40.187Z</time></trkpt><trkpt lat="45.8446717" lon="11.9558633"><ele>201.0</ele><time>2026-05-01T15:56:41.186Z</time></trkpt><trkpt lat="45.8445517" lon="11.9560033"><ele>201.0</ele><time>2026-05-01T15:56:42.185Z</time></trkpt><trkpt lat="45.8444433" lon="11.956135"><ele>200.5</ele><time>2026-05-01T15:56:43.185Z</time></trkpt><trkpt lat="45.844335" lon="11.9562567"><ele>200.0</ele><time>2026-05-01T15:56:44.187Z</time></trkpt><trkpt lat="45.8442433" lon="11.9563717"><ele>199.5</ele><time>2026-05-01T15:56:45.186Z</time></trkpt><trkpt lat="45.8441533" lon="11.9564717"><ele>199.0</ele><time>2026-05-01T15:56:46.184Z</time></trkpt><trkpt lat="45.8440383" lon="11.9565517"><ele>199.0</ele><time>2026-05-01T15:56:47.187Z</time></trkpt><trkpt lat="45.8439133" lon="11.956625"><ele>199.0</ele><time>2026-05-01T15:56:48.184Z</time></trkpt><trkpt lat="45.8437817" lon="11.9566967"><ele>199.0</ele><time>2026-05-01T15:56:49.188Z</time></trkpt><trkpt lat="45.8436383" lon="11.9567583"><ele>199.0</ele><time>2026-05-01T15:56:50.183Z</time></trkpt><trkpt lat="45.8434867" lon="11.9568383"><ele>198.0</ele><time>2026-05-01T15:56:51.188Z</time></trkpt><trkpt lat="45.843335" lon="11.9569117"><ele>197.0</ele><time>2026-05-01T15:56:52.187Z</time></trkpt><trkpt lat="45.8431833" lon="11.9569867"><ele>196.0</ele><time>2026-05-01T15:56:53.186Z</time></trkpt><trkpt lat="45.8430317" lon="11.9570617"><ele>196.0</ele><time>2026-05-01T15:56:54.184Z</time></trkpt><trkpt lat="45.8428817" lon="11.9571283"><ele>196.0</ele><time>2026-05-01T15:56:55.185Z</time></trkpt><trkpt lat="45.842745" lon="11.9572017"><ele>196.0</ele><time>2026-05-01T15:56:56.186Z</time></trkpt><trkpt lat="45.84261" lon="11.957275"><ele>196.0</ele><time>2026-05-01T15:56:57.186Z</time></trkpt><trkpt lat="45.8424767" lon="11.95736"><ele>195.33333333333331</ele><time>2026-05-01T15:56:58.186Z</time></trkpt><trkpt lat="45.8423517" lon="11.95748"><ele>194.66666666666669</ele><time>2026-05-01T15:56:59.187Z</time></trkpt><trkpt lat="45.8422333" lon="11.9576633"><ele>194.0</ele><time>2026-05-01T15:57:00.184Z</time></trkpt><trkpt lat="45.8421217" lon="11.9578733"><ele>194.0</ele><time>2026-05-01T15:57:01.185Z</time></trkpt><trkpt lat="45.8420067" lon="11.9580567"><ele>194.0</ele><time>2026-05-01T15:57:02.184Z</time></trkpt><trkpt lat="45.8418933" lon="11.95822"><ele>194.0</ele><time>2026-05-01T15:57:03.185Z</time></trkpt><trkpt lat="45.8417717" lon="11.9583733"><ele>192.0</ele><time>2026-05-01T15:57:04.184Z</time></trkpt><trkpt lat="45.8416383" lon="11.9585183"><ele>190.0</ele><time>2026-05-01T15:57:05.19Z</time></trkpt><trkpt lat="45.8415167" lon="11.9586533"><ele>188.0</ele><time>2026-05-01T15:57:06.186Z</time></trkpt><trkpt lat="45.8414083" lon="11.95878"><ele>188.0</ele><time>2026-05-01T15:57:07.265Z</time></trkpt><trkpt lat="45.84131" lon="11.9588867"><ele>188.0</ele><time>2026-05-01T15:57:08.183Z</time></trkpt><trkpt lat="45.84123" lon="11.9589883"><ele>188.0</ele><time>2026-05-01T15:57:09.186Z</time></trkpt><trkpt lat="45.8411617" lon="11.959095"><ele>188.0</ele><time>2026-05-01T15:57:10.185Z</time></trkpt><trkpt lat="45.8411117" lon="11.9592317"><ele>188.0</ele><time>2026-05-01T15:57:11.185Z</time></trkpt><trkpt lat="45.8410983" lon="11.9593883"><ele>188.0</ele><time>2026-05-01T15:57:12.184Z</time></trkpt><trkpt lat="45.841115" lon="11.9595583"><ele>188.0</ele><time>2026-05-01T15:57:13.185Z</time></trkpt><trkpt lat="45.84118" lon="11.9597283"><ele>188.0</ele><time>2026-05-01T15:57:14.185Z</time></trkpt><trkpt lat="45.8413033" lon="11.9599133"><ele>188.0</ele><time>2026-05-01T15:57:15.186Z</time></trkpt><trkpt lat="45.8414067" lon="11.9601183"><ele>188.0</ele><time>2026-05-01T15:57:16.189Z</time></trkpt><trkpt lat="45.8415017" lon="11.9603083"><ele>188.0</ele><time>2026-05-01T15:57:17.189Z</time></trkpt><trkpt lat="45.841575" lon="11.9604667"><ele>188.0</ele><time>2026-05-01T15:57:18.187Z</time></trkpt><trkpt lat="45.8416417" lon="11.9606017"><ele>188.0</ele><time>2026-05-01T15:57:19.184Z</time></trkpt><trkpt lat="45.8417083" lon="11.960715"><ele>188.0</ele><time>2026-05-01T15:57:20.186Z</time></trkpt><trkpt lat="45.841765" lon="11.9608383"><ele>188.0</ele><time>2026-05-01T15:57:21.185Z</time></trkpt><trkpt lat="45.8417967" lon="11.960995"><ele>188.0</ele><time>2026-05-01T15:57:22.184Z</time></trkpt><trkpt lat="45.8417933" lon="11.9611967"><ele>188.0</ele><time>2026-05-01T15:57:23.264Z</time></trkpt><trkpt lat="45.8417817" lon="11.9614367"><ele>186.66666666666666</ele><time>2026-05-01T15:57:24.188Z</time></trkpt><trkpt lat="45.84178" lon="11.9616933"><ele>185.33333333333334</ele><time>2026-05-01T15:57:25.184Z</time></trkpt><trkpt lat="45.8417717" lon="11.96196"><ele>184.0</ele><time>2026-05-01T15:57:26.187Z</time></trkpt><trkpt lat="45.8417667" lon="11.9622317"><ele>183.66666666666669</ele><time>2026-05-01T15:57:27.189Z</time></trkpt><trkpt lat="45.84176" lon="11.9624883"><ele>183.33333333333334</ele><time>2026-05-01T15:57:28.192Z</time></trkpt><trkpt lat="45.841755" lon="11.962735"><ele>183.0</ele><time>2026-05-01T15:57:29.185Z</time></trkpt><trkpt lat="45.8417483" lon="11.96296"><ele>182.66666666666666</ele><time>2026-05-01T15:57:30.187Z</time></trkpt><trkpt lat="45.8417533" lon="11.9631783"><ele>182.33333333333331</ele><time>2026-05-01T15:57:31.264Z</time></trkpt><trkpt lat="45.8417833" lon="11.9633983"><ele>182.0</ele><time>2026-05-01T15:57:32.186Z</time></trkpt><trkpt lat="45.84184" lon="11.963645"><ele>182.66666666666666</ele><time>2026-05-01T15:57:33.184Z</time></trkpt><trkpt lat="45.8419033" lon="11.96392"><ele>183.33333333333334</ele><time>2026-05-01T15:57:34.185Z</time></trkpt><trkpt lat="45.8419633" lon="11.9642033"><ele>184.0</ele><time>2026-05-01T15:57:35.183Z</time></trkpt><trkpt lat="45.8420183" lon="11.9644683"><ele>184.0</ele><time>2026-05-01T15:57:36.185Z</time></trkpt><trkpt lat="45.8420817" lon="11.9647167"><ele>184.0</ele><time>2026-05-01T15:57:37.189Z</time></trkpt><trkpt lat="45.8421433" lon="11.9649567"><ele>184.0</ele><time>2026-05-01T15:57:38.185Z</time></trkpt><trkpt lat="45.8422" lon="11.9651967"><ele>184.0</ele><time>2026-05-01T15:57:39.186Z</time></trkpt><trkpt lat="45.8422583" lon="11.9654283"><ele>184.0</ele><time>2026-05-01T15:57:40.185Z</time></trkpt><trkpt lat="45.842305" lon="11.9656383"><ele>184.0</ele><time>2026-05-01T15:57:41.186Z</time></trkpt><trkpt lat="45.842375" lon="11.96582"><ele>184.33333333333334</ele><time>2026-05-01T15:57:42.185Z</time></trkpt><trkpt lat="45.842465" lon="11.965985"><ele>184.66666666666666</ele><time>2026-05-01T15:57:43.184Z</time></trkpt><trkpt lat="45.8425733" lon="11.9661467"><ele>185.0</ele><time>2026-05-01T15:57:44.191Z</time></trkpt><trkpt lat="45.8426867" lon="11.9662867"><ele>186.25</ele><time>2026-05-01T15:57:45.184Z</time></trkpt><trkpt lat="45.84279" lon="11.9664217"><ele>187.5</ele><time>2026-05-01T15:57:46.187Z</time></trkpt><trkpt lat="45.8428717" lon="11.966545"><ele>188.75</ele><time>2026-05-01T15:57:47.184Z</time></trkpt><trkpt lat="45.8429167" lon="11.9666883"><ele>190.0</ele><time>2026-05-01T15:57:48.184Z</time></trkpt><trkpt lat="45.84294" lon="11.966845"><ele>190.0</ele><time>2026-05-01T15:57:49.184Z</time></trkpt><trkpt lat="45.8429317" lon="11.966995"><ele>190.0</ele><time>2026-05-01T15:57:50.188Z</time></trkpt><trkpt lat="45.8428683" lon="11.967145"><ele>190.0</ele><time>2026-05-01T15:57:51.185Z</time></trkpt><trkpt lat="45.8427883" lon="11.9672883"><ele>190.0</ele><time>2026-05-01T15:57:52.183Z</time></trkpt><trkpt lat="45.8427033" lon="11.9674567"><ele>189.33333333333334</ele><time>2026-05-01T15:57:53.187Z</time></trkpt><trkpt lat="45.8426433" lon="11.9676533"><ele>188.66666666666666</ele><time>2026-05-01T15:57:54.186Z</time></trkpt><trkpt lat="45.8426133" lon="11.9678833"><ele>188.0</ele><time>2026-05-01T15:57:55.185Z</time></trkpt><trkpt lat="45.8426133" lon="11.9681283"><ele>187.66666666666666</ele><time>2026-05-01T15:57:56.188Z</time></trkpt><trkpt lat="45.842605" lon="11.968355"><ele>187.33333333333334</ele><time>2026-05-01T15:57:57.185Z</time></trkpt><trkpt lat="45.8425833" lon="11.968565"><ele>187.0</ele><time>2026-05-01T15:57:58.186Z</time></trkpt><trkpt lat="45.842545" lon="11.96878"><ele>186.66666666666669</ele><time>2026-05-01T15:57:59.186Z</time></trkpt><trkpt lat="45.8424817" lon="11.969"><ele>186.33333333333334</ele><time>2026-05-01T15:58:00.187Z</time></trkpt><trkpt lat="45.8423883" lon="11.9692217"><ele>186.0</ele><time>2026-05-01T15:58:01.184Z</time></trkpt><trkpt lat="45.8422917" lon="11.9694317"><ele>185.5</ele><time>2026-05-01T15:58:02.185Z</time></trkpt><trkpt lat="45.8422033" lon="11.9696183"><ele>185.0</ele><time>2026-05-01T15:58:03.186Z</time></trkpt><trkpt lat="45.8421383" lon="11.9697883"><ele>184.5</ele><time>2026-05-01T15:58:04.185Z</time></trkpt><trkpt lat="45.8420767" lon="11.96994"><ele>184.0</ele><time>2026-05-01T15:58:05.183Z</time></trkpt><trkpt lat="45.8420033" lon="11.9700733"><ele>184.0</ele><time>2026-05-01T15:58:06.188Z</time></trkpt><trkpt lat="45.8418983" lon="11.97017"><ele>184.0</ele><time>2026-05-01T15:58:07.185Z</time></trkpt><trkpt lat="45.8417817" lon="11.97024"><ele>184.0</ele><time>2026-05-01T15:58:08.187Z</time></trkpt><trkpt lat="45.8416733" lon="11.9702767"><ele>184.0</ele><time>2026-05-01T15:58:09.185Z</time></trkpt><trkpt lat="45.8415717" lon="11.9703183"><ele>184.79999999999998</ele><time>2026-05-01T15:58:10.184Z</time></trkpt><trkpt lat="45.84147" lon="11.9703533"><ele>185.6</ele><time>2026-05-01T15:58:11.186Z</time></trkpt><trkpt lat="45.841375" lon="11.9703967"><ele>186.4</ele><time>2026-05-01T15:58:12.183Z</time></trkpt><trkpt lat="45.841285" lon="11.97044"><ele>187.2</ele><time>2026-05-01T15:58:13.185Z</time></trkpt><trkpt lat="45.8412017" lon="11.9704667"><ele>188.0</ele><time>2026-05-01T15:58:14.185Z</time></trkpt><trkpt lat="45.841135" lon="11.9704917"><ele>188.0</ele><time>2026-05-01T15:58:15.19Z</time></trkpt><trkpt lat="45.8410733" lon="11.9705233"><ele>188.0</ele><time>2026-05-01T15:58:16.187Z</time></trkpt><trkpt lat="45.841" lon="11.9705583"><ele>188.0</ele><time>2026-05-01T15:58:17.186Z</time></trkpt><trkpt lat="45.840925" lon="11.9705883"><ele>188.0</ele><time>2026-05-01T15:58:18.187Z</time></trkpt><trkpt lat="45.84085" lon="11.970635"><ele>188.0</ele><time>2026-05-01T15:58:19.184Z</time></trkpt><trkpt lat="45.8407833" lon="11.9707"><ele>188.0</ele><time>2026-05-01T15:58:20.184Z</time></trkpt><trkpt lat="45.8407317" lon="11.9707967"><ele>188.25</ele><time>2026-05-01T15:58:21.184Z</time></trkpt><trkpt lat="45.8406967" lon="11.9709333"><ele>188.5</ele><time>2026-05-01T15:58:22.184Z</time></trkpt><trkpt lat="45.8406883" lon="11.9711167"><ele>188.75</ele><time>2026-05-01T15:58:23.184Z</time></trkpt><trkpt lat="45.8406983" lon="11.971305"><ele>189.0</ele><time>2026-05-01T15:58:24.186Z</time></trkpt><trkpt lat="45.8407217" lon="11.9714933"><ele>189.66666666666666</ele><time>2026-05-01T15:58:25.19Z</time></trkpt><trkpt lat="45.84075" lon="11.9717"><ele>190.33333333333331</ele><time>2026-05-01T15:58:26.189Z</time></trkpt><trkpt lat="45.8407767" lon="11.9719267"><ele>191.0</ele><time>2026-05-01T15:58:27.188Z</time></trkpt><trkpt lat="45.8408083" lon="11.9721733"><ele>191.0</ele><time>2026-05-01T15:58:28.269Z</time></trkpt><trkpt lat="45.8408367" lon="11.9724267"><ele>191.0</ele><time>2026-05-01T15:58:29.187Z</time></trkpt><trkpt lat="45.840865" lon="11.9726817"><ele>191.0</ele><time>2026-05-01T15:58:30.187Z</time></trkpt><trkpt lat="45.8409" lon="11.9729433"><ele>191.0</ele><time>2026-05-01T15:58:31.185Z</time></trkpt><trkpt lat="45.8409317" lon="11.9732133"><ele>191.0</ele><time>2026-05-01T15:58:32.183Z</time></trkpt><trkpt lat="45.8409583" lon="11.9734867"><ele>191.0</ele><time>2026-05-01T15:58:33.184Z</time></trkpt><trkpt lat="45.8409883" lon="11.9737433"><ele>187.33333333333331</ele><time>2026-05-01T15:58:34.185Z</time></trkpt><trkpt lat="45.8410217" lon="11.973985"><ele>183.66666666666666</ele><time>2026-05-01T15:58:35.187Z</time></trkpt><trkpt lat="45.8410567" lon="11.9742183"><ele>180.0</ele><time>2026-05-01T15:58:36.185Z</time></trkpt><trkpt lat="45.8410883" lon="11.9744517"><ele>180.0</ele><time>2026-05-01T15:58:37.185Z</time></trkpt><trkpt lat="45.841115" lon="11.97469"><ele>180.0</ele><time>2026-05-01T15:58:38.191Z</time></trkpt><trkpt lat="45.84115" lon="11.97493"><ele>180.0</ele><time>2026-05-01T15:58:39.186Z</time></trkpt><trkpt lat="45.8411967" lon="11.97517"><ele>180.66666666666666</ele><time>2026-05-01T15:58:40.187Z</time></trkpt><trkpt lat="45.84127" lon="11.975405"><ele>181.33333333333331</ele><time>2026-05-01T15:58:41.184Z</time></trkpt><trkpt lat="45.8413633" lon="11.9756233"><ele>182.0</ele><time>2026-05-01T15:58:42.187Z</time></trkpt><trkpt lat="45.8414633" lon="11.9758133"><ele>182.5</ele><time>2026-05-01T15:58:43.183Z</time></trkpt><trkpt lat="45.84155" lon="11.975995"><ele>183.0</ele><time>2026-05-01T15:58:44.184Z</time></trkpt><trkpt lat="45.8416317" lon="11.9761733"><ele>183.5</ele><time>2026-05-01T15:58:45.185Z</time></trkpt><trkpt lat="45.84171" lon="11.97634"><ele>184.0</ele><time>2026-05-01T15:58:46.186Z</time></trkpt><trkpt lat="45.8417833" lon="11.976505"><ele>182.0</ele><time>2026-05-01T15:58:47.185Z</time></trkpt><trkpt lat="45.8418417" lon="11.9766883"><ele>180.0</ele><time>2026-05-01T15:58:48.184Z</time></trkpt><trkpt lat="45.8418717" lon="11.9768967"><ele>178.0</ele><time>2026-05-01T15:58:49.189Z</time></trkpt><trkpt lat="45.8418767" lon="11.977125"><ele>176.0</ele><time>2026-05-01T15:58:50.187Z</time></trkpt><trkpt lat="45.8418717" lon="11.9773483"><ele>176.5</ele><time>2026-05-01T15:58:51.185Z</time></trkpt><trkpt lat="45.84187" lon="11.9775567"><ele>177.0</ele><time>2026-05-01T15:58:52.184Z</time></trkpt><trkpt lat="45.8418733" lon="11.9777483"><ele>177.5</ele><time>2026-05-01T15:58:53.183Z</time></trkpt><trkpt lat="45.84188" lon="11.9779333"><ele>178.0</ele><time>2026-05-01T15:58:54.184Z</time></trkpt><trkpt lat="45.8418983" lon="11.9781217"><ele>178.0</ele><time>2026-05-01T15:58:55.184Z</time></trkpt><trkpt lat="45.8419467" lon="11.978315"><ele>178.0</ele><time>2026-05-01T15:58:56.186Z</time></trkpt><trkpt lat="45.84202" lon="11.9785167"><ele>178.0</ele><time>2026-05-01T15:58:57.188Z</time></trkpt><trkpt lat="45.8421017" lon="11.9787283"><ele>178.66666666666669</ele><time>2026-05-01T15:58:58.185Z</time></trkpt><trkpt lat="45.8421783" lon="11.9789517"><ele>179.33333333333334</ele><time>2026-05-01T15:58:59.186Z</time></trkpt><trkpt lat="45.842255" lon="11.9791767"><ele>180.0</ele><time>2026-05-01T15:59:00.188Z</time></trkpt><trkpt lat="45.8423267" lon="11.979405"><ele>182.33333333333334</ele><time>2026-05-01T15:59:01.275Z</time></trkpt><trkpt lat="45.8424" lon="11.9796383"><ele>184.66666666666669</ele><time>2026-05-01T15:59:02.183Z</time></trkpt><trkpt lat="45.8424783" lon="11.9798833"><ele>187.0</ele><time>2026-05-01T15:59:03.188Z</time></trkpt><trkpt lat="45.842555" lon="11.9801383"><ele>184.0</ele><time>2026-05-01T15:59:04.186Z</time></trkpt><trkpt lat="45.8426367" lon="11.9803983"><ele>181.0</ele><time>2026-05-01T15:59:05.188Z</time></trkpt><trkpt lat="45.8427283" lon="11.9806333"><ele>178.0</ele><time>2026-05-01T15:59:06.188Z</time></trkpt><trkpt lat="45.8428183" lon="11.9808533"><ele>178.0</ele><time>2026-05-01T15:59:07.189Z</time></trkpt><trkpt lat="45.8428967" lon="11.9810783"><ele>178.0</ele><time>2026-05-01T15:59:08.184Z</time></trkpt><trkpt lat="45.8429733" lon="11.9813117"><ele>178.0</ele><time>2026-05-01T15:59:09.186Z</time></trkpt><trkpt lat="45.8430333" lon="11.9815767"><ele>178.33333333333334</ele><time>2026-05-01T15:59:10.186Z</time></trkpt><trkpt lat="45.84309" lon="11.98185"><ele>178.66666666666666</ele><time>2026-05-01T15:59:11.183Z</time></trkpt><trkpt lat="45.843135" lon="11.9821117"><ele>179.0</ele><time>2026-05-01T15:59:12.186Z</time></trkpt><trkpt lat="45.84317" lon="11.9823583"><ele>180.66666666666666</ele><time>2026-05-01T15:59:13.185Z</time></trkpt><trkpt lat="45.8432" lon="11.982595"><ele>182.33333333333334</ele><time>2026-05-01T15:59:14.19Z</time></trkpt><trkpt lat="45.84323" lon="11.98282"><ele>184.0</ele><time>2026-05-01T15:59:15.186Z</time></trkpt><trkpt lat="45.84326" lon="11.9830333"><ele>184.0</ele><time>2026-05-01T15:59:16.185Z</time></trkpt><trkpt lat="45.84328" lon="11.9832517"><ele>184.0</ele><time>2026-05-01T15:59:17.188Z</time></trkpt><trkpt lat="45.8432767" lon="11.983485"><ele>184.0</ele><time>2026-05-01T15:59:18.186Z</time></trkpt><trkpt lat="45.8432533" lon="11.983735"><ele>183.33333333333334</ele><time>2026-05-01T15:59:19.191Z</time></trkpt><trkpt lat="45.8432183" lon="11.983995"><ele>182.66666666666666</ele><time>2026-05-01T15:59:20.185Z</time></trkpt><trkpt lat="45.8431833" lon="11.9842617"><ele>182.0</ele><time>2026-05-01T15:59:21.186Z</time></trkpt><trkpt lat="45.84317" lon="11.9845317"><ele>182.0</ele><time>2026-05-01T15:59:22.184Z</time></trkpt><trkpt lat="45.8431567" lon="11.9847933"><ele>182.0</ele><time>2026-05-01T15:59:23.184Z</time></trkpt><trkpt lat="45.84314" lon="11.9850383"><ele>182.0</ele><time>2026-05-01T15:59:24.187Z</time></trkpt><trkpt lat="45.843125" lon="11.98528"><ele>179.66666666666666</ele><time>2026-05-01T15:59:25.184Z</time></trkpt><trkpt lat="45.8431133" lon="11.9855267"><ele>177.33333333333334</ele><time>2026-05-01T15:59:26.19Z</time></trkpt><trkpt lat="45.8431033" lon="11.9857667"><ele>175.0</ele><time>2026-05-01T15:59:27.186Z</time></trkpt><trkpt lat="45.8430867" lon="11.9859967"><ele>174.33333333333334</ele><time>2026-05-01T15:59:28.188Z</time></trkpt><trkpt lat="45.8430633" lon="11.986225"><ele>173.66666666666666</ele><time>2026-05-01T15:59:29.187Z</time></trkpt><trkpt lat="45.8430433" lon="11.9864483"><ele>173.0</ele><time>2026-05-01T15:59:30.185Z</time></trkpt><trkpt lat="45.84302" lon="11.98666"><ele>173.5</ele><time>2026-05-01T15:59:31.186Z</time></trkpt><trkpt lat="45.8430033" lon="11.9868633"><ele>174.0</ele><time>2026-05-01T15:59:32.186Z</time></trkpt><trkpt lat="45.8429833" lon="11.98706"><ele>174.5</ele><time>2026-05-01T15:59:33.185Z</time></trkpt><trkpt lat="45.8429583" lon="11.9872467"><ele>175.0</ele><time>2026-05-01T15:59:34.183Z</time></trkpt><trkpt lat="45.84295" lon="11.9874367"><ele>175.0</ele><time>2026-05-01T15:59:35.184Z</time></trkpt><trkpt lat="45.8429783" lon="11.9876333"><ele>175.0</ele><time>2026-05-01T15:59:36.184Z</time></trkpt><trkpt lat="45.8430317" lon="11.9878317"><ele>175.0</ele><time>2026-05-01T15:59:37.184Z</time></trkpt><trkpt lat="45.84308" lon="11.9880283"><ele>175.0</ele><time>2026-05-01T15:59:38.184Z</time></trkpt><trkpt lat="45.84312" lon="11.988225"><ele>175.75</ele><time>2026-05-01T15:59:39.186Z</time></trkpt><trkpt lat="45.8431583" lon="11.9884017"><ele>176.5</ele><time>2026-05-01T15:59:40.183Z</time></trkpt><trkpt lat="45.8431933" lon="11.9885767"><ele>177.25</ele><time>2026-05-01T15:59:41.185Z</time></trkpt><trkpt lat="45.8432183" lon="11.988755"><ele>178.0</ele><time>2026-05-01T15:59:42.187Z</time></trkpt><trkpt lat="45.843225" lon="11.9889267"><ele>178.0</ele><time>2026-05-01T15:59:43.186Z</time></trkpt><trkpt lat="45.8432233" lon="11.9890817"><ele>178.0</ele><time>2026-05-01T15:59:44.186Z</time></trkpt><trkpt lat="45.84321" lon="11.98921"><ele>178.0</ele><time>2026-05-01T15:59:45.186Z</time></trkpt><trkpt lat="45.843195" lon="11.989315"><ele>178.0</ele><time>2026-05-01T15:59:46.187Z</time></trkpt><trkpt lat="45.843155" lon="11.9894183"><ele>178.0</ele><time>2026-05-01T15:59:47.182Z</time></trkpt><trkpt lat="45.84308" lon="11.9895217"><ele>180.25</ele><time>2026-05-01T15:59:48.188Z</time></trkpt><trkpt lat="45.8429817" lon="11.9896167"><ele>182.5</ele><time>2026-05-01T15:59:49.189Z</time></trkpt><trkpt lat="45.8428733" lon="11.9897133"><ele>184.75</ele><time>2026-05-01T15:59:50.184Z</time></trkpt><trkpt lat="45.84277" lon="11.9898217"><ele>187.0</ele><time>2026-05-01T15:59:51.191Z</time></trkpt><trkpt lat="45.84267" lon="11.9899267"><ele>185.25</ele><time>2026-05-01T15:59:52.186Z</time></trkpt><trkpt lat="45.84258" lon="11.9900283"><ele>183.5</ele><time>2026-05-01T15:59:53.187Z</time></trkpt><trkpt lat="45.84249" lon="11.99013"><ele>181.75</ele><time>2026-05-01T15:59:54.186Z</time></trkpt><trkpt lat="45.8424" lon="11.9902333"><ele>180.0</ele><time>2026-05-01T15:59:55.184Z</time></trkpt><trkpt lat="45.8422983" lon="11.990335"><ele>180.0</ele><time>2026-05-01T15:59:56.185Z</time></trkpt><trkpt lat="45.8421933" lon="11.9904417"><ele>180.0</ele><time>2026-05-01T15:59:57.186Z</time></trkpt><trkpt lat="45.842085" lon="11.9905517"><ele>180.0</ele><time>2026-05-01T15:59:58.265Z</time></trkpt><trkpt lat="45.841975" lon="11.990655"><ele>180.0</ele><time>2026-05-01T15:59:59.185Z</time></trkpt><trkpt lat="45.8418667" lon="11.9907733"><ele>179.33333333333334</ele><time>2026-05-01T16:00:00.185Z</time></trkpt><trkpt lat="45.841755" lon="11.9909017"><ele>178.66666666666669</ele><time>2026-05-01T16:00:01.185Z</time></trkpt><trkpt lat="45.841635" lon="11.9910367"><ele>178.0</ele><time>2026-05-01T16:00:02.187Z</time></trkpt><trkpt lat="45.841505" lon="11.9911833"><ele>178.0</ele><time>2026-05-01T16:00:03.188Z</time></trkpt><trkpt lat="45.84137" lon="11.9913267"><ele>178.0</ele><time>2026-05-01T16:00:04.184Z</time></trkpt><trkpt lat="45.8412333" lon="11.9914633"><ele>178.0</ele><time>2026-05-01T16:00:05.184Z</time></trkpt><trkpt lat="45.8410967" lon="11.9915983"><ele>179.33333333333334</ele><time>2026-05-01T16:00:06.185Z</time></trkpt><trkpt lat="45.840945" lon="11.9917233"><ele>180.66666666666666</ele><time>2026-05-01T16:00:07.19Z</time></trkpt><trkpt lat="45.8407817" lon="11.9918317"><ele>182.0</ele><time>2026-05-01T16:00:08.184Z</time></trkpt><trkpt lat="45.8406183" lon="11.9919183"><ele>182.0</ele><time>2026-05-01T16:00:09.184Z</time></trkpt><trkpt lat="45.84046" lon="11.9919883"><ele>182.0</ele><time>2026-05-01T16:00:10.188Z</time></trkpt><trkpt lat="45.8403017" lon="11.9920517"><ele>182.0</ele><time>2026-05-01T16:00:11.186Z</time></trkpt><trkpt lat="45.8401433" lon="11.9921283"><ele>182.5</ele><time>2026-05-01T16:00:12.189Z</time></trkpt><trkpt lat="45.8399917" lon="11.9921967"><ele>183.0</ele><time>2026-05-01T16:00:13.186Z</time></trkpt><trkpt lat="45.83985" lon="11.992255"><ele>183.5</ele><time>2026-05-01T16:00:14.184Z</time></trkpt><trkpt lat="45.8397183" lon="11.9923067"><ele>184.0</ele><time>2026-05-01T16:00:15.185Z</time></trkpt><trkpt lat="45.8395867" lon="11.9923717"><ele>184.0</ele><time>2026-05-01T16:00:16.182Z</time></trkpt><trkpt lat="45.8394517" lon="11.992445"><ele>184.0</ele><time>2026-05-01T16:00:17.184Z</time></trkpt><trkpt lat="45.8393117" lon="11.992535"><ele>184.0</ele><time>2026-05-01T16:00:18.193Z</time></trkpt><trkpt lat="45.83918" lon="11.9926283"><ele>184.0</ele><time>2026-05-01T16:00:19.185Z</time></trkpt><trkpt lat="45.839055" lon="11.9927183"><ele>183.5</ele><time>2026-05-01T16:00:20.187Z</time></trkpt><trkpt lat="45.83893" lon="11.9928117"><ele>183.0</ele><time>2026-05-01T16:00:21.187Z</time></trkpt><trkpt lat="45.8388017" lon="11.9929017"><ele>182.5</ele><time>2026-05-01T16:00:22.186Z</time></trkpt><trkpt lat="45.8386717" lon="11.9929967"><ele>182.0</ele><time>2026-05-01T16:00:23.185Z</time></trkpt><trkpt lat="45.838545" lon="11.9930983"><ele>183.25</ele><time>2026-05-01T16:00:24.185Z</time></trkpt><trkpt lat="45.8384183" lon="11.99318"><ele>184.5</ele><time>2026-05-01T16:00:25.184Z</time></trkpt><trkpt lat="45.83829" lon="11.9932333"><ele>185.75</ele><time>2026-05-01T16:00:26.187Z</time></trkpt><trkpt lat="45.8381583" lon="11.993285"><ele>187.0</ele><time>2026-05-01T16:00:27.187Z</time></trkpt><trkpt lat="45.8380267" lon="11.9933217"><ele>185.75</ele><time>2026-05-01T16:00:28.184Z</time></trkpt><trkpt lat="45.8379033" lon="11.9933483"><ele>184.5</ele><time>2026-05-01T16:00:29.188Z</time></trkpt><trkpt lat="45.83779" lon="11.9933733"><ele>183.25</ele><time>2026-05-01T16:00:30.185Z</time></trkpt><trkpt lat="45.8376767" lon="11.9933933"><ele>182.0</ele><time>2026-05-01T16:00:31.189Z</time></trkpt><trkpt lat="45.8375667" lon="11.9934083"><ele>182.0</ele><time>2026-05-01T16:00:32.185Z</time></trkpt><trkpt lat="45.8374633" lon="11.9934133"><ele>182.0</ele><time>2026-05-01T16:00:33.184Z</time></trkpt><trkpt lat="45.8373667" lon="11.99342"><ele>182.0</ele><time>2026-05-01T16:00:34.185Z</time></trkpt><trkpt lat="45.83727" lon="11.9934333"><ele>182.0</ele><time>2026-05-01T16:00:35.184Z</time></trkpt><trkpt lat="45.8371617" lon="11.9934517"><ele>182.0</ele><time>2026-05-01T16:00:36.184Z</time></trkpt><trkpt lat="45.837045" lon="11.9934633"><ele>182.0</ele><time>2026-05-01T16:00:37.184Z</time></trkpt><trkpt lat="45.8369167" lon="11.9934767"><ele>182.0</ele><time>2026-05-01T16:00:38.19Z</time></trkpt><trkpt lat="45.836785" lon="11.99348"><ele>182.0</ele><time>2026-05-01T16:00:39.189Z</time></trkpt><trkpt lat="45.8366517" lon="11.9934917"><ele>182.0</ele><time>2026-05-01T16:00:40.185Z</time></trkpt><trkpt lat="45.8365183" lon="11.9935017"><ele>181.75</ele><time>2026-05-01T16:00:41.188Z</time></trkpt><trkpt lat="45.8363917" lon="11.993525"><ele>181.5</ele><time>2026-05-01T16:00:42.189Z</time></trkpt><trkpt lat="45.8362733" lon="11.9935617"><ele>181.25</ele><time>2026-05-01T16:00:43.186Z</time></trkpt><trkpt lat="45.836155" lon="11.9936517"><ele>181.0</ele><time>2026-05-01T16:00:44.186Z</time></trkpt><trkpt lat="45.8360367" lon="11.9937717"><ele>180.75</ele><time>2026-05-01T16:00:45.184Z</time></trkpt><trkpt lat="45.8359167" lon="11.9939"><ele>180.5</ele><time>2026-05-01T16:00:46.186Z</time></trkpt><trkpt lat="45.8357983" lon="11.9940283"><ele>180.25</ele><time>2026-05-01T16:00:47.186Z</time></trkpt><trkpt lat="45.8356767" lon="11.994155"><ele>180.0</ele><time>2026-05-01T16:00:48.186Z</time></trkpt><trkpt lat="45.8355533" lon="11.9942767"><ele>180.0</ele><time>2026-05-01T16:00:49.184Z</time></trkpt><trkpt lat="45.83543" lon="11.9943933"><ele>180.0</ele><time>2026-05-01T16:00:50.187Z</time></trkpt><trkpt lat="45.8353133" lon="11.9945117"><ele>180.0</ele><time>2026-05-01T16:00:51.185Z</time></trkpt><trkpt lat="45.8352083" lon="11.99463"><ele>180.0</ele><time>2026-05-01T16:00:52.187Z</time></trkpt><trkpt lat="45.8351" lon="11.9947517"><ele>179.66666666666666</ele><time>2026-05-01T16:00:53.187Z</time></trkpt><trkpt lat="45.8349883" lon="11.99489"><ele>179.33333333333331</ele><time>2026-05-01T16:00:54.186Z</time></trkpt><trkpt lat="45.834885" lon="11.9950417"><ele>179.0</ele><time>2026-05-01T16:00:55.186Z</time></trkpt><trkpt lat="45.8347717" lon="11.9952033"><ele>179.0</ele><time>2026-05-01T16:00:56.184Z</time></trkpt><trkpt lat="45.834665" lon="11.9953533"><ele>179.0</ele><time>2026-05-01T16:00:57.186Z</time></trkpt><trkpt lat="45.8345617" lon="11.99549"><ele>179.0</ele><time>2026-05-01T16:00:58.187Z</time></trkpt><trkpt lat="45.8344633" lon="11.9956283"><ele>179.0</ele><time>2026-05-01T16:00:59.183Z</time></trkpt><trkpt lat="45.83437" lon="11.9957733"><ele>179.75</ele><time>2026-05-01T16:01:00.184Z</time></trkpt><trkpt lat="45.834275" lon="11.9959233"><ele>180.5</ele><time>2026-05-01T16:01:01.184Z</time></trkpt><trkpt lat="45.834165" lon="11.99607"><ele>181.25</ele><time>2026-05-01T16:01:02.184Z</time></trkpt><trkpt lat="45.83405" lon="11.9962117"><ele>182.0</ele><time>2026-05-01T16:01:03.184Z</time></trkpt><trkpt lat="45.8339433" lon="11.9963533"><ele>182.0</ele><time>2026-05-01T16:01:04.188Z</time></trkpt><trkpt lat="45.83385" lon="11.99651"><ele>182.0</ele><time>2026-05-01T16:01:05.184Z</time></trkpt><trkpt lat="45.8337667" lon="11.996675"><ele>182.0</ele><time>2026-05-01T16:01:06.187Z</time></trkpt><trkpt lat="45.8336983" lon="11.9968567"><ele>182.0</ele><time>2026-05-01T16:01:07.186Z</time></trkpt><trkpt lat="45.8336367" lon="11.99704"><ele>181.25</ele><time>2026-05-01T16:01:08.184Z</time></trkpt><trkpt lat="45.833585" lon="11.99723"><ele>180.5</ele><time>2026-05-01T16:01:09.187Z</time></trkpt><trkpt lat="45.8335467" lon="11.9974317"><ele>179.75</ele><time>2026-05-01T16:01:10.184Z</time></trkpt><trkpt lat="45.8335183" lon="11.997645"><ele>179.0</ele><time>2026-05-01T16:01:11.187Z</time></trkpt><trkpt lat="45.8334967" lon="11.9978467"><ele>178.25</ele><time>2026-05-01T16:01:12.186Z</time></trkpt><trkpt lat="45.833495" lon="11.99803"><ele>177.5</ele><time>2026-05-01T16:01:13.185Z</time></trkpt><trkpt lat="45.8334983" lon="11.9982017"><ele>176.75</ele><time>2026-05-01T16:01:14.184Z</time></trkpt><trkpt lat="45.83351" lon="11.9983717"><ele>176.0</ele><time>2026-05-01T16:01:15.187Z</time></trkpt><trkpt lat="45.8335333" lon="11.998535"><ele>175.8</ele><time>2026-05-01T16:01:16.189Z</time></trkpt><trkpt lat="45.83355" lon="11.9986917"><ele>175.60000000000002</ele><time>2026-05-01T16:01:17.186Z</time></trkpt><trkpt lat="45.8335617" lon="11.998845"><ele>175.4</ele><time>2026-05-01T16:01:18.189Z</time></trkpt><trkpt lat="45.833575" lon="11.9989983"><ele>175.2</ele><time>2026-05-01T16:01:19.184Z</time></trkpt><trkpt lat="45.8335883" lon="11.9991483"><ele>175.0</ele><time>2026-05-01T16:01:20.186Z</time></trkpt><trkpt lat="45.833595" lon="11.9992883"><ele>175.0</ele><time>2026-05-01T16:01:21.185Z</time></trkpt><trkpt lat="45.833605" lon="11.9994233"><ele>175.0</ele><time>2026-05-01T16:01:22.19Z</time></trkpt><trkpt lat="45.8336167" lon="11.999555"><ele>175.0</ele><time>2026-05-01T16:01:23.186Z</time></trkpt><trkpt lat="45.8336317" lon="11.9996783"><ele>175.0</ele><time>2026-05-01T16:01:24.191Z</time></trkpt><trkpt lat="45.8336417" lon="11.9998067"><ele>175.0</ele><time>2026-05-01T16:01:25.187Z</time></trkpt><trkpt lat="45.8336483" lon="11.9999617"><ele>175.0</ele><time>2026-05-01T16:01:26.189Z</time></trkpt><trkpt lat="45.8336633" lon="12.0001383"><ele>175.0</ele><time>2026-05-01T16:01:27.188Z</time></trkpt><trkpt lat="45.8336767" lon="12.000325"><ele>175.0</ele><time>2026-05-01T16:01:28.185Z</time></trkpt><trkpt lat="45.8336917" lon="12.00052"><ele>175.0</ele><time>2026-05-01T16:01:29.188Z</time></trkpt><trkpt lat="45.8337167" lon="12.000725"><ele>174.75</ele><time>2026-05-01T16:01:30.19Z</time></trkpt><trkpt lat="45.8337433" lon="12.0009317"><ele>174.5</ele><time>2026-05-01T16:01:31.183Z</time></trkpt><trkpt lat="45.8337617" lon="12.001125"><ele>174.25</ele><time>2026-05-01T16:01:32.185Z</time></trkpt><trkpt lat="45.83378" lon="12.0013033"><ele>174.0</ele><time>2026-05-01T16:01:33.188Z</time></trkpt><trkpt lat="45.8337883" lon="12.00148"><ele>174.0</ele><time>2026-05-01T16:01:34.186Z</time></trkpt><trkpt lat="45.833805" lon="12.0016583"><ele>174.0</ele><time>2026-05-01T16:01:35.186Z</time></trkpt><trkpt lat="45.8338133" lon="12.001835"><ele>174.0</ele><time>2026-05-01T16:01:36.186Z</time></trkpt><trkpt lat="45.8338067" lon="12.002015"><ele>174.0</ele><time>2026-05-01T16:01:37.185Z</time></trkpt><trkpt lat="45.8337767" lon="12.0021933"><ele>173.25</ele><time>2026-05-01T16:01:38.184Z</time></trkpt><trkpt lat="45.833735" lon="12.0023633"><ele>172.5</ele><time>2026-05-01T16:01:39.185Z</time></trkpt><trkpt lat="45.8336817" lon="12.0025183"><ele>171.75</ele><time>2026-05-01T16:01:40.192Z</time></trkpt><trkpt lat="45.8336217" lon="12.0026683"><ele>171.0</ele><time>2026-05-01T16:01:41.183Z</time></trkpt><trkpt lat="45.833555" lon="12.0028133"><ele>170.8</ele><time>2026-05-01T16:01:42.187Z</time></trkpt><trkpt lat="45.83348" lon="12.0029517"><ele>170.60000000000002</ele><time>2026-05-01T16:01:43.187Z</time></trkpt><trkpt lat="45.8334017" lon="12.0030717"><ele>170.4</ele><time>2026-05-01T16:01:44.185Z</time></trkpt><trkpt lat="45.8333233" lon="12.003175"><ele>170.2</ele><time>2026-05-01T16:01:45.187Z</time></trkpt><trkpt lat="45.8332483" lon="12.00327"><ele>170.0</ele><time>2026-05-01T16:01:46.186Z</time></trkpt><trkpt lat="45.83318" lon="12.0033667"><ele>170.0</ele><time>2026-05-01T16:01:47.183Z</time></trkpt><trkpt lat="45.833105" lon="12.0034617"><ele>170.0</ele><time>2026-05-01T16:01:48.188Z</time></trkpt><trkpt lat="45.8330267" lon="12.003545"><ele>170.0</ele><time>2026-05-01T16:01:49.185Z</time></trkpt><trkpt lat="45.8329533" lon="12.0036183"><ele>170.0</ele><time>2026-05-01T16:01:50.19Z</time></trkpt><trkpt lat="45.8328867" lon="12.0036817"><ele>170.0</ele><time>2026-05-01T16:01:51.187Z</time></trkpt><trkpt lat="45.832825" lon="12.0037383"><ele>170.0</ele><time>2026-05-01T16:01:52.187Z</time></trkpt><trkpt lat="45.8327667" lon="12.0037817"><ele>170.0</ele><time>2026-05-01T16:01:53.185Z</time></trkpt><trkpt lat="45.8327083" lon="12.00382"><ele>170.0</ele><time>2026-05-01T16:01:54.186Z</time></trkpt><trkpt lat="45.8326433" lon="12.0038667"><ele>170.0</ele><time>2026-05-01T16:01:55.186Z</time></trkpt><trkpt lat="45.8325717" lon="12.0039183"><ele>170.0</ele><time>2026-05-01T16:01:56.184Z</time></trkpt><trkpt lat="45.8324983" lon="12.0039667"><ele>170.0</ele><time>2026-05-01T16:01:57.185Z</time></trkpt><trkpt lat="45.8324183" lon="12.0040233"><ele>170.0</ele><time>2026-05-01T16:01:58.185Z</time></trkpt><trkpt lat="45.8323367" lon="12.0040833"><ele>169.66666666666666</ele><time>2026-05-01T16:01:59.184Z</time></trkpt><trkpt lat="45.8322533" lon="12.0041383"><ele>169.33333333333331</ele><time>2026-05-01T16:02:00.186Z</time></trkpt><trkpt lat="45.8321767" lon="12.0042033"><ele>169.0</ele><time>2026-05-01T16:02:01.186Z</time></trkpt><trkpt lat="45.832105" lon="12.004265"><ele>168.66666666666666</ele><time>2026-05-01T16:02:02.187Z</time></trkpt><trkpt lat="45.8320367" lon="12.0043183"><ele>168.33333333333334</ele><time>2026-05-01T16:02:03.188Z</time></trkpt><trkpt lat="45.831975" lon="12.0043767"><ele>168.0</ele><time>2026-05-01T16:02:04.188Z</time></trkpt><trkpt lat="45.8319167" lon="12.0044217"><ele>167.83333333333334</ele><time>2026-05-01T16:02:05.188Z</time></trkpt><trkpt lat="45.8318217" lon="12.00449"><ele>167.66666666666666</ele><time>2026-05-01T16:02:07.189Z</time></trkpt><trkpt lat="45.831745" lon="12.0045383"><ele>167.5</ele><time>2026-05-01T16:02:09.187Z</time></trkpt><trkpt lat="45.83168" lon="12.0045867"><ele>167.33333333333331</ele><time>2026-05-01T16:02:11.185Z</time></trkpt><trkpt lat="45.83161" lon="12.0046383"><ele>167.16666666666666</ele><time>2026-05-01T16:02:13.186Z</time></trkpt><trkpt lat="45.8315217" lon="12.0047067"><ele>167.0</ele><time>2026-05-01T16:02:15.188Z</time></trkpt><trkpt lat="45.83144" lon="12.0047717"><ele>167.0</ele><time>2026-05-01T16:02:17.183Z</time></trkpt><trkpt lat="45.83134" lon="12.0048467"><ele>167.0</ele><time>2026-05-01T16:02:19.267Z</time></trkpt><trkpt lat="45.8312817" lon="12.004895"><ele>167.0</ele><time>2026-05-01T16:02:20.185Z</time></trkpt><trkpt lat="45.8312133" lon="12.00494"><ele>167.0</ele><time>2026-05-01T16:02:21.188Z</time></trkpt><trkpt lat="45.8311467" lon="12.00499"><ele>167.0</ele><time>2026-05-01T16:02:22.188Z</time></trkpt><trkpt lat="45.8310767" lon="12.0050467"><ele>167.0</ele><time>2026-05-01T16:02:23.184Z</time></trkpt><trkpt lat="45.8310067" lon="12.0051083"><ele>166.8</ele><time>2026-05-01T16:02:24.186Z</time></trkpt><trkpt lat="45.8309317" lon="12.0051667"><ele>166.6</ele><time>2026-05-01T16:02:25.187Z</time></trkpt><trkpt lat="45.8308633" lon="12.0052267"><ele>166.4</ele><time>2026-05-01T16:02:26.185Z</time></trkpt><trkpt lat="45.8308033" lon="12.0052783"><ele>166.20000000000002</ele><time>2026-05-01T16:02:27.184Z</time></trkpt><trkpt lat="45.8307417" lon="12.0054017"><ele>166.0</ele><time>2026-05-01T16:02:29.186Z</time></trkpt><trkpt lat="45.83078" lon="12.0055817"><ele>166.0</ele><time>2026-05-01T16:02:31.185Z</time></trkpt><trkpt lat="45.83082" lon="12.00569"><ele>166.0</ele><time>2026-05-01T16:02:32.187Z</time></trkpt><trkpt lat="45.8308933" lon="12.0058233"><ele>166.0</ele><time>2026-05-01T16:02:33.188Z</time></trkpt><trkpt lat="45.8309733" lon="12.0059667"><ele>166.0</ele><time>2026-05-01T16:02:34.185Z</time></trkpt><trkpt lat="45.8310433" lon="12.0061133"><ele>165.75</ele><time>2026-05-01T16:02:35.187Z</time></trkpt><trkpt lat="45.8311133" lon="12.0062633"><ele>165.5</ele><time>2026-05-01T16:02:36.185Z</time></trkpt><trkpt lat="45.8311817" lon="12.0064183"><ele>165.25</ele><time>2026-05-01T16:02:37.183Z</time></trkpt><trkpt lat="45.83125" lon="12.0065817"><ele>165.0</ele><time>2026-05-01T16:02:38.187Z</time></trkpt><trkpt lat="45.8313167" lon="12.0067467"><ele>164.75</ele><time>2026-05-01T16:02:39.186Z</time></trkpt><trkpt lat="45.8313767" lon="12.006915"><ele>164.5</ele><time>2026-05-01T16:02:40.186Z</time></trkpt><trkpt lat="45.8314333" lon="12.0070683"><ele>164.25</ele><time>2026-05-01T16:02:41.184Z</time></trkpt><trkpt lat="45.8314867" lon="12.0072167"><ele>164.0</ele><time>2026-05-01T16:02:42.189Z</time></trkpt><trkpt lat="45.8315383" lon="12.0073717"><ele>164.0</ele><time>2026-05-01T16:02:43.185Z</time></trkpt><trkpt lat="45.8315867" lon="12.0075333"><ele>164.0</ele><time>2026-05-01T16:02:44.183Z</time></trkpt><trkpt lat="45.8316333" lon="12.0077017"><ele>164.0</ele><time>2026-05-01T16:02:45.188Z</time></trkpt><trkpt lat="45.831685" lon="12.0078717"><ele>164.0</ele><time>2026-05-01T16:02:46.184Z</time></trkpt><trkpt lat="45.831735" lon="12.008045"><ele>164.0</ele><time>2026-05-01T16:02:47.189Z</time></trkpt><trkpt lat="45.8317817" lon="12.0082183"><ele>164.0</ele><time>2026-05-01T16:02:48.185Z</time></trkpt><trkpt lat="45.8318283" lon="12.0083933"><ele>164.0</ele><time>2026-05-01T16:02:49.185Z</time></trkpt><trkpt lat="45.8318717" lon="12.0085567"><ele>164.0</ele><time>2026-05-01T16:02:50.183Z</time></trkpt><trkpt lat="45.831905" lon="12.0087117"><ele>163.75</ele><time>2026-05-01T16:02:51.184Z</time></trkpt><trkpt lat="45.8319367" lon="12.0088667"><ele>163.5</ele><time>2026-05-01T16:02:52.184Z</time></trkpt><trkpt lat="45.8319633" lon="12.0090317"><ele>163.25</ele><time>2026-05-01T16:02:53.186Z</time></trkpt><trkpt lat="45.8319917" lon="12.0092"><ele>163.0</ele><time>2026-05-01T16:02:54.185Z</time></trkpt><trkpt lat="45.83202" lon="12.0093783"><ele>162.75</ele><time>2026-05-01T16:02:55.188Z</time></trkpt><trkpt lat="45.8320467" lon="12.0095617"><ele>162.5</ele><time>2026-05-01T16:02:56.185Z</time></trkpt><trkpt lat="45.8320667" lon="12.00975"><ele>162.25</ele><time>2026-05-01T16:02:57.187Z</time></trkpt><trkpt lat="45.83208" lon="12.0099433"><ele>162.0</ele><time>2026-05-01T16:02:58.184Z</time></trkpt><trkpt lat="45.8321017" lon="12.0101367"><ele>162.0</ele><time>2026-05-01T16:02:59.184Z</time></trkpt><trkpt lat="45.83213" lon="12.0103267"><ele>162.0</ele><time>2026-05-01T16:03:00.184Z</time></trkpt><trkpt lat="45.8321533" lon="12.0104983"><ele>162.0</ele><time>2026-05-01T16:03:01.186Z</time></trkpt><trkpt lat="45.83217" lon="12.0106617"><ele>162.0</ele><time>2026-05-01T16:03:02.186Z</time></trkpt><trkpt lat="45.8321933" lon="12.0108217"><ele>161.75</ele><time>2026-05-01T16:03:03.188Z</time></trkpt><trkpt lat="45.83222" lon="12.0109867"><ele>161.5</ele><time>2026-05-01T16:03:04.188Z</time></trkpt><trkpt lat="45.832245" lon="12.0111567"><ele>161.25</ele><time>2026-05-01T16:03:05.187Z</time></trkpt><trkpt lat="45.8322717" lon="12.0113283"><ele>161.0</ele><time>2026-05-01T16:03:06.188Z</time></trkpt><trkpt lat="45.8322983" lon="12.0115067"><ele>160.5</ele><time>2026-05-01T16:03:07.184Z</time></trkpt><trkpt lat="45.8323183" lon="12.01169"><ele>160.0</ele><time>2026-05-01T16:03:08.187Z</time></trkpt><trkpt lat="45.8323467" lon="12.0118733"><ele>159.5</ele><time>2026-05-01T16:03:09.189Z</time></trkpt><trkpt lat="45.8323717" lon="12.0120583"><ele>159.0</ele><time>2026-05-01T16:03:10.184Z</time></trkpt><trkpt lat="45.832395" lon="12.012235"><ele>159.0</ele><time>2026-05-01T16:03:11.185Z</time></trkpt><trkpt lat="45.8324133" lon="12.012395"><ele>159.0</ele><time>2026-05-01T16:03:12.265Z</time></trkpt><trkpt lat="45.8324333" lon="12.012545"><ele>159.0</ele><time>2026-05-01T16:03:13.186Z</time></trkpt><trkpt lat="45.8324517" lon="12.01268"><ele>159.0</ele><time>2026-05-01T16:03:14.184Z</time></trkpt><trkpt lat="45.832475" lon="12.012795"><ele>159.0</ele><time>2026-05-01T16:03:15.185Z</time></trkpt><trkpt lat="45.8325267" lon="12.012885"><ele>159.0</ele><time>2026-05-01T16:03:16.188Z</time></trkpt><trkpt lat="45.83259" lon="12.012945"><ele>159.0</ele><time>2026-05-01T16:03:17.187Z</time></trkpt><trkpt lat="45.83266" lon="12.0129667"><ele>159.0</ele><time>2026-05-01T16:03:18.188Z</time></trkpt><trkpt lat="45.8327467" lon="12.012965"><ele>159.0</ele><time>2026-05-01T16:03:19.184Z</time></trkpt><trkpt lat="45.8328583" lon="12.0129217"><ele>159.0</ele><time>2026-05-01T16:03:20.185Z</time></trkpt><trkpt lat="45.8329983" lon="12.0128517"><ele>159.25</ele><time>2026-05-01T16:03:21.187Z</time></trkpt><trkpt lat="45.8331233" lon="12.012805"><ele>159.5</ele><time>2026-05-01T16:03:22.184Z</time></trkpt><trkpt lat="45.8332567" lon="12.012755"><ele>159.75</ele><time>2026-05-01T16:03:23.184Z</time></trkpt><trkpt lat="45.8333917" lon="12.0127083"><ele>160.0</ele><time>2026-05-01T16:03:24.19Z</time></trkpt><trkpt lat="45.83352" lon="12.0126617"><ele>160.0</ele><time>2026-05-01T16:03:25.188Z</time></trkpt><trkpt lat="45.8336483" lon="12.0125967"><ele>160.0</ele><time>2026-05-01T16:03:26.187Z</time></trkpt><trkpt lat="45.8337733" lon="12.0125033"><ele>160.0</ele><time>2026-05-01T16:03:27.186Z</time></trkpt><trkpt lat="45.8338983" lon="12.0124067"><ele>160.0</ele><time>2026-05-01T16:03:28.186Z</time></trkpt><trkpt lat="45.8340283" lon="12.01232"><ele>161.0</ele><time>2026-05-01T16:03:29.186Z</time></trkpt><trkpt lat="45.8341683" lon="12.01225"><ele>162.0</ele><time>2026-05-01T16:03:30.184Z</time></trkpt><trkpt lat="45.8343133" lon="12.0121883"><ele>163.0</ele><time>2026-05-01T16:03:31.184Z</time></trkpt><trkpt lat="45.8344783" lon="12.0121267"><ele>163.0</ele><time>2026-05-01T16:03:32.184Z</time></trkpt><trkpt lat="45.8346583" lon="12.0120483"><ele>163.0</ele><time>2026-05-01T16:03:33.189Z</time></trkpt><trkpt lat="45.8348533" lon="12.0119667"><ele>163.0</ele><time>2026-05-01T16:03:34.184Z</time></trkpt><trkpt lat="45.835055" lon="12.0118817"><ele>162.0</ele><time>2026-05-01T16:03:35.186Z</time></trkpt><trkpt lat="45.8352567" lon="12.011795"><ele>161.0</ele><time>2026-05-01T16:03:36.187Z</time></trkpt><trkpt lat="45.8354533" lon="12.0117117"><ele>160.0</ele><time>2026-05-01T16:03:37.187Z</time></trkpt><trkpt lat="45.8356367" lon="12.011635"><ele>160.0</ele><time>2026-05-01T16:03:38.185Z</time></trkpt><trkpt lat="45.8358083" lon="12.0115667"><ele>160.0</ele><time>2026-05-01T16:03:39.192Z</time></trkpt><trkpt lat="45.83596" lon="12.011505"><ele>160.0</ele><time>2026-05-01T16:03:40.188Z</time></trkpt><trkpt lat="45.83609" lon="12.0114517"><ele>160.25</ele><time>2026-05-01T16:03:41.189Z</time></trkpt><trkpt lat="45.8362083" lon="12.0114067"><ele>160.5</ele><time>2026-05-01T16:03:42.185Z</time></trkpt><trkpt lat="45.8363283" lon="12.01139"><ele>160.75</ele><time>2026-05-01T16:03:43.186Z</time></trkpt><trkpt lat="45.8364483" lon="12.011425"><ele>161.0</ele><time>2026-05-01T16:03:44.185Z</time></trkpt><trkpt lat="45.83657" lon="12.0115217"><ele>161.0</ele><time>2026-05-01T16:03:45.186Z</time></trkpt><trkpt lat="45.8367" lon="12.0116567"><ele>161.0</ele><time>2026-05-01T16:03:46.187Z</time></trkpt><trkpt lat="45.8368333" lon="12.0118233"><ele>161.0</ele><time>2026-05-01T16:03:47.188Z</time></trkpt><trkpt lat="45.836965" lon="12.0119883"><ele>161.0</ele><time>2026-05-01T16:03:48.187Z</time></trkpt><trkpt lat="45.83711" lon="12.0121433"><ele>161.0</ele><time>2026-05-01T16:03:49.184Z</time></trkpt><trkpt lat="45.837265" lon="12.012295"><ele>161.0</ele><time>2026-05-01T16:03:50.183Z</time></trkpt><trkpt lat="45.8374317" lon="12.01244"><ele>161.0</ele><time>2026-05-01T16:03:51.186Z</time></trkpt><trkpt lat="45.83761" lon="12.0125933"><ele>161.0</ele><time>2026-05-01T16:03:52.188Z</time></trkpt><trkpt lat="45.8377917" lon="12.012735"><ele>161.0</ele><time>2026-05-01T16:03:53.184Z</time></trkpt><trkpt lat="45.8379633" lon="12.0128617"><ele>160.0</ele><time>2026-05-01T16:03:54.193Z</time></trkpt><trkpt lat="45.8381283" lon="12.01298"><ele>159.0</ele><time>2026-05-01T16:03:55.186Z</time></trkpt><trkpt lat="45.8382833" lon="12.0130967"><ele>158.0</ele><time>2026-05-01T16:03:56.186Z</time></trkpt><trkpt lat="45.8384167" lon="12.013205"><ele>159.0</ele><time>2026-05-01T16:03:57.187Z</time></trkpt><trkpt lat="45.8385367" lon="12.0132967"><ele>160.0</ele><time>2026-05-01T16:03:58.188Z</time></trkpt><trkpt lat="45.83865" lon="12.01338"><ele>161.0</ele><time>2026-05-01T16:03:59.186Z</time></trkpt><trkpt lat="45.8387517" lon="12.01346"><ele>162.0</ele><time>2026-05-01T16:04:00.187Z</time></trkpt><trkpt lat="45.8388467" lon="12.01354"><ele>162.0</ele><time>2026-05-01T16:04:01.187Z</time></trkpt><trkpt lat="45.8389267" lon="12.01363"><ele>162.0</ele><time>2026-05-01T16:04:02.186Z</time></trkpt><trkpt lat="45.8389967" lon="12.01373"><ele>162.0</ele><time>2026-05-01T16:04:03.186Z</time></trkpt><trkpt lat="45.83906" lon="12.013845"><ele>162.0</ele><time>2026-05-01T16:04:04.186Z</time></trkpt><trkpt lat="45.8391167" lon="12.013965"><ele>162.0</ele><time>2026-05-01T16:04:05.186Z</time></trkpt><trkpt lat="45.839195" lon="12.014035"><ele>162.0</ele><time>2026-05-01T16:04:06.186Z</time></trkpt><trkpt lat="45.8392933" lon="12.014055"><ele>162.0</ele><time>2026-05-01T16:04:07.188Z</time></trkpt><trkpt lat="45.8394167" lon="12.0140467"><ele>162.0</ele><time>2026-05-01T16:04:08.186Z</time></trkpt><trkpt lat="45.8395567" lon="12.014065"><ele>162.0</ele><time>2026-05-01T16:04:09.186Z</time></trkpt><trkpt lat="45.8396983" lon="12.0141517"><ele>161.66666666666666</ele><time>2026-05-01T16:04:10.189Z</time></trkpt><trkpt lat="45.83985" lon="12.01425"><ele>161.33333333333331</ele><time>2026-05-01T16:04:11.269Z</time></trkpt><trkpt lat="45.8400267" lon="12.014365"><ele>161.0</ele><time>2026-05-01T16:04:12.184Z</time></trkpt><trkpt lat="45.8402117" lon="12.0144783"><ele>161.0</ele><time>2026-05-01T16:04:13.187Z</time></trkpt><trkpt lat="45.8403967" lon="12.0146183"><ele>161.0</ele><time>2026-05-01T16:04:14.188Z</time></trkpt><trkpt lat="45.84057" lon="12.0147633"><ele>161.0</ele><time>2026-05-01T16:04:15.184Z</time></trkpt><trkpt lat="45.840735" lon="12.0148933"><ele>161.33333333333331</ele><time>2026-05-01T16:04:16.185Z</time></trkpt><trkpt lat="45.840895" lon="12.0150167"><ele>161.66666666666666</ele><time>2026-05-01T16:04:17.185Z</time></trkpt><trkpt lat="45.841045" lon="12.0151233"><ele>162.0</ele><time>2026-05-01T16:04:18.184Z</time></trkpt><trkpt lat="45.84119" lon="12.0152283"><ele>160.66666666666666</ele><time>2026-05-01T16:04:19.187Z</time></trkpt><trkpt lat="45.8413317" lon="12.015335"><ele>159.33333333333331</ele><time>2026-05-01T16:04:20.184Z</time></trkpt><trkpt lat="45.84147" lon="12.0154383"><ele>158.0</ele><time>2026-05-01T16:04:21.186Z</time></trkpt><trkpt lat="45.841605" lon="12.0155367"><ele>158.0</ele><time>2026-05-01T16:04:22.188Z</time></trkpt><trkpt lat="45.841735" lon="12.01563"><ele>158.0</ele><time>2026-05-01T16:04:23.185Z</time></trkpt><trkpt lat="45.84185" lon="12.015715"><ele>158.0</ele><time>2026-05-01T16:04:24.187Z</time></trkpt><trkpt lat="45.841955" lon="12.0157967"><ele>158.0</ele><time>2026-05-01T16:04:25.185Z</time></trkpt><trkpt lat="45.84205" lon="12.0158717"><ele>157.6</ele><time>2026-05-01T16:04:26.187Z</time></trkpt><trkpt lat="45.8421367" lon="12.0159467"><ele>157.20000000000002</ele><time>2026-05-01T16:04:27.191Z</time></trkpt><trkpt lat="45.84221" lon="12.016025"><ele>156.8</ele><time>2026-05-01T16:04:28.185Z</time></trkpt><trkpt lat="45.8422733" lon="12.0161067"><ele>156.4</ele><time>2026-05-01T16:04:29.186Z</time></trkpt><trkpt lat="45.8423283" lon="12.0161983"><ele>156.0</ele><time>2026-05-01T16:04:30.186Z</time></trkpt><trkpt lat="45.84238" lon="12.0163"><ele>156.0</ele><time>2026-05-01T16:04:31.188Z</time></trkpt><trkpt lat="45.8424483" lon="12.016385"><ele>156.0</ele><time>2026-05-01T16:04:32.186Z</time></trkpt><trkpt lat="45.842535" lon="12.0164467"><ele>156.0</ele><time>2026-05-01T16:04:33.187Z</time></trkpt><trkpt lat="45.8426367" lon="12.01648"><ele>156.0</ele><time>2026-05-01T16:04:34.187Z</time></trkpt><trkpt lat="45.8427383" lon="12.0165133"><ele>156.0</ele><time>2026-05-01T16:04:35.187Z</time></trkpt><trkpt lat="45.84284" lon="12.0165583"><ele>156.25</ele><time>2026-05-01T16:04:36.186Z</time></trkpt><trkpt lat="45.8429417" lon="12.016605"><ele>156.5</ele><time>2026-05-01T16:04:37.185Z</time></trkpt><trkpt lat="45.8430467" lon="12.0166583"><ele>156.75</ele><time>2026-05-01T16:04:38.189Z</time></trkpt><trkpt lat="45.8431583" lon="12.0167283"><ele>157.0</ele><time>2026-05-01T16:04:39.185Z</time></trkpt><trkpt lat="45.8432767" lon="12.0168117"><ele>156.66666666666669</ele><time>2026-05-01T16:04:40.185Z</time></trkpt><trkpt lat="45.8433983" lon="12.0169033"><ele>156.33333333333334</ele><time>2026-05-01T16:04:41.187Z</time></trkpt><trkpt lat="45.843545" lon="12.017005"><ele>156.0</ele><time>2026-05-01T16:04:42.186Z</time></trkpt><trkpt lat="45.8437167" lon="12.0171033"><ele>156.0</ele><time>2026-05-01T16:04:43.188Z</time></trkpt><trkpt lat="45.84391" lon="12.017235"><ele>156.0</ele><time>2026-05-01T16:04:44.186Z</time></trkpt><trkpt lat="45.8441183" lon="12.0173883"><ele>156.0</ele><time>2026-05-01T16:04:45.19Z</time></trkpt><trkpt lat="45.84433" lon="12.017575"><ele>155.5</ele><time>2026-05-01T16:04:46.186Z</time></trkpt><trkpt lat="45.844555" lon="12.0177533"><ele>155.0</ele><time>2026-05-01T16:04:47.189Z</time></trkpt><trkpt lat="45.84478" lon="12.0179133"><ele>155.0</ele><time>2026-05-01T16:04:48.188Z</time></trkpt><trkpt lat="45.84499" lon="12.0180683"><ele>155.0</ele><time>2026-05-01T16:04:49.186Z</time></trkpt><trkpt lat="45.8451883" lon="12.0182183"><ele>154.33333333333331</ele><time>2026-05-01T16:04:50.184Z</time></trkpt><trkpt lat="45.845375" lon="12.0183583"><ele>153.66666666666666</ele><time>2026-05-01T16:04:51.185Z</time></trkpt><trkpt lat="45.845555" lon="12.0184883"><ele>153.0</ele><time>2026-05-01T16:04:52.185Z</time></trkpt><trkpt lat="45.8457367" lon="12.018625"><ele>153.0</ele><time>2026-05-01T16:04:53.184Z</time></trkpt><trkpt lat="45.8459183" lon="12.01877"><ele>153.0</ele><time>2026-05-01T16:04:54.183Z</time></trkpt><trkpt lat="45.8461083" lon="12.018905"><ele>153.0</ele><time>2026-05-01T16:04:55.186Z</time></trkpt><trkpt lat="45.8462933" lon="12.019045"><ele>152.66666666666666</ele><time>2026-05-01T16:04:56.186Z</time></trkpt><trkpt lat="45.8464833" lon="12.0191867"><ele>152.33333333333331</ele><time>2026-05-01T16:04:57.185Z</time></trkpt><trkpt lat="45.8466817" lon="12.0193283"><ele>152.0</ele><time>2026-05-01T16:04:58.189Z</time></trkpt><trkpt lat="45.846885" lon="12.0194783"><ele>152.66666666666666</ele><time>2026-05-01T16:04:59.185Z</time></trkpt><trkpt lat="45.847085" lon="12.0196233"><ele>153.33333333333334</ele><time>2026-05-01T16:05:00.189Z</time></trkpt><trkpt lat="45.84728" lon="12.0197667"><ele>154.0</ele><time>2026-05-01T16:05:01.189Z</time></trkpt><trkpt lat="45.8474783" lon="12.01991"><ele>155.0</ele><time>2026-05-01T16:05:02.192Z</time></trkpt><trkpt lat="45.8476817" lon="12.0200533"><ele>156.0</ele><time>2026-05-01T16:05:03.188Z</time></trkpt><trkpt lat="45.847885" lon="12.0201967"><ele>156.0</ele><time>2026-05-01T16:05:04.184Z</time></trkpt><trkpt lat="45.8480983" lon="12.0203433"><ele>156.0</ele><time>2026-05-01T16:05:05.183Z</time></trkpt><trkpt lat="45.8483033" lon="12.02049"><ele>155.0</ele><time>2026-05-01T16:05:06.184Z</time></trkpt><trkpt lat="45.8485067" lon="12.0206417"><ele>154.0</ele><time>2026-05-01T16:05:07.185Z</time></trkpt><trkpt lat="45.84871" lon="12.0207917"><ele>154.5</ele><time>2026-05-01T16:05:08.187Z</time></trkpt><trkpt lat="45.8489133" lon="12.0209433"><ele>155.0</ele><time>2026-05-01T16:05:09.187Z</time></trkpt><trkpt lat="45.8491167" lon="12.0211017"><ele>154.66666666666666</ele><time>2026-05-01T16:05:10.185Z</time></trkpt><trkpt lat="45.8493217" lon="12.02125"><ele>154.33333333333334</ele><time>2026-05-01T16:05:11.185Z</time></trkpt><trkpt lat="45.8495133" lon="12.0213917"><ele>154.0</ele><time>2026-05-01T16:05:12.185Z</time></trkpt><trkpt lat="45.849695" lon="12.0215317"><ele>154.66666666666669</ele><time>2026-05-01T16:05:13.186Z</time></trkpt><trkpt lat="45.849865" lon="12.0216583"><ele>155.33333333333334</ele><time>2026-05-01T16:05:14.187Z</time></trkpt><trkpt lat="45.85003" lon="12.0217817"><ele>156.0</ele><time>2026-05-01T16:05:15.189Z</time></trkpt><trkpt lat="45.8501883" lon="12.0219"><ele>156.0</ele><time>2026-05-01T16:05:16.187Z</time></trkpt><trkpt lat="45.8503383" lon="12.022015"><ele>156.0</ele><time>2026-05-01T16:05:17.186Z</time></trkpt><trkpt lat="45.85049" lon="12.0221267"><ele>156.0</ele><time>2026-05-01T16:05:18.185Z</time></trkpt><trkpt lat="45.850645" lon="12.0222417"><ele>156.0</ele><time>2026-05-01T16:05:19.186Z</time></trkpt><trkpt lat="45.8508067" lon="12.022355"><ele>156.0</ele><time>2026-05-01T16:05:20.186Z</time></trkpt><trkpt lat="45.850975" lon="12.0224667"><ele>156.0</ele><time>2026-05-01T16:05:21.187Z</time></trkpt><trkpt lat="45.85114" lon="12.0225933"><ele>155.33333333333334</ele><time>2026-05-01T16:05:22.184Z</time></trkpt><trkpt lat="45.8513017" lon="12.0227167"><ele>154.66666666666669</ele><time>2026-05-01T16:05:23.184Z</time></trkpt><trkpt lat="45.8514567" lon="12.0228333"><ele>154.0</ele><time>2026-05-01T16:05:24.185Z</time></trkpt><trkpt lat="45.8516067" lon="12.02294"><ele>154.0</ele><time>2026-05-01T16:05:25.278Z</time></trkpt><trkpt lat="45.85175" lon="12.0230467"><ele>154.0</ele><time>2026-05-01T16:05:26.187Z</time></trkpt><trkpt lat="45.8518883" lon="12.02315"><ele>154.0</ele><time>2026-05-01T16:05:27.188Z</time></trkpt><trkpt lat="45.8520233" lon="12.0232483"><ele>154.25</ele><time>2026-05-01T16:05:28.185Z</time></trkpt><trkpt lat="45.85215" lon="12.023345"><ele>154.5</ele><time>2026-05-01T16:05:29.185Z</time></trkpt><trkpt lat="45.85227" lon="12.0234333"><ele>154.75</ele><time>2026-05-01T16:05:30.187Z</time></trkpt><trkpt lat="45.852385" lon="12.0235183"><ele>155.0</ele><time>2026-05-01T16:05:31.185Z</time></trkpt><trkpt lat="45.8524933" lon="12.0235983"><ele>155.0</ele><time>2026-05-01T16:05:32.185Z</time></trkpt><trkpt lat="45.8526" lon="12.023675"><ele>155.0</ele><time>2026-05-01T16:05:33.187Z</time></trkpt><trkpt lat="45.8527083" lon="12.023755"><ele>155.0</ele><time>2026-05-01T16:05:34.187Z</time></trkpt><trkpt lat="45.852815" lon="12.0238333"><ele>155.0</ele><time>2026-05-01T16:05:35.183Z</time></trkpt><trkpt lat="45.8529167" lon="12.02391"><ele>154.8</ele><time>2026-05-01T16:05:36.186Z</time></trkpt><trkpt lat="45.8530117" lon="12.0239867"><ele>154.6</ele><time>2026-05-01T16:05:37.185Z</time></trkpt><trkpt lat="45.85311" lon="12.0240583"><ele>154.4</ele><time>2026-05-01T16:05:38.187Z</time></trkpt><trkpt lat="45.8532083" lon="12.0241333"><ele>154.2</ele><time>2026-05-01T16:05:39.19Z</time></trkpt><trkpt lat="45.8533033" lon="12.024205"><ele>154.0</ele><time>2026-05-01T16:05:40.187Z</time></trkpt><trkpt lat="45.853395" lon="12.02427"><ele>154.33333333333334</ele><time>2026-05-01T16:05:41.186Z</time></trkpt><trkpt lat="45.8534833" lon="12.02433"><ele>154.66666666666669</ele><time>2026-05-01T16:05:42.185Z</time></trkpt><trkpt lat="45.8535667" lon="12.0243967"><ele>155.0</ele><time>2026-05-01T16:05:43.185Z</time></trkpt><trkpt lat="45.85364" lon="12.0244767"><ele>155.33333333333334</ele><time>2026-05-01T16:05:44.189Z</time></trkpt><trkpt lat="45.853695" lon="12.0245683"><ele>155.66666666666666</ele><time>2026-05-01T16:05:45.188Z</time></trkpt><trkpt lat="45.8537367" lon="12.0246583"><ele>156.0</ele><time>2026-05-01T16:05:46.186Z</time></trkpt><trkpt lat="45.85377" lon="12.0247483"><ele>156.0</ele><time>2026-05-01T16:05:47.186Z</time></trkpt><trkpt lat="45.853795" lon="12.0248467"><ele>156.0</ele><time>2026-05-01T16:05:48.186Z</time></trkpt><trkpt lat="45.8538333" lon="12.0249367"><ele>156.0</ele><time>2026-05-01T16:05:49.187Z</time></trkpt><trkpt lat="45.85388" lon="12.02501"><ele>156.0</ele><time>2026-05-01T16:05:50.188Z</time></trkpt><trkpt lat="45.8539517" lon="12.0250617"><ele>156.0</ele><time>2026-05-01T16:05:51.186Z</time></trkpt><trkpt lat="45.8540533" lon="12.0250633"><ele>156.0</ele><time>2026-05-01T16:05:52.186Z</time></trkpt><trkpt lat="45.8541517" lon="12.02504"><ele>155.8</ele><time>2026-05-01T16:05:53.188Z</time></trkpt><trkpt lat="45.85424" lon="12.0250083"><ele>155.6</ele><time>2026-05-01T16:05:54.187Z</time></trkpt><trkpt lat="45.85433" lon="12.0249817"><ele>155.4</ele><time>2026-05-01T16:05:55.187Z</time></trkpt><trkpt lat="45.8544217" lon="12.0249767"><ele>155.2</ele><time>2026-05-01T16:05:56.183Z</time></trkpt><trkpt lat="45.8545167" lon="12.0249533"><ele>155.0</ele><time>2026-05-01T16:05:57.185Z</time></trkpt><trkpt lat="45.85461" lon="12.0249267"><ele>154.83333333333331</ele><time>2026-05-01T16:05:58.185Z</time></trkpt><trkpt lat="45.8546917" lon="12.024905"><ele>154.66666666666666</ele><time>2026-05-01T16:05:59.184Z</time></trkpt><trkpt lat="45.8547733" lon="12.0248883"><ele>154.5</ele><time>2026-05-01T16:06:00.186Z</time></trkpt><trkpt lat="45.8548533" lon="12.024865"><ele>154.33333333333334</ele><time>2026-05-01T16:06:01.187Z</time></trkpt><trkpt lat="45.85494" lon="12.0248483"><ele>154.16666666666669</ele><time>2026-05-01T16:06:02.185Z</time></trkpt><trkpt lat="45.8550233" lon="12.0248267"><ele>154.0</ele><time>2026-05-01T16:06:03.19Z</time></trkpt><trkpt lat="45.855105" lon="12.02481"><ele>154.16666666666669</ele><time>2026-05-01T16:06:04.184Z</time></trkpt><trkpt lat="45.855175" lon="12.0247967"><ele>154.33333333333334</ele><time>2026-05-01T16:06:05.185Z</time></trkpt><trkpt lat="45.8552433" lon="12.0247817"><ele>154.5</ele><time>2026-05-01T16:06:06.188Z</time></trkpt><trkpt lat="45.8553183" lon="12.0247733"><ele>154.66666666666666</ele><time>2026-05-01T16:06:07.189Z</time></trkpt><trkpt lat="45.8553917" lon="12.0247683"><ele>154.83333333333331</ele><time>2026-05-01T16:06:08.186Z</time></trkpt><trkpt lat="45.8554767" lon="12.0247733"><ele>155.0</ele><time>2026-05-01T16:06:09.191Z</time></trkpt><trkpt lat="45.85556" lon="12.024755"><ele>155.0</ele><time>2026-05-01T16:06:10.185Z</time></trkpt><trkpt lat="45.8556417" lon="12.0247"><ele>155.0</ele><time>2026-05-01T16:06:11.185Z</time></trkpt><trkpt lat="45.85573" lon="12.0246533"><ele>155.0</ele><time>2026-05-01T16:06:12.185Z</time></trkpt><trkpt lat="45.85582" lon="12.0246233"><ele>155.0</ele><time>2026-05-01T16:06:13.186Z</time></trkpt><trkpt lat="45.855915" lon="12.0246083"><ele>155.0</ele><time>2026-05-01T16:06:14.184Z</time></trkpt><trkpt lat="45.8560217" lon="12.0245967"><ele>154.6</ele><time>2026-05-01T16:06:15.185Z</time></trkpt><trkpt lat="45.8561333" lon="12.0245783"><ele>154.2</ele><time>2026-05-01T16:06:16.189Z</time></trkpt><trkpt lat="45.85625" lon="12.0245783"><ele>153.8</ele><time>2026-05-01T16:06:17.185Z</time></trkpt><trkpt lat="45.8563567" lon="12.0245733"><ele>153.4</ele><time>2026-05-01T16:06:18.185Z</time></trkpt><trkpt lat="45.8564667" lon="12.0245783"><ele>153.0</ele><time>2026-05-01T16:06:19.185Z</time></trkpt><trkpt lat="45.85657" lon="12.0245767"><ele>153.0</ele><time>2026-05-01T16:06:20.184Z</time></trkpt><trkpt lat="45.85667" lon="12.0245767"><ele>153.0</ele><time>2026-05-01T16:06:21.19Z</time></trkpt><trkpt lat="45.8567667" lon="12.0245783"><ele>153.0</ele><time>2026-05-01T16:06:22.187Z</time></trkpt><trkpt lat="45.8568617" lon="12.0245833"><ele>153.0</ele><time>2026-05-01T16:06:23.184Z</time></trkpt><trkpt lat="45.8569567" lon="12.0245883"><ele>153.0</ele><time>2026-05-01T16:06:24.184Z</time></trkpt><trkpt lat="45.8570633" lon="12.0245967"><ele>150.4</ele><time>2026-05-01T16:06:25.187Z</time></trkpt><trkpt lat="45.857165" lon="12.024605"><ele>147.8</ele><time>2026-05-01T16:06:26.186Z</time></trkpt><trkpt lat="45.8572583" lon="12.0246167"><ele>145.2</ele><time>2026-05-01T16:06:27.184Z</time></trkpt><trkpt lat="45.857345" lon="12.0246217"><ele>142.6</ele><time>2026-05-01T16:06:28.184Z</time></trkpt><trkpt lat="45.8574367" lon="12.024625"><ele>140.0</ele><time>2026-05-01T16:06:29.186Z</time></trkpt><trkpt lat="45.857535" lon="12.0246283"><ele>139.8</ele><time>2026-05-01T16:06:30.187Z</time></trkpt><trkpt lat="45.8576367" lon="12.0246383"><ele>139.6</ele><time>2026-05-01T16:06:31.187Z</time></trkpt><trkpt lat="45.85774" lon="12.0246467"><ele>139.4</ele><time>2026-05-01T16:06:32.184Z</time></trkpt><trkpt lat="45.8578433" lon="12.024655"><ele>139.2</ele><time>2026-05-01T16:06:33.192Z</time></trkpt><trkpt lat="45.8579467" lon="12.024665"><ele>139.0</ele><time>2026-05-01T16:06:34.186Z</time></trkpt><trkpt lat="45.858045" lon="12.02467"><ele>139.0</ele><time>2026-05-01T16:06:35.19Z</time></trkpt><trkpt lat="45.8581367" lon="12.024675"><ele>139.0</ele><time>2026-05-01T16:06:36.186Z</time></trkpt><trkpt lat="45.8582233" lon="12.0246817"><ele>139.0</ele><time>2026-05-01T16:06:37.186Z</time></trkpt><trkpt lat="45.8583067" lon="12.0246833"><ele>139.0</ele><time>2026-05-01T16:06:38.185Z</time></trkpt><trkpt lat="45.858395" lon="12.02469"><ele>139.0</ele><time>2026-05-01T16:06:39.187Z</time></trkpt><trkpt lat="45.858485" lon="12.024695"><ele>139.0</ele><time>2026-05-01T16:06:40.186Z</time></trkpt><trkpt lat="45.8585767" lon="12.0247033"><ele>138.8</ele><time>2026-05-01T16:06:41.187Z</time></trkpt><trkpt lat="45.8586717" lon="12.0247133"><ele>138.60000000000002</ele><time>2026-05-01T16:06:42.187Z</time></trkpt><trkpt lat="45.8587667" lon="12.02472"><ele>138.4</ele><time>2026-05-01T16:06:43.186Z</time></trkpt><trkpt lat="45.8588667" lon="12.02473"><ele>138.20000000000002</ele><time>2026-05-01T16:06:44.187Z</time></trkpt><trkpt lat="45.85897" lon="12.0247367"><ele>138.0</ele><time>2026-05-01T16:06:45.185Z</time></trkpt><trkpt lat="45.8590733" lon="12.02474"><ele>138.0</ele><time>2026-05-01T16:06:46.186Z</time></trkpt><trkpt lat="45.85918" lon="12.0247433"><ele>138.0</ele><time>2026-05-01T16:06:47.187Z</time></trkpt><trkpt lat="45.85928" lon="12.0247517"><ele>138.0</ele><time>2026-05-01T16:06:48.185Z</time></trkpt><trkpt lat="45.8593783" lon="12.0247567"><ele>138.0</ele><time>2026-05-01T16:06:49.19Z</time></trkpt><trkpt lat="45.8594683" lon="12.0247567"><ele>138.0</ele><time>2026-05-01T16:06:50.184Z</time></trkpt><trkpt lat="45.859555" lon="12.0247617"><ele>138.8</ele><time>2026-05-01T16:06:51.186Z</time></trkpt><trkpt lat="45.8596467" lon="12.0247667"><ele>139.60000000000002</ele><time>2026-05-01T16:06:52.186Z</time></trkpt><trkpt lat="45.8597367" lon="12.0247667"><ele>140.39999999999998</ele><time>2026-05-01T16:06:53.188Z</time></trkpt><trkpt lat="45.8598267" lon="12.0247733"><ele>141.2</ele><time>2026-05-01T16:06:54.186Z</time></trkpt><trkpt lat="45.8599167" lon="12.024785"><ele>142.0</ele><time>2026-05-01T16:06:55.185Z</time></trkpt><trkpt lat="45.860005" lon="12.0247917"><ele>142.0</ele><time>2026-05-01T16:06:56.187Z</time></trkpt><trkpt lat="45.8600917" lon="12.024795"><ele>142.0</ele><time>2026-05-01T16:06:57.188Z</time></trkpt><trkpt lat="45.86018" lon="12.0248033"><ele>142.0</ele><time>2026-05-01T16:06:58.185Z</time></trkpt><trkpt lat="45.8602667" lon="12.02481"><ele>142.0</ele><time>2026-05-01T16:06:59.191Z</time></trkpt><trkpt lat="45.8603417" lon="12.0248183"><ele>142.0</ele><time>2026-05-01T16:07:00.191Z</time></trkpt><trkpt lat="45.860455" lon="12.0248833"><ele>143.66666666666669</ele><time>2026-05-01T16:07:02.186Z</time></trkpt><trkpt lat="45.8604967" lon="12.0249517"><ele>145.33333333333334</ele><time>2026-05-01T16:07:03.185Z</time></trkpt><trkpt lat="45.86053" lon="12.0250317"><ele>147.0</ele><time>2026-05-01T16:07:04.186Z</time></trkpt><trkpt lat="45.8605433" lon="12.025135"><ele>148.66666666666666</ele><time>2026-05-01T16:07:05.19Z</time></trkpt><trkpt lat="45.860535" lon="12.02527"><ele>150.33333333333331</ele><time>2026-05-01T16:07:06.184Z</time></trkpt><trkpt lat="45.8605217" lon="12.02543"><ele>152.0</ele><time>2026-05-01T16:07:07.186Z</time></trkpt><trkpt lat="45.8605067" lon="12.0255933"><ele>152.0</ele><time>2026-05-01T16:07:08.189Z</time></trkpt><trkpt lat="45.8604917" lon="12.0257567"><ele>152.0</ele><time>2026-05-01T16:07:09.189Z</time></trkpt><trkpt lat="45.860485" lon="12.0259"><ele>152.0</ele><time>2026-05-01T16:07:10.188Z</time></trkpt><trkpt lat="45.8604867" lon="12.0260417"><ele>152.0</ele><time>2026-05-01T16:07:11.185Z</time></trkpt><trkpt lat="45.8604933" lon="12.026175"><ele>152.0</ele><time>2026-05-01T16:07:12.187Z</time></trkpt><trkpt lat="45.8605067" lon="12.0263067"><ele>152.2</ele><time>2026-05-01T16:07:13.186Z</time></trkpt><trkpt lat="45.8605167" lon="12.02644"><ele>152.39999999999998</ele><time>2026-05-01T16:07:14.185Z</time></trkpt><trkpt lat="45.8605367" lon="12.026575"><ele>152.60000000000002</ele><time>2026-05-01T16:07:15.186Z</time></trkpt><trkpt lat="45.860565" lon="12.02671"><ele>152.8</ele><time>2026-05-01T16:07:16.19Z</time></trkpt><trkpt lat="45.8606017" lon="12.0268433"><ele>153.0</ele><time>2026-05-01T16:07:17.185Z</time></trkpt><trkpt lat="45.8606383" lon="12.02697"><ele>152.20000000000002</ele><time>2026-05-01T16:07:18.187Z</time></trkpt><trkpt lat="45.8606767" lon="12.0270917"><ele>151.4</ele><time>2026-05-01T16:07:19.187Z</time></trkpt><trkpt lat="45.8607117" lon="12.027215"><ele>150.60000000000002</ele><time>2026-05-01T16:07:20.185Z</time></trkpt><trkpt lat="45.86076" lon="12.02734"><ele>149.8</ele><time>2026-05-01T16:07:21.186Z</time></trkpt><trkpt lat="45.8608117" lon="12.0274667"><ele>149.0</ele><time>2026-05-01T16:07:22.186Z</time></trkpt><trkpt lat="45.860865" lon="12.0275933"><ele>148.4</ele><time>2026-05-01T16:07:23.188Z</time></trkpt><trkpt lat="45.8609217" lon="12.0277167"><ele>147.8</ele><time>2026-05-01T16:07:24.186Z</time></trkpt><trkpt lat="45.860975" lon="12.0278367"><ele>147.2</ele><time>2026-05-01T16:07:25.185Z</time></trkpt><trkpt lat="45.8610233" lon="12.0279533"><ele>146.6</ele><time>2026-05-01T16:07:26.184Z</time></trkpt><trkpt lat="45.861075" lon="12.02806"><ele>146.0</ele><time>2026-05-01T16:07:27.188Z</time></trkpt><trkpt lat="45.8611267" lon="12.0281667"><ele>147.2</ele><time>2026-05-01T16:07:28.185Z</time></trkpt><trkpt lat="45.8611817" lon="12.0282783"><ele>148.39999999999998</ele><time>2026-05-01T16:07:29.188Z</time></trkpt><trkpt lat="45.861235" lon="12.0284017"><ele>149.6</ele><time>2026-05-01T16:07:30.185Z</time></trkpt><trkpt lat="45.8612867" lon="12.0285317"><ele>150.79999999999998</ele><time>2026-05-01T16:07:31.189Z</time></trkpt><trkpt lat="45.86134" lon="12.0286617"><ele>152.0</ele><time>2026-05-01T16:07:32.185Z</time></trkpt><trkpt lat="45.8613917" lon="12.0287933"><ele>152.5</ele><time>2026-05-01T16:07:33.187Z</time></trkpt><trkpt lat="45.86146" lon="12.0289233"><ele>153.0</ele><time>2026-05-01T16:07:34.187Z</time></trkpt><trkpt lat="45.8615433" lon="12.0290667"><ele>153.5</ele><time>2026-05-01T16:07:35.184Z</time></trkpt><trkpt lat="45.8616317" lon="12.0292333"><ele>154.0</ele><time>2026-05-01T16:07:36.185Z</time></trkpt><trkpt lat="45.8617283" lon="12.0294183"><ele>154.66666666666669</ele><time>2026-05-01T16:07:37.188Z</time></trkpt><trkpt lat="45.8618317" lon="12.02962"><ele>155.33333333333334</ele><time>2026-05-01T16:07:38.193Z</time></trkpt><trkpt lat="45.8619367" lon="12.0298417"><ele>156.0</ele><time>2026-05-01T16:07:39.186Z</time></trkpt><trkpt lat="45.8620417" lon="12.0300683"><ele>156.0</ele><time>2026-05-01T16:07:40.185Z</time></trkpt><trkpt lat="45.862145" lon="12.030295"><ele>156.0</ele><time>2026-05-01T16:07:41.187Z</time></trkpt><trkpt lat="45.8622483" lon="12.0305283"><ele>156.0</ele><time>2026-05-01T16:07:42.186Z</time></trkpt><trkpt lat="45.8623617" lon="12.0307617"><ele>154.66666666666666</ele><time>2026-05-01T16:07:43.188Z</time></trkpt><trkpt lat="45.8624767" lon="12.0309833"><ele>153.33333333333331</ele><time>2026-05-01T16:07:44.187Z</time></trkpt><trkpt lat="45.8625833" lon="12.03119"><ele>152.0</ele><time>2026-05-01T16:07:45.192Z</time></trkpt><trkpt lat="45.8626817" lon="12.0313833"><ele>154.33333333333331</ele><time>2026-05-01T16:07:46.188Z</time></trkpt><trkpt lat="45.8627733" lon="12.0315633"><ele>156.66666666666666</ele><time>2026-05-01T16:07:47.188Z</time></trkpt><trkpt lat="45.862845" lon="12.0317533"><ele>159.0</ele><time>2026-05-01T16:07:48.185Z</time></trkpt><trkpt lat="45.8629083" lon="12.031955"><ele>159.0</ele><time>2026-05-01T16:07:49.185Z</time></trkpt><trkpt lat="45.862965" lon="12.0321717"><ele>159.0</ele><time>2026-05-01T16:07:50.185Z</time></trkpt><trkpt lat="45.863005" lon="12.0323967"><ele>159.0</ele><time>2026-05-01T16:07:51.19Z</time></trkpt><trkpt lat="45.8630283" lon="12.0326133"><ele>158.33333333333334</ele><time>2026-05-01T16:07:52.185Z</time></trkpt><trkpt lat="45.8630383" lon="12.0328367"><ele>157.66666666666669</ele><time>2026-05-01T16:07:53.186Z</time></trkpt><trkpt lat="45.863025" lon="12.0330683"><ele>157.0</ele><time>2026-05-01T16:07:54.186Z</time></trkpt><trkpt lat="45.8630017" lon="12.033305"><ele>157.33333333333334</ele><time>2026-05-01T16:07:55.191Z</time></trkpt><trkpt lat="45.8629533" lon="12.0335483"><ele>157.66666666666666</ele><time>2026-05-01T16:07:56.191Z</time></trkpt><trkpt lat="45.8628833" lon="12.03379"><ele>158.0</ele><time>2026-05-01T16:07:57.187Z</time></trkpt><trkpt lat="45.8628" lon="12.0340283"><ele>155.0</ele><time>2026-05-01T16:07:58.186Z</time></trkpt><trkpt lat="45.8626967" lon="12.0342633"><ele>152.0</ele><time>2026-05-01T16:07:59.183Z</time></trkpt><trkpt lat="45.862585" lon="12.034495"><ele>149.0</ele><time>2026-05-01T16:08:00.185Z</time></trkpt><trkpt lat="45.8624767" lon="12.0347217"><ele>148.66666666666666</ele><time>2026-05-01T16:08:01.185Z</time></trkpt><trkpt lat="45.86237" lon="12.0349383"><ele>148.33333333333334</ele><time>2026-05-01T16:08:02.189Z</time></trkpt><trkpt lat="45.8622717" lon="12.0351417"><ele>148.0</ele><time>2026-05-01T16:08:03.186Z</time></trkpt><trkpt lat="45.8621717" lon="12.0353333"><ele>148.0</ele><time>2026-05-01T16:08:04.19Z</time></trkpt><trkpt lat="45.8620567" lon="12.0355133"><ele>148.0</ele><time>2026-05-01T16:08:05.186Z</time></trkpt><trkpt lat="45.8619217" lon="12.03567"><ele>148.0</ele><time>2026-05-01T16:08:06.186Z</time></trkpt><trkpt lat="45.8617783" lon="12.0358117"><ele>150.0</ele><time>2026-05-01T16:08:07.188Z</time></trkpt><trkpt lat="45.8616533" lon="12.03597"><ele>152.0</ele><time>2026-05-01T16:08:08.187Z</time></trkpt><trkpt lat="45.8615533" lon="12.036115"><ele>154.0</ele><time>2026-05-01T16:08:09.189Z</time></trkpt><trkpt lat="45.8614683" lon="12.0362433"><ele>156.0</ele><time>2026-05-01T16:08:10.187Z</time></trkpt><trkpt lat="45.861395" lon="12.03637"><ele>156.0</ele><time>2026-05-01T16:08:11.186Z</time></trkpt><trkpt lat="45.8613417" lon="12.0365233"><ele>156.0</ele><time>2026-05-01T16:08:12.187Z</time></trkpt><trkpt lat="45.8613117" lon="12.0367"><ele>156.0</ele><time>2026-05-01T16:08:13.186Z</time></trkpt><trkpt lat="45.8613" lon="12.0368983"><ele>156.0</ele><time>2026-05-01T16:08:14.185Z</time></trkpt><trkpt lat="45.861305" lon="12.0371083"><ele>158.75</ele><time>2026-05-01T16:08:15.187Z</time></trkpt><trkpt lat="45.86132" lon="12.037325"><ele>161.5</ele><time>2026-05-01T16:08:16.186Z</time></trkpt><trkpt lat="45.8613383" lon="12.0375167"><ele>164.25</ele><time>2026-05-01T16:08:17.185Z</time></trkpt><trkpt lat="45.8613617" lon="12.03769"><ele>167.0</ele><time>2026-05-01T16:08:18.184Z</time></trkpt><trkpt lat="45.8613917" lon="12.0378667"><ele>167.75</ele><time>2026-05-01T16:08:19.184Z</time></trkpt><trkpt lat="45.861435" lon="12.03804"><ele>168.5</ele><time>2026-05-01T16:08:20.185Z</time></trkpt><trkpt lat="45.8614783" lon="12.038195"><ele>169.25</ele><time>2026-05-01T16:08:21.187Z</time></trkpt><trkpt lat="45.861505" lon="12.038345"><ele>170.0</ele><time>2026-05-01T16:08:22.186Z</time></trkpt><trkpt lat="45.861515" lon="12.0385"><ele>167.0</ele><time>2026-05-01T16:08:23.185Z</time></trkpt><trkpt lat="45.861495" lon="12.0386783"><ele>164.0</ele><time>2026-05-01T16:08:24.185Z</time></trkpt><trkpt lat="45.86145" lon="12.038875"><ele>161.0</ele><time>2026-05-01T16:08:25.184Z</time></trkpt><trkpt lat="45.861385" lon="12.0390817"><ele>158.0</ele><time>2026-05-01T16:08:26.186Z</time></trkpt><trkpt lat="45.8613183" lon="12.0392817"><ele>157.0</ele><time>2026-05-01T16:08:27.187Z</time></trkpt><trkpt lat="45.8612683" lon="12.039465"><ele>156.0</ele><time>2026-05-01T16:08:28.186Z</time></trkpt><trkpt lat="45.8612333" lon="12.0396417"><ele>155.0</ele><time>2026-05-01T16:08:29.188Z</time></trkpt><trkpt lat="45.861195" lon="12.0398133"><ele>154.0</ele><time>2026-05-01T16:08:30.184Z</time></trkpt><trkpt lat="45.8611883" lon="12.04"><ele>153.33333333333334</ele><time>2026-05-01T16:08:31.185Z</time></trkpt><trkpt lat="45.86121" lon="12.0402117"><ele>152.66666666666666</ele><time>2026-05-01T16:08:32.185Z</time></trkpt><trkpt lat="45.8612317" lon="12.0404333"><ele>152.0</ele><time>2026-05-01T16:08:33.188Z</time></trkpt><trkpt lat="45.8612367" lon="12.040665"><ele>151.33333333333331</ele><time>2026-05-01T16:08:34.185Z</time></trkpt><trkpt lat="45.8612233" lon="12.0408967"><ele>150.66666666666666</ele><time>2026-05-01T16:08:35.187Z</time></trkpt><trkpt lat="45.8611783" lon="12.0411333"><ele>150.0</ele><time>2026-05-01T16:08:36.184Z</time></trkpt><trkpt lat="45.8610983" lon="12.04137"><ele>150.0</ele><time>2026-05-01T16:08:37.191Z</time></trkpt><trkpt lat="45.8609783" lon="12.0416"><ele>150.0</ele><time>2026-05-01T16:08:38.185Z</time></trkpt><trkpt lat="45.8608517" lon="12.04183"><ele>150.0</ele><time>2026-05-01T16:08:39.185Z</time></trkpt><trkpt lat="45.8607283" lon="12.0420667"><ele>149.66666666666666</ele><time>2026-05-01T16:08:40.188Z</time></trkpt><trkpt lat="45.8606083" lon="12.0422867"><ele>149.33333333333331</ele><time>2026-05-01T16:08:41.19Z</time></trkpt><trkpt lat="45.8604967" lon="12.0424933"><ele>149.0</ele><time>2026-05-01T16:08:42.187Z</time></trkpt><trkpt lat="45.86039" lon="12.04269"><ele>149.0</ele><time>2026-05-01T16:08:43.186Z</time></trkpt><trkpt lat="45.8602833" lon="12.04288"><ele>149.0</ele><time>2026-05-01T16:08:44.186Z</time></trkpt><trkpt lat="45.8601767" lon="12.043065"><ele>149.0</ele><time>2026-05-01T16:08:45.185Z</time></trkpt><trkpt lat="45.8600733" lon="12.04324"><ele>149.0</ele><time>2026-05-01T16:08:46.186Z</time></trkpt><trkpt lat="45.8599767" lon="12.043405"><ele>149.0</ele><time>2026-05-01T16:08:47.187Z</time></trkpt><trkpt lat="45.859885" lon="12.0435533"><ele>149.0</ele><time>2026-05-01T16:08:48.185Z</time></trkpt><trkpt lat="45.8598017" lon="12.0436933"><ele>149.0</ele><time>2026-05-01T16:08:49.187Z</time></trkpt><trkpt lat="45.8597283" lon="12.04382"><ele>149.0</ele><time>2026-05-01T16:08:50.188Z</time></trkpt><trkpt lat="45.859665" lon="12.04392"><ele>149.0</ele><time>2026-05-01T16:08:51.187Z</time></trkpt><trkpt lat="45.8596083" lon="12.0439967"><ele>149.0</ele><time>2026-05-01T16:08:52.189Z</time></trkpt><trkpt lat="45.8595433" lon="12.0440483"><ele>149.0</ele><time>2026-05-01T16:08:53.186Z</time></trkpt><trkpt lat="45.8594717" lon="12.0440767"><ele>149.0</ele><time>2026-05-01T16:08:54.186Z</time></trkpt><trkpt lat="45.8593967" lon="12.0441067"><ele>149.0</ele><time>2026-05-01T16:08:55.187Z</time></trkpt><trkpt lat="45.8593367" lon="12.0441967"><ele>149.2</ele><time>2026-05-01T16:08:56.185Z</time></trkpt><trkpt lat="45.8592983" lon="12.04433"><ele>149.4</ele><time>2026-05-01T16:08:57.186Z</time></trkpt><trkpt lat="45.85927" lon="12.0444717"><ele>149.6</ele><time>2026-05-01T16:08:58.187Z</time></trkpt><trkpt lat="45.8592417" lon="12.0445983"><ele>149.8</ele><time>2026-05-01T16:08:59.184Z</time></trkpt><trkpt lat="45.8592017" lon="12.0447217"><ele>150.0</ele><time>2026-05-01T16:09:00.187Z</time></trkpt><trkpt lat="45.859155" lon="12.044845"><ele>149.75</ele><time>2026-05-01T16:09:01.186Z</time></trkpt><trkpt lat="45.8590917" lon="12.0449717"><ele>149.5</ele><time>2026-05-01T16:09:02.184Z</time></trkpt><trkpt lat="45.8590167" lon="12.0451183"><ele>149.25</ele><time>2026-05-01T16:09:03.19Z</time></trkpt><trkpt lat="45.8589333" lon="12.0452933"><ele>149.0</ele><time>2026-05-01T16:09:04.185Z</time></trkpt><trkpt lat="45.85884" lon="12.04548"><ele>149.0</ele><time>2026-05-01T16:09:05.187Z</time></trkpt><trkpt lat="45.858735" lon="12.0456617"><ele>149.0</ele><time>2026-05-01T16:09:06.187Z</time></trkpt><trkpt lat="45.8586383" lon="12.0458283"><ele>149.0</ele><time>2026-05-01T16:09:07.186Z</time></trkpt><trkpt lat="45.858555" lon="12.0459867"><ele>149.0</ele><time>2026-05-01T16:09:08.186Z</time></trkpt><trkpt lat="45.8584733" lon="12.0461433"><ele>149.0</ele><time>2026-05-01T16:09:09.186Z</time></trkpt><trkpt lat="45.8583867" lon="12.04631"><ele>149.0</ele><time>2026-05-01T16:09:10.186Z</time></trkpt><trkpt lat="45.858295" lon="12.0465117"><ele>149.0</ele><time>2026-05-01T16:09:11.186Z</time></trkpt><trkpt lat="45.858205" lon="12.0467417"><ele>149.0</ele><time>2026-05-01T16:09:12.188Z</time></trkpt><trkpt lat="45.858115" lon="12.0469667"><ele>149.0</ele><time>2026-05-01T16:09:13.189Z</time></trkpt><trkpt lat="45.8580333" lon="12.0472033"><ele>149.0</ele><time>2026-05-01T16:09:14.186Z</time></trkpt><trkpt lat="45.857955" lon="12.0474483"><ele>148.66666666666666</ele><time>2026-05-01T16:09:15.189Z</time></trkpt><trkpt lat="45.8579" lon="12.0476983"><ele>148.33333333333334</ele><time>2026-05-01T16:09:16.187Z</time></trkpt><trkpt lat="45.8578617" lon="12.047945"><ele>148.0</ele><time>2026-05-01T16:09:17.187Z</time></trkpt><trkpt lat="45.8578333" lon="12.0481933"><ele>147.66666666666669</ele><time>2026-05-01T16:09:18.187Z</time></trkpt><trkpt lat="45.8578133" lon="12.048445"><ele>147.33333333333334</ele><time>2026-05-01T16:09:19.187Z</time></trkpt><trkpt lat="45.8578017" lon="12.0486983"><ele>147.0</ele><time>2026-05-01T16:09:20.186Z</time></trkpt><trkpt lat="45.8578033" lon="12.04896"><ele>147.0</ele><time>2026-05-01T16:09:21.185Z</time></trkpt><trkpt lat="45.8578183" lon="12.049225"><ele>147.0</ele><time>2026-05-01T16:09:22.183Z</time></trkpt><trkpt lat="45.8578383" lon="12.0494817"><ele>147.0</ele><time>2026-05-01T16:09:23.188Z</time></trkpt><trkpt lat="45.8578483" lon="12.0497283"><ele>147.0</ele><time>2026-05-01T16:09:24.189Z</time></trkpt><trkpt lat="45.8578583" lon="12.0499633"><ele>147.0</ele><time>2026-05-01T16:09:25.189Z</time></trkpt><trkpt lat="45.8578817" lon="12.0501967"><ele>147.0</ele><time>2026-05-01T16:09:26.188Z</time></trkpt><trkpt lat="45.8579133" lon="12.0504317"><ele>147.0</ele><time>2026-05-01T16:09:27.191Z</time></trkpt><trkpt lat="45.8579433" lon="12.0506567"><ele>147.0</ele><time>2026-05-01T16:09:28.187Z</time></trkpt><trkpt lat="45.857975" lon="12.050865"><ele>147.0</ele><time>2026-05-01T16:09:29.188Z</time></trkpt><trkpt lat="45.8580033" lon="12.0510633"><ele>147.0</ele><time>2026-05-01T16:09:30.186Z</time></trkpt><trkpt lat="45.85803" lon="12.0512483"><ele>147.0</ele><time>2026-05-01T16:09:31.188Z</time></trkpt><trkpt lat="45.8580567" lon="12.0514183"><ele>147.0</ele><time>2026-05-01T16:09:32.185Z</time></trkpt><trkpt lat="45.85808" lon="12.0515767"><ele>147.0</ele><time>2026-05-01T16:09:33.187Z</time></trkpt><trkpt lat="45.858095" lon="12.051745"><ele>147.0</ele><time>2026-05-01T16:09:34.184Z</time></trkpt><trkpt lat="45.858115" lon="12.0519117"><ele>147.0</ele><time>2026-05-01T16:09:35.184Z</time></trkpt><trkpt lat="45.8581367" lon="12.0520883"><ele>147.0</ele><time>2026-05-01T16:09:36.186Z</time></trkpt><trkpt lat="45.85816" lon="12.0522483"><ele>147.0</ele><time>2026-05-01T16:09:37.185Z</time></trkpt><trkpt lat="45.8581833" lon="12.05241"><ele>147.0</ele><time>2026-05-01T16:09:38.189Z</time></trkpt><trkpt lat="45.8582" lon="12.052575"><ele>147.0</ele><time>2026-05-01T16:09:39.188Z</time></trkpt><trkpt lat="45.8582183" lon="12.0527517"><ele>147.0</ele><time>2026-05-01T16:09:40.184Z</time></trkpt><trkpt lat="45.85824" lon="12.0529333"><ele>147.0</ele><time>2026-05-01T16:09:41.189Z</time></trkpt><trkpt lat="45.85826" lon="12.0531267"><ele>147.0</ele><time>2026-05-01T16:09:42.186Z</time></trkpt><trkpt lat="45.85828" lon="12.0533317"><ele>146.66666666666666</ele><time>2026-05-01T16:09:43.187Z</time></trkpt><trkpt lat="45.858295" lon="12.0535483"><ele>146.33333333333331</ele><time>2026-05-01T16:09:44.188Z</time></trkpt><trkpt lat="45.8583083" lon="12.0537867"><ele>146.0</ele><time>2026-05-01T16:09:45.187Z</time></trkpt><trkpt lat="45.858325" lon="12.0540417"><ele>146.0</ele><time>2026-05-01T16:09:46.185Z</time></trkpt><trkpt lat="45.8583433" lon="12.0542967"><ele>146.0</ele><time>2026-05-01T16:09:47.185Z</time></trkpt><trkpt lat="45.8583567" lon="12.0545583"><ele>146.0</ele><time>2026-05-01T16:09:48.19Z</time></trkpt><trkpt lat="45.8583717" lon="12.05483"><ele>145.33333333333331</ele><time>2026-05-01T16:09:49.188Z</time></trkpt><trkpt lat="45.858385" lon="12.055115"><ele>144.66666666666666</ele><time>2026-05-01T16:09:50.186Z</time></trkpt><trkpt lat="45.8584033" lon="12.05541"><ele>144.0</ele><time>2026-05-01T16:09:51.186Z</time></trkpt><trkpt lat="45.8584233" lon="12.0557017"><ele>143.33333333333334</ele><time>2026-05-01T16:09:52.188Z</time></trkpt><trkpt lat="45.858435" lon="12.0559867"><ele>142.66666666666669</ele><time>2026-05-01T16:09:53.185Z</time></trkpt><trkpt lat="45.8584417" lon="12.0562783"><ele>142.0</ele><time>2026-05-01T16:09:54.189Z</time></trkpt><trkpt lat="45.8584317" lon="12.0565783"><ele>142.0</ele><time>2026-05-01T16:09:55.191Z</time></trkpt><trkpt lat="45.85841" lon="12.056885"><ele>142.0</ele><time>2026-05-01T16:09:56.193Z</time></trkpt><trkpt lat="45.85839" lon="12.0571883"><ele>142.0</ele><time>2026-05-01T16:09:57.188Z</time></trkpt><trkpt lat="45.8583683" lon="12.057475"><ele>142.33333333333334</ele><time>2026-05-01T16:09:58.187Z</time></trkpt><trkpt lat="45.8583467" lon="12.0577367"><ele>142.66666666666666</ele><time>2026-05-01T16:09:59.184Z</time></trkpt><trkpt lat="45.8583267" lon="12.057975"><ele>143.0</ele><time>2026-05-01T16:10:00.185Z</time></trkpt><trkpt lat="45.8583117" lon="12.058195"><ele>143.0</ele><time>2026-05-01T16:10:01.189Z</time></trkpt><trkpt lat="45.8582933" lon="12.0583917"><ele>143.0</ele><time>2026-05-01T16:10:02.184Z</time></trkpt><trkpt lat="45.8582717" lon="12.0585583"><ele>143.0</ele><time>2026-05-01T16:10:03.187Z</time></trkpt><trkpt lat="45.8582567" lon="12.0587017"><ele>143.0</ele><time>2026-05-01T16:10:04.188Z</time></trkpt><trkpt lat="45.8582433" lon="12.0588183"><ele>143.0</ele><time>2026-05-01T16:10:05.184Z</time></trkpt><trkpt lat="45.858235" lon="12.058915"><ele>143.0</ele><time>2026-05-01T16:10:06.185Z</time></trkpt><trkpt lat="45.85823" lon="12.05901"><ele>143.0</ele><time>2026-05-01T16:10:09.187Z</time></trkpt><trkpt lat="45.8582133" lon="12.0591567"><ele>143.0</ele><time>2026-05-01T16:10:26.185Z</time></trkpt><trkpt lat="45.8581883" lon="12.0592817"><ele>143.0</ele><time>2026-05-01T16:10:27.188Z</time></trkpt><trkpt lat="45.8581633" lon="12.0594267"><ele>143.0</ele><time>2026-05-01T16:10:28.189Z</time></trkpt><trkpt lat="45.85814" lon="12.059575"><ele>142.75</ele><time>2026-05-01T16:10:29.19Z</time></trkpt><trkpt lat="45.8581167" lon="12.0597367"><ele>142.5</ele><time>2026-05-01T16:10:30.187Z</time></trkpt><trkpt lat="45.858085" lon="12.059915"><ele>142.25</ele><time>2026-05-01T16:10:31.184Z</time></trkpt><trkpt lat="45.8580433" lon="12.0601067"><ele>142.0</ele><time>2026-05-01T16:10:32.187Z</time></trkpt><trkpt lat="45.858" lon="12.06031"><ele>142.0</ele><time>2026-05-01T16:10:33.189Z</time></trkpt><trkpt lat="45.857955" lon="12.06052"><ele>142.0</ele><time>2026-05-01T16:10:34.187Z</time></trkpt><trkpt lat="45.857905" lon="12.0607283"><ele>142.0</ele><time>2026-05-01T16:10:35.185Z</time></trkpt><trkpt lat="45.85787" lon="12.0609417"><ele>142.0</ele><time>2026-05-01T16:10:36.185Z</time></trkpt><trkpt lat="45.8578383" lon="12.0611733"><ele>142.0</ele><time>2026-05-01T16:10:37.185Z</time></trkpt><trkpt lat="45.8578317" lon="12.0614167"><ele>142.0</ele><time>2026-05-01T16:10:38.186Z</time></trkpt><trkpt lat="45.857855" lon="12.0616667"><ele>142.0</ele><time>2026-05-01T16:10:39.188Z</time></trkpt><trkpt lat="45.8579067" lon="12.0619267"><ele>142.0</ele><time>2026-05-01T16:10:40.184Z</time></trkpt><trkpt lat="45.8579667" lon="12.06219"><ele>142.0</ele><time>2026-05-01T16:10:41.189Z</time></trkpt><trkpt lat="45.8580233" lon="12.06245"><ele>141.66666666666669</ele><time>2026-05-01T16:10:42.188Z</time></trkpt><trkpt lat="45.85808" lon="12.06272"><ele>141.33333333333334</ele><time>2026-05-01T16:10:43.187Z</time></trkpt><trkpt lat="45.8581383" lon="12.0629867"><ele>141.0</ele><time>2026-05-01T16:10:44.189Z</time></trkpt><trkpt lat="45.8581967" lon="12.0632467"><ele>141.0</ele><time>2026-05-01T16:10:45.187Z</time></trkpt><trkpt lat="45.85826" lon="12.0635017"><ele>141.0</ele><time>2026-05-01T16:10:46.188Z</time></trkpt><trkpt lat="45.8583233" lon="12.063765"><ele>141.0</ele><time>2026-05-01T16:10:47.187Z</time></trkpt><trkpt lat="45.8583867" lon="12.0640367"><ele>140.33333333333334</ele><time>2026-05-01T16:10:48.186Z</time></trkpt><trkpt lat="45.8584517" lon="12.06432"><ele>139.66666666666669</ele><time>2026-05-01T16:10:49.187Z</time></trkpt><trkpt lat="45.85852" lon="12.0646017"><ele>139.0</ele><time>2026-05-01T16:10:50.191Z</time></trkpt><trkpt lat="45.858585" lon="12.0648667"><ele>139.0</ele><time>2026-05-01T16:10:51.189Z</time></trkpt><trkpt lat="45.8586483" lon="12.0651117"><ele>139.0</ele><time>2026-05-01T16:10:52.185Z</time></trkpt><trkpt lat="45.8587017" lon="12.0653517"><ele>139.0</ele><time>2026-05-01T16:10:53.188Z</time></trkpt><trkpt lat="45.8587567" lon="12.0655883"><ele>139.33333333333334</ele><time>2026-05-01T16:10:54.188Z</time></trkpt><trkpt lat="45.8588133" lon="12.0658283"><ele>139.66666666666666</ele><time>2026-05-01T16:10:55.187Z</time></trkpt><trkpt lat="45.8588733" lon="12.066075"><ele>140.0</ele><time>2026-05-01T16:10:56.186Z</time></trkpt><trkpt lat="45.8589367" lon="12.0663133"><ele>140.0</ele><time>2026-05-01T16:10:57.192Z</time></trkpt><trkpt lat="45.8590033" lon="12.0665283"><ele>140.0</ele><time>2026-05-01T16:10:58.187Z</time></trkpt><trkpt lat="45.8590667" lon="12.06674"><ele>140.0</ele><time>2026-05-01T16:10:59.187Z</time></trkpt><trkpt lat="45.8591267" lon="12.0669633"><ele>139.33333333333331</ele><time>2026-05-01T16:11:00.187Z</time></trkpt><trkpt lat="45.8591767" lon="12.0672083"><ele>138.66666666666666</ele><time>2026-05-01T16:11:01.185Z</time></trkpt><trkpt lat="45.8592283" lon="12.0674717"><ele>138.0</ele><time>2026-05-01T16:11:02.183Z</time></trkpt><trkpt lat="45.8592883" lon="12.0677467"><ele>137.66666666666666</ele><time>2026-05-01T16:11:03.189Z</time></trkpt><trkpt lat="45.8593517" lon="12.0680283"><ele>137.33333333333331</ele><time>2026-05-01T16:11:04.187Z</time></trkpt><trkpt lat="45.8594167" lon="12.06831"><ele>137.0</ele><time>2026-05-01T16:11:05.187Z</time></trkpt><trkpt lat="45.8594833" lon="12.0685867"><ele>137.0</ele><time>2026-05-01T16:11:06.186Z</time></trkpt><trkpt lat="45.8595467" lon="12.068855"><ele>137.0</ele><time>2026-05-01T16:11:07.186Z</time></trkpt><trkpt lat="45.8596033" lon="12.0691083"><ele>137.0</ele><time>2026-05-01T16:11:08.188Z</time></trkpt><trkpt lat="45.85966" lon="12.069345"><ele>137.0</ele><time>2026-05-01T16:11:09.186Z</time></trkpt><trkpt lat="45.8597133" lon="12.0695733"><ele>137.0</ele><time>2026-05-01T16:11:10.185Z</time></trkpt><trkpt lat="45.859765" lon="12.0697917"><ele>137.0</ele><time>2026-05-01T16:11:11.184Z</time></trkpt><trkpt lat="45.8598167" lon="12.0700067"><ele>136.66666666666666</ele><time>2026-05-01T16:11:12.184Z</time></trkpt><trkpt lat="45.8598733" lon="12.0702283"><ele>136.33333333333334</ele><time>2026-05-01T16:11:13.185Z</time></trkpt><trkpt lat="45.85993" lon="12.070455"><ele>136.0</ele><time>2026-05-01T16:11:14.19Z</time></trkpt><trkpt lat="45.8599783" lon="12.07068"><ele>135.66666666666669</ele><time>2026-05-01T16:11:15.188Z</time></trkpt><trkpt lat="45.86003" lon="12.0708933"><ele>135.33333333333334</ele><time>2026-05-01T16:11:16.187Z</time></trkpt><trkpt lat="45.8600817" lon="12.0711133"><ele>135.0</ele><time>2026-05-01T16:11:17.265Z</time></trkpt><trkpt lat="45.860135" lon="12.0713367"><ele>135.0</ele><time>2026-05-01T16:11:18.187Z</time></trkpt><trkpt lat="45.860185" lon="12.07157"><ele>135.0</ele><time>2026-05-01T16:11:19.187Z</time></trkpt><trkpt lat="45.8602267" lon="12.0718067"><ele>135.0</ele><time>2026-05-01T16:11:20.188Z</time></trkpt><trkpt lat="45.8602667" lon="12.0720367"><ele>134.66666666666666</ele><time>2026-05-01T16:11:21.186Z</time></trkpt><trkpt lat="45.8603017" lon="12.0722567"><ele>134.33333333333331</ele><time>2026-05-01T16:11:22.186Z</time></trkpt><trkpt lat="45.8603317" lon="12.072475"><ele>134.0</ele><time>2026-05-01T16:11:23.186Z</time></trkpt><trkpt lat="45.860365" lon="12.072695"><ele>134.0</ele><time>2026-05-01T16:11:24.184Z</time></trkpt><trkpt lat="45.8603967" lon="12.072925"><ele>134.0</ele><time>2026-05-01T16:11:25.186Z</time></trkpt><trkpt lat="45.8604267" lon="12.0731533"><ele>134.0</ele><time>2026-05-01T16:11:26.185Z</time></trkpt><trkpt lat="45.8604567" lon="12.0733717"><ele>134.0</ele><time>2026-05-01T16:11:27.193Z</time></trkpt><trkpt lat="45.860485" lon="12.07358"><ele>134.0</ele><time>2026-05-01T16:11:28.189Z</time></trkpt><trkpt lat="45.8605083" lon="12.07378"><ele>134.0</ele><time>2026-05-01T16:11:29.185Z</time></trkpt><trkpt lat="45.860535" lon="12.073985"><ele>134.0</ele><time>2026-05-01T16:11:30.187Z</time></trkpt><trkpt lat="45.8605633" lon="12.0741867"><ele>134.0</ele><time>2026-05-01T16:11:31.188Z</time></trkpt><trkpt lat="45.86059" lon="12.0743767"><ele>134.0</ele><time>2026-05-01T16:11:32.189Z</time></trkpt><trkpt lat="45.8606083" lon="12.0745583"><ele>134.0</ele><time>2026-05-01T16:11:33.19Z</time></trkpt><trkpt lat="45.8606267" lon="12.0747283"><ele>134.0</ele><time>2026-05-01T16:11:34.184Z</time></trkpt><trkpt lat="45.8606383" lon="12.074895"><ele>134.25</ele><time>2026-05-01T16:11:35.186Z</time></trkpt><trkpt lat="45.8606433" lon="12.0750683"><ele>134.5</ele><time>2026-05-01T16:11:36.188Z</time></trkpt><trkpt lat="45.860635" lon="12.0752467"><ele>134.75</ele><time>2026-05-01T16:11:37.186Z</time></trkpt><trkpt lat="45.8606117" lon="12.0754133"><ele>135.0</ele><time>2026-05-01T16:11:38.186Z</time></trkpt><trkpt lat="45.8605817" lon="12.0755767"><ele>135.0</ele><time>2026-05-01T16:11:39.186Z</time></trkpt><trkpt lat="45.8605467" lon="12.0757283"><ele>135.0</ele><time>2026-05-01T16:11:40.184Z</time></trkpt><trkpt lat="45.8604983" lon="12.0758617"><ele>135.0</ele><time>2026-05-01T16:11:41.185Z</time></trkpt><trkpt lat="45.8604467" lon="12.07598"><ele>135.0</ele><time>2026-05-01T16:11:42.185Z</time></trkpt><trkpt lat="45.860415" lon="12.0760983"><ele>135.0</ele><time>2026-05-01T16:11:43.184Z</time></trkpt><trkpt lat="45.86042" lon="12.0762333"><ele>135.0</ele><time>2026-05-01T16:11:44.185Z</time></trkpt><trkpt lat="45.860465" lon="12.076375"><ele>135.0</ele><time>2026-05-01T16:11:45.185Z</time></trkpt><trkpt lat="45.8605333" lon="12.0765117"><ele>135.0</ele><time>2026-05-01T16:11:46.184Z</time></trkpt><trkpt lat="45.860625" lon="12.0766483"><ele>135.0</ele><time>2026-05-01T16:11:47.186Z</time></trkpt><trkpt lat="45.8607217" lon="12.0767883"><ele>134.75</ele><time>2026-05-01T16:11:48.188Z</time></trkpt><trkpt lat="45.8608183" lon="12.07694"><ele>134.5</ele><time>2026-05-01T16:11:49.186Z</time></trkpt><trkpt lat="45.860915" lon="12.0770983"><ele>134.25</ele><time>2026-05-01T16:11:50.187Z</time></trkpt><trkpt lat="45.8610183" lon="12.07726"><ele>134.0</ele><time>2026-05-01T16:11:51.186Z</time></trkpt><trkpt lat="45.8611183" lon="12.0774517"><ele>133.66666666666666</ele><time>2026-05-01T16:11:52.185Z</time></trkpt><trkpt lat="45.8612" lon="12.0776717"><ele>133.33333333333334</ele><time>2026-05-01T16:11:53.185Z</time></trkpt><trkpt lat="45.8612733" lon="12.0778967"><ele>133.0</ele><time>2026-05-01T16:11:54.188Z</time></trkpt><trkpt lat="45.8613367" lon="12.078135"><ele>133.0</ele><time>2026-05-01T16:11:55.185Z</time></trkpt><trkpt lat="45.8614033" lon="12.0783817"><ele>133.0</ele><time>2026-05-01T16:11:56.189Z</time></trkpt><trkpt lat="45.8614717" lon="12.07862"><ele>133.0</ele><time>2026-05-01T16:11:57.188Z</time></trkpt><trkpt lat="45.8615433" lon="12.07885"><ele>133.0</ele><time>2026-05-01T16:11:58.185Z</time></trkpt><trkpt lat="45.86161" lon="12.0790883"><ele>133.0</ele><time>2026-05-01T16:11:59.187Z</time></trkpt><trkpt lat="45.8616817" lon="12.0793367"><ele>133.0</ele><time>2026-05-01T16:12:00.187Z</time></trkpt><trkpt lat="45.861755" lon="12.0795933"><ele>132.33333333333334</ele><time>2026-05-01T16:12:01.185Z</time></trkpt><trkpt lat="45.8618233" lon="12.0798483"><ele>131.66666666666666</ele><time>2026-05-01T16:12:02.185Z</time></trkpt><trkpt lat="45.8618867" lon="12.08009"><ele>131.0</ele><time>2026-05-01T16:12:03.186Z</time></trkpt><trkpt lat="45.8619517" lon="12.0803183"><ele>130.66666666666666</ele><time>2026-05-01T16:12:04.185Z</time></trkpt><trkpt lat="45.8620133" lon="12.0805367"><ele>130.33333333333334</ele><time>2026-05-01T16:12:05.185Z</time></trkpt><trkpt lat="45.862075" lon="12.0807583"><ele>130.0</ele><time>2026-05-01T16:12:06.183Z</time></trkpt><trkpt lat="45.86214" lon="12.0809767"><ele>130.0</ele><time>2026-05-01T16:12:07.184Z</time></trkpt><trkpt lat="45.862205" lon="12.0811967"><ele>130.0</ele><time>2026-05-01T16:12:08.186Z</time></trkpt><trkpt lat="45.8622617" lon="12.0814117"><ele>130.0</ele><time>2026-05-01T16:12:09.186Z</time></trkpt><trkpt lat="45.8623183" lon="12.081615"><ele>130.5</ele><time>2026-05-01T16:12:10.186Z</time></trkpt><trkpt lat="45.8623733" lon="12.081805"><ele>131.0</ele><time>2026-05-01T16:12:11.186Z</time></trkpt><trkpt lat="45.862425" lon="12.0819817"><ele>131.5</ele><time>2026-05-01T16:12:12.184Z</time></trkpt><trkpt lat="45.8624717" lon="12.0821467"><ele>132.0</ele><time>2026-05-01T16:12:13.186Z</time></trkpt><trkpt lat="45.862515" lon="12.082315"><ele>131.66666666666666</ele><time>2026-05-01T16:12:14.189Z</time></trkpt><trkpt lat="45.8625617" lon="12.082495"><ele>131.33333333333331</ele><time>2026-05-01T16:12:15.187Z</time></trkpt><trkpt lat="45.8626167" lon="12.0826967"><ele>131.0</ele><time>2026-05-01T16:12:16.188Z</time></trkpt><trkpt lat="45.8626917" lon="12.0829267"><ele>130.66666666666666</ele><time>2026-05-01T16:12:17.187Z</time></trkpt><trkpt lat="45.8627517" lon="12.0831867"><ele>130.33333333333334</ele><time>2026-05-01T16:12:18.185Z</time></trkpt><trkpt lat="45.86281" lon="12.0834583"><ele>130.0</ele><time>2026-05-01T16:12:19.191Z</time></trkpt><trkpt lat="45.8628733" lon="12.0837467"><ele>130.0</ele><time>2026-05-01T16:12:20.183Z</time></trkpt><trkpt lat="45.86295" lon="12.08405"><ele>130.0</ele><time>2026-05-01T16:12:21.189Z</time></trkpt><trkpt lat="45.8630217" lon="12.0843583"><ele>129.0</ele><time>2026-05-01T16:12:22.188Z</time></trkpt><trkpt lat="45.86309" lon="12.0846633"><ele>128.0</ele><time>2026-05-01T16:12:23.187Z</time></trkpt><trkpt lat="45.86316" lon="12.0849767"><ele>128.0</ele><time>2026-05-01T16:12:24.187Z</time></trkpt><trkpt lat="45.86324" lon="12.08529"><ele>128.0</ele><time>2026-05-01T16:12:25.183Z</time></trkpt><trkpt lat="45.8633217" lon="12.0856083"><ele>128.0</ele><time>2026-05-01T16:12:26.185Z</time></trkpt><trkpt lat="45.8634067" lon="12.0859317"><ele>128.0</ele><time>2026-05-01T16:12:27.185Z</time></trkpt><trkpt lat="45.8634817" lon="12.0862533"><ele>128.0</ele><time>2026-05-01T16:12:28.188Z</time></trkpt><trkpt lat="45.8635567" lon="12.08656"><ele>128.0</ele><time>2026-05-01T16:12:29.188Z</time></trkpt><trkpt lat="45.8636317" lon="12.08685"><ele>128.0</ele><time>2026-05-01T16:12:30.188Z</time></trkpt><trkpt lat="45.8637033" lon="12.0871367"><ele>127.66666666666666</ele><time>2026-05-01T16:12:31.189Z</time></trkpt><trkpt lat="45.8637767" lon="12.0874217"><ele>127.33333333333334</ele><time>2026-05-01T16:12:32.189Z</time></trkpt><trkpt lat="45.8638533" lon="12.087705"><ele>127.0</ele><time>2026-05-01T16:12:33.189Z</time></trkpt><trkpt lat="45.8639267" lon="12.0879917"><ele>127.0</ele><time>2026-05-01T16:12:34.185Z</time></trkpt><trkpt lat="45.863995" lon="12.0882767"><ele>127.0</ele><time>2026-05-01T16:12:35.189Z</time></trkpt><trkpt lat="45.86405" lon="12.0885667"><ele>127.0</ele><time>2026-05-01T16:12:36.187Z</time></trkpt><trkpt lat="45.8640883" lon="12.0888633"><ele>126.66666666666667</ele><time>2026-05-01T16:12:37.189Z</time></trkpt><trkpt lat="45.8641167" lon="12.0891667"><ele>126.33333333333334</ele><time>2026-05-01T16:12:38.186Z</time></trkpt><trkpt lat="45.8641417" lon="12.089475"><ele>126.0</ele><time>2026-05-01T16:12:39.189Z</time></trkpt><trkpt lat="45.864165" lon="12.0897883"><ele>126.0</ele><time>2026-05-01T16:12:40.186Z</time></trkpt><trkpt lat="45.8641817" lon="12.090105"><ele>126.0</ele><time>2026-05-01T16:12:41.186Z</time></trkpt><trkpt lat="45.8642" lon="12.0904217"><ele>126.0</ele><time>2026-05-01T16:12:42.186Z</time></trkpt><trkpt lat="45.864225" lon="12.09074"><ele>126.0</ele><time>2026-05-01T16:12:43.185Z</time></trkpt><trkpt lat="45.864245" lon="12.0910583"><ele>126.0</ele><time>2026-05-01T16:12:44.185Z</time></trkpt><trkpt lat="45.8642617" lon="12.091375"><ele>126.0</ele><time>2026-05-01T16:12:45.188Z</time></trkpt><trkpt lat="45.86427" lon="12.0916983"><ele>126.0</ele><time>2026-05-01T16:12:46.187Z</time></trkpt><trkpt lat="45.8642567" lon="12.092025"><ele>126.0</ele><time>2026-05-01T16:12:47.191Z</time></trkpt><trkpt lat="45.864225" lon="12.0923583"><ele>125.0</ele><time>2026-05-01T16:12:48.189Z</time></trkpt><trkpt lat="45.8641833" lon="12.0926967"><ele>124.0</ele><time>2026-05-01T16:12:49.189Z</time></trkpt><trkpt lat="45.8641367" lon="12.09304"><ele>126.0</ele><time>2026-05-01T16:12:50.368Z</time></trkpt><trkpt lat="45.8640617" lon="12.0937033"><ele>126.0</ele><time>2026-05-01T16:12:52.186Z</time></trkpt><trkpt lat="45.8640267" lon="12.094005"><ele>126.0</ele><time>2026-05-01T16:12:53.184Z</time></trkpt><trkpt lat="45.8639917" lon="12.0942983"><ele>126.0</ele><time>2026-05-01T16:12:54.185Z</time></trkpt><trkpt lat="45.863955" lon="12.0945867"><ele>126.33333333333334</ele><time>2026-05-01T16:12:55.185Z</time></trkpt><trkpt lat="45.8639183" lon="12.094875"><ele>126.66666666666667</ele><time>2026-05-01T16:12:56.185Z</time></trkpt><trkpt lat="45.86389" lon="12.0951683"><ele>127.0</ele><time>2026-05-01T16:12:57.187Z</time></trkpt><trkpt lat="45.8638633" lon="12.0954633"><ele>126.66666666666667</ele><time>2026-05-01T16:12:58.187Z</time></trkpt><trkpt lat="45.86384" lon="12.0957633"><ele>126.33333333333334</ele><time>2026-05-01T16:12:59.186Z</time></trkpt><trkpt lat="45.8638217" lon="12.09607"><ele>126.0</ele><time>2026-05-01T16:13:00.187Z</time></trkpt><trkpt lat="45.8638133" lon="12.0963817"><ele>126.0</ele><time>2026-05-01T16:13:01.186Z</time></trkpt><trkpt lat="45.8638083" lon="12.0967017"><ele>126.0</ele><time>2026-05-01T16:13:02.184Z</time></trkpt><trkpt lat="45.86381" lon="12.097025"><ele>126.0</ele><time>2026-05-01T16:13:03.185Z</time></trkpt><trkpt lat="45.863815" lon="12.0973517"><ele>125.5</ele><time>2026-05-01T16:13:04.186Z</time></trkpt><trkpt lat="45.8638283" lon="12.0976817"><ele>125.0</ele><time>2026-05-01T16:13:05.186Z</time></trkpt><trkpt lat="45.8638467" lon="12.098015"><ele>124.5</ele><time>2026-05-01T16:13:06.189Z</time></trkpt><trkpt lat="45.8638717" lon="12.0983433"><ele>124.0</ele><time>2026-05-01T16:13:07.189Z</time></trkpt><trkpt lat="45.8639033" lon="12.0986617"><ele>124.0</ele><time>2026-05-01T16:13:08.188Z</time></trkpt><trkpt lat="45.8639383" lon="12.0989817"><ele>124.0</ele><time>2026-05-01T16:13:09.185Z</time></trkpt><trkpt lat="45.863975" lon="12.099305"><ele>124.0</ele><time>2026-05-01T16:13:10.186Z</time></trkpt><trkpt lat="45.8640083" lon="12.0996283"><ele>124.0</ele><time>2026-05-01T16:13:11.184Z</time></trkpt><trkpt lat="45.8640433" lon="12.0999533"><ele>123.0</ele><time>2026-05-01T16:13:12.186Z</time></trkpt><trkpt lat="45.8640817" lon="12.1002767"><ele>122.0</ele><time>2026-05-01T16:13:13.187Z</time></trkpt><trkpt lat="45.8641183" lon="12.100605"><ele>122.5</ele><time>2026-05-01T16:13:14.187Z</time></trkpt><trkpt lat="45.8641533" lon="12.100935"><ele>123.0</ele><time>2026-05-01T16:13:15.187Z</time></trkpt><trkpt lat="45.8641917" lon="12.1012667"><ele>122.5</ele><time>2026-05-01T16:13:16.184Z</time></trkpt><trkpt lat="45.8642283" lon="12.1016017"><ele>122.0</ele><time>2026-05-01T16:13:17.186Z</time></trkpt><trkpt lat="45.8642683" lon="12.1019383"><ele>122.5</ele><time>2026-05-01T16:13:18.186Z</time></trkpt><trkpt lat="45.8643083" lon="12.1022767"><ele>123.0</ele><time>2026-05-01T16:13:19.19Z</time></trkpt><trkpt lat="45.8643517" lon="12.1026167"><ele>123.0</ele><time>2026-05-01T16:13:20.185Z</time></trkpt><trkpt lat="45.864395" lon="12.1029567"><ele>123.0</ele><time>2026-05-01T16:13:21.186Z</time></trkpt><trkpt lat="45.8644333" lon="12.1032883"><ele>122.33333333333334</ele><time>2026-05-01T16:13:22.188Z</time></trkpt><trkpt lat="45.86447" lon="12.1036033"><ele>121.66666666666667</ele><time>2026-05-01T16:13:23.188Z</time></trkpt><trkpt lat="45.8645033" lon="12.103895"><ele>121.0</ele><time>2026-05-01T16:13:24.187Z</time></trkpt><trkpt lat="45.864535" lon="12.1041767"><ele>121.0</ele><time>2026-05-01T16:13:25.187Z</time></trkpt><trkpt lat="45.8645617" lon="12.104445"><ele>121.0</ele><time>2026-05-01T16:13:26.189Z</time></trkpt><trkpt lat="45.8645917" lon="12.1047017"><ele>121.0</ele><time>2026-05-01T16:13:27.187Z</time></trkpt><trkpt lat="45.864625" lon="12.1049583"><ele>120.66666666666667</ele><time>2026-05-01T16:13:28.189Z</time></trkpt><trkpt lat="45.8646567" lon="12.1052083"><ele>120.33333333333334</ele><time>2026-05-01T16:13:29.187Z</time></trkpt><trkpt lat="45.8646867" lon="12.1054433"><ele>120.0</ele><time>2026-05-01T16:13:30.186Z</time></trkpt><trkpt lat="45.8647117" lon="12.1056633"><ele>120.25</ele><time>2026-05-01T16:13:31.187Z</time></trkpt><trkpt lat="45.8647367" lon="12.105865"><ele>120.5</ele><time>2026-05-01T16:13:32.187Z</time></trkpt><trkpt lat="45.864755" lon="12.1060533"><ele>120.75</ele><time>2026-05-01T16:13:33.189Z</time></trkpt><trkpt lat="45.8647583" lon="12.1062267"><ele>121.0</ele><time>2026-05-01T16:13:34.185Z</time></trkpt><trkpt lat="45.8647467" lon="12.10638"><ele>121.0</ele><time>2026-05-01T16:13:35.187Z</time></trkpt><trkpt lat="45.8647217" lon="12.106515"><ele>121.0</ele><time>2026-05-01T16:13:36.184Z</time></trkpt><trkpt lat="45.8647133" lon="12.1066533"><ele>121.0</ele><time>2026-05-01T16:13:37.188Z</time></trkpt><trkpt lat="45.8647383" lon="12.10679"><ele>121.0</ele><time>2026-05-01T16:13:38.187Z</time></trkpt><trkpt lat="45.8648083" lon="12.1069383"><ele>121.0</ele><time>2026-05-01T16:13:39.187Z</time></trkpt><trkpt lat="45.8648817" lon="12.1071117"><ele>120.33333333333334</ele><time>2026-05-01T16:13:40.186Z</time></trkpt><trkpt lat="45.8649233" lon="12.1073333"><ele>119.66666666666666</ele><time>2026-05-01T16:13:41.186Z</time></trkpt><trkpt lat="45.8649517" lon="12.1075917"><ele>119.0</ele><time>2026-05-01T16:13:42.184Z</time></trkpt><trkpt lat="45.8649767" lon="12.1078583"><ele>118.33333333333333</ele><time>2026-05-01T16:13:43.185Z</time></trkpt><trkpt lat="45.8650083" lon="12.10813"><ele>117.66666666666666</ele><time>2026-05-01T16:13:44.186Z</time></trkpt><trkpt lat="45.8650417" lon="12.108415"><ele>117.0</ele><time>2026-05-01T16:13:45.187Z</time></trkpt><trkpt lat="45.8650783" lon="12.108715"><ele>117.0</ele><time>2026-05-01T16:13:46.188Z</time></trkpt><trkpt lat="45.8651133" lon="12.1090267"><ele>117.0</ele><time>2026-05-01T16:13:47.185Z</time></trkpt><trkpt lat="45.8651533" lon="12.1093533"><ele>117.0</ele><time>2026-05-01T16:13:48.19Z</time></trkpt><trkpt lat="45.8651967" lon="12.1097033"><ele>117.0</ele><time>2026-05-01T16:13:49.188Z</time></trkpt><trkpt lat="45.8652517" lon="12.1100633"><ele>117.0</ele><time>2026-05-01T16:13:50.188Z</time></trkpt><trkpt lat="45.8652917" lon="12.1104167"><ele>117.0</ele><time>2026-05-01T16:13:51.187Z</time></trkpt><trkpt lat="45.86532" lon="12.1107567"><ele>117.33333333333334</ele><time>2026-05-01T16:13:52.184Z</time></trkpt><trkpt lat="45.8653567" lon="12.111055"><ele>117.66666666666667</ele><time>2026-05-01T16:13:53.185Z</time></trkpt><trkpt lat="45.8653917" lon="12.1113233"><ele>118.0</ele><time>2026-05-01T16:13:54.185Z</time></trkpt><trkpt lat="45.8654183" lon="12.1115783"><ele>118.0</ele><time>2026-05-01T16:13:55.185Z</time></trkpt><trkpt lat="45.8654433" lon="12.11182"><ele>118.0</ele><time>2026-05-01T16:13:56.186Z</time></trkpt><trkpt lat="45.86547" lon="12.1120367"><ele>118.0</ele><time>2026-05-01T16:13:57.187Z</time></trkpt><trkpt lat="45.8654933" lon="12.1122383"><ele>117.5</ele><time>2026-05-01T16:13:58.185Z</time></trkpt><trkpt lat="45.8655083" lon="12.1124333"><ele>117.0</ele><time>2026-05-01T16:13:59.183Z</time></trkpt><trkpt lat="45.8655217" lon="12.1126167"><ele>116.5</ele><time>2026-05-01T16:14:00.185Z</time></trkpt><trkpt lat="45.8655317" lon="12.1128017"><ele>116.0</ele><time>2026-05-01T16:14:01.185Z</time></trkpt><trkpt lat="45.8655367" lon="12.1129867"><ele>116.0</ele><time>2026-05-01T16:14:02.185Z</time></trkpt><trkpt lat="45.8655317" lon="12.11316"><ele>116.0</ele><time>2026-05-01T16:14:03.188Z</time></trkpt><trkpt lat="45.8655117" lon="12.1133183"><ele>116.0</ele><time>2026-05-01T16:14:04.187Z</time></trkpt><trkpt lat="45.8654817" lon="12.113465"><ele>116.0</ele><time>2026-05-01T16:14:05.188Z</time></trkpt><trkpt lat="45.8654433" lon="12.1136033"><ele>116.0</ele><time>2026-05-01T16:14:06.186Z</time></trkpt><trkpt lat="45.8654083" lon="12.1137333"><ele>115.99999999999999</ele><time>2026-05-01T16:14:07.187Z</time></trkpt><trkpt lat="45.8653883" lon="12.113855"><ele>116.0</ele><time>2026-05-01T16:14:08.186Z</time></trkpt><trkpt lat="45.8653733" lon="12.113965"><ele>116.0</ele><time>2026-05-01T16:14:09.185Z</time></trkpt><trkpt lat="45.8653633" lon="12.1140617"><ele>116.0</ele><time>2026-05-01T16:14:10.185Z</time></trkpt><trkpt lat="45.865365" lon="12.11417"><ele>115.99999999999999</ele><time>2026-05-01T16:14:11.184Z</time></trkpt><trkpt lat="45.86538" lon="12.1142733"><ele>116.0</ele><time>2026-05-01T16:14:12.186Z</time></trkpt><trkpt lat="45.865395" lon="12.11437"><ele>115.99999999999999</ele><time>2026-05-01T16:14:13.19Z</time></trkpt><trkpt lat="45.8654117" lon="12.1144583"><ele>116.0</ele><time>2026-05-01T16:14:14.187Z</time></trkpt><trkpt lat="45.8654367" lon="12.1145517"><ele>116.0</ele><time>2026-05-01T16:14:15.186Z</time></trkpt><trkpt lat="45.8654567" lon="12.1146567"><ele>116.0</ele><time>2026-05-01T16:14:16.185Z</time></trkpt><trkpt lat="45.8654633" lon="12.1147667"><ele>115.99999999999999</ele><time>2026-05-01T16:14:17.182Z</time></trkpt><trkpt lat="45.8654567" lon="12.1148817"><ele>116.0</ele><time>2026-05-01T16:14:18.188Z</time></trkpt><trkpt lat="45.8654383" lon="12.11501"><ele>116.25</ele><time>2026-05-01T16:14:19.187Z</time></trkpt><trkpt lat="45.86542" lon="12.1151483"><ele>116.5</ele><time>2026-05-01T16:14:20.184Z</time></trkpt><trkpt lat="45.8653933" lon="12.11532"><ele>116.75</ele><time>2026-05-01T16:14:21.187Z</time></trkpt><trkpt lat="45.8653583" lon="12.1155617"><ele>117.0</ele><time>2026-05-01T16:14:22.187Z</time></trkpt><trkpt lat="45.8653083" lon="12.1158383"><ele>116.33333333333334</ele><time>2026-05-01T16:14:23.188Z</time></trkpt><trkpt lat="45.865255" lon="12.11614"><ele>115.66666666666667</ele><time>2026-05-01T16:14:24.186Z</time></trkpt><trkpt lat="45.8651867" lon="12.1164567"><ele>115.0</ele><time>2026-05-01T16:14:25.187Z</time></trkpt><trkpt lat="45.86511" lon="12.1167767"><ele>114.0</ele><time>2026-05-01T16:14:26.188Z</time></trkpt><trkpt lat="45.8650367" lon="12.1171117"><ele>113.0</ele><time>2026-05-01T16:14:27.187Z</time></trkpt><trkpt lat="45.8649667" lon="12.1174417"><ele>113.0</ele><time>2026-05-01T16:14:28.189Z</time></trkpt><trkpt lat="45.8649" lon="12.1177567"><ele>113.0</ele><time>2026-05-01T16:14:29.183Z</time></trkpt><trkpt lat="45.864835" lon="12.11807"><ele>113.33333333333333</ele><time>2026-05-01T16:14:30.184Z</time></trkpt><trkpt lat="45.8647683" lon="12.1183783"><ele>113.66666666666666</ele><time>2026-05-01T16:14:31.184Z</time></trkpt><trkpt lat="45.8647067" lon="12.11867"><ele>114.0</ele><time>2026-05-01T16:14:32.185Z</time></trkpt><trkpt lat="45.8646467" lon="12.1189467"><ele>113.0</ele><time>2026-05-01T16:14:33.187Z</time></trkpt><trkpt lat="45.8645833" lon="12.11922"><ele>112.0</ele><time>2026-05-01T16:14:34.184Z</time></trkpt><trkpt lat="45.8645283" lon="12.1194967"><ele>111.0</ele><time>2026-05-01T16:14:35.187Z</time></trkpt><trkpt lat="45.8644867" lon="12.1197817"><ele>111.0</ele><time>2026-05-01T16:14:36.189Z</time></trkpt><trkpt lat="45.8644567" lon="12.1200633"><ele>111.0</ele><time>2026-05-01T16:14:37.186Z</time></trkpt><trkpt lat="45.8644367" lon="12.1203333"><ele>111.0</ele><time>2026-05-01T16:14:38.188Z</time></trkpt><trkpt lat="45.8644233" lon="12.1205883"><ele>110.0</ele><time>2026-05-01T16:14:39.187Z</time></trkpt><trkpt lat="45.86441" lon="12.1208267"><ele>109.0</ele><time>2026-05-01T16:14:40.186Z</time></trkpt><trkpt lat="45.864395" lon="12.1210533"><ele>108.0</ele><time>2026-05-01T16:14:41.186Z</time></trkpt><trkpt lat="45.864385" lon="12.1212717"><ele>108.0</ele><time>2026-05-01T16:14:42.186Z</time></trkpt><trkpt lat="45.864375" lon="12.121475"><ele>108.0</ele><time>2026-05-01T16:14:43.188Z</time></trkpt><trkpt lat="45.864365" lon="12.1216783"><ele>108.0</ele><time>2026-05-01T16:14:44.186Z</time></trkpt><trkpt lat="45.8643583" lon="12.1218833"><ele>108.0</ele><time>2026-05-01T16:14:45.184Z</time></trkpt><trkpt lat="45.864355" lon="12.1220883"><ele>108.5</ele><time>2026-05-01T16:14:46.186Z</time></trkpt><trkpt lat="45.8643467" lon="12.1222817"><ele>109.0</ele><time>2026-05-01T16:14:47.186Z</time></trkpt><trkpt lat="45.864345" lon="12.1224683"><ele>109.5</ele><time>2026-05-01T16:14:48.189Z</time></trkpt><trkpt lat="45.8643483" lon="12.1226383"><ele>110.0</ele><time>2026-05-01T16:14:49.186Z</time></trkpt><trkpt lat="45.8643517" lon="12.1228117"><ele>110.0</ele><time>2026-05-01T16:14:50.187Z</time></trkpt><trkpt lat="45.864345" lon="12.1229983"><ele>110.0</ele><time>2026-05-01T16:14:51.186Z</time></trkpt><trkpt lat="45.864325" lon="12.1231967"><ele>110.0</ele><time>2026-05-01T16:14:52.187Z</time></trkpt><trkpt lat="45.8642883" lon="12.1234033"><ele>110.0</ele><time>2026-05-01T16:14:53.185Z</time></trkpt><trkpt lat="45.8642283" lon="12.1236267"><ele>111.0</ele><time>2026-05-01T16:14:54.185Z</time></trkpt><trkpt lat="45.864175" lon="12.1238717"><ele>112.0</ele><time>2026-05-01T16:14:55.184Z</time></trkpt><trkpt lat="45.8641333" lon="12.1241617"><ele>113.0</ele><time>2026-05-01T16:14:56.19Z</time></trkpt><trkpt lat="45.8640983" lon="12.1244817"><ele>113.0</ele><time>2026-05-01T16:14:57.186Z</time></trkpt><trkpt lat="45.8640433" lon="12.12481"><ele>113.0</ele><time>2026-05-01T16:14:58.184Z</time></trkpt><trkpt lat="45.8639767" lon="12.1251517"><ele>111.5</ele><time>2026-05-01T16:14:59.19Z</time></trkpt><trkpt lat="45.8639167" lon="12.1255033"><ele>110.0</ele><time>2026-05-01T16:15:00.189Z</time></trkpt><trkpt lat="45.8638617" lon="12.1258583"><ele>110.0</ele><time>2026-05-01T16:15:01.192Z</time></trkpt><trkpt lat="45.86381" lon="12.126215"><ele>110.0</ele><time>2026-05-01T16:15:02.186Z</time></trkpt><trkpt lat="45.8637533" lon="12.1265717"><ele>111.0</ele><time>2026-05-01T16:15:03.189Z</time></trkpt><trkpt lat="45.8636917" lon="12.1269283"><ele>112.0</ele><time>2026-05-01T16:15:04.188Z</time></trkpt><trkpt lat="45.8636183" lon="12.12728"><ele>112.0</ele><time>2026-05-01T16:15:05.185Z</time></trkpt><trkpt lat="45.86352" lon="12.1276233"><ele>112.0</ele><time>2026-05-01T16:15:06.19Z</time></trkpt><trkpt lat="45.863405" lon="12.12797"><ele>110.0</ele><time>2026-05-01T16:15:07.186Z</time></trkpt><trkpt lat="45.8632767" lon="12.1283033"><ele>108.0</ele><time>2026-05-01T16:15:08.188Z</time></trkpt><trkpt lat="45.86315" lon="12.1286167"><ele>108.0</ele><time>2026-05-01T16:15:09.188Z</time></trkpt><trkpt lat="45.8630283" lon="12.1289083"><ele>108.0</ele><time>2026-05-01T16:15:10.188Z</time></trkpt><trkpt lat="45.8629117" lon="12.1291933"><ele>108.0</ele><time>2026-05-01T16:15:11.186Z</time></trkpt><trkpt lat="45.8627967" lon="12.1294817"><ele>108.0</ele><time>2026-05-01T16:15:12.184Z</time></trkpt><trkpt lat="45.8626883" lon="12.129775"><ele>108.5</ele><time>2026-05-01T16:15:13.186Z</time></trkpt><trkpt lat="45.86259" lon="12.1300767"><ele>109.0</ele><time>2026-05-01T16:15:14.187Z</time></trkpt><trkpt lat="45.8625083" lon="12.1303917"><ele>109.0</ele><time>2026-05-01T16:15:15.188Z</time></trkpt><trkpt lat="45.862445" lon="12.1307233"><ele>109.0</ele><time>2026-05-01T16:15:16.186Z</time></trkpt><trkpt lat="45.8623967" lon="12.131065"><ele>109.5</ele><time>2026-05-01T16:15:17.184Z</time></trkpt><trkpt lat="45.8623617" lon="12.131405"><ele>110.0</ele><time>2026-05-01T16:15:18.186Z</time></trkpt><trkpt lat="45.8623433" lon="12.1317367"><ele>110.0</ele><time>2026-05-01T16:15:19.186Z</time></trkpt><trkpt lat="45.86234" lon="12.1320633"><ele>110.0</ele><time>2026-05-01T16:15:20.187Z</time></trkpt><trkpt lat="45.8623467" lon="12.1324"><ele>107.5</ele><time>2026-05-01T16:15:21.188Z</time></trkpt><trkpt lat="45.8623633" lon="12.1327383"><ele>105.0</ele><time>2026-05-01T16:15:22.191Z</time></trkpt><trkpt lat="45.862385" lon="12.1330833"><ele>105.5</ele><time>2026-05-01T16:15:23.186Z</time></trkpt><trkpt lat="45.862415" lon="12.1334317"><ele>106.0</ele><time>2026-05-01T16:15:24.186Z</time></trkpt><trkpt lat="45.8624467" lon="12.1337817"><ele>106.0</ele><time>2026-05-01T16:15:25.187Z</time></trkpt><trkpt lat="45.862475" lon="12.1341333"><ele>106.0</ele><time>2026-05-01T16:15:26.186Z</time></trkpt><trkpt lat="45.8624983" lon="12.1344717"><ele>106.0</ele><time>2026-05-01T16:15:27.184Z</time></trkpt><trkpt lat="45.8625217" lon="12.134795"><ele>106.0</ele><time>2026-05-01T16:15:28.185Z</time></trkpt><trkpt lat="45.8625467" lon="12.1351083"><ele>106.0</ele><time>2026-05-01T16:15:29.189Z</time></trkpt><trkpt lat="45.8625733" lon="12.1354117"><ele>106.0</ele><time>2026-05-01T16:15:30.185Z</time></trkpt><trkpt lat="45.8626067" lon="12.1356967"><ele>106.0</ele><time>2026-05-01T16:15:31.189Z</time></trkpt><trkpt lat="45.86264" lon="12.1359733"><ele>106.0</ele><time>2026-05-01T16:15:32.188Z</time></trkpt><trkpt lat="45.8626833" lon="12.1362483"><ele>106.0</ele><time>2026-05-01T16:15:33.188Z</time></trkpt><trkpt lat="45.8627417" lon="12.13652"><ele>106.0</ele><time>2026-05-01T16:15:34.186Z</time></trkpt><trkpt lat="45.8628067" lon="12.1367817"><ele>106.0</ele><time>2026-05-01T16:15:35.188Z</time></trkpt><trkpt lat="45.8628717" lon="12.1370283"><ele>105.66666666666667</ele><time>2026-05-01T16:15:36.187Z</time></trkpt><trkpt lat="45.8629367" lon="12.137255"><ele>105.33333333333334</ele><time>2026-05-01T16:15:37.184Z</time></trkpt><trkpt lat="45.8629983" lon="12.13747"><ele>105.0</ele><time>2026-05-01T16:15:38.184Z</time></trkpt><trkpt lat="45.8630567" lon="12.1376783"><ele>105.0</ele><time>2026-05-01T16:15:39.188Z</time></trkpt><trkpt lat="45.863115" lon="12.1378933"><ele>105.0</ele><time>2026-05-01T16:15:40.272Z</time></trkpt><trkpt lat="45.8631733" lon="12.1381083"><ele>105.0</ele><time>2026-05-01T16:15:41.189Z</time></trkpt><trkpt lat="45.8632283" lon="12.1383217"><ele>105.0</ele><time>2026-05-01T16:15:42.183Z</time></trkpt><trkpt lat="45.8632783" lon="12.1385333"><ele>105.0</ele><time>2026-05-01T16:15:43.186Z</time></trkpt><trkpt lat="45.8633317" lon="12.13874"><ele>105.0</ele><time>2026-05-01T16:15:44.183Z</time></trkpt><trkpt lat="45.8633883" lon="12.1389433"><ele>105.33333333333334</ele><time>2026-05-01T16:15:45.185Z</time></trkpt><trkpt lat="45.8634433" lon="12.139145"><ele>105.66666666666667</ele><time>2026-05-01T16:15:46.185Z</time></trkpt><trkpt lat="45.8635067" lon="12.139345"><ele>106.0</ele><time>2026-05-01T16:15:47.189Z</time></trkpt><trkpt lat="45.8635667" lon="12.13955"><ele>106.0</ele><time>2026-05-01T16:15:48.184Z</time></trkpt><trkpt lat="45.863625" lon="12.1397583"><ele>106.0</ele><time>2026-05-01T16:15:49.184Z</time></trkpt><trkpt lat="45.8636767" lon="12.1399717"><ele>106.0</ele><time>2026-05-01T16:15:50.183Z</time></trkpt><trkpt lat="45.8637233" lon="12.14019"><ele>106.33333333333334</ele><time>2026-05-01T16:15:51.19Z</time></trkpt><trkpt lat="45.8637533" lon="12.1404167"><ele>106.66666666666666</ele><time>2026-05-01T16:15:52.186Z</time></trkpt><trkpt lat="45.8637833" lon="12.1406467"><ele>107.0</ele><time>2026-05-01T16:15:53.185Z</time></trkpt><trkpt lat="45.8638067" lon="12.1408783"><ele>106.0</ele><time>2026-05-01T16:15:54.186Z</time></trkpt><trkpt lat="45.863825" lon="12.1411133"><ele>105.0</ele><time>2026-05-01T16:15:55.187Z</time></trkpt><trkpt lat="45.863835" lon="12.1413567"><ele>104.0</ele><time>2026-05-01T16:15:56.189Z</time></trkpt><trkpt lat="45.863835" lon="12.141605"><ele>104.0</ele><time>2026-05-01T16:15:57.184Z</time></trkpt><trkpt lat="45.8638283" lon="12.1418533"><ele>104.0</ele><time>2026-05-01T16:15:58.185Z</time></trkpt><trkpt lat="45.8638167" lon="12.1421"><ele>104.0</ele><time>2026-05-01T16:15:59.185Z</time></trkpt><trkpt lat="45.8638017" lon="12.1423517"><ele>106.0</ele><time>2026-05-01T16:16:00.184Z</time></trkpt><trkpt lat="45.86379" lon="12.1426067"><ele>108.0</ele><time>2026-05-01T16:16:01.183Z</time></trkpt><trkpt lat="45.8637817" lon="12.142865"><ele>110.0</ele><time>2026-05-01T16:16:02.186Z</time></trkpt><trkpt lat="45.86377" lon="12.143125"><ele>110.66666666666666</ele><time>2026-05-01T16:16:03.188Z</time></trkpt><trkpt lat="45.863755" lon="12.1433833"><ele>111.33333333333334</ele><time>2026-05-01T16:16:04.186Z</time></trkpt><trkpt lat="45.8637417" lon="12.1436383"><ele>112.0</ele><time>2026-05-01T16:16:05.183Z</time></trkpt><trkpt lat="45.8637333" lon="12.1438817"><ele>112.33333333333334</ele><time>2026-05-01T16:16:06.185Z</time></trkpt><trkpt lat="45.863725" lon="12.1441133"><ele>112.66666666666666</ele><time>2026-05-01T16:16:07.184Z</time></trkpt><trkpt lat="45.863715" lon="12.1443517"><ele>113.0</ele><time>2026-05-01T16:16:08.184Z</time></trkpt><trkpt lat="45.8637" lon="12.14459"><ele>113.0</ele><time>2026-05-01T16:16:09.186Z</time></trkpt><trkpt lat="45.8636883" lon="12.144835"><ele>113.0</ele><time>2026-05-01T16:16:10.185Z</time></trkpt><trkpt lat="45.86368" lon="12.1450867"><ele>113.0</ele><time>2026-05-01T16:16:11.184Z</time></trkpt><trkpt lat="45.8636733" lon="12.14534"><ele>113.0</ele><time>2026-05-01T16:16:12.187Z</time></trkpt><trkpt lat="45.863685" lon="12.1455983"><ele>113.0</ele><time>2026-05-01T16:16:13.185Z</time></trkpt><trkpt lat="45.8637083" lon="12.1458667"><ele>113.0</ele><time>2026-05-01T16:16:14.183Z</time></trkpt><trkpt lat="45.8637417" lon="12.14613"><ele>113.0</ele><time>2026-05-01T16:16:15.185Z</time></trkpt><trkpt lat="45.8637833" lon="12.146375"><ele>113.0</ele><time>2026-05-01T16:16:16.187Z</time></trkpt><trkpt lat="45.8638233" lon="12.1466"><ele>113.0</ele><time>2026-05-01T16:16:17.184Z</time></trkpt><trkpt lat="45.863865" lon="12.1468217"><ele>113.0</ele><time>2026-05-01T16:16:18.184Z</time></trkpt><trkpt lat="45.8639133" lon="12.1470467"><ele>113.0</ele><time>2026-05-01T16:16:19.185Z</time></trkpt><trkpt lat="45.86396" lon="12.1472783"><ele>113.0</ele><time>2026-05-01T16:16:20.187Z</time></trkpt><trkpt lat="45.8640017" lon="12.1475033"><ele>113.5</ele><time>2026-05-01T16:16:21.186Z</time></trkpt><trkpt lat="45.8640417" lon="12.1477117"><ele>114.0</ele><time>2026-05-01T16:16:22.189Z</time></trkpt><trkpt lat="45.86408" lon="12.1479083"><ele>114.5</ele><time>2026-05-01T16:16:23.187Z</time></trkpt><trkpt lat="45.8641183" lon="12.1480883"><ele>115.0</ele><time>2026-05-01T16:16:24.185Z</time></trkpt><trkpt lat="45.8641517" lon="12.148255"><ele>115.4</ele><time>2026-05-01T16:16:25.186Z</time></trkpt><trkpt lat="45.8641817" lon="12.1484133"><ele>115.8</ele><time>2026-05-01T16:16:26.188Z</time></trkpt><trkpt lat="45.8642083" lon="12.1485567"><ele>116.19999999999999</ele><time>2026-05-01T16:16:27.186Z</time></trkpt><trkpt lat="45.8642317" lon="12.1486883"><ele>116.6</ele><time>2026-05-01T16:16:28.185Z</time></trkpt><trkpt lat="45.8642433" lon="12.1488133"><ele>117.0</ele><time>2026-05-01T16:16:29.185Z</time></trkpt><trkpt lat="45.864235" lon="12.1489533"><ele>117.0</ele><time>2026-05-01T16:16:30.185Z</time></trkpt><trkpt lat="45.8642067" lon="12.1491117"><ele>117.0</ele><time>2026-05-01T16:16:31.188Z</time></trkpt><trkpt lat="45.864165" lon="12.1492867"><ele>117.0</ele><time>2026-05-01T16:16:32.184Z</time></trkpt><trkpt lat="45.8641033" lon="12.14947"><ele>117.0</ele><time>2026-05-01T16:16:33.186Z</time></trkpt><trkpt lat="45.8639967" lon="12.1496567"><ele>117.0</ele><time>2026-05-01T16:16:34.183Z</time></trkpt><trkpt lat="45.8638533" lon="12.1498483"><ele>117.0</ele><time>2026-05-01T16:16:35.185Z</time></trkpt><trkpt lat="45.8637083" lon="12.1500333"><ele>117.0</ele><time>2026-05-01T16:16:36.184Z</time></trkpt><trkpt lat="45.863585" lon="12.1502017"><ele>116.66666666666666</ele><time>2026-05-01T16:16:37.185Z</time></trkpt><trkpt lat="45.8634733" lon="12.1503617"><ele>116.33333333333333</ele><time>2026-05-01T16:16:38.184Z</time></trkpt><trkpt lat="45.86337" lon="12.1505217"><ele>116.0</ele><time>2026-05-01T16:16:39.185Z</time></trkpt><trkpt lat="45.8632733" lon="12.1507"><ele>116.33333333333333</ele><time>2026-05-01T16:16:40.186Z</time></trkpt><trkpt lat="45.8631767" lon="12.1508983"><ele>116.66666666666666</ele><time>2026-05-01T16:16:41.184Z</time></trkpt><trkpt lat="45.8630867" lon="12.1511267"><ele>117.0</ele><time>2026-05-01T16:16:42.184Z</time></trkpt><trkpt lat="45.8630067" lon="12.1513883"><ele>116.66666666666666</ele><time>2026-05-01T16:16:43.184Z</time></trkpt><trkpt lat="45.8629433" lon="12.15167"><ele>116.33333333333333</ele><time>2026-05-01T16:16:44.185Z</time></trkpt><trkpt lat="45.86288" lon="12.1519633"><ele>116.0</ele><time>2026-05-01T16:16:45.186Z</time></trkpt><trkpt lat="45.8628217" lon="12.1522467"><ele>116.0</ele><time>2026-05-01T16:16:46.189Z</time></trkpt><trkpt lat="45.8627683" lon="12.1525083"><ele>116.0</ele><time>2026-05-01T16:16:47.184Z</time></trkpt><trkpt lat="45.8627133" lon="12.15276"><ele>116.0</ele><time>2026-05-01T16:16:48.186Z</time></trkpt><trkpt lat="45.8626567" lon="12.1530167"><ele>116.0</ele><time>2026-05-01T16:16:49.192Z</time></trkpt><trkpt lat="45.8626" lon="12.1532783"><ele>116.0</ele><time>2026-05-01T16:16:50.186Z</time></trkpt><trkpt lat="45.8625483" lon="12.1535433"><ele>116.0</ele><time>2026-05-01T16:16:51.187Z</time></trkpt><trkpt lat="45.862495" lon="12.1537967"><ele>116.0</ele><time>2026-05-01T16:16:52.187Z</time></trkpt><trkpt lat="45.8624467" lon="12.1540367"><ele>116.0</ele><time>2026-05-01T16:16:53.186Z</time></trkpt><trkpt lat="45.8624067" lon="12.1542717"><ele>116.0</ele><time>2026-05-01T16:16:54.187Z</time></trkpt><trkpt lat="45.86236" lon="12.15451"><ele>115.66666666666666</ele><time>2026-05-01T16:16:55.187Z</time></trkpt><trkpt lat="45.8623133" lon="12.1547483"><ele>115.33333333333334</ele><time>2026-05-01T16:16:56.187Z</time></trkpt><trkpt lat="45.8622717" lon="12.154975"><ele>115.0</ele><time>2026-05-01T16:16:57.187Z</time></trkpt><trkpt lat="45.862225" lon="12.1551817"><ele>114.75</ele><time>2026-05-01T16:16:58.187Z</time></trkpt><trkpt lat="45.8621867" lon="12.1553767"><ele>114.5</ele><time>2026-05-01T16:16:59.186Z</time></trkpt><trkpt lat="45.8621567" lon="12.1555633"><ele>114.25</ele><time>2026-05-01T16:17:00.184Z</time></trkpt><trkpt lat="45.862125" lon="12.1557383"><ele>114.0</ele><time>2026-05-01T16:17:01.183Z</time></trkpt><trkpt lat="45.86209" lon="12.1559033"><ele>114.0</ele><time>2026-05-01T16:17:02.183Z</time></trkpt><trkpt lat="45.8620483" lon="12.1560817"><ele>114.0</ele><time>2026-05-01T16:17:03.192Z</time></trkpt><trkpt lat="45.8620067" lon="12.1562683"><ele>114.0</ele><time>2026-05-01T16:17:04.185Z</time></trkpt><trkpt lat="45.8619633" lon="12.15646"><ele>114.0</ele><time>2026-05-01T16:17:05.185Z</time></trkpt><trkpt lat="45.8619183" lon="12.1566583"><ele>113.66666666666666</ele><time>2026-05-01T16:17:06.193Z</time></trkpt><trkpt lat="45.8618767" lon="12.15686"><ele>113.33333333333333</ele><time>2026-05-01T16:17:07.186Z</time></trkpt><trkpt lat="45.8618333" lon="12.1570717"><ele>113.0</ele><time>2026-05-01T16:17:08.183Z</time></trkpt><trkpt lat="45.861785" lon="12.1572883"><ele>113.0</ele><time>2026-05-01T16:17:09.185Z</time></trkpt><trkpt lat="45.8617383" lon="12.1575133"><ele>113.0</ele><time>2026-05-01T16:17:10.261Z</time></trkpt><trkpt lat="45.8616867" lon="12.15774"><ele>113.0</ele><time>2026-05-01T16:17:11.185Z</time></trkpt><trkpt lat="45.8616433" lon="12.1579617"><ele>113.0</ele><time>2026-05-01T16:17:12.185Z</time></trkpt><trkpt lat="45.8615983" lon="12.1581817"><ele>113.0</ele><time>2026-05-01T16:17:13.188Z</time></trkpt><trkpt lat="45.861555" lon="12.1584"><ele>113.0</ele><time>2026-05-01T16:17:14.189Z</time></trkpt><trkpt lat="45.861515" lon="12.1586067"><ele>113.5</ele><time>2026-05-01T16:17:15.189Z</time></trkpt><trkpt lat="45.861475" lon="12.1588"><ele>114.0</ele><time>2026-05-01T16:17:16.187Z</time></trkpt><trkpt lat="45.86144" lon="12.1589783"><ele>114.5</ele><time>2026-05-01T16:17:17.183Z</time></trkpt><trkpt lat="45.861405" lon="12.1591467"><ele>115.0</ele><time>2026-05-01T16:17:18.183Z</time></trkpt><trkpt lat="45.861375" lon="12.1593083"><ele>115.00000000000001</ele><time>2026-05-01T16:17:19.186Z</time></trkpt><trkpt lat="45.8613417" lon="12.159455"><ele>115.0</ele><time>2026-05-01T16:17:20.185Z</time></trkpt><trkpt lat="45.861315" lon="12.159585"><ele>115.0</ele><time>2026-05-01T16:17:21.184Z</time></trkpt><trkpt lat="45.86129" lon="12.1597017"><ele>115.0</ele><time>2026-05-01T16:17:22.186Z</time></trkpt><trkpt lat="45.8612733" lon="12.159815"><ele>115.00000000000001</ele><time>2026-05-01T16:17:23.187Z</time></trkpt><trkpt lat="45.8612533" lon="12.159915"><ele>115.0</ele><time>2026-05-01T16:17:24.187Z</time></trkpt><trkpt lat="45.8612333" lon="12.16001"><ele>114.6</ele><time>2026-05-01T16:17:25.187Z</time></trkpt><trkpt lat="45.8612133" lon="12.160115"><ele>114.2</ele><time>2026-05-01T16:17:26.185Z</time></trkpt><trkpt lat="45.8611883" lon="12.1602283"><ele>113.80000000000001</ele><time>2026-05-01T16:17:27.185Z</time></trkpt><trkpt lat="45.86116" lon="12.1603617"><ele>113.4</ele><time>2026-05-01T16:17:28.186Z</time></trkpt><trkpt lat="45.8611283" lon="12.160515"><ele>113.0</ele><time>2026-05-01T16:17:29.183Z</time></trkpt><trkpt lat="45.8610983" lon="12.1606733"><ele>112.80000000000001</ele><time>2026-05-01T16:17:30.184Z</time></trkpt><trkpt lat="45.8610683" lon="12.160825"><ele>112.60000000000001</ele><time>2026-05-01T16:17:31.188Z</time></trkpt><trkpt lat="45.8610383" lon="12.1609717"><ele>112.39999999999999</ele><time>2026-05-01T16:17:32.185Z</time></trkpt><trkpt lat="45.8610033" lon="12.16112"><ele>112.19999999999999</ele><time>2026-05-01T16:17:33.185Z</time></trkpt><trkpt lat="45.86097" lon="12.1612717"><ele>112.0</ele><time>2026-05-01T16:17:34.186Z</time></trkpt><trkpt lat="45.8609417" lon="12.1614233"><ele>111.8</ele><time>2026-05-01T16:17:35.186Z</time></trkpt><trkpt lat="45.860915" lon="12.16157"><ele>111.6</ele><time>2026-05-01T16:17:36.185Z</time></trkpt><trkpt lat="45.860885" lon="12.1617017"><ele>111.39999999999999</ele><time>2026-05-01T16:17:37.184Z</time></trkpt><trkpt lat="45.8608517" lon="12.1618267"><ele>111.19999999999999</ele><time>2026-05-01T16:17:38.184Z</time></trkpt><trkpt lat="45.860825" lon="12.1619583"><ele>111.0</ele><time>2026-05-01T16:17:39.186Z</time></trkpt><trkpt lat="45.8607983" lon="12.1620967"><ele>111.0</ele><time>2026-05-01T16:17:40.187Z</time></trkpt><trkpt lat="45.86077" lon="12.1622433"><ele>111.0</ele><time>2026-05-01T16:17:41.186Z</time></trkpt><trkpt lat="45.8607333" lon="12.1624017"><ele>111.0</ele><time>2026-05-01T16:17:42.186Z</time></trkpt><trkpt lat="45.8606967" lon="12.16256"><ele>111.0</ele><time>2026-05-01T16:17:43.189Z</time></trkpt><trkpt lat="45.8606617" lon="12.162715"><ele>111.0</ele><time>2026-05-01T16:17:44.185Z</time></trkpt><trkpt lat="45.86063" lon="12.1628717"><ele>111.0</ele><time>2026-05-01T16:17:45.183Z</time></trkpt><trkpt lat="45.8606" lon="12.163035"><ele>111.0</ele><time>2026-05-01T16:17:46.185Z</time></trkpt><trkpt lat="45.8605683" lon="12.1632067"><ele>111.0</ele><time>2026-05-01T16:17:47.183Z</time></trkpt><trkpt lat="45.8605383" lon="12.1633833"><ele>110.75</ele><time>2026-05-01T16:17:48.185Z</time></trkpt><trkpt lat="45.86051" lon="12.163555"><ele>110.5</ele><time>2026-05-01T16:17:49.188Z</time></trkpt><trkpt lat="45.860485" lon="12.1637217"><ele>110.25</ele><time>2026-05-01T16:17:50.187Z</time></trkpt><trkpt lat="45.860465" lon="12.163895"><ele>110.0</ele><time>2026-05-01T16:17:51.19Z</time></trkpt><trkpt lat="45.86045" lon="12.16408"><ele>110.0</ele><time>2026-05-01T16:17:52.186Z</time></trkpt><trkpt lat="45.8604367" lon="12.1642717"><ele>110.0</ele><time>2026-05-01T16:17:53.186Z</time></trkpt><trkpt lat="45.8604283" lon="12.1644617"><ele>110.0</ele><time>2026-05-01T16:17:54.185Z</time></trkpt><trkpt lat="45.860425" lon="12.1646417"><ele>110.0</ele><time>2026-05-01T16:17:55.185Z</time></trkpt><trkpt lat="45.8604267" lon="12.1648117"><ele>109.0</ele><time>2026-05-01T16:17:56.185Z</time></trkpt><trkpt lat="45.8604283" lon="12.1649833"><ele>108.0</ele><time>2026-05-01T16:17:57.185Z</time></trkpt><trkpt lat="45.8604317" lon="12.165165"><ele>107.0</ele><time>2026-05-01T16:17:58.184Z</time></trkpt><trkpt lat="45.860445" lon="12.1653517"><ele>106.0</ele><time>2026-05-01T16:17:59.185Z</time></trkpt><trkpt lat="45.8604617" lon="12.165535"><ele>106.4</ele><time>2026-05-01T16:18:00.183Z</time></trkpt><trkpt lat="45.8604783" lon="12.1657033"><ele>106.8</ele><time>2026-05-01T16:18:01.184Z</time></trkpt><trkpt lat="45.8604933" lon="12.1658583"><ele>107.20000000000002</ele><time>2026-05-01T16:18:02.185Z</time></trkpt><trkpt lat="45.86051" lon="12.166005"><ele>107.60000000000001</ele><time>2026-05-01T16:18:03.185Z</time></trkpt><trkpt lat="45.8605283" lon="12.1661567"><ele>108.0</ele><time>2026-05-01T16:18:04.185Z</time></trkpt><trkpt lat="45.8605483" lon="12.1663167"><ele>108.0</ele><time>2026-05-01T16:18:05.185Z</time></trkpt><trkpt lat="45.860565" lon="12.1664733"><ele>108.00000000000001</ele><time>2026-05-01T16:18:06.186Z</time></trkpt><trkpt lat="45.8605817" lon="12.1666167"><ele>108.00000000000001</ele><time>2026-05-01T16:18:07.188Z</time></trkpt><trkpt lat="45.860605" lon="12.1667467"><ele>108.0</ele><time>2026-05-01T16:18:08.184Z</time></trkpt><trkpt lat="45.860625" lon="12.16686"><ele>108.0</ele><time>2026-05-01T16:18:09.19Z</time></trkpt><trkpt lat="45.8606383" lon="12.1669533"><ele>108.0</ele><time>2026-05-01T16:18:10.187Z</time></trkpt><trkpt lat="45.8606683" lon="12.1671333"><ele>108.0</ele><time>2026-05-01T16:18:12.185Z</time></trkpt><trkpt lat="45.8606783" lon="12.1672367"><ele>108.0</ele><time>2026-05-01T16:18:13.186Z</time></trkpt><trkpt lat="45.8606817" lon="12.1673467"><ele>108.0</ele><time>2026-05-01T16:18:14.185Z</time></trkpt><trkpt lat="45.8606817" lon="12.1674583"><ele>108.0</ele><time>2026-05-01T16:18:15.189Z</time></trkpt><trkpt lat="45.8606867" lon="12.167575"><ele>108.0</ele><time>2026-05-01T16:18:16.187Z</time></trkpt><trkpt lat="45.8606983" lon="12.1677017"><ele>108.0</ele><time>2026-05-01T16:18:17.184Z</time></trkpt><trkpt lat="45.86071" lon="12.167835"><ele>108.00000000000001</ele><time>2026-05-01T16:18:18.186Z</time></trkpt><trkpt lat="45.8607383" lon="12.167965"><ele>108.00000000000001</ele><time>2026-05-01T16:18:19.185Z</time></trkpt><trkpt lat="45.860745" lon="12.1681183"><ele>108.0</ele><time>2026-05-01T16:18:20.188Z</time></trkpt><trkpt lat="45.8607417" lon="12.168275"><ele>108.0</ele><time>2026-05-01T16:18:21.185Z</time></trkpt><trkpt lat="45.8607267" lon="12.1684467"><ele>108.25</ele><time>2026-05-01T16:18:22.183Z</time></trkpt><trkpt lat="45.86069" lon="12.168625"><ele>108.5</ele><time>2026-05-01T16:18:23.184Z</time></trkpt><trkpt lat="45.8606417" lon="12.16879"><ele>108.75</ele><time>2026-05-01T16:18:24.183Z</time></trkpt><trkpt lat="45.8605817" lon="12.1689567"><ele>109.0</ele><time>2026-05-01T16:18:25.188Z</time></trkpt><trkpt lat="45.8605117" lon="12.169135"><ele>109.75</ele><time>2026-05-01T16:18:26.186Z</time></trkpt><trkpt lat="45.860445" lon="12.1693183"><ele>110.5</ele><time>2026-05-01T16:18:27.187Z</time></trkpt><trkpt lat="45.8603783" lon="12.1695"><ele>111.25</ele><time>2026-05-01T16:18:28.184Z</time></trkpt><trkpt lat="45.8603167" lon="12.169675"><ele>112.0</ele><time>2026-05-01T16:18:29.184Z</time></trkpt><trkpt lat="45.8602633" lon="12.1698567"><ele>111.75</ele><time>2026-05-01T16:18:30.184Z</time></trkpt><trkpt lat="45.860245" lon="12.170065"><ele>111.5</ele><time>2026-05-01T16:18:31.185Z</time></trkpt><trkpt lat="45.8602433" lon="12.1702567"><ele>111.25</ele><time>2026-05-01T16:18:32.189Z</time></trkpt><trkpt lat="45.8602583" lon="12.170435"><ele>111.0</ele><time>2026-05-01T16:18:33.188Z</time></trkpt><trkpt lat="45.8602917" lon="12.170615"><ele>110.5</ele><time>2026-05-01T16:18:34.186Z</time></trkpt><trkpt lat="45.8603167" lon="12.1707767"><ele>110.0</ele><time>2026-05-01T16:18:35.184Z</time></trkpt><trkpt lat="45.860345" lon="12.1709267"><ele>109.5</ele><time>2026-05-01T16:18:36.183Z</time></trkpt><trkpt lat="45.860375" lon="12.1710817"><ele>109.0</ele><time>2026-05-01T16:18:37.187Z</time></trkpt><trkpt lat="45.8604" lon="12.17125"><ele>109.0</ele><time>2026-05-01T16:18:38.183Z</time></trkpt><trkpt lat="45.8604267" lon="12.1714267"><ele>109.0</ele><time>2026-05-01T16:18:39.187Z</time></trkpt><trkpt lat="45.8604567" lon="12.17161"><ele>109.0</ele><time>2026-05-01T16:18:40.186Z</time></trkpt><trkpt lat="45.860485" lon="12.1717917"><ele>109.0</ele><time>2026-05-01T16:18:41.185Z</time></trkpt><trkpt lat="45.860515" lon="12.17197"><ele>109.25</ele><time>2026-05-01T16:18:42.188Z</time></trkpt><trkpt lat="45.86055" lon="12.172145"><ele>109.5</ele><time>2026-05-01T16:18:43.184Z</time></trkpt><trkpt lat="45.8605867" lon="12.1723283"><ele>109.75</ele><time>2026-05-01T16:18:44.184Z</time></trkpt><trkpt lat="45.8606183" lon="12.1725233"><ele>110.0</ele><time>2026-05-01T16:18:45.187Z</time></trkpt><trkpt lat="45.8606517" lon="12.1727267"><ele>110.0</ele><time>2026-05-01T16:18:46.188Z</time></trkpt><trkpt lat="45.8606983" lon="12.172935"><ele>110.0</ele><time>2026-05-01T16:18:47.185Z</time></trkpt><trkpt lat="45.8607683" lon="12.173145"><ele>110.0</ele><time>2026-05-01T16:18:48.184Z</time></trkpt><trkpt lat="45.8608467" lon="12.1733517"><ele>110.5</ele><time>2026-05-01T16:18:49.184Z</time></trkpt><trkpt lat="45.8609283" lon="12.1735367"><ele>111.0</ele><time>2026-05-01T16:18:50.183Z</time></trkpt><trkpt lat="45.8610083" lon="12.1736983"><ele>111.5</ele><time>2026-05-01T16:18:51.188Z</time></trkpt><trkpt lat="45.86108" lon="12.1738433"><ele>112.0</ele><time>2026-05-01T16:18:52.189Z</time></trkpt><trkpt lat="45.8611483" lon="12.1739767"><ele>112.5</ele><time>2026-05-01T16:18:53.187Z</time></trkpt><trkpt lat="45.86122" lon="12.174105"><ele>113.0</ele><time>2026-05-01T16:18:54.184Z</time></trkpt><trkpt lat="45.8612917" lon="12.1742483"><ele>113.5</ele><time>2026-05-01T16:18:55.186Z</time></trkpt><trkpt lat="45.861355" lon="12.17441"><ele>114.0</ele><time>2026-05-01T16:18:56.189Z</time></trkpt><trkpt lat="45.8614083" lon="12.1745867"><ele>114.0</ele><time>2026-05-01T16:18:57.186Z</time></trkpt><trkpt lat="45.861465" lon="12.1747717"><ele>114.0</ele><time>2026-05-01T16:18:58.186Z</time></trkpt><trkpt lat="45.8615183" lon="12.1749583"><ele>114.0</ele><time>2026-05-01T16:18:59.185Z</time></trkpt><trkpt lat="45.861575" lon="12.175145"><ele>114.0</ele><time>2026-05-01T16:19:00.185Z</time></trkpt><trkpt lat="45.8616333" lon="12.175335"><ele>114.0</ele><time>2026-05-01T16:19:01.186Z</time></trkpt><trkpt lat="45.8617067" lon="12.1755117"><ele>114.0</ele><time>2026-05-01T16:19:02.185Z</time></trkpt><trkpt lat="45.8617833" lon="12.1756733"><ele>114.0</ele><time>2026-05-01T16:19:03.185Z</time></trkpt><trkpt lat="45.8618567" lon="12.175835"><ele>114.0</ele><time>2026-05-01T16:19:04.185Z</time></trkpt><trkpt lat="45.8619483" lon="12.1759983"><ele>113.0</ele><time>2026-05-01T16:19:05.184Z</time></trkpt><trkpt lat="45.86206" lon="12.1761667"><ele>112.0</ele><time>2026-05-01T16:19:06.184Z</time></trkpt><trkpt lat="45.86218" lon="12.1763267"><ele>111.0</ele><time>2026-05-01T16:19:07.182Z</time></trkpt><trkpt lat="45.8623083" lon="12.176475"><ele>109.33333333333334</ele><time>2026-05-01T16:19:08.186Z</time></trkpt><trkpt lat="45.8624417" lon="12.17663"><ele>107.66666666666667</ele><time>2026-05-01T16:19:09.185Z</time></trkpt><trkpt lat="45.8625767" lon="12.176795"><ele>106.0</ele><time>2026-05-01T16:19:10.189Z</time></trkpt><trkpt lat="45.8627117" lon="12.176955"><ele>106.0</ele><time>2026-05-01T16:19:11.184Z</time></trkpt><trkpt lat="45.8628383" lon="12.1771033"><ele>106.0</ele><time>2026-05-01T16:19:12.183Z</time></trkpt><trkpt lat="45.8629583" lon="12.1772483"><ele>106.0</ele><time>2026-05-01T16:19:13.184Z</time></trkpt><trkpt lat="45.8630783" lon="12.1774"><ele>106.66666666666667</ele><time>2026-05-01T16:19:14.183Z</time></trkpt><trkpt lat="45.863205" lon="12.177555"><ele>107.33333333333334</ele><time>2026-05-01T16:19:15.186Z</time></trkpt><trkpt lat="45.8633383" lon="12.1777117"><ele>108.0</ele><time>2026-05-01T16:19:16.185Z</time></trkpt><trkpt lat="45.863475" lon="12.1778683"><ele>108.0</ele><time>2026-05-01T16:19:17.189Z</time></trkpt><trkpt lat="45.8636117" lon="12.1780267"><ele>108.0</ele><time>2026-05-01T16:19:18.185Z</time></trkpt><trkpt lat="45.86374" lon="12.17818"><ele>108.0</ele><time>2026-05-01T16:19:19.184Z</time></trkpt><trkpt lat="45.8638617" lon="12.1783233"><ele>106.33333333333334</ele><time>2026-05-01T16:19:20.187Z</time></trkpt><trkpt lat="45.8639767" lon="12.17846"><ele>104.66666666666667</ele><time>2026-05-01T16:19:21.187Z</time></trkpt><trkpt lat="45.8640983" lon="12.1785967"><ele>103.0</ele><time>2026-05-01T16:19:22.188Z</time></trkpt><trkpt lat="45.864225" lon="12.1787367"><ele>104.66666666666667</ele><time>2026-05-01T16:19:23.185Z</time></trkpt><trkpt lat="45.864345" lon="12.178885"><ele>106.33333333333334</ele><time>2026-05-01T16:19:24.186Z</time></trkpt><trkpt lat="45.8644483" lon="12.1790433"><ele>108.0</ele><time>2026-05-01T16:19:25.183Z</time></trkpt><trkpt lat="45.8645333" lon="12.1792083"><ele>108.0</ele><time>2026-05-01T16:19:26.184Z</time></trkpt><trkpt lat="45.8646033" lon="12.1793767"><ele>108.00000000000001</ele><time>2026-05-01T16:19:27.188Z</time></trkpt><trkpt lat="45.8646483" lon="12.1795367"><ele>108.00000000000001</ele><time>2026-05-01T16:19:28.184Z</time></trkpt><trkpt lat="45.8646783" lon="12.17967"><ele>108.0</ele><time>2026-05-01T16:19:29.185Z</time></trkpt><trkpt lat="45.8647" lon="12.17978"><ele>108.0</ele><time>2026-05-01T16:19:30.186Z</time></trkpt><trkpt lat="45.86472" lon="12.1798717"><ele>106.80000000000001</ele><time>2026-05-01T16:19:31.186Z</time></trkpt><trkpt lat="45.8647317" lon="12.18002"><ele>105.60000000000001</ele><time>2026-05-01T16:19:33.188Z</time></trkpt><trkpt lat="45.8647317" lon="12.1801333"><ele>104.4</ele><time>2026-05-01T16:19:36.185Z</time></trkpt><trkpt lat="45.8647117" lon="12.1802817"><ele>103.19999999999999</ele><time>2026-05-01T16:19:40.187Z</time></trkpt><trkpt lat="45.86466" lon="12.1803867"><ele>102.0</ele><time>2026-05-01T16:19:41.185Z</time></trkpt><trkpt lat="45.86458" lon="12.180495"><ele>102.0</ele><time>2026-05-01T16:19:42.186Z</time></trkpt><trkpt lat="45.864485" lon="12.1806067"><ele>102.0</ele><time>2026-05-01T16:19:43.184Z</time></trkpt><trkpt lat="45.8643833" lon="12.1807467"><ele>102.0</ele><time>2026-05-01T16:19:44.183Z</time></trkpt><trkpt lat="45.86428" lon="12.1809067"><ele>102.0</ele><time>2026-05-01T16:19:45.184Z</time></trkpt><trkpt lat="45.8641717" lon="12.1810667"><ele>100.33333333333334</ele><time>2026-05-01T16:19:46.187Z</time></trkpt><trkpt lat="45.864055" lon="12.1812333"><ele>98.66666666666667</ele><time>2026-05-01T16:19:47.183Z</time></trkpt><trkpt lat="45.863935" lon="12.1814"><ele>97.0</ele><time>2026-05-01T16:19:48.186Z</time></trkpt><trkpt lat="45.8638067" lon="12.1815717"><ele>97.0</ele><time>2026-05-01T16:19:49.187Z</time></trkpt><trkpt lat="45.8636767" lon="12.1817433"><ele>97.0</ele><time>2026-05-01T16:19:50.187Z</time></trkpt><trkpt lat="45.8635467" lon="12.181915"><ele>97.0</ele><time>2026-05-01T16:19:51.186Z</time></trkpt><trkpt lat="45.8634117" lon="12.1820917"><ele>96.33333333333334</ele><time>2026-05-01T16:19:52.183Z</time></trkpt><trkpt lat="45.863275" lon="12.1822667"><ele>95.66666666666667</ele><time>2026-05-01T16:19:53.185Z</time></trkpt><trkpt lat="45.863145" lon="12.182435"><ele>95.0</ele><time>2026-05-01T16:19:54.184Z</time></trkpt><trkpt lat="45.8630183" lon="12.1826"><ele>95.0</ele><time>2026-05-01T16:19:55.184Z</time></trkpt><trkpt lat="45.8628917" lon="12.1827667"><ele>95.0</ele><time>2026-05-01T16:19:56.184Z</time></trkpt><trkpt lat="45.86276" lon="12.1829367"><ele>95.0</ele><time>2026-05-01T16:19:57.183Z</time></trkpt><trkpt lat="45.8626267" lon="12.1831083"><ele>97.0</ele><time>2026-05-01T16:19:58.184Z</time></trkpt><trkpt lat="45.8624933" lon="12.1832833"><ele>99.0</ele><time>2026-05-01T16:19:59.184Z</time></trkpt><trkpt lat="45.86236" lon="12.1834533"><ele>101.0</ele><time>2026-05-01T16:20:00.185Z</time></trkpt><trkpt lat="45.8622383" lon="12.1836133"><ele>101.0</ele><time>2026-05-01T16:20:01.185Z</time></trkpt><trkpt lat="45.8621217" lon="12.18377"><ele>101.0</ele><time>2026-05-01T16:20:02.186Z</time></trkpt><trkpt lat="45.8620017" lon="12.18393"><ele>101.0</ele><time>2026-05-01T16:20:03.187Z</time></trkpt><trkpt lat="45.8618783" lon="12.184095"><ele>103.66666666666666</ele><time>2026-05-01T16:20:04.19Z</time></trkpt><trkpt lat="45.8617517" lon="12.1842533"><ele>106.33333333333334</ele><time>2026-05-01T16:20:05.187Z</time></trkpt><trkpt lat="45.86163" lon="12.1844"><ele>109.0</ele><time>2026-05-01T16:20:06.186Z</time></trkpt><trkpt lat="45.86152" lon="12.1845383"><ele>109.0</ele><time>2026-05-01T16:20:07.189Z</time></trkpt><trkpt lat="45.8614083" lon="12.18467"><ele>109.0</ele><time>2026-05-01T16:20:08.185Z</time></trkpt><trkpt lat="45.8612783" lon="12.1847967"><ele>109.0</ele><time>2026-05-01T16:20:09.188Z</time></trkpt><trkpt lat="45.8611283" lon="12.1849017"><ele>110.66666666666667</ele><time>2026-05-01T16:20:10.184Z</time></trkpt><trkpt lat="45.8609733" lon="12.1850067"><ele>112.33333333333334</ele><time>2026-05-01T16:20:11.185Z</time></trkpt><trkpt lat="45.8608183" lon="12.1851167"><ele>114.0</ele><time>2026-05-01T16:20:12.183Z</time></trkpt><trkpt lat="45.8606667" lon="12.185225"><ele>114.0</ele><time>2026-05-01T16:20:13.188Z</time></trkpt><trkpt lat="45.86053" lon="12.1853267"><ele>114.0</ele><time>2026-05-01T16:20:14.183Z</time></trkpt><trkpt lat="45.8603967" lon="12.1854283"><ele>114.0</ele><time>2026-05-01T16:20:15.186Z</time></trkpt><trkpt lat="45.8602567" lon="12.1855283"><ele>114.0</ele><time>2026-05-01T16:20:16.186Z</time></trkpt><trkpt lat="45.8601167" lon="12.1856283"><ele>114.0</ele><time>2026-05-01T16:20:17.189Z</time></trkpt><trkpt lat="45.859975" lon="12.1857267"><ele>114.0</ele><time>2026-05-01T16:20:18.187Z</time></trkpt><trkpt lat="45.85984" lon="12.18582"><ele>114.25</ele><time>2026-05-01T16:20:19.185Z</time></trkpt><trkpt lat="45.8597167" lon="12.185905"><ele>114.5</ele><time>2026-05-01T16:20:20.183Z</time></trkpt><trkpt lat="45.8595933" lon="12.185995"><ele>114.75</ele><time>2026-05-01T16:20:21.186Z</time></trkpt><trkpt lat="45.8594567" lon="12.1860917"><ele>115.0</ele><time>2026-05-01T16:20:22.184Z</time></trkpt><trkpt lat="45.8593133" lon="12.1861933"><ele>114.66666666666667</ele><time>2026-05-01T16:20:23.186Z</time></trkpt><trkpt lat="45.85916" lon="12.1863017"><ele>114.33333333333334</ele><time>2026-05-01T16:20:24.182Z</time></trkpt><trkpt lat="45.8589967" lon="12.1864217"><ele>114.0</ele><time>2026-05-01T16:20:25.188Z</time></trkpt><trkpt lat="45.8588183" lon="12.18656"><ele>114.0</ele><time>2026-05-01T16:20:26.185Z</time></trkpt><trkpt lat="45.858615" lon="12.186705"><ele>114.0</ele><time>2026-05-01T16:20:27.188Z</time></trkpt><trkpt lat="45.8583967" lon="12.1868517"><ele>114.5</ele><time>2026-05-01T16:20:28.186Z</time></trkpt><trkpt lat="45.8581783" lon="12.1869983"><ele>115.0</ele><time>2026-05-01T16:20:29.186Z</time></trkpt><trkpt lat="45.8579583" lon="12.1871467"><ele>115.0</ele><time>2026-05-01T16:20:30.188Z</time></trkpt><trkpt lat="45.8577467" lon="12.187295"><ele>115.0</ele><time>2026-05-01T16:20:31.186Z</time></trkpt><trkpt lat="45.8575467" lon="12.187435"><ele>114.33333333333334</ele><time>2026-05-01T16:20:32.188Z</time></trkpt><trkpt lat="45.857355" lon="12.1875683"><ele>113.66666666666666</ele><time>2026-05-01T16:20:33.186Z</time></trkpt><trkpt lat="45.8571617" lon="12.1877067"><ele>113.0</ele><time>2026-05-01T16:20:34.188Z</time></trkpt><trkpt lat="45.8569667" lon="12.187845"><ele>112.66666666666666</ele><time>2026-05-01T16:20:35.185Z</time></trkpt><trkpt lat="45.85677" lon="12.187985"><ele>112.33333333333334</ele><time>2026-05-01T16:20:36.183Z</time></trkpt><trkpt lat="45.8565717" lon="12.1881233"><ele>112.0</ele><time>2026-05-01T16:20:37.184Z</time></trkpt><trkpt lat="45.856375" lon="12.18826"><ele>112.66666666666667</ele><time>2026-05-01T16:20:38.184Z</time></trkpt><trkpt lat="45.8561917" lon="12.1883883"><ele>113.33333333333334</ele><time>2026-05-01T16:20:39.188Z</time></trkpt><trkpt lat="45.85602" lon="12.1885133"><ele>114.0</ele><time>2026-05-01T16:20:40.19Z</time></trkpt><trkpt lat="45.855845" lon="12.18864"><ele>114.0</ele><time>2026-05-01T16:20:41.183Z</time></trkpt><trkpt lat="45.8556667" lon="12.1887617"><ele>114.0</ele><time>2026-05-01T16:20:42.187Z</time></trkpt><trkpt lat="45.8554883" lon="12.1888867"><ele>114.0</ele><time>2026-05-01T16:20:43.186Z</time></trkpt><trkpt lat="45.8553083" lon="12.189015"><ele>114.0</ele><time>2026-05-01T16:20:44.184Z</time></trkpt><trkpt lat="45.855125" lon="12.189145"><ele>114.0</ele><time>2026-05-01T16:20:45.183Z</time></trkpt><trkpt lat="45.8549367" lon="12.189275"><ele>114.0</ele><time>2026-05-01T16:20:46.184Z</time></trkpt><trkpt lat="45.8547467" lon="12.18941"><ele>113.33333333333334</ele><time>2026-05-01T16:20:47.183Z</time></trkpt><trkpt lat="45.8545617" lon="12.1895433"><ele>112.66666666666667</ele><time>2026-05-01T16:20:48.189Z</time></trkpt><trkpt lat="45.8543817" lon="12.1896683"><ele>112.0</ele><time>2026-05-01T16:20:49.189Z</time></trkpt><trkpt lat="45.8542033" lon="12.1897917"><ele>111.66666666666667</ele><time>2026-05-01T16:20:50.185Z</time></trkpt><trkpt lat="45.854025" lon="12.1899217"><ele>111.33333333333334</ele><time>2026-05-01T16:20:51.185Z</time></trkpt><trkpt lat="45.85386" lon="12.19004"><ele>111.0</ele><time>2026-05-01T16:20:52.183Z</time></trkpt><trkpt lat="45.8537" lon="12.1901533"><ele>111.0</ele><time>2026-05-01T16:20:53.183Z</time></trkpt><trkpt lat="45.8535417" lon="12.190265"><ele>111.0</ele><time>2026-05-01T16:20:54.183Z</time></trkpt><trkpt lat="45.8533833" lon="12.1903717"><ele>111.0</ele><time>2026-05-01T16:20:55.183Z</time></trkpt><trkpt lat="45.853225" lon="12.1904783"><ele>111.33333333333334</ele><time>2026-05-01T16:20:56.184Z</time></trkpt><trkpt lat="45.853065" lon="12.1905867"><ele>111.66666666666667</ele><time>2026-05-01T16:20:57.187Z</time></trkpt><trkpt lat="45.852905" lon="12.1906983"><ele>112.0</ele><time>2026-05-01T16:20:58.276Z</time></trkpt><trkpt lat="45.85274" lon="12.1908167"><ele>111.0</ele><time>2026-05-01T16:20:59.185Z</time></trkpt><trkpt lat="45.8525733" lon="12.1909383"><ele>110.0</ele><time>2026-05-01T16:21:00.188Z</time></trkpt><trkpt lat="45.8524067" lon="12.19106"><ele>109.0</ele><time>2026-05-01T16:21:01.192Z</time></trkpt><trkpt lat="45.8522467" lon="12.1911767"><ele>109.0</ele><time>2026-05-01T16:21:02.188Z</time></trkpt><trkpt lat="45.852095" lon="12.191285"><ele>109.0</ele><time>2026-05-01T16:21:03.188Z</time></trkpt><trkpt lat="45.8519433" lon="12.191395"><ele>109.0</ele><time>2026-05-01T16:21:04.187Z</time></trkpt><trkpt lat="45.8517883" lon="12.1915017"><ele>110.0</ele><time>2026-05-01T16:21:05.187Z</time></trkpt><trkpt lat="45.8516317" lon="12.1916183"><ele>111.0</ele><time>2026-05-01T16:21:06.188Z</time></trkpt><trkpt lat="45.851475" lon="12.19174"><ele>112.0</ele><time>2026-05-01T16:21:07.19Z</time></trkpt><trkpt lat="45.8513317" lon="12.1918717"><ele>112.0</ele><time>2026-05-01T16:21:08.184Z</time></trkpt><trkpt lat="45.8511967" lon="12.19203"><ele>112.0</ele><time>2026-05-01T16:21:09.187Z</time></trkpt><trkpt lat="45.8510767" lon="12.19222"><ele>112.0</ele><time>2026-05-01T16:21:10.184Z</time></trkpt><trkpt lat="45.8509617" lon="12.1924283"><ele>110.0</ele><time>2026-05-01T16:21:11.184Z</time></trkpt><trkpt lat="45.8508583" lon="12.1926417"><ele>108.0</ele><time>2026-05-01T16:21:12.192Z</time></trkpt><trkpt lat="45.8507567" lon="12.192845"><ele>106.0</ele><time>2026-05-01T16:21:13.187Z</time></trkpt><trkpt lat="45.8506617" lon="12.193055"><ele>107.33333333333334</ele><time>2026-05-01T16:21:14.191Z</time></trkpt><trkpt lat="45.8505683" lon="12.1932617"><ele>108.66666666666666</ele><time>2026-05-01T16:21:15.188Z</time></trkpt><trkpt lat="45.8504733" lon="12.1934717"><ele>110.0</ele><time>2026-05-01T16:21:16.187Z</time></trkpt><trkpt lat="45.850375" lon="12.1936617"><ele>110.0</ele><time>2026-05-01T16:21:17.186Z</time></trkpt><trkpt lat="45.8502767" lon="12.19384"><ele>110.0</ele><time>2026-05-01T16:21:18.186Z</time></trkpt><trkpt lat="45.8501717" lon="12.1940133"><ele>110.0</ele><time>2026-05-01T16:21:19.184Z</time></trkpt><trkpt lat="45.8500467" lon="12.1941733"><ele>106.33333333333333</ele><time>2026-05-01T16:21:20.184Z</time></trkpt><trkpt lat="45.8498983" lon="12.1943117"><ele>102.66666666666666</ele><time>2026-05-01T16:21:21.186Z</time></trkpt><trkpt lat="45.8497317" lon="12.19442"><ele>99.0</ele><time>2026-05-01T16:21:22.185Z</time></trkpt><trkpt lat="45.8495667" lon="12.1945133"><ele>99.0</ele><time>2026-05-01T16:21:23.189Z</time></trkpt><trkpt lat="45.8494133" lon="12.1946067"><ele>99.0</ele><time>2026-05-01T16:21:24.188Z</time></trkpt><trkpt lat="45.8492683" lon="12.19471"><ele>99.0</ele><time>2026-05-01T16:21:25.185Z</time></trkpt><trkpt lat="45.8491133" lon="12.1948"><ele>101.33333333333334</ele><time>2026-05-01T16:21:26.187Z</time></trkpt><trkpt lat="45.8489533" lon="12.1948933"><ele>103.66666666666667</ele><time>2026-05-01T16:21:27.184Z</time></trkpt><trkpt lat="45.8487883" lon="12.1949817"><ele>106.0</ele><time>2026-05-01T16:21:28.187Z</time></trkpt><trkpt lat="45.848625" lon="12.1950817"><ele>106.0</ele><time>2026-05-01T16:21:29.184Z</time></trkpt><trkpt lat="45.84847" lon="12.195205"><ele>106.0</ele><time>2026-05-01T16:21:30.186Z</time></trkpt><trkpt lat="45.8483283" lon="12.19536"><ele>106.0</ele><time>2026-05-01T16:21:31.185Z</time></trkpt><trkpt lat="45.8482033" lon="12.1955433"><ele>105.0</ele><time>2026-05-01T16:21:32.189Z</time></trkpt><trkpt lat="45.8480967" lon="12.1957583"><ele>104.0</ele><time>2026-05-01T16:21:33.189Z</time></trkpt><trkpt lat="45.8480083" lon="12.195995"><ele>103.0</ele><time>2026-05-01T16:21:34.187Z</time></trkpt><trkpt lat="45.847935" lon="12.196235"><ele>103.0</ele><time>2026-05-01T16:21:35.186Z</time></trkpt><trkpt lat="45.8478733" lon="12.1964733"><ele>103.0</ele><time>2026-05-01T16:21:36.185Z</time></trkpt><trkpt lat="45.84782" lon="12.19672"><ele>103.0</ele><time>2026-05-01T16:21:37.186Z</time></trkpt><trkpt lat="45.8477733" lon="12.196965"><ele>104.0</ele><time>2026-05-01T16:21:38.187Z</time></trkpt><trkpt lat="45.8477233" lon="12.1971967"><ele>105.0</ele><time>2026-05-01T16:21:39.194Z</time></trkpt><trkpt lat="45.847675" lon="12.19742"><ele>106.0</ele><time>2026-05-01T16:21:40.186Z</time></trkpt><trkpt lat="45.8476283" lon="12.1976467"><ele>105.33333333333334</ele><time>2026-05-01T16:21:41.185Z</time></trkpt><trkpt lat="45.8475817" lon="12.1978817"><ele>104.66666666666666</ele><time>2026-05-01T16:21:42.187Z</time></trkpt><trkpt lat="45.84753" lon="12.1981217"><ele>104.0</ele><time>2026-05-01T16:21:43.185Z</time></trkpt><trkpt lat="45.84749" lon="12.19836"><ele>105.33333333333333</ele><time>2026-05-01T16:21:44.185Z</time></trkpt><trkpt lat="45.84745" lon="12.198585"><ele>106.66666666666666</ele><time>2026-05-01T16:21:45.186Z</time></trkpt><trkpt lat="45.8474117" lon="12.1988"><ele>108.0</ele><time>2026-05-01T16:21:46.184Z</time></trkpt><trkpt lat="45.8473733" lon="12.199005"><ele>108.0</ele><time>2026-05-01T16:21:47.188Z</time></trkpt><trkpt lat="45.8473033" lon="12.1992067"><ele>108.0</ele><time>2026-05-01T16:21:48.189Z</time></trkpt><trkpt lat="45.8472067" lon="12.199405"><ele>108.0</ele><time>2026-05-01T16:21:49.19Z</time></trkpt><trkpt lat="45.8470833" lon="12.1995983"><ele>108.0</ele><time>2026-05-01T16:21:50.187Z</time></trkpt><trkpt lat="45.8469367" lon="12.1997833"><ele>108.0</ele><time>2026-05-01T16:21:51.187Z</time></trkpt><trkpt lat="45.8467817" lon="12.1999633"><ele>108.0</ele><time>2026-05-01T16:21:52.185Z</time></trkpt><trkpt lat="45.8466317" lon="12.2001317"><ele>107.0</ele><time>2026-05-01T16:21:53.185Z</time></trkpt><trkpt lat="45.846495" lon="12.200295"><ele>106.0</ele><time>2026-05-01T16:21:54.185Z</time></trkpt><trkpt lat="45.846365" lon="12.20045"><ele>105.0</ele><time>2026-05-01T16:21:55.275Z</time></trkpt><trkpt lat="45.84624" lon="12.2005983"><ele>104.66666666666666</ele><time>2026-05-01T16:21:56.184Z</time></trkpt><trkpt lat="45.8461117" lon="12.2007467"><ele>104.33333333333333</ele><time>2026-05-01T16:21:57.187Z</time></trkpt><trkpt lat="45.8459833" lon="12.2008967"><ele>104.0</ele><time>2026-05-01T16:21:58.186Z</time></trkpt><trkpt lat="45.8458617" lon="12.2010383"><ele>102.33333333333333</ele><time>2026-05-01T16:21:59.185Z</time></trkpt><trkpt lat="45.8457383" lon="12.2011817"><ele>100.66666666666666</ele><time>2026-05-01T16:22:00.19Z</time></trkpt><trkpt lat="45.8456117" lon="12.2013233"><ele>99.0</ele><time>2026-05-01T16:22:01.188Z</time></trkpt><trkpt lat="45.8454833" lon="12.201465"><ele>100.0</ele><time>2026-05-01T16:22:02.185Z</time></trkpt><trkpt lat="45.845355" lon="12.201615"><ele>101.0</ele><time>2026-05-01T16:22:03.188Z</time></trkpt><trkpt lat="45.8452233" lon="12.2017667"><ele>102.0</ele><time>2026-05-01T16:22:04.184Z</time></trkpt><trkpt lat="45.8450933" lon="12.201915"><ele>102.0</ele><time>2026-05-01T16:22:05.189Z</time></trkpt><trkpt lat="45.8449667" lon="12.2020533"><ele>102.0</ele><time>2026-05-01T16:22:06.189Z</time></trkpt><trkpt lat="45.8448383" lon="12.2021967"><ele>102.0</ele><time>2026-05-01T16:22:07.189Z</time></trkpt><trkpt lat="45.8447083" lon="12.20234"><ele>102.66666666666666</ele><time>2026-05-01T16:22:08.184Z</time></trkpt><trkpt lat="45.844575" lon="12.20249"><ele>103.33333333333333</ele><time>2026-05-01T16:22:09.191Z</time></trkpt><trkpt lat="45.84444" lon="12.2026433"><ele>104.0</ele><time>2026-05-01T16:22:10.185Z</time></trkpt><trkpt lat="45.8442983" lon="12.2028"><ele>103.66666666666666</ele><time>2026-05-01T16:22:11.19Z</time></trkpt><trkpt lat="45.8441533" lon="12.2029567"><ele>103.33333333333334</ele><time>2026-05-01T16:22:12.185Z</time></trkpt><trkpt lat="45.8440083" lon="12.2031133"><ele>103.0</ele><time>2026-05-01T16:22:13.27Z</time></trkpt><trkpt lat="45.8438583" lon="12.203275"><ele>102.66666666666667</ele><time>2026-05-01T16:22:14.186Z</time></trkpt><trkpt lat="45.8437067" lon="12.2034433"><ele>102.33333333333334</ele><time>2026-05-01T16:22:15.186Z</time></trkpt><trkpt lat="45.8435583" lon="12.2036133"><ele>102.0</ele><time>2026-05-01T16:22:16.184Z</time></trkpt><trkpt lat="45.8434133" lon="12.20378"><ele>102.66666666666666</ele><time>2026-05-01T16:22:17.185Z</time></trkpt><trkpt lat="45.8432767" lon="12.2039433"><ele>103.33333333333333</ele><time>2026-05-01T16:22:18.185Z</time></trkpt><trkpt lat="45.8431383" lon="12.20409"><ele>104.0</ele><time>2026-05-01T16:22:19.184Z</time></trkpt><trkpt lat="45.8429983" lon="12.204235"><ele>104.0</ele><time>2026-05-01T16:22:20.185Z</time></trkpt><trkpt lat="45.8428467" lon="12.2043683"><ele>104.0</ele><time>2026-05-01T16:22:21.186Z</time></trkpt><trkpt lat="45.842675" lon="12.2044817"><ele>104.0</ele><time>2026-05-01T16:22:22.184Z</time></trkpt><trkpt lat="45.842505" lon="12.2045817"><ele>103.66666666666666</ele><time>2026-05-01T16:22:23.187Z</time></trkpt><trkpt lat="45.84234" lon="12.20468"><ele>103.33333333333334</ele><time>2026-05-01T16:22:24.19Z</time></trkpt><trkpt lat="45.8421783" lon="12.204775"><ele>103.0</ele><time>2026-05-01T16:22:25.188Z</time></trkpt><trkpt lat="45.8420217" lon="12.2048717"><ele>102.33333333333334</ele><time>2026-05-01T16:22:26.185Z</time></trkpt><trkpt lat="45.8418717" lon="12.2049667"><ele>101.66666666666666</ele><time>2026-05-01T16:22:27.186Z</time></trkpt><trkpt lat="45.8417267" lon="12.2050533"><ele>101.0</ele><time>2026-05-01T16:22:28.186Z</time></trkpt><trkpt lat="45.8415933" lon="12.2051317"><ele>100.0</ele><time>2026-05-01T16:22:29.187Z</time></trkpt><trkpt lat="45.841455" lon="12.2052183"><ele>99.0</ele><time>2026-05-01T16:22:30.185Z</time></trkpt><trkpt lat="45.8413117" lon="12.205305"><ele>98.0</ele><time>2026-05-01T16:22:31.186Z</time></trkpt><trkpt lat="45.84117" lon="12.2053717"><ele>98.0</ele><time>2026-05-01T16:22:32.184Z</time></trkpt><trkpt lat="45.8410217" lon="12.2053967"><ele>98.0</ele><time>2026-05-01T16:22:33.186Z</time></trkpt><trkpt lat="45.8408617" lon="12.2053783"><ele>98.0</ele><time>2026-05-01T16:22:34.184Z</time></trkpt><trkpt lat="45.8407083" lon="12.205335"><ele>98.0</ele><time>2026-05-01T16:22:35.186Z</time></trkpt><trkpt lat="45.8405667" lon="12.2052833"><ele>98.0</ele><time>2026-05-01T16:22:36.184Z</time></trkpt><trkpt lat="45.840435" lon="12.2052383"><ele>98.0</ele><time>2026-05-01T16:22:37.187Z</time></trkpt><trkpt lat="45.8403067" lon="12.2052167"><ele>98.0</ele><time>2026-05-01T16:22:38.185Z</time></trkpt><trkpt lat="45.8401717" lon="12.20521"><ele>98.33333333333333</ele><time>2026-05-01T16:22:39.186Z</time></trkpt><trkpt lat="45.84003" lon="12.20525"><ele>98.66666666666666</ele><time>2026-05-01T16:22:40.267Z</time></trkpt><trkpt lat="45.839885" lon="12.2053283"><ele>99.0</ele><time>2026-05-01T16:22:41.189Z</time></trkpt><trkpt lat="45.8397433" lon="12.20542"><ele>99.0</ele><time>2026-05-01T16:22:42.184Z</time></trkpt><trkpt lat="45.8396" lon="12.2055133"><ele>99.0</ele><time>2026-05-01T16:22:43.186Z</time></trkpt><trkpt lat="45.8394533" lon="12.205595"><ele>99.0</ele><time>2026-05-01T16:22:44.185Z</time></trkpt><trkpt lat="45.839305" lon="12.20567"><ele>97.75</ele><time>2026-05-01T16:22:45.185Z</time></trkpt><trkpt lat="45.8391617" lon="12.2057483"><ele>96.5</ele><time>2026-05-01T16:22:46.185Z</time></trkpt><trkpt lat="45.8390267" lon="12.20582"><ele>95.25</ele><time>2026-05-01T16:22:47.183Z</time></trkpt><trkpt lat="45.8388983" lon="12.2058933"><ele>94.0</ele><time>2026-05-01T16:22:48.189Z</time></trkpt><trkpt lat="45.8387817" lon="12.205965"><ele>94.0</ele><time>2026-05-01T16:22:49.188Z</time></trkpt><trkpt lat="45.83868" lon="12.2060233"><ele>94.0</ele><time>2026-05-01T16:22:50.189Z</time></trkpt><trkpt lat="45.8385983" lon="12.2060733"><ele>94.0</ele><time>2026-05-01T16:22:51.187Z</time></trkpt><trkpt lat="45.8385267" lon="12.2061283"><ele>94.0</ele><time>2026-05-01T16:22:52.186Z</time></trkpt><trkpt lat="45.8384767" lon="12.2062283"><ele>94.0</ele><time>2026-05-01T16:22:53.183Z</time></trkpt><trkpt lat="45.8384417" lon="12.20636"><ele>92.6</ele><time>2026-05-01T16:22:54.187Z</time></trkpt><trkpt lat="45.83841" lon="12.206505"><ele>91.2</ele><time>2026-05-01T16:22:55.185Z</time></trkpt><trkpt lat="45.8383633" lon="12.2066533"><ele>89.8</ele><time>2026-05-01T16:22:56.186Z</time></trkpt><trkpt lat="45.8382883" lon="12.2067733"><ele>88.39999999999999</ele><time>2026-05-01T16:22:57.188Z</time></trkpt><trkpt lat="45.8382017" lon="12.2068567"><ele>87.0</ele><time>2026-05-01T16:22:58.186Z</time></trkpt><trkpt lat="45.8381367" lon="12.206935"><ele>87.0</ele><time>2026-05-01T16:22:59.184Z</time></trkpt><trkpt lat="45.838085" lon="12.2069967"><ele>87.0</ele><time>2026-05-01T16:23:00.185Z</time></trkpt><trkpt lat="45.83803" lon="12.20707"><ele>87.0</ele><time>2026-05-01T16:23:02.187Z</time></trkpt><trkpt lat="45.8379633" lon="12.2071567"><ele>87.0</ele><time>2026-05-01T16:23:04.187Z</time></trkpt><trkpt lat="45.83791" lon="12.2072383"><ele>87.0</ele><time>2026-05-01T16:23:05.187Z</time></trkpt><trkpt lat="45.8378533" lon="12.20735"><ele>87.0</ele><time>2026-05-01T16:23:06.186Z</time></trkpt><trkpt lat="45.8378067" lon="12.207475"><ele>87.75</ele><time>2026-05-01T16:23:07.187Z</time></trkpt><trkpt lat="45.837785" lon="12.2076283"><ele>88.5</ele><time>2026-05-01T16:23:08.187Z</time></trkpt><trkpt lat="45.8377883" lon="12.207815"><ele>89.25</ele><time>2026-05-01T16:23:09.187Z</time></trkpt><trkpt lat="45.83781" lon="12.2080183"><ele>90.0</ele><time>2026-05-01T16:23:10.188Z</time></trkpt><trkpt lat="45.8378233" lon="12.2082233"><ele>90.5</ele><time>2026-05-01T16:23:11.184Z</time></trkpt><trkpt lat="45.837825" lon="12.20843"><ele>91.0</ele><time>2026-05-01T16:23:12.185Z</time></trkpt><trkpt lat="45.8378083" lon="12.2086433"><ele>91.5</ele><time>2026-05-01T16:23:13.187Z</time></trkpt><trkpt lat="45.8377717" lon="12.2088583"><ele>92.0</ele><time>2026-05-01T16:23:14.187Z</time></trkpt><trkpt lat="45.8377267" lon="12.2090633"><ele>92.0</ele><time>2026-05-01T16:23:15.189Z</time></trkpt><trkpt lat="45.837705" lon="12.209255"><ele>92.0</ele><time>2026-05-01T16:23:16.186Z</time></trkpt><trkpt lat="45.8377067" lon="12.2094317"><ele>92.0</ele><time>2026-05-01T16:23:17.186Z</time></trkpt></trkseg></trk></gpx>